<?xml version="1.0" encoding="UTF-8" standalone="no" ?>
<gpx xmlns="http://www.topografix.com/GPX/1/1" xmlns:xsi="http://www.w3.org/2001/XMLSchema-instance" xsi:schemaLocation="http://www.topografix.com/GPX/1/1 http://www.topografix.com/GPX/1/1/gpx.xsd" version="1.1" creator="VisuGPX - https://www.visugpx.com">
  <metadata>
    <name>Glaris-Engelberg(tout)</name>
  </metadata>
  <trk>
    <name><![CDATA[Glaris-Engelberg(tout)_7]]></name>
    <extensions>
      <line xmlns="http://www.topografix.com/GPX/gpx_style/0/2">
        <color>000088</color>
        <width>4</width>
      </line>
    </extensions>
    <trkseg>
      <trkpt lat="46.93508" lon="8.69277">
        <ele>1727</ele>
        <time>2021-08-07T06:46:31.592Z</time>
      </trkpt>
      <trkpt lat="46.93508" lon="8.69277">
        <ele>1727</ele>
        <time>2021-08-07T06:46:32.592Z</time>
      </trkpt>
      <trkpt lat="46.93508" lon="8.69276">
        <ele>1726</ele>
        <time>2021-08-07T06:46:33.592Z</time>
      </trkpt>
      <trkpt lat="46.93507" lon="8.69277">
        <ele>1726</ele>
        <time>2021-08-07T06:46:34.592Z</time>
      </trkpt>
      <trkpt lat="46.93507" lon="8.69277">
        <ele>1726</ele>
        <time>2021-08-07T06:46:35.592Z</time>
      </trkpt>
      <trkpt lat="46.93507" lon="8.69278">
        <ele>1726</ele>
        <time>2021-08-07T06:46:36.592Z</time>
      </trkpt>
      <trkpt lat="46.93506" lon="8.69279">
        <ele>1726</ele>
        <time>2021-08-07T06:46:37.592Z</time>
      </trkpt>
      <trkpt lat="46.93506" lon="8.6928">
        <ele>1726</ele>
        <time>2021-08-07T06:46:38.592Z</time>
      </trkpt>
      <trkpt lat="46.93505" lon="8.69281">
        <ele>1726</ele>
        <time>2021-08-07T06:46:39.592Z</time>
      </trkpt>
      <trkpt lat="46.93505" lon="8.69281">
        <ele>1726</ele>
        <time>2021-08-07T06:46:40.592Z</time>
      </trkpt>
      <trkpt lat="46.93504" lon="8.69282">
        <ele>1725</ele>
        <time>2021-08-07T06:46:41.592Z</time>
      </trkpt>
      <trkpt lat="46.93503" lon="8.69283">
        <ele>1725</ele>
        <time>2021-08-07T06:46:42.592Z</time>
      </trkpt>
      <trkpt lat="46.93502" lon="8.69284">
        <ele>1725</ele>
        <time>2021-08-07T06:46:43.592Z</time>
      </trkpt>
      <trkpt lat="46.93502" lon="8.69285">
        <ele>1725</ele>
        <time>2021-08-07T06:46:44.592Z</time>
      </trkpt>
      <trkpt lat="46.93502" lon="8.69285">
        <ele>1724</ele>
        <time>2021-08-07T06:46:45.592Z</time>
      </trkpt>
      <trkpt lat="46.93502" lon="8.69285">
        <ele>1724</ele>
        <time>2021-08-07T06:46:46.592Z</time>
      </trkpt>
      <trkpt lat="46.93501" lon="8.69285">
        <ele>1723</ele>
        <time>2021-08-07T06:46:47.592Z</time>
      </trkpt>
      <trkpt lat="46.93501" lon="8.69285">
        <ele>1723</ele>
        <time>2021-08-07T06:46:48.592Z</time>
      </trkpt>
      <trkpt lat="46.93501" lon="8.69284">
        <ele>1722</ele>
        <time>2021-08-07T06:46:49.592Z</time>
      </trkpt>
      <trkpt lat="46.93501" lon="8.69284">
        <ele>1722</ele>
        <time>2021-08-07T06:46:50.592Z</time>
      </trkpt>
      <trkpt lat="46.93501" lon="8.69284">
        <ele>1722</ele>
        <time>2021-08-07T06:46:51.592Z</time>
      </trkpt>
      <trkpt lat="46.93501" lon="8.69284">
        <ele>1722</ele>
        <time>2021-08-07T06:46:52.592Z</time>
      </trkpt>
      <trkpt lat="46.93501" lon="8.69284">
        <ele>1722</ele>
        <time>2021-08-07T06:46:53.592Z</time>
      </trkpt>
      <trkpt lat="46.93501" lon="8.69284">
        <ele>1722</ele>
        <time>2021-08-07T06:46:54.592Z</time>
      </trkpt>
      <trkpt lat="46.93501" lon="8.69284">
        <ele>1722</ele>
        <time>2021-08-07T06:46:55.592Z</time>
      </trkpt>
      <trkpt lat="46.93501" lon="8.69284">
        <ele>1722</ele>
        <time>2021-08-07T06:46:56.592Z</time>
      </trkpt>
      <trkpt lat="46.935" lon="8.69284">
        <ele>1722</ele>
        <time>2021-08-07T06:46:57.592Z</time>
      </trkpt>
      <trkpt lat="46.93501" lon="8.69284">
        <ele>1723</ele>
        <time>2021-08-07T06:46:58.592Z</time>
      </trkpt>
      <trkpt lat="46.93501" lon="8.69284">
        <ele>1724</ele>
        <time>2021-08-07T06:46:59.592Z</time>
      </trkpt>
      <trkpt lat="46.93501" lon="8.69285">
        <ele>1725</ele>
        <time>2021-08-07T06:47:00.592Z</time>
      </trkpt>
      <trkpt lat="46.93502" lon="8.69285">
        <ele>1726</ele>
        <time>2021-08-07T06:47:01.592Z</time>
      </trkpt>
      <trkpt lat="46.93502" lon="8.69285">
        <ele>1726</ele>
        <time>2021-08-07T06:47:02.592Z</time>
      </trkpt>
      <trkpt lat="46.93502" lon="8.69285">
        <ele>1726</ele>
        <time>2021-08-07T06:47:03.592Z</time>
      </trkpt>
      <trkpt lat="46.93501" lon="8.69285">
        <ele>1727</ele>
        <time>2021-08-07T06:47:04.592Z</time>
      </trkpt>
      <trkpt lat="46.93501" lon="8.69285">
        <ele>1727</ele>
        <time>2021-08-07T06:47:05.592Z</time>
      </trkpt>
      <trkpt lat="46.93501" lon="8.69286">
        <ele>1727</ele>
        <time>2021-08-07T06:47:06.592Z</time>
      </trkpt>
      <trkpt lat="46.93501" lon="8.69285">
        <ele>1727</ele>
        <time>2021-08-07T06:47:07.592Z</time>
      </trkpt>
      <trkpt lat="46.935" lon="8.69285">
        <ele>1727</ele>
        <time>2021-08-07T06:47:08.592Z</time>
      </trkpt>
      <trkpt lat="46.935" lon="8.69286">
        <ele>1727</ele>
        <time>2021-08-07T06:47:09.592Z</time>
      </trkpt>
      <trkpt lat="46.935" lon="8.69288">
        <ele>1727</ele>
        <time>2021-08-07T06:47:10.592Z</time>
      </trkpt>
      <trkpt lat="46.935" lon="8.69289">
        <ele>1727</ele>
        <time>2021-08-07T06:47:11.592Z</time>
      </trkpt>
      <trkpt lat="46.935" lon="8.6929">
        <ele>1727</ele>
        <time>2021-08-07T06:47:12.592Z</time>
      </trkpt>
      <trkpt lat="46.935" lon="8.69291">
        <ele>1728</ele>
        <time>2021-08-07T06:47:13.592Z</time>
      </trkpt>
      <trkpt lat="46.935" lon="8.69291">
        <ele>1728</ele>
        <time>2021-08-07T06:47:14.592Z</time>
      </trkpt>
      <trkpt lat="46.93497" lon="8.69289">
        <ele>1727</ele>
        <time>2021-08-07T06:47:15.592Z</time>
      </trkpt>
      <trkpt lat="46.93497" lon="8.69289">
        <ele>1727</ele>
        <time>2021-08-07T06:47:16.592Z</time>
      </trkpt>
      <trkpt lat="46.93496" lon="8.69289">
        <ele>1727</ele>
        <time>2021-08-07T06:47:17.593Z</time>
      </trkpt>
      <trkpt lat="46.93496" lon="8.69289">
        <ele>1726</ele>
        <time>2021-08-07T06:47:18.593Z</time>
      </trkpt>
      <trkpt lat="46.93495" lon="8.69289">
        <ele>1726</ele>
        <time>2021-08-07T06:47:19.592Z</time>
      </trkpt>
      <trkpt lat="46.93494" lon="8.69289">
        <ele>1726</ele>
        <time>2021-08-07T06:47:20.592Z</time>
      </trkpt>
      <trkpt lat="46.93494" lon="8.69289">
        <ele>1726</ele>
        <time>2021-08-07T06:47:21.592Z</time>
      </trkpt>
      <trkpt lat="46.93493" lon="8.69289">
        <ele>1726</ele>
        <time>2021-08-07T06:47:22.592Z</time>
      </trkpt>
      <trkpt lat="46.93493" lon="8.6929">
        <ele>1726</ele>
        <time>2021-08-07T06:47:23.593Z</time>
      </trkpt>
      <trkpt lat="46.93492" lon="8.6929">
        <ele>1726</ele>
        <time>2021-08-07T06:47:24.593Z</time>
      </trkpt>
      <trkpt lat="46.93492" lon="8.6929">
        <ele>1727</ele>
        <time>2021-08-07T06:47:25.593Z</time>
      </trkpt>
      <trkpt lat="46.93492" lon="8.6929">
        <ele>1727</ele>
        <time>2021-08-07T06:47:26.592Z</time>
      </trkpt>
      <trkpt lat="46.93492" lon="8.6929">
        <ele>1726</ele>
        <time>2021-08-07T06:47:27.592Z</time>
      </trkpt>
      <trkpt lat="46.93491" lon="8.6929">
        <ele>1726</ele>
        <time>2021-08-07T06:47:28.592Z</time>
      </trkpt>
      <trkpt lat="46.9349" lon="8.6929">
        <ele>1726</ele>
        <time>2021-08-07T06:47:29.593Z</time>
      </trkpt>
      <trkpt lat="46.9349" lon="8.6929">
        <ele>1726</ele>
        <time>2021-08-07T06:47:30.593Z</time>
      </trkpt>
      <trkpt lat="46.93489" lon="8.69287">
        <ele>1730</ele>
        <time>2021-08-07T06:47:31.594Z</time>
      </trkpt>
      <trkpt lat="46.93489" lon="8.69288">
        <ele>1730</ele>
        <time>2021-08-07T06:47:32.593Z</time>
      </trkpt>
      <trkpt lat="46.93486" lon="8.69289">
        <ele>1730</ele>
        <time>2021-08-07T06:47:33.593Z</time>
      </trkpt>
      <trkpt lat="46.93486" lon="8.69288">
        <ele>1730</ele>
        <time>2021-08-07T06:47:34.594Z</time>
      </trkpt>
      <trkpt lat="46.93486" lon="8.69288">
        <ele>1730</ele>
        <time>2021-08-07T06:47:35.593Z</time>
      </trkpt>
      <trkpt lat="46.93485" lon="8.69288">
        <ele>1730</ele>
        <time>2021-08-07T06:47:36.594Z</time>
      </trkpt>
      <trkpt lat="46.93484" lon="8.69287">
        <ele>1730</ele>
        <time>2021-08-07T06:47:37.594Z</time>
      </trkpt>
      <trkpt lat="46.93484" lon="8.69287">
        <ele>1730</ele>
        <time>2021-08-07T06:47:38.594Z</time>
      </trkpt>
      <trkpt lat="46.93484" lon="8.69286">
        <ele>1730</ele>
        <time>2021-08-07T06:47:39.594Z</time>
      </trkpt>
      <trkpt lat="46.93483" lon="8.69287">
        <ele>1730</ele>
        <time>2021-08-07T06:47:40.594Z</time>
      </trkpt>
      <trkpt lat="46.93483" lon="8.69288">
        <ele>1730</ele>
        <time>2021-08-07T06:47:41.594Z</time>
      </trkpt>
      <trkpt lat="46.93482" lon="8.69288">
        <ele>1730</ele>
        <time>2021-08-07T06:47:42.593Z</time>
      </trkpt>
      <trkpt lat="46.93482" lon="8.69288">
        <ele>1730</ele>
        <time>2021-08-07T06:47:43.593Z</time>
      </trkpt>
      <trkpt lat="46.93481" lon="8.69289">
        <ele>1730</ele>
        <time>2021-08-07T06:47:44.594Z</time>
      </trkpt>
      <trkpt lat="46.9348" lon="8.69289">
        <ele>1731</ele>
        <time>2021-08-07T06:47:45.594Z</time>
      </trkpt>
      <trkpt lat="46.9348" lon="8.69289">
        <ele>1731</ele>
        <time>2021-08-07T06:47:46.594Z</time>
      </trkpt>
      <trkpt lat="46.93479" lon="8.69289">
        <ele>1732</ele>
        <time>2021-08-07T06:47:47.594Z</time>
      </trkpt>
      <trkpt lat="46.93479" lon="8.69289">
        <ele>1732</ele>
        <time>2021-08-07T06:47:48.593Z</time>
      </trkpt>
      <trkpt lat="46.93479" lon="8.69289">
        <ele>1732</ele>
        <time>2021-08-07T06:47:49.594Z</time>
      </trkpt>
      <trkpt lat="46.93478" lon="8.69289">
        <ele>1733</ele>
        <time>2021-08-07T06:47:50.593Z</time>
      </trkpt>
      <trkpt lat="46.93478" lon="8.69289">
        <ele>1733</ele>
        <time>2021-08-07T06:47:51.593Z</time>
      </trkpt>
      <trkpt lat="46.93477" lon="8.69289">
        <ele>1733</ele>
        <time>2021-08-07T06:47:52.594Z</time>
      </trkpt>
      <trkpt lat="46.93477" lon="8.69289">
        <ele>1733</ele>
        <time>2021-08-07T06:47:53.593Z</time>
      </trkpt>
      <trkpt lat="46.93476" lon="8.69289">
        <ele>1733</ele>
        <time>2021-08-07T06:47:54.593Z</time>
      </trkpt>
      <trkpt lat="46.93476" lon="8.6929">
        <ele>1733</ele>
        <time>2021-08-07T06:47:55.594Z</time>
      </trkpt>
      <trkpt lat="46.93475" lon="8.6929">
        <ele>1733</ele>
        <time>2021-08-07T06:47:56.594Z</time>
      </trkpt>
      <trkpt lat="46.93475" lon="8.6929">
        <ele>1733</ele>
        <time>2021-08-07T06:47:57.594Z</time>
      </trkpt>
      <trkpt lat="46.93474" lon="8.69291">
        <ele>1733</ele>
        <time>2021-08-07T06:47:58.594Z</time>
      </trkpt>
      <trkpt lat="46.93473" lon="8.69291">
        <ele>1733</ele>
        <time>2021-08-07T06:47:59.594Z</time>
      </trkpt>
      <trkpt lat="46.93472" lon="8.69291">
        <ele>1733</ele>
        <time>2021-08-07T06:48:00.594Z</time>
      </trkpt>
      <trkpt lat="46.93471" lon="8.69291">
        <ele>1734</ele>
        <time>2021-08-07T06:48:01.594Z</time>
      </trkpt>
      <trkpt lat="46.9347" lon="8.69291">
        <ele>1734</ele>
        <time>2021-08-07T06:48:02.594Z</time>
      </trkpt>
      <trkpt lat="46.93469" lon="8.69291">
        <ele>1734</ele>
        <time>2021-08-07T06:48:03.594Z</time>
      </trkpt>
      <trkpt lat="46.93468" lon="8.69291">
        <ele>1734</ele>
        <time>2021-08-07T06:48:04.593Z</time>
      </trkpt>
      <trkpt lat="46.93466" lon="8.69292">
        <ele>1734</ele>
        <time>2021-08-07T06:48:05.593Z</time>
      </trkpt>
      <trkpt lat="46.93465" lon="8.69292">
        <ele>1735</ele>
        <time>2021-08-07T06:48:06.593Z</time>
      </trkpt>
      <trkpt lat="46.93465" lon="8.69291">
        <ele>1735</ele>
        <time>2021-08-07T06:48:07.593Z</time>
      </trkpt>
      <trkpt lat="46.93464" lon="8.69292">
        <ele>1736</ele>
        <time>2021-08-07T06:48:08.594Z</time>
      </trkpt>
      <trkpt lat="46.93463" lon="8.69292">
        <ele>1736</ele>
        <time>2021-08-07T06:48:09.594Z</time>
      </trkpt>
      <trkpt lat="46.93462" lon="8.69292">
        <ele>1736</ele>
        <time>2021-08-07T06:48:10.594Z</time>
      </trkpt>
      <trkpt lat="46.93461" lon="8.69291">
        <ele>1736</ele>
        <time>2021-08-07T06:48:11.594Z</time>
      </trkpt>
      <trkpt lat="46.93461" lon="8.69291">
        <ele>1737</ele>
        <time>2021-08-07T06:48:12.594Z</time>
      </trkpt>
      <trkpt lat="46.93459" lon="8.69291">
        <ele>1737</ele>
        <time>2021-08-07T06:48:13.594Z</time>
      </trkpt>
      <trkpt lat="46.93459" lon="8.69291">
        <ele>1737</ele>
        <time>2021-08-07T06:48:14.593Z</time>
      </trkpt>
      <trkpt lat="46.93458" lon="8.69291">
        <ele>1737</ele>
        <time>2021-08-07T06:48:15.594Z</time>
      </trkpt>
      <trkpt lat="46.93457" lon="8.6929">
        <ele>1737</ele>
        <time>2021-08-07T06:48:16.594Z</time>
      </trkpt>
      <trkpt lat="46.93457" lon="8.6929">
        <ele>1737</ele>
        <time>2021-08-07T06:48:17.593Z</time>
      </trkpt>
      <trkpt lat="46.93456" lon="8.69289">
        <ele>1737</ele>
        <time>2021-08-07T06:48:18.594Z</time>
      </trkpt>
      <trkpt lat="46.93456" lon="8.69289">
        <ele>1736</ele>
        <time>2021-08-07T06:48:19.594Z</time>
      </trkpt>
      <trkpt lat="46.93456" lon="8.69289">
        <ele>1736</ele>
        <time>2021-08-07T06:48:20.594Z</time>
      </trkpt>
      <trkpt lat="46.93456" lon="8.69288">
        <ele>1736</ele>
        <time>2021-08-07T06:48:21.594Z</time>
      </trkpt>
      <trkpt lat="46.93455" lon="8.69288">
        <ele>1736</ele>
        <time>2021-08-07T06:48:22.594Z</time>
      </trkpt>
      <trkpt lat="46.93455" lon="8.69287">
        <ele>1737</ele>
        <time>2021-08-07T06:48:23.594Z</time>
      </trkpt>
      <trkpt lat="46.93454" lon="8.69286">
        <ele>1737</ele>
        <time>2021-08-07T06:48:24.594Z</time>
      </trkpt>
      <trkpt lat="46.93454" lon="8.69286">
        <ele>1737</ele>
        <time>2021-08-07T06:48:25.594Z</time>
      </trkpt>
      <trkpt lat="46.93454" lon="8.69286">
        <ele>1738</ele>
        <time>2021-08-07T06:48:26.594Z</time>
      </trkpt>
      <trkpt lat="46.93453" lon="8.69286">
        <ele>1738</ele>
        <time>2021-08-07T06:48:27.594Z</time>
      </trkpt>
      <trkpt lat="46.93453" lon="8.69286">
        <ele>1738</ele>
        <time>2021-08-07T06:48:28.594Z</time>
      </trkpt>
      <trkpt lat="46.93452" lon="8.69286">
        <ele>1739</ele>
        <time>2021-08-07T06:48:29.594Z</time>
      </trkpt>
      <trkpt lat="46.93452" lon="8.69286">
        <ele>1739</ele>
        <time>2021-08-07T06:48:30.593Z</time>
      </trkpt>
      <trkpt lat="46.93452" lon="8.69285">
        <ele>1739</ele>
        <time>2021-08-07T06:48:31.594Z</time>
      </trkpt>
      <trkpt lat="46.93452" lon="8.69284">
        <ele>1740</ele>
        <time>2021-08-07T06:48:32.594Z</time>
      </trkpt>
      <trkpt lat="46.93452" lon="8.69283">
        <ele>1740</ele>
        <time>2021-08-07T06:48:33.594Z</time>
      </trkpt>
      <trkpt lat="46.93453" lon="8.69283">
        <ele>1740</ele>
        <time>2021-08-07T06:48:34.594Z</time>
      </trkpt>
      <trkpt lat="46.93453" lon="8.69282">
        <ele>1741</ele>
        <time>2021-08-07T06:48:35.594Z</time>
      </trkpt>
      <trkpt lat="46.93454" lon="8.69281">
        <ele>1741</ele>
        <time>2021-08-07T06:48:36.594Z</time>
      </trkpt>
      <trkpt lat="46.93454" lon="8.6928">
        <ele>1742</ele>
        <time>2021-08-07T06:48:37.594Z</time>
      </trkpt>
      <trkpt lat="46.93454" lon="8.69279">
        <ele>1742</ele>
        <time>2021-08-07T06:48:38.594Z</time>
      </trkpt>
      <trkpt lat="46.93454" lon="8.69278">
        <ele>1742</ele>
        <time>2021-08-07T06:48:39.594Z</time>
      </trkpt>
      <trkpt lat="46.93454" lon="8.69277">
        <ele>1741</ele>
        <time>2021-08-07T06:48:40.594Z</time>
      </trkpt>
      <trkpt lat="46.93454" lon="8.69277">
        <ele>1741</ele>
        <time>2021-08-07T06:48:41.594Z</time>
      </trkpt>
      <trkpt lat="46.93454" lon="8.69276">
        <ele>1740</ele>
        <time>2021-08-07T06:48:42.594Z</time>
      </trkpt>
      <trkpt lat="46.93454" lon="8.69274">
        <ele>1739</ele>
        <time>2021-08-07T06:48:43.594Z</time>
      </trkpt>
      <trkpt lat="46.93453" lon="8.69274">
        <ele>1739</ele>
        <time>2021-08-07T06:48:44.594Z</time>
      </trkpt>
      <trkpt lat="46.93453" lon="8.69273">
        <ele>1739</ele>
        <time>2021-08-07T06:48:45.593Z</time>
      </trkpt>
      <trkpt lat="46.93453" lon="8.69272">
        <ele>1738</ele>
        <time>2021-08-07T06:48:46.593Z</time>
      </trkpt>
      <trkpt lat="46.93453" lon="8.69271">
        <ele>1738</ele>
        <time>2021-08-07T06:48:47.594Z</time>
      </trkpt>
      <trkpt lat="46.93453" lon="8.6927">
        <ele>1738</ele>
        <time>2021-08-07T06:48:48.594Z</time>
      </trkpt>
      <trkpt lat="46.93453" lon="8.69269">
        <ele>1738</ele>
        <time>2021-08-07T06:48:49.594Z</time>
      </trkpt>
      <trkpt lat="46.93453" lon="8.69268">
        <ele>1738</ele>
        <time>2021-08-07T06:48:50.593Z</time>
      </trkpt>
      <trkpt lat="46.93453" lon="8.69267">
        <ele>1738</ele>
        <time>2021-08-07T06:48:51.594Z</time>
      </trkpt>
      <trkpt lat="46.93453" lon="8.69266">
        <ele>1738</ele>
        <time>2021-08-07T06:48:52.594Z</time>
      </trkpt>
      <trkpt lat="46.93453" lon="8.69266">
        <ele>1739</ele>
        <time>2021-08-07T06:48:53.594Z</time>
      </trkpt>
      <trkpt lat="46.93452" lon="8.69265">
        <ele>1740</ele>
        <time>2021-08-07T06:48:54.593Z</time>
      </trkpt>
      <trkpt lat="46.93452" lon="8.69264">
        <ele>1740</ele>
        <time>2021-08-07T06:48:55.593Z</time>
      </trkpt>
      <trkpt lat="46.93452" lon="8.69263">
        <ele>1741</ele>
        <time>2021-08-07T06:48:56.594Z</time>
      </trkpt>
      <trkpt lat="46.93451" lon="8.69262">
        <ele>1741</ele>
        <time>2021-08-07T06:48:57.593Z</time>
      </trkpt>
      <trkpt lat="46.93451" lon="8.69262">
        <ele>1741</ele>
        <time>2021-08-07T06:48:58.593Z</time>
      </trkpt>
      <trkpt lat="46.9345" lon="8.69262">
        <ele>1742</ele>
        <time>2021-08-07T06:48:59.593Z</time>
      </trkpt>
      <trkpt lat="46.93449" lon="8.69261">
        <ele>1743</ele>
        <time>2021-08-07T06:49:00.593Z</time>
      </trkpt>
      <trkpt lat="46.93449" lon="8.69261">
        <ele>1743</ele>
        <time>2021-08-07T06:49:01.593Z</time>
      </trkpt>
      <trkpt lat="46.93449" lon="8.6926">
        <ele>1743</ele>
        <time>2021-08-07T06:49:02.594Z</time>
      </trkpt>
      <trkpt lat="46.93449" lon="8.69259">
        <ele>1743</ele>
        <time>2021-08-07T06:49:03.593Z</time>
      </trkpt>
      <trkpt lat="46.93449" lon="8.69259">
        <ele>1743</ele>
        <time>2021-08-07T06:49:04.593Z</time>
      </trkpt>
      <trkpt lat="46.93448" lon="8.69259">
        <ele>1743</ele>
        <time>2021-08-07T06:49:05.593Z</time>
      </trkpt>
      <trkpt lat="46.93448" lon="8.69259">
        <ele>1743</ele>
        <time>2021-08-07T06:49:06.593Z</time>
      </trkpt>
      <trkpt lat="46.93447" lon="8.69258">
        <ele>1746</ele>
        <time>2021-08-07T06:49:07.594Z</time>
      </trkpt>
      <trkpt lat="46.93446" lon="8.69256">
        <ele>1745</ele>
        <time>2021-08-07T06:49:08.595Z</time>
      </trkpt>
      <trkpt lat="46.93446" lon="8.69255">
        <ele>1745</ele>
        <time>2021-08-07T06:49:09.596Z</time>
      </trkpt>
      <trkpt lat="46.93446" lon="8.69253">
        <ele>1745</ele>
        <time>2021-08-07T06:49:10.596Z</time>
      </trkpt>
      <trkpt lat="46.93446" lon="8.69253">
        <ele>1745</ele>
        <time>2021-08-07T06:49:11.596Z</time>
      </trkpt>
      <trkpt lat="46.93446" lon="8.69252">
        <ele>1745</ele>
        <time>2021-08-07T06:49:12.595Z</time>
      </trkpt>
      <trkpt lat="46.93446" lon="8.6925">
        <ele>1744</ele>
        <time>2021-08-07T06:49:13.595Z</time>
      </trkpt>
      <trkpt lat="46.93446" lon="8.69248">
        <ele>1744</ele>
        <time>2021-08-07T06:49:14.596Z</time>
      </trkpt>
      <trkpt lat="46.93446" lon="8.69247">
        <ele>1744</ele>
        <time>2021-08-07T06:49:15.595Z</time>
      </trkpt>
      <trkpt lat="46.93446" lon="8.69246">
        <ele>1744</ele>
        <time>2021-08-07T06:49:16.596Z</time>
      </trkpt>
      <trkpt lat="46.93447" lon="8.69245">
        <ele>1744</ele>
        <time>2021-08-07T06:49:17.596Z</time>
      </trkpt>
      <trkpt lat="46.93447" lon="8.69245">
        <ele>1744</ele>
        <time>2021-08-07T06:49:18.596Z</time>
      </trkpt>
      <trkpt lat="46.93447" lon="8.69244">
        <ele>1745</ele>
        <time>2021-08-07T06:49:19.595Z</time>
      </trkpt>
      <trkpt lat="46.93447" lon="8.69242">
        <ele>1745</ele>
        <time>2021-08-07T06:49:20.596Z</time>
      </trkpt>
      <trkpt lat="46.93446" lon="8.6924">
        <ele>1746</ele>
        <time>2021-08-07T06:49:21.595Z</time>
      </trkpt>
      <trkpt lat="46.93445" lon="8.69238">
        <ele>1746</ele>
        <time>2021-08-07T06:49:22.595Z</time>
      </trkpt>
      <trkpt lat="46.93444" lon="8.69236">
        <ele>1747</ele>
        <time>2021-08-07T06:49:23.595Z</time>
      </trkpt>
      <trkpt lat="46.93444" lon="8.69234">
        <ele>1747</ele>
        <time>2021-08-07T06:49:24.595Z</time>
      </trkpt>
      <trkpt lat="46.93443" lon="8.69233">
        <ele>1747</ele>
        <time>2021-08-07T06:49:25.595Z</time>
      </trkpt>
      <trkpt lat="46.93442" lon="8.69232">
        <ele>1747</ele>
        <time>2021-08-07T06:49:26.595Z</time>
      </trkpt>
      <trkpt lat="46.93441" lon="8.69231">
        <ele>1747</ele>
        <time>2021-08-07T06:49:27.595Z</time>
      </trkpt>
      <trkpt lat="46.9344" lon="8.6923">
        <ele>1746</ele>
        <time>2021-08-07T06:49:28.596Z</time>
      </trkpt>
      <trkpt lat="46.93439" lon="8.69229">
        <ele>1746</ele>
        <time>2021-08-07T06:49:29.595Z</time>
      </trkpt>
      <trkpt lat="46.93439" lon="8.69228">
        <ele>1745</ele>
        <time>2021-08-07T06:49:30.596Z</time>
      </trkpt>
      <trkpt lat="46.93438" lon="8.69226">
        <ele>1745</ele>
        <time>2021-08-07T06:49:31.595Z</time>
      </trkpt>
      <trkpt lat="46.93437" lon="8.69225">
        <ele>1744</ele>
        <time>2021-08-07T06:49:32.595Z</time>
      </trkpt>
      <trkpt lat="46.93437" lon="8.69224">
        <ele>1744</ele>
        <time>2021-08-07T06:49:33.595Z</time>
      </trkpt>
      <trkpt lat="46.93436" lon="8.69223">
        <ele>1744</ele>
        <time>2021-08-07T06:49:34.595Z</time>
      </trkpt>
      <trkpt lat="46.93435" lon="8.69222">
        <ele>1744</ele>
        <time>2021-08-07T06:49:35.595Z</time>
      </trkpt>
      <trkpt lat="46.93435" lon="8.69221">
        <ele>1744</ele>
        <time>2021-08-07T06:49:36.595Z</time>
      </trkpt>
      <trkpt lat="46.93435" lon="8.69219">
        <ele>1744</ele>
        <time>2021-08-07T06:49:37.595Z</time>
      </trkpt>
      <trkpt lat="46.93434" lon="8.69218">
        <ele>1743</ele>
        <time>2021-08-07T06:49:38.595Z</time>
      </trkpt>
      <trkpt lat="46.93434" lon="8.69217">
        <ele>1743</ele>
        <time>2021-08-07T06:49:39.595Z</time>
      </trkpt>
      <trkpt lat="46.93433" lon="8.69216">
        <ele>1743</ele>
        <time>2021-08-07T06:49:40.595Z</time>
      </trkpt>
      <trkpt lat="46.93433" lon="8.69215">
        <ele>1742</ele>
        <time>2021-08-07T06:49:41.595Z</time>
      </trkpt>
      <trkpt lat="46.93432" lon="8.69214">
        <ele>1742</ele>
        <time>2021-08-07T06:49:42.595Z</time>
      </trkpt>
      <trkpt lat="46.93432" lon="8.69213">
        <ele>1741</ele>
        <time>2021-08-07T06:49:43.595Z</time>
      </trkpt>
      <trkpt lat="46.93431" lon="8.69211">
        <ele>1741</ele>
        <time>2021-08-07T06:49:44.595Z</time>
      </trkpt>
      <trkpt lat="46.93431" lon="8.6921">
        <ele>1741</ele>
        <time>2021-08-07T06:49:45.595Z</time>
      </trkpt>
      <trkpt lat="46.93431" lon="8.69209">
        <ele>1741</ele>
        <time>2021-08-07T06:49:46.595Z</time>
      </trkpt>
      <trkpt lat="46.93431" lon="8.69208">
        <ele>1741</ele>
        <time>2021-08-07T06:49:47.595Z</time>
      </trkpt>
      <trkpt lat="46.93431" lon="8.69207">
        <ele>1741</ele>
        <time>2021-08-07T06:49:48.596Z</time>
      </trkpt>
      <trkpt lat="46.9343" lon="8.69205">
        <ele>1741</ele>
        <time>2021-08-07T06:49:49.596Z</time>
      </trkpt>
      <trkpt lat="46.9343" lon="8.69204">
        <ele>1741</ele>
        <time>2021-08-07T06:49:50.595Z</time>
      </trkpt>
      <trkpt lat="46.9343" lon="8.69203">
        <ele>1741</ele>
        <time>2021-08-07T06:49:51.596Z</time>
      </trkpt>
      <trkpt lat="46.9343" lon="8.69202">
        <ele>1741</ele>
        <time>2021-08-07T06:49:52.595Z</time>
      </trkpt>
      <trkpt lat="46.9343" lon="8.69201">
        <ele>1741</ele>
        <time>2021-08-07T06:49:53.596Z</time>
      </trkpt>
      <trkpt lat="46.93431" lon="8.692">
        <ele>1741</ele>
        <time>2021-08-07T06:49:54.595Z</time>
      </trkpt>
      <trkpt lat="46.93431" lon="8.69199">
        <ele>1741</ele>
        <time>2021-08-07T06:49:55.596Z</time>
      </trkpt>
      <trkpt lat="46.93431" lon="8.69198">
        <ele>1741</ele>
        <time>2021-08-07T06:49:56.596Z</time>
      </trkpt>
      <trkpt lat="46.93431" lon="8.69197">
        <ele>1742</ele>
        <time>2021-08-07T06:49:57.596Z</time>
      </trkpt>
      <trkpt lat="46.93431" lon="8.69196">
        <ele>1742</ele>
        <time>2021-08-07T06:49:58.595Z</time>
      </trkpt>
      <trkpt lat="46.93431" lon="8.69194">
        <ele>1742</ele>
        <time>2021-08-07T06:49:59.595Z</time>
      </trkpt>
      <trkpt lat="46.93431" lon="8.69193">
        <ele>1742</ele>
        <time>2021-08-07T06:50:00.595Z</time>
      </trkpt>
      <trkpt lat="46.9343" lon="8.69192">
        <ele>1743</ele>
        <time>2021-08-07T06:50:01.595Z</time>
      </trkpt>
      <trkpt lat="46.9343" lon="8.6919">
        <ele>1743</ele>
        <time>2021-08-07T06:50:02.595Z</time>
      </trkpt>
      <trkpt lat="46.93429" lon="8.69188">
        <ele>1743</ele>
        <time>2021-08-07T06:50:03.595Z</time>
      </trkpt>
      <trkpt lat="46.93429" lon="8.69187">
        <ele>1743</ele>
        <time>2021-08-07T06:50:04.596Z</time>
      </trkpt>
      <trkpt lat="46.93428" lon="8.69184">
        <ele>1743</ele>
        <time>2021-08-07T06:50:05.595Z</time>
      </trkpt>
      <trkpt lat="46.93428" lon="8.69184">
        <ele>1743</ele>
        <time>2021-08-07T06:50:06.596Z</time>
      </trkpt>
      <trkpt lat="46.93428" lon="8.69182">
        <ele>1744</ele>
        <time>2021-08-07T06:50:07.595Z</time>
      </trkpt>
      <trkpt lat="46.93428" lon="8.6918">
        <ele>1744</ele>
        <time>2021-08-07T06:50:08.596Z</time>
      </trkpt>
      <trkpt lat="46.93427" lon="8.69179">
        <ele>1744</ele>
        <time>2021-08-07T06:50:09.595Z</time>
      </trkpt>
      <trkpt lat="46.93427" lon="8.69178">
        <ele>1745</ele>
        <time>2021-08-07T06:50:10.596Z</time>
      </trkpt>
      <trkpt lat="46.93427" lon="8.69177">
        <ele>1745</ele>
        <time>2021-08-07T06:50:11.596Z</time>
      </trkpt>
      <trkpt lat="46.93427" lon="8.69176">
        <ele>1746</ele>
        <time>2021-08-07T06:50:12.595Z</time>
      </trkpt>
      <trkpt lat="46.93426" lon="8.69175">
        <ele>1746</ele>
        <time>2021-08-07T06:50:13.596Z</time>
      </trkpt>
      <trkpt lat="46.93426" lon="8.69174">
        <ele>1747</ele>
        <time>2021-08-07T06:50:14.595Z</time>
      </trkpt>
      <trkpt lat="46.93426" lon="8.69173">
        <ele>1747</ele>
        <time>2021-08-07T06:50:15.595Z</time>
      </trkpt>
      <trkpt lat="46.93426" lon="8.69171">
        <ele>1746</ele>
        <time>2021-08-07T06:50:16.596Z</time>
      </trkpt>
      <trkpt lat="46.93425" lon="8.69169">
        <ele>1747</ele>
        <time>2021-08-07T06:50:17.595Z</time>
      </trkpt>
      <trkpt lat="46.93425" lon="8.69168">
        <ele>1747</ele>
        <time>2021-08-07T06:50:18.596Z</time>
      </trkpt>
      <trkpt lat="46.93425" lon="8.69167">
        <ele>1747</ele>
        <time>2021-08-07T06:50:19.596Z</time>
      </trkpt>
      <trkpt lat="46.93424" lon="8.69165">
        <ele>1747</ele>
        <time>2021-08-07T06:50:20.595Z</time>
      </trkpt>
      <trkpt lat="46.93424" lon="8.69164">
        <ele>1747</ele>
        <time>2021-08-07T06:50:21.596Z</time>
      </trkpt>
      <trkpt lat="46.93423" lon="8.69163">
        <ele>1747</ele>
        <time>2021-08-07T06:50:22.596Z</time>
      </trkpt>
      <trkpt lat="46.93423" lon="8.69162">
        <ele>1747</ele>
        <time>2021-08-07T06:50:23.596Z</time>
      </trkpt>
      <trkpt lat="46.93422" lon="8.69161">
        <ele>1747</ele>
        <time>2021-08-07T06:50:24.596Z</time>
      </trkpt>
      <trkpt lat="46.93421" lon="8.6916">
        <ele>1747</ele>
        <time>2021-08-07T06:50:25.595Z</time>
      </trkpt>
      <trkpt lat="46.93421" lon="8.69159">
        <ele>1747</ele>
        <time>2021-08-07T06:50:26.596Z</time>
      </trkpt>
      <trkpt lat="46.9342" lon="8.69158">
        <ele>1747</ele>
        <time>2021-08-07T06:50:27.595Z</time>
      </trkpt>
      <trkpt lat="46.9342" lon="8.69157">
        <ele>1746</ele>
        <time>2021-08-07T06:50:28.596Z</time>
      </trkpt>
      <trkpt lat="46.93419" lon="8.69157">
        <ele>1746</ele>
        <time>2021-08-07T06:50:29.596Z</time>
      </trkpt>
      <trkpt lat="46.93419" lon="8.69156">
        <ele>1746</ele>
        <time>2021-08-07T06:50:30.596Z</time>
      </trkpt>
      <trkpt lat="46.93419" lon="8.69155">
        <ele>1746</ele>
        <time>2021-08-07T06:50:31.596Z</time>
      </trkpt>
      <trkpt lat="46.93418" lon="8.69155">
        <ele>1745</ele>
        <time>2021-08-07T06:50:32.595Z</time>
      </trkpt>
      <trkpt lat="46.93418" lon="8.69154">
        <ele>1745</ele>
        <time>2021-08-07T06:50:33.595Z</time>
      </trkpt>
      <trkpt lat="46.93417" lon="8.69154">
        <ele>1745</ele>
        <time>2021-08-07T06:50:34.596Z</time>
      </trkpt>
      <trkpt lat="46.93416" lon="8.69153">
        <ele>1746</ele>
        <time>2021-08-07T06:50:35.595Z</time>
      </trkpt>
      <trkpt lat="46.93415" lon="8.69152">
        <ele>1746</ele>
        <time>2021-08-07T06:50:36.596Z</time>
      </trkpt>
      <trkpt lat="46.93415" lon="8.69151">
        <ele>1746</ele>
        <time>2021-08-07T06:50:37.596Z</time>
      </trkpt>
      <trkpt lat="46.93414" lon="8.6915">
        <ele>1746</ele>
        <time>2021-08-07T06:50:38.596Z</time>
      </trkpt>
      <trkpt lat="46.93413" lon="8.69149">
        <ele>1747</ele>
        <time>2021-08-07T06:50:39.595Z</time>
      </trkpt>
      <trkpt lat="46.93412" lon="8.69149">
        <ele>1747</ele>
        <time>2021-08-07T06:50:40.596Z</time>
      </trkpt>
      <trkpt lat="46.93411" lon="8.69148">
        <ele>1747</ele>
        <time>2021-08-07T06:50:41.596Z</time>
      </trkpt>
      <trkpt lat="46.93411" lon="8.69148">
        <ele>1748</ele>
        <time>2021-08-07T06:50:42.596Z</time>
      </trkpt>
      <trkpt lat="46.9341" lon="8.69147">
        <ele>1748</ele>
        <time>2021-08-07T06:50:43.595Z</time>
      </trkpt>
      <trkpt lat="46.93409" lon="8.69146">
        <ele>1748</ele>
        <time>2021-08-07T06:50:44.596Z</time>
      </trkpt>
      <trkpt lat="46.93409" lon="8.69146">
        <ele>1748</ele>
        <time>2021-08-07T06:50:45.596Z</time>
      </trkpt>
      <trkpt lat="46.93409" lon="8.69145">
        <ele>1748</ele>
        <time>2021-08-07T06:50:46.596Z</time>
      </trkpt>
      <trkpt lat="46.93408" lon="8.69145">
        <ele>1748</ele>
        <time>2021-08-07T06:50:47.596Z</time>
      </trkpt>
      <trkpt lat="46.93408" lon="8.69144">
        <ele>1747</ele>
        <time>2021-08-07T06:50:48.595Z</time>
      </trkpt>
      <trkpt lat="46.93408" lon="8.69144">
        <ele>1747</ele>
        <time>2021-08-07T06:50:49.596Z</time>
      </trkpt>
      <trkpt lat="46.93408" lon="8.69143">
        <ele>1746</ele>
        <time>2021-08-07T06:50:50.596Z</time>
      </trkpt>
      <trkpt lat="46.93407" lon="8.69143">
        <ele>1746</ele>
        <time>2021-08-07T06:50:51.595Z</time>
      </trkpt>
      <trkpt lat="46.93407" lon="8.69142">
        <ele>1746</ele>
        <time>2021-08-07T06:50:52.595Z</time>
      </trkpt>
      <trkpt lat="46.93406" lon="8.69142">
        <ele>1745</ele>
        <time>2021-08-07T06:50:53.595Z</time>
      </trkpt>
      <trkpt lat="46.93406" lon="8.69141">
        <ele>1745</ele>
        <time>2021-08-07T06:50:54.595Z</time>
      </trkpt>
      <trkpt lat="46.93406" lon="8.69141">
        <ele>1745</ele>
        <time>2021-08-07T06:50:55.595Z</time>
      </trkpt>
      <trkpt lat="46.93405" lon="8.6914">
        <ele>1745</ele>
        <time>2021-08-07T06:50:56.596Z</time>
      </trkpt>
      <trkpt lat="46.93404" lon="8.6914">
        <ele>1745</ele>
        <time>2021-08-07T06:50:57.596Z</time>
      </trkpt>
      <trkpt lat="46.93403" lon="8.69139">
        <ele>1746</ele>
        <time>2021-08-07T06:50:58.595Z</time>
      </trkpt>
      <trkpt lat="46.93403" lon="8.69139">
        <ele>1747</ele>
        <time>2021-08-07T06:50:59.595Z</time>
      </trkpt>
      <trkpt lat="46.93402" lon="8.69138">
        <ele>1747</ele>
        <time>2021-08-07T06:51:00.595Z</time>
      </trkpt>
      <trkpt lat="46.93401" lon="8.69138">
        <ele>1748</ele>
        <time>2021-08-07T06:51:01.596Z</time>
      </trkpt>
      <trkpt lat="46.934" lon="8.69137">
        <ele>1749</ele>
        <time>2021-08-07T06:51:02.596Z</time>
      </trkpt>
      <trkpt lat="46.93399" lon="8.69137">
        <ele>1750</ele>
        <time>2021-08-07T06:51:03.596Z</time>
      </trkpt>
      <trkpt lat="46.93398" lon="8.69136">
        <ele>1750</ele>
        <time>2021-08-07T06:51:04.596Z</time>
      </trkpt>
      <trkpt lat="46.93398" lon="8.69136">
        <ele>1750</ele>
        <time>2021-08-07T06:51:05.595Z</time>
      </trkpt>
      <trkpt lat="46.93397" lon="8.69135">
        <ele>1750</ele>
        <time>2021-08-07T06:51:06.596Z</time>
      </trkpt>
      <trkpt lat="46.93396" lon="8.69134">
        <ele>1750</ele>
        <time>2021-08-07T06:51:07.596Z</time>
      </trkpt>
      <trkpt lat="46.93395" lon="8.69134">
        <ele>1750</ele>
        <time>2021-08-07T06:51:08.595Z</time>
      </trkpt>
      <trkpt lat="46.93394" lon="8.69133">
        <ele>1750</ele>
        <time>2021-08-07T06:51:09.595Z</time>
      </trkpt>
      <trkpt lat="46.93393" lon="8.69132">
        <ele>1750</ele>
        <time>2021-08-07T06:51:10.595Z</time>
      </trkpt>
      <trkpt lat="46.93393" lon="8.69132">
        <ele>1749</ele>
        <time>2021-08-07T06:51:11.596Z</time>
      </trkpt>
      <trkpt lat="46.93392" lon="8.69131">
        <ele>1749</ele>
        <time>2021-08-07T06:51:12.596Z</time>
      </trkpt>
      <trkpt lat="46.93391" lon="8.6913">
        <ele>1749</ele>
        <time>2021-08-07T06:51:13.596Z</time>
      </trkpt>
      <trkpt lat="46.9339" lon="8.69129">
        <ele>1750</ele>
        <time>2021-08-07T06:51:14.596Z</time>
      </trkpt>
      <trkpt lat="46.93389" lon="8.69128">
        <ele>1750</ele>
        <time>2021-08-07T06:51:15.596Z</time>
      </trkpt>
      <trkpt lat="46.93389" lon="8.69127">
        <ele>1750</ele>
        <time>2021-08-07T06:51:16.596Z</time>
      </trkpt>
      <trkpt lat="46.93388" lon="8.69127">
        <ele>1750</ele>
        <time>2021-08-07T06:51:17.595Z</time>
      </trkpt>
      <trkpt lat="46.93387" lon="8.69126">
        <ele>1750</ele>
        <time>2021-08-07T06:51:18.596Z</time>
      </trkpt>
      <trkpt lat="46.93387" lon="8.69125">
        <ele>1750</ele>
        <time>2021-08-07T06:51:19.596Z</time>
      </trkpt>
      <trkpt lat="46.93386" lon="8.69125">
        <ele>1750</ele>
        <time>2021-08-07T06:51:20.596Z</time>
      </trkpt>
      <trkpt lat="46.93385" lon="8.69125">
        <ele>1750</ele>
        <time>2021-08-07T06:51:21.596Z</time>
      </trkpt>
      <trkpt lat="46.93385" lon="8.69124">
        <ele>1750</ele>
        <time>2021-08-07T06:51:22.596Z</time>
      </trkpt>
      <trkpt lat="46.93384" lon="8.69124">
        <ele>1750</ele>
        <time>2021-08-07T06:51:23.596Z</time>
      </trkpt>
      <trkpt lat="46.93384" lon="8.69123">
        <ele>1750</ele>
        <time>2021-08-07T06:51:24.596Z</time>
      </trkpt>
      <trkpt lat="46.93383" lon="8.69122">
        <ele>1749</ele>
        <time>2021-08-07T06:51:25.596Z</time>
      </trkpt>
      <trkpt lat="46.93383" lon="8.69121">
        <ele>1749</ele>
        <time>2021-08-07T06:51:26.596Z</time>
      </trkpt>
      <trkpt lat="46.93382" lon="8.6912">
        <ele>1749</ele>
        <time>2021-08-07T06:51:27.596Z</time>
      </trkpt>
      <trkpt lat="46.93381" lon="8.69119">
        <ele>1749</ele>
        <time>2021-08-07T06:51:28.595Z</time>
      </trkpt>
      <trkpt lat="46.93381" lon="8.69118">
        <ele>1749</ele>
        <time>2021-08-07T06:51:29.596Z</time>
      </trkpt>
      <trkpt lat="46.9338" lon="8.69117">
        <ele>1749</ele>
        <time>2021-08-07T06:51:30.596Z</time>
      </trkpt>
      <trkpt lat="46.93379" lon="8.69116">
        <ele>1749</ele>
        <time>2021-08-07T06:51:31.595Z</time>
      </trkpt>
      <trkpt lat="46.93379" lon="8.69114">
        <ele>1748</ele>
        <time>2021-08-07T06:51:32.595Z</time>
      </trkpt>
      <trkpt lat="46.93378" lon="8.69114">
        <ele>1748</ele>
        <time>2021-08-07T06:51:33.596Z</time>
      </trkpt>
      <trkpt lat="46.93377" lon="8.69113">
        <ele>1748</ele>
        <time>2021-08-07T06:51:34.596Z</time>
      </trkpt>
      <trkpt lat="46.93376" lon="8.69112">
        <ele>1748</ele>
        <time>2021-08-07T06:51:35.596Z</time>
      </trkpt>
      <trkpt lat="46.93376" lon="8.69112">
        <ele>1747</ele>
        <time>2021-08-07T06:51:36.595Z</time>
      </trkpt>
      <trkpt lat="46.93375" lon="8.69111">
        <ele>1747</ele>
        <time>2021-08-07T06:51:37.595Z</time>
      </trkpt>
      <trkpt lat="46.93375" lon="8.69111">
        <ele>1747</ele>
        <time>2021-08-07T06:51:38.596Z</time>
      </trkpt>
      <trkpt lat="46.93374" lon="8.6911">
        <ele>1747</ele>
        <time>2021-08-07T06:51:39.596Z</time>
      </trkpt>
      <trkpt lat="46.93373" lon="8.6911">
        <ele>1747</ele>
        <time>2021-08-07T06:51:40.596Z</time>
      </trkpt>
      <trkpt lat="46.93372" lon="8.69109">
        <ele>1747</ele>
        <time>2021-08-07T06:51:41.596Z</time>
      </trkpt>
      <trkpt lat="46.93372" lon="8.69108">
        <ele>1747</ele>
        <time>2021-08-07T06:51:42.596Z</time>
      </trkpt>
      <trkpt lat="46.93371" lon="8.69108">
        <ele>1748</ele>
        <time>2021-08-07T06:51:43.596Z</time>
      </trkpt>
      <trkpt lat="46.9337" lon="8.69107">
        <ele>1747</ele>
        <time>2021-08-07T06:51:44.596Z</time>
      </trkpt>
      <trkpt lat="46.93369" lon="8.69107">
        <ele>1747</ele>
        <time>2021-08-07T06:51:45.596Z</time>
      </trkpt>
      <trkpt lat="46.93368" lon="8.69106">
        <ele>1747</ele>
        <time>2021-08-07T06:51:46.596Z</time>
      </trkpt>
      <trkpt lat="46.93368" lon="8.69106">
        <ele>1747</ele>
        <time>2021-08-07T06:51:47.596Z</time>
      </trkpt>
      <trkpt lat="46.93367" lon="8.69105">
        <ele>1747</ele>
        <time>2021-08-07T06:51:48.596Z</time>
      </trkpt>
      <trkpt lat="46.93366" lon="8.69104">
        <ele>1747</ele>
        <time>2021-08-07T06:51:49.596Z</time>
      </trkpt>
      <trkpt lat="46.93365" lon="8.69104">
        <ele>1747</ele>
        <time>2021-08-07T06:51:50.595Z</time>
      </trkpt>
      <trkpt lat="46.93365" lon="8.69103">
        <ele>1747</ele>
        <time>2021-08-07T06:51:51.596Z</time>
      </trkpt>
      <trkpt lat="46.93364" lon="8.69103">
        <ele>1747</ele>
        <time>2021-08-07T06:51:52.596Z</time>
      </trkpt>
      <trkpt lat="46.93363" lon="8.69103">
        <ele>1747</ele>
        <time>2021-08-07T06:51:53.596Z</time>
      </trkpt>
      <trkpt lat="46.93363" lon="8.69103">
        <ele>1747</ele>
        <time>2021-08-07T06:51:54.596Z</time>
      </trkpt>
      <trkpt lat="46.93362" lon="8.69103">
        <ele>1747</ele>
        <time>2021-08-07T06:51:55.595Z</time>
      </trkpt>
      <trkpt lat="46.93361" lon="8.69103">
        <ele>1748</ele>
        <time>2021-08-07T06:51:56.596Z</time>
      </trkpt>
      <trkpt lat="46.93361" lon="8.69102">
        <ele>1748</ele>
        <time>2021-08-07T06:51:57.596Z</time>
      </trkpt>
      <trkpt lat="46.9336" lon="8.69102">
        <ele>1747</ele>
        <time>2021-08-07T06:51:58.595Z</time>
      </trkpt>
      <trkpt lat="46.93359" lon="8.69102">
        <ele>1747</ele>
        <time>2021-08-07T06:51:59.596Z</time>
      </trkpt>
      <trkpt lat="46.93358" lon="8.69102">
        <ele>1748</ele>
        <time>2021-08-07T06:52:00.596Z</time>
      </trkpt>
      <trkpt lat="46.93358" lon="8.69102">
        <ele>1748</ele>
        <time>2021-08-07T06:52:01.596Z</time>
      </trkpt>
      <trkpt lat="46.93357" lon="8.69102">
        <ele>1748</ele>
        <time>2021-08-07T06:52:02.596Z</time>
      </trkpt>
      <trkpt lat="46.93357" lon="8.69102">
        <ele>1748</ele>
        <time>2021-08-07T06:52:03.595Z</time>
      </trkpt>
      <trkpt lat="46.93356" lon="8.69102">
        <ele>1749</ele>
        <time>2021-08-07T06:52:04.595Z</time>
      </trkpt>
      <trkpt lat="46.93355" lon="8.69102">
        <ele>1749</ele>
        <time>2021-08-07T06:52:05.595Z</time>
      </trkpt>
      <trkpt lat="46.93354" lon="8.69102">
        <ele>1750</ele>
        <time>2021-08-07T06:52:06.595Z</time>
      </trkpt>
      <trkpt lat="46.93353" lon="8.69102">
        <ele>1750</ele>
        <time>2021-08-07T06:52:07.596Z</time>
      </trkpt>
      <trkpt lat="46.93353" lon="8.69102">
        <ele>1750</ele>
        <time>2021-08-07T06:52:08.595Z</time>
      </trkpt>
      <trkpt lat="46.93352" lon="8.69102">
        <ele>1751</ele>
        <time>2021-08-07T06:52:09.596Z</time>
      </trkpt>
      <trkpt lat="46.93351" lon="8.69102">
        <ele>1751</ele>
        <time>2021-08-07T06:52:10.595Z</time>
      </trkpt>
      <trkpt lat="46.93351" lon="8.69102">
        <ele>1751</ele>
        <time>2021-08-07T06:52:11.595Z</time>
      </trkpt>
      <trkpt lat="46.9335" lon="8.69102">
        <ele>1752</ele>
        <time>2021-08-07T06:52:12.596Z</time>
      </trkpt>
      <trkpt lat="46.93349" lon="8.69102">
        <ele>1752</ele>
        <time>2021-08-07T06:52:13.596Z</time>
      </trkpt>
      <trkpt lat="46.93349" lon="8.69102">
        <ele>1753</ele>
        <time>2021-08-07T06:52:14.595Z</time>
      </trkpt>
      <trkpt lat="46.93348" lon="8.69102">
        <ele>1753</ele>
        <time>2021-08-07T06:52:15.596Z</time>
      </trkpt>
      <trkpt lat="46.93347" lon="8.69102">
        <ele>1753</ele>
        <time>2021-08-07T06:52:16.595Z</time>
      </trkpt>
      <trkpt lat="46.93347" lon="8.69102">
        <ele>1753</ele>
        <time>2021-08-07T06:52:17.595Z</time>
      </trkpt>
      <trkpt lat="46.93346" lon="8.69102">
        <ele>1753</ele>
        <time>2021-08-07T06:52:18.595Z</time>
      </trkpt>
      <trkpt lat="46.93344" lon="8.69102">
        <ele>1753</ele>
        <time>2021-08-07T06:52:19.595Z</time>
      </trkpt>
      <trkpt lat="46.93343" lon="8.69102">
        <ele>1753</ele>
        <time>2021-08-07T06:52:20.596Z</time>
      </trkpt>
      <trkpt lat="46.93342" lon="8.69102">
        <ele>1752</ele>
        <time>2021-08-07T06:52:21.596Z</time>
      </trkpt>
      <trkpt lat="46.93341" lon="8.69102">
        <ele>1752</ele>
        <time>2021-08-07T06:52:22.596Z</time>
      </trkpt>
      <trkpt lat="46.93341" lon="8.69102">
        <ele>1751</ele>
        <time>2021-08-07T06:52:23.596Z</time>
      </trkpt>
      <trkpt lat="46.93339" lon="8.69103">
        <ele>1751</ele>
        <time>2021-08-07T06:52:24.596Z</time>
      </trkpt>
      <trkpt lat="46.93338" lon="8.69102">
        <ele>1751</ele>
        <time>2021-08-07T06:52:25.595Z</time>
      </trkpt>
      <trkpt lat="46.93337" lon="8.69102">
        <ele>1751</ele>
        <time>2021-08-07T06:52:26.596Z</time>
      </trkpt>
      <trkpt lat="46.93336" lon="8.69103">
        <ele>1751</ele>
        <time>2021-08-07T06:52:27.596Z</time>
      </trkpt>
      <trkpt lat="46.93336" lon="8.69103">
        <ele>1751</ele>
        <time>2021-08-07T06:52:28.596Z</time>
      </trkpt>
      <trkpt lat="46.93335" lon="8.69103">
        <ele>1751</ele>
        <time>2021-08-07T06:52:29.595Z</time>
      </trkpt>
      <trkpt lat="46.93334" lon="8.69103">
        <ele>1751</ele>
        <time>2021-08-07T06:52:30.595Z</time>
      </trkpt>
      <trkpt lat="46.93333" lon="8.69104">
        <ele>1751</ele>
        <time>2021-08-07T06:52:31.596Z</time>
      </trkpt>
      <trkpt lat="46.93332" lon="8.69103">
        <ele>1751</ele>
        <time>2021-08-07T06:52:32.596Z</time>
      </trkpt>
      <trkpt lat="46.93332" lon="8.69103">
        <ele>1751</ele>
        <time>2021-08-07T06:52:33.595Z</time>
      </trkpt>
      <trkpt lat="46.93331" lon="8.69103">
        <ele>1750</ele>
        <time>2021-08-07T06:52:34.596Z</time>
      </trkpt>
      <trkpt lat="46.9333" lon="8.69103">
        <ele>1751</ele>
        <time>2021-08-07T06:52:35.596Z</time>
      </trkpt>
      <trkpt lat="46.9333" lon="8.69103">
        <ele>1751</ele>
        <time>2021-08-07T06:52:36.595Z</time>
      </trkpt>
      <trkpt lat="46.93329" lon="8.69103">
        <ele>1751</ele>
        <time>2021-08-07T06:52:37.595Z</time>
      </trkpt>
      <trkpt lat="46.93329" lon="8.69103">
        <ele>1751</ele>
        <time>2021-08-07T06:52:38.595Z</time>
      </trkpt>
      <trkpt lat="46.93329" lon="8.69103">
        <ele>1751</ele>
        <time>2021-08-07T06:52:39.596Z</time>
      </trkpt>
      <trkpt lat="46.93328" lon="8.69103">
        <ele>1751</ele>
        <time>2021-08-07T06:52:40.596Z</time>
      </trkpt>
      <trkpt lat="46.93328" lon="8.69103">
        <ele>1751</ele>
        <time>2021-08-07T06:52:41.596Z</time>
      </trkpt>
      <trkpt lat="46.93327" lon="8.69103">
        <ele>1752</ele>
        <time>2021-08-07T06:52:42.596Z</time>
      </trkpt>
      <trkpt lat="46.93327" lon="8.69103">
        <ele>1752</ele>
        <time>2021-08-07T06:52:43.595Z</time>
      </trkpt>
      <trkpt lat="46.93326" lon="8.69103">
        <ele>1752</ele>
        <time>2021-08-07T06:52:44.595Z</time>
      </trkpt>
      <trkpt lat="46.93325" lon="8.69104">
        <ele>1753</ele>
        <time>2021-08-07T06:52:45.595Z</time>
      </trkpt>
      <trkpt lat="46.93325" lon="8.69103">
        <ele>1753</ele>
        <time>2021-08-07T06:52:46.595Z</time>
      </trkpt>
      <trkpt lat="46.93324" lon="8.69103">
        <ele>1753</ele>
        <time>2021-08-07T06:52:47.595Z</time>
      </trkpt>
      <trkpt lat="46.93323" lon="8.69103">
        <ele>1753</ele>
        <time>2021-08-07T06:52:48.596Z</time>
      </trkpt>
      <trkpt lat="46.93323" lon="8.69102">
        <ele>1754</ele>
        <time>2021-08-07T06:52:49.596Z</time>
      </trkpt>
      <trkpt lat="46.93322" lon="8.69102">
        <ele>1754</ele>
        <time>2021-08-07T06:52:50.596Z</time>
      </trkpt>
      <trkpt lat="46.93321" lon="8.69102">
        <ele>1754</ele>
        <time>2021-08-07T06:52:51.596Z</time>
      </trkpt>
      <trkpt lat="46.9332" lon="8.69102">
        <ele>1754</ele>
        <time>2021-08-07T06:52:52.596Z</time>
      </trkpt>
      <trkpt lat="46.93319" lon="8.69102">
        <ele>1755</ele>
        <time>2021-08-07T06:52:53.596Z</time>
      </trkpt>
      <trkpt lat="46.93318" lon="8.69102">
        <ele>1755</ele>
        <time>2021-08-07T06:52:54.595Z</time>
      </trkpt>
      <trkpt lat="46.93318" lon="8.69102">
        <ele>1755</ele>
        <time>2021-08-07T06:52:55.596Z</time>
      </trkpt>
      <trkpt lat="46.93317" lon="8.69102">
        <ele>1756</ele>
        <time>2021-08-07T06:52:56.595Z</time>
      </trkpt>
      <trkpt lat="46.93316" lon="8.69102">
        <ele>1756</ele>
        <time>2021-08-07T06:52:57.596Z</time>
      </trkpt>
      <trkpt lat="46.93315" lon="8.69101">
        <ele>1756</ele>
        <time>2021-08-07T06:52:58.596Z</time>
      </trkpt>
      <trkpt lat="46.93314" lon="8.69101">
        <ele>1756</ele>
        <time>2021-08-07T06:52:59.596Z</time>
      </trkpt>
      <trkpt lat="46.93313" lon="8.69101">
        <ele>1756</ele>
        <time>2021-08-07T06:53:00.596Z</time>
      </trkpt>
      <trkpt lat="46.93312" lon="8.69101">
        <ele>1756</ele>
        <time>2021-08-07T06:53:01.595Z</time>
      </trkpt>
      <trkpt lat="46.93311" lon="8.69101">
        <ele>1756</ele>
        <time>2021-08-07T06:53:02.596Z</time>
      </trkpt>
      <trkpt lat="46.93311" lon="8.69101">
        <ele>1757</ele>
        <time>2021-08-07T06:53:03.596Z</time>
      </trkpt>
      <trkpt lat="46.9331" lon="8.69101">
        <ele>1757</ele>
        <time>2021-08-07T06:53:04.596Z</time>
      </trkpt>
      <trkpt lat="46.93309" lon="8.69101">
        <ele>1757</ele>
        <time>2021-08-07T06:53:05.596Z</time>
      </trkpt>
      <trkpt lat="46.93309" lon="8.69101">
        <ele>1757</ele>
        <time>2021-08-07T06:53:06.595Z</time>
      </trkpt>
      <trkpt lat="46.93308" lon="8.69101">
        <ele>1757</ele>
        <time>2021-08-07T06:53:07.595Z</time>
      </trkpt>
      <trkpt lat="46.93307" lon="8.69101">
        <ele>1757</ele>
        <time>2021-08-07T06:53:08.596Z</time>
      </trkpt>
      <trkpt lat="46.93306" lon="8.69101">
        <ele>1757</ele>
        <time>2021-08-07T06:53:09.596Z</time>
      </trkpt>
      <trkpt lat="46.93306" lon="8.69101">
        <ele>1757</ele>
        <time>2021-08-07T06:53:10.596Z</time>
      </trkpt>
      <trkpt lat="46.93305" lon="8.691">
        <ele>1757</ele>
        <time>2021-08-07T06:53:11.596Z</time>
      </trkpt>
      <trkpt lat="46.93304" lon="8.691">
        <ele>1757</ele>
        <time>2021-08-07T06:53:12.596Z</time>
      </trkpt>
      <trkpt lat="46.93303" lon="8.691">
        <ele>1757</ele>
        <time>2021-08-07T06:53:13.596Z</time>
      </trkpt>
      <trkpt lat="46.93303" lon="8.691">
        <ele>1757</ele>
        <time>2021-08-07T06:53:14.596Z</time>
      </trkpt>
      <trkpt lat="46.93302" lon="8.691">
        <ele>1757</ele>
        <time>2021-08-07T06:53:15.595Z</time>
      </trkpt>
      <trkpt lat="46.93301" lon="8.691">
        <ele>1758</ele>
        <time>2021-08-07T06:53:16.595Z</time>
      </trkpt>
      <trkpt lat="46.933" lon="8.691">
        <ele>1759</ele>
        <time>2021-08-07T06:53:17.596Z</time>
      </trkpt>
      <trkpt lat="46.93299" lon="8.691">
        <ele>1759</ele>
        <time>2021-08-07T06:53:18.596Z</time>
      </trkpt>
      <trkpt lat="46.93298" lon="8.69099">
        <ele>1760</ele>
        <time>2021-08-07T06:53:19.596Z</time>
      </trkpt>
      <trkpt lat="46.93297" lon="8.69099">
        <ele>1760</ele>
        <time>2021-08-07T06:53:20.596Z</time>
      </trkpt>
      <trkpt lat="46.93296" lon="8.69098">
        <ele>1761</ele>
        <time>2021-08-07T06:53:21.596Z</time>
      </trkpt>
      <trkpt lat="46.93295" lon="8.69098">
        <ele>1761</ele>
        <time>2021-08-07T06:53:22.595Z</time>
      </trkpt>
      <trkpt lat="46.93294" lon="8.69097">
        <ele>1761</ele>
        <time>2021-08-07T06:53:23.596Z</time>
      </trkpt>
      <trkpt lat="46.93294" lon="8.69097">
        <ele>1761</ele>
        <time>2021-08-07T06:53:24.596Z</time>
      </trkpt>
      <trkpt lat="46.93293" lon="8.69097">
        <ele>1761</ele>
        <time>2021-08-07T06:53:25.595Z</time>
      </trkpt>
      <trkpt lat="46.93292" lon="8.69097">
        <ele>1761</ele>
        <time>2021-08-07T06:53:26.596Z</time>
      </trkpt>
      <trkpt lat="46.93291" lon="8.69097">
        <ele>1761</ele>
        <time>2021-08-07T06:53:27.596Z</time>
      </trkpt>
      <trkpt lat="46.9329" lon="8.69096">
        <ele>1761</ele>
        <time>2021-08-07T06:53:28.596Z</time>
      </trkpt>
      <trkpt lat="46.9329" lon="8.69096">
        <ele>1762</ele>
        <time>2021-08-07T06:53:29.595Z</time>
      </trkpt>
      <trkpt lat="46.93289" lon="8.69096">
        <ele>1762</ele>
        <time>2021-08-07T06:53:30.595Z</time>
      </trkpt>
      <trkpt lat="46.93288" lon="8.69096">
        <ele>1762</ele>
        <time>2021-08-07T06:53:31.596Z</time>
      </trkpt>
      <trkpt lat="46.93287" lon="8.69095">
        <ele>1762</ele>
        <time>2021-08-07T06:53:32.596Z</time>
      </trkpt>
      <trkpt lat="46.93287" lon="8.69095">
        <ele>1763</ele>
        <time>2021-08-07T06:53:33.596Z</time>
      </trkpt>
      <trkpt lat="46.93286" lon="8.69094">
        <ele>1763</ele>
        <time>2021-08-07T06:53:34.596Z</time>
      </trkpt>
      <trkpt lat="46.93285" lon="8.69093">
        <ele>1763</ele>
        <time>2021-08-07T06:53:35.596Z</time>
      </trkpt>
      <trkpt lat="46.93284" lon="8.69092">
        <ele>1763</ele>
        <time>2021-08-07T06:53:36.596Z</time>
      </trkpt>
      <trkpt lat="46.93283" lon="8.69092">
        <ele>1763</ele>
        <time>2021-08-07T06:53:37.596Z</time>
      </trkpt>
      <trkpt lat="46.93283" lon="8.69091">
        <ele>1762</ele>
        <time>2021-08-07T06:53:38.596Z</time>
      </trkpt>
      <trkpt lat="46.93281" lon="8.69091">
        <ele>1763</ele>
        <time>2021-08-07T06:53:39.595Z</time>
      </trkpt>
      <trkpt lat="46.93281" lon="8.6909">
        <ele>1763</ele>
        <time>2021-08-07T06:53:40.596Z</time>
      </trkpt>
      <trkpt lat="46.9328" lon="8.6909">
        <ele>1763</ele>
        <time>2021-08-07T06:53:41.596Z</time>
      </trkpt>
      <trkpt lat="46.93279" lon="8.69089">
        <ele>1763</ele>
        <time>2021-08-07T06:53:42.596Z</time>
      </trkpt>
      <trkpt lat="46.93278" lon="8.69088">
        <ele>1763</ele>
        <time>2021-08-07T06:53:43.596Z</time>
      </trkpt>
      <trkpt lat="46.93277" lon="8.69088">
        <ele>1764</ele>
        <time>2021-08-07T06:53:44.595Z</time>
      </trkpt>
      <trkpt lat="46.93277" lon="8.69088">
        <ele>1763</ele>
        <time>2021-08-07T06:53:45.596Z</time>
      </trkpt>
      <trkpt lat="46.93276" lon="8.69088">
        <ele>1763</ele>
        <time>2021-08-07T06:53:46.596Z</time>
      </trkpt>
      <trkpt lat="46.93275" lon="8.69088">
        <ele>1763</ele>
        <time>2021-08-07T06:53:47.595Z</time>
      </trkpt>
      <trkpt lat="46.93275" lon="8.69087">
        <ele>1763</ele>
        <time>2021-08-07T06:53:48.595Z</time>
      </trkpt>
      <trkpt lat="46.93274" lon="8.69087">
        <ele>1763</ele>
        <time>2021-08-07T06:53:49.595Z</time>
      </trkpt>
      <trkpt lat="46.93273" lon="8.69087">
        <ele>1763</ele>
        <time>2021-08-07T06:53:50.595Z</time>
      </trkpt>
      <trkpt lat="46.93272" lon="8.69086">
        <ele>1763</ele>
        <time>2021-08-07T06:53:51.595Z</time>
      </trkpt>
      <trkpt lat="46.93271" lon="8.69084">
        <ele>1763</ele>
        <time>2021-08-07T06:53:52.595Z</time>
      </trkpt>
      <trkpt lat="46.93271" lon="8.69083">
        <ele>1763</ele>
        <time>2021-08-07T06:53:53.595Z</time>
      </trkpt>
      <trkpt lat="46.9327" lon="8.69082">
        <ele>1763</ele>
        <time>2021-08-07T06:53:54.596Z</time>
      </trkpt>
      <trkpt lat="46.93269" lon="8.69081">
        <ele>1763</ele>
        <time>2021-08-07T06:53:55.595Z</time>
      </trkpt>
      <trkpt lat="46.93269" lon="8.6908">
        <ele>1762</ele>
        <time>2021-08-07T06:53:56.595Z</time>
      </trkpt>
      <trkpt lat="46.93269" lon="8.6908">
        <ele>1762</ele>
        <time>2021-08-07T06:53:57.595Z</time>
      </trkpt>
      <trkpt lat="46.93268" lon="8.69079">
        <ele>1762</ele>
        <time>2021-08-07T06:53:58.595Z</time>
      </trkpt>
      <trkpt lat="46.93268" lon="8.69078">
        <ele>1761</ele>
        <time>2021-08-07T06:53:59.595Z</time>
      </trkpt>
      <trkpt lat="46.93268" lon="8.69076">
        <ele>1761</ele>
        <time>2021-08-07T06:54:00.595Z</time>
      </trkpt>
      <trkpt lat="46.93268" lon="8.69075">
        <ele>1761</ele>
        <time>2021-08-07T06:54:01.595Z</time>
      </trkpt>
      <trkpt lat="46.93268" lon="8.69074">
        <ele>1761</ele>
        <time>2021-08-07T06:54:02.595Z</time>
      </trkpt>
      <trkpt lat="46.93267" lon="8.69073">
        <ele>1761</ele>
        <time>2021-08-07T06:54:03.595Z</time>
      </trkpt>
      <trkpt lat="46.93266" lon="8.69072">
        <ele>1761</ele>
        <time>2021-08-07T06:54:04.595Z</time>
      </trkpt>
      <trkpt lat="46.93265" lon="8.69071">
        <ele>1761</ele>
        <time>2021-08-07T06:54:05.595Z</time>
      </trkpt>
      <trkpt lat="46.93264" lon="8.6907">
        <ele>1761</ele>
        <time>2021-08-07T06:54:06.595Z</time>
      </trkpt>
      <trkpt lat="46.93263" lon="8.6907">
        <ele>1761</ele>
        <time>2021-08-07T06:54:07.595Z</time>
      </trkpt>
      <trkpt lat="46.93262" lon="8.69069">
        <ele>1761</ele>
        <time>2021-08-07T06:54:08.595Z</time>
      </trkpt>
      <trkpt lat="46.93261" lon="8.69069">
        <ele>1761</ele>
        <time>2021-08-07T06:54:09.595Z</time>
      </trkpt>
      <trkpt lat="46.93261" lon="8.69068">
        <ele>1762</ele>
        <time>2021-08-07T06:54:10.595Z</time>
      </trkpt>
      <trkpt lat="46.9326" lon="8.69068">
        <ele>1762</ele>
        <time>2021-08-07T06:54:11.595Z</time>
      </trkpt>
      <trkpt lat="46.93259" lon="8.69067">
        <ele>1762</ele>
        <time>2021-08-07T06:54:12.595Z</time>
      </trkpt>
      <trkpt lat="46.93259" lon="8.69067">
        <ele>1762</ele>
        <time>2021-08-07T06:54:13.595Z</time>
      </trkpt>
      <trkpt lat="46.93258" lon="8.69066">
        <ele>1762</ele>
        <time>2021-08-07T06:54:14.595Z</time>
      </trkpt>
      <trkpt lat="46.93257" lon="8.69066">
        <ele>1762</ele>
        <time>2021-08-07T06:54:15.595Z</time>
      </trkpt>
      <trkpt lat="46.93257" lon="8.69065">
        <ele>1762</ele>
        <time>2021-08-07T06:54:16.595Z</time>
      </trkpt>
      <trkpt lat="46.93256" lon="8.69065">
        <ele>1762</ele>
        <time>2021-08-07T06:54:17.595Z</time>
      </trkpt>
      <trkpt lat="46.93256" lon="8.69065">
        <ele>1762</ele>
        <time>2021-08-07T06:54:18.595Z</time>
      </trkpt>
      <trkpt lat="46.93255" lon="8.69064">
        <ele>1762</ele>
        <time>2021-08-07T06:54:19.595Z</time>
      </trkpt>
      <trkpt lat="46.93254" lon="8.69064">
        <ele>1762</ele>
        <time>2021-08-07T06:54:20.595Z</time>
      </trkpt>
      <trkpt lat="46.93254" lon="8.69063">
        <ele>1762</ele>
        <time>2021-08-07T06:54:21.596Z</time>
      </trkpt>
      <trkpt lat="46.93253" lon="8.69063">
        <ele>1763</ele>
        <time>2021-08-07T06:54:22.595Z</time>
      </trkpt>
      <trkpt lat="46.93253" lon="8.69063">
        <ele>1763</ele>
        <time>2021-08-07T06:54:23.595Z</time>
      </trkpt>
      <trkpt lat="46.93253" lon="8.69063">
        <ele>1763</ele>
        <time>2021-08-07T06:54:24.595Z</time>
      </trkpt>
      <trkpt lat="46.93253" lon="8.69062">
        <ele>1763</ele>
        <time>2021-08-07T06:54:25.595Z</time>
      </trkpt>
      <trkpt lat="46.93252" lon="8.69062">
        <ele>1764</ele>
        <time>2021-08-07T06:54:26.595Z</time>
      </trkpt>
      <trkpt lat="46.93251" lon="8.6906">
        <ele>1769</ele>
        <time>2021-08-07T06:54:27.595Z</time>
      </trkpt>
      <trkpt lat="46.93251" lon="8.6906">
        <ele>1771</ele>
        <time>2021-08-07T06:54:28.596Z</time>
      </trkpt>
      <trkpt lat="46.93251" lon="8.69061">
        <ele>1772</ele>
        <time>2021-08-07T06:54:29.595Z</time>
      </trkpt>
      <trkpt lat="46.93251" lon="8.69064">
        <ele>1773</ele>
        <time>2021-08-07T06:54:30.596Z</time>
      </trkpt>
      <trkpt lat="46.93251" lon="8.69065">
        <ele>1775</ele>
        <time>2021-08-07T06:54:31.596Z</time>
      </trkpt>
      <trkpt lat="46.93251" lon="8.69067">
        <ele>1775</ele>
        <time>2021-08-07T06:54:32.596Z</time>
      </trkpt>
      <trkpt lat="46.93251" lon="8.69068">
        <ele>1775</ele>
        <time>2021-08-07T06:54:33.596Z</time>
      </trkpt>
      <trkpt lat="46.93252" lon="8.69069">
        <ele>1775</ele>
        <time>2021-08-07T06:54:34.596Z</time>
      </trkpt>
      <trkpt lat="46.93252" lon="8.6907">
        <ele>1775</ele>
        <time>2021-08-07T06:54:35.596Z</time>
      </trkpt>
      <trkpt lat="46.93253" lon="8.69071">
        <ele>1774</ele>
        <time>2021-08-07T06:54:36.596Z</time>
      </trkpt>
      <trkpt lat="46.93253" lon="8.69072">
        <ele>1773</ele>
        <time>2021-08-07T06:54:37.596Z</time>
      </trkpt>
      <trkpt lat="46.93253" lon="8.69073">
        <ele>1772</ele>
        <time>2021-08-07T06:54:38.596Z</time>
      </trkpt>
      <trkpt lat="46.93253" lon="8.69074">
        <ele>1771</ele>
        <time>2021-08-07T06:54:39.596Z</time>
      </trkpt>
      <trkpt lat="46.93252" lon="8.69075">
        <ele>1770</ele>
        <time>2021-08-07T06:54:40.596Z</time>
      </trkpt>
      <trkpt lat="46.93251" lon="8.69076">
        <ele>1770</ele>
        <time>2021-08-07T06:54:41.595Z</time>
      </trkpt>
      <trkpt lat="46.93251" lon="8.69076">
        <ele>1769</ele>
        <time>2021-08-07T06:54:42.596Z</time>
      </trkpt>
      <trkpt lat="46.9325" lon="8.69076">
        <ele>1768</ele>
        <time>2021-08-07T06:54:43.595Z</time>
      </trkpt>
      <trkpt lat="46.93249" lon="8.69077">
        <ele>1768</ele>
        <time>2021-08-07T06:54:44.596Z</time>
      </trkpt>
      <trkpt lat="46.93248" lon="8.69077">
        <ele>1767</ele>
        <time>2021-08-07T06:54:45.595Z</time>
      </trkpt>
      <trkpt lat="46.93247" lon="8.69077">
        <ele>1766</ele>
        <time>2021-08-07T06:54:46.595Z</time>
      </trkpt>
      <trkpt lat="46.93246" lon="8.69077">
        <ele>1765</ele>
        <time>2021-08-07T06:54:47.596Z</time>
      </trkpt>
      <trkpt lat="46.93245" lon="8.69077">
        <ele>1765</ele>
        <time>2021-08-07T06:54:48.595Z</time>
      </trkpt>
      <trkpt lat="46.93244" lon="8.69078">
        <ele>1765</ele>
        <time>2021-08-07T06:54:49.596Z</time>
      </trkpt>
      <trkpt lat="46.93243" lon="8.69078">
        <ele>1765</ele>
        <time>2021-08-07T06:54:50.596Z</time>
      </trkpt>
      <trkpt lat="46.93242" lon="8.69079">
        <ele>1765</ele>
        <time>2021-08-07T06:54:51.596Z</time>
      </trkpt>
      <trkpt lat="46.93242" lon="8.69079">
        <ele>1764</ele>
        <time>2021-08-07T06:54:52.596Z</time>
      </trkpt>
      <trkpt lat="46.93241" lon="8.6908">
        <ele>1764</ele>
        <time>2021-08-07T06:54:53.595Z</time>
      </trkpt>
      <trkpt lat="46.9324" lon="8.6908">
        <ele>1763</ele>
        <time>2021-08-07T06:54:54.595Z</time>
      </trkpt>
      <trkpt lat="46.93239" lon="8.69081">
        <ele>1763</ele>
        <time>2021-08-07T06:54:55.595Z</time>
      </trkpt>
      <trkpt lat="46.93239" lon="8.69081">
        <ele>1763</ele>
        <time>2021-08-07T06:54:56.596Z</time>
      </trkpt>
      <trkpt lat="46.93238" lon="8.69081">
        <ele>1762</ele>
        <time>2021-08-07T06:54:57.596Z</time>
      </trkpt>
      <trkpt lat="46.93237" lon="8.6908">
        <ele>1762</ele>
        <time>2021-08-07T06:54:58.596Z</time>
      </trkpt>
      <trkpt lat="46.93237" lon="8.6908">
        <ele>1762</ele>
        <time>2021-08-07T06:54:59.595Z</time>
      </trkpt>
      <trkpt lat="46.93236" lon="8.69079">
        <ele>1762</ele>
        <time>2021-08-07T06:55:00.595Z</time>
      </trkpt>
      <trkpt lat="46.93235" lon="8.69079">
        <ele>1762</ele>
        <time>2021-08-07T06:55:01.595Z</time>
      </trkpt>
      <trkpt lat="46.93235" lon="8.69079">
        <ele>1761</ele>
        <time>2021-08-07T06:55:02.596Z</time>
      </trkpt>
      <trkpt lat="46.93234" lon="8.6908">
        <ele>1761</ele>
        <time>2021-08-07T06:55:03.596Z</time>
      </trkpt>
      <trkpt lat="46.93233" lon="8.6908">
        <ele>1761</ele>
        <time>2021-08-07T06:55:04.595Z</time>
      </trkpt>
      <trkpt lat="46.93233" lon="8.6908">
        <ele>1762</ele>
        <time>2021-08-07T06:55:05.596Z</time>
      </trkpt>
      <trkpt lat="46.93232" lon="8.6908">
        <ele>1762</ele>
        <time>2021-08-07T06:55:06.596Z</time>
      </trkpt>
      <trkpt lat="46.93231" lon="8.69079">
        <ele>1762</ele>
        <time>2021-08-07T06:55:07.596Z</time>
      </trkpt>
      <trkpt lat="46.9323" lon="8.69078">
        <ele>1763</ele>
        <time>2021-08-07T06:55:08.596Z</time>
      </trkpt>
      <trkpt lat="46.9323" lon="8.69077">
        <ele>1763</ele>
        <time>2021-08-07T06:55:09.596Z</time>
      </trkpt>
      <trkpt lat="46.93229" lon="8.69077">
        <ele>1763</ele>
        <time>2021-08-07T06:55:10.596Z</time>
      </trkpt>
      <trkpt lat="46.93229" lon="8.69077">
        <ele>1763</ele>
        <time>2021-08-07T06:55:11.596Z</time>
      </trkpt>
      <trkpt lat="46.93228" lon="8.69077">
        <ele>1763</ele>
        <time>2021-08-07T06:55:12.595Z</time>
      </trkpt>
      <trkpt lat="46.93227" lon="8.69078">
        <ele>1763</ele>
        <time>2021-08-07T06:55:13.596Z</time>
      </trkpt>
      <trkpt lat="46.93227" lon="8.69078">
        <ele>1763</ele>
        <time>2021-08-07T06:55:14.596Z</time>
      </trkpt>
      <trkpt lat="46.93227" lon="8.69078">
        <ele>1763</ele>
        <time>2021-08-07T06:55:15.595Z</time>
      </trkpt>
      <trkpt lat="46.93227" lon="8.69078">
        <ele>1762</ele>
        <time>2021-08-07T06:55:16.596Z</time>
      </trkpt>
      <trkpt lat="46.93226" lon="8.69077">
        <ele>1762</ele>
        <time>2021-08-07T06:55:17.597Z</time>
      </trkpt>
      <trkpt lat="46.93226" lon="8.69077">
        <ele>1762</ele>
        <time>2021-08-07T06:55:18.596Z</time>
      </trkpt>
      <trkpt lat="46.93226" lon="8.69076">
        <ele>1762</ele>
        <time>2021-08-07T06:55:19.597Z</time>
      </trkpt>
      <trkpt lat="46.93227" lon="8.69076">
        <ele>1762</ele>
        <time>2021-08-07T06:55:20.596Z</time>
      </trkpt>
      <trkpt lat="46.93227" lon="8.69075">
        <ele>1762</ele>
        <time>2021-08-07T06:55:21.596Z</time>
      </trkpt>
      <trkpt lat="46.93225" lon="8.69075">
        <ele>1762</ele>
        <time>2021-08-07T06:55:22.599Z</time>
      </trkpt>
      <trkpt lat="46.93225" lon="8.69076">
        <ele>1762</ele>
        <time>2021-08-07T06:55:23.599Z</time>
      </trkpt>
      <trkpt lat="46.93225" lon="8.69078">
        <ele>1762</ele>
        <time>2021-08-07T06:55:24.598Z</time>
      </trkpt>
      <trkpt lat="46.93226" lon="8.69079">
        <ele>1761</ele>
        <time>2021-08-07T06:55:25.599Z</time>
      </trkpt>
      <trkpt lat="46.93226" lon="8.6908">
        <ele>1761</ele>
        <time>2021-08-07T06:55:26.598Z</time>
      </trkpt>
      <trkpt lat="46.93227" lon="8.6908">
        <ele>1761</ele>
        <time>2021-08-07T06:55:27.598Z</time>
      </trkpt>
      <trkpt lat="46.93227" lon="8.69081">
        <ele>1760</ele>
        <time>2021-08-07T06:55:28.599Z</time>
      </trkpt>
      <trkpt lat="46.93227" lon="8.6908">
        <ele>1760</ele>
        <time>2021-08-07T06:55:29.599Z</time>
      </trkpt>
      <trkpt lat="46.93226" lon="8.6908">
        <ele>1759</ele>
        <time>2021-08-07T06:55:30.599Z</time>
      </trkpt>
      <trkpt lat="46.93225" lon="8.6908">
        <ele>1759</ele>
        <time>2021-08-07T06:55:31.599Z</time>
      </trkpt>
      <trkpt lat="46.93224" lon="8.6908">
        <ele>1759</ele>
        <time>2021-08-07T06:55:32.598Z</time>
      </trkpt>
      <trkpt lat="46.93223" lon="8.69082">
        <ele>1759</ele>
        <time>2021-08-07T06:55:33.599Z</time>
      </trkpt>
      <trkpt lat="46.93223" lon="8.69084">
        <ele>1759</ele>
        <time>2021-08-07T06:55:34.598Z</time>
      </trkpt>
      <trkpt lat="46.93222" lon="8.69084">
        <ele>1759</ele>
        <time>2021-08-07T06:55:35.598Z</time>
      </trkpt>
      <trkpt lat="46.93221" lon="8.69085">
        <ele>1759</ele>
        <time>2021-08-07T06:55:36.599Z</time>
      </trkpt>
      <trkpt lat="46.9322" lon="8.69084">
        <ele>1759</ele>
        <time>2021-08-07T06:55:37.599Z</time>
      </trkpt>
      <trkpt lat="46.93219" lon="8.69084">
        <ele>1760</ele>
        <time>2021-08-07T06:55:38.599Z</time>
      </trkpt>
      <trkpt lat="46.93218" lon="8.69083">
        <ele>1760</ele>
        <time>2021-08-07T06:55:39.599Z</time>
      </trkpt>
      <trkpt lat="46.93216" lon="8.69082">
        <ele>1761</ele>
        <time>2021-08-07T06:55:40.599Z</time>
      </trkpt>
      <trkpt lat="46.93215" lon="8.69082">
        <ele>1762</ele>
        <time>2021-08-07T06:55:41.599Z</time>
      </trkpt>
      <trkpt lat="46.93214" lon="8.69081">
        <ele>1763</ele>
        <time>2021-08-07T06:55:42.599Z</time>
      </trkpt>
      <trkpt lat="46.93213" lon="8.69081">
        <ele>1764</ele>
        <time>2021-08-07T06:55:43.599Z</time>
      </trkpt>
      <trkpt lat="46.93211" lon="8.69081">
        <ele>1764</ele>
        <time>2021-08-07T06:55:44.599Z</time>
      </trkpt>
      <trkpt lat="46.93211" lon="8.69081">
        <ele>1764</ele>
        <time>2021-08-07T06:55:45.598Z</time>
      </trkpt>
      <trkpt lat="46.93211" lon="8.69084">
        <ele>1764</ele>
        <time>2021-08-07T06:55:46.598Z</time>
      </trkpt>
      <trkpt lat="46.93211" lon="8.69087">
        <ele>1763</ele>
        <time>2021-08-07T06:55:47.599Z</time>
      </trkpt>
      <trkpt lat="46.93211" lon="8.69087">
        <ele>1762</ele>
        <time>2021-08-07T06:55:48.599Z</time>
      </trkpt>
      <trkpt lat="46.9321" lon="8.69086">
        <ele>1761</ele>
        <time>2021-08-07T06:55:49.598Z</time>
      </trkpt>
      <trkpt lat="46.9321" lon="8.69086">
        <ele>1761</ele>
        <time>2021-08-07T06:55:50.599Z</time>
      </trkpt>
      <trkpt lat="46.93209" lon="8.69085">
        <ele>1760</ele>
        <time>2021-08-07T06:55:51.599Z</time>
      </trkpt>
      <trkpt lat="46.93209" lon="8.69084">
        <ele>1759</ele>
        <time>2021-08-07T06:55:52.599Z</time>
      </trkpt>
      <trkpt lat="46.93208" lon="8.69083">
        <ele>1759</ele>
        <time>2021-08-07T06:55:53.598Z</time>
      </trkpt>
      <trkpt lat="46.93207" lon="8.69082">
        <ele>1759</ele>
        <time>2021-08-07T06:55:54.599Z</time>
      </trkpt>
      <trkpt lat="46.93206" lon="8.69081">
        <ele>1759</ele>
        <time>2021-08-07T06:55:55.599Z</time>
      </trkpt>
      <trkpt lat="46.93206" lon="8.6908">
        <ele>1760</ele>
        <time>2021-08-07T06:55:56.599Z</time>
      </trkpt>
      <trkpt lat="46.93205" lon="8.69079">
        <ele>1761</ele>
        <time>2021-08-07T06:55:57.599Z</time>
      </trkpt>
      <trkpt lat="46.93204" lon="8.69077">
        <ele>1761</ele>
        <time>2021-08-07T06:55:58.599Z</time>
      </trkpt>
      <trkpt lat="46.93203" lon="8.69076">
        <ele>1762</ele>
        <time>2021-08-07T06:55:59.599Z</time>
      </trkpt>
      <trkpt lat="46.93202" lon="8.69075">
        <ele>1762</ele>
        <time>2021-08-07T06:56:00.599Z</time>
      </trkpt>
      <trkpt lat="46.93202" lon="8.69073">
        <ele>1762</ele>
        <time>2021-08-07T06:56:01.599Z</time>
      </trkpt>
      <trkpt lat="46.93201" lon="8.69072">
        <ele>1763</ele>
        <time>2021-08-07T06:56:02.598Z</time>
      </trkpt>
      <trkpt lat="46.932" lon="8.69071">
        <ele>1763</ele>
        <time>2021-08-07T06:56:03.598Z</time>
      </trkpt>
      <trkpt lat="46.93199" lon="8.69069">
        <ele>1763</ele>
        <time>2021-08-07T06:56:04.599Z</time>
      </trkpt>
      <trkpt lat="46.93199" lon="8.69068">
        <ele>1763</ele>
        <time>2021-08-07T06:56:05.599Z</time>
      </trkpt>
      <trkpt lat="46.93198" lon="8.69067">
        <ele>1763</ele>
        <time>2021-08-07T06:56:06.598Z</time>
      </trkpt>
      <trkpt lat="46.93198" lon="8.69066">
        <ele>1764</ele>
        <time>2021-08-07T06:56:07.599Z</time>
      </trkpt>
      <trkpt lat="46.93197" lon="8.69065">
        <ele>1764</ele>
        <time>2021-08-07T06:56:08.599Z</time>
      </trkpt>
      <trkpt lat="46.93197" lon="8.69064">
        <ele>1764</ele>
        <time>2021-08-07T06:56:09.599Z</time>
      </trkpt>
      <trkpt lat="46.93196" lon="8.69064">
        <ele>1764</ele>
        <time>2021-08-07T06:56:10.599Z</time>
      </trkpt>
      <trkpt lat="46.93195" lon="8.69063">
        <ele>1764</ele>
        <time>2021-08-07T06:56:11.599Z</time>
      </trkpt>
      <trkpt lat="46.93194" lon="8.69063">
        <ele>1764</ele>
        <time>2021-08-07T06:56:12.599Z</time>
      </trkpt>
      <trkpt lat="46.93194" lon="8.69063">
        <ele>1765</ele>
        <time>2021-08-07T06:56:13.599Z</time>
      </trkpt>
      <trkpt lat="46.93193" lon="8.69062">
        <ele>1765</ele>
        <time>2021-08-07T06:56:14.599Z</time>
      </trkpt>
      <trkpt lat="46.93193" lon="8.69062">
        <ele>1765</ele>
        <time>2021-08-07T06:56:15.598Z</time>
      </trkpt>
      <trkpt lat="46.93192" lon="8.69061">
        <ele>1766</ele>
        <time>2021-08-07T06:56:16.599Z</time>
      </trkpt>
      <trkpt lat="46.93191" lon="8.69061">
        <ele>1766</ele>
        <time>2021-08-07T06:56:17.598Z</time>
      </trkpt>
      <trkpt lat="46.93191" lon="8.6906">
        <ele>1766</ele>
        <time>2021-08-07T06:56:18.598Z</time>
      </trkpt>
      <trkpt lat="46.9319" lon="8.69059">
        <ele>1766</ele>
        <time>2021-08-07T06:56:19.599Z</time>
      </trkpt>
      <trkpt lat="46.9319" lon="8.69059">
        <ele>1766</ele>
        <time>2021-08-07T06:56:20.599Z</time>
      </trkpt>
      <trkpt lat="46.9319" lon="8.69058">
        <ele>1766</ele>
        <time>2021-08-07T06:56:21.599Z</time>
      </trkpt>
      <trkpt lat="46.9319" lon="8.69058">
        <ele>1766</ele>
        <time>2021-08-07T06:56:22.599Z</time>
      </trkpt>
      <trkpt lat="46.93189" lon="8.69057">
        <ele>1765</ele>
        <time>2021-08-07T06:56:23.599Z</time>
      </trkpt>
      <trkpt lat="46.93188" lon="8.69056">
        <ele>1765</ele>
        <time>2021-08-07T06:56:24.599Z</time>
      </trkpt>
      <trkpt lat="46.93187" lon="8.69055">
        <ele>1765</ele>
        <time>2021-08-07T06:56:25.599Z</time>
      </trkpt>
      <trkpt lat="46.93187" lon="8.69054">
        <ele>1765</ele>
        <time>2021-08-07T06:56:26.598Z</time>
      </trkpt>
      <trkpt lat="46.93186" lon="8.69053">
        <ele>1764</ele>
        <time>2021-08-07T06:56:27.599Z</time>
      </trkpt>
      <trkpt lat="46.93185" lon="8.69052">
        <ele>1764</ele>
        <time>2021-08-07T06:56:28.598Z</time>
      </trkpt>
      <trkpt lat="46.93184" lon="8.69051">
        <ele>1765</ele>
        <time>2021-08-07T06:56:29.599Z</time>
      </trkpt>
      <trkpt lat="46.93183" lon="8.6905">
        <ele>1765</ele>
        <time>2021-08-07T06:56:30.599Z</time>
      </trkpt>
      <trkpt lat="46.93183" lon="8.6905">
        <ele>1766</ele>
        <time>2021-08-07T06:56:31.598Z</time>
      </trkpt>
      <trkpt lat="46.93182" lon="8.6905">
        <ele>1766</ele>
        <time>2021-08-07T06:56:32.598Z</time>
      </trkpt>
      <trkpt lat="46.93182" lon="8.69049">
        <ele>1767</ele>
        <time>2021-08-07T06:56:33.599Z</time>
      </trkpt>
      <trkpt lat="46.93181" lon="8.69048">
        <ele>1767</ele>
        <time>2021-08-07T06:56:34.598Z</time>
      </trkpt>
      <trkpt lat="46.9318" lon="8.69048">
        <ele>1767</ele>
        <time>2021-08-07T06:56:35.599Z</time>
      </trkpt>
      <trkpt lat="46.93179" lon="8.69047">
        <ele>1768</ele>
        <time>2021-08-07T06:56:36.598Z</time>
      </trkpt>
      <trkpt lat="46.93178" lon="8.69046">
        <ele>1768</ele>
        <time>2021-08-07T06:56:37.599Z</time>
      </trkpt>
      <trkpt lat="46.93178" lon="8.69046">
        <ele>1769</ele>
        <time>2021-08-07T06:56:38.598Z</time>
      </trkpt>
      <trkpt lat="46.93177" lon="8.69046">
        <ele>1769</ele>
        <time>2021-08-07T06:56:39.599Z</time>
      </trkpt>
      <trkpt lat="46.93176" lon="8.69046">
        <ele>1769</ele>
        <time>2021-08-07T06:56:40.598Z</time>
      </trkpt>
      <trkpt lat="46.93176" lon="8.69046">
        <ele>1769</ele>
        <time>2021-08-07T06:56:41.599Z</time>
      </trkpt>
      <trkpt lat="46.93175" lon="8.69045">
        <ele>1770</ele>
        <time>2021-08-07T06:56:42.599Z</time>
      </trkpt>
      <trkpt lat="46.93175" lon="8.69045">
        <ele>1770</ele>
        <time>2021-08-07T06:56:43.599Z</time>
      </trkpt>
      <trkpt lat="46.93174" lon="8.69045">
        <ele>1770</ele>
        <time>2021-08-07T06:56:44.599Z</time>
      </trkpt>
      <trkpt lat="46.93174" lon="8.69045">
        <ele>1770</ele>
        <time>2021-08-07T06:56:45.599Z</time>
      </trkpt>
      <trkpt lat="46.93173" lon="8.69044">
        <ele>1771</ele>
        <time>2021-08-07T06:56:46.599Z</time>
      </trkpt>
      <trkpt lat="46.93172" lon="8.69044">
        <ele>1771</ele>
        <time>2021-08-07T06:56:47.599Z</time>
      </trkpt>
      <trkpt lat="46.93171" lon="8.69044">
        <ele>1771</ele>
        <time>2021-08-07T06:56:48.598Z</time>
      </trkpt>
      <trkpt lat="46.93171" lon="8.69044">
        <ele>1771</ele>
        <time>2021-08-07T06:56:49.599Z</time>
      </trkpt>
      <trkpt lat="46.93171" lon="8.69043">
        <ele>1771</ele>
        <time>2021-08-07T06:56:50.599Z</time>
      </trkpt>
      <trkpt lat="46.9317" lon="8.69043">
        <ele>1772</ele>
        <time>2021-08-07T06:56:51.598Z</time>
      </trkpt>
      <trkpt lat="46.9317" lon="8.69043">
        <ele>1772</ele>
        <time>2021-08-07T06:56:52.599Z</time>
      </trkpt>
      <trkpt lat="46.93169" lon="8.69043">
        <ele>1772</ele>
        <time>2021-08-07T06:56:53.598Z</time>
      </trkpt>
      <trkpt lat="46.93169" lon="8.69043">
        <ele>1772</ele>
        <time>2021-08-07T06:56:54.599Z</time>
      </trkpt>
      <trkpt lat="46.93168" lon="8.69043">
        <ele>1772</ele>
        <time>2021-08-07T06:56:55.599Z</time>
      </trkpt>
      <trkpt lat="46.93168" lon="8.69044">
        <ele>1772</ele>
        <time>2021-08-07T06:56:56.598Z</time>
      </trkpt>
      <trkpt lat="46.93167" lon="8.69044">
        <ele>1772</ele>
        <time>2021-08-07T06:56:57.598Z</time>
      </trkpt>
      <trkpt lat="46.93167" lon="8.69045">
        <ele>1771</ele>
        <time>2021-08-07T06:56:58.599Z</time>
      </trkpt>
      <trkpt lat="46.93167" lon="8.69045">
        <ele>1771</ele>
        <time>2021-08-07T06:56:59.599Z</time>
      </trkpt>
      <trkpt lat="46.93167" lon="8.69046">
        <ele>1770</ele>
        <time>2021-08-07T06:57:00.599Z</time>
      </trkpt>
      <trkpt lat="46.93166" lon="8.69046">
        <ele>1770</ele>
        <time>2021-08-07T06:57:01.599Z</time>
      </trkpt>
      <trkpt lat="46.93166" lon="8.69046">
        <ele>1770</ele>
        <time>2021-08-07T06:57:02.599Z</time>
      </trkpt>
      <trkpt lat="46.93165" lon="8.69047">
        <ele>1770</ele>
        <time>2021-08-07T06:57:03.599Z</time>
      </trkpt>
      <trkpt lat="46.93165" lon="8.69047">
        <ele>1770</ele>
        <time>2021-08-07T06:57:04.598Z</time>
      </trkpt>
      <trkpt lat="46.93164" lon="8.69047">
        <ele>1770</ele>
        <time>2021-08-07T06:57:05.599Z</time>
      </trkpt>
      <trkpt lat="46.93163" lon="8.69047">
        <ele>1770</ele>
        <time>2021-08-07T06:57:06.599Z</time>
      </trkpt>
      <trkpt lat="46.93163" lon="8.69047">
        <ele>1770</ele>
        <time>2021-08-07T06:57:07.598Z</time>
      </trkpt>
      <trkpt lat="46.93164" lon="8.69047">
        <ele>1769</ele>
        <time>2021-08-07T06:57:08.599Z</time>
      </trkpt>
      <trkpt lat="46.93164" lon="8.69048">
        <ele>1769</ele>
        <time>2021-08-07T06:57:09.598Z</time>
      </trkpt>
      <trkpt lat="46.93164" lon="8.69047">
        <ele>1769</ele>
        <time>2021-08-07T06:57:10.599Z</time>
      </trkpt>
      <trkpt lat="46.93165" lon="8.69047">
        <ele>1769</ele>
        <time>2021-08-07T06:57:11.598Z</time>
      </trkpt>
      <trkpt lat="46.93164" lon="8.69046">
        <ele>1770</ele>
        <time>2021-08-07T06:57:12.598Z</time>
      </trkpt>
      <trkpt lat="46.93164" lon="8.69046">
        <ele>1770</ele>
        <time>2021-08-07T06:57:13.599Z</time>
      </trkpt>
      <trkpt lat="46.93163" lon="8.69046">
        <ele>1769</ele>
        <time>2021-08-07T06:57:14.598Z</time>
      </trkpt>
      <trkpt lat="46.93162" lon="8.69046">
        <ele>1769</ele>
        <time>2021-08-07T06:57:15.599Z</time>
      </trkpt>
      <trkpt lat="46.93162" lon="8.69046">
        <ele>1769</ele>
        <time>2021-08-07T06:57:16.599Z</time>
      </trkpt>
      <trkpt lat="46.93161" lon="8.69047">
        <ele>1769</ele>
        <time>2021-08-07T06:57:17.599Z</time>
      </trkpt>
      <trkpt lat="46.9316" lon="8.69048">
        <ele>1769</ele>
        <time>2021-08-07T06:57:18.599Z</time>
      </trkpt>
      <trkpt lat="46.9316" lon="8.69048">
        <ele>1769</ele>
        <time>2021-08-07T06:57:19.599Z</time>
      </trkpt>
      <trkpt lat="46.9316" lon="8.69048">
        <ele>1771</ele>
        <time>2021-08-07T06:57:20.600Z</time>
      </trkpt>
      <trkpt lat="46.93159" lon="8.69048">
        <ele>1772</ele>
        <time>2021-08-07T06:57:21.601Z</time>
      </trkpt>
      <trkpt lat="46.93158" lon="8.69048">
        <ele>1772</ele>
        <time>2021-08-07T06:57:22.600Z</time>
      </trkpt>
      <trkpt lat="46.93158" lon="8.69047">
        <ele>1773</ele>
        <time>2021-08-07T06:57:23.600Z</time>
      </trkpt>
      <trkpt lat="46.93159" lon="8.69047">
        <ele>1773</ele>
        <time>2021-08-07T06:57:24.600Z</time>
      </trkpt>
      <trkpt lat="46.93159" lon="8.69046">
        <ele>1774</ele>
        <time>2021-08-07T06:57:25.601Z</time>
      </trkpt>
      <trkpt lat="46.93159" lon="8.69045">
        <ele>1774</ele>
        <time>2021-08-07T06:57:26.601Z</time>
      </trkpt>
      <trkpt lat="46.93159" lon="8.69045">
        <ele>1774</ele>
        <time>2021-08-07T06:57:27.601Z</time>
      </trkpt>
      <trkpt lat="46.9316" lon="8.69045">
        <ele>1774</ele>
        <time>2021-08-07T06:57:28.601Z</time>
      </trkpt>
      <trkpt lat="46.9316" lon="8.69044">
        <ele>1774</ele>
        <time>2021-08-07T06:57:29.601Z</time>
      </trkpt>
      <trkpt lat="46.9316" lon="8.69044">
        <ele>1774</ele>
        <time>2021-08-07T06:57:30.601Z</time>
      </trkpt>
      <trkpt lat="46.93161" lon="8.69043">
        <ele>1774</ele>
        <time>2021-08-07T06:57:31.600Z</time>
      </trkpt>
      <trkpt lat="46.93161" lon="8.69043">
        <ele>1774</ele>
        <time>2021-08-07T06:57:32.601Z</time>
      </trkpt>
      <trkpt lat="46.9316" lon="8.69042">
        <ele>1774</ele>
        <time>2021-08-07T06:57:33.601Z</time>
      </trkpt>
      <trkpt lat="46.9316" lon="8.69041">
        <ele>1774</ele>
        <time>2021-08-07T06:57:34.600Z</time>
      </trkpt>
      <trkpt lat="46.93159" lon="8.69039">
        <ele>1773</ele>
        <time>2021-08-07T06:57:35.601Z</time>
      </trkpt>
      <trkpt lat="46.93159" lon="8.69038">
        <ele>1773</ele>
        <time>2021-08-07T06:57:36.601Z</time>
      </trkpt>
      <trkpt lat="46.93159" lon="8.69036">
        <ele>1773</ele>
        <time>2021-08-07T06:57:37.601Z</time>
      </trkpt>
      <trkpt lat="46.93159" lon="8.69035">
        <ele>1773</ele>
        <time>2021-08-07T06:57:38.601Z</time>
      </trkpt>
      <trkpt lat="46.93159" lon="8.69035">
        <ele>1773</ele>
        <time>2021-08-07T06:57:39.600Z</time>
      </trkpt>
      <trkpt lat="46.93158" lon="8.69034">
        <ele>1773</ele>
        <time>2021-08-07T06:57:40.600Z</time>
      </trkpt>
      <trkpt lat="46.93158" lon="8.69034">
        <ele>1773</ele>
        <time>2021-08-07T06:57:41.601Z</time>
      </trkpt>
      <trkpt lat="46.93157" lon="8.69033">
        <ele>1773</ele>
        <time>2021-08-07T06:57:42.601Z</time>
      </trkpt>
      <trkpt lat="46.93157" lon="8.69032">
        <ele>1773</ele>
        <time>2021-08-07T06:57:43.601Z</time>
      </trkpt>
      <trkpt lat="46.93156" lon="8.69031">
        <ele>1773</ele>
        <time>2021-08-07T06:57:44.601Z</time>
      </trkpt>
      <trkpt lat="46.93156" lon="8.6903">
        <ele>1773</ele>
        <time>2021-08-07T06:57:45.601Z</time>
      </trkpt>
      <trkpt lat="46.93156" lon="8.69029">
        <ele>1773</ele>
        <time>2021-08-07T06:57:46.600Z</time>
      </trkpt>
      <trkpt lat="46.93156" lon="8.69028">
        <ele>1773</ele>
        <time>2021-08-07T06:57:47.600Z</time>
      </trkpt>
      <trkpt lat="46.93156" lon="8.69027">
        <ele>1773</ele>
        <time>2021-08-07T06:57:48.601Z</time>
      </trkpt>
      <trkpt lat="46.93155" lon="8.69026">
        <ele>1773</ele>
        <time>2021-08-07T06:57:49.601Z</time>
      </trkpt>
      <trkpt lat="46.93155" lon="8.69025">
        <ele>1773</ele>
        <time>2021-08-07T06:57:50.601Z</time>
      </trkpt>
      <trkpt lat="46.93154" lon="8.69024">
        <ele>1774</ele>
        <time>2021-08-07T06:57:51.600Z</time>
      </trkpt>
      <trkpt lat="46.93154" lon="8.69023">
        <ele>1774</ele>
        <time>2021-08-07T06:57:52.601Z</time>
      </trkpt>
      <trkpt lat="46.93153" lon="8.69022">
        <ele>1775</ele>
        <time>2021-08-07T06:57:53.601Z</time>
      </trkpt>
      <trkpt lat="46.93153" lon="8.69021">
        <ele>1776</ele>
        <time>2021-08-07T06:57:54.601Z</time>
      </trkpt>
      <trkpt lat="46.93152" lon="8.6902">
        <ele>1776</ele>
        <time>2021-08-07T06:57:55.600Z</time>
      </trkpt>
      <trkpt lat="46.93151" lon="8.69019">
        <ele>1777</ele>
        <time>2021-08-07T06:57:56.601Z</time>
      </trkpt>
      <trkpt lat="46.93151" lon="8.69018">
        <ele>1777</ele>
        <time>2021-08-07T06:57:57.601Z</time>
      </trkpt>
      <trkpt lat="46.9315" lon="8.69018">
        <ele>1777</ele>
        <time>2021-08-07T06:57:58.601Z</time>
      </trkpt>
      <trkpt lat="46.9315" lon="8.69017">
        <ele>1778</ele>
        <time>2021-08-07T06:57:59.601Z</time>
      </trkpt>
      <trkpt lat="46.9315" lon="8.69017">
        <ele>1778</ele>
        <time>2021-08-07T06:58:00.600Z</time>
      </trkpt>
      <trkpt lat="46.9315" lon="8.69016">
        <ele>1778</ele>
        <time>2021-08-07T06:58:01.601Z</time>
      </trkpt>
      <trkpt lat="46.93149" lon="8.69016">
        <ele>1778</ele>
        <time>2021-08-07T06:58:02.601Z</time>
      </trkpt>
      <trkpt lat="46.93149" lon="8.69016">
        <ele>1778</ele>
        <time>2021-08-07T06:58:03.601Z</time>
      </trkpt>
      <trkpt lat="46.93149" lon="8.69015">
        <ele>1778</ele>
        <time>2021-08-07T06:58:04.600Z</time>
      </trkpt>
      <trkpt lat="46.93148" lon="8.69015">
        <ele>1778</ele>
        <time>2021-08-07T06:58:05.601Z</time>
      </trkpt>
      <trkpt lat="46.93148" lon="8.69015">
        <ele>1778</ele>
        <time>2021-08-07T06:58:06.601Z</time>
      </trkpt>
      <trkpt lat="46.93147" lon="8.69014">
        <ele>1779</ele>
        <time>2021-08-07T06:58:07.600Z</time>
      </trkpt>
      <trkpt lat="46.93147" lon="8.69013">
        <ele>1779</ele>
        <time>2021-08-07T06:58:08.601Z</time>
      </trkpt>
      <trkpt lat="46.93146" lon="8.69013">
        <ele>1780</ele>
        <time>2021-08-07T06:58:09.600Z</time>
      </trkpt>
      <trkpt lat="46.93146" lon="8.69012">
        <ele>1780</ele>
        <time>2021-08-07T06:58:10.601Z</time>
      </trkpt>
      <trkpt lat="46.93145" lon="8.69012">
        <ele>1780</ele>
        <time>2021-08-07T06:58:11.601Z</time>
      </trkpt>
      <trkpt lat="46.93144" lon="8.69012">
        <ele>1780</ele>
        <time>2021-08-07T06:58:12.600Z</time>
      </trkpt>
      <trkpt lat="46.93143" lon="8.69012">
        <ele>1779</ele>
        <time>2021-08-07T06:58:13.601Z</time>
      </trkpt>
      <trkpt lat="46.93143" lon="8.69012">
        <ele>1779</ele>
        <time>2021-08-07T06:58:14.601Z</time>
      </trkpt>
      <trkpt lat="46.93142" lon="8.69013">
        <ele>1779</ele>
        <time>2021-08-07T06:58:15.601Z</time>
      </trkpt>
      <trkpt lat="46.93142" lon="8.69013">
        <ele>1779</ele>
        <time>2021-08-07T06:58:16.601Z</time>
      </trkpt>
      <trkpt lat="46.93141" lon="8.69014">
        <ele>1779</ele>
        <time>2021-08-07T06:58:17.601Z</time>
      </trkpt>
      <trkpt lat="46.9314" lon="8.69014">
        <ele>1779</ele>
        <time>2021-08-07T06:58:18.601Z</time>
      </trkpt>
      <trkpt lat="46.9314" lon="8.69015">
        <ele>1780</ele>
        <time>2021-08-07T06:58:19.601Z</time>
      </trkpt>
      <trkpt lat="46.93139" lon="8.69015">
        <ele>1780</ele>
        <time>2021-08-07T06:58:20.601Z</time>
      </trkpt>
      <trkpt lat="46.93139" lon="8.69016">
        <ele>1780</ele>
        <time>2021-08-07T06:58:21.600Z</time>
      </trkpt>
      <trkpt lat="46.93138" lon="8.69016">
        <ele>1779</ele>
        <time>2021-08-07T06:58:22.601Z</time>
      </trkpt>
      <trkpt lat="46.93137" lon="8.69017">
        <ele>1779</ele>
        <time>2021-08-07T06:58:23.601Z</time>
      </trkpt>
      <trkpt lat="46.93136" lon="8.69017">
        <ele>1779</ele>
        <time>2021-08-07T06:58:24.600Z</time>
      </trkpt>
      <trkpt lat="46.93136" lon="8.69017">
        <ele>1779</ele>
        <time>2021-08-07T06:58:25.601Z</time>
      </trkpt>
      <trkpt lat="46.93135" lon="8.69018">
        <ele>1779</ele>
        <time>2021-08-07T06:58:26.600Z</time>
      </trkpt>
      <trkpt lat="46.93134" lon="8.69018">
        <ele>1778</ele>
        <time>2021-08-07T06:58:27.600Z</time>
      </trkpt>
      <trkpt lat="46.93133" lon="8.69018">
        <ele>1779</ele>
        <time>2021-08-07T06:58:28.600Z</time>
      </trkpt>
      <trkpt lat="46.93132" lon="8.69018">
        <ele>1778</ele>
        <time>2021-08-07T06:58:29.601Z</time>
      </trkpt>
      <trkpt lat="46.93132" lon="8.69018">
        <ele>1778</ele>
        <time>2021-08-07T06:58:30.600Z</time>
      </trkpt>
      <trkpt lat="46.93131" lon="8.69018">
        <ele>1778</ele>
        <time>2021-08-07T06:58:31.601Z</time>
      </trkpt>
      <trkpt lat="46.9313" lon="8.69019">
        <ele>1777</ele>
        <time>2021-08-07T06:58:32.600Z</time>
      </trkpt>
      <trkpt lat="46.9313" lon="8.6902">
        <ele>1776</ele>
        <time>2021-08-07T06:58:33.601Z</time>
      </trkpt>
      <trkpt lat="46.93129" lon="8.6902">
        <ele>1776</ele>
        <time>2021-08-07T06:58:34.600Z</time>
      </trkpt>
      <trkpt lat="46.93129" lon="8.69022">
        <ele>1775</ele>
        <time>2021-08-07T06:58:35.601Z</time>
      </trkpt>
      <trkpt lat="46.93129" lon="8.69022">
        <ele>1774</ele>
        <time>2021-08-07T06:58:36.601Z</time>
      </trkpt>
      <trkpt lat="46.93128" lon="8.69022">
        <ele>1773</ele>
        <time>2021-08-07T06:58:37.601Z</time>
      </trkpt>
      <trkpt lat="46.93127" lon="8.69022">
        <ele>1773</ele>
        <time>2021-08-07T06:58:38.601Z</time>
      </trkpt>
      <trkpt lat="46.93127" lon="8.69021">
        <ele>1773</ele>
        <time>2021-08-07T06:58:39.601Z</time>
      </trkpt>
      <trkpt lat="46.93126" lon="8.69021">
        <ele>1773</ele>
        <time>2021-08-07T06:58:40.601Z</time>
      </trkpt>
      <trkpt lat="46.93126" lon="8.69022">
        <ele>1772</ele>
        <time>2021-08-07T06:58:41.601Z</time>
      </trkpt>
      <trkpt lat="46.93125" lon="8.69022">
        <ele>1772</ele>
        <time>2021-08-07T06:58:42.601Z</time>
      </trkpt>
      <trkpt lat="46.93124" lon="8.69022">
        <ele>1772</ele>
        <time>2021-08-07T06:58:43.601Z</time>
      </trkpt>
      <trkpt lat="46.93124" lon="8.69022">
        <ele>1773</ele>
        <time>2021-08-07T06:58:44.601Z</time>
      </trkpt>
      <trkpt lat="46.93124" lon="8.69022">
        <ele>1774</ele>
        <time>2021-08-07T06:58:45.601Z</time>
      </trkpt>
      <trkpt lat="46.93123" lon="8.69023">
        <ele>1774</ele>
        <time>2021-08-07T06:58:46.601Z</time>
      </trkpt>
      <trkpt lat="46.93123" lon="8.69023">
        <ele>1775</ele>
        <time>2021-08-07T06:58:47.601Z</time>
      </trkpt>
      <trkpt lat="46.93123" lon="8.69023">
        <ele>1776</ele>
        <time>2021-08-07T06:58:48.601Z</time>
      </trkpt>
      <trkpt lat="46.93122" lon="8.69023">
        <ele>1776</ele>
        <time>2021-08-07T06:58:49.601Z</time>
      </trkpt>
      <trkpt lat="46.93122" lon="8.69024">
        <ele>1776</ele>
        <time>2021-08-07T06:58:50.600Z</time>
      </trkpt>
      <trkpt lat="46.93121" lon="8.69024">
        <ele>1776</ele>
        <time>2021-08-07T06:58:51.601Z</time>
      </trkpt>
      <trkpt lat="46.93121" lon="8.69024">
        <ele>1777</ele>
        <time>2021-08-07T06:58:52.601Z</time>
      </trkpt>
      <trkpt lat="46.9312" lon="8.69024">
        <ele>1777</ele>
        <time>2021-08-07T06:58:53.601Z</time>
      </trkpt>
      <trkpt lat="46.93119" lon="8.69024">
        <ele>1777</ele>
        <time>2021-08-07T06:58:54.600Z</time>
      </trkpt>
      <trkpt lat="46.93118" lon="8.69024">
        <ele>1777</ele>
        <time>2021-08-07T06:58:55.601Z</time>
      </trkpt>
      <trkpt lat="46.93118" lon="8.69024">
        <ele>1777</ele>
        <time>2021-08-07T06:58:56.600Z</time>
      </trkpt>
      <trkpt lat="46.93117" lon="8.69024">
        <ele>1777</ele>
        <time>2021-08-07T06:58:57.600Z</time>
      </trkpt>
      <trkpt lat="46.93117" lon="8.69025">
        <ele>1776</ele>
        <time>2021-08-07T06:58:58.601Z</time>
      </trkpt>
      <trkpt lat="46.93117" lon="8.69026">
        <ele>1777</ele>
        <time>2021-08-07T06:58:59.600Z</time>
      </trkpt>
      <trkpt lat="46.93116" lon="8.69026">
        <ele>1777</ele>
        <time>2021-08-07T06:59:00.600Z</time>
      </trkpt>
      <trkpt lat="46.93116" lon="8.69026">
        <ele>1777</ele>
        <time>2021-08-07T06:59:01.600Z</time>
      </trkpt>
      <trkpt lat="46.93116" lon="8.69028">
        <ele>1778</ele>
        <time>2021-08-07T06:59:02.601Z</time>
      </trkpt>
      <trkpt lat="46.93115" lon="8.69028">
        <ele>1779</ele>
        <time>2021-08-07T06:59:03.601Z</time>
      </trkpt>
      <trkpt lat="46.93115" lon="8.69028">
        <ele>1780</ele>
        <time>2021-08-07T06:59:04.600Z</time>
      </trkpt>
      <trkpt lat="46.93115" lon="8.69028">
        <ele>1780</ele>
        <time>2021-08-07T06:59:05.600Z</time>
      </trkpt>
      <trkpt lat="46.93114" lon="8.69028">
        <ele>1783</ele>
        <time>2021-08-07T06:59:06.600Z</time>
      </trkpt>
      <trkpt lat="46.93115" lon="8.69028">
        <ele>1784</ele>
        <time>2021-08-07T06:59:07.600Z</time>
      </trkpt>
      <trkpt lat="46.93115" lon="8.69028">
        <ele>1784</ele>
        <time>2021-08-07T06:59:08.600Z</time>
      </trkpt>
      <trkpt lat="46.93115" lon="8.69029">
        <ele>1784</ele>
        <time>2021-08-07T06:59:09.601Z</time>
      </trkpt>
      <trkpt lat="46.93115" lon="8.69029">
        <ele>1784</ele>
        <time>2021-08-07T06:59:10.600Z</time>
      </trkpt>
      <trkpt lat="46.93113" lon="8.69028">
        <ele>1783</ele>
        <time>2021-08-07T06:59:11.602Z</time>
      </trkpt>
      <trkpt lat="46.93113" lon="8.69028">
        <ele>1783</ele>
        <time>2021-08-07T06:59:12.602Z</time>
      </trkpt>
      <trkpt lat="46.93114" lon="8.69029">
        <ele>1783</ele>
        <time>2021-08-07T06:59:13.601Z</time>
      </trkpt>
      <trkpt lat="46.93115" lon="8.6903">
        <ele>1783</ele>
        <time>2021-08-07T06:59:14.602Z</time>
      </trkpt>
      <trkpt lat="46.93115" lon="8.6903">
        <ele>1783</ele>
        <time>2021-08-07T06:59:15.601Z</time>
      </trkpt>
      <trkpt lat="46.93114" lon="8.6903">
        <ele>1782</ele>
        <time>2021-08-07T06:59:16.601Z</time>
      </trkpt>
      <trkpt lat="46.93113" lon="8.6903">
        <ele>1782</ele>
        <time>2021-08-07T06:59:17.602Z</time>
      </trkpt>
      <trkpt lat="46.93112" lon="8.6903">
        <ele>1782</ele>
        <time>2021-08-07T06:59:18.601Z</time>
      </trkpt>
      <trkpt lat="46.93111" lon="8.6903">
        <ele>1782</ele>
        <time>2021-08-07T06:59:19.602Z</time>
      </trkpt>
      <trkpt lat="46.9311" lon="8.6903">
        <ele>1782</ele>
        <time>2021-08-07T06:59:20.602Z</time>
      </trkpt>
      <trkpt lat="46.93109" lon="8.6903">
        <ele>1781</ele>
        <time>2021-08-07T06:59:21.601Z</time>
      </trkpt>
      <trkpt lat="46.93108" lon="8.6903">
        <ele>1781</ele>
        <time>2021-08-07T06:59:22.602Z</time>
      </trkpt>
      <trkpt lat="46.93107" lon="8.69031">
        <ele>1780</ele>
        <time>2021-08-07T06:59:23.602Z</time>
      </trkpt>
      <trkpt lat="46.93106" lon="8.69031">
        <ele>1780</ele>
        <time>2021-08-07T06:59:24.602Z</time>
      </trkpt>
      <trkpt lat="46.93106" lon="8.69032">
        <ele>1779</ele>
        <time>2021-08-07T06:59:25.602Z</time>
      </trkpt>
      <trkpt lat="46.93106" lon="8.69033">
        <ele>1779</ele>
        <time>2021-08-07T06:59:26.601Z</time>
      </trkpt>
      <trkpt lat="46.93105" lon="8.69034">
        <ele>1778</ele>
        <time>2021-08-07T06:59:27.602Z</time>
      </trkpt>
      <trkpt lat="46.93104" lon="8.69035">
        <ele>1777</ele>
        <time>2021-08-07T06:59:28.601Z</time>
      </trkpt>
      <trkpt lat="46.93103" lon="8.69036">
        <ele>1777</ele>
        <time>2021-08-07T06:59:29.601Z</time>
      </trkpt>
      <trkpt lat="46.93103" lon="8.69036">
        <ele>1776</ele>
        <time>2021-08-07T06:59:30.602Z</time>
      </trkpt>
      <trkpt lat="46.93102" lon="8.69036">
        <ele>1775</ele>
        <time>2021-08-07T06:59:31.602Z</time>
      </trkpt>
      <trkpt lat="46.93102" lon="8.69037">
        <ele>1774</ele>
        <time>2021-08-07T06:59:32.602Z</time>
      </trkpt>
      <trkpt lat="46.93101" lon="8.69038">
        <ele>1774</ele>
        <time>2021-08-07T06:59:33.601Z</time>
      </trkpt>
      <trkpt lat="46.93101" lon="8.69039">
        <ele>1774</ele>
        <time>2021-08-07T06:59:34.601Z</time>
      </trkpt>
      <trkpt lat="46.931" lon="8.69039">
        <ele>1774</ele>
        <time>2021-08-07T06:59:35.602Z</time>
      </trkpt>
      <trkpt lat="46.931" lon="8.6904">
        <ele>1774</ele>
        <time>2021-08-07T06:59:36.601Z</time>
      </trkpt>
      <trkpt lat="46.93099" lon="8.69041">
        <ele>1773</ele>
        <time>2021-08-07T06:59:37.602Z</time>
      </trkpt>
      <trkpt lat="46.93099" lon="8.69042">
        <ele>1773</ele>
        <time>2021-08-07T06:59:38.601Z</time>
      </trkpt>
      <trkpt lat="46.93099" lon="8.69043">
        <ele>1774</ele>
        <time>2021-08-07T06:59:39.601Z</time>
      </trkpt>
      <trkpt lat="46.93099" lon="8.69044">
        <ele>1774</ele>
        <time>2021-08-07T06:59:40.602Z</time>
      </trkpt>
      <trkpt lat="46.93098" lon="8.69044">
        <ele>1775</ele>
        <time>2021-08-07T06:59:41.602Z</time>
      </trkpt>
      <trkpt lat="46.93098" lon="8.69044">
        <ele>1776</ele>
        <time>2021-08-07T06:59:42.601Z</time>
      </trkpt>
      <trkpt lat="46.93098" lon="8.69045">
        <ele>1777</ele>
        <time>2021-08-07T06:59:43.602Z</time>
      </trkpt>
      <trkpt lat="46.93097" lon="8.69046">
        <ele>1778</ele>
        <time>2021-08-07T06:59:44.601Z</time>
      </trkpt>
      <trkpt lat="46.93096" lon="8.69046">
        <ele>1779</ele>
        <time>2021-08-07T06:59:45.602Z</time>
      </trkpt>
      <trkpt lat="46.93096" lon="8.69046">
        <ele>1780</ele>
        <time>2021-08-07T06:59:46.601Z</time>
      </trkpt>
      <trkpt lat="46.93095" lon="8.69047">
        <ele>1780</ele>
        <time>2021-08-07T06:59:47.602Z</time>
      </trkpt>
      <trkpt lat="46.93094" lon="8.69047">
        <ele>1781</ele>
        <time>2021-08-07T06:59:48.602Z</time>
      </trkpt>
      <trkpt lat="46.93093" lon="8.69047">
        <ele>1781</ele>
        <time>2021-08-07T06:59:49.601Z</time>
      </trkpt>
      <trkpt lat="46.93093" lon="8.69048">
        <ele>1782</ele>
        <time>2021-08-07T06:59:50.602Z</time>
      </trkpt>
      <trkpt lat="46.93092" lon="8.69049">
        <ele>1782</ele>
        <time>2021-08-07T06:59:51.602Z</time>
      </trkpt>
      <trkpt lat="46.93091" lon="8.69049">
        <ele>1782</ele>
        <time>2021-08-07T06:59:52.602Z</time>
      </trkpt>
      <trkpt lat="46.93091" lon="8.6905">
        <ele>1782</ele>
        <time>2021-08-07T06:59:53.602Z</time>
      </trkpt>
      <trkpt lat="46.9309" lon="8.69051">
        <ele>1782</ele>
        <time>2021-08-07T06:59:54.601Z</time>
      </trkpt>
      <trkpt lat="46.9309" lon="8.69052">
        <ele>1782</ele>
        <time>2021-08-07T06:59:55.602Z</time>
      </trkpt>
      <trkpt lat="46.9309" lon="8.69053">
        <ele>1781</ele>
        <time>2021-08-07T06:59:56.602Z</time>
      </trkpt>
      <trkpt lat="46.93089" lon="8.69054">
        <ele>1781</ele>
        <time>2021-08-07T06:59:57.602Z</time>
      </trkpt>
      <trkpt lat="46.93088" lon="8.69054">
        <ele>1782</ele>
        <time>2021-08-07T06:59:58.601Z</time>
      </trkpt>
      <trkpt lat="46.93087" lon="8.69054">
        <ele>1783</ele>
        <time>2021-08-07T06:59:59.601Z</time>
      </trkpt>
      <trkpt lat="46.93085" lon="8.69054">
        <ele>1785</ele>
        <time>2021-08-07T07:00:00.601Z</time>
      </trkpt>
      <trkpt lat="46.93085" lon="8.69055">
        <ele>1786</ele>
        <time>2021-08-07T07:00:01.602Z</time>
      </trkpt>
      <trkpt lat="46.93084" lon="8.69055">
        <ele>1788</ele>
        <time>2021-08-07T07:00:02.602Z</time>
      </trkpt>
      <trkpt lat="46.93083" lon="8.69056">
        <ele>1789</ele>
        <time>2021-08-07T07:00:03.602Z</time>
      </trkpt>
      <trkpt lat="46.93082" lon="8.69057">
        <ele>1790</ele>
        <time>2021-08-07T07:00:04.602Z</time>
      </trkpt>
      <trkpt lat="46.93082" lon="8.69057">
        <ele>1791</ele>
        <time>2021-08-07T07:00:05.602Z</time>
      </trkpt>
      <trkpt lat="46.93082" lon="8.69059">
        <ele>1791</ele>
        <time>2021-08-07T07:00:06.601Z</time>
      </trkpt>
      <trkpt lat="46.93084" lon="8.6906">
        <ele>1792</ele>
        <time>2021-08-07T07:00:07.602Z</time>
      </trkpt>
      <trkpt lat="46.93085" lon="8.69062">
        <ele>1792</ele>
        <time>2021-08-07T07:00:08.601Z</time>
      </trkpt>
      <trkpt lat="46.93086" lon="8.69063">
        <ele>1793</ele>
        <time>2021-08-07T07:00:09.602Z</time>
      </trkpt>
      <trkpt lat="46.93085" lon="8.69063">
        <ele>1793</ele>
        <time>2021-08-07T07:00:10.601Z</time>
      </trkpt>
      <trkpt lat="46.93085" lon="8.69064">
        <ele>1794</ele>
        <time>2021-08-07T07:00:11.602Z</time>
      </trkpt>
      <trkpt lat="46.93085" lon="8.69064">
        <ele>1797</ele>
        <time>2021-08-07T07:00:12.603Z</time>
      </trkpt>
      <trkpt lat="46.93085" lon="8.69064">
        <ele>1797</ele>
        <time>2021-08-07T07:00:13.603Z</time>
      </trkpt>
      <trkpt lat="46.93082" lon="8.69062">
        <ele>1798</ele>
        <time>2021-08-07T07:00:14.603Z</time>
      </trkpt>
      <trkpt lat="46.93081" lon="8.69062">
        <ele>1798</ele>
        <time>2021-08-07T07:00:15.603Z</time>
      </trkpt>
      <trkpt lat="46.93081" lon="8.69062">
        <ele>1798</ele>
        <time>2021-08-07T07:00:16.602Z</time>
      </trkpt>
      <trkpt lat="46.9308" lon="8.69062">
        <ele>1798</ele>
        <time>2021-08-07T07:00:17.602Z</time>
      </trkpt>
      <trkpt lat="46.9308" lon="8.69062">
        <ele>1798</ele>
        <time>2021-08-07T07:00:18.602Z</time>
      </trkpt>
      <trkpt lat="46.9308" lon="8.69062">
        <ele>1798</ele>
        <time>2021-08-07T07:00:19.603Z</time>
      </trkpt>
      <trkpt lat="46.9308" lon="8.69063">
        <ele>1798</ele>
        <time>2021-08-07T07:00:20.602Z</time>
      </trkpt>
      <trkpt lat="46.93079" lon="8.69063">
        <ele>1798</ele>
        <time>2021-08-07T07:00:21.603Z</time>
      </trkpt>
      <trkpt lat="46.93078" lon="8.69063">
        <ele>1798</ele>
        <time>2021-08-07T07:00:22.603Z</time>
      </trkpt>
      <trkpt lat="46.93077" lon="8.69063">
        <ele>1797</ele>
        <time>2021-08-07T07:00:23.603Z</time>
      </trkpt>
      <trkpt lat="46.93077" lon="8.69063">
        <ele>1797</ele>
        <time>2021-08-07T07:00:24.602Z</time>
      </trkpt>
      <trkpt lat="46.93077" lon="8.69064">
        <ele>1796</ele>
        <time>2021-08-07T07:00:25.602Z</time>
      </trkpt>
      <trkpt lat="46.93076" lon="8.69065">
        <ele>1796</ele>
        <time>2021-08-07T07:00:26.603Z</time>
      </trkpt>
      <trkpt lat="46.93076" lon="8.69066">
        <ele>1795</ele>
        <time>2021-08-07T07:00:27.603Z</time>
      </trkpt>
      <trkpt lat="46.93076" lon="8.69067">
        <ele>1795</ele>
        <time>2021-08-07T07:00:28.603Z</time>
      </trkpt>
      <trkpt lat="46.93075" lon="8.69067">
        <ele>1794</ele>
        <time>2021-08-07T07:00:29.603Z</time>
      </trkpt>
      <trkpt lat="46.93074" lon="8.69067">
        <ele>1794</ele>
        <time>2021-08-07T07:00:30.602Z</time>
      </trkpt>
      <trkpt lat="46.93073" lon="8.69067">
        <ele>1794</ele>
        <time>2021-08-07T07:00:31.603Z</time>
      </trkpt>
      <trkpt lat="46.93072" lon="8.69067">
        <ele>1794</ele>
        <time>2021-08-07T07:00:32.603Z</time>
      </trkpt>
      <trkpt lat="46.93071" lon="8.69068">
        <ele>1793</ele>
        <time>2021-08-07T07:00:33.603Z</time>
      </trkpt>
      <trkpt lat="46.93071" lon="8.69068">
        <ele>1793</ele>
        <time>2021-08-07T07:00:34.603Z</time>
      </trkpt>
      <trkpt lat="46.9307" lon="8.69069">
        <ele>1793</ele>
        <time>2021-08-07T07:00:35.603Z</time>
      </trkpt>
      <trkpt lat="46.9307" lon="8.6907">
        <ele>1792</ele>
        <time>2021-08-07T07:00:36.603Z</time>
      </trkpt>
      <trkpt lat="46.93069" lon="8.69071">
        <ele>1792</ele>
        <time>2021-08-07T07:00:37.603Z</time>
      </trkpt>
      <trkpt lat="46.93069" lon="8.69073">
        <ele>1791</ele>
        <time>2021-08-07T07:00:38.602Z</time>
      </trkpt>
      <trkpt lat="46.93068" lon="8.69074">
        <ele>1791</ele>
        <time>2021-08-07T07:00:39.603Z</time>
      </trkpt>
      <trkpt lat="46.93068" lon="8.69075">
        <ele>1791</ele>
        <time>2021-08-07T07:00:40.602Z</time>
      </trkpt>
      <trkpt lat="46.93067" lon="8.69075">
        <ele>1790</ele>
        <time>2021-08-07T07:00:41.603Z</time>
      </trkpt>
      <trkpt lat="46.93066" lon="8.69076">
        <ele>1790</ele>
        <time>2021-08-07T07:00:42.603Z</time>
      </trkpt>
      <trkpt lat="46.93065" lon="8.69076">
        <ele>1790</ele>
        <time>2021-08-07T07:00:43.602Z</time>
      </trkpt>
      <trkpt lat="46.93065" lon="8.69076">
        <ele>1791</ele>
        <time>2021-08-07T07:00:44.603Z</time>
      </trkpt>
      <trkpt lat="46.93064" lon="8.69076">
        <ele>1791</ele>
        <time>2021-08-07T07:00:45.602Z</time>
      </trkpt>
      <trkpt lat="46.93064" lon="8.69077">
        <ele>1791</ele>
        <time>2021-08-07T07:00:46.603Z</time>
      </trkpt>
      <trkpt lat="46.93064" lon="8.69078">
        <ele>1791</ele>
        <time>2021-08-07T07:00:47.603Z</time>
      </trkpt>
      <trkpt lat="46.93064" lon="8.69079">
        <ele>1791</ele>
        <time>2021-08-07T07:00:48.602Z</time>
      </trkpt>
      <trkpt lat="46.93063" lon="8.69079">
        <ele>1790</ele>
        <time>2021-08-07T07:00:49.602Z</time>
      </trkpt>
      <trkpt lat="46.93063" lon="8.6908">
        <ele>1790</ele>
        <time>2021-08-07T07:00:50.603Z</time>
      </trkpt>
      <trkpt lat="46.93062" lon="8.6908">
        <ele>1789</ele>
        <time>2021-08-07T07:00:51.602Z</time>
      </trkpt>
      <trkpt lat="46.93062" lon="8.69081">
        <ele>1789</ele>
        <time>2021-08-07T07:00:52.602Z</time>
      </trkpt>
      <trkpt lat="46.93061" lon="8.69081">
        <ele>1788</ele>
        <time>2021-08-07T07:00:53.603Z</time>
      </trkpt>
      <trkpt lat="46.9306" lon="8.69082">
        <ele>1788</ele>
        <time>2021-08-07T07:00:54.603Z</time>
      </trkpt>
      <trkpt lat="46.93059" lon="8.69082">
        <ele>1788</ele>
        <time>2021-08-07T07:00:55.603Z</time>
      </trkpt>
      <trkpt lat="46.93058" lon="8.69082">
        <ele>1788</ele>
        <time>2021-08-07T07:00:56.603Z</time>
      </trkpt>
      <trkpt lat="46.93057" lon="8.69082">
        <ele>1788</ele>
        <time>2021-08-07T07:00:57.603Z</time>
      </trkpt>
      <trkpt lat="46.93057" lon="8.69083">
        <ele>1788</ele>
        <time>2021-08-07T07:00:58.603Z</time>
      </trkpt>
      <trkpt lat="46.93056" lon="8.69082">
        <ele>1788</ele>
        <time>2021-08-07T07:00:59.603Z</time>
      </trkpt>
      <trkpt lat="46.93056" lon="8.69082">
        <ele>1788</ele>
        <time>2021-08-07T07:01:00.603Z</time>
      </trkpt>
      <trkpt lat="46.93056" lon="8.69082">
        <ele>1788</ele>
        <time>2021-08-07T07:01:01.603Z</time>
      </trkpt>
      <trkpt lat="46.93054" lon="8.6908">
        <ele>1787</ele>
        <time>2021-08-07T07:01:02.602Z</time>
      </trkpt>
      <trkpt lat="46.93053" lon="8.69079">
        <ele>1787</ele>
        <time>2021-08-07T07:01:03.603Z</time>
      </trkpt>
      <trkpt lat="46.93052" lon="8.69078">
        <ele>1787</ele>
        <time>2021-08-07T07:01:04.602Z</time>
      </trkpt>
      <trkpt lat="46.93051" lon="8.69077">
        <ele>1787</ele>
        <time>2021-08-07T07:01:05.603Z</time>
      </trkpt>
      <trkpt lat="46.93051" lon="8.69076">
        <ele>1788</ele>
        <time>2021-08-07T07:01:06.603Z</time>
      </trkpt>
      <trkpt lat="46.93051" lon="8.69075">
        <ele>1788</ele>
        <time>2021-08-07T07:01:07.603Z</time>
      </trkpt>
      <trkpt lat="46.9305" lon="8.69074">
        <ele>1789</ele>
        <time>2021-08-07T07:01:08.603Z</time>
      </trkpt>
      <trkpt lat="46.93049" lon="8.69072">
        <ele>1789</ele>
        <time>2021-08-07T07:01:09.602Z</time>
      </trkpt>
      <trkpt lat="46.93049" lon="8.69071">
        <ele>1789</ele>
        <time>2021-08-07T07:01:10.603Z</time>
      </trkpt>
      <trkpt lat="46.93048" lon="8.6907">
        <ele>1790</ele>
        <time>2021-08-07T07:01:11.603Z</time>
      </trkpt>
      <trkpt lat="46.93047" lon="8.69069">
        <ele>1790</ele>
        <time>2021-08-07T07:01:12.603Z</time>
      </trkpt>
      <trkpt lat="46.93045" lon="8.69069">
        <ele>1791</ele>
        <time>2021-08-07T07:01:13.603Z</time>
      </trkpt>
      <trkpt lat="46.93044" lon="8.69068">
        <ele>1791</ele>
        <time>2021-08-07T07:01:14.602Z</time>
      </trkpt>
      <trkpt lat="46.93043" lon="8.69067">
        <ele>1791</ele>
        <time>2021-08-07T07:01:15.603Z</time>
      </trkpt>
      <trkpt lat="46.93043" lon="8.69067">
        <ele>1792</ele>
        <time>2021-08-07T07:01:16.603Z</time>
      </trkpt>
      <trkpt lat="46.93042" lon="8.69067">
        <ele>1792</ele>
        <time>2021-08-07T07:01:17.603Z</time>
      </trkpt>
      <trkpt lat="46.9304" lon="8.69067">
        <ele>1792</ele>
        <time>2021-08-07T07:01:18.602Z</time>
      </trkpt>
      <trkpt lat="46.93039" lon="8.69068">
        <ele>1792</ele>
        <time>2021-08-07T07:01:19.603Z</time>
      </trkpt>
      <trkpt lat="46.93039" lon="8.69069">
        <ele>1792</ele>
        <time>2021-08-07T07:01:20.602Z</time>
      </trkpt>
      <trkpt lat="46.93039" lon="8.69071">
        <ele>1792</ele>
        <time>2021-08-07T07:01:21.603Z</time>
      </trkpt>
      <trkpt lat="46.93038" lon="8.69072">
        <ele>1792</ele>
        <time>2021-08-07T07:01:22.603Z</time>
      </trkpt>
      <trkpt lat="46.93036" lon="8.69073">
        <ele>1792</ele>
        <time>2021-08-07T07:01:23.602Z</time>
      </trkpt>
      <trkpt lat="46.93036" lon="8.69074">
        <ele>1792</ele>
        <time>2021-08-07T07:01:24.603Z</time>
      </trkpt>
      <trkpt lat="46.93035" lon="8.69075">
        <ele>1792</ele>
        <time>2021-08-07T07:01:25.602Z</time>
      </trkpt>
      <trkpt lat="46.93034" lon="8.69076">
        <ele>1792</ele>
        <time>2021-08-07T07:01:26.602Z</time>
      </trkpt>
      <trkpt lat="46.93034" lon="8.69077">
        <ele>1791</ele>
        <time>2021-08-07T07:01:27.603Z</time>
      </trkpt>
      <trkpt lat="46.93033" lon="8.69078">
        <ele>1791</ele>
        <time>2021-08-07T07:01:28.603Z</time>
      </trkpt>
      <trkpt lat="46.93032" lon="8.69079">
        <ele>1791</ele>
        <time>2021-08-07T07:01:29.602Z</time>
      </trkpt>
      <trkpt lat="46.93031" lon="8.69079">
        <ele>1791</ele>
        <time>2021-08-07T07:01:30.603Z</time>
      </trkpt>
      <trkpt lat="46.9303" lon="8.69079">
        <ele>1791</ele>
        <time>2021-08-07T07:01:31.603Z</time>
      </trkpt>
      <trkpt lat="46.93029" lon="8.69079">
        <ele>1791</ele>
        <time>2021-08-07T07:01:32.603Z</time>
      </trkpt>
      <trkpt lat="46.93028" lon="8.69079">
        <ele>1790</ele>
        <time>2021-08-07T07:01:33.603Z</time>
      </trkpt>
      <trkpt lat="46.93028" lon="8.69079">
        <ele>1790</ele>
        <time>2021-08-07T07:01:34.603Z</time>
      </trkpt>
      <trkpt lat="46.93028" lon="8.69079">
        <ele>1790</ele>
        <time>2021-08-07T07:01:35.602Z</time>
      </trkpt>
      <trkpt lat="46.93027" lon="8.6908">
        <ele>1790</ele>
        <time>2021-08-07T07:01:36.603Z</time>
      </trkpt>
      <trkpt lat="46.93027" lon="8.6908">
        <ele>1790</ele>
        <time>2021-08-07T07:01:37.603Z</time>
      </trkpt>
      <trkpt lat="46.93027" lon="8.6908">
        <ele>1790</ele>
        <time>2021-08-07T07:01:38.602Z</time>
      </trkpt>
      <trkpt lat="46.93027" lon="8.69081">
        <ele>1790</ele>
        <time>2021-08-07T07:01:39.603Z</time>
      </trkpt>
      <trkpt lat="46.93027" lon="8.69082">
        <ele>1790</ele>
        <time>2021-08-07T07:01:40.603Z</time>
      </trkpt>
      <trkpt lat="46.93027" lon="8.69082">
        <ele>1790</ele>
        <time>2021-08-07T07:01:41.603Z</time>
      </trkpt>
      <trkpt lat="46.93026" lon="8.69082">
        <ele>1790</ele>
        <time>2021-08-07T07:01:42.603Z</time>
      </trkpt>
      <trkpt lat="46.93025" lon="8.69082">
        <ele>1789</ele>
        <time>2021-08-07T07:01:43.602Z</time>
      </trkpt>
      <trkpt lat="46.93025" lon="8.69083">
        <ele>1789</ele>
        <time>2021-08-07T07:01:44.603Z</time>
      </trkpt>
      <trkpt lat="46.93024" lon="8.69083">
        <ele>1789</ele>
        <time>2021-08-07T07:01:45.603Z</time>
      </trkpt>
      <trkpt lat="46.93024" lon="8.69082">
        <ele>1788</ele>
        <time>2021-08-07T07:01:46.603Z</time>
      </trkpt>
      <trkpt lat="46.93025" lon="8.69081">
        <ele>1789</ele>
        <time>2021-08-07T07:01:47.603Z</time>
      </trkpt>
      <trkpt lat="46.93024" lon="8.69081">
        <ele>1789</ele>
        <time>2021-08-07T07:01:48.602Z</time>
      </trkpt>
      <trkpt lat="46.93024" lon="8.69081">
        <ele>1789</ele>
        <time>2021-08-07T07:01:49.602Z</time>
      </trkpt>
      <trkpt lat="46.93024" lon="8.69081">
        <ele>1789</ele>
        <time>2021-08-07T07:01:50.603Z</time>
      </trkpt>
      <trkpt lat="46.93023" lon="8.6908">
        <ele>1788</ele>
        <time>2021-08-07T07:01:51.604Z</time>
      </trkpt>
      <trkpt lat="46.93023" lon="8.6908">
        <ele>1787</ele>
        <time>2021-08-07T07:01:52.605Z</time>
      </trkpt>
      <trkpt lat="46.93022" lon="8.69079">
        <ele>1787</ele>
        <time>2021-08-07T07:01:53.604Z</time>
      </trkpt>
      <trkpt lat="46.93021" lon="8.69078">
        <ele>1787</ele>
        <time>2021-08-07T07:01:54.605Z</time>
      </trkpt>
      <trkpt lat="46.9302" lon="8.69077">
        <ele>1787</ele>
        <time>2021-08-07T07:01:55.605Z</time>
      </trkpt>
      <trkpt lat="46.93019" lon="8.69077">
        <ele>1787</ele>
        <time>2021-08-07T07:01:56.605Z</time>
      </trkpt>
      <trkpt lat="46.93018" lon="8.69077">
        <ele>1787</ele>
        <time>2021-08-07T07:01:57.604Z</time>
      </trkpt>
      <trkpt lat="46.93018" lon="8.69077">
        <ele>1787</ele>
        <time>2021-08-07T07:01:58.605Z</time>
      </trkpt>
      <trkpt lat="46.93016" lon="8.69076">
        <ele>1787</ele>
        <time>2021-08-07T07:01:59.605Z</time>
      </trkpt>
      <trkpt lat="46.93015" lon="8.69076">
        <ele>1787</ele>
        <time>2021-08-07T07:02:00.604Z</time>
      </trkpt>
      <trkpt lat="46.93014" lon="8.69076">
        <ele>1787</ele>
        <time>2021-08-07T07:02:01.605Z</time>
      </trkpt>
      <trkpt lat="46.93013" lon="8.69075">
        <ele>1787</ele>
        <time>2021-08-07T07:02:02.605Z</time>
      </trkpt>
      <trkpt lat="46.93012" lon="8.69075">
        <ele>1787</ele>
        <time>2021-08-07T07:02:03.604Z</time>
      </trkpt>
      <trkpt lat="46.93011" lon="8.69074">
        <ele>1788</ele>
        <time>2021-08-07T07:02:04.604Z</time>
      </trkpt>
      <trkpt lat="46.9301" lon="8.69073">
        <ele>1788</ele>
        <time>2021-08-07T07:02:05.605Z</time>
      </trkpt>
      <trkpt lat="46.93008" lon="8.69073">
        <ele>1788</ele>
        <time>2021-08-07T07:02:06.605Z</time>
      </trkpt>
      <trkpt lat="46.93007" lon="8.69072">
        <ele>1789</ele>
        <time>2021-08-07T07:02:07.605Z</time>
      </trkpt>
      <trkpt lat="46.93008" lon="8.69073">
        <ele>1788</ele>
        <time>2021-08-07T07:02:08.605Z</time>
      </trkpt>
      <trkpt lat="46.93006" lon="8.69072">
        <ele>1788</ele>
        <time>2021-08-07T07:02:09.605Z</time>
      </trkpt>
      <trkpt lat="46.93005" lon="8.69071">
        <ele>1788</ele>
        <time>2021-08-07T07:02:10.604Z</time>
      </trkpt>
      <trkpt lat="46.93004" lon="8.69071">
        <ele>1788</ele>
        <time>2021-08-07T07:02:11.605Z</time>
      </trkpt>
      <trkpt lat="46.93003" lon="8.69071">
        <ele>1788</ele>
        <time>2021-08-07T07:02:12.605Z</time>
      </trkpt>
      <trkpt lat="46.93002" lon="8.6907">
        <ele>1789</ele>
        <time>2021-08-07T07:02:13.605Z</time>
      </trkpt>
      <trkpt lat="46.93002" lon="8.6907">
        <ele>1789</ele>
        <time>2021-08-07T07:02:14.604Z</time>
      </trkpt>
      <trkpt lat="46.93002" lon="8.6907">
        <ele>1790</ele>
        <time>2021-08-07T07:02:15.605Z</time>
      </trkpt>
      <trkpt lat="46.93001" lon="8.69068">
        <ele>1790</ele>
        <time>2021-08-07T07:02:16.605Z</time>
      </trkpt>
      <trkpt lat="46.93" lon="8.69067">
        <ele>1790</ele>
        <time>2021-08-07T07:02:17.604Z</time>
      </trkpt>
      <trkpt lat="46.93" lon="8.69067">
        <ele>1790</ele>
        <time>2021-08-07T07:02:18.605Z</time>
      </trkpt>
      <trkpt lat="46.92999" lon="8.69067">
        <ele>1790</ele>
        <time>2021-08-07T07:02:19.604Z</time>
      </trkpt>
      <trkpt lat="46.92998" lon="8.69066">
        <ele>1790</ele>
        <time>2021-08-07T07:02:20.605Z</time>
      </trkpt>
      <trkpt lat="46.92997" lon="8.69065">
        <ele>1790</ele>
        <time>2021-08-07T07:02:21.605Z</time>
      </trkpt>
      <trkpt lat="46.92996" lon="8.69063">
        <ele>1790</ele>
        <time>2021-08-07T07:02:22.604Z</time>
      </trkpt>
      <trkpt lat="46.92994" lon="8.69062">
        <ele>1791</ele>
        <time>2021-08-07T07:02:23.605Z</time>
      </trkpt>
      <trkpt lat="46.92993" lon="8.69061">
        <ele>1791</ele>
        <time>2021-08-07T07:02:24.604Z</time>
      </trkpt>
      <trkpt lat="46.92992" lon="8.69061">
        <ele>1791</ele>
        <time>2021-08-07T07:02:25.604Z</time>
      </trkpt>
      <trkpt lat="46.92991" lon="8.69061">
        <ele>1792</ele>
        <time>2021-08-07T07:02:26.605Z</time>
      </trkpt>
      <trkpt lat="46.92991" lon="8.69061">
        <ele>1793</ele>
        <time>2021-08-07T07:02:27.605Z</time>
      </trkpt>
      <trkpt lat="46.92991" lon="8.69062">
        <ele>1793</ele>
        <time>2021-08-07T07:02:28.605Z</time>
      </trkpt>
      <trkpt lat="46.92991" lon="8.69063">
        <ele>1793</ele>
        <time>2021-08-07T07:02:29.605Z</time>
      </trkpt>
      <trkpt lat="46.92991" lon="8.69064">
        <ele>1793</ele>
        <time>2021-08-07T07:02:30.604Z</time>
      </trkpt>
      <trkpt lat="46.9299" lon="8.69064">
        <ele>1793</ele>
        <time>2021-08-07T07:02:31.604Z</time>
      </trkpt>
      <trkpt lat="46.9299" lon="8.69064">
        <ele>1793</ele>
        <time>2021-08-07T07:02:32.604Z</time>
      </trkpt>
      <trkpt lat="46.92989" lon="8.69064">
        <ele>1794</ele>
        <time>2021-08-07T07:02:33.604Z</time>
      </trkpt>
      <trkpt lat="46.92988" lon="8.69063">
        <ele>1794</ele>
        <time>2021-08-07T07:02:34.605Z</time>
      </trkpt>
      <trkpt lat="46.92987" lon="8.69063">
        <ele>1794</ele>
        <time>2021-08-07T07:02:35.604Z</time>
      </trkpt>
      <trkpt lat="46.92987" lon="8.69064">
        <ele>1794</ele>
        <time>2021-08-07T07:02:36.605Z</time>
      </trkpt>
      <trkpt lat="46.92986" lon="8.69064">
        <ele>1794</ele>
        <time>2021-08-07T07:02:37.605Z</time>
      </trkpt>
      <trkpt lat="46.92985" lon="8.69063">
        <ele>1794</ele>
        <time>2021-08-07T07:02:38.605Z</time>
      </trkpt>
      <trkpt lat="46.92984" lon="8.69064">
        <ele>1794</ele>
        <time>2021-08-07T07:02:39.605Z</time>
      </trkpt>
      <trkpt lat="46.92983" lon="8.69064">
        <ele>1794</ele>
        <time>2021-08-07T07:02:40.605Z</time>
      </trkpt>
      <trkpt lat="46.92983" lon="8.69065">
        <ele>1794</ele>
        <time>2021-08-07T07:02:41.604Z</time>
      </trkpt>
      <trkpt lat="46.92982" lon="8.69064">
        <ele>1793</ele>
        <time>2021-08-07T07:02:42.605Z</time>
      </trkpt>
      <trkpt lat="46.92981" lon="8.69064">
        <ele>1793</ele>
        <time>2021-08-07T07:02:43.604Z</time>
      </trkpt>
      <trkpt lat="46.9298" lon="8.69063">
        <ele>1792</ele>
        <time>2021-08-07T07:02:44.605Z</time>
      </trkpt>
      <trkpt lat="46.92979" lon="8.69063">
        <ele>1792</ele>
        <time>2021-08-07T07:02:45.604Z</time>
      </trkpt>
      <trkpt lat="46.92978" lon="8.69062">
        <ele>1792</ele>
        <time>2021-08-07T07:02:46.605Z</time>
      </trkpt>
      <trkpt lat="46.92977" lon="8.69062">
        <ele>1792</ele>
        <time>2021-08-07T07:02:47.604Z</time>
      </trkpt>
      <trkpt lat="46.92977" lon="8.69061">
        <ele>1792</ele>
        <time>2021-08-07T07:02:48.604Z</time>
      </trkpt>
      <trkpt lat="46.92976" lon="8.69061">
        <ele>1792</ele>
        <time>2021-08-07T07:02:49.604Z</time>
      </trkpt>
      <trkpt lat="46.92975" lon="8.6906">
        <ele>1793</ele>
        <time>2021-08-07T07:02:50.605Z</time>
      </trkpt>
      <trkpt lat="46.92974" lon="8.69059">
        <ele>1794</ele>
        <time>2021-08-07T07:02:51.605Z</time>
      </trkpt>
      <trkpt lat="46.92973" lon="8.69057">
        <ele>1794</ele>
        <time>2021-08-07T07:02:52.605Z</time>
      </trkpt>
      <trkpt lat="46.92972" lon="8.69056">
        <ele>1795</ele>
        <time>2021-08-07T07:02:53.604Z</time>
      </trkpt>
      <trkpt lat="46.92971" lon="8.69056">
        <ele>1796</ele>
        <time>2021-08-07T07:02:54.605Z</time>
      </trkpt>
      <trkpt lat="46.92971" lon="8.69056">
        <ele>1796</ele>
        <time>2021-08-07T07:02:55.604Z</time>
      </trkpt>
      <trkpt lat="46.9297" lon="8.69055">
        <ele>1797</ele>
        <time>2021-08-07T07:02:56.605Z</time>
      </trkpt>
      <trkpt lat="46.9297" lon="8.69054">
        <ele>1797</ele>
        <time>2021-08-07T07:02:57.605Z</time>
      </trkpt>
      <trkpt lat="46.9297" lon="8.69055">
        <ele>1797</ele>
        <time>2021-08-07T07:02:58.605Z</time>
      </trkpt>
      <trkpt lat="46.9297" lon="8.69055">
        <ele>1798</ele>
        <time>2021-08-07T07:02:59.605Z</time>
      </trkpt>
      <trkpt lat="46.92968" lon="8.69052">
        <ele>1798</ele>
        <time>2021-08-07T07:03:00.605Z</time>
      </trkpt>
      <trkpt lat="46.92966" lon="8.69051">
        <ele>1799</ele>
        <time>2021-08-07T07:03:01.604Z</time>
      </trkpt>
      <trkpt lat="46.92966" lon="8.6905">
        <ele>1799</ele>
        <time>2021-08-07T07:03:02.605Z</time>
      </trkpt>
      <trkpt lat="46.92965" lon="8.69045">
        <ele>1800</ele>
        <time>2021-08-07T07:03:03.605Z</time>
      </trkpt>
      <trkpt lat="46.92964" lon="8.69043">
        <ele>1801</ele>
        <time>2021-08-07T07:03:04.605Z</time>
      </trkpt>
      <trkpt lat="46.92963" lon="8.69042">
        <ele>1802</ele>
        <time>2021-08-07T07:03:05.605Z</time>
      </trkpt>
      <trkpt lat="46.92963" lon="8.69042">
        <ele>1803</ele>
        <time>2021-08-07T07:03:06.604Z</time>
      </trkpt>
      <trkpt lat="46.92963" lon="8.69042">
        <ele>1804</ele>
        <time>2021-08-07T07:03:07.605Z</time>
      </trkpt>
      <trkpt lat="46.92963" lon="8.69043">
        <ele>1806</ele>
        <time>2021-08-07T07:03:08.605Z</time>
      </trkpt>
      <trkpt lat="46.92963" lon="8.69044">
        <ele>1806</ele>
        <time>2021-08-07T07:03:09.605Z</time>
      </trkpt>
      <trkpt lat="46.92963" lon="8.69045">
        <ele>1807</ele>
        <time>2021-08-07T07:03:10.604Z</time>
      </trkpt>
      <trkpt lat="46.92962" lon="8.69045">
        <ele>1807</ele>
        <time>2021-08-07T07:03:11.604Z</time>
      </trkpt>
      <trkpt lat="46.92962" lon="8.69045">
        <ele>1807</ele>
        <time>2021-08-07T07:03:12.605Z</time>
      </trkpt>
      <trkpt lat="46.92961" lon="8.69045">
        <ele>1808</ele>
        <time>2021-08-07T07:03:13.604Z</time>
      </trkpt>
      <trkpt lat="46.92961" lon="8.69046">
        <ele>1808</ele>
        <time>2021-08-07T07:03:14.605Z</time>
      </trkpt>
      <trkpt lat="46.92961" lon="8.69047">
        <ele>1808</ele>
        <time>2021-08-07T07:03:15.605Z</time>
      </trkpt>
      <trkpt lat="46.92961" lon="8.69048">
        <ele>1808</ele>
        <time>2021-08-07T07:03:16.605Z</time>
      </trkpt>
      <trkpt lat="46.92961" lon="8.69049">
        <ele>1809</ele>
        <time>2021-08-07T07:03:17.605Z</time>
      </trkpt>
      <trkpt lat="46.9296" lon="8.69049">
        <ele>1809</ele>
        <time>2021-08-07T07:03:18.605Z</time>
      </trkpt>
      <trkpt lat="46.92959" lon="8.69049">
        <ele>1809</ele>
        <time>2021-08-07T07:03:19.605Z</time>
      </trkpt>
      <trkpt lat="46.92959" lon="8.69048">
        <ele>1810</ele>
        <time>2021-08-07T07:03:20.605Z</time>
      </trkpt>
      <trkpt lat="46.92958" lon="8.69048">
        <ele>1810</ele>
        <time>2021-08-07T07:03:21.605Z</time>
      </trkpt>
      <trkpt lat="46.92958" lon="8.69049">
        <ele>1811</ele>
        <time>2021-08-07T07:03:22.604Z</time>
      </trkpt>
      <trkpt lat="46.92958" lon="8.69051">
        <ele>1811</ele>
        <time>2021-08-07T07:03:23.605Z</time>
      </trkpt>
      <trkpt lat="46.92957" lon="8.69051">
        <ele>1811</ele>
        <time>2021-08-07T07:03:24.604Z</time>
      </trkpt>
      <trkpt lat="46.92956" lon="8.69052">
        <ele>1812</ele>
        <time>2021-08-07T07:03:25.605Z</time>
      </trkpt>
      <trkpt lat="46.92956" lon="8.69054">
        <ele>1811</ele>
        <time>2021-08-07T07:03:26.605Z</time>
      </trkpt>
      <trkpt lat="46.92955" lon="8.69055">
        <ele>1811</ele>
        <time>2021-08-07T07:03:27.604Z</time>
      </trkpt>
      <trkpt lat="46.92956" lon="8.69056">
        <ele>1811</ele>
        <time>2021-08-07T07:03:28.605Z</time>
      </trkpt>
      <trkpt lat="46.92955" lon="8.69056">
        <ele>1811</ele>
        <time>2021-08-07T07:03:29.605Z</time>
      </trkpt>
      <trkpt lat="46.92955" lon="8.69057">
        <ele>1811</ele>
        <time>2021-08-07T07:03:30.604Z</time>
      </trkpt>
      <trkpt lat="46.92955" lon="8.69058">
        <ele>1811</ele>
        <time>2021-08-07T07:03:31.605Z</time>
      </trkpt>
      <trkpt lat="46.92955" lon="8.69059">
        <ele>1811</ele>
        <time>2021-08-07T07:03:32.605Z</time>
      </trkpt>
      <trkpt lat="46.92955" lon="8.69059">
        <ele>1811</ele>
        <time>2021-08-07T07:03:33.605Z</time>
      </trkpt>
      <trkpt lat="46.92955" lon="8.6906">
        <ele>1810</ele>
        <time>2021-08-07T07:03:34.605Z</time>
      </trkpt>
      <trkpt lat="46.92955" lon="8.69061">
        <ele>1810</ele>
        <time>2021-08-07T07:03:35.605Z</time>
      </trkpt>
      <trkpt lat="46.92954" lon="8.69061">
        <ele>1809</ele>
        <time>2021-08-07T07:03:36.605Z</time>
      </trkpt>
      <trkpt lat="46.92953" lon="8.69061">
        <ele>1808</ele>
        <time>2021-08-07T07:03:37.604Z</time>
      </trkpt>
      <trkpt lat="46.92953" lon="8.69062">
        <ele>1808</ele>
        <time>2021-08-07T07:03:38.604Z</time>
      </trkpt>
      <trkpt lat="46.92952" lon="8.69063">
        <ele>1807</ele>
        <time>2021-08-07T07:03:39.604Z</time>
      </trkpt>
      <trkpt lat="46.92952" lon="8.69063">
        <ele>1806</ele>
        <time>2021-08-07T07:03:40.605Z</time>
      </trkpt>
      <trkpt lat="46.92951" lon="8.69063">
        <ele>1806</ele>
        <time>2021-08-07T07:03:41.605Z</time>
      </trkpt>
      <trkpt lat="46.9295" lon="8.69063">
        <ele>1805</ele>
        <time>2021-08-07T07:03:42.605Z</time>
      </trkpt>
      <trkpt lat="46.9295" lon="8.69063">
        <ele>1805</ele>
        <time>2021-08-07T07:03:43.605Z</time>
      </trkpt>
      <trkpt lat="46.92949" lon="8.69064">
        <ele>1804</ele>
        <time>2021-08-07T07:03:44.605Z</time>
      </trkpt>
      <trkpt lat="46.92948" lon="8.69063">
        <ele>1804</ele>
        <time>2021-08-07T07:03:45.605Z</time>
      </trkpt>
      <trkpt lat="46.92948" lon="8.69063">
        <ele>1803</ele>
        <time>2021-08-07T07:03:46.605Z</time>
      </trkpt>
      <trkpt lat="46.92947" lon="8.69065">
        <ele>1803</ele>
        <time>2021-08-07T07:03:47.604Z</time>
      </trkpt>
      <trkpt lat="46.92946" lon="8.69066">
        <ele>1803</ele>
        <time>2021-08-07T07:03:48.605Z</time>
      </trkpt>
      <trkpt lat="46.92946" lon="8.69066">
        <ele>1802</ele>
        <time>2021-08-07T07:03:49.605Z</time>
      </trkpt>
      <trkpt lat="46.92946" lon="8.69066">
        <ele>1802</ele>
        <time>2021-08-07T07:03:50.605Z</time>
      </trkpt>
      <trkpt lat="46.92949" lon="8.69065">
        <ele>1802</ele>
        <time>2021-08-07T07:03:51.605Z</time>
      </trkpt>
      <trkpt lat="46.92949" lon="8.69065">
        <ele>1803</ele>
        <time>2021-08-07T07:03:52.605Z</time>
      </trkpt>
      <trkpt lat="46.92949" lon="8.69063">
        <ele>1803</ele>
        <time>2021-08-07T07:03:53.605Z</time>
      </trkpt>
      <trkpt lat="46.92948" lon="8.69061">
        <ele>1803</ele>
        <time>2021-08-07T07:03:54.605Z</time>
      </trkpt>
      <trkpt lat="46.92946" lon="8.6906">
        <ele>1804</ele>
        <time>2021-08-07T07:03:55.605Z</time>
      </trkpt>
      <trkpt lat="46.92945" lon="8.6906">
        <ele>1805</ele>
        <time>2021-08-07T07:03:56.605Z</time>
      </trkpt>
      <trkpt lat="46.92944" lon="8.69059">
        <ele>1805</ele>
        <time>2021-08-07T07:03:57.604Z</time>
      </trkpt>
      <trkpt lat="46.92943" lon="8.69059">
        <ele>1806</ele>
        <time>2021-08-07T07:03:58.605Z</time>
      </trkpt>
      <trkpt lat="46.92942" lon="8.6906">
        <ele>1806</ele>
        <time>2021-08-07T07:03:59.604Z</time>
      </trkpt>
      <trkpt lat="46.92941" lon="8.6906">
        <ele>1807</ele>
        <time>2021-08-07T07:04:00.605Z</time>
      </trkpt>
      <trkpt lat="46.9294" lon="8.69061">
        <ele>1807</ele>
        <time>2021-08-07T07:04:01.604Z</time>
      </trkpt>
      <trkpt lat="46.9294" lon="8.69061">
        <ele>1808</ele>
        <time>2021-08-07T07:04:02.605Z</time>
      </trkpt>
      <trkpt lat="46.92939" lon="8.69062">
        <ele>1808</ele>
        <time>2021-08-07T07:04:03.604Z</time>
      </trkpt>
      <trkpt lat="46.92938" lon="8.69062">
        <ele>1808</ele>
        <time>2021-08-07T07:04:04.604Z</time>
      </trkpt>
      <trkpt lat="46.92937" lon="8.69062">
        <ele>1808</ele>
        <time>2021-08-07T07:04:05.605Z</time>
      </trkpt>
      <trkpt lat="46.92937" lon="8.69062">
        <ele>1808</ele>
        <time>2021-08-07T07:04:06.605Z</time>
      </trkpt>
      <trkpt lat="46.92936" lon="8.69063">
        <ele>1807</ele>
        <time>2021-08-07T07:04:07.605Z</time>
      </trkpt>
      <trkpt lat="46.92936" lon="8.69063">
        <ele>1807</ele>
        <time>2021-08-07T07:04:08.605Z</time>
      </trkpt>
      <trkpt lat="46.92935" lon="8.69064">
        <ele>1806</ele>
        <time>2021-08-07T07:04:09.604Z</time>
      </trkpt>
      <trkpt lat="46.92933" lon="8.69065">
        <ele>1806</ele>
        <time>2021-08-07T07:04:10.605Z</time>
      </trkpt>
      <trkpt lat="46.92933" lon="8.69065">
        <ele>1805</ele>
        <time>2021-08-07T07:04:11.605Z</time>
      </trkpt>
      <trkpt lat="46.92933" lon="8.69065">
        <ele>1805</ele>
        <time>2021-08-07T07:04:12.604Z</time>
      </trkpt>
      <trkpt lat="46.92933" lon="8.69066">
        <ele>1804</ele>
        <time>2021-08-07T07:04:13.604Z</time>
      </trkpt>
      <trkpt lat="46.92933" lon="8.69068">
        <ele>1804</ele>
        <time>2021-08-07T07:04:14.605Z</time>
      </trkpt>
      <trkpt lat="46.92933" lon="8.69069">
        <ele>1804</ele>
        <time>2021-08-07T07:04:15.605Z</time>
      </trkpt>
      <trkpt lat="46.92933" lon="8.69069">
        <ele>1804</ele>
        <time>2021-08-07T07:04:16.605Z</time>
      </trkpt>
      <trkpt lat="46.92932" lon="8.69069">
        <ele>1804</ele>
        <time>2021-08-07T07:04:17.605Z</time>
      </trkpt>
      <trkpt lat="46.92931" lon="8.69069">
        <ele>1804</ele>
        <time>2021-08-07T07:04:18.605Z</time>
      </trkpt>
      <trkpt lat="46.9293" lon="8.69068">
        <ele>1804</ele>
        <time>2021-08-07T07:04:19.605Z</time>
      </trkpt>
      <trkpt lat="46.9293" lon="8.69068">
        <ele>1804</ele>
        <time>2021-08-07T07:04:20.604Z</time>
      </trkpt>
      <trkpt lat="46.9293" lon="8.69068">
        <ele>1805</ele>
        <time>2021-08-07T07:04:21.605Z</time>
      </trkpt>
      <trkpt lat="46.92929" lon="8.69069">
        <ele>1805</ele>
        <time>2021-08-07T07:04:22.605Z</time>
      </trkpt>
      <trkpt lat="46.92928" lon="8.69069">
        <ele>1805</ele>
        <time>2021-08-07T07:04:23.605Z</time>
      </trkpt>
      <trkpt lat="46.92927" lon="8.69069">
        <ele>1805</ele>
        <time>2021-08-07T07:04:24.605Z</time>
      </trkpt>
      <trkpt lat="46.92926" lon="8.69069">
        <ele>1806</ele>
        <time>2021-08-07T07:04:25.604Z</time>
      </trkpt>
      <trkpt lat="46.92925" lon="8.6907">
        <ele>1806</ele>
        <time>2021-08-07T07:04:26.605Z</time>
      </trkpt>
      <trkpt lat="46.92924" lon="8.6907">
        <ele>1806</ele>
        <time>2021-08-07T07:04:27.605Z</time>
      </trkpt>
      <trkpt lat="46.92923" lon="8.6907">
        <ele>1806</ele>
        <time>2021-08-07T07:04:28.604Z</time>
      </trkpt>
      <trkpt lat="46.92921" lon="8.6907">
        <ele>1807</ele>
        <time>2021-08-07T07:04:29.605Z</time>
      </trkpt>
      <trkpt lat="46.9292" lon="8.6907">
        <ele>1807</ele>
        <time>2021-08-07T07:04:30.605Z</time>
      </trkpt>
      <trkpt lat="46.92919" lon="8.6907">
        <ele>1807</ele>
        <time>2021-08-07T07:04:31.605Z</time>
      </trkpt>
      <trkpt lat="46.92917" lon="8.69069">
        <ele>1807</ele>
        <time>2021-08-07T07:04:32.605Z</time>
      </trkpt>
      <trkpt lat="46.92916" lon="8.69069">
        <ele>1807</ele>
        <time>2021-08-07T07:04:33.605Z</time>
      </trkpt>
      <trkpt lat="46.92916" lon="8.6907">
        <ele>1808</ele>
        <time>2021-08-07T07:04:34.605Z</time>
      </trkpt>
      <trkpt lat="46.92915" lon="8.69071">
        <ele>1808</ele>
        <time>2021-08-07T07:04:35.605Z</time>
      </trkpt>
      <trkpt lat="46.92914" lon="8.69071">
        <ele>1808</ele>
        <time>2021-08-07T07:04:36.605Z</time>
      </trkpt>
      <trkpt lat="46.92913" lon="8.69072">
        <ele>1808</ele>
        <time>2021-08-07T07:04:37.605Z</time>
      </trkpt>
      <trkpt lat="46.92913" lon="8.69073">
        <ele>1808</ele>
        <time>2021-08-07T07:04:38.605Z</time>
      </trkpt>
      <trkpt lat="46.92913" lon="8.69073">
        <ele>1808</ele>
        <time>2021-08-07T07:04:39.605Z</time>
      </trkpt>
      <trkpt lat="46.92912" lon="8.69074">
        <ele>1808</ele>
        <time>2021-08-07T07:04:40.605Z</time>
      </trkpt>
      <trkpt lat="46.92912" lon="8.69074">
        <ele>1808</ele>
        <time>2021-08-07T07:04:41.605Z</time>
      </trkpt>
      <trkpt lat="46.92911" lon="8.69074">
        <ele>1808</ele>
        <time>2021-08-07T07:04:42.605Z</time>
      </trkpt>
      <trkpt lat="46.9291" lon="8.69074">
        <ele>1808</ele>
        <time>2021-08-07T07:04:43.605Z</time>
      </trkpt>
      <trkpt lat="46.9291" lon="8.69075">
        <ele>1808</ele>
        <time>2021-08-07T07:04:44.605Z</time>
      </trkpt>
      <trkpt lat="46.92909" lon="8.69075">
        <ele>1807</ele>
        <time>2021-08-07T07:04:45.605Z</time>
      </trkpt>
      <trkpt lat="46.92908" lon="8.69076">
        <ele>1807</ele>
        <time>2021-08-07T07:04:46.604Z</time>
      </trkpt>
      <trkpt lat="46.92907" lon="8.69076">
        <ele>1806</ele>
        <time>2021-08-07T07:04:47.605Z</time>
      </trkpt>
      <trkpt lat="46.92906" lon="8.69076">
        <ele>1806</ele>
        <time>2021-08-07T07:04:48.604Z</time>
      </trkpt>
      <trkpt lat="46.92905" lon="8.69075">
        <ele>1806</ele>
        <time>2021-08-07T07:04:49.605Z</time>
      </trkpt>
      <trkpt lat="46.92905" lon="8.69077">
        <ele>1806</ele>
        <time>2021-08-07T07:04:50.605Z</time>
      </trkpt>
      <trkpt lat="46.92904" lon="8.69077">
        <ele>1805</ele>
        <time>2021-08-07T07:04:51.604Z</time>
      </trkpt>
      <trkpt lat="46.92904" lon="8.69077">
        <ele>1805</ele>
        <time>2021-08-07T07:04:52.604Z</time>
      </trkpt>
      <trkpt lat="46.92902" lon="8.69076">
        <ele>1804</ele>
        <time>2021-08-07T07:04:53.605Z</time>
      </trkpt>
      <trkpt lat="46.92901" lon="8.69076">
        <ele>1805</ele>
        <time>2021-08-07T07:04:54.604Z</time>
      </trkpt>
      <trkpt lat="46.929" lon="8.69076">
        <ele>1805</ele>
        <time>2021-08-07T07:04:55.605Z</time>
      </trkpt>
      <trkpt lat="46.92899" lon="8.69076">
        <ele>1805</ele>
        <time>2021-08-07T07:04:56.605Z</time>
      </trkpt>
      <trkpt lat="46.92898" lon="8.69076">
        <ele>1806</ele>
        <time>2021-08-07T07:04:57.605Z</time>
      </trkpt>
      <trkpt lat="46.92898" lon="8.69077">
        <ele>1806</ele>
        <time>2021-08-07T07:04:58.605Z</time>
      </trkpt>
      <trkpt lat="46.92897" lon="8.69078">
        <ele>1806</ele>
        <time>2021-08-07T07:04:59.604Z</time>
      </trkpt>
      <trkpt lat="46.92897" lon="8.69078">
        <ele>1807</ele>
        <time>2021-08-07T07:05:00.605Z</time>
      </trkpt>
      <trkpt lat="46.92896" lon="8.6908">
        <ele>1807</ele>
        <time>2021-08-07T07:05:01.605Z</time>
      </trkpt>
      <trkpt lat="46.92896" lon="8.6908">
        <ele>1807</ele>
        <time>2021-08-07T07:05:02.604Z</time>
      </trkpt>
      <trkpt lat="46.92895" lon="8.6908">
        <ele>1807</ele>
        <time>2021-08-07T07:05:03.604Z</time>
      </trkpt>
      <trkpt lat="46.92894" lon="8.6908">
        <ele>1807</ele>
        <time>2021-08-07T07:05:04.604Z</time>
      </trkpt>
      <trkpt lat="46.92893" lon="8.6908">
        <ele>1807</ele>
        <time>2021-08-07T07:05:05.604Z</time>
      </trkpt>
      <trkpt lat="46.92892" lon="8.6908">
        <ele>1807</ele>
        <time>2021-08-07T07:05:06.605Z</time>
      </trkpt>
      <trkpt lat="46.92892" lon="8.69079">
        <ele>1808</ele>
        <time>2021-08-07T07:05:07.604Z</time>
      </trkpt>
      <trkpt lat="46.92892" lon="8.69079">
        <ele>1808</ele>
        <time>2021-08-07T07:05:08.605Z</time>
      </trkpt>
      <trkpt lat="46.92891" lon="8.69079">
        <ele>1808</ele>
        <time>2021-08-07T07:05:09.605Z</time>
      </trkpt>
      <trkpt lat="46.9289" lon="8.69079">
        <ele>1809</ele>
        <time>2021-08-07T07:05:10.605Z</time>
      </trkpt>
      <trkpt lat="46.9289" lon="8.69079">
        <ele>1809</ele>
        <time>2021-08-07T07:05:11.605Z</time>
      </trkpt>
      <trkpt lat="46.92889" lon="8.69078">
        <ele>1809</ele>
        <time>2021-08-07T07:05:12.604Z</time>
      </trkpt>
      <trkpt lat="46.92889" lon="8.69078">
        <ele>1809</ele>
        <time>2021-08-07T07:05:13.605Z</time>
      </trkpt>
      <trkpt lat="46.92888" lon="8.69078">
        <ele>1809</ele>
        <time>2021-08-07T07:05:14.605Z</time>
      </trkpt>
      <trkpt lat="46.92887" lon="8.69078">
        <ele>1808</ele>
        <time>2021-08-07T07:05:15.605Z</time>
      </trkpt>
      <trkpt lat="46.92886" lon="8.69078">
        <ele>1808</ele>
        <time>2021-08-07T07:05:16.605Z</time>
      </trkpt>
      <trkpt lat="46.92885" lon="8.69078">
        <ele>1808</ele>
        <time>2021-08-07T07:05:17.605Z</time>
      </trkpt>
      <trkpt lat="46.92885" lon="8.69079">
        <ele>1807</ele>
        <time>2021-08-07T07:05:18.605Z</time>
      </trkpt>
      <trkpt lat="46.92885" lon="8.69079">
        <ele>1807</ele>
        <time>2021-08-07T07:05:19.605Z</time>
      </trkpt>
      <trkpt lat="46.92885" lon="8.6908">
        <ele>1807</ele>
        <time>2021-08-07T07:05:20.605Z</time>
      </trkpt>
      <trkpt lat="46.92885" lon="8.6908">
        <ele>1806</ele>
        <time>2021-08-07T07:05:21.605Z</time>
      </trkpt>
      <trkpt lat="46.92885" lon="8.6908">
        <ele>1806</ele>
        <time>2021-08-07T07:05:22.605Z</time>
      </trkpt>
      <trkpt lat="46.92885" lon="8.6908">
        <ele>1805</ele>
        <time>2021-08-07T07:05:23.605Z</time>
      </trkpt>
      <trkpt lat="46.92884" lon="8.6908">
        <ele>1804</ele>
        <time>2021-08-07T07:05:24.604Z</time>
      </trkpt>
      <trkpt lat="46.92884" lon="8.6908">
        <ele>1804</ele>
        <time>2021-08-07T07:05:25.604Z</time>
      </trkpt>
      <trkpt lat="46.92883" lon="8.6908">
        <ele>1804</ele>
        <time>2021-08-07T07:05:26.605Z</time>
      </trkpt>
      <trkpt lat="46.92883" lon="8.6908">
        <ele>1803</ele>
        <time>2021-08-07T07:05:27.604Z</time>
      </trkpt>
      <trkpt lat="46.92883" lon="8.6908">
        <ele>1803</ele>
        <time>2021-08-07T07:05:28.604Z</time>
      </trkpt>
      <trkpt lat="46.92883" lon="8.6908">
        <ele>1803</ele>
        <time>2021-08-07T07:05:29.604Z</time>
      </trkpt>
      <trkpt lat="46.92882" lon="8.69079">
        <ele>1803</ele>
        <time>2021-08-07T07:05:30.604Z</time>
      </trkpt>
      <trkpt lat="46.92882" lon="8.69079">
        <ele>1802</ele>
        <time>2021-08-07T07:05:31.604Z</time>
      </trkpt>
      <trkpt lat="46.92882" lon="8.69078">
        <ele>1802</ele>
        <time>2021-08-07T07:05:32.604Z</time>
      </trkpt>
      <trkpt lat="46.92881" lon="8.69078">
        <ele>1803</ele>
        <time>2021-08-07T07:05:33.604Z</time>
      </trkpt>
      <trkpt lat="46.9288" lon="8.69077">
        <ele>1803</ele>
        <time>2021-08-07T07:05:34.604Z</time>
      </trkpt>
      <trkpt lat="46.9288" lon="8.69077">
        <ele>1804</ele>
        <time>2021-08-07T07:05:35.604Z</time>
      </trkpt>
      <trkpt lat="46.9288" lon="8.69077">
        <ele>1804</ele>
        <time>2021-08-07T07:05:36.604Z</time>
      </trkpt>
      <trkpt lat="46.92879" lon="8.69077">
        <ele>1804</ele>
        <time>2021-08-07T07:05:37.604Z</time>
      </trkpt>
      <trkpt lat="46.92879" lon="8.69077">
        <ele>1804</ele>
        <time>2021-08-07T07:05:38.604Z</time>
      </trkpt>
      <trkpt lat="46.92879" lon="8.69076">
        <ele>1804</ele>
        <time>2021-08-07T07:05:39.604Z</time>
      </trkpt>
      <trkpt lat="46.92879" lon="8.69076">
        <ele>1804</ele>
        <time>2021-08-07T07:05:40.605Z</time>
      </trkpt>
      <trkpt lat="46.92878" lon="8.69076">
        <ele>1804</ele>
        <time>2021-08-07T07:05:41.604Z</time>
      </trkpt>
      <trkpt lat="46.92877" lon="8.69076">
        <ele>1804</ele>
        <time>2021-08-07T07:05:42.604Z</time>
      </trkpt>
      <trkpt lat="46.92877" lon="8.69076">
        <ele>1804</ele>
        <time>2021-08-07T07:05:43.604Z</time>
      </trkpt>
      <trkpt lat="46.92876" lon="8.69077">
        <ele>1804</ele>
        <time>2021-08-07T07:05:44.604Z</time>
      </trkpt>
      <trkpt lat="46.92876" lon="8.69078">
        <ele>1805</ele>
        <time>2021-08-07T07:05:45.605Z</time>
      </trkpt>
      <trkpt lat="46.92875" lon="8.69078">
        <ele>1805</ele>
        <time>2021-08-07T07:05:46.605Z</time>
      </trkpt>
      <trkpt lat="46.92874" lon="8.69079">
        <ele>1804</ele>
        <time>2021-08-07T07:05:47.605Z</time>
      </trkpt>
      <trkpt lat="46.92873" lon="8.69079">
        <ele>1805</ele>
        <time>2021-08-07T07:05:48.604Z</time>
      </trkpt>
      <trkpt lat="46.92873" lon="8.6908">
        <ele>1804</ele>
        <time>2021-08-07T07:05:49.605Z</time>
      </trkpt>
      <trkpt lat="46.92872" lon="8.69081">
        <ele>1804</ele>
        <time>2021-08-07T07:05:50.605Z</time>
      </trkpt>
      <trkpt lat="46.92872" lon="8.69081">
        <ele>1804</ele>
        <time>2021-08-07T07:05:51.605Z</time>
      </trkpt>
      <trkpt lat="46.92871" lon="8.69082">
        <ele>1804</ele>
        <time>2021-08-07T07:05:52.605Z</time>
      </trkpt>
      <trkpt lat="46.9287" lon="8.69082">
        <ele>1804</ele>
        <time>2021-08-07T07:05:53.605Z</time>
      </trkpt>
      <trkpt lat="46.92869" lon="8.69082">
        <ele>1804</ele>
        <time>2021-08-07T07:05:54.604Z</time>
      </trkpt>
      <trkpt lat="46.92868" lon="8.69082">
        <ele>1804</ele>
        <time>2021-08-07T07:05:55.605Z</time>
      </trkpt>
      <trkpt lat="46.92867" lon="8.69082">
        <ele>1804</ele>
        <time>2021-08-07T07:05:56.605Z</time>
      </trkpt>
      <trkpt lat="46.92867" lon="8.69082">
        <ele>1804</ele>
        <time>2021-08-07T07:05:57.605Z</time>
      </trkpt>
      <trkpt lat="46.92866" lon="8.69082">
        <ele>1804</ele>
        <time>2021-08-07T07:05:58.605Z</time>
      </trkpt>
      <trkpt lat="46.92866" lon="8.69083">
        <ele>1805</ele>
        <time>2021-08-07T07:05:59.604Z</time>
      </trkpt>
      <trkpt lat="46.92866" lon="8.69083">
        <ele>1805</ele>
        <time>2021-08-07T07:06:00.605Z</time>
      </trkpt>
      <trkpt lat="46.92868" lon="8.69083">
        <ele>1805</ele>
        <time>2021-08-07T07:06:01.606Z</time>
      </trkpt>
      <trkpt lat="46.92868" lon="8.69084">
        <ele>1805</ele>
        <time>2021-08-07T07:06:02.605Z</time>
      </trkpt>
      <trkpt lat="46.92868" lon="8.69084">
        <ele>1805</ele>
        <time>2021-08-07T07:06:03.605Z</time>
      </trkpt>
      <trkpt lat="46.92867" lon="8.69084">
        <ele>1805</ele>
        <time>2021-08-07T07:06:04.605Z</time>
      </trkpt>
      <trkpt lat="46.92866" lon="8.69083">
        <ele>1806</ele>
        <time>2021-08-07T07:06:05.605Z</time>
      </trkpt>
      <trkpt lat="46.92865" lon="8.69083">
        <ele>1806</ele>
        <time>2021-08-07T07:06:06.606Z</time>
      </trkpt>
      <trkpt lat="46.92865" lon="8.69084">
        <ele>1807</ele>
        <time>2021-08-07T07:06:07.605Z</time>
      </trkpt>
      <trkpt lat="46.92864" lon="8.69085">
        <ele>1807</ele>
        <time>2021-08-07T07:06:08.606Z</time>
      </trkpt>
      <trkpt lat="46.92863" lon="8.69085">
        <ele>1807</ele>
        <time>2021-08-07T07:06:09.605Z</time>
      </trkpt>
      <trkpt lat="46.92862" lon="8.69085">
        <ele>1807</ele>
        <time>2021-08-07T07:06:10.605Z</time>
      </trkpt>
      <trkpt lat="46.92862" lon="8.69086">
        <ele>1807</ele>
        <time>2021-08-07T07:06:11.606Z</time>
      </trkpt>
      <trkpt lat="46.92861" lon="8.69086">
        <ele>1808</ele>
        <time>2021-08-07T07:06:12.605Z</time>
      </trkpt>
      <trkpt lat="46.9286" lon="8.69087">
        <ele>1808</ele>
        <time>2021-08-07T07:06:13.606Z</time>
      </trkpt>
      <trkpt lat="46.9286" lon="8.69088">
        <ele>1808</ele>
        <time>2021-08-07T07:06:14.606Z</time>
      </trkpt>
      <trkpt lat="46.9286" lon="8.69088">
        <ele>1809</ele>
        <time>2021-08-07T07:06:15.606Z</time>
      </trkpt>
      <trkpt lat="46.92861" lon="8.69088">
        <ele>1809</ele>
        <time>2021-08-07T07:06:16.605Z</time>
      </trkpt>
      <trkpt lat="46.92861" lon="8.69088">
        <ele>1809</ele>
        <time>2021-08-07T07:06:17.605Z</time>
      </trkpt>
      <trkpt lat="46.92861" lon="8.69088">
        <ele>1809</ele>
        <time>2021-08-07T07:06:18.605Z</time>
      </trkpt>
      <trkpt lat="46.9286" lon="8.69089">
        <ele>1809</ele>
        <time>2021-08-07T07:06:19.606Z</time>
      </trkpt>
      <trkpt lat="46.92859" lon="8.6909">
        <ele>1809</ele>
        <time>2021-08-07T07:06:20.606Z</time>
      </trkpt>
      <trkpt lat="46.92859" lon="8.69091">
        <ele>1809</ele>
        <time>2021-08-07T07:06:21.606Z</time>
      </trkpt>
      <trkpt lat="46.92859" lon="8.69092">
        <ele>1810</ele>
        <time>2021-08-07T07:06:22.605Z</time>
      </trkpt>
      <trkpt lat="46.92858" lon="8.69092">
        <ele>1810</ele>
        <time>2021-08-07T07:06:23.606Z</time>
      </trkpt>
      <trkpt lat="46.92859" lon="8.69094">
        <ele>1810</ele>
        <time>2021-08-07T07:06:24.605Z</time>
      </trkpt>
      <trkpt lat="46.92858" lon="8.69095">
        <ele>1810</ele>
        <time>2021-08-07T07:06:25.606Z</time>
      </trkpt>
      <trkpt lat="46.92858" lon="8.69096">
        <ele>1810</ele>
        <time>2021-08-07T07:06:26.606Z</time>
      </trkpt>
      <trkpt lat="46.92858" lon="8.69098">
        <ele>1810</ele>
        <time>2021-08-07T07:06:27.606Z</time>
      </trkpt>
      <trkpt lat="46.92857" lon="8.69098">
        <ele>1810</ele>
        <time>2021-08-07T07:06:28.606Z</time>
      </trkpt>
      <trkpt lat="46.92856" lon="8.69099">
        <ele>1810</ele>
        <time>2021-08-07T07:06:29.606Z</time>
      </trkpt>
      <trkpt lat="46.92855" lon="8.691">
        <ele>1810</ele>
        <time>2021-08-07T07:06:30.605Z</time>
      </trkpt>
      <trkpt lat="46.92854" lon="8.69101">
        <ele>1810</ele>
        <time>2021-08-07T07:06:31.606Z</time>
      </trkpt>
      <trkpt lat="46.92853" lon="8.69102">
        <ele>1810</ele>
        <time>2021-08-07T07:06:32.606Z</time>
      </trkpt>
      <trkpt lat="46.92852" lon="8.69103">
        <ele>1810</ele>
        <time>2021-08-07T07:06:33.606Z</time>
      </trkpt>
      <trkpt lat="46.92851" lon="8.69103">
        <ele>1810</ele>
        <time>2021-08-07T07:06:34.606Z</time>
      </trkpt>
      <trkpt lat="46.9285" lon="8.69104">
        <ele>1810</ele>
        <time>2021-08-07T07:06:35.605Z</time>
      </trkpt>
      <trkpt lat="46.92849" lon="8.69105">
        <ele>1810</ele>
        <time>2021-08-07T07:06:36.606Z</time>
      </trkpt>
      <trkpt lat="46.92848" lon="8.69105">
        <ele>1810</ele>
        <time>2021-08-07T07:06:37.605Z</time>
      </trkpt>
      <trkpt lat="46.92847" lon="8.69106">
        <ele>1810</ele>
        <time>2021-08-07T07:06:38.606Z</time>
      </trkpt>
      <trkpt lat="46.92846" lon="8.69106">
        <ele>1810</ele>
        <time>2021-08-07T07:06:39.605Z</time>
      </trkpt>
      <trkpt lat="46.92845" lon="8.69107">
        <ele>1810</ele>
        <time>2021-08-07T07:06:40.606Z</time>
      </trkpt>
      <trkpt lat="46.92843" lon="8.69107">
        <ele>1810</ele>
        <time>2021-08-07T07:06:41.606Z</time>
      </trkpt>
      <trkpt lat="46.92842" lon="8.69107">
        <ele>1810</ele>
        <time>2021-08-07T07:06:42.606Z</time>
      </trkpt>
      <trkpt lat="46.92841" lon="8.69108">
        <ele>1810</ele>
        <time>2021-08-07T07:06:43.605Z</time>
      </trkpt>
      <trkpt lat="46.9284" lon="8.69109">
        <ele>1810</ele>
        <time>2021-08-07T07:06:44.606Z</time>
      </trkpt>
      <trkpt lat="46.92839" lon="8.6911">
        <ele>1810</ele>
        <time>2021-08-07T07:06:45.606Z</time>
      </trkpt>
      <trkpt lat="46.92838" lon="8.69111">
        <ele>1810</ele>
        <time>2021-08-07T07:06:46.606Z</time>
      </trkpt>
      <trkpt lat="46.92838" lon="8.69112">
        <ele>1810</ele>
        <time>2021-08-07T07:06:47.606Z</time>
      </trkpt>
      <trkpt lat="46.92837" lon="8.69111">
        <ele>1810</ele>
        <time>2021-08-07T07:06:48.606Z</time>
      </trkpt>
      <trkpt lat="46.92835" lon="8.69112">
        <ele>1810</ele>
        <time>2021-08-07T07:06:49.605Z</time>
      </trkpt>
      <trkpt lat="46.92834" lon="8.69112">
        <ele>1810</ele>
        <time>2021-08-07T07:06:50.606Z</time>
      </trkpt>
      <trkpt lat="46.92833" lon="8.69113">
        <ele>1810</ele>
        <time>2021-08-07T07:06:51.605Z</time>
      </trkpt>
      <trkpt lat="46.92832" lon="8.69113">
        <ele>1810</ele>
        <time>2021-08-07T07:06:52.605Z</time>
      </trkpt>
      <trkpt lat="46.92831" lon="8.69114">
        <ele>1809</ele>
        <time>2021-08-07T07:06:53.605Z</time>
      </trkpt>
      <trkpt lat="46.92831" lon="8.69115">
        <ele>1809</ele>
        <time>2021-08-07T07:06:54.605Z</time>
      </trkpt>
      <trkpt lat="46.9283" lon="8.69115">
        <ele>1809</ele>
        <time>2021-08-07T07:06:55.606Z</time>
      </trkpt>
      <trkpt lat="46.92829" lon="8.69116">
        <ele>1809</ele>
        <time>2021-08-07T07:06:56.605Z</time>
      </trkpt>
      <trkpt lat="46.92828" lon="8.69116">
        <ele>1809</ele>
        <time>2021-08-07T07:06:57.605Z</time>
      </trkpt>
      <trkpt lat="46.92827" lon="8.69116">
        <ele>1809</ele>
        <time>2021-08-07T07:06:58.605Z</time>
      </trkpt>
      <trkpt lat="46.92827" lon="8.69117">
        <ele>1809</ele>
        <time>2021-08-07T07:06:59.605Z</time>
      </trkpt>
      <trkpt lat="46.92826" lon="8.69117">
        <ele>1809</ele>
        <time>2021-08-07T07:07:00.605Z</time>
      </trkpt>
      <trkpt lat="46.92825" lon="8.69118">
        <ele>1809</ele>
        <time>2021-08-07T07:07:01.605Z</time>
      </trkpt>
      <trkpt lat="46.92824" lon="8.69118">
        <ele>1809</ele>
        <time>2021-08-07T07:07:02.605Z</time>
      </trkpt>
      <trkpt lat="46.92823" lon="8.69118">
        <ele>1809</ele>
        <time>2021-08-07T07:07:03.605Z</time>
      </trkpt>
      <trkpt lat="46.92822" lon="8.69118">
        <ele>1809</ele>
        <time>2021-08-07T07:07:04.606Z</time>
      </trkpt>
      <trkpt lat="46.92821" lon="8.69119">
        <ele>1809</ele>
        <time>2021-08-07T07:07:05.606Z</time>
      </trkpt>
      <trkpt lat="46.9282" lon="8.69119">
        <ele>1809</ele>
        <time>2021-08-07T07:07:06.605Z</time>
      </trkpt>
      <trkpt lat="46.92819" lon="8.6912">
        <ele>1809</ele>
        <time>2021-08-07T07:07:07.606Z</time>
      </trkpt>
      <trkpt lat="46.92818" lon="8.6912">
        <ele>1810</ele>
        <time>2021-08-07T07:07:08.606Z</time>
      </trkpt>
      <trkpt lat="46.92816" lon="8.6912">
        <ele>1810</ele>
        <time>2021-08-07T07:07:09.606Z</time>
      </trkpt>
      <trkpt lat="46.92815" lon="8.69121">
        <ele>1810</ele>
        <time>2021-08-07T07:07:10.605Z</time>
      </trkpt>
      <trkpt lat="46.92814" lon="8.69121">
        <ele>1810</ele>
        <time>2021-08-07T07:07:11.605Z</time>
      </trkpt>
      <trkpt lat="46.92813" lon="8.69122">
        <ele>1810</ele>
        <time>2021-08-07T07:07:12.606Z</time>
      </trkpt>
      <trkpt lat="46.92813" lon="8.69123">
        <ele>1810</ele>
        <time>2021-08-07T07:07:13.605Z</time>
      </trkpt>
      <trkpt lat="46.92812" lon="8.69124">
        <ele>1809</ele>
        <time>2021-08-07T07:07:14.605Z</time>
      </trkpt>
      <trkpt lat="46.92811" lon="8.69125">
        <ele>1809</ele>
        <time>2021-08-07T07:07:15.606Z</time>
      </trkpt>
      <trkpt lat="46.92811" lon="8.69125">
        <ele>1810</ele>
        <time>2021-08-07T07:07:16.605Z</time>
      </trkpt>
      <trkpt lat="46.92809" lon="8.69126">
        <ele>1810</ele>
        <time>2021-08-07T07:07:17.606Z</time>
      </trkpt>
      <trkpt lat="46.92808" lon="8.69126">
        <ele>1810</ele>
        <time>2021-08-07T07:07:18.605Z</time>
      </trkpt>
      <trkpt lat="46.92807" lon="8.69126">
        <ele>1810</ele>
        <time>2021-08-07T07:07:19.606Z</time>
      </trkpt>
      <trkpt lat="46.92806" lon="8.69127">
        <ele>1810</ele>
        <time>2021-08-07T07:07:20.605Z</time>
      </trkpt>
      <trkpt lat="46.92805" lon="8.69127">
        <ele>1810</ele>
        <time>2021-08-07T07:07:21.606Z</time>
      </trkpt>
      <trkpt lat="46.92805" lon="8.69128">
        <ele>1810</ele>
        <time>2021-08-07T07:07:22.606Z</time>
      </trkpt>
      <trkpt lat="46.92804" lon="8.69128">
        <ele>1810</ele>
        <time>2021-08-07T07:07:23.605Z</time>
      </trkpt>
      <trkpt lat="46.92803" lon="8.69129">
        <ele>1811</ele>
        <time>2021-08-07T07:07:24.605Z</time>
      </trkpt>
      <trkpt lat="46.92802" lon="8.69129">
        <ele>1811</ele>
        <time>2021-08-07T07:07:25.606Z</time>
      </trkpt>
      <trkpt lat="46.92801" lon="8.6913">
        <ele>1811</ele>
        <time>2021-08-07T07:07:26.605Z</time>
      </trkpt>
      <trkpt lat="46.928" lon="8.69131">
        <ele>1812</ele>
        <time>2021-08-07T07:07:27.605Z</time>
      </trkpt>
      <trkpt lat="46.92799" lon="8.69131">
        <ele>1812</ele>
        <time>2021-08-07T07:07:28.605Z</time>
      </trkpt>
      <trkpt lat="46.92798" lon="8.69131">
        <ele>1812</ele>
        <time>2021-08-07T07:07:29.605Z</time>
      </trkpt>
      <trkpt lat="46.92797" lon="8.69132">
        <ele>1812</ele>
        <time>2021-08-07T07:07:30.605Z</time>
      </trkpt>
      <trkpt lat="46.92796" lon="8.69133">
        <ele>1812</ele>
        <time>2021-08-07T07:07:31.605Z</time>
      </trkpt>
      <trkpt lat="46.92795" lon="8.69133">
        <ele>1812</ele>
        <time>2021-08-07T07:07:32.605Z</time>
      </trkpt>
      <trkpt lat="46.92795" lon="8.69134">
        <ele>1813</ele>
        <time>2021-08-07T07:07:33.605Z</time>
      </trkpt>
      <trkpt lat="46.92794" lon="8.69135">
        <ele>1813</ele>
        <time>2021-08-07T07:07:34.605Z</time>
      </trkpt>
      <trkpt lat="46.92793" lon="8.69135">
        <ele>1813</ele>
        <time>2021-08-07T07:07:35.605Z</time>
      </trkpt>
      <trkpt lat="46.92792" lon="8.69136">
        <ele>1814</ele>
        <time>2021-08-07T07:07:36.605Z</time>
      </trkpt>
      <trkpt lat="46.92791" lon="8.69136">
        <ele>1814</ele>
        <time>2021-08-07T07:07:37.605Z</time>
      </trkpt>
      <trkpt lat="46.92791" lon="8.69137">
        <ele>1814</ele>
        <time>2021-08-07T07:07:38.605Z</time>
      </trkpt>
      <trkpt lat="46.9279" lon="8.69137">
        <ele>1813</ele>
        <time>2021-08-07T07:07:39.605Z</time>
      </trkpt>
      <trkpt lat="46.9279" lon="8.69138">
        <ele>1813</ele>
        <time>2021-08-07T07:07:40.605Z</time>
      </trkpt>
      <trkpt lat="46.9279" lon="8.69138">
        <ele>1813</ele>
        <time>2021-08-07T07:07:41.605Z</time>
      </trkpt>
      <trkpt lat="46.92789" lon="8.69138">
        <ele>1813</ele>
        <time>2021-08-07T07:07:42.606Z</time>
      </trkpt>
      <trkpt lat="46.92788" lon="8.69139">
        <ele>1814</ele>
        <time>2021-08-07T07:07:43.606Z</time>
      </trkpt>
      <trkpt lat="46.92788" lon="8.69139">
        <ele>1814</ele>
        <time>2021-08-07T07:07:44.606Z</time>
      </trkpt>
      <trkpt lat="46.92788" lon="8.6914">
        <ele>1814</ele>
        <time>2021-08-07T07:07:45.607Z</time>
      </trkpt>
      <trkpt lat="46.92787" lon="8.69141">
        <ele>1814</ele>
        <time>2021-08-07T07:07:46.606Z</time>
      </trkpt>
      <trkpt lat="46.92787" lon="8.69141">
        <ele>1814</ele>
        <time>2021-08-07T07:07:47.606Z</time>
      </trkpt>
      <trkpt lat="46.92785" lon="8.69141">
        <ele>1814</ele>
        <time>2021-08-07T07:07:48.606Z</time>
      </trkpt>
      <trkpt lat="46.92785" lon="8.69142">
        <ele>1815</ele>
        <time>2021-08-07T07:07:49.606Z</time>
      </trkpt>
      <trkpt lat="46.92784" lon="8.69143">
        <ele>1815</ele>
        <time>2021-08-07T07:07:50.606Z</time>
      </trkpt>
      <trkpt lat="46.92784" lon="8.69144">
        <ele>1815</ele>
        <time>2021-08-07T07:07:51.606Z</time>
      </trkpt>
      <trkpt lat="46.92783" lon="8.69145">
        <ele>1815</ele>
        <time>2021-08-07T07:07:52.606Z</time>
      </trkpt>
      <trkpt lat="46.92782" lon="8.69145">
        <ele>1815</ele>
        <time>2021-08-07T07:07:53.606Z</time>
      </trkpt>
      <trkpt lat="46.9278" lon="8.69146">
        <ele>1815</ele>
        <time>2021-08-07T07:07:54.606Z</time>
      </trkpt>
      <trkpt lat="46.9278" lon="8.69148">
        <ele>1815</ele>
        <time>2021-08-07T07:07:55.607Z</time>
      </trkpt>
      <trkpt lat="46.92779" lon="8.69149">
        <ele>1816</ele>
        <time>2021-08-07T07:07:56.607Z</time>
      </trkpt>
      <trkpt lat="46.92778" lon="8.69151">
        <ele>1816</ele>
        <time>2021-08-07T07:07:57.606Z</time>
      </trkpt>
      <trkpt lat="46.92777" lon="8.69153">
        <ele>1817</ele>
        <time>2021-08-07T07:07:58.607Z</time>
      </trkpt>
      <trkpt lat="46.92776" lon="8.69154">
        <ele>1817</ele>
        <time>2021-08-07T07:07:59.606Z</time>
      </trkpt>
      <trkpt lat="46.92776" lon="8.69155">
        <ele>1817</ele>
        <time>2021-08-07T07:08:00.607Z</time>
      </trkpt>
      <trkpt lat="46.92775" lon="8.69156">
        <ele>1818</ele>
        <time>2021-08-07T07:08:01.606Z</time>
      </trkpt>
      <trkpt lat="46.92774" lon="8.69157">
        <ele>1818</ele>
        <time>2021-08-07T07:08:02.607Z</time>
      </trkpt>
      <trkpt lat="46.92773" lon="8.69157">
        <ele>1818</ele>
        <time>2021-08-07T07:08:03.607Z</time>
      </trkpt>
      <trkpt lat="46.92772" lon="8.69157">
        <ele>1818</ele>
        <time>2021-08-07T07:08:04.607Z</time>
      </trkpt>
      <trkpt lat="46.92771" lon="8.69157">
        <ele>1819</ele>
        <time>2021-08-07T07:08:05.606Z</time>
      </trkpt>
      <trkpt lat="46.92771" lon="8.69158">
        <ele>1819</ele>
        <time>2021-08-07T07:08:06.606Z</time>
      </trkpt>
      <trkpt lat="46.9277" lon="8.69159">
        <ele>1820</ele>
        <time>2021-08-07T07:08:07.607Z</time>
      </trkpt>
      <trkpt lat="46.92771" lon="8.6916">
        <ele>1820</ele>
        <time>2021-08-07T07:08:08.607Z</time>
      </trkpt>
      <trkpt lat="46.92771" lon="8.69161">
        <ele>1820</ele>
        <time>2021-08-07T07:08:09.606Z</time>
      </trkpt>
      <trkpt lat="46.92771" lon="8.69162">
        <ele>1820</ele>
        <time>2021-08-07T07:08:10.606Z</time>
      </trkpt>
      <trkpt lat="46.9277" lon="8.69162">
        <ele>1820</ele>
        <time>2021-08-07T07:08:11.606Z</time>
      </trkpt>
      <trkpt lat="46.9277" lon="8.69163">
        <ele>1820</ele>
        <time>2021-08-07T07:08:12.606Z</time>
      </trkpt>
      <trkpt lat="46.92769" lon="8.69163">
        <ele>1820</ele>
        <time>2021-08-07T07:08:13.606Z</time>
      </trkpt>
      <trkpt lat="46.92769" lon="8.69164">
        <ele>1820</ele>
        <time>2021-08-07T07:08:14.606Z</time>
      </trkpt>
      <trkpt lat="46.92768" lon="8.69164">
        <ele>1819</ele>
        <time>2021-08-07T07:08:15.606Z</time>
      </trkpt>
      <trkpt lat="46.92768" lon="8.69165">
        <ele>1819</ele>
        <time>2021-08-07T07:08:16.606Z</time>
      </trkpt>
      <trkpt lat="46.92767" lon="8.69166">
        <ele>1819</ele>
        <time>2021-08-07T07:08:17.607Z</time>
      </trkpt>
      <trkpt lat="46.92767" lon="8.69167">
        <ele>1819</ele>
        <time>2021-08-07T07:08:18.607Z</time>
      </trkpt>
      <trkpt lat="46.92768" lon="8.69169">
        <ele>1819</ele>
        <time>2021-08-07T07:08:19.606Z</time>
      </trkpt>
      <trkpt lat="46.92767" lon="8.69169">
        <ele>1819</ele>
        <time>2021-08-07T07:08:20.606Z</time>
      </trkpt>
      <trkpt lat="46.92766" lon="8.6917">
        <ele>1819</ele>
        <time>2021-08-07T07:08:21.606Z</time>
      </trkpt>
      <trkpt lat="46.92766" lon="8.69171">
        <ele>1819</ele>
        <time>2021-08-07T07:08:22.607Z</time>
      </trkpt>
      <trkpt lat="46.92765" lon="8.69172">
        <ele>1819</ele>
        <time>2021-08-07T07:08:23.606Z</time>
      </trkpt>
      <trkpt lat="46.92764" lon="8.69172">
        <ele>1819</ele>
        <time>2021-08-07T07:08:24.607Z</time>
      </trkpt>
      <trkpt lat="46.92764" lon="8.69173">
        <ele>1819</ele>
        <time>2021-08-07T07:08:25.607Z</time>
      </trkpt>
      <trkpt lat="46.92764" lon="8.69173">
        <ele>1819</ele>
        <time>2021-08-07T07:08:26.607Z</time>
      </trkpt>
      <trkpt lat="46.92763" lon="8.69174">
        <ele>1819</ele>
        <time>2021-08-07T07:08:27.606Z</time>
      </trkpt>
      <trkpt lat="46.92763" lon="8.69175">
        <ele>1819</ele>
        <time>2021-08-07T07:08:28.606Z</time>
      </trkpt>
      <trkpt lat="46.92762" lon="8.69176">
        <ele>1819</ele>
        <time>2021-08-07T07:08:29.607Z</time>
      </trkpt>
      <trkpt lat="46.92762" lon="8.69178">
        <ele>1819</ele>
        <time>2021-08-07T07:08:30.607Z</time>
      </trkpt>
      <trkpt lat="46.92762" lon="8.69179">
        <ele>1819</ele>
        <time>2021-08-07T07:08:31.606Z</time>
      </trkpt>
      <trkpt lat="46.92761" lon="8.69179">
        <ele>1820</ele>
        <time>2021-08-07T07:08:32.606Z</time>
      </trkpt>
      <trkpt lat="46.9276" lon="8.69179">
        <ele>1820</ele>
        <time>2021-08-07T07:08:33.606Z</time>
      </trkpt>
      <trkpt lat="46.92759" lon="8.69179">
        <ele>1820</ele>
        <time>2021-08-07T07:08:34.606Z</time>
      </trkpt>
      <trkpt lat="46.92758" lon="8.6918">
        <ele>1821</ele>
        <time>2021-08-07T07:08:35.607Z</time>
      </trkpt>
      <trkpt lat="46.92758" lon="8.6918">
        <ele>1821</ele>
        <time>2021-08-07T07:08:36.607Z</time>
      </trkpt>
      <trkpt lat="46.92758" lon="8.6918">
        <ele>1821</ele>
        <time>2021-08-07T07:08:37.607Z</time>
      </trkpt>
      <trkpt lat="46.92758" lon="8.69181">
        <ele>1821</ele>
        <time>2021-08-07T07:08:38.606Z</time>
      </trkpt>
      <trkpt lat="46.92757" lon="8.69181">
        <ele>1821</ele>
        <time>2021-08-07T07:08:39.606Z</time>
      </trkpt>
      <trkpt lat="46.92757" lon="8.69181">
        <ele>1821</ele>
        <time>2021-08-07T07:08:40.606Z</time>
      </trkpt>
      <trkpt lat="46.92757" lon="8.69183">
        <ele>1821</ele>
        <time>2021-08-07T07:08:41.607Z</time>
      </trkpt>
      <trkpt lat="46.92757" lon="8.69183">
        <ele>1821</ele>
        <time>2021-08-07T07:08:42.606Z</time>
      </trkpt>
      <trkpt lat="46.92757" lon="8.69183">
        <ele>1821</ele>
        <time>2021-08-07T07:08:43.607Z</time>
      </trkpt>
      <trkpt lat="46.92757" lon="8.69184">
        <ele>1820</ele>
        <time>2021-08-07T07:08:44.606Z</time>
      </trkpt>
      <trkpt lat="46.92758" lon="8.69184">
        <ele>1820</ele>
        <time>2021-08-07T07:08:45.606Z</time>
      </trkpt>
      <trkpt lat="46.92757" lon="8.69185">
        <ele>1819</ele>
        <time>2021-08-07T07:08:46.606Z</time>
      </trkpt>
      <trkpt lat="46.92758" lon="8.69186">
        <ele>1819</ele>
        <time>2021-08-07T07:08:47.606Z</time>
      </trkpt>
      <trkpt lat="46.92757" lon="8.69186">
        <ele>1819</ele>
        <time>2021-08-07T07:08:48.607Z</time>
      </trkpt>
      <trkpt lat="46.92756" lon="8.69186">
        <ele>1819</ele>
        <time>2021-08-07T07:08:49.606Z</time>
      </trkpt>
      <trkpt lat="46.92755" lon="8.69187">
        <ele>1819</ele>
        <time>2021-08-07T07:08:50.607Z</time>
      </trkpt>
      <trkpt lat="46.92754" lon="8.69187">
        <ele>1818</ele>
        <time>2021-08-07T07:08:51.606Z</time>
      </trkpt>
      <trkpt lat="46.92754" lon="8.69187">
        <ele>1818</ele>
        <time>2021-08-07T07:08:52.607Z</time>
      </trkpt>
      <trkpt lat="46.92753" lon="8.69188">
        <ele>1819</ele>
        <time>2021-08-07T07:08:53.606Z</time>
      </trkpt>
      <trkpt lat="46.92753" lon="8.69188">
        <ele>1819</ele>
        <time>2021-08-07T07:08:54.606Z</time>
      </trkpt>
      <trkpt lat="46.92752" lon="8.69189">
        <ele>1819</ele>
        <time>2021-08-07T07:08:55.606Z</time>
      </trkpt>
      <trkpt lat="46.92752" lon="8.69189">
        <ele>1819</ele>
        <time>2021-08-07T07:08:56.607Z</time>
      </trkpt>
      <trkpt lat="46.92751" lon="8.6919">
        <ele>1820</ele>
        <time>2021-08-07T07:08:57.606Z</time>
      </trkpt>
      <trkpt lat="46.92751" lon="8.6919">
        <ele>1820</ele>
        <time>2021-08-07T07:08:58.606Z</time>
      </trkpt>
      <trkpt lat="46.9275" lon="8.69191">
        <ele>1820</ele>
        <time>2021-08-07T07:08:59.607Z</time>
      </trkpt>
      <trkpt lat="46.9275" lon="8.69192">
        <ele>1820</ele>
        <time>2021-08-07T07:09:00.607Z</time>
      </trkpt>
      <trkpt lat="46.92749" lon="8.69192">
        <ele>1820</ele>
        <time>2021-08-07T07:09:01.606Z</time>
      </trkpt>
      <trkpt lat="46.92748" lon="8.69193">
        <ele>1820</ele>
        <time>2021-08-07T07:09:02.606Z</time>
      </trkpt>
      <trkpt lat="46.92747" lon="8.69193">
        <ele>1820</ele>
        <time>2021-08-07T07:09:03.606Z</time>
      </trkpt>
      <trkpt lat="46.92747" lon="8.69194">
        <ele>1820</ele>
        <time>2021-08-07T07:09:04.606Z</time>
      </trkpt>
      <trkpt lat="46.92746" lon="8.69195">
        <ele>1820</ele>
        <time>2021-08-07T07:09:05.606Z</time>
      </trkpt>
      <trkpt lat="46.92746" lon="8.69196">
        <ele>1820</ele>
        <time>2021-08-07T07:09:06.606Z</time>
      </trkpt>
      <trkpt lat="46.92745" lon="8.69196">
        <ele>1821</ele>
        <time>2021-08-07T07:09:07.607Z</time>
      </trkpt>
      <trkpt lat="46.92745" lon="8.69197">
        <ele>1821</ele>
        <time>2021-08-07T07:09:08.606Z</time>
      </trkpt>
      <trkpt lat="46.92745" lon="8.69198">
        <ele>1822</ele>
        <time>2021-08-07T07:09:09.607Z</time>
      </trkpt>
      <trkpt lat="46.92745" lon="8.69198">
        <ele>1822</ele>
        <time>2021-08-07T07:09:10.606Z</time>
      </trkpt>
      <trkpt lat="46.92745" lon="8.692">
        <ele>1823</ele>
        <time>2021-08-07T07:09:11.606Z</time>
      </trkpt>
      <trkpt lat="46.92745" lon="8.692">
        <ele>1823</ele>
        <time>2021-08-07T07:09:12.606Z</time>
      </trkpt>
      <trkpt lat="46.92744" lon="8.69201">
        <ele>1823</ele>
        <time>2021-08-07T07:09:13.607Z</time>
      </trkpt>
      <trkpt lat="46.92744" lon="8.69202">
        <ele>1823</ele>
        <time>2021-08-07T07:09:14.607Z</time>
      </trkpt>
      <trkpt lat="46.92744" lon="8.69202">
        <ele>1823</ele>
        <time>2021-08-07T07:09:15.606Z</time>
      </trkpt>
      <trkpt lat="46.92743" lon="8.69203">
        <ele>1823</ele>
        <time>2021-08-07T07:09:16.606Z</time>
      </trkpt>
      <trkpt lat="46.92743" lon="8.69203">
        <ele>1823</ele>
        <time>2021-08-07T07:09:17.606Z</time>
      </trkpt>
      <trkpt lat="46.92742" lon="8.69203">
        <ele>1824</ele>
        <time>2021-08-07T07:09:18.607Z</time>
      </trkpt>
      <trkpt lat="46.92742" lon="8.69204">
        <ele>1824</ele>
        <time>2021-08-07T07:09:19.606Z</time>
      </trkpt>
      <trkpt lat="46.92742" lon="8.69204">
        <ele>1824</ele>
        <time>2021-08-07T07:09:20.607Z</time>
      </trkpt>
      <trkpt lat="46.92741" lon="8.69205">
        <ele>1824</ele>
        <time>2021-08-07T07:09:21.607Z</time>
      </trkpt>
      <trkpt lat="46.92741" lon="8.69205">
        <ele>1825</ele>
        <time>2021-08-07T07:09:22.607Z</time>
      </trkpt>
      <trkpt lat="46.9274" lon="8.69205">
        <ele>1825</ele>
        <time>2021-08-07T07:09:23.606Z</time>
      </trkpt>
      <trkpt lat="46.92739" lon="8.69205">
        <ele>1825</ele>
        <time>2021-08-07T07:09:24.606Z</time>
      </trkpt>
      <trkpt lat="46.92739" lon="8.69205">
        <ele>1825</ele>
        <time>2021-08-07T07:09:25.607Z</time>
      </trkpt>
      <trkpt lat="46.92738" lon="8.69205">
        <ele>1824</ele>
        <time>2021-08-07T07:09:26.606Z</time>
      </trkpt>
      <trkpt lat="46.92737" lon="8.69205">
        <ele>1824</ele>
        <time>2021-08-07T07:09:27.607Z</time>
      </trkpt>
      <trkpt lat="46.92737" lon="8.69205">
        <ele>1824</ele>
        <time>2021-08-07T07:09:28.606Z</time>
      </trkpt>
      <trkpt lat="46.92736" lon="8.69206">
        <ele>1824</ele>
        <time>2021-08-07T07:09:29.606Z</time>
      </trkpt>
      <trkpt lat="46.92735" lon="8.69206">
        <ele>1824</ele>
        <time>2021-08-07T07:09:30.606Z</time>
      </trkpt>
      <trkpt lat="46.92735" lon="8.69206">
        <ele>1825</ele>
        <time>2021-08-07T07:09:31.606Z</time>
      </trkpt>
      <trkpt lat="46.92735" lon="8.69208">
        <ele>1825</ele>
        <time>2021-08-07T07:09:32.606Z</time>
      </trkpt>
      <trkpt lat="46.92735" lon="8.69209">
        <ele>1825</ele>
        <time>2021-08-07T07:09:33.606Z</time>
      </trkpt>
      <trkpt lat="46.92734" lon="8.69209">
        <ele>1825</ele>
        <time>2021-08-07T07:09:34.606Z</time>
      </trkpt>
      <trkpt lat="46.92734" lon="8.6921">
        <ele>1826</ele>
        <time>2021-08-07T07:09:35.606Z</time>
      </trkpt>
      <trkpt lat="46.92734" lon="8.69212">
        <ele>1826</ele>
        <time>2021-08-07T07:09:36.606Z</time>
      </trkpt>
      <trkpt lat="46.92733" lon="8.69212">
        <ele>1826</ele>
        <time>2021-08-07T07:09:37.606Z</time>
      </trkpt>
      <trkpt lat="46.92732" lon="8.69212">
        <ele>1826</ele>
        <time>2021-08-07T07:09:38.606Z</time>
      </trkpt>
      <trkpt lat="46.92731" lon="8.69213">
        <ele>1827</ele>
        <time>2021-08-07T07:09:39.607Z</time>
      </trkpt>
      <trkpt lat="46.9273" lon="8.69213">
        <ele>1827</ele>
        <time>2021-08-07T07:09:40.606Z</time>
      </trkpt>
      <trkpt lat="46.92729" lon="8.69213">
        <ele>1827</ele>
        <time>2021-08-07T07:09:41.606Z</time>
      </trkpt>
      <trkpt lat="46.92728" lon="8.69214">
        <ele>1828</ele>
        <time>2021-08-07T07:09:42.607Z</time>
      </trkpt>
      <trkpt lat="46.92728" lon="8.69214">
        <ele>1828</ele>
        <time>2021-08-07T07:09:43.607Z</time>
      </trkpt>
      <trkpt lat="46.92727" lon="8.69215">
        <ele>1828</ele>
        <time>2021-08-07T07:09:44.606Z</time>
      </trkpt>
      <trkpt lat="46.92727" lon="8.69215">
        <ele>1828</ele>
        <time>2021-08-07T07:09:45.606Z</time>
      </trkpt>
      <trkpt lat="46.92727" lon="8.69215">
        <ele>1828</ele>
        <time>2021-08-07T07:09:46.606Z</time>
      </trkpt>
      <trkpt lat="46.92726" lon="8.69216">
        <ele>1828</ele>
        <time>2021-08-07T07:09:47.606Z</time>
      </trkpt>
      <trkpt lat="46.92726" lon="8.69216">
        <ele>1828</ele>
        <time>2021-08-07T07:09:48.606Z</time>
      </trkpt>
      <trkpt lat="46.92725" lon="8.69216">
        <ele>1828</ele>
        <time>2021-08-07T07:09:49.606Z</time>
      </trkpt>
      <trkpt lat="46.92725" lon="8.69217">
        <ele>1829</ele>
        <time>2021-08-07T07:09:50.607Z</time>
      </trkpt>
      <trkpt lat="46.92724" lon="8.69217">
        <ele>1829</ele>
        <time>2021-08-07T07:09:51.607Z</time>
      </trkpt>
      <trkpt lat="46.92723" lon="8.69217">
        <ele>1829</ele>
        <time>2021-08-07T07:09:52.607Z</time>
      </trkpt>
      <trkpt lat="46.92723" lon="8.69217">
        <ele>1829</ele>
        <time>2021-08-07T07:09:53.606Z</time>
      </trkpt>
      <trkpt lat="46.92722" lon="8.69217">
        <ele>1829</ele>
        <time>2021-08-07T07:09:54.607Z</time>
      </trkpt>
      <trkpt lat="46.92721" lon="8.69217">
        <ele>1829</ele>
        <time>2021-08-07T07:09:55.606Z</time>
      </trkpt>
      <trkpt lat="46.92719" lon="8.69216">
        <ele>1830</ele>
        <time>2021-08-07T07:09:56.606Z</time>
      </trkpt>
      <trkpt lat="46.92718" lon="8.69217">
        <ele>1830</ele>
        <time>2021-08-07T07:09:57.607Z</time>
      </trkpt>
      <trkpt lat="46.92718" lon="8.69217">
        <ele>1830</ele>
        <time>2021-08-07T07:09:58.607Z</time>
      </trkpt>
      <trkpt lat="46.92717" lon="8.69218">
        <ele>1830</ele>
        <time>2021-08-07T07:09:59.607Z</time>
      </trkpt>
      <trkpt lat="46.92717" lon="8.69219">
        <ele>1830</ele>
        <time>2021-08-07T07:10:00.607Z</time>
      </trkpt>
      <trkpt lat="46.92717" lon="8.69219">
        <ele>1830</ele>
        <time>2021-08-07T07:10:01.606Z</time>
      </trkpt>
      <trkpt lat="46.92716" lon="8.69219">
        <ele>1830</ele>
        <time>2021-08-07T07:10:02.606Z</time>
      </trkpt>
      <trkpt lat="46.92715" lon="8.69218">
        <ele>1830</ele>
        <time>2021-08-07T07:10:03.606Z</time>
      </trkpt>
      <trkpt lat="46.92714" lon="8.69217">
        <ele>1831</ele>
        <time>2021-08-07T07:10:04.607Z</time>
      </trkpt>
      <trkpt lat="46.92714" lon="8.69216">
        <ele>1831</ele>
        <time>2021-08-07T07:10:05.606Z</time>
      </trkpt>
      <trkpt lat="46.92715" lon="8.69219">
        <ele>1828</ele>
        <time>2021-08-07T07:10:06.606Z</time>
      </trkpt>
      <trkpt lat="46.92716" lon="8.69219">
        <ele>1825</ele>
        <time>2021-08-07T07:10:07.607Z</time>
      </trkpt>
      <trkpt lat="46.92716" lon="8.69219">
        <ele>1825</ele>
        <time>2021-08-07T07:10:08.607Z</time>
      </trkpt>
      <trkpt lat="46.92716" lon="8.69219">
        <ele>1825</ele>
        <time>2021-08-07T07:10:09.607Z</time>
      </trkpt>
      <trkpt lat="46.92716" lon="8.69219">
        <ele>1825</ele>
        <time>2021-08-07T07:10:10.607Z</time>
      </trkpt>
      <trkpt lat="46.92716" lon="8.69219">
        <ele>1825</ele>
        <time>2021-08-07T07:10:11.607Z</time>
      </trkpt>
      <trkpt lat="46.92718" lon="8.6922">
        <ele>1822</ele>
        <time>2021-08-07T07:10:12.608Z</time>
      </trkpt>
      <trkpt lat="46.92718" lon="8.69219">
        <ele>1822</ele>
        <time>2021-08-07T07:10:13.608Z</time>
      </trkpt>
      <trkpt lat="46.92719" lon="8.6922">
        <ele>1825</ele>
        <time>2021-08-07T07:10:14.609Z</time>
      </trkpt>
      <trkpt lat="46.92719" lon="8.6922">
        <ele>1825</ele>
        <time>2021-08-07T07:10:15.609Z</time>
      </trkpt>
      <trkpt lat="46.92719" lon="8.6922">
        <ele>1825</ele>
        <time>2021-08-07T07:10:16.609Z</time>
      </trkpt>
      <trkpt lat="46.92719" lon="8.6922">
        <ele>1826</ele>
        <time>2021-08-07T07:10:17.609Z</time>
      </trkpt>
      <trkpt lat="46.92718" lon="8.69218">
        <ele>1827</ele>
        <time>2021-08-07T07:10:18.610Z</time>
      </trkpt>
      <trkpt lat="46.92717" lon="8.69218">
        <ele>1827</ele>
        <time>2021-08-07T07:10:19.610Z</time>
      </trkpt>
      <trkpt lat="46.92717" lon="8.69217">
        <ele>1827</ele>
        <time>2021-08-07T07:10:20.610Z</time>
      </trkpt>
      <trkpt lat="46.92717" lon="8.69217">
        <ele>1827</ele>
        <time>2021-08-07T07:10:21.610Z</time>
      </trkpt>
      <trkpt lat="46.92717" lon="8.69217">
        <ele>1828</ele>
        <time>2021-08-07T07:10:22.609Z</time>
      </trkpt>
      <trkpt lat="46.92718" lon="8.69218">
        <ele>1829</ele>
        <time>2021-08-07T07:10:23.611Z</time>
      </trkpt>
      <trkpt lat="46.92717" lon="8.69217">
        <ele>1830</ele>
        <time>2021-08-07T07:10:24.611Z</time>
      </trkpt>
      <trkpt lat="46.92717" lon="8.69217">
        <ele>1831</ele>
        <time>2021-08-07T07:10:25.611Z</time>
      </trkpt>
      <trkpt lat="46.92717" lon="8.69217">
        <ele>1832</ele>
        <time>2021-08-07T07:10:26.611Z</time>
      </trkpt>
      <trkpt lat="46.92717" lon="8.69217">
        <ele>1832</ele>
        <time>2021-08-07T07:10:27.611Z</time>
      </trkpt>
      <trkpt lat="46.92716" lon="8.69217">
        <ele>1832</ele>
        <time>2021-08-07T07:10:28.611Z</time>
      </trkpt>
      <trkpt lat="46.92717" lon="8.69218">
        <ele>1832</ele>
        <time>2021-08-07T07:10:29.611Z</time>
      </trkpt>
      <trkpt lat="46.92717" lon="8.69218">
        <ele>1832</ele>
        <time>2021-08-07T07:10:30.611Z</time>
      </trkpt>
      <trkpt lat="46.92717" lon="8.69218">
        <ele>1832</ele>
        <time>2021-08-07T07:10:31.610Z</time>
      </trkpt>
      <trkpt lat="46.92718" lon="8.69218">
        <ele>1831</ele>
        <time>2021-08-07T07:10:32.611Z</time>
      </trkpt>
      <trkpt lat="46.92718" lon="8.69219">
        <ele>1831</ele>
        <time>2021-08-07T07:10:33.611Z</time>
      </trkpt>
      <trkpt lat="46.92719" lon="8.69219">
        <ele>1831</ele>
        <time>2021-08-07T07:10:34.611Z</time>
      </trkpt>
      <trkpt lat="46.92719" lon="8.69219">
        <ele>1831</ele>
        <time>2021-08-07T07:10:35.611Z</time>
      </trkpt>
      <trkpt lat="46.9272" lon="8.6922">
        <ele>1831</ele>
        <time>2021-08-07T07:10:36.611Z</time>
      </trkpt>
      <trkpt lat="46.92719" lon="8.69221">
        <ele>1831</ele>
        <time>2021-08-07T07:10:37.611Z</time>
      </trkpt>
      <trkpt lat="46.92718" lon="8.69221">
        <ele>1830</ele>
        <time>2021-08-07T07:10:38.611Z</time>
      </trkpt>
      <trkpt lat="46.92717" lon="8.69221">
        <ele>1830</ele>
        <time>2021-08-07T07:10:39.611Z</time>
      </trkpt>
      <trkpt lat="46.92715" lon="8.6922">
        <ele>1830</ele>
        <time>2021-08-07T07:10:40.611Z</time>
      </trkpt>
      <trkpt lat="46.92713" lon="8.69218">
        <ele>1830</ele>
        <time>2021-08-07T07:10:41.610Z</time>
      </trkpt>
      <trkpt lat="46.92712" lon="8.69218">
        <ele>1829</ele>
        <time>2021-08-07T07:10:42.610Z</time>
      </trkpt>
      <trkpt lat="46.92711" lon="8.69219">
        <ele>1829</ele>
        <time>2021-08-07T07:10:43.610Z</time>
      </trkpt>
      <trkpt lat="46.9271" lon="8.69219">
        <ele>1829</ele>
        <time>2021-08-07T07:10:44.611Z</time>
      </trkpt>
      <trkpt lat="46.92709" lon="8.69219">
        <ele>1829</ele>
        <time>2021-08-07T07:10:45.610Z</time>
      </trkpt>
      <trkpt lat="46.92708" lon="8.6922">
        <ele>1829</ele>
        <time>2021-08-07T07:10:46.611Z</time>
      </trkpt>
      <trkpt lat="46.92707" lon="8.6922">
        <ele>1828</ele>
        <time>2021-08-07T07:10:47.611Z</time>
      </trkpt>
      <trkpt lat="46.92706" lon="8.69219">
        <ele>1828</ele>
        <time>2021-08-07T07:10:48.610Z</time>
      </trkpt>
      <trkpt lat="46.92705" lon="8.69219">
        <ele>1828</ele>
        <time>2021-08-07T07:10:49.611Z</time>
      </trkpt>
      <trkpt lat="46.92703" lon="8.69217">
        <ele>1828</ele>
        <time>2021-08-07T07:10:50.611Z</time>
      </trkpt>
      <trkpt lat="46.92702" lon="8.69216">
        <ele>1828</ele>
        <time>2021-08-07T07:10:51.611Z</time>
      </trkpt>
      <trkpt lat="46.927" lon="8.69216">
        <ele>1828</ele>
        <time>2021-08-07T07:10:52.610Z</time>
      </trkpt>
      <trkpt lat="46.92699" lon="8.69215">
        <ele>1827</ele>
        <time>2021-08-07T07:10:53.611Z</time>
      </trkpt>
      <trkpt lat="46.92699" lon="8.69215">
        <ele>1827</ele>
        <time>2021-08-07T07:10:54.611Z</time>
      </trkpt>
      <trkpt lat="46.92698" lon="8.69215">
        <ele>1827</ele>
        <time>2021-08-07T07:10:55.610Z</time>
      </trkpt>
      <trkpt lat="46.92698" lon="8.69215">
        <ele>1826</ele>
        <time>2021-08-07T07:10:56.610Z</time>
      </trkpt>
      <trkpt lat="46.92698" lon="8.69215">
        <ele>1826</ele>
        <time>2021-08-07T07:10:57.611Z</time>
      </trkpt>
      <trkpt lat="46.92697" lon="8.69215">
        <ele>1826</ele>
        <time>2021-08-07T07:10:58.611Z</time>
      </trkpt>
      <trkpt lat="46.92696" lon="8.69214">
        <ele>1826</ele>
        <time>2021-08-07T07:10:59.611Z</time>
      </trkpt>
      <trkpt lat="46.92695" lon="8.69214">
        <ele>1826</ele>
        <time>2021-08-07T07:11:00.611Z</time>
      </trkpt>
      <trkpt lat="46.92694" lon="8.69213">
        <ele>1826</ele>
        <time>2021-08-07T07:11:01.610Z</time>
      </trkpt>
      <trkpt lat="46.92693" lon="8.69213">
        <ele>1826</ele>
        <time>2021-08-07T07:11:02.611Z</time>
      </trkpt>
      <trkpt lat="46.92692" lon="8.69213">
        <ele>1826</ele>
        <time>2021-08-07T07:11:03.611Z</time>
      </trkpt>
      <trkpt lat="46.92692" lon="8.69213">
        <ele>1825</ele>
        <time>2021-08-07T07:11:04.611Z</time>
      </trkpt>
      <trkpt lat="46.92691" lon="8.69213">
        <ele>1825</ele>
        <time>2021-08-07T07:11:05.611Z</time>
      </trkpt>
      <trkpt lat="46.9269" lon="8.69212">
        <ele>1825</ele>
        <time>2021-08-07T07:11:06.611Z</time>
      </trkpt>
      <trkpt lat="46.92689" lon="8.69212">
        <ele>1825</ele>
        <time>2021-08-07T07:11:07.611Z</time>
      </trkpt>
      <trkpt lat="46.92687" lon="8.69212">
        <ele>1825</ele>
        <time>2021-08-07T07:11:08.611Z</time>
      </trkpt>
      <trkpt lat="46.92686" lon="8.69212">
        <ele>1825</ele>
        <time>2021-08-07T07:11:09.611Z</time>
      </trkpt>
      <trkpt lat="46.92685" lon="8.69211">
        <ele>1825</ele>
        <time>2021-08-07T07:11:10.610Z</time>
      </trkpt>
      <trkpt lat="46.92684" lon="8.69211">
        <ele>1825</ele>
        <time>2021-08-07T07:11:11.611Z</time>
      </trkpt>
      <trkpt lat="46.92683" lon="8.69211">
        <ele>1825</ele>
        <time>2021-08-07T07:11:12.611Z</time>
      </trkpt>
      <trkpt lat="46.92682" lon="8.69211">
        <ele>1825</ele>
        <time>2021-08-07T07:11:13.611Z</time>
      </trkpt>
      <trkpt lat="46.92681" lon="8.69211">
        <ele>1825</ele>
        <time>2021-08-07T07:11:14.610Z</time>
      </trkpt>
      <trkpt lat="46.9268" lon="8.69212">
        <ele>1825</ele>
        <time>2021-08-07T07:11:15.611Z</time>
      </trkpt>
      <trkpt lat="46.92679" lon="8.69212">
        <ele>1826</ele>
        <time>2021-08-07T07:11:16.610Z</time>
      </trkpt>
      <trkpt lat="46.92678" lon="8.69212">
        <ele>1826</ele>
        <time>2021-08-07T07:11:17.611Z</time>
      </trkpt>
      <trkpt lat="46.92677" lon="8.69212">
        <ele>1826</ele>
        <time>2021-08-07T07:11:18.610Z</time>
      </trkpt>
      <trkpt lat="46.92675" lon="8.69212">
        <ele>1827</ele>
        <time>2021-08-07T07:11:19.611Z</time>
      </trkpt>
      <trkpt lat="46.92674" lon="8.69212">
        <ele>1827</ele>
        <time>2021-08-07T07:11:20.611Z</time>
      </trkpt>
      <trkpt lat="46.92673" lon="8.69213">
        <ele>1827</ele>
        <time>2021-08-07T07:11:21.610Z</time>
      </trkpt>
      <trkpt lat="46.92672" lon="8.69212">
        <ele>1827</ele>
        <time>2021-08-07T07:11:22.610Z</time>
      </trkpt>
      <trkpt lat="46.92671" lon="8.69212">
        <ele>1826</ele>
        <time>2021-08-07T07:11:23.611Z</time>
      </trkpt>
      <trkpt lat="46.92671" lon="8.69213">
        <ele>1826</ele>
        <time>2021-08-07T07:11:24.610Z</time>
      </trkpt>
      <trkpt lat="46.9267" lon="8.69214">
        <ele>1826</ele>
        <time>2021-08-07T07:11:25.610Z</time>
      </trkpt>
      <trkpt lat="46.92669" lon="8.69214">
        <ele>1826</ele>
        <time>2021-08-07T07:11:26.610Z</time>
      </trkpt>
      <trkpt lat="46.92669" lon="8.69214">
        <ele>1825</ele>
        <time>2021-08-07T07:11:27.611Z</time>
      </trkpt>
      <trkpt lat="46.92668" lon="8.69215">
        <ele>1825</ele>
        <time>2021-08-07T07:11:28.611Z</time>
      </trkpt>
      <trkpt lat="46.92667" lon="8.69215">
        <ele>1824</ele>
        <time>2021-08-07T07:11:29.611Z</time>
      </trkpt>
      <trkpt lat="46.92665" lon="8.69216">
        <ele>1824</ele>
        <time>2021-08-07T07:11:30.610Z</time>
      </trkpt>
      <trkpt lat="46.92665" lon="8.69216">
        <ele>1824</ele>
        <time>2021-08-07T07:11:31.611Z</time>
      </trkpt>
      <trkpt lat="46.92665" lon="8.69218">
        <ele>1824</ele>
        <time>2021-08-07T07:11:32.610Z</time>
      </trkpt>
      <trkpt lat="46.92665" lon="8.69219">
        <ele>1824</ele>
        <time>2021-08-07T07:11:33.611Z</time>
      </trkpt>
      <trkpt lat="46.92663" lon="8.69219">
        <ele>1824</ele>
        <time>2021-08-07T07:11:34.610Z</time>
      </trkpt>
      <trkpt lat="46.92662" lon="8.69219">
        <ele>1824</ele>
        <time>2021-08-07T07:11:35.610Z</time>
      </trkpt>
      <trkpt lat="46.92662" lon="8.6922">
        <ele>1825</ele>
        <time>2021-08-07T07:11:36.611Z</time>
      </trkpt>
      <trkpt lat="46.92661" lon="8.69221">
        <ele>1825</ele>
        <time>2021-08-07T07:11:37.610Z</time>
      </trkpt>
      <trkpt lat="46.9266" lon="8.69222">
        <ele>1825</ele>
        <time>2021-08-07T07:11:38.610Z</time>
      </trkpt>
      <trkpt lat="46.92659" lon="8.69222">
        <ele>1825</ele>
        <time>2021-08-07T07:11:39.610Z</time>
      </trkpt>
      <trkpt lat="46.92658" lon="8.69223">
        <ele>1825</ele>
        <time>2021-08-07T07:11:40.611Z</time>
      </trkpt>
      <trkpt lat="46.92657" lon="8.69223">
        <ele>1825</ele>
        <time>2021-08-07T07:11:41.611Z</time>
      </trkpt>
      <trkpt lat="46.92656" lon="8.69223">
        <ele>1824</ele>
        <time>2021-08-07T07:11:42.611Z</time>
      </trkpt>
      <trkpt lat="46.92655" lon="8.69224">
        <ele>1824</ele>
        <time>2021-08-07T07:11:43.610Z</time>
      </trkpt>
      <trkpt lat="46.92654" lon="8.69225">
        <ele>1824</ele>
        <time>2021-08-07T07:11:44.611Z</time>
      </trkpt>
      <trkpt lat="46.92653" lon="8.69226">
        <ele>1824</ele>
        <time>2021-08-07T07:11:45.610Z</time>
      </trkpt>
      <trkpt lat="46.92652" lon="8.69226">
        <ele>1824</ele>
        <time>2021-08-07T07:11:46.611Z</time>
      </trkpt>
      <trkpt lat="46.92651" lon="8.69227">
        <ele>1824</ele>
        <time>2021-08-07T07:11:47.610Z</time>
      </trkpt>
      <trkpt lat="46.9265" lon="8.69228">
        <ele>1824</ele>
        <time>2021-08-07T07:11:48.611Z</time>
      </trkpt>
      <trkpt lat="46.92649" lon="8.69228">
        <ele>1824</ele>
        <time>2021-08-07T07:11:49.610Z</time>
      </trkpt>
      <trkpt lat="46.92647" lon="8.69228">
        <ele>1823</ele>
        <time>2021-08-07T07:11:50.611Z</time>
      </trkpt>
      <trkpt lat="46.92646" lon="8.69229">
        <ele>1823</ele>
        <time>2021-08-07T07:11:51.610Z</time>
      </trkpt>
      <trkpt lat="46.92645" lon="8.69229">
        <ele>1823</ele>
        <time>2021-08-07T07:11:52.611Z</time>
      </trkpt>
      <trkpt lat="46.92644" lon="8.69229">
        <ele>1822</ele>
        <time>2021-08-07T07:11:53.611Z</time>
      </trkpt>
      <trkpt lat="46.92644" lon="8.69229">
        <ele>1822</ele>
        <time>2021-08-07T07:11:54.611Z</time>
      </trkpt>
      <trkpt lat="46.92644" lon="8.69229">
        <ele>1822</ele>
        <time>2021-08-07T07:11:55.611Z</time>
      </trkpt>
      <trkpt lat="46.92643" lon="8.69229">
        <ele>1821</ele>
        <time>2021-08-07T07:11:56.611Z</time>
      </trkpt>
      <trkpt lat="46.92642" lon="8.6923">
        <ele>1821</ele>
        <time>2021-08-07T07:11:57.611Z</time>
      </trkpt>
      <trkpt lat="46.92641" lon="8.6923">
        <ele>1821</ele>
        <time>2021-08-07T07:11:58.611Z</time>
      </trkpt>
      <trkpt lat="46.92641" lon="8.6923">
        <ele>1820</ele>
        <time>2021-08-07T07:11:59.610Z</time>
      </trkpt>
      <trkpt lat="46.92641" lon="8.69231">
        <ele>1820</ele>
        <time>2021-08-07T07:12:00.611Z</time>
      </trkpt>
      <trkpt lat="46.9264" lon="8.69231">
        <ele>1819</ele>
        <time>2021-08-07T07:12:01.611Z</time>
      </trkpt>
      <trkpt lat="46.9264" lon="8.69233">
        <ele>1819</ele>
        <time>2021-08-07T07:12:02.611Z</time>
      </trkpt>
      <trkpt lat="46.9264" lon="8.69233">
        <ele>1819</ele>
        <time>2021-08-07T07:12:03.611Z</time>
      </trkpt>
      <trkpt lat="46.9264" lon="8.69234">
        <ele>1819</ele>
        <time>2021-08-07T07:12:04.611Z</time>
      </trkpt>
      <trkpt lat="46.92639" lon="8.69233">
        <ele>1818</ele>
        <time>2021-08-07T07:12:05.610Z</time>
      </trkpt>
      <trkpt lat="46.92638" lon="8.69234">
        <ele>1818</ele>
        <time>2021-08-07T07:12:06.610Z</time>
      </trkpt>
      <trkpt lat="46.92637" lon="8.69233">
        <ele>1818</ele>
        <time>2021-08-07T07:12:07.610Z</time>
      </trkpt>
      <trkpt lat="46.92637" lon="8.69233">
        <ele>1818</ele>
        <time>2021-08-07T07:12:08.611Z</time>
      </trkpt>
      <trkpt lat="46.92636" lon="8.69233">
        <ele>1818</ele>
        <time>2021-08-07T07:12:09.611Z</time>
      </trkpt>
      <trkpt lat="46.92635" lon="8.69234">
        <ele>1818</ele>
        <time>2021-08-07T07:12:10.611Z</time>
      </trkpt>
      <trkpt lat="46.92635" lon="8.69234">
        <ele>1818</ele>
        <time>2021-08-07T07:12:11.610Z</time>
      </trkpt>
      <trkpt lat="46.92634" lon="8.69235">
        <ele>1818</ele>
        <time>2021-08-07T07:12:12.610Z</time>
      </trkpt>
      <trkpt lat="46.92633" lon="8.69235">
        <ele>1819</ele>
        <time>2021-08-07T07:12:13.611Z</time>
      </trkpt>
      <trkpt lat="46.92633" lon="8.69235">
        <ele>1819</ele>
        <time>2021-08-07T07:12:14.611Z</time>
      </trkpt>
      <trkpt lat="46.92632" lon="8.69236">
        <ele>1820</ele>
        <time>2021-08-07T07:12:15.611Z</time>
      </trkpt>
      <trkpt lat="46.92632" lon="8.69237">
        <ele>1820</ele>
        <time>2021-08-07T07:12:16.610Z</time>
      </trkpt>
      <trkpt lat="46.92631" lon="8.69238">
        <ele>1820</ele>
        <time>2021-08-07T07:12:17.611Z</time>
      </trkpt>
      <trkpt lat="46.9263" lon="8.69239">
        <ele>1821</ele>
        <time>2021-08-07T07:12:18.611Z</time>
      </trkpt>
      <trkpt lat="46.92631" lon="8.6924">
        <ele>1821</ele>
        <time>2021-08-07T07:12:19.611Z</time>
      </trkpt>
      <trkpt lat="46.92631" lon="8.69241">
        <ele>1822</ele>
        <time>2021-08-07T07:12:20.610Z</time>
      </trkpt>
      <trkpt lat="46.92631" lon="8.69242">
        <ele>1823</ele>
        <time>2021-08-07T07:12:21.610Z</time>
      </trkpt>
      <trkpt lat="46.9263" lon="8.69243">
        <ele>1824</ele>
        <time>2021-08-07T07:12:22.610Z</time>
      </trkpt>
      <trkpt lat="46.92629" lon="8.69244">
        <ele>1825</ele>
        <time>2021-08-07T07:12:23.611Z</time>
      </trkpt>
      <trkpt lat="46.92628" lon="8.69245">
        <ele>1826</ele>
        <time>2021-08-07T07:12:24.611Z</time>
      </trkpt>
      <trkpt lat="46.92628" lon="8.69245">
        <ele>1827</ele>
        <time>2021-08-07T07:12:25.611Z</time>
      </trkpt>
      <trkpt lat="46.92627" lon="8.69246">
        <ele>1828</ele>
        <time>2021-08-07T07:12:26.611Z</time>
      </trkpt>
      <trkpt lat="46.92627" lon="8.69246">
        <ele>1828</ele>
        <time>2021-08-07T07:12:27.611Z</time>
      </trkpt>
      <trkpt lat="46.92627" lon="8.69247">
        <ele>1829</ele>
        <time>2021-08-07T07:12:28.611Z</time>
      </trkpt>
      <trkpt lat="46.92626" lon="8.69247">
        <ele>1829</ele>
        <time>2021-08-07T07:12:29.610Z</time>
      </trkpt>
      <trkpt lat="46.92625" lon="8.69248">
        <ele>1829</ele>
        <time>2021-08-07T07:12:30.611Z</time>
      </trkpt>
      <trkpt lat="46.92624" lon="8.69248">
        <ele>1829</ele>
        <time>2021-08-07T07:12:31.610Z</time>
      </trkpt>
      <trkpt lat="46.92623" lon="8.69249">
        <ele>1829</ele>
        <time>2021-08-07T07:12:32.610Z</time>
      </trkpt>
      <trkpt lat="46.92623" lon="8.69249">
        <ele>1829</ele>
        <time>2021-08-07T07:12:33.611Z</time>
      </trkpt>
      <trkpt lat="46.92622" lon="8.6925">
        <ele>1830</ele>
        <time>2021-08-07T07:12:34.610Z</time>
      </trkpt>
      <trkpt lat="46.92622" lon="8.69251">
        <ele>1830</ele>
        <time>2021-08-07T07:12:35.611Z</time>
      </trkpt>
      <trkpt lat="46.92621" lon="8.69252">
        <ele>1830</ele>
        <time>2021-08-07T07:12:36.610Z</time>
      </trkpt>
      <trkpt lat="46.92621" lon="8.69252">
        <ele>1830</ele>
        <time>2021-08-07T07:12:37.610Z</time>
      </trkpt>
      <trkpt lat="46.9262" lon="8.69253">
        <ele>1830</ele>
        <time>2021-08-07T07:12:38.610Z</time>
      </trkpt>
      <trkpt lat="46.92619" lon="8.69254">
        <ele>1829</ele>
        <time>2021-08-07T07:12:39.611Z</time>
      </trkpt>
      <trkpt lat="46.92619" lon="8.69255">
        <ele>1829</ele>
        <time>2021-08-07T07:12:40.611Z</time>
      </trkpt>
      <trkpt lat="46.92618" lon="8.69256">
        <ele>1829</ele>
        <time>2021-08-07T07:12:41.610Z</time>
      </trkpt>
      <trkpt lat="46.92617" lon="8.69256">
        <ele>1829</ele>
        <time>2021-08-07T07:12:42.611Z</time>
      </trkpt>
      <trkpt lat="46.92617" lon="8.69257">
        <ele>1828</ele>
        <time>2021-08-07T07:12:43.611Z</time>
      </trkpt>
      <trkpt lat="46.92616" lon="8.69258">
        <ele>1828</ele>
        <time>2021-08-07T07:12:44.610Z</time>
      </trkpt>
      <trkpt lat="46.92615" lon="8.69258">
        <ele>1828</ele>
        <time>2021-08-07T07:12:45.610Z</time>
      </trkpt>
      <trkpt lat="46.92614" lon="8.69259">
        <ele>1828</ele>
        <time>2021-08-07T07:12:46.610Z</time>
      </trkpt>
      <trkpt lat="46.92613" lon="8.69259">
        <ele>1828</ele>
        <time>2021-08-07T07:12:47.611Z</time>
      </trkpt>
      <trkpt lat="46.92613" lon="8.6926">
        <ele>1828</ele>
        <time>2021-08-07T07:12:48.611Z</time>
      </trkpt>
      <trkpt lat="46.92612" lon="8.6926">
        <ele>1828</ele>
        <time>2021-08-07T07:12:49.610Z</time>
      </trkpt>
      <trkpt lat="46.92611" lon="8.6926">
        <ele>1828</ele>
        <time>2021-08-07T07:12:50.610Z</time>
      </trkpt>
      <trkpt lat="46.9261" lon="8.69261">
        <ele>1828</ele>
        <time>2021-08-07T07:12:51.610Z</time>
      </trkpt>
      <trkpt lat="46.92609" lon="8.69261">
        <ele>1828</ele>
        <time>2021-08-07T07:12:52.611Z</time>
      </trkpt>
      <trkpt lat="46.92608" lon="8.69261">
        <ele>1828</ele>
        <time>2021-08-07T07:12:53.610Z</time>
      </trkpt>
      <trkpt lat="46.92607" lon="8.69261">
        <ele>1829</ele>
        <time>2021-08-07T07:12:54.611Z</time>
      </trkpt>
      <trkpt lat="46.92607" lon="8.69261">
        <ele>1829</ele>
        <time>2021-08-07T07:12:55.610Z</time>
      </trkpt>
      <trkpt lat="46.92606" lon="8.69261">
        <ele>1829</ele>
        <time>2021-08-07T07:12:56.611Z</time>
      </trkpt>
      <trkpt lat="46.92605" lon="8.69261">
        <ele>1830</ele>
        <time>2021-08-07T07:12:57.610Z</time>
      </trkpt>
      <trkpt lat="46.92604" lon="8.69261">
        <ele>1830</ele>
        <time>2021-08-07T07:12:58.611Z</time>
      </trkpt>
      <trkpt lat="46.92604" lon="8.69261">
        <ele>1830</ele>
        <time>2021-08-07T07:12:59.610Z</time>
      </trkpt>
      <trkpt lat="46.92603" lon="8.69261">
        <ele>1831</ele>
        <time>2021-08-07T07:13:00.610Z</time>
      </trkpt>
      <trkpt lat="46.92603" lon="8.69261">
        <ele>1831</ele>
        <time>2021-08-07T07:13:01.611Z</time>
      </trkpt>
      <trkpt lat="46.92602" lon="8.69262">
        <ele>1831</ele>
        <time>2021-08-07T07:13:02.610Z</time>
      </trkpt>
      <trkpt lat="46.92601" lon="8.69262">
        <ele>1832</ele>
        <time>2021-08-07T07:13:03.610Z</time>
      </trkpt>
      <trkpt lat="46.926" lon="8.69262">
        <ele>1832</ele>
        <time>2021-08-07T07:13:04.611Z</time>
      </trkpt>
      <trkpt lat="46.926" lon="8.69261">
        <ele>1833</ele>
        <time>2021-08-07T07:13:05.611Z</time>
      </trkpt>
      <trkpt lat="46.92599" lon="8.69261">
        <ele>1833</ele>
        <time>2021-08-07T07:13:06.610Z</time>
      </trkpt>
      <trkpt lat="46.92598" lon="8.69261">
        <ele>1833</ele>
        <time>2021-08-07T07:13:07.611Z</time>
      </trkpt>
      <trkpt lat="46.92597" lon="8.69261">
        <ele>1834</ele>
        <time>2021-08-07T07:13:08.611Z</time>
      </trkpt>
      <trkpt lat="46.92596" lon="8.69261">
        <ele>1834</ele>
        <time>2021-08-07T07:13:09.611Z</time>
      </trkpt>
      <trkpt lat="46.92595" lon="8.6926">
        <ele>1835</ele>
        <time>2021-08-07T07:13:10.611Z</time>
      </trkpt>
      <trkpt lat="46.92594" lon="8.69261">
        <ele>1835</ele>
        <time>2021-08-07T07:13:11.610Z</time>
      </trkpt>
      <trkpt lat="46.92594" lon="8.69261">
        <ele>1836</ele>
        <time>2021-08-07T07:13:12.611Z</time>
      </trkpt>
      <trkpt lat="46.92593" lon="8.6926">
        <ele>1836</ele>
        <time>2021-08-07T07:13:13.610Z</time>
      </trkpt>
      <trkpt lat="46.92593" lon="8.6926">
        <ele>1836</ele>
        <time>2021-08-07T07:13:14.610Z</time>
      </trkpt>
      <trkpt lat="46.92592" lon="8.6926">
        <ele>1836</ele>
        <time>2021-08-07T07:13:15.611Z</time>
      </trkpt>
      <trkpt lat="46.92592" lon="8.6926">
        <ele>1836</ele>
        <time>2021-08-07T07:13:16.610Z</time>
      </trkpt>
      <trkpt lat="46.92591" lon="8.6926">
        <ele>1836</ele>
        <time>2021-08-07T07:13:17.611Z</time>
      </trkpt>
      <trkpt lat="46.92591" lon="8.6926">
        <ele>1835</ele>
        <time>2021-08-07T07:13:18.611Z</time>
      </trkpt>
      <trkpt lat="46.9259" lon="8.69259">
        <ele>1835</ele>
        <time>2021-08-07T07:13:19.611Z</time>
      </trkpt>
      <trkpt lat="46.92589" lon="8.69259">
        <ele>1835</ele>
        <time>2021-08-07T07:13:20.611Z</time>
      </trkpt>
      <trkpt lat="46.92588" lon="8.69259">
        <ele>1835</ele>
        <time>2021-08-07T07:13:21.610Z</time>
      </trkpt>
      <trkpt lat="46.92588" lon="8.69259">
        <ele>1835</ele>
        <time>2021-08-07T07:13:22.610Z</time>
      </trkpt>
      <trkpt lat="46.92588" lon="8.6926">
        <ele>1835</ele>
        <time>2021-08-07T07:13:23.611Z</time>
      </trkpt>
      <trkpt lat="46.92587" lon="8.6926">
        <ele>1835</ele>
        <time>2021-08-07T07:13:24.611Z</time>
      </trkpt>
      <trkpt lat="46.92586" lon="8.6926">
        <ele>1835</ele>
        <time>2021-08-07T07:13:25.610Z</time>
      </trkpt>
      <trkpt lat="46.92585" lon="8.6926">
        <ele>1835</ele>
        <time>2021-08-07T07:13:26.610Z</time>
      </trkpt>
      <trkpt lat="46.92585" lon="8.6926">
        <ele>1835</ele>
        <time>2021-08-07T07:13:27.610Z</time>
      </trkpt>
      <trkpt lat="46.92584" lon="8.6926">
        <ele>1835</ele>
        <time>2021-08-07T07:13:28.611Z</time>
      </trkpt>
      <trkpt lat="46.92584" lon="8.6926">
        <ele>1835</ele>
        <time>2021-08-07T07:13:29.611Z</time>
      </trkpt>
      <trkpt lat="46.92584" lon="8.69261">
        <ele>1836</ele>
        <time>2021-08-07T07:13:30.611Z</time>
      </trkpt>
      <trkpt lat="46.92583" lon="8.69261">
        <ele>1836</ele>
        <time>2021-08-07T07:13:31.610Z</time>
      </trkpt>
      <trkpt lat="46.92582" lon="8.69261">
        <ele>1837</ele>
        <time>2021-08-07T07:13:32.611Z</time>
      </trkpt>
      <trkpt lat="46.92582" lon="8.69262">
        <ele>1837</ele>
        <time>2021-08-07T07:13:33.611Z</time>
      </trkpt>
      <trkpt lat="46.92582" lon="8.69263">
        <ele>1837</ele>
        <time>2021-08-07T07:13:34.611Z</time>
      </trkpt>
      <trkpt lat="46.92581" lon="8.69263">
        <ele>1837</ele>
        <time>2021-08-07T07:13:35.611Z</time>
      </trkpt>
      <trkpt lat="46.92581" lon="8.69264">
        <ele>1838</ele>
        <time>2021-08-07T07:13:36.611Z</time>
      </trkpt>
      <trkpt lat="46.9258" lon="8.69264">
        <ele>1838</ele>
        <time>2021-08-07T07:13:37.611Z</time>
      </trkpt>
      <trkpt lat="46.9258" lon="8.69265">
        <ele>1838</ele>
        <time>2021-08-07T07:13:38.611Z</time>
      </trkpt>
      <trkpt lat="46.92579" lon="8.69265">
        <ele>1838</ele>
        <time>2021-08-07T07:13:39.610Z</time>
      </trkpt>
      <trkpt lat="46.92579" lon="8.69266">
        <ele>1838</ele>
        <time>2021-08-07T07:13:40.611Z</time>
      </trkpt>
      <trkpt lat="46.92578" lon="8.69266">
        <ele>1839</ele>
        <time>2021-08-07T07:13:41.611Z</time>
      </trkpt>
      <trkpt lat="46.92578" lon="8.69267">
        <ele>1839</ele>
        <time>2021-08-07T07:13:42.611Z</time>
      </trkpt>
      <trkpt lat="46.92577" lon="8.69268">
        <ele>1839</ele>
        <time>2021-08-07T07:13:43.610Z</time>
      </trkpt>
      <trkpt lat="46.92576" lon="8.69268">
        <ele>1839</ele>
        <time>2021-08-07T07:13:44.611Z</time>
      </trkpt>
      <trkpt lat="46.92576" lon="8.69269">
        <ele>1839</ele>
        <time>2021-08-07T07:13:45.610Z</time>
      </trkpt>
      <trkpt lat="46.92575" lon="8.6927">
        <ele>1839</ele>
        <time>2021-08-07T07:13:46.610Z</time>
      </trkpt>
      <trkpt lat="46.92575" lon="8.69271">
        <ele>1838</ele>
        <time>2021-08-07T07:13:47.610Z</time>
      </trkpt>
      <trkpt lat="46.92574" lon="8.69272">
        <ele>1838</ele>
        <time>2021-08-07T07:13:48.611Z</time>
      </trkpt>
      <trkpt lat="46.92574" lon="8.69273">
        <ele>1837</ele>
        <time>2021-08-07T07:13:49.611Z</time>
      </trkpt>
      <trkpt lat="46.92573" lon="8.69274">
        <ele>1837</ele>
        <time>2021-08-07T07:13:50.610Z</time>
      </trkpt>
      <trkpt lat="46.92573" lon="8.69275">
        <ele>1837</ele>
        <time>2021-08-07T07:13:51.610Z</time>
      </trkpt>
      <trkpt lat="46.92572" lon="8.69275">
        <ele>1837</ele>
        <time>2021-08-07T07:13:52.611Z</time>
      </trkpt>
      <trkpt lat="46.92571" lon="8.69276">
        <ele>1837</ele>
        <time>2021-08-07T07:13:53.611Z</time>
      </trkpt>
      <trkpt lat="46.92571" lon="8.69276">
        <ele>1837</ele>
        <time>2021-08-07T07:13:54.610Z</time>
      </trkpt>
      <trkpt lat="46.9257" lon="8.69277">
        <ele>1837</ele>
        <time>2021-08-07T07:13:55.611Z</time>
      </trkpt>
      <trkpt lat="46.9257" lon="8.69277">
        <ele>1838</ele>
        <time>2021-08-07T07:13:56.611Z</time>
      </trkpt>
      <trkpt lat="46.92569" lon="8.69277">
        <ele>1838</ele>
        <time>2021-08-07T07:13:57.611Z</time>
      </trkpt>
      <trkpt lat="46.92568" lon="8.69277">
        <ele>1838</ele>
        <time>2021-08-07T07:13:58.610Z</time>
      </trkpt>
      <trkpt lat="46.92568" lon="8.69277">
        <ele>1839</ele>
        <time>2021-08-07T07:13:59.610Z</time>
      </trkpt>
      <trkpt lat="46.92567" lon="8.69277">
        <ele>1839</ele>
        <time>2021-08-07T07:14:00.611Z</time>
      </trkpt>
      <trkpt lat="46.92566" lon="8.69278">
        <ele>1840</ele>
        <time>2021-08-07T07:14:01.610Z</time>
      </trkpt>
      <trkpt lat="46.92566" lon="8.69278">
        <ele>1840</ele>
        <time>2021-08-07T07:14:02.610Z</time>
      </trkpt>
      <trkpt lat="46.92565" lon="8.69278">
        <ele>1841</ele>
        <time>2021-08-07T07:14:03.611Z</time>
      </trkpt>
      <trkpt lat="46.92565" lon="8.69279">
        <ele>1841</ele>
        <time>2021-08-07T07:14:04.611Z</time>
      </trkpt>
      <trkpt lat="46.92564" lon="8.69279">
        <ele>1841</ele>
        <time>2021-08-07T07:14:05.610Z</time>
      </trkpt>
      <trkpt lat="46.92564" lon="8.6928">
        <ele>1842</ele>
        <time>2021-08-07T07:14:06.611Z</time>
      </trkpt>
      <trkpt lat="46.92563" lon="8.6928">
        <ele>1842</ele>
        <time>2021-08-07T07:14:07.611Z</time>
      </trkpt>
      <trkpt lat="46.92563" lon="8.6928">
        <ele>1842</ele>
        <time>2021-08-07T07:14:08.611Z</time>
      </trkpt>
      <trkpt lat="46.92562" lon="8.69281">
        <ele>1843</ele>
        <time>2021-08-07T07:14:09.611Z</time>
      </trkpt>
      <trkpt lat="46.92562" lon="8.69281">
        <ele>1843</ele>
        <time>2021-08-07T07:14:10.610Z</time>
      </trkpt>
      <trkpt lat="46.92561" lon="8.69281">
        <ele>1844</ele>
        <time>2021-08-07T07:14:11.610Z</time>
      </trkpt>
      <trkpt lat="46.92561" lon="8.69282">
        <ele>1845</ele>
        <time>2021-08-07T07:14:12.610Z</time>
      </trkpt>
      <trkpt lat="46.9256" lon="8.69282">
        <ele>1845</ele>
        <time>2021-08-07T07:14:13.611Z</time>
      </trkpt>
      <trkpt lat="46.9256" lon="8.69283">
        <ele>1846</ele>
        <time>2021-08-07T07:14:14.611Z</time>
      </trkpt>
      <trkpt lat="46.92559" lon="8.69283">
        <ele>1846</ele>
        <time>2021-08-07T07:14:15.611Z</time>
      </trkpt>
      <trkpt lat="46.92559" lon="8.69284">
        <ele>1846</ele>
        <time>2021-08-07T07:14:16.610Z</time>
      </trkpt>
      <trkpt lat="46.92558" lon="8.69285">
        <ele>1846</ele>
        <time>2021-08-07T07:14:17.610Z</time>
      </trkpt>
      <trkpt lat="46.92557" lon="8.69285">
        <ele>1846</ele>
        <time>2021-08-07T07:14:18.610Z</time>
      </trkpt>
      <trkpt lat="46.92557" lon="8.69286">
        <ele>1846</ele>
        <time>2021-08-07T07:14:19.610Z</time>
      </trkpt>
      <trkpt lat="46.92557" lon="8.69286">
        <ele>1847</ele>
        <time>2021-08-07T07:14:20.610Z</time>
      </trkpt>
      <trkpt lat="46.92556" lon="8.69287">
        <ele>1847</ele>
        <time>2021-08-07T07:14:21.610Z</time>
      </trkpt>
      <trkpt lat="46.92555" lon="8.69287">
        <ele>1847</ele>
        <time>2021-08-07T07:14:22.611Z</time>
      </trkpt>
      <trkpt lat="46.92555" lon="8.69287">
        <ele>1847</ele>
        <time>2021-08-07T07:14:23.610Z</time>
      </trkpt>
      <trkpt lat="46.92554" lon="8.69286">
        <ele>1847</ele>
        <time>2021-08-07T07:14:24.610Z</time>
      </trkpt>
      <trkpt lat="46.92553" lon="8.69287">
        <ele>1847</ele>
        <time>2021-08-07T07:14:25.610Z</time>
      </trkpt>
      <trkpt lat="46.92552" lon="8.69287">
        <ele>1847</ele>
        <time>2021-08-07T07:14:26.611Z</time>
      </trkpt>
      <trkpt lat="46.92551" lon="8.69287">
        <ele>1847</ele>
        <time>2021-08-07T07:14:27.611Z</time>
      </trkpt>
      <trkpt lat="46.92551" lon="8.69287">
        <ele>1847</ele>
        <time>2021-08-07T07:14:28.610Z</time>
      </trkpt>
      <trkpt lat="46.9255" lon="8.69287">
        <ele>1847</ele>
        <time>2021-08-07T07:14:29.610Z</time>
      </trkpt>
      <trkpt lat="46.92549" lon="8.69287">
        <ele>1847</ele>
        <time>2021-08-07T07:14:30.610Z</time>
      </trkpt>
      <trkpt lat="46.92548" lon="8.69287">
        <ele>1847</ele>
        <time>2021-08-07T07:14:31.610Z</time>
      </trkpt>
      <trkpt lat="46.92548" lon="8.69287">
        <ele>1847</ele>
        <time>2021-08-07T07:14:32.610Z</time>
      </trkpt>
      <trkpt lat="46.92547" lon="8.69287">
        <ele>1848</ele>
        <time>2021-08-07T07:14:33.610Z</time>
      </trkpt>
      <trkpt lat="46.92546" lon="8.69287">
        <ele>1848</ele>
        <time>2021-08-07T07:14:34.610Z</time>
      </trkpt>
      <trkpt lat="46.92545" lon="8.69287">
        <ele>1848</ele>
        <time>2021-08-07T07:14:35.610Z</time>
      </trkpt>
      <trkpt lat="46.92544" lon="8.69286">
        <ele>1848</ele>
        <time>2021-08-07T07:14:36.610Z</time>
      </trkpt>
      <trkpt lat="46.92543" lon="8.69286">
        <ele>1848</ele>
        <time>2021-08-07T07:14:37.611Z</time>
      </trkpt>
      <trkpt lat="46.92542" lon="8.69287">
        <ele>1847</ele>
        <time>2021-08-07T07:14:38.611Z</time>
      </trkpt>
      <trkpt lat="46.92542" lon="8.69287">
        <ele>1847</ele>
        <time>2021-08-07T07:14:39.611Z</time>
      </trkpt>
      <trkpt lat="46.92541" lon="8.69288">
        <ele>1847</ele>
        <time>2021-08-07T07:14:40.611Z</time>
      </trkpt>
      <trkpt lat="46.92541" lon="8.69289">
        <ele>1847</ele>
        <time>2021-08-07T07:14:41.611Z</time>
      </trkpt>
      <trkpt lat="46.92541" lon="8.69289">
        <ele>1847</ele>
        <time>2021-08-07T07:14:42.610Z</time>
      </trkpt>
      <trkpt lat="46.92541" lon="8.69289">
        <ele>1847</ele>
        <time>2021-08-07T07:14:43.611Z</time>
      </trkpt>
      <trkpt lat="46.9254" lon="8.69289">
        <ele>1847</ele>
        <time>2021-08-07T07:14:44.611Z</time>
      </trkpt>
      <trkpt lat="46.92539" lon="8.69288">
        <ele>1847</ele>
        <time>2021-08-07T07:14:45.610Z</time>
      </trkpt>
      <trkpt lat="46.92538" lon="8.69287">
        <ele>1847</ele>
        <time>2021-08-07T07:14:46.611Z</time>
      </trkpt>
      <trkpt lat="46.92538" lon="8.69287">
        <ele>1847</ele>
        <time>2021-08-07T07:14:47.611Z</time>
      </trkpt>
      <trkpt lat="46.92538" lon="8.69287">
        <ele>1848</ele>
        <time>2021-08-07T07:14:48.611Z</time>
      </trkpt>
      <trkpt lat="46.92537" lon="8.69287">
        <ele>1848</ele>
        <time>2021-08-07T07:14:49.610Z</time>
      </trkpt>
      <trkpt lat="46.92537" lon="8.69287">
        <ele>1848</ele>
        <time>2021-08-07T07:14:50.611Z</time>
      </trkpt>
      <trkpt lat="46.92536" lon="8.69286">
        <ele>1849</ele>
        <time>2021-08-07T07:14:51.611Z</time>
      </trkpt>
      <trkpt lat="46.92536" lon="8.69285">
        <ele>1848</ele>
        <time>2021-08-07T07:14:52.611Z</time>
      </trkpt>
      <trkpt lat="46.92536" lon="8.69285">
        <ele>1848</ele>
        <time>2021-08-07T07:14:53.610Z</time>
      </trkpt>
      <trkpt lat="46.92536" lon="8.69285">
        <ele>1848</ele>
        <time>2021-08-07T07:14:54.610Z</time>
      </trkpt>
      <trkpt lat="46.92535" lon="8.69285">
        <ele>1848</ele>
        <time>2021-08-07T07:14:55.611Z</time>
      </trkpt>
      <trkpt lat="46.92534" lon="8.69285">
        <ele>1848</ele>
        <time>2021-08-07T07:14:56.610Z</time>
      </trkpt>
      <trkpt lat="46.92533" lon="8.69284">
        <ele>1848</ele>
        <time>2021-08-07T07:14:57.610Z</time>
      </trkpt>
      <trkpt lat="46.92533" lon="8.69285">
        <ele>1849</ele>
        <time>2021-08-07T07:14:58.610Z</time>
      </trkpt>
      <trkpt lat="46.92532" lon="8.69285">
        <ele>1849</ele>
        <time>2021-08-07T07:14:59.611Z</time>
      </trkpt>
      <trkpt lat="46.92531" lon="8.69285">
        <ele>1849</ele>
        <time>2021-08-07T07:15:00.610Z</time>
      </trkpt>
      <trkpt lat="46.9253" lon="8.69284">
        <ele>1849</ele>
        <time>2021-08-07T07:15:01.611Z</time>
      </trkpt>
      <trkpt lat="46.92529" lon="8.69283">
        <ele>1849</ele>
        <time>2021-08-07T07:15:02.611Z</time>
      </trkpt>
      <trkpt lat="46.92528" lon="8.69283">
        <ele>1848</ele>
        <time>2021-08-07T07:15:03.610Z</time>
      </trkpt>
      <trkpt lat="46.92528" lon="8.69282">
        <ele>1848</ele>
        <time>2021-08-07T07:15:04.610Z</time>
      </trkpt>
      <trkpt lat="46.92527" lon="8.69281">
        <ele>1847</ele>
        <time>2021-08-07T07:15:05.611Z</time>
      </trkpt>
      <trkpt lat="46.92526" lon="8.6928">
        <ele>1847</ele>
        <time>2021-08-07T07:15:06.611Z</time>
      </trkpt>
      <trkpt lat="46.92524" lon="8.69279">
        <ele>1847</ele>
        <time>2021-08-07T07:15:07.611Z</time>
      </trkpt>
      <trkpt lat="46.92524" lon="8.69279">
        <ele>1847</ele>
        <time>2021-08-07T07:15:08.610Z</time>
      </trkpt>
      <trkpt lat="46.92523" lon="8.69279">
        <ele>1847</ele>
        <time>2021-08-07T07:15:09.610Z</time>
      </trkpt>
      <trkpt lat="46.92523" lon="8.69279">
        <ele>1846</ele>
        <time>2021-08-07T07:15:10.610Z</time>
      </trkpt>
      <trkpt lat="46.92522" lon="8.69279">
        <ele>1846</ele>
        <time>2021-08-07T07:15:11.610Z</time>
      </trkpt>
      <trkpt lat="46.92523" lon="8.69279">
        <ele>1846</ele>
        <time>2021-08-07T07:15:12.612Z</time>
      </trkpt>
      <trkpt lat="46.92523" lon="8.6928">
        <ele>1846</ele>
        <time>2021-08-07T07:15:13.611Z</time>
      </trkpt>
      <trkpt lat="46.92523" lon="8.69279">
        <ele>1845</ele>
        <time>2021-08-07T07:15:14.612Z</time>
      </trkpt>
      <trkpt lat="46.92523" lon="8.6928">
        <ele>1845</ele>
        <time>2021-08-07T07:15:15.611Z</time>
      </trkpt>
      <trkpt lat="46.92522" lon="8.69279">
        <ele>1847</ele>
        <time>2021-08-07T07:15:16.612Z</time>
      </trkpt>
      <trkpt lat="46.92522" lon="8.69278">
        <ele>1847</ele>
        <time>2021-08-07T07:15:17.612Z</time>
      </trkpt>
      <trkpt lat="46.92522" lon="8.69277">
        <ele>1847</ele>
        <time>2021-08-07T07:15:18.611Z</time>
      </trkpt>
      <trkpt lat="46.92522" lon="8.69276">
        <ele>1848</ele>
        <time>2021-08-07T07:15:19.612Z</time>
      </trkpt>
      <trkpt lat="46.92522" lon="8.69274">
        <ele>1848</ele>
        <time>2021-08-07T07:15:20.612Z</time>
      </trkpt>
      <trkpt lat="46.92522" lon="8.69273">
        <ele>1848</ele>
        <time>2021-08-07T07:15:21.612Z</time>
      </trkpt>
      <trkpt lat="46.92521" lon="8.69272">
        <ele>1849</ele>
        <time>2021-08-07T07:15:22.612Z</time>
      </trkpt>
      <trkpt lat="46.9252" lon="8.69271">
        <ele>1849</ele>
        <time>2021-08-07T07:15:23.611Z</time>
      </trkpt>
      <trkpt lat="46.9252" lon="8.6927">
        <ele>1850</ele>
        <time>2021-08-07T07:15:24.612Z</time>
      </trkpt>
      <trkpt lat="46.92519" lon="8.6927">
        <ele>1850</ele>
        <time>2021-08-07T07:15:25.612Z</time>
      </trkpt>
      <trkpt lat="46.92519" lon="8.6927">
        <ele>1850</ele>
        <time>2021-08-07T07:15:26.612Z</time>
      </trkpt>
      <trkpt lat="46.92518" lon="8.69269">
        <ele>1850</ele>
        <time>2021-08-07T07:15:27.613Z</time>
      </trkpt>
      <trkpt lat="46.92517" lon="8.69268">
        <ele>1850</ele>
        <time>2021-08-07T07:15:28.613Z</time>
      </trkpt>
      <trkpt lat="46.92517" lon="8.69267">
        <ele>1851</ele>
        <time>2021-08-07T07:15:29.612Z</time>
      </trkpt>
      <trkpt lat="46.92517" lon="8.69267">
        <ele>1851</ele>
        <time>2021-08-07T07:15:30.613Z</time>
      </trkpt>
      <trkpt lat="46.92517" lon="8.69268">
        <ele>1851</ele>
        <time>2021-08-07T07:15:31.612Z</time>
      </trkpt>
      <trkpt lat="46.92517" lon="8.69268">
        <ele>1851</ele>
        <time>2021-08-07T07:15:32.613Z</time>
      </trkpt>
      <trkpt lat="46.92516" lon="8.69268">
        <ele>1851</ele>
        <time>2021-08-07T07:15:33.613Z</time>
      </trkpt>
      <trkpt lat="46.92515" lon="8.69267">
        <ele>1851</ele>
        <time>2021-08-07T07:15:34.612Z</time>
      </trkpt>
      <trkpt lat="46.92515" lon="8.69266">
        <ele>1851</ele>
        <time>2021-08-07T07:15:35.612Z</time>
      </trkpt>
      <trkpt lat="46.92514" lon="8.69265">
        <ele>1851</ele>
        <time>2021-08-07T07:15:36.612Z</time>
      </trkpt>
      <trkpt lat="46.92513" lon="8.69265">
        <ele>1851</ele>
        <time>2021-08-07T07:15:37.613Z</time>
      </trkpt>
      <trkpt lat="46.92513" lon="8.69264">
        <ele>1852</ele>
        <time>2021-08-07T07:15:38.613Z</time>
      </trkpt>
      <trkpt lat="46.92513" lon="8.69264">
        <ele>1852</ele>
        <time>2021-08-07T07:15:39.612Z</time>
      </trkpt>
      <trkpt lat="46.92512" lon="8.69264">
        <ele>1853</ele>
        <time>2021-08-07T07:15:40.612Z</time>
      </trkpt>
      <trkpt lat="46.92511" lon="8.69264">
        <ele>1853</ele>
        <time>2021-08-07T07:15:41.612Z</time>
      </trkpt>
      <trkpt lat="46.9251" lon="8.69264">
        <ele>1854</ele>
        <time>2021-08-07T07:15:42.612Z</time>
      </trkpt>
      <trkpt lat="46.9251" lon="8.69264">
        <ele>1854</ele>
        <time>2021-08-07T07:15:43.613Z</time>
      </trkpt>
      <trkpt lat="46.9251" lon="8.69264">
        <ele>1854</ele>
        <time>2021-08-07T07:15:44.612Z</time>
      </trkpt>
      <trkpt lat="46.92508" lon="8.69263">
        <ele>1855</ele>
        <time>2021-08-07T07:15:45.612Z</time>
      </trkpt>
      <trkpt lat="46.92507" lon="8.69262">
        <ele>1855</ele>
        <time>2021-08-07T07:15:46.612Z</time>
      </trkpt>
      <trkpt lat="46.92507" lon="8.69262">
        <ele>1856</ele>
        <time>2021-08-07T07:15:47.612Z</time>
      </trkpt>
      <trkpt lat="46.92506" lon="8.69261">
        <ele>1856</ele>
        <time>2021-08-07T07:15:48.612Z</time>
      </trkpt>
      <trkpt lat="46.92506" lon="8.6926">
        <ele>1856</ele>
        <time>2021-08-07T07:15:49.612Z</time>
      </trkpt>
      <trkpt lat="46.92505" lon="8.69261">
        <ele>1857</ele>
        <time>2021-08-07T07:15:50.612Z</time>
      </trkpt>
      <trkpt lat="46.92505" lon="8.69261">
        <ele>1857</ele>
        <time>2021-08-07T07:15:51.612Z</time>
      </trkpt>
      <trkpt lat="46.92504" lon="8.6926">
        <ele>1857</ele>
        <time>2021-08-07T07:15:52.612Z</time>
      </trkpt>
      <trkpt lat="46.92504" lon="8.6926">
        <ele>1857</ele>
        <time>2021-08-07T07:15:53.612Z</time>
      </trkpt>
      <trkpt lat="46.92503" lon="8.6926">
        <ele>1857</ele>
        <time>2021-08-07T07:15:54.613Z</time>
      </trkpt>
      <trkpt lat="46.92503" lon="8.69258">
        <ele>1857</ele>
        <time>2021-08-07T07:15:55.612Z</time>
      </trkpt>
      <trkpt lat="46.92503" lon="8.69257">
        <ele>1857</ele>
        <time>2021-08-07T07:15:56.612Z</time>
      </trkpt>
      <trkpt lat="46.92502" lon="8.69256">
        <ele>1857</ele>
        <time>2021-08-07T07:15:57.612Z</time>
      </trkpt>
      <trkpt lat="46.92502" lon="8.69255">
        <ele>1857</ele>
        <time>2021-08-07T07:15:58.613Z</time>
      </trkpt>
      <trkpt lat="46.92501" lon="8.69254">
        <ele>1857</ele>
        <time>2021-08-07T07:15:59.612Z</time>
      </trkpt>
      <trkpt lat="46.92501" lon="8.69255">
        <ele>1857</ele>
        <time>2021-08-07T07:16:00.613Z</time>
      </trkpt>
      <trkpt lat="46.92501" lon="8.69254">
        <ele>1857</ele>
        <time>2021-08-07T07:16:01.613Z</time>
      </trkpt>
      <trkpt lat="46.92501" lon="8.69254">
        <ele>1857</ele>
        <time>2021-08-07T07:16:02.612Z</time>
      </trkpt>
      <trkpt lat="46.925" lon="8.69254">
        <ele>1857</ele>
        <time>2021-08-07T07:16:03.612Z</time>
      </trkpt>
      <trkpt lat="46.92499" lon="8.69253">
        <ele>1858</ele>
        <time>2021-08-07T07:16:04.612Z</time>
      </trkpt>
      <trkpt lat="46.92498" lon="8.69253">
        <ele>1858</ele>
        <time>2021-08-07T07:16:05.613Z</time>
      </trkpt>
      <trkpt lat="46.92496" lon="8.69253">
        <ele>1858</ele>
        <time>2021-08-07T07:16:06.612Z</time>
      </trkpt>
      <trkpt lat="46.92495" lon="8.69252">
        <ele>1858</ele>
        <time>2021-08-07T07:16:07.612Z</time>
      </trkpt>
      <trkpt lat="46.92494" lon="8.69251">
        <ele>1858</ele>
        <time>2021-08-07T07:16:08.612Z</time>
      </trkpt>
      <trkpt lat="46.92493" lon="8.6925">
        <ele>1858</ele>
        <time>2021-08-07T07:16:09.613Z</time>
      </trkpt>
      <trkpt lat="46.92492" lon="8.69251">
        <ele>1858</ele>
        <time>2021-08-07T07:16:10.612Z</time>
      </trkpt>
      <trkpt lat="46.92491" lon="8.69252">
        <ele>1857</ele>
        <time>2021-08-07T07:16:11.612Z</time>
      </trkpt>
      <trkpt lat="46.9249" lon="8.69252">
        <ele>1857</ele>
        <time>2021-08-07T07:16:12.612Z</time>
      </trkpt>
      <trkpt lat="46.92489" lon="8.69252">
        <ele>1857</ele>
        <time>2021-08-07T07:16:13.612Z</time>
      </trkpt>
      <trkpt lat="46.92489" lon="8.69251">
        <ele>1857</ele>
        <time>2021-08-07T07:16:14.612Z</time>
      </trkpt>
      <trkpt lat="46.92488" lon="8.6925">
        <ele>1856</ele>
        <time>2021-08-07T07:16:15.612Z</time>
      </trkpt>
      <trkpt lat="46.92487" lon="8.6925">
        <ele>1856</ele>
        <time>2021-08-07T07:16:16.612Z</time>
      </trkpt>
      <trkpt lat="46.92486" lon="8.6925">
        <ele>1856</ele>
        <time>2021-08-07T07:16:17.612Z</time>
      </trkpt>
      <trkpt lat="46.92485" lon="8.6925">
        <ele>1856</ele>
        <time>2021-08-07T07:16:18.612Z</time>
      </trkpt>
      <trkpt lat="46.92485" lon="8.6925">
        <ele>1856</ele>
        <time>2021-08-07T07:16:19.613Z</time>
      </trkpt>
      <trkpt lat="46.92484" lon="8.69248">
        <ele>1856</ele>
        <time>2021-08-07T07:16:20.612Z</time>
      </trkpt>
      <trkpt lat="46.92483" lon="8.69248">
        <ele>1856</ele>
        <time>2021-08-07T07:16:21.612Z</time>
      </trkpt>
      <trkpt lat="46.92482" lon="8.69247">
        <ele>1856</ele>
        <time>2021-08-07T07:16:22.612Z</time>
      </trkpt>
      <trkpt lat="46.92481" lon="8.69247">
        <ele>1856</ele>
        <time>2021-08-07T07:16:23.612Z</time>
      </trkpt>
      <trkpt lat="46.9248" lon="8.69245">
        <ele>1857</ele>
        <time>2021-08-07T07:16:24.612Z</time>
      </trkpt>
      <trkpt lat="46.92479" lon="8.69244">
        <ele>1857</ele>
        <time>2021-08-07T07:16:25.613Z</time>
      </trkpt>
      <trkpt lat="46.92479" lon="8.69244">
        <ele>1857</ele>
        <time>2021-08-07T07:16:26.612Z</time>
      </trkpt>
      <trkpt lat="46.92479" lon="8.69244">
        <ele>1858</ele>
        <time>2021-08-07T07:16:27.612Z</time>
      </trkpt>
      <trkpt lat="46.92479" lon="8.69243">
        <ele>1859</ele>
        <time>2021-08-07T07:16:28.612Z</time>
      </trkpt>
      <trkpt lat="46.92478" lon="8.69242">
        <ele>1859</ele>
        <time>2021-08-07T07:16:29.613Z</time>
      </trkpt>
      <trkpt lat="46.92477" lon="8.69241">
        <ele>1859</ele>
        <time>2021-08-07T07:16:30.612Z</time>
      </trkpt>
      <trkpt lat="46.92477" lon="8.6924">
        <ele>1859</ele>
        <time>2021-08-07T07:16:31.613Z</time>
      </trkpt>
      <trkpt lat="46.92476" lon="8.6924">
        <ele>1859</ele>
        <time>2021-08-07T07:16:32.613Z</time>
      </trkpt>
      <trkpt lat="46.92475" lon="8.69239">
        <ele>1859</ele>
        <time>2021-08-07T07:16:33.613Z</time>
      </trkpt>
      <trkpt lat="46.92475" lon="8.69238">
        <ele>1859</ele>
        <time>2021-08-07T07:16:34.613Z</time>
      </trkpt>
      <trkpt lat="46.92474" lon="8.69237">
        <ele>1859</ele>
        <time>2021-08-07T07:16:35.613Z</time>
      </trkpt>
      <trkpt lat="46.92473" lon="8.69236">
        <ele>1859</ele>
        <time>2021-08-07T07:16:36.613Z</time>
      </trkpt>
      <trkpt lat="46.92472" lon="8.69236">
        <ele>1859</ele>
        <time>2021-08-07T07:16:37.613Z</time>
      </trkpt>
      <trkpt lat="46.92471" lon="8.69235">
        <ele>1859</ele>
        <time>2021-08-07T07:16:38.613Z</time>
      </trkpt>
      <trkpt lat="46.92471" lon="8.69235">
        <ele>1859</ele>
        <time>2021-08-07T07:16:39.613Z</time>
      </trkpt>
      <trkpt lat="46.9247" lon="8.69234">
        <ele>1860</ele>
        <time>2021-08-07T07:16:40.612Z</time>
      </trkpt>
      <trkpt lat="46.92469" lon="8.69234">
        <ele>1860</ele>
        <time>2021-08-07T07:16:41.612Z</time>
      </trkpt>
      <trkpt lat="46.92468" lon="8.69233">
        <ele>1860</ele>
        <time>2021-08-07T07:16:42.612Z</time>
      </trkpt>
      <trkpt lat="46.92467" lon="8.69232">
        <ele>1860</ele>
        <time>2021-08-07T07:16:43.613Z</time>
      </trkpt>
      <trkpt lat="46.92467" lon="8.69232">
        <ele>1861</ele>
        <time>2021-08-07T07:16:44.612Z</time>
      </trkpt>
      <trkpt lat="46.92466" lon="8.69232">
        <ele>1861</ele>
        <time>2021-08-07T07:16:45.613Z</time>
      </trkpt>
      <trkpt lat="46.92466" lon="8.69232">
        <ele>1861</ele>
        <time>2021-08-07T07:16:46.612Z</time>
      </trkpt>
      <trkpt lat="46.92465" lon="8.69232">
        <ele>1862</ele>
        <time>2021-08-07T07:16:47.613Z</time>
      </trkpt>
      <trkpt lat="46.92464" lon="8.69232">
        <ele>1862</ele>
        <time>2021-08-07T07:16:48.612Z</time>
      </trkpt>
      <trkpt lat="46.92464" lon="8.69232">
        <ele>1863</ele>
        <time>2021-08-07T07:16:49.613Z</time>
      </trkpt>
      <trkpt lat="46.92463" lon="8.69232">
        <ele>1863</ele>
        <time>2021-08-07T07:16:50.613Z</time>
      </trkpt>
      <trkpt lat="46.92463" lon="8.69232">
        <ele>1864</ele>
        <time>2021-08-07T07:16:51.612Z</time>
      </trkpt>
      <trkpt lat="46.92462" lon="8.69232">
        <ele>1864</ele>
        <time>2021-08-07T07:16:52.613Z</time>
      </trkpt>
      <trkpt lat="46.92461" lon="8.69232">
        <ele>1865</ele>
        <time>2021-08-07T07:16:53.612Z</time>
      </trkpt>
      <trkpt lat="46.9246" lon="8.69232">
        <ele>1865</ele>
        <time>2021-08-07T07:16:54.612Z</time>
      </trkpt>
      <trkpt lat="46.92459" lon="8.69231">
        <ele>1865</ele>
        <time>2021-08-07T07:16:55.613Z</time>
      </trkpt>
      <trkpt lat="46.92458" lon="8.69231">
        <ele>1865</ele>
        <time>2021-08-07T07:16:56.612Z</time>
      </trkpt>
      <trkpt lat="46.92457" lon="8.69231">
        <ele>1865</ele>
        <time>2021-08-07T07:16:57.613Z</time>
      </trkpt>
      <trkpt lat="46.92457" lon="8.69231">
        <ele>1866</ele>
        <time>2021-08-07T07:16:58.612Z</time>
      </trkpt>
      <trkpt lat="46.92456" lon="8.6923">
        <ele>1866</ele>
        <time>2021-08-07T07:16:59.613Z</time>
      </trkpt>
      <trkpt lat="46.92456" lon="8.6923">
        <ele>1866</ele>
        <time>2021-08-07T07:17:00.613Z</time>
      </trkpt>
      <trkpt lat="46.92455" lon="8.69229">
        <ele>1866</ele>
        <time>2021-08-07T07:17:01.612Z</time>
      </trkpt>
      <trkpt lat="46.92454" lon="8.69228">
        <ele>1866</ele>
        <time>2021-08-07T07:17:02.613Z</time>
      </trkpt>
      <trkpt lat="46.92453" lon="8.69228">
        <ele>1866</ele>
        <time>2021-08-07T07:17:03.613Z</time>
      </trkpt>
      <trkpt lat="46.92452" lon="8.69227">
        <ele>1866</ele>
        <time>2021-08-07T07:17:04.612Z</time>
      </trkpt>
      <trkpt lat="46.92451" lon="8.69226">
        <ele>1866</ele>
        <time>2021-08-07T07:17:05.612Z</time>
      </trkpt>
      <trkpt lat="46.92451" lon="8.69225">
        <ele>1866</ele>
        <time>2021-08-07T07:17:06.613Z</time>
      </trkpt>
      <trkpt lat="46.9245" lon="8.69223">
        <ele>1866</ele>
        <time>2021-08-07T07:17:07.613Z</time>
      </trkpt>
      <trkpt lat="46.92449" lon="8.69222">
        <ele>1867</ele>
        <time>2021-08-07T07:17:08.612Z</time>
      </trkpt>
      <trkpt lat="46.92449" lon="8.69221">
        <ele>1867</ele>
        <time>2021-08-07T07:17:09.612Z</time>
      </trkpt>
      <trkpt lat="46.92448" lon="8.69221">
        <ele>1867</ele>
        <time>2021-08-07T07:17:10.612Z</time>
      </trkpt>
      <trkpt lat="46.92448" lon="8.69221">
        <ele>1867</ele>
        <time>2021-08-07T07:17:11.612Z</time>
      </trkpt>
      <trkpt lat="46.92448" lon="8.69222">
        <ele>1867</ele>
        <time>2021-08-07T07:17:12.613Z</time>
      </trkpt>
      <trkpt lat="46.92447" lon="8.69221">
        <ele>1867</ele>
        <time>2021-08-07T07:17:13.612Z</time>
      </trkpt>
      <trkpt lat="46.92446" lon="8.69221">
        <ele>1867</ele>
        <time>2021-08-07T07:17:14.612Z</time>
      </trkpt>
      <trkpt lat="46.92445" lon="8.6922">
        <ele>1867</ele>
        <time>2021-08-07T07:17:15.613Z</time>
      </trkpt>
      <trkpt lat="46.92444" lon="8.6922">
        <ele>1867</ele>
        <time>2021-08-07T07:17:16.613Z</time>
      </trkpt>
      <trkpt lat="46.92444" lon="8.6922">
        <ele>1868</ele>
        <time>2021-08-07T07:17:17.613Z</time>
      </trkpt>
      <trkpt lat="46.92442" lon="8.69219">
        <ele>1868</ele>
        <time>2021-08-07T07:17:18.613Z</time>
      </trkpt>
      <trkpt lat="46.92441" lon="8.69218">
        <ele>1868</ele>
        <time>2021-08-07T07:17:19.612Z</time>
      </trkpt>
      <trkpt lat="46.92441" lon="8.69217">
        <ele>1868</ele>
        <time>2021-08-07T07:17:20.613Z</time>
      </trkpt>
      <trkpt lat="46.9244" lon="8.69217">
        <ele>1869</ele>
        <time>2021-08-07T07:17:21.613Z</time>
      </trkpt>
      <trkpt lat="46.9244" lon="8.69216">
        <ele>1869</ele>
        <time>2021-08-07T07:17:22.613Z</time>
      </trkpt>
      <trkpt lat="46.92439" lon="8.69216">
        <ele>1869</ele>
        <time>2021-08-07T07:17:23.612Z</time>
      </trkpt>
      <trkpt lat="46.92439" lon="8.69215">
        <ele>1870</ele>
        <time>2021-08-07T07:17:24.612Z</time>
      </trkpt>
      <trkpt lat="46.92438" lon="8.69214">
        <ele>1870</ele>
        <time>2021-08-07T07:17:25.613Z</time>
      </trkpt>
      <trkpt lat="46.92437" lon="8.69213">
        <ele>1870</ele>
        <time>2021-08-07T07:17:26.613Z</time>
      </trkpt>
      <trkpt lat="46.92437" lon="8.69213">
        <ele>1870</ele>
        <time>2021-08-07T07:17:27.613Z</time>
      </trkpt>
      <trkpt lat="46.92436" lon="8.69213">
        <ele>1871</ele>
        <time>2021-08-07T07:17:28.612Z</time>
      </trkpt>
      <trkpt lat="46.92436" lon="8.69213">
        <ele>1871</ele>
        <time>2021-08-07T07:17:29.612Z</time>
      </trkpt>
      <trkpt lat="46.92435" lon="8.69213">
        <ele>1871</ele>
        <time>2021-08-07T07:17:30.612Z</time>
      </trkpt>
      <trkpt lat="46.92435" lon="8.69213">
        <ele>1872</ele>
        <time>2021-08-07T07:17:31.613Z</time>
      </trkpt>
      <trkpt lat="46.92434" lon="8.69213">
        <ele>1872</ele>
        <time>2021-08-07T07:17:32.612Z</time>
      </trkpt>
      <trkpt lat="46.92434" lon="8.69212">
        <ele>1872</ele>
        <time>2021-08-07T07:17:33.612Z</time>
      </trkpt>
      <trkpt lat="46.92433" lon="8.69212">
        <ele>1872</ele>
        <time>2021-08-07T07:17:34.613Z</time>
      </trkpt>
      <trkpt lat="46.92433" lon="8.69212">
        <ele>1871</ele>
        <time>2021-08-07T07:17:35.613Z</time>
      </trkpt>
      <trkpt lat="46.92431" lon="8.6921">
        <ele>1868</ele>
        <time>2021-08-07T07:17:36.613Z</time>
      </trkpt>
      <trkpt lat="46.92432" lon="8.6921">
        <ele>1868</ele>
        <time>2021-08-07T07:17:37.612Z</time>
      </trkpt>
      <trkpt lat="46.92432" lon="8.69209">
        <ele>1864</ele>
        <time>2021-08-07T07:17:38.613Z</time>
      </trkpt>
      <trkpt lat="46.92432" lon="8.69209">
        <ele>1863</ele>
        <time>2021-08-07T07:17:39.613Z</time>
      </trkpt>
      <trkpt lat="46.92432" lon="8.69209">
        <ele>1862</ele>
        <time>2021-08-07T07:17:40.612Z</time>
      </trkpt>
      <trkpt lat="46.92431" lon="8.69209">
        <ele>1862</ele>
        <time>2021-08-07T07:17:41.612Z</time>
      </trkpt>
      <trkpt lat="46.92431" lon="8.69208">
        <ele>1862</ele>
        <time>2021-08-07T07:17:42.612Z</time>
      </trkpt>
      <trkpt lat="46.9243" lon="8.69208">
        <ele>1862</ele>
        <time>2021-08-07T07:17:43.613Z</time>
      </trkpt>
      <trkpt lat="46.9243" lon="8.69208">
        <ele>1862</ele>
        <time>2021-08-07T07:17:44.613Z</time>
      </trkpt>
      <trkpt lat="46.9243" lon="8.69208">
        <ele>1862</ele>
        <time>2021-08-07T07:17:45.613Z</time>
      </trkpt>
      <trkpt lat="46.92428" lon="8.69207">
        <ele>1860</ele>
        <time>2021-08-07T07:17:46.613Z</time>
      </trkpt>
      <trkpt lat="46.92428" lon="8.69206">
        <ele>1860</ele>
        <time>2021-08-07T07:17:47.614Z</time>
      </trkpt>
      <trkpt lat="46.92427" lon="8.69206">
        <ele>1859</ele>
        <time>2021-08-07T07:17:48.613Z</time>
      </trkpt>
      <trkpt lat="46.92427" lon="8.69206">
        <ele>1859</ele>
        <time>2021-08-07T07:17:49.613Z</time>
      </trkpt>
      <trkpt lat="46.92427" lon="8.69206">
        <ele>1859</ele>
        <time>2021-08-07T07:17:50.613Z</time>
      </trkpt>
      <trkpt lat="46.92426" lon="8.69207">
        <ele>1859</ele>
        <time>2021-08-07T07:17:51.614Z</time>
      </trkpt>
      <trkpt lat="46.92425" lon="8.69207">
        <ele>1859</ele>
        <time>2021-08-07T07:17:52.614Z</time>
      </trkpt>
      <trkpt lat="46.92425" lon="8.69207">
        <ele>1859</ele>
        <time>2021-08-07T07:17:53.614Z</time>
      </trkpt>
      <trkpt lat="46.92424" lon="8.69207">
        <ele>1860</ele>
        <time>2021-08-07T07:17:54.613Z</time>
      </trkpt>
      <trkpt lat="46.92423" lon="8.69206">
        <ele>1860</ele>
        <time>2021-08-07T07:17:55.614Z</time>
      </trkpt>
      <trkpt lat="46.92422" lon="8.69205">
        <ele>1860</ele>
        <time>2021-08-07T07:17:56.614Z</time>
      </trkpt>
      <trkpt lat="46.92422" lon="8.69205">
        <ele>1860</ele>
        <time>2021-08-07T07:17:57.613Z</time>
      </trkpt>
      <trkpt lat="46.92421" lon="8.69205">
        <ele>1860</ele>
        <time>2021-08-07T07:17:58.614Z</time>
      </trkpt>
      <trkpt lat="46.92421" lon="8.69205">
        <ele>1860</ele>
        <time>2021-08-07T07:17:59.613Z</time>
      </trkpt>
      <trkpt lat="46.9242" lon="8.69204">
        <ele>1861</ele>
        <time>2021-08-07T07:18:00.614Z</time>
      </trkpt>
      <trkpt lat="46.92418" lon="8.69204">
        <ele>1861</ele>
        <time>2021-08-07T07:18:01.614Z</time>
      </trkpt>
      <trkpt lat="46.92417" lon="8.69203">
        <ele>1861</ele>
        <time>2021-08-07T07:18:02.614Z</time>
      </trkpt>
      <trkpt lat="46.92416" lon="8.69203">
        <ele>1861</ele>
        <time>2021-08-07T07:18:03.613Z</time>
      </trkpt>
      <trkpt lat="46.92416" lon="8.69203">
        <ele>1861</ele>
        <time>2021-08-07T07:18:04.614Z</time>
      </trkpt>
      <trkpt lat="46.92415" lon="8.69202">
        <ele>1861</ele>
        <time>2021-08-07T07:18:05.614Z</time>
      </trkpt>
      <trkpt lat="46.92414" lon="8.69202">
        <ele>1861</ele>
        <time>2021-08-07T07:18:06.613Z</time>
      </trkpt>
      <trkpt lat="46.92414" lon="8.69201">
        <ele>1861</ele>
        <time>2021-08-07T07:18:07.614Z</time>
      </trkpt>
      <trkpt lat="46.92413" lon="8.692">
        <ele>1861</ele>
        <time>2021-08-07T07:18:08.614Z</time>
      </trkpt>
      <trkpt lat="46.92413" lon="8.69199">
        <ele>1861</ele>
        <time>2021-08-07T07:18:09.613Z</time>
      </trkpt>
      <trkpt lat="46.92412" lon="8.69198">
        <ele>1862</ele>
        <time>2021-08-07T07:18:10.614Z</time>
      </trkpt>
      <trkpt lat="46.92412" lon="8.69197">
        <ele>1862</ele>
        <time>2021-08-07T07:18:11.613Z</time>
      </trkpt>
      <trkpt lat="46.92411" lon="8.69196">
        <ele>1862</ele>
        <time>2021-08-07T07:18:12.614Z</time>
      </trkpt>
      <trkpt lat="46.92411" lon="8.69195">
        <ele>1862</ele>
        <time>2021-08-07T07:18:13.613Z</time>
      </trkpt>
      <trkpt lat="46.92411" lon="8.69194">
        <ele>1862</ele>
        <time>2021-08-07T07:18:14.614Z</time>
      </trkpt>
      <trkpt lat="46.9241" lon="8.69193">
        <ele>1862</ele>
        <time>2021-08-07T07:18:15.613Z</time>
      </trkpt>
      <trkpt lat="46.9241" lon="8.69193">
        <ele>1862</ele>
        <time>2021-08-07T07:18:16.613Z</time>
      </trkpt>
      <trkpt lat="46.92409" lon="8.69194">
        <ele>1862</ele>
        <time>2021-08-07T07:18:17.613Z</time>
      </trkpt>
      <trkpt lat="46.92409" lon="8.69194">
        <ele>1862</ele>
        <time>2021-08-07T07:18:18.614Z</time>
      </trkpt>
      <trkpt lat="46.92408" lon="8.69193">
        <ele>1862</ele>
        <time>2021-08-07T07:18:19.614Z</time>
      </trkpt>
      <trkpt lat="46.92408" lon="8.69193">
        <ele>1862</ele>
        <time>2021-08-07T07:18:20.613Z</time>
      </trkpt>
      <trkpt lat="46.92407" lon="8.69192">
        <ele>1862</ele>
        <time>2021-08-07T07:18:21.613Z</time>
      </trkpt>
      <trkpt lat="46.92407" lon="8.69191">
        <ele>1862</ele>
        <time>2021-08-07T07:18:22.613Z</time>
      </trkpt>
      <trkpt lat="46.92406" lon="8.6919">
        <ele>1862</ele>
        <time>2021-08-07T07:18:23.614Z</time>
      </trkpt>
      <trkpt lat="46.92406" lon="8.69189">
        <ele>1862</ele>
        <time>2021-08-07T07:18:24.613Z</time>
      </trkpt>
      <trkpt lat="46.92405" lon="8.69189">
        <ele>1862</ele>
        <time>2021-08-07T07:18:25.614Z</time>
      </trkpt>
      <trkpt lat="46.92405" lon="8.69188">
        <ele>1862</ele>
        <time>2021-08-07T07:18:26.614Z</time>
      </trkpt>
      <trkpt lat="46.92405" lon="8.69187">
        <ele>1862</ele>
        <time>2021-08-07T07:18:27.613Z</time>
      </trkpt>
      <trkpt lat="46.92404" lon="8.69185">
        <ele>1862</ele>
        <time>2021-08-07T07:18:28.613Z</time>
      </trkpt>
      <trkpt lat="46.92403" lon="8.69185">
        <ele>1862</ele>
        <time>2021-08-07T07:18:29.614Z</time>
      </trkpt>
      <trkpt lat="46.92403" lon="8.69184">
        <ele>1862</ele>
        <time>2021-08-07T07:18:30.613Z</time>
      </trkpt>
      <trkpt lat="46.92403" lon="8.69184">
        <ele>1862</ele>
        <time>2021-08-07T07:18:31.614Z</time>
      </trkpt>
      <trkpt lat="46.92403" lon="8.69183">
        <ele>1862</ele>
        <time>2021-08-07T07:18:32.614Z</time>
      </trkpt>
      <trkpt lat="46.92403" lon="8.69182">
        <ele>1862</ele>
        <time>2021-08-07T07:18:33.614Z</time>
      </trkpt>
      <trkpt lat="46.92404" lon="8.69181">
        <ele>1862</ele>
        <time>2021-08-07T07:18:34.613Z</time>
      </trkpt>
      <trkpt lat="46.92403" lon="8.69181">
        <ele>1862</ele>
        <time>2021-08-07T07:18:35.613Z</time>
      </trkpt>
      <trkpt lat="46.92402" lon="8.6918">
        <ele>1862</ele>
        <time>2021-08-07T07:18:36.613Z</time>
      </trkpt>
      <trkpt lat="46.92403" lon="8.69176">
        <ele>1861</ele>
        <time>2021-08-07T07:18:37.615Z</time>
      </trkpt>
      <trkpt lat="46.92404" lon="8.69175">
        <ele>1861</ele>
        <time>2021-08-07T07:18:38.615Z</time>
      </trkpt>
      <trkpt lat="46.92404" lon="8.69174">
        <ele>1861</ele>
        <time>2021-08-07T07:18:39.614Z</time>
      </trkpt>
      <trkpt lat="46.92404" lon="8.69175">
        <ele>1861</ele>
        <time>2021-08-07T07:18:40.615Z</time>
      </trkpt>
      <trkpt lat="46.92403" lon="8.69175">
        <ele>1860</ele>
        <time>2021-08-07T07:18:41.615Z</time>
      </trkpt>
      <trkpt lat="46.92404" lon="8.69172">
        <ele>1860</ele>
        <time>2021-08-07T07:18:42.614Z</time>
      </trkpt>
      <trkpt lat="46.92404" lon="8.69171">
        <ele>1860</ele>
        <time>2021-08-07T07:18:43.614Z</time>
      </trkpt>
      <trkpt lat="46.92405" lon="8.6917">
        <ele>1860</ele>
        <time>2021-08-07T07:18:44.615Z</time>
      </trkpt>
      <trkpt lat="46.92405" lon="8.69169">
        <ele>1859</ele>
        <time>2021-08-07T07:18:45.615Z</time>
      </trkpt>
      <trkpt lat="46.92405" lon="8.69168">
        <ele>1859</ele>
        <time>2021-08-07T07:18:46.615Z</time>
      </trkpt>
      <trkpt lat="46.92404" lon="8.69168">
        <ele>1859</ele>
        <time>2021-08-07T07:18:47.615Z</time>
      </trkpt>
      <trkpt lat="46.92404" lon="8.69167">
        <ele>1859</ele>
        <time>2021-08-07T07:18:48.615Z</time>
      </trkpt>
      <trkpt lat="46.92403" lon="8.69167">
        <ele>1859</ele>
        <time>2021-08-07T07:18:49.615Z</time>
      </trkpt>
      <trkpt lat="46.92403" lon="8.69167">
        <ele>1859</ele>
        <time>2021-08-07T07:18:50.614Z</time>
      </trkpt>
      <trkpt lat="46.92402" lon="8.69166">
        <ele>1859</ele>
        <time>2021-08-07T07:18:51.614Z</time>
      </trkpt>
      <trkpt lat="46.92402" lon="8.69166">
        <ele>1859</ele>
        <time>2021-08-07T07:18:52.615Z</time>
      </trkpt>
      <trkpt lat="46.92401" lon="8.69165">
        <ele>1859</ele>
        <time>2021-08-07T07:18:53.615Z</time>
      </trkpt>
      <trkpt lat="46.924" lon="8.69165">
        <ele>1859</ele>
        <time>2021-08-07T07:18:54.614Z</time>
      </trkpt>
      <trkpt lat="46.924" lon="8.69164">
        <ele>1858</ele>
        <time>2021-08-07T07:18:55.615Z</time>
      </trkpt>
      <trkpt lat="46.924" lon="8.69163">
        <ele>1858</ele>
        <time>2021-08-07T07:18:56.615Z</time>
      </trkpt>
      <trkpt lat="46.924" lon="8.69163">
        <ele>1858</ele>
        <time>2021-08-07T07:18:57.615Z</time>
      </trkpt>
      <trkpt lat="46.92399" lon="8.69163">
        <ele>1858</ele>
        <time>2021-08-07T07:18:58.614Z</time>
      </trkpt>
      <trkpt lat="46.92397" lon="8.69163">
        <ele>1858</ele>
        <time>2021-08-07T07:18:59.615Z</time>
      </trkpt>
      <trkpt lat="46.92397" lon="8.69163">
        <ele>1858</ele>
        <time>2021-08-07T07:19:00.615Z</time>
      </trkpt>
      <trkpt lat="46.92396" lon="8.69162">
        <ele>1858</ele>
        <time>2021-08-07T07:19:01.614Z</time>
      </trkpt>
      <trkpt lat="46.92396" lon="8.69161">
        <ele>1857</ele>
        <time>2021-08-07T07:19:02.615Z</time>
      </trkpt>
      <trkpt lat="46.92396" lon="8.6916">
        <ele>1857</ele>
        <time>2021-08-07T07:19:03.615Z</time>
      </trkpt>
      <trkpt lat="46.92396" lon="8.69159">
        <ele>1857</ele>
        <time>2021-08-07T07:19:04.614Z</time>
      </trkpt>
      <trkpt lat="46.92396" lon="8.69158">
        <ele>1857</ele>
        <time>2021-08-07T07:19:05.615Z</time>
      </trkpt>
      <trkpt lat="46.92395" lon="8.69159">
        <ele>1857</ele>
        <time>2021-08-07T07:19:06.614Z</time>
      </trkpt>
      <trkpt lat="46.92394" lon="8.69159">
        <ele>1857</ele>
        <time>2021-08-07T07:19:07.614Z</time>
      </trkpt>
      <trkpt lat="46.92394" lon="8.69158">
        <ele>1857</ele>
        <time>2021-08-07T07:19:08.614Z</time>
      </trkpt>
      <trkpt lat="46.92394" lon="8.69158">
        <ele>1857</ele>
        <time>2021-08-07T07:19:09.614Z</time>
      </trkpt>
      <trkpt lat="46.92394" lon="8.69157">
        <ele>1856</ele>
        <time>2021-08-07T07:19:10.615Z</time>
      </trkpt>
      <trkpt lat="46.92393" lon="8.69157">
        <ele>1856</ele>
        <time>2021-08-07T07:19:11.615Z</time>
      </trkpt>
      <trkpt lat="46.92392" lon="8.69156">
        <ele>1857</ele>
        <time>2021-08-07T07:19:12.615Z</time>
      </trkpt>
      <trkpt lat="46.92391" lon="8.69156">
        <ele>1857</ele>
        <time>2021-08-07T07:19:13.614Z</time>
      </trkpt>
      <trkpt lat="46.9239" lon="8.69156">
        <ele>1857</ele>
        <time>2021-08-07T07:19:14.615Z</time>
      </trkpt>
      <trkpt lat="46.92389" lon="8.69155">
        <ele>1857</ele>
        <time>2021-08-07T07:19:15.615Z</time>
      </trkpt>
      <trkpt lat="46.92389" lon="8.69154">
        <ele>1858</ele>
        <time>2021-08-07T07:19:16.615Z</time>
      </trkpt>
      <trkpt lat="46.92388" lon="8.69154">
        <ele>1858</ele>
        <time>2021-08-07T07:19:17.615Z</time>
      </trkpt>
      <trkpt lat="46.92387" lon="8.69154">
        <ele>1858</ele>
        <time>2021-08-07T07:19:18.615Z</time>
      </trkpt>
      <trkpt lat="46.92387" lon="8.69154">
        <ele>1858</ele>
        <time>2021-08-07T07:19:19.614Z</time>
      </trkpt>
      <trkpt lat="46.92387" lon="8.69154">
        <ele>1858</ele>
        <time>2021-08-07T07:19:20.614Z</time>
      </trkpt>
      <trkpt lat="46.92387" lon="8.69154">
        <ele>1858</ele>
        <time>2021-08-07T07:19:21.615Z</time>
      </trkpt>
      <trkpt lat="46.92386" lon="8.69154">
        <ele>1857</ele>
        <time>2021-08-07T07:19:22.616Z</time>
      </trkpt>
      <trkpt lat="46.92385" lon="8.69153">
        <ele>1857</ele>
        <time>2021-08-07T07:19:23.615Z</time>
      </trkpt>
      <trkpt lat="46.92384" lon="8.69153">
        <ele>1856</ele>
        <time>2021-08-07T07:19:24.615Z</time>
      </trkpt>
      <trkpt lat="46.92383" lon="8.69153">
        <ele>1856</ele>
        <time>2021-08-07T07:19:25.615Z</time>
      </trkpt>
      <trkpt lat="46.92383" lon="8.69153">
        <ele>1855</ele>
        <time>2021-08-07T07:19:26.615Z</time>
      </trkpt>
      <trkpt lat="46.92382" lon="8.69154">
        <ele>1855</ele>
        <time>2021-08-07T07:19:27.615Z</time>
      </trkpt>
      <trkpt lat="46.92378" lon="8.69157">
        <ele>1859</ele>
        <time>2021-08-07T07:19:28.617Z</time>
      </trkpt>
      <trkpt lat="46.92377" lon="8.69157">
        <ele>1859</ele>
        <time>2021-08-07T07:19:29.616Z</time>
      </trkpt>
      <trkpt lat="46.92377" lon="8.69156">
        <ele>1860</ele>
        <time>2021-08-07T07:19:30.617Z</time>
      </trkpt>
      <trkpt lat="46.92376" lon="8.69157">
        <ele>1860</ele>
        <time>2021-08-07T07:19:31.617Z</time>
      </trkpt>
      <trkpt lat="46.92376" lon="8.69158">
        <ele>1858</ele>
        <time>2021-08-07T07:19:32.617Z</time>
      </trkpt>
      <trkpt lat="46.92376" lon="8.69159">
        <ele>1858</ele>
        <time>2021-08-07T07:19:33.617Z</time>
      </trkpt>
      <trkpt lat="46.92376" lon="8.6916">
        <ele>1858</ele>
        <time>2021-08-07T07:19:34.616Z</time>
      </trkpt>
      <trkpt lat="46.92373" lon="8.69161">
        <ele>1857</ele>
        <time>2021-08-07T07:19:35.616Z</time>
      </trkpt>
      <trkpt lat="46.92373" lon="8.69161">
        <ele>1856</ele>
        <time>2021-08-07T07:19:36.617Z</time>
      </trkpt>
      <trkpt lat="46.92372" lon="8.6916">
        <ele>1856</ele>
        <time>2021-08-07T07:19:37.617Z</time>
      </trkpt>
      <trkpt lat="46.92372" lon="8.6916">
        <ele>1856</ele>
        <time>2021-08-07T07:19:38.617Z</time>
      </trkpt>
      <trkpt lat="46.92371" lon="8.69159">
        <ele>1856</ele>
        <time>2021-08-07T07:19:39.617Z</time>
      </trkpt>
      <trkpt lat="46.9237" lon="8.69158">
        <ele>1857</ele>
        <time>2021-08-07T07:19:40.616Z</time>
      </trkpt>
      <trkpt lat="46.92369" lon="8.69158">
        <ele>1857</ele>
        <time>2021-08-07T07:19:41.616Z</time>
      </trkpt>
      <trkpt lat="46.92368" lon="8.69158">
        <ele>1857</ele>
        <time>2021-08-07T07:19:42.617Z</time>
      </trkpt>
      <trkpt lat="46.92368" lon="8.6916">
        <ele>1857</ele>
        <time>2021-08-07T07:19:43.616Z</time>
      </trkpt>
      <trkpt lat="46.92367" lon="8.6916">
        <ele>1856</ele>
        <time>2021-08-07T07:19:44.617Z</time>
      </trkpt>
      <trkpt lat="46.92365" lon="8.69159">
        <ele>1855</ele>
        <time>2021-08-07T07:19:45.618Z</time>
      </trkpt>
      <trkpt lat="46.92364" lon="8.69159">
        <ele>1855</ele>
        <time>2021-08-07T07:19:46.617Z</time>
      </trkpt>
      <trkpt lat="46.92364" lon="8.6916">
        <ele>1855</ele>
        <time>2021-08-07T07:19:47.618Z</time>
      </trkpt>
      <trkpt lat="46.92363" lon="8.6916">
        <ele>1855</ele>
        <time>2021-08-07T07:19:48.618Z</time>
      </trkpt>
      <trkpt lat="46.92363" lon="8.69161">
        <ele>1855</ele>
        <time>2021-08-07T07:19:49.618Z</time>
      </trkpt>
      <trkpt lat="46.92362" lon="8.69161">
        <ele>1855</ele>
        <time>2021-08-07T07:19:50.618Z</time>
      </trkpt>
      <trkpt lat="46.92361" lon="8.69161">
        <ele>1855</ele>
        <time>2021-08-07T07:19:51.617Z</time>
      </trkpt>
      <trkpt lat="46.9236" lon="8.69161">
        <ele>1855</ele>
        <time>2021-08-07T07:19:52.617Z</time>
      </trkpt>
      <trkpt lat="46.9236" lon="8.69161">
        <ele>1856</ele>
        <time>2021-08-07T07:19:53.617Z</time>
      </trkpt>
      <trkpt lat="46.92358" lon="8.69161">
        <ele>1856</ele>
        <time>2021-08-07T07:19:54.617Z</time>
      </trkpt>
      <trkpt lat="46.92358" lon="8.6916">
        <ele>1856</ele>
        <time>2021-08-07T07:19:55.617Z</time>
      </trkpt>
      <trkpt lat="46.92357" lon="8.6916">
        <ele>1857</ele>
        <time>2021-08-07T07:19:56.618Z</time>
      </trkpt>
      <trkpt lat="46.92357" lon="8.6916">
        <ele>1858</ele>
        <time>2021-08-07T07:19:57.618Z</time>
      </trkpt>
      <trkpt lat="46.92356" lon="8.6916">
        <ele>1859</ele>
        <time>2021-08-07T07:19:58.617Z</time>
      </trkpt>
      <trkpt lat="46.92356" lon="8.6916">
        <ele>1860</ele>
        <time>2021-08-07T07:19:59.617Z</time>
      </trkpt>
      <trkpt lat="46.92356" lon="8.69159">
        <ele>1863</ele>
        <time>2021-08-07T07:20:00.619Z</time>
      </trkpt>
      <trkpt lat="46.92356" lon="8.69159">
        <ele>1864</ele>
        <time>2021-08-07T07:20:01.619Z</time>
      </trkpt>
      <trkpt lat="46.92356" lon="8.69157">
        <ele>1864</ele>
        <time>2021-08-07T07:20:02.620Z</time>
      </trkpt>
      <trkpt lat="46.92356" lon="8.69156">
        <ele>1865</ele>
        <time>2021-08-07T07:20:03.619Z</time>
      </trkpt>
      <trkpt lat="46.92356" lon="8.69155">
        <ele>1865</ele>
        <time>2021-08-07T07:20:04.619Z</time>
      </trkpt>
      <trkpt lat="46.92355" lon="8.69155">
        <ele>1865</ele>
        <time>2021-08-07T07:20:05.620Z</time>
      </trkpt>
      <trkpt lat="46.92354" lon="8.69154">
        <ele>1865</ele>
        <time>2021-08-07T07:20:06.620Z</time>
      </trkpt>
      <trkpt lat="46.92354" lon="8.69153">
        <ele>1866</ele>
        <time>2021-08-07T07:20:07.620Z</time>
      </trkpt>
      <trkpt lat="46.92353" lon="8.69153">
        <ele>1865</ele>
        <time>2021-08-07T07:20:08.620Z</time>
      </trkpt>
      <trkpt lat="46.92353" lon="8.69153">
        <ele>1865</ele>
        <time>2021-08-07T07:20:09.620Z</time>
      </trkpt>
      <trkpt lat="46.92352" lon="8.69153">
        <ele>1865</ele>
        <time>2021-08-07T07:20:10.620Z</time>
      </trkpt>
      <trkpt lat="46.92351" lon="8.69152">
        <ele>1865</ele>
        <time>2021-08-07T07:20:11.619Z</time>
      </trkpt>
      <trkpt lat="46.92349" lon="8.69151">
        <ele>1865</ele>
        <time>2021-08-07T07:20:12.620Z</time>
      </trkpt>
      <trkpt lat="46.92349" lon="8.69152">
        <ele>1865</ele>
        <time>2021-08-07T07:20:13.619Z</time>
      </trkpt>
      <trkpt lat="46.92348" lon="8.69152">
        <ele>1864</ele>
        <time>2021-08-07T07:20:14.619Z</time>
      </trkpt>
      <trkpt lat="46.92347" lon="8.69151">
        <ele>1864</ele>
        <time>2021-08-07T07:20:15.620Z</time>
      </trkpt>
      <trkpt lat="46.92347" lon="8.69152">
        <ele>1863</ele>
        <time>2021-08-07T07:20:16.620Z</time>
      </trkpt>
      <trkpt lat="46.92348" lon="8.69152">
        <ele>1863</ele>
        <time>2021-08-07T07:20:17.619Z</time>
      </trkpt>
      <trkpt lat="46.92347" lon="8.6915">
        <ele>1862</ele>
        <time>2021-08-07T07:20:18.620Z</time>
      </trkpt>
      <trkpt lat="46.92347" lon="8.69149">
        <ele>1862</ele>
        <time>2021-08-07T07:20:19.619Z</time>
      </trkpt>
      <trkpt lat="46.92346" lon="8.69148">
        <ele>1862</ele>
        <time>2021-08-07T07:20:20.619Z</time>
      </trkpt>
      <trkpt lat="46.92346" lon="8.69147">
        <ele>1861</ele>
        <time>2021-08-07T07:20:21.620Z</time>
      </trkpt>
      <trkpt lat="46.92345" lon="8.69145">
        <ele>1861</ele>
        <time>2021-08-07T07:20:22.619Z</time>
      </trkpt>
      <trkpt lat="46.92345" lon="8.69146">
        <ele>1861</ele>
        <time>2021-08-07T07:20:23.620Z</time>
      </trkpt>
      <trkpt lat="46.92345" lon="8.69146">
        <ele>1861</ele>
        <time>2021-08-07T07:20:24.620Z</time>
      </trkpt>
      <trkpt lat="46.92344" lon="8.69146">
        <ele>1861</ele>
        <time>2021-08-07T07:20:25.619Z</time>
      </trkpt>
      <trkpt lat="46.92346" lon="8.69147">
        <ele>1861</ele>
        <time>2021-08-07T07:20:26.620Z</time>
      </trkpt>
      <trkpt lat="46.92347" lon="8.69146">
        <ele>1861</ele>
        <time>2021-08-07T07:20:27.620Z</time>
      </trkpt>
      <trkpt lat="46.92347" lon="8.69146">
        <ele>1862</ele>
        <time>2021-08-07T07:20:28.620Z</time>
      </trkpt>
      <trkpt lat="46.92346" lon="8.69145">
        <ele>1862</ele>
        <time>2021-08-07T07:20:29.620Z</time>
      </trkpt>
      <trkpt lat="46.92346" lon="8.69145">
        <ele>1863</ele>
        <time>2021-08-07T07:20:30.620Z</time>
      </trkpt>
      <trkpt lat="46.92345" lon="8.69145">
        <ele>1863</ele>
        <time>2021-08-07T07:20:31.619Z</time>
      </trkpt>
      <trkpt lat="46.92345" lon="8.69145">
        <ele>1863</ele>
        <time>2021-08-07T07:20:32.619Z</time>
      </trkpt>
      <trkpt lat="46.92344" lon="8.69145">
        <ele>1866</ele>
        <time>2021-08-07T07:20:33.621Z</time>
      </trkpt>
      <trkpt lat="46.92344" lon="8.69145">
        <ele>1866</ele>
        <time>2021-08-07T07:20:34.620Z</time>
      </trkpt>
      <trkpt lat="46.92343" lon="8.69144">
        <ele>1866</ele>
        <time>2021-08-07T07:20:35.621Z</time>
      </trkpt>
      <trkpt lat="46.92342" lon="8.69143">
        <ele>1867</ele>
        <time>2021-08-07T07:20:36.621Z</time>
      </trkpt>
      <trkpt lat="46.92341" lon="8.69141">
        <ele>1867</ele>
        <time>2021-08-07T07:20:37.621Z</time>
      </trkpt>
      <trkpt lat="46.92341" lon="8.69141">
        <ele>1868</ele>
        <time>2021-08-07T07:20:38.620Z</time>
      </trkpt>
      <trkpt lat="46.92341" lon="8.69141">
        <ele>1869</ele>
        <time>2021-08-07T07:20:39.622Z</time>
      </trkpt>
      <trkpt lat="46.92341" lon="8.69141">
        <ele>1870</ele>
        <time>2021-08-07T07:20:40.623Z</time>
      </trkpt>
      <trkpt lat="46.92341" lon="8.69141">
        <ele>1870</ele>
        <time>2021-08-07T07:20:41.622Z</time>
      </trkpt>
      <trkpt lat="46.92341" lon="8.69141">
        <ele>1871</ele>
        <time>2021-08-07T07:20:42.623Z</time>
      </trkpt>
      <trkpt lat="46.9234" lon="8.69139">
        <ele>1873</ele>
        <time>2021-08-07T07:20:43.623Z</time>
      </trkpt>
      <trkpt lat="46.9234" lon="8.69138">
        <ele>1873</ele>
        <time>2021-08-07T07:20:44.623Z</time>
      </trkpt>
      <trkpt lat="46.9234" lon="8.69138">
        <ele>1873</ele>
        <time>2021-08-07T07:20:45.623Z</time>
      </trkpt>
      <trkpt lat="46.92339" lon="8.69139">
        <ele>1871</ele>
        <time>2021-08-07T07:20:46.624Z</time>
      </trkpt>
      <trkpt lat="46.92338" lon="8.69139">
        <ele>1870</ele>
        <time>2021-08-07T07:20:47.624Z</time>
      </trkpt>
      <trkpt lat="46.92338" lon="8.69138">
        <ele>1870</ele>
        <time>2021-08-07T07:20:48.623Z</time>
      </trkpt>
      <trkpt lat="46.92337" lon="8.69138">
        <ele>1869</ele>
        <time>2021-08-07T07:20:49.623Z</time>
      </trkpt>
      <trkpt lat="46.92337" lon="8.69137">
        <ele>1869</ele>
        <time>2021-08-07T07:20:50.623Z</time>
      </trkpt>
      <trkpt lat="46.92337" lon="8.69137">
        <ele>1868</ele>
        <time>2021-08-07T07:20:51.623Z</time>
      </trkpt>
      <trkpt lat="46.92336" lon="8.69137">
        <ele>1868</ele>
        <time>2021-08-07T07:20:52.623Z</time>
      </trkpt>
      <trkpt lat="46.92335" lon="8.69136">
        <ele>1869</ele>
        <time>2021-08-07T07:20:53.623Z</time>
      </trkpt>
      <trkpt lat="46.92334" lon="8.69135">
        <ele>1869</ele>
        <time>2021-08-07T07:20:54.623Z</time>
      </trkpt>
      <trkpt lat="46.92333" lon="8.69134">
        <ele>1869</ele>
        <time>2021-08-07T07:20:55.623Z</time>
      </trkpt>
      <trkpt lat="46.92333" lon="8.69134">
        <ele>1869</ele>
        <time>2021-08-07T07:20:56.623Z</time>
      </trkpt>
      <trkpt lat="46.92332" lon="8.69133">
        <ele>1870</ele>
        <time>2021-08-07T07:20:57.623Z</time>
      </trkpt>
      <trkpt lat="46.92331" lon="8.69133">
        <ele>1870</ele>
        <time>2021-08-07T07:20:58.623Z</time>
      </trkpt>
      <trkpt lat="46.92331" lon="8.69133">
        <ele>1871</ele>
        <time>2021-08-07T07:20:59.623Z</time>
      </trkpt>
      <trkpt lat="46.9233" lon="8.69133">
        <ele>1872</ele>
        <time>2021-08-07T07:21:00.623Z</time>
      </trkpt>
      <trkpt lat="46.9233" lon="8.69133">
        <ele>1872</ele>
        <time>2021-08-07T07:21:01.623Z</time>
      </trkpt>
      <trkpt lat="46.92329" lon="8.69133">
        <ele>1872</ele>
        <time>2021-08-07T07:21:02.623Z</time>
      </trkpt>
      <trkpt lat="46.92329" lon="8.69133">
        <ele>1873</ele>
        <time>2021-08-07T07:21:03.624Z</time>
      </trkpt>
      <trkpt lat="46.92328" lon="8.69133">
        <ele>1873</ele>
        <time>2021-08-07T07:21:04.623Z</time>
      </trkpt>
      <trkpt lat="46.92327" lon="8.69131">
        <ele>1873</ele>
        <time>2021-08-07T07:21:05.623Z</time>
      </trkpt>
      <trkpt lat="46.92326" lon="8.69131">
        <ele>1873</ele>
        <time>2021-08-07T07:21:06.624Z</time>
      </trkpt>
      <trkpt lat="46.92325" lon="8.69131">
        <ele>1873</ele>
        <time>2021-08-07T07:21:07.624Z</time>
      </trkpt>
      <trkpt lat="46.92324" lon="8.6913">
        <ele>1873</ele>
        <time>2021-08-07T07:21:08.624Z</time>
      </trkpt>
      <trkpt lat="46.92323" lon="8.69129">
        <ele>1873</ele>
        <time>2021-08-07T07:21:09.623Z</time>
      </trkpt>
      <trkpt lat="46.92323" lon="8.69129">
        <ele>1874</ele>
        <time>2021-08-07T07:21:10.623Z</time>
      </trkpt>
      <trkpt lat="46.92322" lon="8.69128">
        <ele>1874</ele>
        <time>2021-08-07T07:21:11.624Z</time>
      </trkpt>
      <trkpt lat="46.92321" lon="8.69128">
        <ele>1874</ele>
        <time>2021-08-07T07:21:12.623Z</time>
      </trkpt>
      <trkpt lat="46.92321" lon="8.69128">
        <ele>1874</ele>
        <time>2021-08-07T07:21:13.624Z</time>
      </trkpt>
      <trkpt lat="46.92321" lon="8.69128">
        <ele>1874</ele>
        <time>2021-08-07T07:21:14.624Z</time>
      </trkpt>
      <trkpt lat="46.92321" lon="8.69129">
        <ele>1875</ele>
        <time>2021-08-07T07:21:15.624Z</time>
      </trkpt>
      <trkpt lat="46.92321" lon="8.69129">
        <ele>1875</ele>
        <time>2021-08-07T07:21:16.624Z</time>
      </trkpt>
      <trkpt lat="46.92321" lon="8.69129">
        <ele>1875</ele>
        <time>2021-08-07T07:21:17.624Z</time>
      </trkpt>
      <trkpt lat="46.9232" lon="8.69128">
        <ele>1876</ele>
        <time>2021-08-07T07:21:18.624Z</time>
      </trkpt>
      <trkpt lat="46.9232" lon="8.69128">
        <ele>1875</ele>
        <time>2021-08-07T07:21:19.624Z</time>
      </trkpt>
      <trkpt lat="46.92319" lon="8.69128">
        <ele>1875</ele>
        <time>2021-08-07T07:21:20.623Z</time>
      </trkpt>
      <trkpt lat="46.92318" lon="8.69128">
        <ele>1875</ele>
        <time>2021-08-07T07:21:21.623Z</time>
      </trkpt>
      <trkpt lat="46.92318" lon="8.69127">
        <ele>1875</ele>
        <time>2021-08-07T07:21:22.624Z</time>
      </trkpt>
      <trkpt lat="46.92317" lon="8.69127">
        <ele>1875</ele>
        <time>2021-08-07T07:21:23.624Z</time>
      </trkpt>
      <trkpt lat="46.92316" lon="8.69127">
        <ele>1875</ele>
        <time>2021-08-07T07:21:24.624Z</time>
      </trkpt>
      <trkpt lat="46.92316" lon="8.69127">
        <ele>1876</ele>
        <time>2021-08-07T07:21:25.624Z</time>
      </trkpt>
      <trkpt lat="46.92315" lon="8.69127">
        <ele>1876</ele>
        <time>2021-08-07T07:21:26.624Z</time>
      </trkpt>
      <trkpt lat="46.92315" lon="8.69126">
        <ele>1876</ele>
        <time>2021-08-07T07:21:27.623Z</time>
      </trkpt>
      <trkpt lat="46.92314" lon="8.69126">
        <ele>1876</ele>
        <time>2021-08-07T07:21:28.624Z</time>
      </trkpt>
      <trkpt lat="46.92313" lon="8.69126">
        <ele>1876</ele>
        <time>2021-08-07T07:21:29.624Z</time>
      </trkpt>
      <trkpt lat="46.92312" lon="8.69126">
        <ele>1876</ele>
        <time>2021-08-07T07:21:30.624Z</time>
      </trkpt>
      <trkpt lat="46.92312" lon="8.69126">
        <ele>1876</ele>
        <time>2021-08-07T07:21:31.624Z</time>
      </trkpt>
      <trkpt lat="46.9231" lon="8.69125">
        <ele>1875</ele>
        <time>2021-08-07T07:21:32.624Z</time>
      </trkpt>
      <trkpt lat="46.9231" lon="8.69125">
        <ele>1875</ele>
        <time>2021-08-07T07:21:33.623Z</time>
      </trkpt>
      <trkpt lat="46.92309" lon="8.69124">
        <ele>1875</ele>
        <time>2021-08-07T07:21:34.623Z</time>
      </trkpt>
      <trkpt lat="46.92309" lon="8.69124">
        <ele>1876</ele>
        <time>2021-08-07T07:21:35.623Z</time>
      </trkpt>
      <trkpt lat="46.92308" lon="8.69124">
        <ele>1876</ele>
        <time>2021-08-07T07:21:36.624Z</time>
      </trkpt>
      <trkpt lat="46.92308" lon="8.69124">
        <ele>1876</ele>
        <time>2021-08-07T07:21:37.623Z</time>
      </trkpt>
      <trkpt lat="46.92307" lon="8.69123">
        <ele>1876</ele>
        <time>2021-08-07T07:21:38.624Z</time>
      </trkpt>
      <trkpt lat="46.92306" lon="8.69123">
        <ele>1876</ele>
        <time>2021-08-07T07:21:39.623Z</time>
      </trkpt>
      <trkpt lat="46.92305" lon="8.69122">
        <ele>1877</ele>
        <time>2021-08-07T07:21:40.623Z</time>
      </trkpt>
      <trkpt lat="46.92305" lon="8.69122">
        <ele>1877</ele>
        <time>2021-08-07T07:21:41.624Z</time>
      </trkpt>
      <trkpt lat="46.92306" lon="8.69122">
        <ele>1877</ele>
        <time>2021-08-07T07:21:42.623Z</time>
      </trkpt>
      <trkpt lat="46.92305" lon="8.6912">
        <ele>1878</ele>
        <time>2021-08-07T07:21:43.624Z</time>
      </trkpt>
      <trkpt lat="46.92304" lon="8.69119">
        <ele>1878</ele>
        <time>2021-08-07T07:21:44.623Z</time>
      </trkpt>
      <trkpt lat="46.92304" lon="8.69118">
        <ele>1878</ele>
        <time>2021-08-07T07:21:45.624Z</time>
      </trkpt>
      <trkpt lat="46.92303" lon="8.69117">
        <ele>1878</ele>
        <time>2021-08-07T07:21:46.624Z</time>
      </trkpt>
      <trkpt lat="46.92303" lon="8.69117">
        <ele>1878</ele>
        <time>2021-08-07T07:21:47.623Z</time>
      </trkpt>
      <trkpt lat="46.92302" lon="8.69117">
        <ele>1879</ele>
        <time>2021-08-07T07:21:48.623Z</time>
      </trkpt>
      <trkpt lat="46.92301" lon="8.69116">
        <ele>1879</ele>
        <time>2021-08-07T07:21:49.624Z</time>
      </trkpt>
      <trkpt lat="46.92301" lon="8.69116">
        <ele>1879</ele>
        <time>2021-08-07T07:21:50.624Z</time>
      </trkpt>
      <trkpt lat="46.923" lon="8.69116">
        <ele>1879</ele>
        <time>2021-08-07T07:21:51.623Z</time>
      </trkpt>
      <trkpt lat="46.923" lon="8.69116">
        <ele>1880</ele>
        <time>2021-08-07T07:21:52.623Z</time>
      </trkpt>
      <trkpt lat="46.923" lon="8.69115">
        <ele>1879</ele>
        <time>2021-08-07T07:21:53.623Z</time>
      </trkpt>
      <trkpt lat="46.92299" lon="8.69115">
        <ele>1879</ele>
        <time>2021-08-07T07:21:54.623Z</time>
      </trkpt>
      <trkpt lat="46.92299" lon="8.69114">
        <ele>1879</ele>
        <time>2021-08-07T07:21:55.623Z</time>
      </trkpt>
      <trkpt lat="46.92298" lon="8.69114">
        <ele>1879</ele>
        <time>2021-08-07T07:21:56.623Z</time>
      </trkpt>
      <trkpt lat="46.92297" lon="8.69114">
        <ele>1879</ele>
        <time>2021-08-07T07:21:57.624Z</time>
      </trkpt>
      <trkpt lat="46.92296" lon="8.69114">
        <ele>1879</ele>
        <time>2021-08-07T07:21:58.624Z</time>
      </trkpt>
      <trkpt lat="46.92296" lon="8.69113">
        <ele>1879</ele>
        <time>2021-08-07T07:21:59.623Z</time>
      </trkpt>
      <trkpt lat="46.92295" lon="8.69113">
        <ele>1879</ele>
        <time>2021-08-07T07:22:00.623Z</time>
      </trkpt>
      <trkpt lat="46.92295" lon="8.69112">
        <ele>1879</ele>
        <time>2021-08-07T07:22:01.623Z</time>
      </trkpt>
      <trkpt lat="46.92294" lon="8.69111">
        <ele>1879</ele>
        <time>2021-08-07T07:22:02.624Z</time>
      </trkpt>
      <trkpt lat="46.92294" lon="8.69111">
        <ele>1879</ele>
        <time>2021-08-07T07:22:03.624Z</time>
      </trkpt>
      <trkpt lat="46.92293" lon="8.69111">
        <ele>1879</ele>
        <time>2021-08-07T07:22:04.623Z</time>
      </trkpt>
      <trkpt lat="46.92293" lon="8.6911">
        <ele>1880</ele>
        <time>2021-08-07T07:22:05.623Z</time>
      </trkpt>
      <trkpt lat="46.92293" lon="8.6911">
        <ele>1880</ele>
        <time>2021-08-07T07:22:06.623Z</time>
      </trkpt>
      <trkpt lat="46.92296" lon="8.69113">
        <ele>1877</ele>
        <time>2021-08-07T07:22:07.625Z</time>
      </trkpt>
      <trkpt lat="46.92296" lon="8.69113">
        <ele>1877</ele>
        <time>2021-08-07T07:22:08.625Z</time>
      </trkpt>
      <trkpt lat="46.92296" lon="8.69113">
        <ele>1877</ele>
        <time>2021-08-07T07:22:09.625Z</time>
      </trkpt>
      <trkpt lat="46.92294" lon="8.69108">
        <ele>1879</ele>
        <time>2021-08-07T07:22:10.626Z</time>
      </trkpt>
      <trkpt lat="46.92295" lon="8.69109">
        <ele>1879</ele>
        <time>2021-08-07T07:22:11.625Z</time>
      </trkpt>
      <trkpt lat="46.92295" lon="8.69109">
        <ele>1879</ele>
        <time>2021-08-07T07:22:12.625Z</time>
      </trkpt>
      <trkpt lat="46.92295" lon="8.69109">
        <ele>1880</ele>
        <time>2021-08-07T07:22:13.626Z</time>
      </trkpt>
      <trkpt lat="46.92297" lon="8.6911">
        <ele>1879</ele>
        <time>2021-08-07T07:22:14.625Z</time>
      </trkpt>
      <trkpt lat="46.92296" lon="8.69109">
        <ele>1879</ele>
        <time>2021-08-07T07:22:15.625Z</time>
      </trkpt>
      <trkpt lat="46.92296" lon="8.69108">
        <ele>1878</ele>
        <time>2021-08-07T07:22:16.626Z</time>
      </trkpt>
      <trkpt lat="46.92295" lon="8.69107">
        <ele>1878</ele>
        <time>2021-08-07T07:22:17.626Z</time>
      </trkpt>
      <trkpt lat="46.92294" lon="8.69107">
        <ele>1877</ele>
        <time>2021-08-07T07:22:18.626Z</time>
      </trkpt>
      <trkpt lat="46.92294" lon="8.69108">
        <ele>1873</ele>
        <time>2021-08-07T07:22:19.627Z</time>
      </trkpt>
      <trkpt lat="46.92294" lon="8.69108">
        <ele>1872</ele>
        <time>2021-08-07T07:22:20.627Z</time>
      </trkpt>
      <trkpt lat="46.92292" lon="8.69104">
        <ele>1871</ele>
        <time>2021-08-07T07:22:21.627Z</time>
      </trkpt>
      <trkpt lat="46.92291" lon="8.69104">
        <ele>1871</ele>
        <time>2021-08-07T07:22:22.627Z</time>
      </trkpt>
      <trkpt lat="46.92291" lon="8.69105">
        <ele>1871</ele>
        <time>2021-08-07T07:22:23.627Z</time>
      </trkpt>
      <trkpt lat="46.92291" lon="8.69105">
        <ele>1872</ele>
        <time>2021-08-07T07:22:24.627Z</time>
      </trkpt>
      <trkpt lat="46.92292" lon="8.69105">
        <ele>1872</ele>
        <time>2021-08-07T07:22:25.626Z</time>
      </trkpt>
      <trkpt lat="46.92292" lon="8.69105">
        <ele>1872</ele>
        <time>2021-08-07T07:22:26.627Z</time>
      </trkpt>
      <trkpt lat="46.92291" lon="8.69104">
        <ele>1871</ele>
        <time>2021-08-07T07:22:27.627Z</time>
      </trkpt>
      <trkpt lat="46.92291" lon="8.69104">
        <ele>1866</ele>
        <time>2021-08-07T07:22:28.627Z</time>
      </trkpt>
      <trkpt lat="46.92291" lon="8.69104">
        <ele>1866</ele>
        <time>2021-08-07T07:22:29.627Z</time>
      </trkpt>
      <trkpt lat="46.92291" lon="8.69103">
        <ele>1866</ele>
        <time>2021-08-07T07:22:30.627Z</time>
      </trkpt>
      <trkpt lat="46.9229" lon="8.69103">
        <ele>1865</ele>
        <time>2021-08-07T07:22:31.627Z</time>
      </trkpt>
      <trkpt lat="46.9229" lon="8.69102">
        <ele>1865</ele>
        <time>2021-08-07T07:22:32.627Z</time>
      </trkpt>
      <trkpt lat="46.92289" lon="8.69102">
        <ele>1865</ele>
        <time>2021-08-07T07:22:33.628Z</time>
      </trkpt>
      <trkpt lat="46.92289" lon="8.69101">
        <ele>1865</ele>
        <time>2021-08-07T07:22:34.628Z</time>
      </trkpt>
      <trkpt lat="46.92289" lon="8.691">
        <ele>1865</ele>
        <time>2021-08-07T07:22:35.627Z</time>
      </trkpt>
      <trkpt lat="46.92289" lon="8.69099">
        <ele>1865</ele>
        <time>2021-08-07T07:22:36.628Z</time>
      </trkpt>
      <trkpt lat="46.92289" lon="8.69099">
        <ele>1865</ele>
        <time>2021-08-07T07:22:37.627Z</time>
      </trkpt>
      <trkpt lat="46.92289" lon="8.69099">
        <ele>1865</ele>
        <time>2021-08-07T07:22:38.627Z</time>
      </trkpt>
      <trkpt lat="46.9229" lon="8.69101">
        <ele>1864</ele>
        <time>2021-08-07T07:22:39.628Z</time>
      </trkpt>
      <trkpt lat="46.9229" lon="8.69097">
        <ele>1865</ele>
        <time>2021-08-07T07:22:40.628Z</time>
      </trkpt>
      <trkpt lat="46.92289" lon="8.69096">
        <ele>1865</ele>
        <time>2021-08-07T07:22:41.628Z</time>
      </trkpt>
      <trkpt lat="46.92289" lon="8.69095">
        <ele>1866</ele>
        <time>2021-08-07T07:22:42.627Z</time>
      </trkpt>
      <trkpt lat="46.92289" lon="8.69094">
        <ele>1866</ele>
        <time>2021-08-07T07:22:43.627Z</time>
      </trkpt>
      <trkpt lat="46.92289" lon="8.69093">
        <ele>1867</ele>
        <time>2021-08-07T07:22:44.628Z</time>
      </trkpt>
      <trkpt lat="46.92289" lon="8.69093">
        <ele>1867</ele>
        <time>2021-08-07T07:22:45.628Z</time>
      </trkpt>
      <trkpt lat="46.92289" lon="8.69092">
        <ele>1868</ele>
        <time>2021-08-07T07:22:46.628Z</time>
      </trkpt>
      <trkpt lat="46.92289" lon="8.69091">
        <ele>1868</ele>
        <time>2021-08-07T07:22:47.627Z</time>
      </trkpt>
      <trkpt lat="46.92288" lon="8.69091">
        <ele>1868</ele>
        <time>2021-08-07T07:22:48.627Z</time>
      </trkpt>
      <trkpt lat="46.92288" lon="8.69089">
        <ele>1868</ele>
        <time>2021-08-07T07:22:49.628Z</time>
      </trkpt>
      <trkpt lat="46.92287" lon="8.69089">
        <ele>1868</ele>
        <time>2021-08-07T07:22:50.628Z</time>
      </trkpt>
      <trkpt lat="46.92287" lon="8.69088">
        <ele>1869</ele>
        <time>2021-08-07T07:22:51.628Z</time>
      </trkpt>
      <trkpt lat="46.92286" lon="8.69087">
        <ele>1869</ele>
        <time>2021-08-07T07:22:52.627Z</time>
      </trkpt>
      <trkpt lat="46.92285" lon="8.69086">
        <ele>1869</ele>
        <time>2021-08-07T07:22:53.627Z</time>
      </trkpt>
      <trkpt lat="46.92285" lon="8.69085">
        <ele>1869</ele>
        <time>2021-08-07T07:22:54.628Z</time>
      </trkpt>
      <trkpt lat="46.92284" lon="8.69085">
        <ele>1869</ele>
        <time>2021-08-07T07:22:55.628Z</time>
      </trkpt>
      <trkpt lat="46.92284" lon="8.69085">
        <ele>1870</ele>
        <time>2021-08-07T07:22:56.628Z</time>
      </trkpt>
      <trkpt lat="46.92285" lon="8.69084">
        <ele>1870</ele>
        <time>2021-08-07T07:22:57.628Z</time>
      </trkpt>
      <trkpt lat="46.92286" lon="8.69083">
        <ele>1871</ele>
        <time>2021-08-07T07:22:58.627Z</time>
      </trkpt>
      <trkpt lat="46.92286" lon="8.69083">
        <ele>1871</ele>
        <time>2021-08-07T07:22:59.627Z</time>
      </trkpt>
      <trkpt lat="46.92286" lon="8.69083">
        <ele>1872</ele>
        <time>2021-08-07T07:23:00.627Z</time>
      </trkpt>
      <trkpt lat="46.92285" lon="8.69082">
        <ele>1872</ele>
        <time>2021-08-07T07:23:01.628Z</time>
      </trkpt>
      <trkpt lat="46.92285" lon="8.69081">
        <ele>1873</ele>
        <time>2021-08-07T07:23:02.628Z</time>
      </trkpt>
      <trkpt lat="46.92284" lon="8.69081">
        <ele>1873</ele>
        <time>2021-08-07T07:23:03.627Z</time>
      </trkpt>
      <trkpt lat="46.92283" lon="8.69082">
        <ele>1873</ele>
        <time>2021-08-07T07:23:04.628Z</time>
      </trkpt>
      <trkpt lat="46.92282" lon="8.69081">
        <ele>1873</ele>
        <time>2021-08-07T07:23:05.627Z</time>
      </trkpt>
      <trkpt lat="46.92282" lon="8.69081">
        <ele>1873</ele>
        <time>2021-08-07T07:23:06.628Z</time>
      </trkpt>
      <trkpt lat="46.92281" lon="8.69081">
        <ele>1873</ele>
        <time>2021-08-07T07:23:07.627Z</time>
      </trkpt>
      <trkpt lat="46.9228" lon="8.69081">
        <ele>1873</ele>
        <time>2021-08-07T07:23:08.627Z</time>
      </trkpt>
      <trkpt lat="46.9228" lon="8.69082">
        <ele>1873</ele>
        <time>2021-08-07T07:23:09.627Z</time>
      </trkpt>
      <trkpt lat="46.92279" lon="8.69082">
        <ele>1873</ele>
        <time>2021-08-07T07:23:10.627Z</time>
      </trkpt>
      <trkpt lat="46.92278" lon="8.69081">
        <ele>1873</ele>
        <time>2021-08-07T07:23:11.628Z</time>
      </trkpt>
      <trkpt lat="46.92278" lon="8.69081">
        <ele>1873</ele>
        <time>2021-08-07T07:23:12.627Z</time>
      </trkpt>
      <trkpt lat="46.92277" lon="8.6908">
        <ele>1873</ele>
        <time>2021-08-07T07:23:13.627Z</time>
      </trkpt>
      <trkpt lat="46.92277" lon="8.69079">
        <ele>1873</ele>
        <time>2021-08-07T07:23:14.627Z</time>
      </trkpt>
      <trkpt lat="46.92276" lon="8.69078">
        <ele>1873</ele>
        <time>2021-08-07T07:23:15.628Z</time>
      </trkpt>
      <trkpt lat="46.92276" lon="8.69078">
        <ele>1873</ele>
        <time>2021-08-07T07:23:16.628Z</time>
      </trkpt>
      <trkpt lat="46.92275" lon="8.69077">
        <ele>1874</ele>
        <time>2021-08-07T07:23:17.627Z</time>
      </trkpt>
      <trkpt lat="46.92275" lon="8.69077">
        <ele>1874</ele>
        <time>2021-08-07T07:23:18.628Z</time>
      </trkpt>
      <trkpt lat="46.92275" lon="8.69076">
        <ele>1874</ele>
        <time>2021-08-07T07:23:19.628Z</time>
      </trkpt>
      <trkpt lat="46.92275" lon="8.69076">
        <ele>1875</ele>
        <time>2021-08-07T07:23:20.628Z</time>
      </trkpt>
      <trkpt lat="46.92274" lon="8.69075">
        <ele>1875</ele>
        <time>2021-08-07T07:23:21.628Z</time>
      </trkpt>
      <trkpt lat="46.92273" lon="8.69075">
        <ele>1876</ele>
        <time>2021-08-07T07:23:22.628Z</time>
      </trkpt>
      <trkpt lat="46.92273" lon="8.69074">
        <ele>1876</ele>
        <time>2021-08-07T07:23:23.628Z</time>
      </trkpt>
      <trkpt lat="46.92272" lon="8.69074">
        <ele>1876</ele>
        <time>2021-08-07T07:23:24.627Z</time>
      </trkpt>
      <trkpt lat="46.92271" lon="8.69073">
        <ele>1877</ele>
        <time>2021-08-07T07:23:25.628Z</time>
      </trkpt>
      <trkpt lat="46.9227" lon="8.69072">
        <ele>1877</ele>
        <time>2021-08-07T07:23:26.628Z</time>
      </trkpt>
      <trkpt lat="46.9227" lon="8.69072">
        <ele>1877</ele>
        <time>2021-08-07T07:23:27.628Z</time>
      </trkpt>
      <trkpt lat="46.92269" lon="8.69071">
        <ele>1878</ele>
        <time>2021-08-07T07:23:28.627Z</time>
      </trkpt>
      <trkpt lat="46.92269" lon="8.69071">
        <ele>1878</ele>
        <time>2021-08-07T07:23:29.627Z</time>
      </trkpt>
      <trkpt lat="46.92268" lon="8.6907">
        <ele>1878</ele>
        <time>2021-08-07T07:23:30.627Z</time>
      </trkpt>
      <trkpt lat="46.92268" lon="8.6907">
        <ele>1878</ele>
        <time>2021-08-07T07:23:31.628Z</time>
      </trkpt>
      <trkpt lat="46.92267" lon="8.6907">
        <ele>1879</ele>
        <time>2021-08-07T07:23:32.628Z</time>
      </trkpt>
      <trkpt lat="46.92266" lon="8.6907">
        <ele>1880</ele>
        <time>2021-08-07T07:23:33.627Z</time>
      </trkpt>
      <trkpt lat="46.92265" lon="8.6907">
        <ele>1881</ele>
        <time>2021-08-07T07:23:34.628Z</time>
      </trkpt>
      <trkpt lat="46.92265" lon="8.6907">
        <ele>1881</ele>
        <time>2021-08-07T07:23:35.628Z</time>
      </trkpt>
      <trkpt lat="46.92264" lon="8.69069">
        <ele>1881</ele>
        <time>2021-08-07T07:23:36.627Z</time>
      </trkpt>
      <trkpt lat="46.92263" lon="8.69069">
        <ele>1882</ele>
        <time>2021-08-07T07:23:37.627Z</time>
      </trkpt>
      <trkpt lat="46.92262" lon="8.69068">
        <ele>1882</ele>
        <time>2021-08-07T07:23:38.628Z</time>
      </trkpt>
      <trkpt lat="46.92261" lon="8.69068">
        <ele>1883</ele>
        <time>2021-08-07T07:23:39.628Z</time>
      </trkpt>
      <trkpt lat="46.9226" lon="8.69068">
        <ele>1883</ele>
        <time>2021-08-07T07:23:40.628Z</time>
      </trkpt>
      <trkpt lat="46.92259" lon="8.69069">
        <ele>1884</ele>
        <time>2021-08-07T07:23:41.628Z</time>
      </trkpt>
      <trkpt lat="46.92259" lon="8.69069">
        <ele>1884</ele>
        <time>2021-08-07T07:23:42.627Z</time>
      </trkpt>
      <trkpt lat="46.92258" lon="8.69068">
        <ele>1884</ele>
        <time>2021-08-07T07:23:43.628Z</time>
      </trkpt>
      <trkpt lat="46.92258" lon="8.69068">
        <ele>1884</ele>
        <time>2021-08-07T07:23:44.628Z</time>
      </trkpt>
      <trkpt lat="46.92258" lon="8.69068">
        <ele>1885</ele>
        <time>2021-08-07T07:23:45.628Z</time>
      </trkpt>
      <trkpt lat="46.92258" lon="8.69068">
        <ele>1885</ele>
        <time>2021-08-07T07:23:46.627Z</time>
      </trkpt>
      <trkpt lat="46.92256" lon="8.69067">
        <ele>1885</ele>
        <time>2021-08-07T07:23:47.628Z</time>
      </trkpt>
      <trkpt lat="46.92256" lon="8.69067">
        <ele>1885</ele>
        <time>2021-08-07T07:23:48.628Z</time>
      </trkpt>
      <trkpt lat="46.92256" lon="8.69068">
        <ele>1885</ele>
        <time>2021-08-07T07:23:49.628Z</time>
      </trkpt>
      <trkpt lat="46.92255" lon="8.69067">
        <ele>1885</ele>
        <time>2021-08-07T07:23:50.628Z</time>
      </trkpt>
      <trkpt lat="46.92254" lon="8.69066">
        <ele>1885</ele>
        <time>2021-08-07T07:23:51.628Z</time>
      </trkpt>
      <trkpt lat="46.92254" lon="8.69066">
        <ele>1885</ele>
        <time>2021-08-07T07:23:52.627Z</time>
      </trkpt>
      <trkpt lat="46.92253" lon="8.69066">
        <ele>1885</ele>
        <time>2021-08-07T07:23:53.628Z</time>
      </trkpt>
      <trkpt lat="46.92253" lon="8.69065">
        <ele>1885</ele>
        <time>2021-08-07T07:23:54.628Z</time>
      </trkpt>
      <trkpt lat="46.92252" lon="8.69064">
        <ele>1886</ele>
        <time>2021-08-07T07:23:55.627Z</time>
      </trkpt>
      <trkpt lat="46.92252" lon="8.69063">
        <ele>1886</ele>
        <time>2021-08-07T07:23:56.627Z</time>
      </trkpt>
      <trkpt lat="46.92253" lon="8.69062">
        <ele>1887</ele>
        <time>2021-08-07T07:23:57.628Z</time>
      </trkpt>
      <trkpt lat="46.92253" lon="8.69062">
        <ele>1888</ele>
        <time>2021-08-07T07:23:58.627Z</time>
      </trkpt>
      <trkpt lat="46.92251" lon="8.69062">
        <ele>1892</ele>
        <time>2021-08-07T07:23:59.629Z</time>
      </trkpt>
      <trkpt lat="46.9225" lon="8.69062">
        <ele>1892</ele>
        <time>2021-08-07T07:24:00.630Z</time>
      </trkpt>
      <trkpt lat="46.92248" lon="8.69062">
        <ele>1891</ele>
        <time>2021-08-07T07:24:01.629Z</time>
      </trkpt>
      <trkpt lat="46.92248" lon="8.69062">
        <ele>1891</ele>
        <time>2021-08-07T07:24:02.630Z</time>
      </trkpt>
      <trkpt lat="46.92247" lon="8.69063">
        <ele>1890</ele>
        <time>2021-08-07T07:24:03.629Z</time>
      </trkpt>
      <trkpt lat="46.92246" lon="8.69063">
        <ele>1890</ele>
        <time>2021-08-07T07:24:04.630Z</time>
      </trkpt>
      <trkpt lat="46.92247" lon="8.69064">
        <ele>1890</ele>
        <time>2021-08-07T07:24:05.630Z</time>
      </trkpt>
      <trkpt lat="46.92247" lon="8.69063">
        <ele>1890</ele>
        <time>2021-08-07T07:24:06.630Z</time>
      </trkpt>
      <trkpt lat="46.92246" lon="8.69062">
        <ele>1889</ele>
        <time>2021-08-07T07:24:07.630Z</time>
      </trkpt>
      <trkpt lat="46.92246" lon="8.69061">
        <ele>1889</ele>
        <time>2021-08-07T07:24:08.629Z</time>
      </trkpt>
      <trkpt lat="46.92245" lon="8.69062">
        <ele>1889</ele>
        <time>2021-08-07T07:24:09.630Z</time>
      </trkpt>
      <trkpt lat="46.92245" lon="8.69062">
        <ele>1889</ele>
        <time>2021-08-07T07:24:10.630Z</time>
      </trkpt>
      <trkpt lat="46.92244" lon="8.69062">
        <ele>1888</ele>
        <time>2021-08-07T07:24:11.630Z</time>
      </trkpt>
      <trkpt lat="46.92243" lon="8.69061">
        <ele>1888</ele>
        <time>2021-08-07T07:24:12.630Z</time>
      </trkpt>
      <trkpt lat="46.92243" lon="8.69061">
        <ele>1887</ele>
        <time>2021-08-07T07:24:13.630Z</time>
      </trkpt>
      <trkpt lat="46.92242" lon="8.6906">
        <ele>1887</ele>
        <time>2021-08-07T07:24:14.630Z</time>
      </trkpt>
      <trkpt lat="46.92242" lon="8.69059">
        <ele>1887</ele>
        <time>2021-08-07T07:24:15.630Z</time>
      </trkpt>
      <trkpt lat="46.92242" lon="8.69059">
        <ele>1887</ele>
        <time>2021-08-07T07:24:16.630Z</time>
      </trkpt>
      <trkpt lat="46.92243" lon="8.69059">
        <ele>1887</ele>
        <time>2021-08-07T07:24:17.630Z</time>
      </trkpt>
      <trkpt lat="46.92243" lon="8.69059">
        <ele>1887</ele>
        <time>2021-08-07T07:24:18.630Z</time>
      </trkpt>
      <trkpt lat="46.92244" lon="8.69058">
        <ele>1887</ele>
        <time>2021-08-07T07:24:19.629Z</time>
      </trkpt>
      <trkpt lat="46.92244" lon="8.69057">
        <ele>1887</ele>
        <time>2021-08-07T07:24:20.629Z</time>
      </trkpt>
      <trkpt lat="46.92244" lon="8.69057">
        <ele>1887</ele>
        <time>2021-08-07T07:24:21.630Z</time>
      </trkpt>
      <trkpt lat="46.92244" lon="8.69056">
        <ele>1888</ele>
        <time>2021-08-07T07:24:22.629Z</time>
      </trkpt>
      <trkpt lat="46.92244" lon="8.69055">
        <ele>1888</ele>
        <time>2021-08-07T07:24:23.629Z</time>
      </trkpt>
      <trkpt lat="46.92245" lon="8.69055">
        <ele>1888</ele>
        <time>2021-08-07T07:24:24.630Z</time>
      </trkpt>
      <trkpt lat="46.92245" lon="8.69054">
        <ele>1888</ele>
        <time>2021-08-07T07:24:25.629Z</time>
      </trkpt>
      <trkpt lat="46.92246" lon="8.69053">
        <ele>1888</ele>
        <time>2021-08-07T07:24:26.630Z</time>
      </trkpt>
      <trkpt lat="46.92246" lon="8.69053">
        <ele>1888</ele>
        <time>2021-08-07T07:24:27.630Z</time>
      </trkpt>
      <trkpt lat="46.92247" lon="8.69052">
        <ele>1887</ele>
        <time>2021-08-07T07:24:28.630Z</time>
      </trkpt>
      <trkpt lat="46.92247" lon="8.69051">
        <ele>1887</ele>
        <time>2021-08-07T07:24:29.630Z</time>
      </trkpt>
      <trkpt lat="46.92248" lon="8.6905">
        <ele>1887</ele>
        <time>2021-08-07T07:24:30.629Z</time>
      </trkpt>
      <trkpt lat="46.92248" lon="8.69049">
        <ele>1887</ele>
        <time>2021-08-07T07:24:31.630Z</time>
      </trkpt>
      <trkpt lat="46.92249" lon="8.69048">
        <ele>1887</ele>
        <time>2021-08-07T07:24:32.630Z</time>
      </trkpt>
      <trkpt lat="46.92249" lon="8.69047">
        <ele>1887</ele>
        <time>2021-08-07T07:24:33.630Z</time>
      </trkpt>
      <trkpt lat="46.92248" lon="8.69045">
        <ele>1888</ele>
        <time>2021-08-07T07:24:34.630Z</time>
      </trkpt>
      <trkpt lat="46.92247" lon="8.69044">
        <ele>1888</ele>
        <time>2021-08-07T07:24:35.630Z</time>
      </trkpt>
      <trkpt lat="46.92246" lon="8.69043">
        <ele>1888</ele>
        <time>2021-08-07T07:24:36.630Z</time>
      </trkpt>
      <trkpt lat="46.92245" lon="8.69043">
        <ele>1888</ele>
        <time>2021-08-07T07:24:37.629Z</time>
      </trkpt>
      <trkpt lat="46.92244" lon="8.69042">
        <ele>1889</ele>
        <time>2021-08-07T07:24:38.630Z</time>
      </trkpt>
      <trkpt lat="46.92243" lon="8.69041">
        <ele>1889</ele>
        <time>2021-08-07T07:24:39.630Z</time>
      </trkpt>
      <trkpt lat="46.92242" lon="8.69039">
        <ele>1889</ele>
        <time>2021-08-07T07:24:40.630Z</time>
      </trkpt>
      <trkpt lat="46.92242" lon="8.69038">
        <ele>1890</ele>
        <time>2021-08-07T07:24:41.630Z</time>
      </trkpt>
      <trkpt lat="46.92242" lon="8.69037">
        <ele>1891</ele>
        <time>2021-08-07T07:24:42.629Z</time>
      </trkpt>
      <trkpt lat="46.92242" lon="8.69037">
        <ele>1891</ele>
        <time>2021-08-07T07:24:43.629Z</time>
      </trkpt>
      <trkpt lat="46.92242" lon="8.69037">
        <ele>1891</ele>
        <time>2021-08-07T07:24:44.630Z</time>
      </trkpt>
      <trkpt lat="46.92241" lon="8.69036">
        <ele>1891</ele>
        <time>2021-08-07T07:24:45.630Z</time>
      </trkpt>
      <trkpt lat="46.92241" lon="8.69035">
        <ele>1891</ele>
        <time>2021-08-07T07:24:46.629Z</time>
      </trkpt>
      <trkpt lat="46.9224" lon="8.69034">
        <ele>1891</ele>
        <time>2021-08-07T07:24:47.629Z</time>
      </trkpt>
      <trkpt lat="46.92239" lon="8.69033">
        <ele>1890</ele>
        <time>2021-08-07T07:24:48.629Z</time>
      </trkpt>
      <trkpt lat="46.92239" lon="8.69032">
        <ele>1890</ele>
        <time>2021-08-07T07:24:49.629Z</time>
      </trkpt>
      <trkpt lat="46.92238" lon="8.69031">
        <ele>1890</ele>
        <time>2021-08-07T07:24:50.630Z</time>
      </trkpt>
      <trkpt lat="46.92237" lon="8.6903">
        <ele>1891</ele>
        <time>2021-08-07T07:24:51.630Z</time>
      </trkpt>
      <trkpt lat="46.92236" lon="8.69029">
        <ele>1891</ele>
        <time>2021-08-07T07:24:52.630Z</time>
      </trkpt>
      <trkpt lat="46.92235" lon="8.69028">
        <ele>1891</ele>
        <time>2021-08-07T07:24:53.630Z</time>
      </trkpt>
      <trkpt lat="46.92234" lon="8.69027">
        <ele>1892</ele>
        <time>2021-08-07T07:24:54.630Z</time>
      </trkpt>
      <trkpt lat="46.92234" lon="8.69027">
        <ele>1892</ele>
        <time>2021-08-07T07:24:55.630Z</time>
      </trkpt>
      <trkpt lat="46.92233" lon="8.69027">
        <ele>1892</ele>
        <time>2021-08-07T07:24:56.630Z</time>
      </trkpt>
      <trkpt lat="46.92233" lon="8.69027">
        <ele>1892</ele>
        <time>2021-08-07T07:24:57.630Z</time>
      </trkpt>
      <trkpt lat="46.92232" lon="8.69027">
        <ele>1892</ele>
        <time>2021-08-07T07:24:58.629Z</time>
      </trkpt>
      <trkpt lat="46.92231" lon="8.69026">
        <ele>1892</ele>
        <time>2021-08-07T07:24:59.629Z</time>
      </trkpt>
      <trkpt lat="46.9223" lon="8.69026">
        <ele>1892</ele>
        <time>2021-08-07T07:25:00.630Z</time>
      </trkpt>
      <trkpt lat="46.9223" lon="8.69025">
        <ele>1892</ele>
        <time>2021-08-07T07:25:01.629Z</time>
      </trkpt>
      <trkpt lat="46.9223" lon="8.69025">
        <ele>1891</ele>
        <time>2021-08-07T07:25:02.629Z</time>
      </trkpt>
      <trkpt lat="46.9223" lon="8.69025">
        <ele>1891</ele>
        <time>2021-08-07T07:25:03.629Z</time>
      </trkpt>
      <trkpt lat="46.92229" lon="8.69024">
        <ele>1891</ele>
        <time>2021-08-07T07:25:04.630Z</time>
      </trkpt>
      <trkpt lat="46.92229" lon="8.69024">
        <ele>1891</ele>
        <time>2021-08-07T07:25:05.630Z</time>
      </trkpt>
      <trkpt lat="46.92228" lon="8.69023">
        <ele>1891</ele>
        <time>2021-08-07T07:25:06.630Z</time>
      </trkpt>
      <trkpt lat="46.92227" lon="8.69022">
        <ele>1891</ele>
        <time>2021-08-07T07:25:07.630Z</time>
      </trkpt>
      <trkpt lat="46.92226" lon="8.69021">
        <ele>1892</ele>
        <time>2021-08-07T07:25:08.629Z</time>
      </trkpt>
      <trkpt lat="46.92225" lon="8.69021">
        <ele>1892</ele>
        <time>2021-08-07T07:25:09.629Z</time>
      </trkpt>
      <trkpt lat="46.92225" lon="8.6902">
        <ele>1893</ele>
        <time>2021-08-07T07:25:10.630Z</time>
      </trkpt>
      <trkpt lat="46.92224" lon="8.69019">
        <ele>1893</ele>
        <time>2021-08-07T07:25:11.629Z</time>
      </trkpt>
      <trkpt lat="46.92223" lon="8.69018">
        <ele>1894</ele>
        <time>2021-08-07T07:25:12.630Z</time>
      </trkpt>
      <trkpt lat="46.92223" lon="8.69017">
        <ele>1895</ele>
        <time>2021-08-07T07:25:13.630Z</time>
      </trkpt>
      <trkpt lat="46.92222" lon="8.69016">
        <ele>1895</ele>
        <time>2021-08-07T07:25:14.630Z</time>
      </trkpt>
      <trkpt lat="46.92222" lon="8.69015">
        <ele>1895</ele>
        <time>2021-08-07T07:25:15.629Z</time>
      </trkpt>
      <trkpt lat="46.92221" lon="8.69015">
        <ele>1895</ele>
        <time>2021-08-07T07:25:16.630Z</time>
      </trkpt>
      <trkpt lat="46.9222" lon="8.69014">
        <ele>1895</ele>
        <time>2021-08-07T07:25:17.630Z</time>
      </trkpt>
      <trkpt lat="46.92219" lon="8.69013">
        <ele>1895</ele>
        <time>2021-08-07T07:25:18.630Z</time>
      </trkpt>
      <trkpt lat="46.92218" lon="8.69012">
        <ele>1896</ele>
        <time>2021-08-07T07:25:19.630Z</time>
      </trkpt>
      <trkpt lat="46.92217" lon="8.69011">
        <ele>1896</ele>
        <time>2021-08-07T07:25:20.629Z</time>
      </trkpt>
      <trkpt lat="46.92216" lon="8.69011">
        <ele>1897</ele>
        <time>2021-08-07T07:25:21.630Z</time>
      </trkpt>
      <trkpt lat="46.92216" lon="8.6901">
        <ele>1897</ele>
        <time>2021-08-07T07:25:22.629Z</time>
      </trkpt>
      <trkpt lat="46.92215" lon="8.69009">
        <ele>1898</ele>
        <time>2021-08-07T07:25:23.629Z</time>
      </trkpt>
      <trkpt lat="46.92214" lon="8.69007">
        <ele>1898</ele>
        <time>2021-08-07T07:25:24.630Z</time>
      </trkpt>
      <trkpt lat="46.92213" lon="8.69006">
        <ele>1899</ele>
        <time>2021-08-07T07:25:25.630Z</time>
      </trkpt>
      <trkpt lat="46.92212" lon="8.69005">
        <ele>1899</ele>
        <time>2021-08-07T07:25:26.630Z</time>
      </trkpt>
      <trkpt lat="46.92212" lon="8.69005">
        <ele>1900</ele>
        <time>2021-08-07T07:25:27.630Z</time>
      </trkpt>
      <trkpt lat="46.92212" lon="8.69004">
        <ele>1900</ele>
        <time>2021-08-07T07:25:28.630Z</time>
      </trkpt>
      <trkpt lat="46.92211" lon="8.69003">
        <ele>1901</ele>
        <time>2021-08-07T07:25:29.630Z</time>
      </trkpt>
      <trkpt lat="46.92211" lon="8.69002">
        <ele>1901</ele>
        <time>2021-08-07T07:25:30.629Z</time>
      </trkpt>
      <trkpt lat="46.9221" lon="8.69002">
        <ele>1901</ele>
        <time>2021-08-07T07:25:31.630Z</time>
      </trkpt>
      <trkpt lat="46.9221" lon="8.69001">
        <ele>1901</ele>
        <time>2021-08-07T07:25:32.630Z</time>
      </trkpt>
      <trkpt lat="46.92209" lon="8.69">
        <ele>1901</ele>
        <time>2021-08-07T07:25:33.629Z</time>
      </trkpt>
      <trkpt lat="46.92207" lon="8.69">
        <ele>1901</ele>
        <time>2021-08-07T07:25:34.629Z</time>
      </trkpt>
      <trkpt lat="46.92207" lon="8.68999">
        <ele>1901</ele>
        <time>2021-08-07T07:25:35.630Z</time>
      </trkpt>
      <trkpt lat="46.92206" lon="8.68999">
        <ele>1901</ele>
        <time>2021-08-07T07:25:36.630Z</time>
      </trkpt>
      <trkpt lat="46.92205" lon="8.68999">
        <ele>1900</ele>
        <time>2021-08-07T07:25:37.630Z</time>
      </trkpt>
      <trkpt lat="46.92204" lon="8.68998">
        <ele>1900</ele>
        <time>2021-08-07T07:25:38.630Z</time>
      </trkpt>
      <trkpt lat="46.92203" lon="8.68998">
        <ele>1900</ele>
        <time>2021-08-07T07:25:39.629Z</time>
      </trkpt>
      <trkpt lat="46.92203" lon="8.68998">
        <ele>1899</ele>
        <time>2021-08-07T07:25:40.630Z</time>
      </trkpt>
      <trkpt lat="46.92202" lon="8.68998">
        <ele>1899</ele>
        <time>2021-08-07T07:25:41.629Z</time>
      </trkpt>
      <trkpt lat="46.92202" lon="8.68998">
        <ele>1898</ele>
        <time>2021-08-07T07:25:42.630Z</time>
      </trkpt>
      <trkpt lat="46.92201" lon="8.68998">
        <ele>1898</ele>
        <time>2021-08-07T07:25:43.629Z</time>
      </trkpt>
      <trkpt lat="46.92201" lon="8.68998">
        <ele>1898</ele>
        <time>2021-08-07T07:25:44.629Z</time>
      </trkpt>
      <trkpt lat="46.92201" lon="8.68997">
        <ele>1898</ele>
        <time>2021-08-07T07:25:45.630Z</time>
      </trkpt>
      <trkpt lat="46.92201" lon="8.68997">
        <ele>1899</ele>
        <time>2021-08-07T07:25:46.629Z</time>
      </trkpt>
      <trkpt lat="46.92201" lon="8.68996">
        <ele>1899</ele>
        <time>2021-08-07T07:25:47.630Z</time>
      </trkpt>
      <trkpt lat="46.92201" lon="8.68995">
        <ele>1899</ele>
        <time>2021-08-07T07:25:48.630Z</time>
      </trkpt>
      <trkpt lat="46.92202" lon="8.68995">
        <ele>1898</ele>
        <time>2021-08-07T07:25:49.630Z</time>
      </trkpt>
      <trkpt lat="46.92202" lon="8.68994">
        <ele>1898</ele>
        <time>2021-08-07T07:25:50.630Z</time>
      </trkpt>
      <trkpt lat="46.92201" lon="8.68993">
        <ele>1899</ele>
        <time>2021-08-07T07:25:51.630Z</time>
      </trkpt>
      <trkpt lat="46.92201" lon="8.68992">
        <ele>1899</ele>
        <time>2021-08-07T07:25:52.630Z</time>
      </trkpt>
      <trkpt lat="46.92201" lon="8.68991">
        <ele>1899</ele>
        <time>2021-08-07T07:25:53.629Z</time>
      </trkpt>
      <trkpt lat="46.922" lon="8.68991">
        <ele>1899</ele>
        <time>2021-08-07T07:25:54.630Z</time>
      </trkpt>
      <trkpt lat="46.92199" lon="8.68991">
        <ele>1900</ele>
        <time>2021-08-07T07:25:55.629Z</time>
      </trkpt>
      <trkpt lat="46.92199" lon="8.68991">
        <ele>1900</ele>
        <time>2021-08-07T07:25:56.629Z</time>
      </trkpt>
      <trkpt lat="46.92198" lon="8.6899">
        <ele>1901</ele>
        <time>2021-08-07T07:25:57.630Z</time>
      </trkpt>
      <trkpt lat="46.92197" lon="8.68989">
        <ele>1901</ele>
        <time>2021-08-07T07:25:58.630Z</time>
      </trkpt>
      <trkpt lat="46.92197" lon="8.68989">
        <ele>1901</ele>
        <time>2021-08-07T07:25:59.629Z</time>
      </trkpt>
      <trkpt lat="46.92196" lon="8.68989">
        <ele>1902</ele>
        <time>2021-08-07T07:26:00.630Z</time>
      </trkpt>
      <trkpt lat="46.92196" lon="8.68988">
        <ele>1902</ele>
        <time>2021-08-07T07:26:01.630Z</time>
      </trkpt>
      <trkpt lat="46.92195" lon="8.68987">
        <ele>1902</ele>
        <time>2021-08-07T07:26:02.629Z</time>
      </trkpt>
      <trkpt lat="46.92195" lon="8.68986">
        <ele>1903</ele>
        <time>2021-08-07T07:26:03.630Z</time>
      </trkpt>
      <trkpt lat="46.92194" lon="8.68986">
        <ele>1903</ele>
        <time>2021-08-07T07:26:04.630Z</time>
      </trkpt>
      <trkpt lat="46.92194" lon="8.68985">
        <ele>1903</ele>
        <time>2021-08-07T07:26:05.629Z</time>
      </trkpt>
      <trkpt lat="46.92194" lon="8.68984">
        <ele>1903</ele>
        <time>2021-08-07T07:26:06.630Z</time>
      </trkpt>
      <trkpt lat="46.92194" lon="8.68984">
        <ele>1904</ele>
        <time>2021-08-07T07:26:07.630Z</time>
      </trkpt>
      <trkpt lat="46.92193" lon="8.68983">
        <ele>1904</ele>
        <time>2021-08-07T07:26:08.630Z</time>
      </trkpt>
      <trkpt lat="46.92192" lon="8.68982">
        <ele>1904</ele>
        <time>2021-08-07T07:26:09.629Z</time>
      </trkpt>
      <trkpt lat="46.92191" lon="8.68981">
        <ele>1904</ele>
        <time>2021-08-07T07:26:10.630Z</time>
      </trkpt>
      <trkpt lat="46.92191" lon="8.6898">
        <ele>1904</ele>
        <time>2021-08-07T07:26:11.630Z</time>
      </trkpt>
      <trkpt lat="46.9219" lon="8.68979">
        <ele>1904</ele>
        <time>2021-08-07T07:26:12.630Z</time>
      </trkpt>
      <trkpt lat="46.92189" lon="8.68978">
        <ele>1903</ele>
        <time>2021-08-07T07:26:13.630Z</time>
      </trkpt>
      <trkpt lat="46.92188" lon="8.68977">
        <ele>1903</ele>
        <time>2021-08-07T07:26:14.630Z</time>
      </trkpt>
      <trkpt lat="46.92187" lon="8.68976">
        <ele>1903</ele>
        <time>2021-08-07T07:26:15.630Z</time>
      </trkpt>
      <trkpt lat="46.92187" lon="8.68976">
        <ele>1903</ele>
        <time>2021-08-07T07:26:16.630Z</time>
      </trkpt>
      <trkpt lat="46.92186" lon="8.68975">
        <ele>1903</ele>
        <time>2021-08-07T07:26:17.630Z</time>
      </trkpt>
      <trkpt lat="46.92186" lon="8.68974">
        <ele>1902</ele>
        <time>2021-08-07T07:26:18.630Z</time>
      </trkpt>
      <trkpt lat="46.92185" lon="8.68973">
        <ele>1903</ele>
        <time>2021-08-07T07:26:19.630Z</time>
      </trkpt>
      <trkpt lat="46.92184" lon="8.68972">
        <ele>1903</ele>
        <time>2021-08-07T07:26:20.630Z</time>
      </trkpt>
      <trkpt lat="46.92184" lon="8.68972">
        <ele>1903</ele>
        <time>2021-08-07T07:26:21.629Z</time>
      </trkpt>
      <trkpt lat="46.92184" lon="8.68971">
        <ele>1903</ele>
        <time>2021-08-07T07:26:22.630Z</time>
      </trkpt>
      <trkpt lat="46.92184" lon="8.68971">
        <ele>1904</ele>
        <time>2021-08-07T07:26:23.630Z</time>
      </trkpt>
      <trkpt lat="46.92184" lon="8.6897">
        <ele>1904</ele>
        <time>2021-08-07T07:26:24.630Z</time>
      </trkpt>
      <trkpt lat="46.92183" lon="8.68969">
        <ele>1904</ele>
        <time>2021-08-07T07:26:25.630Z</time>
      </trkpt>
      <trkpt lat="46.92183" lon="8.68968">
        <ele>1903</ele>
        <time>2021-08-07T07:26:26.630Z</time>
      </trkpt>
      <trkpt lat="46.92183" lon="8.68967">
        <ele>1903</ele>
        <time>2021-08-07T07:26:27.629Z</time>
      </trkpt>
      <trkpt lat="46.92183" lon="8.68967">
        <ele>1903</ele>
        <time>2021-08-07T07:26:28.630Z</time>
      </trkpt>
      <trkpt lat="46.92183" lon="8.68967">
        <ele>1904</ele>
        <time>2021-08-07T07:26:29.630Z</time>
      </trkpt>
      <trkpt lat="46.92183" lon="8.68966">
        <ele>1904</ele>
        <time>2021-08-07T07:26:30.630Z</time>
      </trkpt>
      <trkpt lat="46.92182" lon="8.68965">
        <ele>1904</ele>
        <time>2021-08-07T07:26:31.630Z</time>
      </trkpt>
      <trkpt lat="46.92182" lon="8.68965">
        <ele>1904</ele>
        <time>2021-08-07T07:26:32.629Z</time>
      </trkpt>
      <trkpt lat="46.92182" lon="8.68964">
        <ele>1904</ele>
        <time>2021-08-07T07:26:33.630Z</time>
      </trkpt>
      <trkpt lat="46.92182" lon="8.68964">
        <ele>1903</ele>
        <time>2021-08-07T07:26:34.629Z</time>
      </trkpt>
      <trkpt lat="46.92181" lon="8.68964">
        <ele>1903</ele>
        <time>2021-08-07T07:26:35.629Z</time>
      </trkpt>
      <trkpt lat="46.92181" lon="8.68964">
        <ele>1903</ele>
        <time>2021-08-07T07:26:36.630Z</time>
      </trkpt>
      <trkpt lat="46.92181" lon="8.68963">
        <ele>1903</ele>
        <time>2021-08-07T07:26:37.629Z</time>
      </trkpt>
      <trkpt lat="46.92181" lon="8.68963">
        <ele>1903</ele>
        <time>2021-08-07T07:26:38.630Z</time>
      </trkpt>
      <trkpt lat="46.92181" lon="8.68963">
        <ele>1903</ele>
        <time>2021-08-07T07:26:39.629Z</time>
      </trkpt>
      <trkpt lat="46.92181" lon="8.68962">
        <ele>1903</ele>
        <time>2021-08-07T07:26:40.629Z</time>
      </trkpt>
      <trkpt lat="46.92181" lon="8.68961">
        <ele>1903</ele>
        <time>2021-08-07T07:26:41.630Z</time>
      </trkpt>
      <trkpt lat="46.92181" lon="8.68961">
        <ele>1903</ele>
        <time>2021-08-07T07:26:42.630Z</time>
      </trkpt>
      <trkpt lat="46.92181" lon="8.6896">
        <ele>1903</ele>
        <time>2021-08-07T07:26:43.630Z</time>
      </trkpt>
      <trkpt lat="46.9218" lon="8.6896">
        <ele>1903</ele>
        <time>2021-08-07T07:26:44.630Z</time>
      </trkpt>
      <trkpt lat="46.9218" lon="8.68959">
        <ele>1904</ele>
        <time>2021-08-07T07:26:45.630Z</time>
      </trkpt>
      <trkpt lat="46.9218" lon="8.68958">
        <ele>1905</ele>
        <time>2021-08-07T07:26:46.630Z</time>
      </trkpt>
      <trkpt lat="46.9218" lon="8.68957">
        <ele>1905</ele>
        <time>2021-08-07T07:26:47.629Z</time>
      </trkpt>
      <trkpt lat="46.92179" lon="8.68956">
        <ele>1905</ele>
        <time>2021-08-07T07:26:48.629Z</time>
      </trkpt>
      <trkpt lat="46.92179" lon="8.68956">
        <ele>1905</ele>
        <time>2021-08-07T07:26:49.630Z</time>
      </trkpt>
      <trkpt lat="46.92179" lon="8.68956">
        <ele>1905</ele>
        <time>2021-08-07T07:26:50.630Z</time>
      </trkpt>
      <trkpt lat="46.9218" lon="8.68957">
        <ele>1904</ele>
        <time>2021-08-07T07:26:51.630Z</time>
      </trkpt>
      <trkpt lat="46.9218" lon="8.68957">
        <ele>1904</ele>
        <time>2021-08-07T07:26:52.629Z</time>
      </trkpt>
      <trkpt lat="46.92182" lon="8.68958">
        <ele>1903</ele>
        <time>2021-08-07T07:26:53.630Z</time>
      </trkpt>
      <trkpt lat="46.92182" lon="8.68957">
        <ele>1903</ele>
        <time>2021-08-07T07:26:54.630Z</time>
      </trkpt>
      <trkpt lat="46.92182" lon="8.68957">
        <ele>1903</ele>
        <time>2021-08-07T07:26:55.630Z</time>
      </trkpt>
      <trkpt lat="46.92183" lon="8.68956">
        <ele>1903</ele>
        <time>2021-08-07T07:26:56.630Z</time>
      </trkpt>
      <trkpt lat="46.92183" lon="8.68955">
        <ele>1903</ele>
        <time>2021-08-07T07:26:57.630Z</time>
      </trkpt>
      <trkpt lat="46.92184" lon="8.68954">
        <ele>1904</ele>
        <time>2021-08-07T07:26:58.630Z</time>
      </trkpt>
      <trkpt lat="46.92184" lon="8.68953">
        <ele>1904</ele>
        <time>2021-08-07T07:26:59.630Z</time>
      </trkpt>
      <trkpt lat="46.92184" lon="8.68952">
        <ele>1904</ele>
        <time>2021-08-07T07:27:00.630Z</time>
      </trkpt>
      <trkpt lat="46.92184" lon="8.68951">
        <ele>1905</ele>
        <time>2021-08-07T07:27:01.629Z</time>
      </trkpt>
      <trkpt lat="46.92184" lon="8.6895">
        <ele>1905</ele>
        <time>2021-08-07T07:27:02.629Z</time>
      </trkpt>
      <trkpt lat="46.92183" lon="8.6895">
        <ele>1906</ele>
        <time>2021-08-07T07:27:03.630Z</time>
      </trkpt>
      <trkpt lat="46.92183" lon="8.6895">
        <ele>1906</ele>
        <time>2021-08-07T07:27:04.629Z</time>
      </trkpt>
      <trkpt lat="46.92182" lon="8.68948">
        <ele>1907</ele>
        <time>2021-08-07T07:27:05.630Z</time>
      </trkpt>
      <trkpt lat="46.92182" lon="8.68947">
        <ele>1908</ele>
        <time>2021-08-07T07:27:06.630Z</time>
      </trkpt>
      <trkpt lat="46.92182" lon="8.68946">
        <ele>1909</ele>
        <time>2021-08-07T07:27:07.629Z</time>
      </trkpt>
      <trkpt lat="46.9218" lon="8.68944">
        <ele>1909</ele>
        <time>2021-08-07T07:27:08.629Z</time>
      </trkpt>
      <trkpt lat="46.9218" lon="8.68943">
        <ele>1909</ele>
        <time>2021-08-07T07:27:09.630Z</time>
      </trkpt>
      <trkpt lat="46.92179" lon="8.68943">
        <ele>1910</ele>
        <time>2021-08-07T07:27:10.630Z</time>
      </trkpt>
      <trkpt lat="46.92179" lon="8.68943">
        <ele>1910</ele>
        <time>2021-08-07T07:27:11.630Z</time>
      </trkpt>
      <trkpt lat="46.92179" lon="8.68943">
        <ele>1910</ele>
        <time>2021-08-07T07:27:12.629Z</time>
      </trkpt>
      <trkpt lat="46.92177" lon="8.68941">
        <ele>1909</ele>
        <time>2021-08-07T07:27:13.630Z</time>
      </trkpt>
      <trkpt lat="46.92177" lon="8.68941">
        <ele>1909</ele>
        <time>2021-08-07T07:27:14.630Z</time>
      </trkpt>
      <trkpt lat="46.92177" lon="8.6894">
        <ele>1909</ele>
        <time>2021-08-07T07:27:15.630Z</time>
      </trkpt>
      <trkpt lat="46.92177" lon="8.6894">
        <ele>1909</ele>
        <time>2021-08-07T07:27:16.630Z</time>
      </trkpt>
      <trkpt lat="46.92177" lon="8.68941">
        <ele>1909</ele>
        <time>2021-08-07T07:27:17.630Z</time>
      </trkpt>
      <trkpt lat="46.92178" lon="8.68942">
        <ele>1909</ele>
        <time>2021-08-07T07:27:18.630Z</time>
      </trkpt>
      <trkpt lat="46.92178" lon="8.68942">
        <ele>1908</ele>
        <time>2021-08-07T07:27:19.630Z</time>
      </trkpt>
      <trkpt lat="46.92179" lon="8.68942">
        <ele>1908</ele>
        <time>2021-08-07T07:27:20.629Z</time>
      </trkpt>
      <trkpt lat="46.9218" lon="8.68942">
        <ele>1908</ele>
        <time>2021-08-07T07:27:21.629Z</time>
      </trkpt>
      <trkpt lat="46.92181" lon="8.68941">
        <ele>1909</ele>
        <time>2021-08-07T07:27:22.629Z</time>
      </trkpt>
      <trkpt lat="46.92181" lon="8.68941">
        <ele>1909</ele>
        <time>2021-08-07T07:27:23.629Z</time>
      </trkpt>
      <trkpt lat="46.92181" lon="8.6894">
        <ele>1909</ele>
        <time>2021-08-07T07:27:24.629Z</time>
      </trkpt>
      <trkpt lat="46.92181" lon="8.6894">
        <ele>1909</ele>
        <time>2021-08-07T07:27:25.630Z</time>
      </trkpt>
      <trkpt lat="46.9218" lon="8.68938">
        <ele>1910</ele>
        <time>2021-08-07T07:27:26.629Z</time>
      </trkpt>
      <trkpt lat="46.9218" lon="8.68938">
        <ele>1911</ele>
        <time>2021-08-07T07:27:27.629Z</time>
      </trkpt>
      <trkpt lat="46.92181" lon="8.68938">
        <ele>1911</ele>
        <time>2021-08-07T07:27:28.629Z</time>
      </trkpt>
      <trkpt lat="46.92181" lon="8.68937">
        <ele>1912</ele>
        <time>2021-08-07T07:27:29.631Z</time>
      </trkpt>
      <trkpt lat="46.92182" lon="8.68937">
        <ele>1912</ele>
        <time>2021-08-07T07:27:30.632Z</time>
      </trkpt>
      <trkpt lat="46.92182" lon="8.68937">
        <ele>1912</ele>
        <time>2021-08-07T07:27:31.632Z</time>
      </trkpt>
      <trkpt lat="46.92182" lon="8.68937">
        <ele>1912</ele>
        <time>2021-08-07T07:27:32.632Z</time>
      </trkpt>
      <trkpt lat="46.92182" lon="8.68937">
        <ele>1912</ele>
        <time>2021-08-07T07:27:33.632Z</time>
      </trkpt>
      <trkpt lat="46.92183" lon="8.68937">
        <ele>1912</ele>
        <time>2021-08-07T07:27:34.632Z</time>
      </trkpt>
      <trkpt lat="46.92183" lon="8.68937">
        <ele>1912</ele>
        <time>2021-08-07T07:27:35.631Z</time>
      </trkpt>
      <trkpt lat="46.92184" lon="8.68937">
        <ele>1912</ele>
        <time>2021-08-07T07:27:36.632Z</time>
      </trkpt>
      <trkpt lat="46.92184" lon="8.68936">
        <ele>1911</ele>
        <time>2021-08-07T07:27:37.632Z</time>
      </trkpt>
      <trkpt lat="46.92184" lon="8.68936">
        <ele>1911</ele>
        <time>2021-08-07T07:27:38.633Z</time>
      </trkpt>
      <trkpt lat="46.92185" lon="8.68936">
        <ele>1911</ele>
        <time>2021-08-07T07:27:39.632Z</time>
      </trkpt>
      <trkpt lat="46.92185" lon="8.68935">
        <ele>1911</ele>
        <time>2021-08-07T07:27:40.632Z</time>
      </trkpt>
      <trkpt lat="46.92185" lon="8.68934">
        <ele>1911</ele>
        <time>2021-08-07T07:27:41.632Z</time>
      </trkpt>
      <trkpt lat="46.92184" lon="8.68933">
        <ele>1911</ele>
        <time>2021-08-07T07:27:42.632Z</time>
      </trkpt>
      <trkpt lat="46.92183" lon="8.68933">
        <ele>1911</ele>
        <time>2021-08-07T07:27:43.633Z</time>
      </trkpt>
      <trkpt lat="46.92182" lon="8.68933">
        <ele>1911</ele>
        <time>2021-08-07T07:27:44.633Z</time>
      </trkpt>
      <trkpt lat="46.92182" lon="8.68935">
        <ele>1911</ele>
        <time>2021-08-07T07:27:45.634Z</time>
      </trkpt>
      <trkpt lat="46.92181" lon="8.68935">
        <ele>1911</ele>
        <time>2021-08-07T07:27:46.634Z</time>
      </trkpt>
      <trkpt lat="46.9218" lon="8.68933">
        <ele>1912</ele>
        <time>2021-08-07T07:27:47.635Z</time>
      </trkpt>
      <trkpt lat="46.92181" lon="8.68933">
        <ele>1913</ele>
        <time>2021-08-07T07:27:48.634Z</time>
      </trkpt>
      <trkpt lat="46.92181" lon="8.68933">
        <ele>1913</ele>
        <time>2021-08-07T07:27:49.634Z</time>
      </trkpt>
      <trkpt lat="46.92181" lon="8.68932">
        <ele>1914</ele>
        <time>2021-08-07T07:27:50.635Z</time>
      </trkpt>
      <trkpt lat="46.9218" lon="8.68934">
        <ele>1914</ele>
        <time>2021-08-07T07:27:51.636Z</time>
      </trkpt>
      <trkpt lat="46.92179" lon="8.68934">
        <ele>1915</ele>
        <time>2021-08-07T07:27:52.636Z</time>
      </trkpt>
      <trkpt lat="46.92179" lon="8.68935">
        <ele>1916</ele>
        <time>2021-08-07T07:27:53.635Z</time>
      </trkpt>
      <trkpt lat="46.92178" lon="8.68937">
        <ele>1922</ele>
        <time>2021-08-07T07:27:54.636Z</time>
      </trkpt>
      <trkpt lat="46.92178" lon="8.68936">
        <ele>1921</ele>
        <time>2021-08-07T07:27:55.636Z</time>
      </trkpt>
      <trkpt lat="46.92178" lon="8.68936">
        <ele>1920</ele>
        <time>2021-08-07T07:27:56.635Z</time>
      </trkpt>
      <trkpt lat="46.92177" lon="8.68936">
        <ele>1920</ele>
        <time>2021-08-07T07:27:57.636Z</time>
      </trkpt>
      <trkpt lat="46.92178" lon="8.68937">
        <ele>1919</ele>
        <time>2021-08-07T07:27:58.635Z</time>
      </trkpt>
      <trkpt lat="46.92178" lon="8.68939">
        <ele>1919</ele>
        <time>2021-08-07T07:27:59.636Z</time>
      </trkpt>
      <trkpt lat="46.92178" lon="8.6894">
        <ele>1917</ele>
        <time>2021-08-07T07:28:00.637Z</time>
      </trkpt>
      <trkpt lat="46.92178" lon="8.6894">
        <ele>1917</ele>
        <time>2021-08-07T07:28:01.638Z</time>
      </trkpt>
      <trkpt lat="46.92178" lon="8.6894">
        <ele>1916</ele>
        <time>2021-08-07T07:28:02.638Z</time>
      </trkpt>
      <trkpt lat="46.92181" lon="8.68941">
        <ele>1915</ele>
        <time>2021-08-07T07:28:03.639Z</time>
      </trkpt>
      <trkpt lat="46.92181" lon="8.68941">
        <ele>1917</ele>
        <time>2021-08-07T07:28:04.639Z</time>
      </trkpt>
      <trkpt lat="46.92181" lon="8.68942">
        <ele>1919</ele>
        <time>2021-08-07T07:28:05.638Z</time>
      </trkpt>
      <trkpt lat="46.92181" lon="8.68942">
        <ele>1920</ele>
        <time>2021-08-07T07:28:06.639Z</time>
      </trkpt>
      <trkpt lat="46.92181" lon="8.6894">
        <ele>1927</ele>
        <time>2021-08-07T07:28:07.639Z</time>
      </trkpt>
      <trkpt lat="46.9218" lon="8.6894">
        <ele>1927</ele>
        <time>2021-08-07T07:28:08.639Z</time>
      </trkpt>
      <trkpt lat="46.9218" lon="8.68938">
        <ele>1927</ele>
        <time>2021-08-07T07:28:09.638Z</time>
      </trkpt>
      <trkpt lat="46.92179" lon="8.68937">
        <ele>1927</ele>
        <time>2021-08-07T07:28:10.638Z</time>
      </trkpt>
      <trkpt lat="46.92178" lon="8.68937">
        <ele>1927</ele>
        <time>2021-08-07T07:28:11.639Z</time>
      </trkpt>
      <trkpt lat="46.92177" lon="8.68936">
        <ele>1927</ele>
        <time>2021-08-07T07:28:12.638Z</time>
      </trkpt>
      <trkpt lat="46.92176" lon="8.68936">
        <ele>1927</ele>
        <time>2021-08-07T07:28:13.638Z</time>
      </trkpt>
      <trkpt lat="46.92175" lon="8.68936">
        <ele>1927</ele>
        <time>2021-08-07T07:28:14.638Z</time>
      </trkpt>
      <trkpt lat="46.92174" lon="8.68934">
        <ele>1927</ele>
        <time>2021-08-07T07:28:15.639Z</time>
      </trkpt>
      <trkpt lat="46.92174" lon="8.68934">
        <ele>1927</ele>
        <time>2021-08-07T07:28:16.639Z</time>
      </trkpt>
      <trkpt lat="46.92173" lon="8.68933">
        <ele>1926</ele>
        <time>2021-08-07T07:28:17.639Z</time>
      </trkpt>
      <trkpt lat="46.92173" lon="8.68933">
        <ele>1926</ele>
        <time>2021-08-07T07:28:18.639Z</time>
      </trkpt>
      <trkpt lat="46.92169" lon="8.6893">
        <ele>1925</ele>
        <time>2021-08-07T07:28:19.640Z</time>
      </trkpt>
      <trkpt lat="46.92168" lon="8.68929">
        <ele>1925</ele>
        <time>2021-08-07T07:28:20.639Z</time>
      </trkpt>
      <trkpt lat="46.92167" lon="8.68928">
        <ele>1924</ele>
        <time>2021-08-07T07:28:21.639Z</time>
      </trkpt>
      <trkpt lat="46.92167" lon="8.68928">
        <ele>1923</ele>
        <time>2021-08-07T07:28:22.639Z</time>
      </trkpt>
      <trkpt lat="46.92166" lon="8.68927">
        <ele>1923</ele>
        <time>2021-08-07T07:28:23.639Z</time>
      </trkpt>
      <trkpt lat="46.92165" lon="8.68927">
        <ele>1922</ele>
        <time>2021-08-07T07:28:24.639Z</time>
      </trkpt>
      <trkpt lat="46.92164" lon="8.68926">
        <ele>1921</ele>
        <time>2021-08-07T07:28:25.640Z</time>
      </trkpt>
      <trkpt lat="46.92164" lon="8.68927">
        <ele>1921</ele>
        <time>2021-08-07T07:28:26.640Z</time>
      </trkpt>
      <trkpt lat="46.92164" lon="8.68927">
        <ele>1920</ele>
        <time>2021-08-07T07:28:27.639Z</time>
      </trkpt>
      <trkpt lat="46.92164" lon="8.68928">
        <ele>1920</ele>
        <time>2021-08-07T07:28:28.639Z</time>
      </trkpt>
      <trkpt lat="46.92163" lon="8.68928">
        <ele>1920</ele>
        <time>2021-08-07T07:28:29.639Z</time>
      </trkpt>
      <trkpt lat="46.92163" lon="8.68928">
        <ele>1919</ele>
        <time>2021-08-07T07:28:30.639Z</time>
      </trkpt>
      <trkpt lat="46.92162" lon="8.68928">
        <ele>1919</ele>
        <time>2021-08-07T07:28:31.639Z</time>
      </trkpt>
      <trkpt lat="46.92161" lon="8.68927">
        <ele>1918</ele>
        <time>2021-08-07T07:28:32.640Z</time>
      </trkpt>
      <trkpt lat="46.92161" lon="8.68927">
        <ele>1918</ele>
        <time>2021-08-07T07:28:33.639Z</time>
      </trkpt>
      <trkpt lat="46.9216" lon="8.68927">
        <ele>1917</ele>
        <time>2021-08-07T07:28:34.640Z</time>
      </trkpt>
      <trkpt lat="46.9216" lon="8.68927">
        <ele>1917</ele>
        <time>2021-08-07T07:28:35.639Z</time>
      </trkpt>
      <trkpt lat="46.92159" lon="8.68926">
        <ele>1916</ele>
        <time>2021-08-07T07:28:36.640Z</time>
      </trkpt>
      <trkpt lat="46.92159" lon="8.68926">
        <ele>1915</ele>
        <time>2021-08-07T07:28:37.640Z</time>
      </trkpt>
      <trkpt lat="46.92158" lon="8.68926">
        <ele>1915</ele>
        <time>2021-08-07T07:28:38.639Z</time>
      </trkpt>
      <trkpt lat="46.92158" lon="8.68926">
        <ele>1914</ele>
        <time>2021-08-07T07:28:39.639Z</time>
      </trkpt>
      <trkpt lat="46.92157" lon="8.68926">
        <ele>1914</ele>
        <time>2021-08-07T07:28:40.639Z</time>
      </trkpt>
      <trkpt lat="46.92157" lon="8.68926">
        <ele>1914</ele>
        <time>2021-08-07T07:28:41.639Z</time>
      </trkpt>
      <trkpt lat="46.92156" lon="8.68926">
        <ele>1914</ele>
        <time>2021-08-07T07:28:42.639Z</time>
      </trkpt>
      <trkpt lat="46.92156" lon="8.68925">
        <ele>1914</ele>
        <time>2021-08-07T07:28:43.640Z</time>
      </trkpt>
      <trkpt lat="46.92155" lon="8.68925">
        <ele>1914</ele>
        <time>2021-08-07T07:28:44.640Z</time>
      </trkpt>
      <trkpt lat="46.92155" lon="8.68925">
        <ele>1914</ele>
        <time>2021-08-07T07:28:45.639Z</time>
      </trkpt>
      <trkpt lat="46.92154" lon="8.68925">
        <ele>1914</ele>
        <time>2021-08-07T07:28:46.639Z</time>
      </trkpt>
      <trkpt lat="46.92154" lon="8.68924">
        <ele>1915</ele>
        <time>2021-08-07T07:28:47.639Z</time>
      </trkpt>
      <trkpt lat="46.92153" lon="8.68924">
        <ele>1915</ele>
        <time>2021-08-07T07:28:48.639Z</time>
      </trkpt>
      <trkpt lat="46.92153" lon="8.68924">
        <ele>1915</ele>
        <time>2021-08-07T07:28:49.639Z</time>
      </trkpt>
      <trkpt lat="46.92152" lon="8.68924">
        <ele>1915</ele>
        <time>2021-08-07T07:28:50.640Z</time>
      </trkpt>
      <trkpt lat="46.92152" lon="8.68923">
        <ele>1915</ele>
        <time>2021-08-07T07:28:51.639Z</time>
      </trkpt>
      <trkpt lat="46.92151" lon="8.68923">
        <ele>1916</ele>
        <time>2021-08-07T07:28:52.640Z</time>
      </trkpt>
      <trkpt lat="46.92151" lon="8.68922">
        <ele>1916</ele>
        <time>2021-08-07T07:28:53.640Z</time>
      </trkpt>
      <trkpt lat="46.9215" lon="8.68922">
        <ele>1917</ele>
        <time>2021-08-07T07:28:54.639Z</time>
      </trkpt>
      <trkpt lat="46.92149" lon="8.68921">
        <ele>1917</ele>
        <time>2021-08-07T07:28:55.639Z</time>
      </trkpt>
      <trkpt lat="46.92149" lon="8.68921">
        <ele>1918</ele>
        <time>2021-08-07T07:28:56.640Z</time>
      </trkpt>
      <trkpt lat="46.92148" lon="8.6892">
        <ele>1918</ele>
        <time>2021-08-07T07:28:57.640Z</time>
      </trkpt>
      <trkpt lat="46.92148" lon="8.6892">
        <ele>1918</ele>
        <time>2021-08-07T07:28:58.639Z</time>
      </trkpt>
      <trkpt lat="46.92147" lon="8.6892">
        <ele>1918</ele>
        <time>2021-08-07T07:28:59.639Z</time>
      </trkpt>
      <trkpt lat="46.92147" lon="8.68919">
        <ele>1918</ele>
        <time>2021-08-07T07:29:00.640Z</time>
      </trkpt>
      <trkpt lat="46.92146" lon="8.68919">
        <ele>1918</ele>
        <time>2021-08-07T07:29:01.640Z</time>
      </trkpt>
      <trkpt lat="46.92145" lon="8.68919">
        <ele>1919</ele>
        <time>2021-08-07T07:29:02.639Z</time>
      </trkpt>
      <trkpt lat="46.92145" lon="8.68918">
        <ele>1919</ele>
        <time>2021-08-07T07:29:03.640Z</time>
      </trkpt>
      <trkpt lat="46.92144" lon="8.68918">
        <ele>1920</ele>
        <time>2021-08-07T07:29:04.639Z</time>
      </trkpt>
      <trkpt lat="46.92142" lon="8.68917">
        <ele>1920</ele>
        <time>2021-08-07T07:29:05.639Z</time>
      </trkpt>
      <trkpt lat="46.92142" lon="8.68917">
        <ele>1921</ele>
        <time>2021-08-07T07:29:06.639Z</time>
      </trkpt>
      <trkpt lat="46.92141" lon="8.68916">
        <ele>1921</ele>
        <time>2021-08-07T07:29:07.639Z</time>
      </trkpt>
      <trkpt lat="46.9214" lon="8.68916">
        <ele>1921</ele>
        <time>2021-08-07T07:29:08.639Z</time>
      </trkpt>
      <trkpt lat="46.9214" lon="8.68916">
        <ele>1921</ele>
        <time>2021-08-07T07:29:09.639Z</time>
      </trkpt>
      <trkpt lat="46.92139" lon="8.68916">
        <ele>1922</ele>
        <time>2021-08-07T07:29:10.639Z</time>
      </trkpt>
      <trkpt lat="46.92139" lon="8.68916">
        <ele>1922</ele>
        <time>2021-08-07T07:29:11.639Z</time>
      </trkpt>
      <trkpt lat="46.92138" lon="8.68915">
        <ele>1922</ele>
        <time>2021-08-07T07:29:12.639Z</time>
      </trkpt>
      <trkpt lat="46.92138" lon="8.68914">
        <ele>1922</ele>
        <time>2021-08-07T07:29:13.639Z</time>
      </trkpt>
      <trkpt lat="46.92138" lon="8.68914">
        <ele>1922</ele>
        <time>2021-08-07T07:29:14.639Z</time>
      </trkpt>
      <trkpt lat="46.92137" lon="8.68914">
        <ele>1922</ele>
        <time>2021-08-07T07:29:15.639Z</time>
      </trkpt>
      <trkpt lat="46.92136" lon="8.68913">
        <ele>1922</ele>
        <time>2021-08-07T07:29:16.640Z</time>
      </trkpt>
      <trkpt lat="46.92135" lon="8.68913">
        <ele>1922</ele>
        <time>2021-08-07T07:29:17.639Z</time>
      </trkpt>
      <trkpt lat="46.92135" lon="8.68913">
        <ele>1922</ele>
        <time>2021-08-07T07:29:18.639Z</time>
      </trkpt>
      <trkpt lat="46.92134" lon="8.68913">
        <ele>1922</ele>
        <time>2021-08-07T07:29:19.640Z</time>
      </trkpt>
      <trkpt lat="46.92134" lon="8.68913">
        <ele>1921</ele>
        <time>2021-08-07T07:29:20.639Z</time>
      </trkpt>
      <trkpt lat="46.92133" lon="8.68913">
        <ele>1922</ele>
        <time>2021-08-07T07:29:21.640Z</time>
      </trkpt>
      <trkpt lat="46.92133" lon="8.68913">
        <ele>1922</ele>
        <time>2021-08-07T07:29:22.639Z</time>
      </trkpt>
      <trkpt lat="46.92132" lon="8.68912">
        <ele>1922</ele>
        <time>2021-08-07T07:29:23.640Z</time>
      </trkpt>
      <trkpt lat="46.92132" lon="8.68912">
        <ele>1922</ele>
        <time>2021-08-07T07:29:24.640Z</time>
      </trkpt>
      <trkpt lat="46.92132" lon="8.68912">
        <ele>1922</ele>
        <time>2021-08-07T07:29:25.639Z</time>
      </trkpt>
      <trkpt lat="46.92131" lon="8.68912">
        <ele>1921</ele>
        <time>2021-08-07T07:29:26.639Z</time>
      </trkpt>
      <trkpt lat="46.92131" lon="8.68911">
        <ele>1921</ele>
        <time>2021-08-07T07:29:27.639Z</time>
      </trkpt>
      <trkpt lat="46.9213" lon="8.68911">
        <ele>1921</ele>
        <time>2021-08-07T07:29:28.640Z</time>
      </trkpt>
      <trkpt lat="46.92129" lon="8.68911">
        <ele>1921</ele>
        <time>2021-08-07T07:29:29.639Z</time>
      </trkpt>
      <trkpt lat="46.92128" lon="8.6891">
        <ele>1921</ele>
        <time>2021-08-07T07:29:30.639Z</time>
      </trkpt>
      <trkpt lat="46.92127" lon="8.6891">
        <ele>1922</ele>
        <time>2021-08-07T07:29:31.639Z</time>
      </trkpt>
      <trkpt lat="46.92127" lon="8.68909">
        <ele>1922</ele>
        <time>2021-08-07T07:29:32.639Z</time>
      </trkpt>
      <trkpt lat="46.92126" lon="8.68909">
        <ele>1922</ele>
        <time>2021-08-07T07:29:33.639Z</time>
      </trkpt>
      <trkpt lat="46.92126" lon="8.68909">
        <ele>1923</ele>
        <time>2021-08-07T07:29:34.639Z</time>
      </trkpt>
      <trkpt lat="46.92125" lon="8.68909">
        <ele>1923</ele>
        <time>2021-08-07T07:29:35.639Z</time>
      </trkpt>
      <trkpt lat="46.92125" lon="8.68909">
        <ele>1924</ele>
        <time>2021-08-07T07:29:36.640Z</time>
      </trkpt>
      <trkpt lat="46.92124" lon="8.68909">
        <ele>1924</ele>
        <time>2021-08-07T07:29:37.639Z</time>
      </trkpt>
      <trkpt lat="46.92123" lon="8.68908">
        <ele>1925</ele>
        <time>2021-08-07T07:29:38.639Z</time>
      </trkpt>
      <trkpt lat="46.92123" lon="8.68908">
        <ele>1925</ele>
        <time>2021-08-07T07:29:39.640Z</time>
      </trkpt>
      <trkpt lat="46.92122" lon="8.68908">
        <ele>1925</ele>
        <time>2021-08-07T07:29:40.639Z</time>
      </trkpt>
      <trkpt lat="46.92122" lon="8.68908">
        <ele>1925</ele>
        <time>2021-08-07T07:29:41.639Z</time>
      </trkpt>
      <trkpt lat="46.92121" lon="8.68908">
        <ele>1926</ele>
        <time>2021-08-07T07:29:42.639Z</time>
      </trkpt>
      <trkpt lat="46.9212" lon="8.68908">
        <ele>1926</ele>
        <time>2021-08-07T07:29:43.639Z</time>
      </trkpt>
      <trkpt lat="46.92119" lon="8.68907">
        <ele>1926</ele>
        <time>2021-08-07T07:29:44.639Z</time>
      </trkpt>
      <trkpt lat="46.92119" lon="8.68907">
        <ele>1926</ele>
        <time>2021-08-07T07:29:45.639Z</time>
      </trkpt>
      <trkpt lat="46.92118" lon="8.68907">
        <ele>1926</ele>
        <time>2021-08-07T07:29:46.640Z</time>
      </trkpt>
      <trkpt lat="46.92118" lon="8.68907">
        <ele>1926</ele>
        <time>2021-08-07T07:29:47.639Z</time>
      </trkpt>
      <trkpt lat="46.92117" lon="8.68906">
        <ele>1926</ele>
        <time>2021-08-07T07:29:48.640Z</time>
      </trkpt>
      <trkpt lat="46.92117" lon="8.68906">
        <ele>1926</ele>
        <time>2021-08-07T07:29:49.639Z</time>
      </trkpt>
      <trkpt lat="46.92116" lon="8.68906">
        <ele>1926</ele>
        <time>2021-08-07T07:29:50.640Z</time>
      </trkpt>
      <trkpt lat="46.92116" lon="8.68906">
        <ele>1926</ele>
        <time>2021-08-07T07:29:51.639Z</time>
      </trkpt>
      <trkpt lat="46.92115" lon="8.68906">
        <ele>1926</ele>
        <time>2021-08-07T07:29:52.639Z</time>
      </trkpt>
      <trkpt lat="46.92114" lon="8.68906">
        <ele>1926</ele>
        <time>2021-08-07T07:29:53.639Z</time>
      </trkpt>
      <trkpt lat="46.92114" lon="8.68906">
        <ele>1926</ele>
        <time>2021-08-07T07:29:54.639Z</time>
      </trkpt>
      <trkpt lat="46.92113" lon="8.68905">
        <ele>1926</ele>
        <time>2021-08-07T07:29:55.639Z</time>
      </trkpt>
      <trkpt lat="46.92112" lon="8.68906">
        <ele>1926</ele>
        <time>2021-08-07T07:29:56.639Z</time>
      </trkpt>
      <trkpt lat="46.92112" lon="8.68906">
        <ele>1926</ele>
        <time>2021-08-07T07:29:57.640Z</time>
      </trkpt>
      <trkpt lat="46.92112" lon="8.68906">
        <ele>1926</ele>
        <time>2021-08-07T07:29:58.639Z</time>
      </trkpt>
      <trkpt lat="46.92111" lon="8.68906">
        <ele>1925</ele>
        <time>2021-08-07T07:29:59.639Z</time>
      </trkpt>
      <trkpt lat="46.92111" lon="8.68906">
        <ele>1925</ele>
        <time>2021-08-07T07:30:00.639Z</time>
      </trkpt>
      <trkpt lat="46.92111" lon="8.68906">
        <ele>1925</ele>
        <time>2021-08-07T07:30:01.639Z</time>
      </trkpt>
      <trkpt lat="46.9211" lon="8.68906">
        <ele>1925</ele>
        <time>2021-08-07T07:30:02.639Z</time>
      </trkpt>
      <trkpt lat="46.92109" lon="8.68906">
        <ele>1925</ele>
        <time>2021-08-07T07:30:03.639Z</time>
      </trkpt>
      <trkpt lat="46.92108" lon="8.68905">
        <ele>1925</ele>
        <time>2021-08-07T07:30:04.639Z</time>
      </trkpt>
      <trkpt lat="46.92108" lon="8.68904">
        <ele>1926</ele>
        <time>2021-08-07T07:30:05.639Z</time>
      </trkpt>
      <trkpt lat="46.92107" lon="8.68904">
        <ele>1926</ele>
        <time>2021-08-07T07:30:06.639Z</time>
      </trkpt>
      <trkpt lat="46.92107" lon="8.68903">
        <ele>1927</ele>
        <time>2021-08-07T07:30:07.640Z</time>
      </trkpt>
      <trkpt lat="46.92106" lon="8.68903">
        <ele>1928</ele>
        <time>2021-08-07T07:30:08.639Z</time>
      </trkpt>
      <trkpt lat="46.92106" lon="8.68903">
        <ele>1928</ele>
        <time>2021-08-07T07:30:09.639Z</time>
      </trkpt>
      <trkpt lat="46.92106" lon="8.68903">
        <ele>1929</ele>
        <time>2021-08-07T07:30:10.639Z</time>
      </trkpt>
      <trkpt lat="46.92106" lon="8.68903">
        <ele>1929</ele>
        <time>2021-08-07T07:30:11.639Z</time>
      </trkpt>
      <trkpt lat="46.92106" lon="8.68903">
        <ele>1930</ele>
        <time>2021-08-07T07:30:12.640Z</time>
      </trkpt>
      <trkpt lat="46.92104" lon="8.68902">
        <ele>1930</ele>
        <time>2021-08-07T07:30:13.640Z</time>
      </trkpt>
      <trkpt lat="46.92104" lon="8.68901">
        <ele>1931</ele>
        <time>2021-08-07T07:30:14.639Z</time>
      </trkpt>
      <trkpt lat="46.92103" lon="8.689">
        <ele>1931</ele>
        <time>2021-08-07T07:30:15.639Z</time>
      </trkpt>
      <trkpt lat="46.92102" lon="8.68899">
        <ele>1932</ele>
        <time>2021-08-07T07:30:16.640Z</time>
      </trkpt>
      <trkpt lat="46.92101" lon="8.68898">
        <ele>1932</ele>
        <time>2021-08-07T07:30:17.640Z</time>
      </trkpt>
      <trkpt lat="46.921" lon="8.68897">
        <ele>1933</ele>
        <time>2021-08-07T07:30:18.639Z</time>
      </trkpt>
      <trkpt lat="46.92099" lon="8.68897">
        <ele>1934</ele>
        <time>2021-08-07T07:30:19.639Z</time>
      </trkpt>
      <trkpt lat="46.92098" lon="8.68897">
        <ele>1934</ele>
        <time>2021-08-07T07:30:20.639Z</time>
      </trkpt>
      <trkpt lat="46.92097" lon="8.68897">
        <ele>1934</ele>
        <time>2021-08-07T07:30:21.640Z</time>
      </trkpt>
      <trkpt lat="46.92097" lon="8.68896">
        <ele>1934</ele>
        <time>2021-08-07T07:30:22.639Z</time>
      </trkpt>
      <trkpt lat="46.92096" lon="8.68896">
        <ele>1934</ele>
        <time>2021-08-07T07:30:23.639Z</time>
      </trkpt>
      <trkpt lat="46.92095" lon="8.68896">
        <ele>1935</ele>
        <time>2021-08-07T07:30:24.640Z</time>
      </trkpt>
      <trkpt lat="46.92095" lon="8.68896">
        <ele>1934</ele>
        <time>2021-08-07T07:30:25.640Z</time>
      </trkpt>
      <trkpt lat="46.92095" lon="8.68896">
        <ele>1934</ele>
        <time>2021-08-07T07:30:26.640Z</time>
      </trkpt>
      <trkpt lat="46.92094" lon="8.68897">
        <ele>1934</ele>
        <time>2021-08-07T07:30:27.639Z</time>
      </trkpt>
      <trkpt lat="46.92093" lon="8.68897">
        <ele>1934</ele>
        <time>2021-08-07T07:30:28.639Z</time>
      </trkpt>
      <trkpt lat="46.92093" lon="8.68897">
        <ele>1934</ele>
        <time>2021-08-07T07:30:29.639Z</time>
      </trkpt>
      <trkpt lat="46.92092" lon="8.68896">
        <ele>1933</ele>
        <time>2021-08-07T07:30:30.640Z</time>
      </trkpt>
      <trkpt lat="46.92092" lon="8.68896">
        <ele>1933</ele>
        <time>2021-08-07T07:30:31.640Z</time>
      </trkpt>
      <trkpt lat="46.92091" lon="8.68896">
        <ele>1933</ele>
        <time>2021-08-07T07:30:32.639Z</time>
      </trkpt>
      <trkpt lat="46.92091" lon="8.68896">
        <ele>1933</ele>
        <time>2021-08-07T07:30:33.639Z</time>
      </trkpt>
      <trkpt lat="46.9209" lon="8.68896">
        <ele>1933</ele>
        <time>2021-08-07T07:30:34.640Z</time>
      </trkpt>
      <trkpt lat="46.9209" lon="8.68897">
        <ele>1933</ele>
        <time>2021-08-07T07:30:35.639Z</time>
      </trkpt>
      <trkpt lat="46.9209" lon="8.68897">
        <ele>1933</ele>
        <time>2021-08-07T07:30:36.639Z</time>
      </trkpt>
      <trkpt lat="46.92089" lon="8.68897">
        <ele>1934</ele>
        <time>2021-08-07T07:30:37.640Z</time>
      </trkpt>
      <trkpt lat="46.92088" lon="8.68898">
        <ele>1934</ele>
        <time>2021-08-07T07:30:38.639Z</time>
      </trkpt>
      <trkpt lat="46.92088" lon="8.68898">
        <ele>1934</ele>
        <time>2021-08-07T07:30:39.640Z</time>
      </trkpt>
      <trkpt lat="46.92087" lon="8.68899">
        <ele>1934</ele>
        <time>2021-08-07T07:30:40.640Z</time>
      </trkpt>
      <trkpt lat="46.92087" lon="8.689">
        <ele>1934</ele>
        <time>2021-08-07T07:30:41.640Z</time>
      </trkpt>
      <trkpt lat="46.92087" lon="8.68901">
        <ele>1934</ele>
        <time>2021-08-07T07:30:42.639Z</time>
      </trkpt>
      <trkpt lat="46.92087" lon="8.68901">
        <ele>1934</ele>
        <time>2021-08-07T07:30:43.640Z</time>
      </trkpt>
      <trkpt lat="46.92086" lon="8.68901">
        <ele>1934</ele>
        <time>2021-08-07T07:30:44.640Z</time>
      </trkpt>
      <trkpt lat="46.92085" lon="8.68901">
        <ele>1934</ele>
        <time>2021-08-07T07:30:45.640Z</time>
      </trkpt>
      <trkpt lat="46.92085" lon="8.68901">
        <ele>1934</ele>
        <time>2021-08-07T07:30:46.639Z</time>
      </trkpt>
      <trkpt lat="46.92084" lon="8.68901">
        <ele>1934</ele>
        <time>2021-08-07T07:30:47.639Z</time>
      </trkpt>
      <trkpt lat="46.92084" lon="8.68901">
        <ele>1934</ele>
        <time>2021-08-07T07:30:48.640Z</time>
      </trkpt>
      <trkpt lat="46.92084" lon="8.68902">
        <ele>1935</ele>
        <time>2021-08-07T07:30:49.640Z</time>
      </trkpt>
      <trkpt lat="46.92083" lon="8.68903">
        <ele>1935</ele>
        <time>2021-08-07T07:30:50.639Z</time>
      </trkpt>
      <trkpt lat="46.92083" lon="8.68904">
        <ele>1935</ele>
        <time>2021-08-07T07:30:51.640Z</time>
      </trkpt>
      <trkpt lat="46.92083" lon="8.68904">
        <ele>1935</ele>
        <time>2021-08-07T07:30:52.640Z</time>
      </trkpt>
      <trkpt lat="46.92083" lon="8.68903">
        <ele>1934</ele>
        <time>2021-08-07T07:30:53.640Z</time>
      </trkpt>
      <trkpt lat="46.92082" lon="8.68903">
        <ele>1934</ele>
        <time>2021-08-07T07:30:54.639Z</time>
      </trkpt>
      <trkpt lat="46.92082" lon="8.68902">
        <ele>1935</ele>
        <time>2021-08-07T07:30:55.640Z</time>
      </trkpt>
      <trkpt lat="46.92081" lon="8.68902">
        <ele>1935</ele>
        <time>2021-08-07T07:30:56.640Z</time>
      </trkpt>
      <trkpt lat="46.92081" lon="8.68902">
        <ele>1935</ele>
        <time>2021-08-07T07:30:57.639Z</time>
      </trkpt>
      <trkpt lat="46.92081" lon="8.68902">
        <ele>1936</ele>
        <time>2021-08-07T07:30:58.639Z</time>
      </trkpt>
      <trkpt lat="46.92081" lon="8.68903">
        <ele>1936</ele>
        <time>2021-08-07T07:30:59.639Z</time>
      </trkpt>
      <trkpt lat="46.9208" lon="8.68903">
        <ele>1936</ele>
        <time>2021-08-07T07:31:00.640Z</time>
      </trkpt>
      <trkpt lat="46.92079" lon="8.68904">
        <ele>1937</ele>
        <time>2021-08-07T07:31:01.639Z</time>
      </trkpt>
      <trkpt lat="46.92078" lon="8.68905">
        <ele>1937</ele>
        <time>2021-08-07T07:31:02.640Z</time>
      </trkpt>
      <trkpt lat="46.92078" lon="8.68905">
        <ele>1937</ele>
        <time>2021-08-07T07:31:03.639Z</time>
      </trkpt>
      <trkpt lat="46.92078" lon="8.68906">
        <ele>1938</ele>
        <time>2021-08-07T07:31:04.640Z</time>
      </trkpt>
      <trkpt lat="46.92078" lon="8.68906">
        <ele>1938</ele>
        <time>2021-08-07T07:31:05.640Z</time>
      </trkpt>
      <trkpt lat="46.92077" lon="8.68907">
        <ele>1939</ele>
        <time>2021-08-07T07:31:06.640Z</time>
      </trkpt>
      <trkpt lat="46.92077" lon="8.68907">
        <ele>1939</ele>
        <time>2021-08-07T07:31:07.639Z</time>
      </trkpt>
      <trkpt lat="46.92076" lon="8.68908">
        <ele>1939</ele>
        <time>2021-08-07T07:31:08.639Z</time>
      </trkpt>
      <trkpt lat="46.92075" lon="8.68908">
        <ele>1940</ele>
        <time>2021-08-07T07:31:09.639Z</time>
      </trkpt>
      <trkpt lat="46.92075" lon="8.68909">
        <ele>1941</ele>
        <time>2021-08-07T07:31:10.640Z</time>
      </trkpt>
      <trkpt lat="46.92074" lon="8.6891">
        <ele>1941</ele>
        <time>2021-08-07T07:31:11.640Z</time>
      </trkpt>
      <trkpt lat="46.92074" lon="8.6891">
        <ele>1941</ele>
        <time>2021-08-07T07:31:12.640Z</time>
      </trkpt>
      <trkpt lat="46.92073" lon="8.6891">
        <ele>1941</ele>
        <time>2021-08-07T07:31:13.639Z</time>
      </trkpt>
      <trkpt lat="46.92073" lon="8.68911">
        <ele>1942</ele>
        <time>2021-08-07T07:31:14.640Z</time>
      </trkpt>
      <trkpt lat="46.92072" lon="8.68911">
        <ele>1942</ele>
        <time>2021-08-07T07:31:15.640Z</time>
      </trkpt>
      <trkpt lat="46.92072" lon="8.68911">
        <ele>1942</ele>
        <time>2021-08-07T07:31:16.640Z</time>
      </trkpt>
      <trkpt lat="46.92071" lon="8.6891">
        <ele>1942</ele>
        <time>2021-08-07T07:31:17.639Z</time>
      </trkpt>
      <trkpt lat="46.9207" lon="8.68909">
        <ele>1941</ele>
        <time>2021-08-07T07:31:18.640Z</time>
      </trkpt>
      <trkpt lat="46.92069" lon="8.68908">
        <ele>1941</ele>
        <time>2021-08-07T07:31:19.640Z</time>
      </trkpt>
      <trkpt lat="46.92069" lon="8.68907">
        <ele>1941</ele>
        <time>2021-08-07T07:31:20.639Z</time>
      </trkpt>
      <trkpt lat="46.92069" lon="8.68906">
        <ele>1941</ele>
        <time>2021-08-07T07:31:21.640Z</time>
      </trkpt>
      <trkpt lat="46.92068" lon="8.68905">
        <ele>1940</ele>
        <time>2021-08-07T07:31:22.639Z</time>
      </trkpt>
      <trkpt lat="46.92068" lon="8.68905">
        <ele>1940</ele>
        <time>2021-08-07T07:31:23.640Z</time>
      </trkpt>
      <trkpt lat="46.92067" lon="8.68905">
        <ele>1940</ele>
        <time>2021-08-07T07:31:24.639Z</time>
      </trkpt>
      <trkpt lat="46.92067" lon="8.68904">
        <ele>1939</ele>
        <time>2021-08-07T07:31:25.640Z</time>
      </trkpt>
      <trkpt lat="46.92067" lon="8.68904">
        <ele>1939</ele>
        <time>2021-08-07T07:31:26.640Z</time>
      </trkpt>
      <trkpt lat="46.92067" lon="8.68905">
        <ele>1939</ele>
        <time>2021-08-07T07:31:27.640Z</time>
      </trkpt>
      <trkpt lat="46.92066" lon="8.68904">
        <ele>1939</ele>
        <time>2021-08-07T07:31:28.639Z</time>
      </trkpt>
      <trkpt lat="46.92066" lon="8.68904">
        <ele>1939</ele>
        <time>2021-08-07T07:31:29.640Z</time>
      </trkpt>
      <trkpt lat="46.92066" lon="8.68904">
        <ele>1939</ele>
        <time>2021-08-07T07:31:30.640Z</time>
      </trkpt>
      <trkpt lat="46.92067" lon="8.68903">
        <ele>1939</ele>
        <time>2021-08-07T07:31:31.639Z</time>
      </trkpt>
      <trkpt lat="46.92067" lon="8.68903">
        <ele>1938</ele>
        <time>2021-08-07T07:31:32.640Z</time>
      </trkpt>
      <trkpt lat="46.92066" lon="8.68903">
        <ele>1938</ele>
        <time>2021-08-07T07:31:33.640Z</time>
      </trkpt>
      <trkpt lat="46.92066" lon="8.68904">
        <ele>1938</ele>
        <time>2021-08-07T07:31:34.639Z</time>
      </trkpt>
      <trkpt lat="46.92066" lon="8.68904">
        <ele>1938</ele>
        <time>2021-08-07T07:31:35.639Z</time>
      </trkpt>
      <trkpt lat="46.92066" lon="8.68905">
        <ele>1938</ele>
        <time>2021-08-07T07:31:36.639Z</time>
      </trkpt>
      <trkpt lat="46.92066" lon="8.68905">
        <ele>1938</ele>
        <time>2021-08-07T07:31:37.639Z</time>
      </trkpt>
      <trkpt lat="46.92066" lon="8.68905">
        <ele>1937</ele>
        <time>2021-08-07T07:31:38.639Z</time>
      </trkpt>
      <trkpt lat="46.92067" lon="8.68905">
        <ele>1937</ele>
        <time>2021-08-07T07:31:39.640Z</time>
      </trkpt>
      <trkpt lat="46.92067" lon="8.68905">
        <ele>1937</ele>
        <time>2021-08-07T07:31:40.640Z</time>
      </trkpt>
      <trkpt lat="46.92067" lon="8.68905">
        <ele>1937</ele>
        <time>2021-08-07T07:31:41.639Z</time>
      </trkpt>
      <trkpt lat="46.92068" lon="8.68905">
        <ele>1937</ele>
        <time>2021-08-07T07:31:42.641Z</time>
      </trkpt>
      <trkpt lat="46.92068" lon="8.68905">
        <ele>1937</ele>
        <time>2021-08-07T07:31:43.640Z</time>
      </trkpt>
      <trkpt lat="46.92068" lon="8.68906">
        <ele>1937</ele>
        <time>2021-08-07T07:31:44.640Z</time>
      </trkpt>
      <trkpt lat="46.92069" lon="8.68906">
        <ele>1937</ele>
        <time>2021-08-07T07:31:45.640Z</time>
      </trkpt>
      <trkpt lat="46.9207" lon="8.68907">
        <ele>1937</ele>
        <time>2021-08-07T07:31:46.641Z</time>
      </trkpt>
      <trkpt lat="46.9207" lon="8.68907">
        <ele>1937</ele>
        <time>2021-08-07T07:31:47.641Z</time>
      </trkpt>
      <trkpt lat="46.92071" lon="8.68907">
        <ele>1937</ele>
        <time>2021-08-07T07:31:48.641Z</time>
      </trkpt>
      <trkpt lat="46.9207" lon="8.68907">
        <ele>1938</ele>
        <time>2021-08-07T07:31:49.641Z</time>
      </trkpt>
      <trkpt lat="46.9207" lon="8.68906">
        <ele>1938</ele>
        <time>2021-08-07T07:31:50.641Z</time>
      </trkpt>
      <trkpt lat="46.92069" lon="8.68906">
        <ele>1938</ele>
        <time>2021-08-07T07:31:51.641Z</time>
      </trkpt>
      <trkpt lat="46.92069" lon="8.68906">
        <ele>1939</ele>
        <time>2021-08-07T07:31:52.641Z</time>
      </trkpt>
      <trkpt lat="46.92069" lon="8.68905">
        <ele>1940</ele>
        <time>2021-08-07T07:31:53.641Z</time>
      </trkpt>
      <trkpt lat="46.92069" lon="8.68905">
        <ele>1940</ele>
        <time>2021-08-07T07:31:54.642Z</time>
      </trkpt>
      <trkpt lat="46.92069" lon="8.68906">
        <ele>1940</ele>
        <time>2021-08-07T07:31:55.641Z</time>
      </trkpt>
      <trkpt lat="46.92068" lon="8.68906">
        <ele>1940</ele>
        <time>2021-08-07T07:31:56.642Z</time>
      </trkpt>
      <trkpt lat="46.92067" lon="8.68907">
        <ele>1941</ele>
        <time>2021-08-07T07:31:57.642Z</time>
      </trkpt>
      <trkpt lat="46.92066" lon="8.68907">
        <ele>1941</ele>
        <time>2021-08-07T07:31:58.642Z</time>
      </trkpt>
      <trkpt lat="46.92066" lon="8.68907">
        <ele>1941</ele>
        <time>2021-08-07T07:31:59.642Z</time>
      </trkpt>
      <trkpt lat="46.92067" lon="8.68907">
        <ele>1941</ele>
        <time>2021-08-07T07:32:00.641Z</time>
      </trkpt>
      <trkpt lat="46.92066" lon="8.68905">
        <ele>1941</ele>
        <time>2021-08-07T07:32:01.642Z</time>
      </trkpt>
      <trkpt lat="46.92066" lon="8.68903">
        <ele>1941</ele>
        <time>2021-08-07T07:32:02.641Z</time>
      </trkpt>
      <trkpt lat="46.92065" lon="8.68902">
        <ele>1941</ele>
        <time>2021-08-07T07:32:03.641Z</time>
      </trkpt>
      <trkpt lat="46.92063" lon="8.68902">
        <ele>1941</ele>
        <time>2021-08-07T07:32:04.642Z</time>
      </trkpt>
      <trkpt lat="46.92062" lon="8.68901">
        <ele>1941</ele>
        <time>2021-08-07T07:32:05.641Z</time>
      </trkpt>
      <trkpt lat="46.92061" lon="8.68901">
        <ele>1941</ele>
        <time>2021-08-07T07:32:06.641Z</time>
      </trkpt>
      <trkpt lat="46.9206" lon="8.68901">
        <ele>1941</ele>
        <time>2021-08-07T07:32:07.642Z</time>
      </trkpt>
      <trkpt lat="46.9206" lon="8.68901">
        <ele>1941</ele>
        <time>2021-08-07T07:32:08.641Z</time>
      </trkpt>
      <trkpt lat="46.92061" lon="8.68901">
        <ele>1941</ele>
        <time>2021-08-07T07:32:09.642Z</time>
      </trkpt>
      <trkpt lat="46.92061" lon="8.68902">
        <ele>1941</ele>
        <time>2021-08-07T07:32:10.642Z</time>
      </trkpt>
      <trkpt lat="46.92061" lon="8.68902">
        <ele>1941</ele>
        <time>2021-08-07T07:32:11.641Z</time>
      </trkpt>
      <trkpt lat="46.92061" lon="8.68903">
        <ele>1941</ele>
        <time>2021-08-07T07:32:12.641Z</time>
      </trkpt>
      <trkpt lat="46.92061" lon="8.68903">
        <ele>1941</ele>
        <time>2021-08-07T07:32:13.641Z</time>
      </trkpt>
      <trkpt lat="46.92061" lon="8.68902">
        <ele>1941</ele>
        <time>2021-08-07T07:32:14.642Z</time>
      </trkpt>
      <trkpt lat="46.92061" lon="8.68901">
        <ele>1940</ele>
        <time>2021-08-07T07:32:15.643Z</time>
      </trkpt>
      <trkpt lat="46.92061" lon="8.689">
        <ele>1940</ele>
        <time>2021-08-07T07:32:16.642Z</time>
      </trkpt>
      <trkpt lat="46.92061" lon="8.68901">
        <ele>1940</ele>
        <time>2021-08-07T07:32:17.642Z</time>
      </trkpt>
      <trkpt lat="46.92062" lon="8.68901">
        <ele>1940</ele>
        <time>2021-08-07T07:32:18.642Z</time>
      </trkpt>
      <trkpt lat="46.92061" lon="8.68902">
        <ele>1940</ele>
        <time>2021-08-07T07:32:19.643Z</time>
      </trkpt>
      <trkpt lat="46.92061" lon="8.68902">
        <ele>1940</ele>
        <time>2021-08-07T07:32:20.642Z</time>
      </trkpt>
      <trkpt lat="46.92061" lon="8.68903">
        <ele>1939</ele>
        <time>2021-08-07T07:32:21.643Z</time>
      </trkpt>
      <trkpt lat="46.9206" lon="8.68904">
        <ele>1940</ele>
        <time>2021-08-07T07:32:22.643Z</time>
      </trkpt>
      <trkpt lat="46.9206" lon="8.68904">
        <ele>1940</ele>
        <time>2021-08-07T07:32:23.643Z</time>
      </trkpt>
      <trkpt lat="46.92059" lon="8.68904">
        <ele>1940</ele>
        <time>2021-08-07T07:32:24.643Z</time>
      </trkpt>
      <trkpt lat="46.92058" lon="8.68904">
        <ele>1940</ele>
        <time>2021-08-07T07:32:25.643Z</time>
      </trkpt>
      <trkpt lat="46.92057" lon="8.68903">
        <ele>1941</ele>
        <time>2021-08-07T07:32:26.643Z</time>
      </trkpt>
      <trkpt lat="46.92056" lon="8.68903">
        <ele>1941</ele>
        <time>2021-08-07T07:32:27.643Z</time>
      </trkpt>
      <trkpt lat="46.92055" lon="8.68903">
        <ele>1941</ele>
        <time>2021-08-07T07:32:28.643Z</time>
      </trkpt>
      <trkpt lat="46.92055" lon="8.68903">
        <ele>1941</ele>
        <time>2021-08-07T07:32:29.643Z</time>
      </trkpt>
      <trkpt lat="46.92055" lon="8.68903">
        <ele>1941</ele>
        <time>2021-08-07T07:32:30.642Z</time>
      </trkpt>
      <trkpt lat="46.92054" lon="8.68903">
        <ele>1942</ele>
        <time>2021-08-07T07:32:31.643Z</time>
      </trkpt>
      <trkpt lat="46.92054" lon="8.68903">
        <ele>1942</ele>
        <time>2021-08-07T07:32:32.643Z</time>
      </trkpt>
      <trkpt lat="46.92053" lon="8.68903">
        <ele>1943</ele>
        <time>2021-08-07T07:32:33.642Z</time>
      </trkpt>
      <trkpt lat="46.92053" lon="8.68903">
        <ele>1943</ele>
        <time>2021-08-07T07:32:34.642Z</time>
      </trkpt>
      <trkpt lat="46.92052" lon="8.68903">
        <ele>1943</ele>
        <time>2021-08-07T07:32:35.643Z</time>
      </trkpt>
      <trkpt lat="46.92052" lon="8.68903">
        <ele>1943</ele>
        <time>2021-08-07T07:32:36.642Z</time>
      </trkpt>
      <trkpt lat="46.92051" lon="8.68903">
        <ele>1943</ele>
        <time>2021-08-07T07:32:37.643Z</time>
      </trkpt>
      <trkpt lat="46.9205" lon="8.68903">
        <ele>1943</ele>
        <time>2021-08-07T07:32:38.643Z</time>
      </trkpt>
      <trkpt lat="46.9205" lon="8.68904">
        <ele>1943</ele>
        <time>2021-08-07T07:32:39.643Z</time>
      </trkpt>
      <trkpt lat="46.9205" lon="8.68904">
        <ele>1944</ele>
        <time>2021-08-07T07:32:40.643Z</time>
      </trkpt>
      <trkpt lat="46.92049" lon="8.68904">
        <ele>1944</ele>
        <time>2021-08-07T07:32:41.642Z</time>
      </trkpt>
      <trkpt lat="46.92049" lon="8.68904">
        <ele>1944</ele>
        <time>2021-08-07T07:32:42.643Z</time>
      </trkpt>
      <trkpt lat="46.92048" lon="8.68904">
        <ele>1945</ele>
        <time>2021-08-07T07:32:43.642Z</time>
      </trkpt>
      <trkpt lat="46.92048" lon="8.68904">
        <ele>1945</ele>
        <time>2021-08-07T07:32:44.643Z</time>
      </trkpt>
      <trkpt lat="46.92048" lon="8.68904">
        <ele>1945</ele>
        <time>2021-08-07T07:32:45.643Z</time>
      </trkpt>
      <trkpt lat="46.92048" lon="8.68904">
        <ele>1946</ele>
        <time>2021-08-07T07:32:46.642Z</time>
      </trkpt>
      <trkpt lat="46.92047" lon="8.68904">
        <ele>1947</ele>
        <time>2021-08-07T07:32:47.643Z</time>
      </trkpt>
      <trkpt lat="46.92047" lon="8.68904">
        <ele>1947</ele>
        <time>2021-08-07T07:32:48.642Z</time>
      </trkpt>
      <trkpt lat="46.92046" lon="8.68903">
        <ele>1948</ele>
        <time>2021-08-07T07:32:49.643Z</time>
      </trkpt>
      <trkpt lat="46.92046" lon="8.68903">
        <ele>1948</ele>
        <time>2021-08-07T07:32:50.643Z</time>
      </trkpt>
      <trkpt lat="46.92046" lon="8.68903">
        <ele>1948</ele>
        <time>2021-08-07T07:32:51.643Z</time>
      </trkpt>
      <trkpt lat="46.92045" lon="8.68903">
        <ele>1949</ele>
        <time>2021-08-07T07:32:52.643Z</time>
      </trkpt>
      <trkpt lat="46.92045" lon="8.68903">
        <ele>1949</ele>
        <time>2021-08-07T07:32:53.643Z</time>
      </trkpt>
      <trkpt lat="46.92045" lon="8.68903">
        <ele>1950</ele>
        <time>2021-08-07T07:32:54.642Z</time>
      </trkpt>
      <trkpt lat="46.92044" lon="8.68902">
        <ele>1950</ele>
        <time>2021-08-07T07:32:55.643Z</time>
      </trkpt>
      <trkpt lat="46.92044" lon="8.68902">
        <ele>1950</ele>
        <time>2021-08-07T07:32:56.642Z</time>
      </trkpt>
      <trkpt lat="46.92043" lon="8.68902">
        <ele>1950</ele>
        <time>2021-08-07T07:32:57.642Z</time>
      </trkpt>
      <trkpt lat="46.92043" lon="8.68902">
        <ele>1951</ele>
        <time>2021-08-07T07:32:58.642Z</time>
      </trkpt>
      <trkpt lat="46.92042" lon="8.68902">
        <ele>1951</ele>
        <time>2021-08-07T07:32:59.642Z</time>
      </trkpt>
      <trkpt lat="46.92042" lon="8.68902">
        <ele>1951</ele>
        <time>2021-08-07T07:33:00.642Z</time>
      </trkpt>
      <trkpt lat="46.92041" lon="8.68902">
        <ele>1951</ele>
        <time>2021-08-07T07:33:01.642Z</time>
      </trkpt>
      <trkpt lat="46.92041" lon="8.68901">
        <ele>1951</ele>
        <time>2021-08-07T07:33:02.642Z</time>
      </trkpt>
      <trkpt lat="46.9204" lon="8.68901">
        <ele>1951</ele>
        <time>2021-08-07T07:33:03.642Z</time>
      </trkpt>
      <trkpt lat="46.9204" lon="8.68901">
        <ele>1951</ele>
        <time>2021-08-07T07:33:04.642Z</time>
      </trkpt>
      <trkpt lat="46.92039" lon="8.689">
        <ele>1952</ele>
        <time>2021-08-07T07:33:05.642Z</time>
      </trkpt>
      <trkpt lat="46.92039" lon="8.689">
        <ele>1952</ele>
        <time>2021-08-07T07:33:06.642Z</time>
      </trkpt>
      <trkpt lat="46.92038" lon="8.689">
        <ele>1952</ele>
        <time>2021-08-07T07:33:07.643Z</time>
      </trkpt>
      <trkpt lat="46.92038" lon="8.68899">
        <ele>1952</ele>
        <time>2021-08-07T07:33:08.642Z</time>
      </trkpt>
      <trkpt lat="46.92038" lon="8.68899">
        <ele>1952</ele>
        <time>2021-08-07T07:33:09.643Z</time>
      </trkpt>
      <trkpt lat="46.92037" lon="8.68899">
        <ele>1953</ele>
        <time>2021-08-07T07:33:10.642Z</time>
      </trkpt>
      <trkpt lat="46.92037" lon="8.68898">
        <ele>1953</ele>
        <time>2021-08-07T07:33:11.643Z</time>
      </trkpt>
      <trkpt lat="46.92037" lon="8.68898">
        <ele>1953</ele>
        <time>2021-08-07T07:33:12.642Z</time>
      </trkpt>
      <trkpt lat="46.92036" lon="8.68897">
        <ele>1953</ele>
        <time>2021-08-07T07:33:13.642Z</time>
      </trkpt>
      <trkpt lat="46.92036" lon="8.68897">
        <ele>1952</ele>
        <time>2021-08-07T07:33:14.642Z</time>
      </trkpt>
      <trkpt lat="46.92036" lon="8.68897">
        <ele>1952</ele>
        <time>2021-08-07T07:33:15.642Z</time>
      </trkpt>
      <trkpt lat="46.92035" lon="8.68897">
        <ele>1953</ele>
        <time>2021-08-07T07:33:16.643Z</time>
      </trkpt>
      <trkpt lat="46.92035" lon="8.68896">
        <ele>1953</ele>
        <time>2021-08-07T07:33:17.643Z</time>
      </trkpt>
      <trkpt lat="46.92034" lon="8.68896">
        <ele>1953</ele>
        <time>2021-08-07T07:33:18.642Z</time>
      </trkpt>
      <trkpt lat="46.92034" lon="8.68896">
        <ele>1953</ele>
        <time>2021-08-07T07:33:19.642Z</time>
      </trkpt>
      <trkpt lat="46.92034" lon="8.68896">
        <ele>1954</ele>
        <time>2021-08-07T07:33:20.643Z</time>
      </trkpt>
      <trkpt lat="46.92033" lon="8.68895">
        <ele>1954</ele>
        <time>2021-08-07T07:33:21.643Z</time>
      </trkpt>
      <trkpt lat="46.92032" lon="8.68894">
        <ele>1954</ele>
        <time>2021-08-07T07:33:22.642Z</time>
      </trkpt>
      <trkpt lat="46.92032" lon="8.68894">
        <ele>1954</ele>
        <time>2021-08-07T07:33:23.642Z</time>
      </trkpt>
      <trkpt lat="46.92032" lon="8.68894">
        <ele>1955</ele>
        <time>2021-08-07T07:33:24.643Z</time>
      </trkpt>
      <trkpt lat="46.92032" lon="8.68893">
        <ele>1955</ele>
        <time>2021-08-07T07:33:25.642Z</time>
      </trkpt>
      <trkpt lat="46.92032" lon="8.68893">
        <ele>1956</ele>
        <time>2021-08-07T07:33:26.643Z</time>
      </trkpt>
      <trkpt lat="46.92032" lon="8.68892">
        <ele>1956</ele>
        <time>2021-08-07T07:33:27.642Z</time>
      </trkpt>
      <trkpt lat="46.92031" lon="8.68891">
        <ele>1956</ele>
        <time>2021-08-07T07:33:28.643Z</time>
      </trkpt>
      <trkpt lat="46.9203" lon="8.6889">
        <ele>1956</ele>
        <time>2021-08-07T07:33:29.642Z</time>
      </trkpt>
      <trkpt lat="46.9203" lon="8.6889">
        <ele>1956</ele>
        <time>2021-08-07T07:33:30.642Z</time>
      </trkpt>
      <trkpt lat="46.9203" lon="8.6889">
        <ele>1956</ele>
        <time>2021-08-07T07:33:31.642Z</time>
      </trkpt>
      <trkpt lat="46.9203" lon="8.6889">
        <ele>1955</ele>
        <time>2021-08-07T07:33:32.643Z</time>
      </trkpt>
      <trkpt lat="46.9203" lon="8.6889">
        <ele>1955</ele>
        <time>2021-08-07T07:33:33.644Z</time>
      </trkpt>
      <trkpt lat="46.92029" lon="8.68889">
        <ele>1955</ele>
        <time>2021-08-07T07:33:34.643Z</time>
      </trkpt>
      <trkpt lat="46.92028" lon="8.68887">
        <ele>1955</ele>
        <time>2021-08-07T07:33:35.644Z</time>
      </trkpt>
      <trkpt lat="46.92027" lon="8.68886">
        <ele>1955</ele>
        <time>2021-08-07T07:33:36.644Z</time>
      </trkpt>
      <trkpt lat="46.92026" lon="8.68885">
        <ele>1954</ele>
        <time>2021-08-07T07:33:37.643Z</time>
      </trkpt>
      <trkpt lat="46.92025" lon="8.68884">
        <ele>1954</ele>
        <time>2021-08-07T07:33:38.644Z</time>
      </trkpt>
      <trkpt lat="46.92025" lon="8.68884">
        <ele>1954</ele>
        <time>2021-08-07T07:33:39.643Z</time>
      </trkpt>
      <trkpt lat="46.92025" lon="8.68884">
        <ele>1953</ele>
        <time>2021-08-07T07:33:40.643Z</time>
      </trkpt>
      <trkpt lat="46.92025" lon="8.68885">
        <ele>1951</ele>
        <time>2021-08-07T07:33:41.645Z</time>
      </trkpt>
      <trkpt lat="46.92024" lon="8.68884">
        <ele>1954</ele>
        <time>2021-08-07T07:33:42.646Z</time>
      </trkpt>
      <trkpt lat="46.92023" lon="8.68885">
        <ele>1954</ele>
        <time>2021-08-07T07:33:43.645Z</time>
      </trkpt>
      <trkpt lat="46.92023" lon="8.68885">
        <ele>1953</ele>
        <time>2021-08-07T07:33:44.645Z</time>
      </trkpt>
      <trkpt lat="46.92022" lon="8.68886">
        <ele>1953</ele>
        <time>2021-08-07T07:33:45.646Z</time>
      </trkpt>
      <trkpt lat="46.92022" lon="8.68887">
        <ele>1954</ele>
        <time>2021-08-07T07:33:46.646Z</time>
      </trkpt>
      <trkpt lat="46.92022" lon="8.68887">
        <ele>1954</ele>
        <time>2021-08-07T07:33:47.645Z</time>
      </trkpt>
      <trkpt lat="46.92022" lon="8.68888">
        <ele>1953</ele>
        <time>2021-08-07T07:33:48.645Z</time>
      </trkpt>
      <trkpt lat="46.92021" lon="8.68888">
        <ele>1953</ele>
        <time>2021-08-07T07:33:49.646Z</time>
      </trkpt>
      <trkpt lat="46.92021" lon="8.68887">
        <ele>1953</ele>
        <time>2021-08-07T07:33:50.646Z</time>
      </trkpt>
      <trkpt lat="46.9202" lon="8.68887">
        <ele>1953</ele>
        <time>2021-08-07T07:33:51.646Z</time>
      </trkpt>
      <trkpt lat="46.92019" lon="8.68886">
        <ele>1953</ele>
        <time>2021-08-07T07:33:52.645Z</time>
      </trkpt>
      <trkpt lat="46.92019" lon="8.68885">
        <ele>1953</ele>
        <time>2021-08-07T07:33:53.646Z</time>
      </trkpt>
      <trkpt lat="46.92019" lon="8.68885">
        <ele>1953</ele>
        <time>2021-08-07T07:33:54.645Z</time>
      </trkpt>
      <trkpt lat="46.92017" lon="8.68885">
        <ele>1953</ele>
        <time>2021-08-07T07:33:55.646Z</time>
      </trkpt>
      <trkpt lat="46.92016" lon="8.68885">
        <ele>1953</ele>
        <time>2021-08-07T07:33:56.646Z</time>
      </trkpt>
      <trkpt lat="46.92016" lon="8.68884">
        <ele>1954</ele>
        <time>2021-08-07T07:33:57.646Z</time>
      </trkpt>
      <trkpt lat="46.92015" lon="8.68884">
        <ele>1954</ele>
        <time>2021-08-07T07:33:58.646Z</time>
      </trkpt>
      <trkpt lat="46.92014" lon="8.68884">
        <ele>1955</ele>
        <time>2021-08-07T07:33:59.646Z</time>
      </trkpt>
      <trkpt lat="46.92013" lon="8.68884">
        <ele>1955</ele>
        <time>2021-08-07T07:34:00.646Z</time>
      </trkpt>
      <trkpt lat="46.92013" lon="8.68885">
        <ele>1956</ele>
        <time>2021-08-07T07:34:01.646Z</time>
      </trkpt>
      <trkpt lat="46.92012" lon="8.68885">
        <ele>1956</ele>
        <time>2021-08-07T07:34:02.645Z</time>
      </trkpt>
      <trkpt lat="46.92013" lon="8.68886">
        <ele>1956</ele>
        <time>2021-08-07T07:34:03.645Z</time>
      </trkpt>
      <trkpt lat="46.92011" lon="8.68885">
        <ele>1956</ele>
        <time>2021-08-07T07:34:04.646Z</time>
      </trkpt>
      <trkpt lat="46.9201" lon="8.68885">
        <ele>1957</ele>
        <time>2021-08-07T07:34:05.645Z</time>
      </trkpt>
      <trkpt lat="46.9201" lon="8.68885">
        <ele>1957</ele>
        <time>2021-08-07T07:34:06.646Z</time>
      </trkpt>
      <trkpt lat="46.92009" lon="8.68886">
        <ele>1957</ele>
        <time>2021-08-07T07:34:07.646Z</time>
      </trkpt>
      <trkpt lat="46.92009" lon="8.68886">
        <ele>1957</ele>
        <time>2021-08-07T07:34:08.646Z</time>
      </trkpt>
      <trkpt lat="46.92008" lon="8.68887">
        <ele>1957</ele>
        <time>2021-08-07T07:34:09.645Z</time>
      </trkpt>
      <trkpt lat="46.92008" lon="8.68887">
        <ele>1957</ele>
        <time>2021-08-07T07:34:10.646Z</time>
      </trkpt>
      <trkpt lat="46.92007" lon="8.68886">
        <ele>1958</ele>
        <time>2021-08-07T07:34:11.646Z</time>
      </trkpt>
      <trkpt lat="46.92007" lon="8.68887">
        <ele>1958</ele>
        <time>2021-08-07T07:34:12.646Z</time>
      </trkpt>
      <trkpt lat="46.92006" lon="8.68887">
        <ele>1959</ele>
        <time>2021-08-07T07:34:13.646Z</time>
      </trkpt>
      <trkpt lat="46.92005" lon="8.68887">
        <ele>1959</ele>
        <time>2021-08-07T07:34:14.646Z</time>
      </trkpt>
      <trkpt lat="46.92004" lon="8.68886">
        <ele>1959</ele>
        <time>2021-08-07T07:34:15.645Z</time>
      </trkpt>
      <trkpt lat="46.92003" lon="8.68886">
        <ele>1959</ele>
        <time>2021-08-07T07:34:16.645Z</time>
      </trkpt>
      <trkpt lat="46.92002" lon="8.68885">
        <ele>1960</ele>
        <time>2021-08-07T07:34:17.646Z</time>
      </trkpt>
      <trkpt lat="46.92001" lon="8.68884">
        <ele>1960</ele>
        <time>2021-08-07T07:34:18.645Z</time>
      </trkpt>
      <trkpt lat="46.92" lon="8.68884">
        <ele>1961</ele>
        <time>2021-08-07T07:34:19.645Z</time>
      </trkpt>
      <trkpt lat="46.91999" lon="8.68884">
        <ele>1962</ele>
        <time>2021-08-07T07:34:20.646Z</time>
      </trkpt>
      <trkpt lat="46.91998" lon="8.68884">
        <ele>1962</ele>
        <time>2021-08-07T07:34:21.646Z</time>
      </trkpt>
      <trkpt lat="46.91998" lon="8.68885">
        <ele>1963</ele>
        <time>2021-08-07T07:34:22.646Z</time>
      </trkpt>
      <trkpt lat="46.91997" lon="8.68885">
        <ele>1963</ele>
        <time>2021-08-07T07:34:23.646Z</time>
      </trkpt>
      <trkpt lat="46.91996" lon="8.68885">
        <ele>1963</ele>
        <time>2021-08-07T07:34:24.646Z</time>
      </trkpt>
      <trkpt lat="46.91996" lon="8.68886">
        <ele>1964</ele>
        <time>2021-08-07T07:34:25.646Z</time>
      </trkpt>
      <trkpt lat="46.91995" lon="8.68886">
        <ele>1964</ele>
        <time>2021-08-07T07:34:26.646Z</time>
      </trkpt>
      <trkpt lat="46.91995" lon="8.68886">
        <ele>1964</ele>
        <time>2021-08-07T07:34:27.645Z</time>
      </trkpt>
      <trkpt lat="46.91994" lon="8.68886">
        <ele>1965</ele>
        <time>2021-08-07T07:34:28.646Z</time>
      </trkpt>
      <trkpt lat="46.91993" lon="8.68886">
        <ele>1966</ele>
        <time>2021-08-07T07:34:29.645Z</time>
      </trkpt>
      <trkpt lat="46.91992" lon="8.68886">
        <ele>1966</ele>
        <time>2021-08-07T07:34:30.645Z</time>
      </trkpt>
      <trkpt lat="46.91992" lon="8.68886">
        <ele>1966</ele>
        <time>2021-08-07T07:34:31.645Z</time>
      </trkpt>
      <trkpt lat="46.91991" lon="8.68886">
        <ele>1966</ele>
        <time>2021-08-07T07:34:32.646Z</time>
      </trkpt>
      <trkpt lat="46.9199" lon="8.68886">
        <ele>1966</ele>
        <time>2021-08-07T07:34:33.646Z</time>
      </trkpt>
      <trkpt lat="46.9199" lon="8.68886">
        <ele>1966</ele>
        <time>2021-08-07T07:34:34.646Z</time>
      </trkpt>
      <trkpt lat="46.91989" lon="8.68886">
        <ele>1966</ele>
        <time>2021-08-07T07:34:35.646Z</time>
      </trkpt>
      <trkpt lat="46.91989" lon="8.68886">
        <ele>1966</ele>
        <time>2021-08-07T07:34:36.646Z</time>
      </trkpt>
      <trkpt lat="46.91988" lon="8.68886">
        <ele>1966</ele>
        <time>2021-08-07T07:34:37.646Z</time>
      </trkpt>
      <trkpt lat="46.91987" lon="8.68886">
        <ele>1966</ele>
        <time>2021-08-07T07:34:38.646Z</time>
      </trkpt>
      <trkpt lat="46.91987" lon="8.68886">
        <ele>1967</ele>
        <time>2021-08-07T07:34:39.646Z</time>
      </trkpt>
      <trkpt lat="46.91986" lon="8.68885">
        <ele>1967</ele>
        <time>2021-08-07T07:34:40.645Z</time>
      </trkpt>
      <trkpt lat="46.91985" lon="8.68884">
        <ele>1968</ele>
        <time>2021-08-07T07:34:41.646Z</time>
      </trkpt>
      <trkpt lat="46.91984" lon="8.68884">
        <ele>1968</ele>
        <time>2021-08-07T07:34:42.645Z</time>
      </trkpt>
      <trkpt lat="46.91983" lon="8.68883">
        <ele>1968</ele>
        <time>2021-08-07T07:34:43.646Z</time>
      </trkpt>
      <trkpt lat="46.91982" lon="8.68883">
        <ele>1968</ele>
        <time>2021-08-07T07:34:44.646Z</time>
      </trkpt>
      <trkpt lat="46.91981" lon="8.68883">
        <ele>1968</ele>
        <time>2021-08-07T07:34:45.645Z</time>
      </trkpt>
      <trkpt lat="46.91981" lon="8.68883">
        <ele>1968</ele>
        <time>2021-08-07T07:34:46.645Z</time>
      </trkpt>
      <trkpt lat="46.9198" lon="8.68882">
        <ele>1967</ele>
        <time>2021-08-07T07:34:47.646Z</time>
      </trkpt>
      <trkpt lat="46.91979" lon="8.68882">
        <ele>1967</ele>
        <time>2021-08-07T07:34:48.645Z</time>
      </trkpt>
      <trkpt lat="46.91978" lon="8.68882">
        <ele>1967</ele>
        <time>2021-08-07T07:34:49.646Z</time>
      </trkpt>
      <trkpt lat="46.91979" lon="8.68883">
        <ele>1966</ele>
        <time>2021-08-07T07:34:50.646Z</time>
      </trkpt>
      <trkpt lat="46.91979" lon="8.68882">
        <ele>1966</ele>
        <time>2021-08-07T07:34:51.645Z</time>
      </trkpt>
      <trkpt lat="46.91979" lon="8.68882">
        <ele>1966</ele>
        <time>2021-08-07T07:34:52.646Z</time>
      </trkpt>
      <trkpt lat="46.91978" lon="8.68882">
        <ele>1965</ele>
        <time>2021-08-07T07:34:53.645Z</time>
      </trkpt>
      <trkpt lat="46.91977" lon="8.68881">
        <ele>1965</ele>
        <time>2021-08-07T07:34:54.645Z</time>
      </trkpt>
      <trkpt lat="46.91977" lon="8.68881">
        <ele>1965</ele>
        <time>2021-08-07T07:34:55.646Z</time>
      </trkpt>
      <trkpt lat="46.91975" lon="8.6888">
        <ele>1965</ele>
        <time>2021-08-07T07:34:56.646Z</time>
      </trkpt>
      <trkpt lat="46.91974" lon="8.68879">
        <ele>1965</ele>
        <time>2021-08-07T07:34:57.646Z</time>
      </trkpt>
      <trkpt lat="46.91972" lon="8.68878">
        <ele>1965</ele>
        <time>2021-08-07T07:34:58.646Z</time>
      </trkpt>
      <trkpt lat="46.91972" lon="8.68878">
        <ele>1964</ele>
        <time>2021-08-07T07:34:59.646Z</time>
      </trkpt>
      <trkpt lat="46.91971" lon="8.68878">
        <ele>1964</ele>
        <time>2021-08-07T07:35:00.645Z</time>
      </trkpt>
      <trkpt lat="46.91971" lon="8.68877">
        <ele>1964</ele>
        <time>2021-08-07T07:35:01.645Z</time>
      </trkpt>
      <trkpt lat="46.9197" lon="8.68877">
        <ele>1963</ele>
        <time>2021-08-07T07:35:02.646Z</time>
      </trkpt>
      <trkpt lat="46.9197" lon="8.68878">
        <ele>1963</ele>
        <time>2021-08-07T07:35:03.646Z</time>
      </trkpt>
      <trkpt lat="46.91969" lon="8.68878">
        <ele>1963</ele>
        <time>2021-08-07T07:35:04.646Z</time>
      </trkpt>
      <trkpt lat="46.91968" lon="8.68879">
        <ele>1963</ele>
        <time>2021-08-07T07:35:05.645Z</time>
      </trkpt>
      <trkpt lat="46.91968" lon="8.68879">
        <ele>1963</ele>
        <time>2021-08-07T07:35:06.646Z</time>
      </trkpt>
      <trkpt lat="46.91967" lon="8.6888">
        <ele>1962</ele>
        <time>2021-08-07T07:35:07.646Z</time>
      </trkpt>
      <trkpt lat="46.91966" lon="8.68881">
        <ele>1962</ele>
        <time>2021-08-07T07:35:08.646Z</time>
      </trkpt>
      <trkpt lat="46.91966" lon="8.68882">
        <ele>1962</ele>
        <time>2021-08-07T07:35:09.646Z</time>
      </trkpt>
      <trkpt lat="46.91966" lon="8.68884">
        <ele>1962</ele>
        <time>2021-08-07T07:35:10.645Z</time>
      </trkpt>
      <trkpt lat="46.91966" lon="8.68885">
        <ele>1962</ele>
        <time>2021-08-07T07:35:11.646Z</time>
      </trkpt>
      <trkpt lat="46.91965" lon="8.68886">
        <ele>1962</ele>
        <time>2021-08-07T07:35:12.645Z</time>
      </trkpt>
      <trkpt lat="46.91965" lon="8.68886">
        <ele>1962</ele>
        <time>2021-08-07T07:35:13.645Z</time>
      </trkpt>
      <trkpt lat="46.91965" lon="8.68886">
        <ele>1962</ele>
        <time>2021-08-07T07:35:14.646Z</time>
      </trkpt>
      <trkpt lat="46.91964" lon="8.68886">
        <ele>1962</ele>
        <time>2021-08-07T07:35:15.645Z</time>
      </trkpt>
      <trkpt lat="46.91962" lon="8.68886">
        <ele>1965</ele>
        <time>2021-08-07T07:35:16.646Z</time>
      </trkpt>
      <trkpt lat="46.91962" lon="8.68888">
        <ele>1966</ele>
        <time>2021-08-07T07:35:17.646Z</time>
      </trkpt>
      <trkpt lat="46.91961" lon="8.68888">
        <ele>1966</ele>
        <time>2021-08-07T07:35:18.645Z</time>
      </trkpt>
      <trkpt lat="46.91961" lon="8.68888">
        <ele>1966</ele>
        <time>2021-08-07T07:35:19.646Z</time>
      </trkpt>
      <trkpt lat="46.9196" lon="8.68888">
        <ele>1966</ele>
        <time>2021-08-07T07:35:20.646Z</time>
      </trkpt>
      <trkpt lat="46.91959" lon="8.68888">
        <ele>1965</ele>
        <time>2021-08-07T07:35:21.645Z</time>
      </trkpt>
      <trkpt lat="46.91958" lon="8.68889">
        <ele>1965</ele>
        <time>2021-08-07T07:35:22.645Z</time>
      </trkpt>
      <trkpt lat="46.91957" lon="8.6889">
        <ele>1965</ele>
        <time>2021-08-07T07:35:23.645Z</time>
      </trkpt>
      <trkpt lat="46.91956" lon="8.6889">
        <ele>1965</ele>
        <time>2021-08-07T07:35:24.646Z</time>
      </trkpt>
      <trkpt lat="46.91955" lon="8.6889">
        <ele>1965</ele>
        <time>2021-08-07T07:35:25.646Z</time>
      </trkpt>
      <trkpt lat="46.91955" lon="8.68891">
        <ele>1965</ele>
        <time>2021-08-07T07:35:26.645Z</time>
      </trkpt>
      <trkpt lat="46.91954" lon="8.68892">
        <ele>1966</ele>
        <time>2021-08-07T07:35:27.646Z</time>
      </trkpt>
      <trkpt lat="46.91954" lon="8.68892">
        <ele>1966</ele>
        <time>2021-08-07T07:35:28.646Z</time>
      </trkpt>
      <trkpt lat="46.91953" lon="8.68892">
        <ele>1966</ele>
        <time>2021-08-07T07:35:29.646Z</time>
      </trkpt>
      <trkpt lat="46.91952" lon="8.68892">
        <ele>1967</ele>
        <time>2021-08-07T07:35:30.646Z</time>
      </trkpt>
      <trkpt lat="46.91952" lon="8.68892">
        <ele>1968</ele>
        <time>2021-08-07T07:35:31.645Z</time>
      </trkpt>
      <trkpt lat="46.91952" lon="8.68892">
        <ele>1968</ele>
        <time>2021-08-07T07:35:32.645Z</time>
      </trkpt>
      <trkpt lat="46.91951" lon="8.68892">
        <ele>1969</ele>
        <time>2021-08-07T07:35:33.645Z</time>
      </trkpt>
      <trkpt lat="46.9195" lon="8.68892">
        <ele>1969</ele>
        <time>2021-08-07T07:35:34.646Z</time>
      </trkpt>
      <trkpt lat="46.9195" lon="8.68892">
        <ele>1969</ele>
        <time>2021-08-07T07:35:35.646Z</time>
      </trkpt>
      <trkpt lat="46.91949" lon="8.68892">
        <ele>1969</ele>
        <time>2021-08-07T07:35:36.646Z</time>
      </trkpt>
      <trkpt lat="46.91948" lon="8.68892">
        <ele>1970</ele>
        <time>2021-08-07T07:35:37.645Z</time>
      </trkpt>
      <trkpt lat="46.91947" lon="8.68892">
        <ele>1971</ele>
        <time>2021-08-07T07:35:38.646Z</time>
      </trkpt>
      <trkpt lat="46.91946" lon="8.68892">
        <ele>1971</ele>
        <time>2021-08-07T07:35:39.646Z</time>
      </trkpt>
      <trkpt lat="46.91945" lon="8.68892">
        <ele>1972</ele>
        <time>2021-08-07T07:35:40.646Z</time>
      </trkpt>
      <trkpt lat="46.91944" lon="8.68892">
        <ele>1972</ele>
        <time>2021-08-07T07:35:41.646Z</time>
      </trkpt>
      <trkpt lat="46.91943" lon="8.68893">
        <ele>1972</ele>
        <time>2021-08-07T07:35:42.646Z</time>
      </trkpt>
      <trkpt lat="46.91943" lon="8.68894">
        <ele>1973</ele>
        <time>2021-08-07T07:35:43.646Z</time>
      </trkpt>
      <trkpt lat="46.91942" lon="8.68893">
        <ele>1973</ele>
        <time>2021-08-07T07:35:44.645Z</time>
      </trkpt>
      <trkpt lat="46.91943" lon="8.68894">
        <ele>1973</ele>
        <time>2021-08-07T07:35:45.645Z</time>
      </trkpt>
      <trkpt lat="46.91942" lon="8.68894">
        <ele>1973</ele>
        <time>2021-08-07T07:35:46.646Z</time>
      </trkpt>
      <trkpt lat="46.91941" lon="8.68894">
        <ele>1974</ele>
        <time>2021-08-07T07:35:47.646Z</time>
      </trkpt>
      <trkpt lat="46.9194" lon="8.68894">
        <ele>1974</ele>
        <time>2021-08-07T07:35:48.645Z</time>
      </trkpt>
      <trkpt lat="46.9194" lon="8.68894">
        <ele>1974</ele>
        <time>2021-08-07T07:35:49.646Z</time>
      </trkpt>
      <trkpt lat="46.9194" lon="8.68894">
        <ele>1973</ele>
        <time>2021-08-07T07:35:50.646Z</time>
      </trkpt>
      <trkpt lat="46.91936" lon="8.6889">
        <ele>1970</ele>
        <time>2021-08-07T07:35:51.647Z</time>
      </trkpt>
      <trkpt lat="46.91935" lon="8.68889">
        <ele>1970</ele>
        <time>2021-08-07T07:35:52.647Z</time>
      </trkpt>
      <trkpt lat="46.91935" lon="8.68888">
        <ele>1970</ele>
        <time>2021-08-07T07:35:53.646Z</time>
      </trkpt>
      <trkpt lat="46.91935" lon="8.68887">
        <ele>1970</ele>
        <time>2021-08-07T07:35:54.646Z</time>
      </trkpt>
      <trkpt lat="46.91934" lon="8.68886">
        <ele>1971</ele>
        <time>2021-08-07T07:35:55.647Z</time>
      </trkpt>
      <trkpt lat="46.91935" lon="8.68886">
        <ele>1971</ele>
        <time>2021-08-07T07:35:56.647Z</time>
      </trkpt>
      <trkpt lat="46.91935" lon="8.68885">
        <ele>1971</ele>
        <time>2021-08-07T07:35:57.647Z</time>
      </trkpt>
      <trkpt lat="46.91935" lon="8.68884">
        <ele>1971</ele>
        <time>2021-08-07T07:35:58.647Z</time>
      </trkpt>
      <trkpt lat="46.91935" lon="8.68883">
        <ele>1971</ele>
        <time>2021-08-07T07:35:59.647Z</time>
      </trkpt>
      <trkpt lat="46.91936" lon="8.68882">
        <ele>1971</ele>
        <time>2021-08-07T07:36:00.647Z</time>
      </trkpt>
      <trkpt lat="46.91937" lon="8.68882">
        <ele>1971</ele>
        <time>2021-08-07T07:36:01.647Z</time>
      </trkpt>
      <trkpt lat="46.91937" lon="8.68881">
        <ele>1972</ele>
        <time>2021-08-07T07:36:02.647Z</time>
      </trkpt>
      <trkpt lat="46.91937" lon="8.68879">
        <ele>1972</ele>
        <time>2021-08-07T07:36:03.647Z</time>
      </trkpt>
      <trkpt lat="46.91937" lon="8.68878">
        <ele>1972</ele>
        <time>2021-08-07T07:36:04.646Z</time>
      </trkpt>
      <trkpt lat="46.91937" lon="8.68877">
        <ele>1972</ele>
        <time>2021-08-07T07:36:05.646Z</time>
      </trkpt>
      <trkpt lat="46.91937" lon="8.68876">
        <ele>1973</ele>
        <time>2021-08-07T07:36:06.646Z</time>
      </trkpt>
      <trkpt lat="46.91937" lon="8.68875">
        <ele>1973</ele>
        <time>2021-08-07T07:36:07.647Z</time>
      </trkpt>
      <trkpt lat="46.91937" lon="8.68875">
        <ele>1973</ele>
        <time>2021-08-07T07:36:08.647Z</time>
      </trkpt>
      <trkpt lat="46.91937" lon="8.68875">
        <ele>1973</ele>
        <time>2021-08-07T07:36:09.647Z</time>
      </trkpt>
      <trkpt lat="46.91937" lon="8.68875">
        <ele>1974</ele>
        <time>2021-08-07T07:36:10.646Z</time>
      </trkpt>
      <trkpt lat="46.91936" lon="8.68876">
        <ele>1975</ele>
        <time>2021-08-07T07:36:11.647Z</time>
      </trkpt>
      <trkpt lat="46.91936" lon="8.68877">
        <ele>1976</ele>
        <time>2021-08-07T07:36:12.647Z</time>
      </trkpt>
      <trkpt lat="46.91935" lon="8.68878">
        <ele>1977</ele>
        <time>2021-08-07T07:36:13.647Z</time>
      </trkpt>
      <trkpt lat="46.91935" lon="8.6888">
        <ele>1978</ele>
        <time>2021-08-07T07:36:14.646Z</time>
      </trkpt>
      <trkpt lat="46.91935" lon="8.68881">
        <ele>1979</ele>
        <time>2021-08-07T07:36:15.647Z</time>
      </trkpt>
      <trkpt lat="46.91935" lon="8.68881">
        <ele>1980</ele>
        <time>2021-08-07T07:36:16.646Z</time>
      </trkpt>
      <trkpt lat="46.91937" lon="8.68879">
        <ele>1978</ele>
        <time>2021-08-07T07:36:17.646Z</time>
      </trkpt>
      <trkpt lat="46.91937" lon="8.6888">
        <ele>1977</ele>
        <time>2021-08-07T07:36:18.647Z</time>
      </trkpt>
      <trkpt lat="46.91938" lon="8.68881">
        <ele>1977</ele>
        <time>2021-08-07T07:36:19.647Z</time>
      </trkpt>
      <trkpt lat="46.91938" lon="8.68883">
        <ele>1976</ele>
        <time>2021-08-07T07:36:20.647Z</time>
      </trkpt>
      <trkpt lat="46.91938" lon="8.68885">
        <ele>1976</ele>
        <time>2021-08-07T07:36:21.647Z</time>
      </trkpt>
      <trkpt lat="46.91938" lon="8.68887">
        <ele>1976</ele>
        <time>2021-08-07T07:36:22.647Z</time>
      </trkpt>
      <trkpt lat="46.91938" lon="8.68888">
        <ele>1975</ele>
        <time>2021-08-07T07:36:23.647Z</time>
      </trkpt>
      <trkpt lat="46.91938" lon="8.68889">
        <ele>1975</ele>
        <time>2021-08-07T07:36:24.647Z</time>
      </trkpt>
      <trkpt lat="46.91938" lon="8.68891">
        <ele>1976</ele>
        <time>2021-08-07T07:36:25.647Z</time>
      </trkpt>
      <trkpt lat="46.91938" lon="8.68892">
        <ele>1975</ele>
        <time>2021-08-07T07:36:26.647Z</time>
      </trkpt>
      <trkpt lat="46.91938" lon="8.68893">
        <ele>1975</ele>
        <time>2021-08-07T07:36:27.647Z</time>
      </trkpt>
      <trkpt lat="46.91937" lon="8.68894">
        <ele>1975</ele>
        <time>2021-08-07T07:36:28.647Z</time>
      </trkpt>
      <trkpt lat="46.91937" lon="8.68895">
        <ele>1975</ele>
        <time>2021-08-07T07:36:29.647Z</time>
      </trkpt>
      <trkpt lat="46.91938" lon="8.68896">
        <ele>1975</ele>
        <time>2021-08-07T07:36:30.647Z</time>
      </trkpt>
      <trkpt lat="46.91938" lon="8.68896">
        <ele>1974</ele>
        <time>2021-08-07T07:36:31.646Z</time>
      </trkpt>
      <trkpt lat="46.91939" lon="8.68897">
        <ele>1974</ele>
        <time>2021-08-07T07:36:32.646Z</time>
      </trkpt>
      <trkpt lat="46.91939" lon="8.68897">
        <ele>1974</ele>
        <time>2021-08-07T07:36:33.646Z</time>
      </trkpt>
      <trkpt lat="46.9194" lon="8.68897">
        <ele>1973</ele>
        <time>2021-08-07T07:36:34.646Z</time>
      </trkpt>
      <trkpt lat="46.9194" lon="8.68898">
        <ele>1973</ele>
        <time>2021-08-07T07:36:35.646Z</time>
      </trkpt>
      <trkpt lat="46.91939" lon="8.68893">
        <ele>1969</ele>
        <time>2021-08-07T07:36:36.648Z</time>
      </trkpt>
      <trkpt lat="46.9194" lon="8.68893">
        <ele>1968</ele>
        <time>2021-08-07T07:36:37.648Z</time>
      </trkpt>
      <trkpt lat="46.9194" lon="8.68892">
        <ele>1968</ele>
        <time>2021-08-07T07:36:38.648Z</time>
      </trkpt>
      <trkpt lat="46.9194" lon="8.68892">
        <ele>1968</ele>
        <time>2021-08-07T07:36:39.648Z</time>
      </trkpt>
      <trkpt lat="46.9194" lon="8.68891">
        <ele>1967</ele>
        <time>2021-08-07T07:36:40.647Z</time>
      </trkpt>
      <trkpt lat="46.9194" lon="8.6889">
        <ele>1967</ele>
        <time>2021-08-07T07:36:41.648Z</time>
      </trkpt>
      <trkpt lat="46.9194" lon="8.68888">
        <ele>1967</ele>
        <time>2021-08-07T07:36:42.647Z</time>
      </trkpt>
      <trkpt lat="46.9194" lon="8.68887">
        <ele>1966</ele>
        <time>2021-08-07T07:36:43.647Z</time>
      </trkpt>
      <trkpt lat="46.9194" lon="8.68885">
        <ele>1967</ele>
        <time>2021-08-07T07:36:44.647Z</time>
      </trkpt>
      <trkpt lat="46.91939" lon="8.68884">
        <ele>1967</ele>
        <time>2021-08-07T07:36:45.648Z</time>
      </trkpt>
      <trkpt lat="46.91939" lon="8.68882">
        <ele>1968</ele>
        <time>2021-08-07T07:36:46.647Z</time>
      </trkpt>
      <trkpt lat="46.91939" lon="8.68881">
        <ele>1969</ele>
        <time>2021-08-07T07:36:47.648Z</time>
      </trkpt>
      <trkpt lat="46.91939" lon="8.68879">
        <ele>1969</ele>
        <time>2021-08-07T07:36:48.647Z</time>
      </trkpt>
      <trkpt lat="46.91939" lon="8.68877">
        <ele>1970</ele>
        <time>2021-08-07T07:36:49.647Z</time>
      </trkpt>
      <trkpt lat="46.91939" lon="8.68876">
        <ele>1971</ele>
        <time>2021-08-07T07:36:50.648Z</time>
      </trkpt>
      <trkpt lat="46.9194" lon="8.68874">
        <ele>1972</ele>
        <time>2021-08-07T07:36:51.648Z</time>
      </trkpt>
      <trkpt lat="46.9194" lon="8.68872">
        <ele>1973</ele>
        <time>2021-08-07T07:36:52.648Z</time>
      </trkpt>
      <trkpt lat="46.9194" lon="8.68871">
        <ele>1974</ele>
        <time>2021-08-07T07:36:53.648Z</time>
      </trkpt>
      <trkpt lat="46.9194" lon="8.6887">
        <ele>1974</ele>
        <time>2021-08-07T07:36:54.647Z</time>
      </trkpt>
      <trkpt lat="46.91939" lon="8.68868">
        <ele>1975</ele>
        <time>2021-08-07T07:36:55.648Z</time>
      </trkpt>
      <trkpt lat="46.91939" lon="8.68868">
        <ele>1976</ele>
        <time>2021-08-07T07:36:56.648Z</time>
      </trkpt>
      <trkpt lat="46.9194" lon="8.68866">
        <ele>1976</ele>
        <time>2021-08-07T07:36:57.647Z</time>
      </trkpt>
      <trkpt lat="46.9194" lon="8.68864">
        <ele>1976</ele>
        <time>2021-08-07T07:36:58.647Z</time>
      </trkpt>
      <trkpt lat="46.9194" lon="8.68864">
        <ele>1976</ele>
        <time>2021-08-07T07:36:59.648Z</time>
      </trkpt>
      <trkpt lat="46.91941" lon="8.68863">
        <ele>1976</ele>
        <time>2021-08-07T07:37:00.648Z</time>
      </trkpt>
      <trkpt lat="46.91941" lon="8.68861">
        <ele>1976</ele>
        <time>2021-08-07T07:37:01.648Z</time>
      </trkpt>
      <trkpt lat="46.91941" lon="8.6886">
        <ele>1977</ele>
        <time>2021-08-07T07:37:02.647Z</time>
      </trkpt>
      <trkpt lat="46.91942" lon="8.68859">
        <ele>1977</ele>
        <time>2021-08-07T07:37:03.648Z</time>
      </trkpt>
      <trkpt lat="46.91942" lon="8.68858">
        <ele>1978</ele>
        <time>2021-08-07T07:37:04.648Z</time>
      </trkpt>
      <trkpt lat="46.91942" lon="8.68857">
        <ele>1978</ele>
        <time>2021-08-07T07:37:05.648Z</time>
      </trkpt>
      <trkpt lat="46.91942" lon="8.68855">
        <ele>1978</ele>
        <time>2021-08-07T07:37:06.648Z</time>
      </trkpt>
      <trkpt lat="46.91943" lon="8.68854">
        <ele>1978</ele>
        <time>2021-08-07T07:37:07.648Z</time>
      </trkpt>
      <trkpt lat="46.91943" lon="8.68853">
        <ele>1978</ele>
        <time>2021-08-07T07:37:08.647Z</time>
      </trkpt>
      <trkpt lat="46.91943" lon="8.68851">
        <ele>1978</ele>
        <time>2021-08-07T07:37:09.647Z</time>
      </trkpt>
      <trkpt lat="46.91943" lon="8.6885">
        <ele>1978</ele>
        <time>2021-08-07T07:37:10.648Z</time>
      </trkpt>
      <trkpt lat="46.91944" lon="8.68849">
        <ele>1979</ele>
        <time>2021-08-07T07:37:11.648Z</time>
      </trkpt>
      <trkpt lat="46.91945" lon="8.68848">
        <ele>1979</ele>
        <time>2021-08-07T07:37:12.648Z</time>
      </trkpt>
      <trkpt lat="46.91945" lon="8.68847">
        <ele>1979</ele>
        <time>2021-08-07T07:37:13.648Z</time>
      </trkpt>
      <trkpt lat="46.91946" lon="8.68846">
        <ele>1979</ele>
        <time>2021-08-07T07:37:14.647Z</time>
      </trkpt>
      <trkpt lat="46.91947" lon="8.68844">
        <ele>1979</ele>
        <time>2021-08-07T07:37:15.648Z</time>
      </trkpt>
      <trkpt lat="46.91947" lon="8.68843">
        <ele>1978</ele>
        <time>2021-08-07T07:37:16.648Z</time>
      </trkpt>
      <trkpt lat="46.91948" lon="8.68842">
        <ele>1978</ele>
        <time>2021-08-07T07:37:17.648Z</time>
      </trkpt>
      <trkpt lat="46.91949" lon="8.68841">
        <ele>1978</ele>
        <time>2021-08-07T07:37:18.648Z</time>
      </trkpt>
      <trkpt lat="46.9195" lon="8.68841">
        <ele>1978</ele>
        <time>2021-08-07T07:37:19.647Z</time>
      </trkpt>
      <trkpt lat="46.9195" lon="8.6884">
        <ele>1978</ele>
        <time>2021-08-07T07:37:20.648Z</time>
      </trkpt>
      <trkpt lat="46.91951" lon="8.68839">
        <ele>1979</ele>
        <time>2021-08-07T07:37:21.648Z</time>
      </trkpt>
      <trkpt lat="46.91952" lon="8.68839">
        <ele>1979</ele>
        <time>2021-08-07T07:37:22.647Z</time>
      </trkpt>
      <trkpt lat="46.91952" lon="8.68838">
        <ele>1978</ele>
        <time>2021-08-07T07:37:23.647Z</time>
      </trkpt>
      <trkpt lat="46.91953" lon="8.68838">
        <ele>1978</ele>
        <time>2021-08-07T07:37:24.648Z</time>
      </trkpt>
      <trkpt lat="46.91954" lon="8.68837">
        <ele>1977</ele>
        <time>2021-08-07T07:37:25.648Z</time>
      </trkpt>
      <trkpt lat="46.91955" lon="8.68837">
        <ele>1977</ele>
        <time>2021-08-07T07:37:26.648Z</time>
      </trkpt>
      <trkpt lat="46.91955" lon="8.68836">
        <ele>1977</ele>
        <time>2021-08-07T07:37:27.648Z</time>
      </trkpt>
      <trkpt lat="46.91956" lon="8.68835">
        <ele>1977</ele>
        <time>2021-08-07T07:37:28.647Z</time>
      </trkpt>
      <trkpt lat="46.91957" lon="8.68834">
        <ele>1977</ele>
        <time>2021-08-07T07:37:29.647Z</time>
      </trkpt>
      <trkpt lat="46.91958" lon="8.68834">
        <ele>1977</ele>
        <time>2021-08-07T07:37:30.648Z</time>
      </trkpt>
      <trkpt lat="46.91958" lon="8.68834">
        <ele>1978</ele>
        <time>2021-08-07T07:37:31.647Z</time>
      </trkpt>
      <trkpt lat="46.91959" lon="8.68833">
        <ele>1978</ele>
        <time>2021-08-07T07:37:32.648Z</time>
      </trkpt>
      <trkpt lat="46.9196" lon="8.68832">
        <ele>1978</ele>
        <time>2021-08-07T07:37:33.648Z</time>
      </trkpt>
      <trkpt lat="46.9196" lon="8.68831">
        <ele>1977</ele>
        <time>2021-08-07T07:37:34.648Z</time>
      </trkpt>
      <trkpt lat="46.91961" lon="8.6883">
        <ele>1977</ele>
        <time>2021-08-07T07:37:35.648Z</time>
      </trkpt>
      <trkpt lat="46.91961" lon="8.68829">
        <ele>1977</ele>
        <time>2021-08-07T07:37:36.648Z</time>
      </trkpt>
      <trkpt lat="46.91962" lon="8.68827">
        <ele>1977</ele>
        <time>2021-08-07T07:37:37.647Z</time>
      </trkpt>
      <trkpt lat="46.91962" lon="8.68826">
        <ele>1976</ele>
        <time>2021-08-07T07:37:38.648Z</time>
      </trkpt>
      <trkpt lat="46.91963" lon="8.68825">
        <ele>1976</ele>
        <time>2021-08-07T07:37:39.648Z</time>
      </trkpt>
      <trkpt lat="46.91963" lon="8.68823">
        <ele>1976</ele>
        <time>2021-08-07T07:37:40.647Z</time>
      </trkpt>
      <trkpt lat="46.91963" lon="8.68822">
        <ele>1976</ele>
        <time>2021-08-07T07:37:41.648Z</time>
      </trkpt>
      <trkpt lat="46.91962" lon="8.68821">
        <ele>1976</ele>
        <time>2021-08-07T07:37:42.647Z</time>
      </trkpt>
      <trkpt lat="46.91962" lon="8.68819">
        <ele>1977</ele>
        <time>2021-08-07T07:37:43.648Z</time>
      </trkpt>
      <trkpt lat="46.91962" lon="8.68817">
        <ele>1977</ele>
        <time>2021-08-07T07:37:44.648Z</time>
      </trkpt>
      <trkpt lat="46.91962" lon="8.68816">
        <ele>1977</ele>
        <time>2021-08-07T07:37:45.648Z</time>
      </trkpt>
      <trkpt lat="46.91962" lon="8.68815">
        <ele>1977</ele>
        <time>2021-08-07T07:37:46.648Z</time>
      </trkpt>
      <trkpt lat="46.91962" lon="8.68814">
        <ele>1977</ele>
        <time>2021-08-07T07:37:47.647Z</time>
      </trkpt>
      <trkpt lat="46.91962" lon="8.68812">
        <ele>1977</ele>
        <time>2021-08-07T07:37:48.648Z</time>
      </trkpt>
      <trkpt lat="46.91962" lon="8.68811">
        <ele>1977</ele>
        <time>2021-08-07T07:37:49.648Z</time>
      </trkpt>
      <trkpt lat="46.91962" lon="8.6881">
        <ele>1977</ele>
        <time>2021-08-07T07:37:50.648Z</time>
      </trkpt>
      <trkpt lat="46.91962" lon="8.68809">
        <ele>1976</ele>
        <time>2021-08-07T07:37:51.648Z</time>
      </trkpt>
      <trkpt lat="46.91963" lon="8.68808">
        <ele>1977</ele>
        <time>2021-08-07T07:37:52.648Z</time>
      </trkpt>
      <trkpt lat="46.91963" lon="8.68806">
        <ele>1977</ele>
        <time>2021-08-07T07:37:53.648Z</time>
      </trkpt>
      <trkpt lat="46.91963" lon="8.68805">
        <ele>1978</ele>
        <time>2021-08-07T07:37:54.647Z</time>
      </trkpt>
      <trkpt lat="46.91964" lon="8.68804">
        <ele>1978</ele>
        <time>2021-08-07T07:37:55.647Z</time>
      </trkpt>
      <trkpt lat="46.91964" lon="8.68803">
        <ele>1979</ele>
        <time>2021-08-07T07:37:56.647Z</time>
      </trkpt>
      <trkpt lat="46.91966" lon="8.68801">
        <ele>1979</ele>
        <time>2021-08-07T07:37:57.647Z</time>
      </trkpt>
      <trkpt lat="46.91967" lon="8.688">
        <ele>1979</ele>
        <time>2021-08-07T07:37:58.648Z</time>
      </trkpt>
      <trkpt lat="46.91967" lon="8.68798">
        <ele>1979</ele>
        <time>2021-08-07T07:37:59.647Z</time>
      </trkpt>
      <trkpt lat="46.91968" lon="8.68796">
        <ele>1978</ele>
        <time>2021-08-07T07:38:00.648Z</time>
      </trkpt>
      <trkpt lat="46.91968" lon="8.68794">
        <ele>1979</ele>
        <time>2021-08-07T07:38:01.647Z</time>
      </trkpt>
      <trkpt lat="46.91969" lon="8.68792">
        <ele>1979</ele>
        <time>2021-08-07T07:38:02.648Z</time>
      </trkpt>
      <trkpt lat="46.91969" lon="8.68791">
        <ele>1979</ele>
        <time>2021-08-07T07:38:03.647Z</time>
      </trkpt>
      <trkpt lat="46.9197" lon="8.68789">
        <ele>1980</ele>
        <time>2021-08-07T07:38:04.647Z</time>
      </trkpt>
      <trkpt lat="46.9197" lon="8.68787">
        <ele>1980</ele>
        <time>2021-08-07T07:38:05.647Z</time>
      </trkpt>
      <trkpt lat="46.91969" lon="8.68786">
        <ele>1981</ele>
        <time>2021-08-07T07:38:06.647Z</time>
      </trkpt>
      <trkpt lat="46.91969" lon="8.68784">
        <ele>1981</ele>
        <time>2021-08-07T07:38:07.647Z</time>
      </trkpt>
      <trkpt lat="46.91968" lon="8.68782">
        <ele>1982</ele>
        <time>2021-08-07T07:38:08.647Z</time>
      </trkpt>
      <trkpt lat="46.91967" lon="8.6878">
        <ele>1983</ele>
        <time>2021-08-07T07:38:09.647Z</time>
      </trkpt>
      <trkpt lat="46.91966" lon="8.68779">
        <ele>1983</ele>
        <time>2021-08-07T07:38:10.647Z</time>
      </trkpt>
      <trkpt lat="46.91966" lon="8.68778">
        <ele>1984</ele>
        <time>2021-08-07T07:38:11.647Z</time>
      </trkpt>
      <trkpt lat="46.91965" lon="8.68777">
        <ele>1984</ele>
        <time>2021-08-07T07:38:12.647Z</time>
      </trkpt>
      <trkpt lat="46.91965" lon="8.68775">
        <ele>1984</ele>
        <time>2021-08-07T07:38:13.647Z</time>
      </trkpt>
      <trkpt lat="46.91966" lon="8.68774">
        <ele>1984</ele>
        <time>2021-08-07T07:38:14.647Z</time>
      </trkpt>
      <trkpt lat="46.91966" lon="8.68773">
        <ele>1984</ele>
        <time>2021-08-07T07:38:15.647Z</time>
      </trkpt>
      <trkpt lat="46.91968" lon="8.68771">
        <ele>1983</ele>
        <time>2021-08-07T07:38:16.647Z</time>
      </trkpt>
      <trkpt lat="46.91969" lon="8.68771">
        <ele>1983</ele>
        <time>2021-08-07T07:38:17.647Z</time>
      </trkpt>
      <trkpt lat="46.9197" lon="8.68771">
        <ele>1982</ele>
        <time>2021-08-07T07:38:18.647Z</time>
      </trkpt>
      <trkpt lat="46.91971" lon="8.68771">
        <ele>1982</ele>
        <time>2021-08-07T07:38:19.647Z</time>
      </trkpt>
      <trkpt lat="46.91972" lon="8.6877">
        <ele>1981</ele>
        <time>2021-08-07T07:38:20.648Z</time>
      </trkpt>
      <trkpt lat="46.91973" lon="8.68769">
        <ele>1980</ele>
        <time>2021-08-07T07:38:21.648Z</time>
      </trkpt>
      <trkpt lat="46.91974" lon="8.68768">
        <ele>1980</ele>
        <time>2021-08-07T07:38:22.647Z</time>
      </trkpt>
      <trkpt lat="46.91975" lon="8.68767">
        <ele>1980</ele>
        <time>2021-08-07T07:38:23.648Z</time>
      </trkpt>
      <trkpt lat="46.91976" lon="8.68766">
        <ele>1980</ele>
        <time>2021-08-07T07:38:24.648Z</time>
      </trkpt>
      <trkpt lat="46.91977" lon="8.68765">
        <ele>1980</ele>
        <time>2021-08-07T07:38:25.648Z</time>
      </trkpt>
      <trkpt lat="46.91978" lon="8.68764">
        <ele>1980</ele>
        <time>2021-08-07T07:38:26.647Z</time>
      </trkpt>
      <trkpt lat="46.91979" lon="8.68763">
        <ele>1979</ele>
        <time>2021-08-07T07:38:27.648Z</time>
      </trkpt>
      <trkpt lat="46.9198" lon="8.68763">
        <ele>1979</ele>
        <time>2021-08-07T07:38:28.648Z</time>
      </trkpt>
      <trkpt lat="46.91981" lon="8.68762">
        <ele>1978</ele>
        <time>2021-08-07T07:38:29.648Z</time>
      </trkpt>
      <trkpt lat="46.91981" lon="8.68762">
        <ele>1978</ele>
        <time>2021-08-07T07:38:30.647Z</time>
      </trkpt>
      <trkpt lat="46.91982" lon="8.68761">
        <ele>1978</ele>
        <time>2021-08-07T07:38:31.648Z</time>
      </trkpt>
      <trkpt lat="46.91983" lon="8.68761">
        <ele>1979</ele>
        <time>2021-08-07T07:38:32.648Z</time>
      </trkpt>
      <trkpt lat="46.91984" lon="8.6876">
        <ele>1979</ele>
        <time>2021-08-07T07:38:33.648Z</time>
      </trkpt>
      <trkpt lat="46.91985" lon="8.68759">
        <ele>1980</ele>
        <time>2021-08-07T07:38:34.648Z</time>
      </trkpt>
      <trkpt lat="46.91986" lon="8.68759">
        <ele>1980</ele>
        <time>2021-08-07T07:38:35.648Z</time>
      </trkpt>
      <trkpt lat="46.91986" lon="8.68758">
        <ele>1981</ele>
        <time>2021-08-07T07:38:36.648Z</time>
      </trkpt>
      <trkpt lat="46.91987" lon="8.68757">
        <ele>1981</ele>
        <time>2021-08-07T07:38:37.647Z</time>
      </trkpt>
      <trkpt lat="46.91988" lon="8.68757">
        <ele>1981</ele>
        <time>2021-08-07T07:38:38.648Z</time>
      </trkpt>
      <trkpt lat="46.91989" lon="8.68757">
        <ele>1982</ele>
        <time>2021-08-07T07:38:39.647Z</time>
      </trkpt>
      <trkpt lat="46.9199" lon="8.68757">
        <ele>1982</ele>
        <time>2021-08-07T07:38:40.648Z</time>
      </trkpt>
      <trkpt lat="46.91991" lon="8.68757">
        <ele>1982</ele>
        <time>2021-08-07T07:38:41.647Z</time>
      </trkpt>
      <trkpt lat="46.91992" lon="8.68757">
        <ele>1982</ele>
        <time>2021-08-07T07:38:42.648Z</time>
      </trkpt>
      <trkpt lat="46.91993" lon="8.68757">
        <ele>1982</ele>
        <time>2021-08-07T07:38:43.648Z</time>
      </trkpt>
      <trkpt lat="46.91994" lon="8.68756">
        <ele>1982</ele>
        <time>2021-08-07T07:38:44.647Z</time>
      </trkpt>
      <trkpt lat="46.91994" lon="8.68755">
        <ele>1982</ele>
        <time>2021-08-07T07:38:45.648Z</time>
      </trkpt>
      <trkpt lat="46.91994" lon="8.68754">
        <ele>1982</ele>
        <time>2021-08-07T07:38:46.647Z</time>
      </trkpt>
      <trkpt lat="46.91994" lon="8.68753">
        <ele>1982</ele>
        <time>2021-08-07T07:38:47.648Z</time>
      </trkpt>
      <trkpt lat="46.91994" lon="8.68753">
        <ele>1982</ele>
        <time>2021-08-07T07:38:48.648Z</time>
      </trkpt>
      <trkpt lat="46.91995" lon="8.68752">
        <ele>1982</ele>
        <time>2021-08-07T07:38:49.647Z</time>
      </trkpt>
      <trkpt lat="46.91995" lon="8.68751">
        <ele>1981</ele>
        <time>2021-08-07T07:38:50.648Z</time>
      </trkpt>
      <trkpt lat="46.91995" lon="8.68751">
        <ele>1982</ele>
        <time>2021-08-07T07:38:51.648Z</time>
      </trkpt>
      <trkpt lat="46.91996" lon="8.68751">
        <ele>1982</ele>
        <time>2021-08-07T07:38:52.648Z</time>
      </trkpt>
      <trkpt lat="46.91996" lon="8.68751">
        <ele>1982</ele>
        <time>2021-08-07T07:38:53.647Z</time>
      </trkpt>
      <trkpt lat="46.91997" lon="8.68751">
        <ele>1983</ele>
        <time>2021-08-07T07:38:54.647Z</time>
      </trkpt>
      <trkpt lat="46.91998" lon="8.6875">
        <ele>1982</ele>
        <time>2021-08-07T07:38:55.648Z</time>
      </trkpt>
      <trkpt lat="46.91998" lon="8.6875">
        <ele>1982</ele>
        <time>2021-08-07T07:38:56.647Z</time>
      </trkpt>
      <trkpt lat="46.91998" lon="8.68749">
        <ele>1982</ele>
        <time>2021-08-07T07:38:57.648Z</time>
      </trkpt>
      <trkpt lat="46.91999" lon="8.68748">
        <ele>1981</ele>
        <time>2021-08-07T07:38:58.648Z</time>
      </trkpt>
      <trkpt lat="46.91999" lon="8.68748">
        <ele>1981</ele>
        <time>2021-08-07T07:38:59.648Z</time>
      </trkpt>
      <trkpt lat="46.92" lon="8.68748">
        <ele>1981</ele>
        <time>2021-08-07T07:39:00.648Z</time>
      </trkpt>
      <trkpt lat="46.92001" lon="8.68748">
        <ele>1982</ele>
        <time>2021-08-07T07:39:01.648Z</time>
      </trkpt>
      <trkpt lat="46.92001" lon="8.68747">
        <ele>1982</ele>
        <time>2021-08-07T07:39:02.647Z</time>
      </trkpt>
      <trkpt lat="46.92002" lon="8.68746">
        <ele>1982</ele>
        <time>2021-08-07T07:39:03.648Z</time>
      </trkpt>
      <trkpt lat="46.92003" lon="8.68745">
        <ele>1981</ele>
        <time>2021-08-07T07:39:04.648Z</time>
      </trkpt>
      <trkpt lat="46.92003" lon="8.68744">
        <ele>1981</ele>
        <time>2021-08-07T07:39:05.647Z</time>
      </trkpt>
      <trkpt lat="46.92004" lon="8.68744">
        <ele>1981</ele>
        <time>2021-08-07T07:39:06.647Z</time>
      </trkpt>
      <trkpt lat="46.92004" lon="8.68743">
        <ele>1981</ele>
        <time>2021-08-07T07:39:07.648Z</time>
      </trkpt>
      <trkpt lat="46.92004" lon="8.68742">
        <ele>1980</ele>
        <time>2021-08-07T07:39:08.648Z</time>
      </trkpt>
      <trkpt lat="46.92004" lon="8.68741">
        <ele>1980</ele>
        <time>2021-08-07T07:39:09.647Z</time>
      </trkpt>
      <trkpt lat="46.92005" lon="8.68741">
        <ele>1980</ele>
        <time>2021-08-07T07:39:10.648Z</time>
      </trkpt>
      <trkpt lat="46.92005" lon="8.6874">
        <ele>1980</ele>
        <time>2021-08-07T07:39:11.648Z</time>
      </trkpt>
      <trkpt lat="46.92005" lon="8.6874">
        <ele>1980</ele>
        <time>2021-08-07T07:39:12.648Z</time>
      </trkpt>
      <trkpt lat="46.92006" lon="8.68739">
        <ele>1980</ele>
        <time>2021-08-07T07:39:13.648Z</time>
      </trkpt>
      <trkpt lat="46.92006" lon="8.68738">
        <ele>1980</ele>
        <time>2021-08-07T07:39:14.647Z</time>
      </trkpt>
      <trkpt lat="46.92006" lon="8.68738">
        <ele>1981</ele>
        <time>2021-08-07T07:39:15.648Z</time>
      </trkpt>
      <trkpt lat="46.92006" lon="8.68737">
        <ele>1981</ele>
        <time>2021-08-07T07:39:16.647Z</time>
      </trkpt>
      <trkpt lat="46.92006" lon="8.68736">
        <ele>1981</ele>
        <time>2021-08-07T07:39:17.648Z</time>
      </trkpt>
      <trkpt lat="46.92006" lon="8.68736">
        <ele>1981</ele>
        <time>2021-08-07T07:39:18.648Z</time>
      </trkpt>
      <trkpt lat="46.92004" lon="8.68735">
        <ele>1984</ele>
        <time>2021-08-07T07:39:19.649Z</time>
      </trkpt>
      <trkpt lat="46.92004" lon="8.68734">
        <ele>1984</ele>
        <time>2021-08-07T07:39:20.648Z</time>
      </trkpt>
      <trkpt lat="46.92005" lon="8.68734">
        <ele>1989</ele>
        <time>2021-08-07T07:39:21.650Z</time>
      </trkpt>
      <trkpt lat="46.92005" lon="8.68734">
        <ele>1989</ele>
        <time>2021-08-07T07:39:22.649Z</time>
      </trkpt>
      <trkpt lat="46.92005" lon="8.68734">
        <ele>1990</ele>
        <time>2021-08-07T07:39:23.649Z</time>
      </trkpt>
      <trkpt lat="46.92007" lon="8.68732">
        <ele>1991</ele>
        <time>2021-08-07T07:39:24.649Z</time>
      </trkpt>
      <trkpt lat="46.92007" lon="8.68732">
        <ele>1991</ele>
        <time>2021-08-07T07:39:25.649Z</time>
      </trkpt>
      <trkpt lat="46.92007" lon="8.68731">
        <ele>1991</ele>
        <time>2021-08-07T07:39:26.649Z</time>
      </trkpt>
      <trkpt lat="46.92008" lon="8.6873">
        <ele>1991</ele>
        <time>2021-08-07T07:39:27.650Z</time>
      </trkpt>
      <trkpt lat="46.92008" lon="8.6873">
        <ele>1991</ele>
        <time>2021-08-07T07:39:28.649Z</time>
      </trkpt>
      <trkpt lat="46.92009" lon="8.68729">
        <ele>1991</ele>
        <time>2021-08-07T07:39:29.650Z</time>
      </trkpt>
      <trkpt lat="46.92009" lon="8.68729">
        <ele>1990</ele>
        <time>2021-08-07T07:39:30.649Z</time>
      </trkpt>
      <trkpt lat="46.92009" lon="8.68729">
        <ele>1990</ele>
        <time>2021-08-07T07:39:31.650Z</time>
      </trkpt>
      <trkpt lat="46.9201" lon="8.68728">
        <ele>1991</ele>
        <time>2021-08-07T07:39:32.649Z</time>
      </trkpt>
      <trkpt lat="46.9201" lon="8.68728">
        <ele>1991</ele>
        <time>2021-08-07T07:39:33.650Z</time>
      </trkpt>
      <trkpt lat="46.9201" lon="8.68727">
        <ele>1992</ele>
        <time>2021-08-07T07:39:34.649Z</time>
      </trkpt>
      <trkpt lat="46.92009" lon="8.68727">
        <ele>1993</ele>
        <time>2021-08-07T07:39:35.650Z</time>
      </trkpt>
      <trkpt lat="46.92009" lon="8.68727">
        <ele>1993</ele>
        <time>2021-08-07T07:39:36.650Z</time>
      </trkpt>
      <trkpt lat="46.92009" lon="8.68726">
        <ele>1993</ele>
        <time>2021-08-07T07:39:37.650Z</time>
      </trkpt>
      <trkpt lat="46.92008" lon="8.68726">
        <ele>1994</ele>
        <time>2021-08-07T07:39:38.650Z</time>
      </trkpt>
      <trkpt lat="46.92007" lon="8.68726">
        <ele>1994</ele>
        <time>2021-08-07T07:39:39.650Z</time>
      </trkpt>
      <trkpt lat="46.92007" lon="8.68725">
        <ele>1994</ele>
        <time>2021-08-07T07:39:40.650Z</time>
      </trkpt>
      <trkpt lat="46.92007" lon="8.68726">
        <ele>1993</ele>
        <time>2021-08-07T07:39:41.650Z</time>
      </trkpt>
      <trkpt lat="46.92007" lon="8.68726">
        <ele>1993</ele>
        <time>2021-08-07T07:39:42.650Z</time>
      </trkpt>
      <trkpt lat="46.92005" lon="8.68723">
        <ele>1999</ele>
        <time>2021-08-07T07:39:43.650Z</time>
      </trkpt>
      <trkpt lat="46.92005" lon="8.68723">
        <ele>1999</ele>
        <time>2021-08-07T07:39:44.650Z</time>
      </trkpt>
      <trkpt lat="46.92005" lon="8.68722">
        <ele>1999</ele>
        <time>2021-08-07T07:39:45.650Z</time>
      </trkpt>
      <trkpt lat="46.92005" lon="8.68721">
        <ele>1999</ele>
        <time>2021-08-07T07:39:46.651Z</time>
      </trkpt>
      <trkpt lat="46.92004" lon="8.6872">
        <ele>1998</ele>
        <time>2021-08-07T07:39:47.651Z</time>
      </trkpt>
      <trkpt lat="46.92004" lon="8.6872">
        <ele>1998</ele>
        <time>2021-08-07T07:39:48.650Z</time>
      </trkpt>
      <trkpt lat="46.92003" lon="8.68719">
        <ele>1998</ele>
        <time>2021-08-07T07:39:49.650Z</time>
      </trkpt>
      <trkpt lat="46.92001" lon="8.68718">
        <ele>1997</ele>
        <time>2021-08-07T07:39:50.652Z</time>
      </trkpt>
      <trkpt lat="46.92002" lon="8.68719">
        <ele>1995</ele>
        <time>2021-08-07T07:39:51.652Z</time>
      </trkpt>
      <trkpt lat="46.92003" lon="8.68719">
        <ele>1995</ele>
        <time>2021-08-07T07:39:52.651Z</time>
      </trkpt>
      <trkpt lat="46.92003" lon="8.68719">
        <ele>1995</ele>
        <time>2021-08-07T07:39:53.651Z</time>
      </trkpt>
      <trkpt lat="46.92003" lon="8.68719">
        <ele>1995</ele>
        <time>2021-08-07T07:39:54.652Z</time>
      </trkpt>
      <trkpt lat="46.92004" lon="8.68718">
        <ele>1995</ele>
        <time>2021-08-07T07:39:55.651Z</time>
      </trkpt>
      <trkpt lat="46.92004" lon="8.68718">
        <ele>1996</ele>
        <time>2021-08-07T07:39:56.652Z</time>
      </trkpt>
      <trkpt lat="46.92004" lon="8.68717">
        <ele>1996</ele>
        <time>2021-08-07T07:39:57.651Z</time>
      </trkpt>
      <trkpt lat="46.92004" lon="8.68716">
        <ele>1997</ele>
        <time>2021-08-07T07:39:58.652Z</time>
      </trkpt>
      <trkpt lat="46.92003" lon="8.68716">
        <ele>1997</ele>
        <time>2021-08-07T07:39:59.651Z</time>
      </trkpt>
      <trkpt lat="46.92002" lon="8.68717">
        <ele>1996</ele>
        <time>2021-08-07T07:40:00.652Z</time>
      </trkpt>
      <trkpt lat="46.92005" lon="8.68714">
        <ele>1995</ele>
        <time>2021-08-07T07:40:01.652Z</time>
      </trkpt>
      <trkpt lat="46.92005" lon="8.68714">
        <ele>1991</ele>
        <time>2021-08-07T07:40:02.653Z</time>
      </trkpt>
      <trkpt lat="46.92005" lon="8.68714">
        <ele>1991</ele>
        <time>2021-08-07T07:40:03.653Z</time>
      </trkpt>
      <trkpt lat="46.92004" lon="8.68713">
        <ele>1991</ele>
        <time>2021-08-07T07:40:04.652Z</time>
      </trkpt>
      <trkpt lat="46.92003" lon="8.68712">
        <ele>1991</ele>
        <time>2021-08-07T07:40:05.653Z</time>
      </trkpt>
      <trkpt lat="46.92002" lon="8.68711">
        <ele>1992</ele>
        <time>2021-08-07T07:40:06.653Z</time>
      </trkpt>
      <trkpt lat="46.92001" lon="8.68711">
        <ele>1993</ele>
        <time>2021-08-07T07:40:07.653Z</time>
      </trkpt>
      <trkpt lat="46.92001" lon="8.68711">
        <ele>1994</ele>
        <time>2021-08-07T07:40:08.653Z</time>
      </trkpt>
      <trkpt lat="46.92" lon="8.68711">
        <ele>1995</ele>
        <time>2021-08-07T07:40:09.653Z</time>
      </trkpt>
      <trkpt lat="46.91999" lon="8.6871">
        <ele>1996</ele>
        <time>2021-08-07T07:40:10.652Z</time>
      </trkpt>
      <trkpt lat="46.91999" lon="8.6871">
        <ele>1996</ele>
        <time>2021-08-07T07:40:11.653Z</time>
      </trkpt>
      <trkpt lat="46.91998" lon="8.68709">
        <ele>1997</ele>
        <time>2021-08-07T07:40:12.653Z</time>
      </trkpt>
      <trkpt lat="46.91997" lon="8.68709">
        <ele>1997</ele>
        <time>2021-08-07T07:40:13.653Z</time>
      </trkpt>
      <trkpt lat="46.91997" lon="8.68708">
        <ele>1997</ele>
        <time>2021-08-07T07:40:14.653Z</time>
      </trkpt>
      <trkpt lat="46.91997" lon="8.68708">
        <ele>1998</ele>
        <time>2021-08-07T07:40:15.653Z</time>
      </trkpt>
      <trkpt lat="46.91997" lon="8.68708">
        <ele>1998</ele>
        <time>2021-08-07T07:40:16.653Z</time>
      </trkpt>
      <trkpt lat="46.91997" lon="8.68708">
        <ele>1999</ele>
        <time>2021-08-07T07:40:17.652Z</time>
      </trkpt>
      <trkpt lat="46.91997" lon="8.68707">
        <ele>1999</ele>
        <time>2021-08-07T07:40:18.653Z</time>
      </trkpt>
      <trkpt lat="46.91997" lon="8.68706">
        <ele>1999</ele>
        <time>2021-08-07T07:40:19.652Z</time>
      </trkpt>
      <trkpt lat="46.91996" lon="8.68706">
        <ele>1999</ele>
        <time>2021-08-07T07:40:20.652Z</time>
      </trkpt>
      <trkpt lat="46.91996" lon="8.68706">
        <ele>1998</ele>
        <time>2021-08-07T07:40:21.652Z</time>
      </trkpt>
      <trkpt lat="46.91995" lon="8.68706">
        <ele>1998</ele>
        <time>2021-08-07T07:40:22.652Z</time>
      </trkpt>
      <trkpt lat="46.91995" lon="8.68707">
        <ele>1998</ele>
        <time>2021-08-07T07:40:23.652Z</time>
      </trkpt>
      <trkpt lat="46.91994" lon="8.68707">
        <ele>1998</ele>
        <time>2021-08-07T07:40:24.652Z</time>
      </trkpt>
      <trkpt lat="46.91993" lon="8.68707">
        <ele>1998</ele>
        <time>2021-08-07T07:40:25.653Z</time>
      </trkpt>
      <trkpt lat="46.91993" lon="8.68707">
        <ele>1998</ele>
        <time>2021-08-07T07:40:26.653Z</time>
      </trkpt>
      <trkpt lat="46.91993" lon="8.68706">
        <ele>1998</ele>
        <time>2021-08-07T07:40:27.653Z</time>
      </trkpt>
      <trkpt lat="46.91992" lon="8.68706">
        <ele>1998</ele>
        <time>2021-08-07T07:40:28.652Z</time>
      </trkpt>
      <trkpt lat="46.91991" lon="8.68705">
        <ele>1998</ele>
        <time>2021-08-07T07:40:29.653Z</time>
      </trkpt>
      <trkpt lat="46.91991" lon="8.68704">
        <ele>1998</ele>
        <time>2021-08-07T07:40:30.652Z</time>
      </trkpt>
      <trkpt lat="46.9199" lon="8.68703">
        <ele>1998</ele>
        <time>2021-08-07T07:40:31.652Z</time>
      </trkpt>
      <trkpt lat="46.9199" lon="8.68703">
        <ele>1998</ele>
        <time>2021-08-07T07:40:32.652Z</time>
      </trkpt>
      <trkpt lat="46.9199" lon="8.68702">
        <ele>1997</ele>
        <time>2021-08-07T07:40:33.653Z</time>
      </trkpt>
      <trkpt lat="46.91989" lon="8.68702">
        <ele>1997</ele>
        <time>2021-08-07T07:40:34.652Z</time>
      </trkpt>
      <trkpt lat="46.91989" lon="8.68701">
        <ele>1997</ele>
        <time>2021-08-07T07:40:35.652Z</time>
      </trkpt>
      <trkpt lat="46.91989" lon="8.687">
        <ele>1997</ele>
        <time>2021-08-07T07:40:36.653Z</time>
      </trkpt>
      <trkpt lat="46.91989" lon="8.687">
        <ele>1997</ele>
        <time>2021-08-07T07:40:37.652Z</time>
      </trkpt>
      <trkpt lat="46.91989" lon="8.687">
        <ele>1997</ele>
        <time>2021-08-07T07:40:38.652Z</time>
      </trkpt>
      <trkpt lat="46.91988" lon="8.687">
        <ele>1998</ele>
        <time>2021-08-07T07:40:39.653Z</time>
      </trkpt>
      <trkpt lat="46.91988" lon="8.68701">
        <ele>1998</ele>
        <time>2021-08-07T07:40:40.653Z</time>
      </trkpt>
      <trkpt lat="46.91988" lon="8.68702">
        <ele>1999</ele>
        <time>2021-08-07T07:40:41.653Z</time>
      </trkpt>
      <trkpt lat="46.91988" lon="8.68703">
        <ele>1999</ele>
        <time>2021-08-07T07:40:42.653Z</time>
      </trkpt>
      <trkpt lat="46.91987" lon="8.68702">
        <ele>1999</ele>
        <time>2021-08-07T07:40:43.654Z</time>
      </trkpt>
      <trkpt lat="46.91986" lon="8.68701">
        <ele>2000</ele>
        <time>2021-08-07T07:40:44.653Z</time>
      </trkpt>
      <trkpt lat="46.91985" lon="8.68701">
        <ele>2000</ele>
        <time>2021-08-07T07:40:45.653Z</time>
      </trkpt>
      <trkpt lat="46.91984" lon="8.68701">
        <ele>2000</ele>
        <time>2021-08-07T07:40:46.654Z</time>
      </trkpt>
      <trkpt lat="46.91984" lon="8.68701">
        <ele>2000</ele>
        <time>2021-08-07T07:40:47.653Z</time>
      </trkpt>
      <trkpt lat="46.91982" lon="8.687">
        <ele>2000</ele>
        <time>2021-08-07T07:40:48.653Z</time>
      </trkpt>
      <trkpt lat="46.9198" lon="8.687">
        <ele>2000</ele>
        <time>2021-08-07T07:40:49.654Z</time>
      </trkpt>
      <trkpt lat="46.9198" lon="8.68699">
        <ele>2000</ele>
        <time>2021-08-07T07:40:50.654Z</time>
      </trkpt>
      <trkpt lat="46.9198" lon="8.68699">
        <ele>2000</ele>
        <time>2021-08-07T07:40:51.653Z</time>
      </trkpt>
      <trkpt lat="46.91979" lon="8.68699">
        <ele>2000</ele>
        <time>2021-08-07T07:40:52.654Z</time>
      </trkpt>
      <trkpt lat="46.9198" lon="8.68698">
        <ele>2000</ele>
        <time>2021-08-07T07:40:53.654Z</time>
      </trkpt>
      <trkpt lat="46.9198" lon="8.68697">
        <ele>2000</ele>
        <time>2021-08-07T07:40:54.654Z</time>
      </trkpt>
      <trkpt lat="46.9198" lon="8.68696">
        <ele>2000</ele>
        <time>2021-08-07T07:40:55.654Z</time>
      </trkpt>
      <trkpt lat="46.9198" lon="8.68695">
        <ele>2000</ele>
        <time>2021-08-07T07:40:56.654Z</time>
      </trkpt>
      <trkpt lat="46.9198" lon="8.68694">
        <ele>2001</ele>
        <time>2021-08-07T07:40:57.654Z</time>
      </trkpt>
      <trkpt lat="46.91981" lon="8.68694">
        <ele>2001</ele>
        <time>2021-08-07T07:40:58.654Z</time>
      </trkpt>
      <trkpt lat="46.91981" lon="8.68695">
        <ele>2002</ele>
        <time>2021-08-07T07:40:59.653Z</time>
      </trkpt>
      <trkpt lat="46.91982" lon="8.68694">
        <ele>2002</ele>
        <time>2021-08-07T07:41:00.653Z</time>
      </trkpt>
      <trkpt lat="46.91982" lon="8.68694">
        <ele>2003</ele>
        <time>2021-08-07T07:41:01.653Z</time>
      </trkpt>
      <trkpt lat="46.91981" lon="8.68693">
        <ele>2003</ele>
        <time>2021-08-07T07:41:02.653Z</time>
      </trkpt>
      <trkpt lat="46.91981" lon="8.68693">
        <ele>2004</ele>
        <time>2021-08-07T07:41:03.653Z</time>
      </trkpt>
      <trkpt lat="46.9198" lon="8.68693">
        <ele>2004</ele>
        <time>2021-08-07T07:41:04.653Z</time>
      </trkpt>
      <trkpt lat="46.91979" lon="8.68692">
        <ele>2005</ele>
        <time>2021-08-07T07:41:05.653Z</time>
      </trkpt>
      <trkpt lat="46.91979" lon="8.68691">
        <ele>2005</ele>
        <time>2021-08-07T07:41:06.653Z</time>
      </trkpt>
      <trkpt lat="46.91979" lon="8.68691">
        <ele>2006</ele>
        <time>2021-08-07T07:41:07.653Z</time>
      </trkpt>
      <trkpt lat="46.9198" lon="8.68691">
        <ele>2006</ele>
        <time>2021-08-07T07:41:08.653Z</time>
      </trkpt>
      <trkpt lat="46.9198" lon="8.6869">
        <ele>2007</ele>
        <time>2021-08-07T07:41:09.653Z</time>
      </trkpt>
      <trkpt lat="46.9198" lon="8.6869">
        <ele>2007</ele>
        <time>2021-08-07T07:41:10.653Z</time>
      </trkpt>
      <trkpt lat="46.91979" lon="8.68691">
        <ele>2007</ele>
        <time>2021-08-07T07:41:11.653Z</time>
      </trkpt>
      <trkpt lat="46.91979" lon="8.68691">
        <ele>2008</ele>
        <time>2021-08-07T07:41:12.653Z</time>
      </trkpt>
      <trkpt lat="46.91978" lon="8.68691">
        <ele>2008</ele>
        <time>2021-08-07T07:41:13.654Z</time>
      </trkpt>
      <trkpt lat="46.91978" lon="8.6869">
        <ele>2008</ele>
        <time>2021-08-07T07:41:14.654Z</time>
      </trkpt>
      <trkpt lat="46.91977" lon="8.6869">
        <ele>2009</ele>
        <time>2021-08-07T07:41:15.654Z</time>
      </trkpt>
      <trkpt lat="46.91977" lon="8.68689">
        <ele>2009</ele>
        <time>2021-08-07T07:41:16.653Z</time>
      </trkpt>
      <trkpt lat="46.91977" lon="8.68688">
        <ele>2009</ele>
        <time>2021-08-07T07:41:17.653Z</time>
      </trkpt>
      <trkpt lat="46.91976" lon="8.68686">
        <ele>2010</ele>
        <time>2021-08-07T07:41:18.653Z</time>
      </trkpt>
      <trkpt lat="46.91975" lon="8.68685">
        <ele>2010</ele>
        <time>2021-08-07T07:41:19.653Z</time>
      </trkpt>
      <trkpt lat="46.91975" lon="8.68683">
        <ele>2011</ele>
        <time>2021-08-07T07:41:20.654Z</time>
      </trkpt>
      <trkpt lat="46.91974" lon="8.68682">
        <ele>2011</ele>
        <time>2021-08-07T07:41:21.654Z</time>
      </trkpt>
      <trkpt lat="46.91974" lon="8.68682">
        <ele>2012</ele>
        <time>2021-08-07T07:41:22.653Z</time>
      </trkpt>
      <trkpt lat="46.91974" lon="8.68682">
        <ele>2012</ele>
        <time>2021-08-07T07:41:23.653Z</time>
      </trkpt>
      <trkpt lat="46.91974" lon="8.68681">
        <ele>2012</ele>
        <time>2021-08-07T07:41:24.654Z</time>
      </trkpt>
      <trkpt lat="46.91974" lon="8.6868">
        <ele>2012</ele>
        <time>2021-08-07T07:41:25.653Z</time>
      </trkpt>
      <trkpt lat="46.91974" lon="8.68679">
        <ele>2012</ele>
        <time>2021-08-07T07:41:26.653Z</time>
      </trkpt>
      <trkpt lat="46.91974" lon="8.68679">
        <ele>2011</ele>
        <time>2021-08-07T07:41:27.653Z</time>
      </trkpt>
      <trkpt lat="46.91974" lon="8.68679">
        <ele>2011</ele>
        <time>2021-08-07T07:41:28.654Z</time>
      </trkpt>
      <trkpt lat="46.91973" lon="8.68677">
        <ele>2012</ele>
        <time>2021-08-07T07:41:29.655Z</time>
      </trkpt>
      <trkpt lat="46.91972" lon="8.68676">
        <ele>2013</ele>
        <time>2021-08-07T07:41:30.655Z</time>
      </trkpt>
      <trkpt lat="46.91971" lon="8.68676">
        <ele>2013</ele>
        <time>2021-08-07T07:41:31.654Z</time>
      </trkpt>
      <trkpt lat="46.91971" lon="8.68675">
        <ele>2014</ele>
        <time>2021-08-07T07:41:32.654Z</time>
      </trkpt>
      <trkpt lat="46.9197" lon="8.68675">
        <ele>2014</ele>
        <time>2021-08-07T07:41:33.654Z</time>
      </trkpt>
      <trkpt lat="46.91969" lon="8.68674">
        <ele>2014</ele>
        <time>2021-08-07T07:41:34.654Z</time>
      </trkpt>
      <trkpt lat="46.91969" lon="8.68673">
        <ele>2014</ele>
        <time>2021-08-07T07:41:35.654Z</time>
      </trkpt>
      <trkpt lat="46.91968" lon="8.68673">
        <ele>2014</ele>
        <time>2021-08-07T07:41:36.655Z</time>
      </trkpt>
      <trkpt lat="46.91968" lon="8.68674">
        <ele>2013</ele>
        <time>2021-08-07T07:41:37.654Z</time>
      </trkpt>
      <trkpt lat="46.91967" lon="8.68674">
        <ele>2013</ele>
        <time>2021-08-07T07:41:38.654Z</time>
      </trkpt>
      <trkpt lat="46.91967" lon="8.68674">
        <ele>2013</ele>
        <time>2021-08-07T07:41:39.654Z</time>
      </trkpt>
      <trkpt lat="46.91966" lon="8.68674">
        <ele>2013</ele>
        <time>2021-08-07T07:41:40.655Z</time>
      </trkpt>
      <trkpt lat="46.91966" lon="8.68673">
        <ele>2013</ele>
        <time>2021-08-07T07:41:41.655Z</time>
      </trkpt>
      <trkpt lat="46.91966" lon="8.68674">
        <ele>2013</ele>
        <time>2021-08-07T07:41:42.655Z</time>
      </trkpt>
      <trkpt lat="46.91965" lon="8.68674">
        <ele>2013</ele>
        <time>2021-08-07T07:41:43.655Z</time>
      </trkpt>
      <trkpt lat="46.91965" lon="8.68673">
        <ele>2013</ele>
        <time>2021-08-07T07:41:44.655Z</time>
      </trkpt>
      <trkpt lat="46.91964" lon="8.68673">
        <ele>2013</ele>
        <time>2021-08-07T07:41:45.655Z</time>
      </trkpt>
      <trkpt lat="46.91963" lon="8.68672">
        <ele>2013</ele>
        <time>2021-08-07T07:41:46.654Z</time>
      </trkpt>
      <trkpt lat="46.91962" lon="8.68671">
        <ele>2012</ele>
        <time>2021-08-07T07:41:47.654Z</time>
      </trkpt>
      <trkpt lat="46.91961" lon="8.6867">
        <ele>2012</ele>
        <time>2021-08-07T07:41:48.654Z</time>
      </trkpt>
      <trkpt lat="46.9196" lon="8.68669">
        <ele>2012</ele>
        <time>2021-08-07T07:41:49.655Z</time>
      </trkpt>
      <trkpt lat="46.91959" lon="8.68669">
        <ele>2012</ele>
        <time>2021-08-07T07:41:50.655Z</time>
      </trkpt>
      <trkpt lat="46.91959" lon="8.68668">
        <ele>2012</ele>
        <time>2021-08-07T07:41:51.655Z</time>
      </trkpt>
      <trkpt lat="46.91958" lon="8.68668">
        <ele>2011</ele>
        <time>2021-08-07T07:41:52.655Z</time>
      </trkpt>
      <trkpt lat="46.91958" lon="8.68668">
        <ele>2011</ele>
        <time>2021-08-07T07:41:53.654Z</time>
      </trkpt>
      <trkpt lat="46.91957" lon="8.68668">
        <ele>2011</ele>
        <time>2021-08-07T07:41:54.654Z</time>
      </trkpt>
      <trkpt lat="46.91957" lon="8.68669">
        <ele>2011</ele>
        <time>2021-08-07T07:41:55.655Z</time>
      </trkpt>
      <trkpt lat="46.91956" lon="8.68669">
        <ele>2012</ele>
        <time>2021-08-07T07:41:56.655Z</time>
      </trkpt>
      <trkpt lat="46.91956" lon="8.68671">
        <ele>2012</ele>
        <time>2021-08-07T07:41:57.655Z</time>
      </trkpt>
      <trkpt lat="46.91955" lon="8.68672">
        <ele>2012</ele>
        <time>2021-08-07T07:41:58.654Z</time>
      </trkpt>
      <trkpt lat="46.91955" lon="8.68672">
        <ele>2012</ele>
        <time>2021-08-07T07:41:59.655Z</time>
      </trkpt>
      <trkpt lat="46.91955" lon="8.68672">
        <ele>2013</ele>
        <time>2021-08-07T07:42:00.655Z</time>
      </trkpt>
      <trkpt lat="46.91956" lon="8.68672">
        <ele>2013</ele>
        <time>2021-08-07T07:42:01.655Z</time>
      </trkpt>
      <trkpt lat="46.91956" lon="8.68671">
        <ele>2013</ele>
        <time>2021-08-07T07:42:02.654Z</time>
      </trkpt>
      <trkpt lat="46.91956" lon="8.6867">
        <ele>2013</ele>
        <time>2021-08-07T07:42:03.655Z</time>
      </trkpt>
      <trkpt lat="46.91955" lon="8.68669">
        <ele>2013</ele>
        <time>2021-08-07T07:42:04.655Z</time>
      </trkpt>
      <trkpt lat="46.91955" lon="8.6867">
        <ele>2014</ele>
        <time>2021-08-07T07:42:05.655Z</time>
      </trkpt>
      <trkpt lat="46.91954" lon="8.6867">
        <ele>2014</ele>
        <time>2021-08-07T07:42:06.655Z</time>
      </trkpt>
      <trkpt lat="46.91954" lon="8.6867">
        <ele>2014</ele>
        <time>2021-08-07T07:42:07.655Z</time>
      </trkpt>
      <trkpt lat="46.91953" lon="8.68668">
        <ele>2015</ele>
        <time>2021-08-07T07:42:08.655Z</time>
      </trkpt>
      <trkpt lat="46.91952" lon="8.68667">
        <ele>2015</ele>
        <time>2021-08-07T07:42:09.655Z</time>
      </trkpt>
      <trkpt lat="46.91951" lon="8.68666">
        <ele>2015</ele>
        <time>2021-08-07T07:42:10.655Z</time>
      </trkpt>
      <trkpt lat="46.91952" lon="8.68666">
        <ele>2016</ele>
        <time>2021-08-07T07:42:11.654Z</time>
      </trkpt>
      <trkpt lat="46.91952" lon="8.68666">
        <ele>2016</ele>
        <time>2021-08-07T07:42:12.654Z</time>
      </trkpt>
      <trkpt lat="46.91951" lon="8.68665">
        <ele>2017</ele>
        <time>2021-08-07T07:42:13.655Z</time>
      </trkpt>
      <trkpt lat="46.91951" lon="8.68665">
        <ele>2018</ele>
        <time>2021-08-07T07:42:14.655Z</time>
      </trkpt>
      <trkpt lat="46.91951" lon="8.68664">
        <ele>2019</ele>
        <time>2021-08-07T07:42:15.655Z</time>
      </trkpt>
      <trkpt lat="46.9195" lon="8.68663">
        <ele>2020</ele>
        <time>2021-08-07T07:42:16.655Z</time>
      </trkpt>
      <trkpt lat="46.91949" lon="8.68662">
        <ele>2020</ele>
        <time>2021-08-07T07:42:17.655Z</time>
      </trkpt>
      <trkpt lat="46.91948" lon="8.68661">
        <ele>2021</ele>
        <time>2021-08-07T07:42:18.655Z</time>
      </trkpt>
      <trkpt lat="46.91948" lon="8.68661">
        <ele>2021</ele>
        <time>2021-08-07T07:42:19.655Z</time>
      </trkpt>
      <trkpt lat="46.91947" lon="8.68661">
        <ele>2021</ele>
        <time>2021-08-07T07:42:20.655Z</time>
      </trkpt>
      <trkpt lat="46.91948" lon="8.68662">
        <ele>2021</ele>
        <time>2021-08-07T07:42:21.655Z</time>
      </trkpt>
      <trkpt lat="46.91948" lon="8.68661">
        <ele>2020</ele>
        <time>2021-08-07T07:42:22.654Z</time>
      </trkpt>
      <trkpt lat="46.91947" lon="8.6866">
        <ele>2020</ele>
        <time>2021-08-07T07:42:23.655Z</time>
      </trkpt>
      <trkpt lat="46.91947" lon="8.6866">
        <ele>2020</ele>
        <time>2021-08-07T07:42:24.655Z</time>
      </trkpt>
      <trkpt lat="46.91947" lon="8.68659">
        <ele>2020</ele>
        <time>2021-08-07T07:42:25.654Z</time>
      </trkpt>
      <trkpt lat="46.91947" lon="8.68659">
        <ele>2021</ele>
        <time>2021-08-07T07:42:26.655Z</time>
      </trkpt>
      <trkpt lat="46.91946" lon="8.68659">
        <ele>2021</ele>
        <time>2021-08-07T07:42:27.654Z</time>
      </trkpt>
      <trkpt lat="46.91945" lon="8.68658">
        <ele>2021</ele>
        <time>2021-08-07T07:42:28.654Z</time>
      </trkpt>
      <trkpt lat="46.91945" lon="8.68658">
        <ele>2021</ele>
        <time>2021-08-07T07:42:29.654Z</time>
      </trkpt>
      <trkpt lat="46.91945" lon="8.68657">
        <ele>2021</ele>
        <time>2021-08-07T07:42:30.654Z</time>
      </trkpt>
      <trkpt lat="46.91944" lon="8.68657">
        <ele>2021</ele>
        <time>2021-08-07T07:42:31.656Z</time>
      </trkpt>
      <trkpt lat="46.91944" lon="8.68657">
        <ele>2021</ele>
        <time>2021-08-07T07:42:32.655Z</time>
      </trkpt>
      <trkpt lat="46.91943" lon="8.68657">
        <ele>2021</ele>
        <time>2021-08-07T07:42:33.656Z</time>
      </trkpt>
      <trkpt lat="46.91943" lon="8.68656">
        <ele>2021</ele>
        <time>2021-08-07T07:42:34.656Z</time>
      </trkpt>
      <trkpt lat="46.91943" lon="8.68656">
        <ele>2020</ele>
        <time>2021-08-07T07:42:35.656Z</time>
      </trkpt>
      <trkpt lat="46.91943" lon="8.68656">
        <ele>2019</ele>
        <time>2021-08-07T07:42:36.656Z</time>
      </trkpt>
      <trkpt lat="46.91942" lon="8.68654">
        <ele>2018</ele>
        <time>2021-08-07T07:42:37.656Z</time>
      </trkpt>
      <trkpt lat="46.91941" lon="8.68654">
        <ele>2018</ele>
        <time>2021-08-07T07:42:38.655Z</time>
      </trkpt>
      <trkpt lat="46.9194" lon="8.68654">
        <ele>2018</ele>
        <time>2021-08-07T07:42:39.655Z</time>
      </trkpt>
      <trkpt lat="46.91941" lon="8.68655">
        <ele>2018</ele>
        <time>2021-08-07T07:42:40.656Z</time>
      </trkpt>
      <trkpt lat="46.9194" lon="8.68656">
        <ele>2018</ele>
        <time>2021-08-07T07:42:41.656Z</time>
      </trkpt>
      <trkpt lat="46.9194" lon="8.68656">
        <ele>2018</ele>
        <time>2021-08-07T07:42:42.655Z</time>
      </trkpt>
      <trkpt lat="46.91939" lon="8.68655">
        <ele>2018</ele>
        <time>2021-08-07T07:42:43.656Z</time>
      </trkpt>
      <trkpt lat="46.91939" lon="8.68655">
        <ele>2018</ele>
        <time>2021-08-07T07:42:44.656Z</time>
      </trkpt>
      <trkpt lat="46.91938" lon="8.68654">
        <ele>2017</ele>
        <time>2021-08-07T07:42:45.656Z</time>
      </trkpt>
      <trkpt lat="46.91937" lon="8.68653">
        <ele>2017</ele>
        <time>2021-08-07T07:42:46.655Z</time>
      </trkpt>
      <trkpt lat="46.91937" lon="8.68653">
        <ele>2017</ele>
        <time>2021-08-07T07:42:47.655Z</time>
      </trkpt>
      <trkpt lat="46.91937" lon="8.68653">
        <ele>2017</ele>
        <time>2021-08-07T07:42:48.656Z</time>
      </trkpt>
      <trkpt lat="46.91936" lon="8.68652">
        <ele>2017</ele>
        <time>2021-08-07T07:42:49.655Z</time>
      </trkpt>
      <trkpt lat="46.91936" lon="8.68651">
        <ele>2017</ele>
        <time>2021-08-07T07:42:50.656Z</time>
      </trkpt>
      <trkpt lat="46.91935" lon="8.68651">
        <ele>2017</ele>
        <time>2021-08-07T07:42:51.656Z</time>
      </trkpt>
      <trkpt lat="46.91934" lon="8.68651">
        <ele>2017</ele>
        <time>2021-08-07T07:42:52.656Z</time>
      </trkpt>
      <trkpt lat="46.91934" lon="8.68652">
        <ele>2018</ele>
        <time>2021-08-07T07:42:53.655Z</time>
      </trkpt>
      <trkpt lat="46.91933" lon="8.68652">
        <ele>2018</ele>
        <time>2021-08-07T07:42:54.655Z</time>
      </trkpt>
      <trkpt lat="46.91933" lon="8.68651">
        <ele>2018</ele>
        <time>2021-08-07T07:42:55.656Z</time>
      </trkpt>
      <trkpt lat="46.91932" lon="8.68651">
        <ele>2018</ele>
        <time>2021-08-07T07:42:56.655Z</time>
      </trkpt>
      <trkpt lat="46.91932" lon="8.68651">
        <ele>2018</ele>
        <time>2021-08-07T07:42:57.655Z</time>
      </trkpt>
      <trkpt lat="46.91931" lon="8.68651">
        <ele>2019</ele>
        <time>2021-08-07T07:42:58.655Z</time>
      </trkpt>
      <trkpt lat="46.9193" lon="8.68651">
        <ele>2019</ele>
        <time>2021-08-07T07:42:59.656Z</time>
      </trkpt>
      <trkpt lat="46.9193" lon="8.68651">
        <ele>2020</ele>
        <time>2021-08-07T07:43:00.656Z</time>
      </trkpt>
      <trkpt lat="46.9193" lon="8.68651">
        <ele>2020</ele>
        <time>2021-08-07T07:43:01.655Z</time>
      </trkpt>
      <trkpt lat="46.91929" lon="8.68649">
        <ele>2022</ele>
        <time>2021-08-07T07:43:02.655Z</time>
      </trkpt>
      <trkpt lat="46.91929" lon="8.68649">
        <ele>2022</ele>
        <time>2021-08-07T07:43:03.655Z</time>
      </trkpt>
      <trkpt lat="46.91929" lon="8.68649">
        <ele>2022</ele>
        <time>2021-08-07T07:43:04.655Z</time>
      </trkpt>
      <trkpt lat="46.91928" lon="8.68648">
        <ele>2023</ele>
        <time>2021-08-07T07:43:05.655Z</time>
      </trkpt>
      <trkpt lat="46.91928" lon="8.68648">
        <ele>2024</ele>
        <time>2021-08-07T07:43:06.655Z</time>
      </trkpt>
      <trkpt lat="46.91928" lon="8.68648">
        <ele>2024</ele>
        <time>2021-08-07T07:43:07.655Z</time>
      </trkpt>
      <trkpt lat="46.91929" lon="8.68647">
        <ele>2025</ele>
        <time>2021-08-07T07:43:08.656Z</time>
      </trkpt>
      <trkpt lat="46.9193" lon="8.68647">
        <ele>2025</ele>
        <time>2021-08-07T07:43:09.655Z</time>
      </trkpt>
      <trkpt lat="46.9193" lon="8.68646">
        <ele>2026</ele>
        <time>2021-08-07T07:43:10.655Z</time>
      </trkpt>
      <trkpt lat="46.9193" lon="8.68646">
        <ele>2026</ele>
        <time>2021-08-07T07:43:11.656Z</time>
      </trkpt>
      <trkpt lat="46.91929" lon="8.68645">
        <ele>2026</ele>
        <time>2021-08-07T07:43:12.655Z</time>
      </trkpt>
      <trkpt lat="46.91928" lon="8.68644">
        <ele>2026</ele>
        <time>2021-08-07T07:43:13.655Z</time>
      </trkpt>
      <trkpt lat="46.91928" lon="8.68644">
        <ele>2025</ele>
        <time>2021-08-07T07:43:14.655Z</time>
      </trkpt>
      <trkpt lat="46.91928" lon="8.68643">
        <ele>2025</ele>
        <time>2021-08-07T07:43:15.656Z</time>
      </trkpt>
      <trkpt lat="46.91928" lon="8.68643">
        <ele>2025</ele>
        <time>2021-08-07T07:43:16.656Z</time>
      </trkpt>
      <trkpt lat="46.91929" lon="8.68642">
        <ele>2025</ele>
        <time>2021-08-07T07:43:17.655Z</time>
      </trkpt>
      <trkpt lat="46.91928" lon="8.68642">
        <ele>2026</ele>
        <time>2021-08-07T07:43:18.656Z</time>
      </trkpt>
      <trkpt lat="46.91928" lon="8.68642">
        <ele>2026</ele>
        <time>2021-08-07T07:43:19.655Z</time>
      </trkpt>
      <trkpt lat="46.91928" lon="8.68641">
        <ele>2026</ele>
        <time>2021-08-07T07:43:20.655Z</time>
      </trkpt>
      <trkpt lat="46.91928" lon="8.6864">
        <ele>2026</ele>
        <time>2021-08-07T07:43:21.655Z</time>
      </trkpt>
      <trkpt lat="46.91928" lon="8.68639">
        <ele>2026</ele>
        <time>2021-08-07T07:43:22.655Z</time>
      </trkpt>
      <trkpt lat="46.91928" lon="8.68639">
        <ele>2026</ele>
        <time>2021-08-07T07:43:23.655Z</time>
      </trkpt>
      <trkpt lat="46.91928" lon="8.68638">
        <ele>2027</ele>
        <time>2021-08-07T07:43:24.655Z</time>
      </trkpt>
      <trkpt lat="46.91927" lon="8.68637">
        <ele>2027</ele>
        <time>2021-08-07T07:43:25.655Z</time>
      </trkpt>
      <trkpt lat="46.91927" lon="8.68637">
        <ele>2028</ele>
        <time>2021-08-07T07:43:26.655Z</time>
      </trkpt>
      <trkpt lat="46.91927" lon="8.68637">
        <ele>2029</ele>
        <time>2021-08-07T07:43:27.655Z</time>
      </trkpt>
      <trkpt lat="46.91927" lon="8.68636">
        <ele>2029</ele>
        <time>2021-08-07T07:43:28.656Z</time>
      </trkpt>
      <trkpt lat="46.91927" lon="8.68636">
        <ele>2030</ele>
        <time>2021-08-07T07:43:29.655Z</time>
      </trkpt>
      <trkpt lat="46.91926" lon="8.68635">
        <ele>2030</ele>
        <time>2021-08-07T07:43:30.655Z</time>
      </trkpt>
      <trkpt lat="46.91926" lon="8.68634">
        <ele>2030</ele>
        <time>2021-08-07T07:43:31.656Z</time>
      </trkpt>
      <trkpt lat="46.91925" lon="8.68634">
        <ele>2030</ele>
        <time>2021-08-07T07:43:32.655Z</time>
      </trkpt>
      <trkpt lat="46.91923" lon="8.68632">
        <ele>2030</ele>
        <time>2021-08-07T07:43:33.656Z</time>
      </trkpt>
      <trkpt lat="46.91923" lon="8.68632">
        <ele>2030</ele>
        <time>2021-08-07T07:43:34.656Z</time>
      </trkpt>
      <trkpt lat="46.91922" lon="8.68632">
        <ele>2030</ele>
        <time>2021-08-07T07:43:35.655Z</time>
      </trkpt>
      <trkpt lat="46.91921" lon="8.68632">
        <ele>2030</ele>
        <time>2021-08-07T07:43:36.655Z</time>
      </trkpt>
      <trkpt lat="46.91921" lon="8.68631">
        <ele>2030</ele>
        <time>2021-08-07T07:43:37.656Z</time>
      </trkpt>
      <trkpt lat="46.9192" lon="8.68631">
        <ele>2030</ele>
        <time>2021-08-07T07:43:38.655Z</time>
      </trkpt>
      <trkpt lat="46.91919" lon="8.68631">
        <ele>2030</ele>
        <time>2021-08-07T07:43:39.656Z</time>
      </trkpt>
      <trkpt lat="46.91919" lon="8.68631">
        <ele>2030</ele>
        <time>2021-08-07T07:43:40.655Z</time>
      </trkpt>
      <trkpt lat="46.91918" lon="8.6863">
        <ele>2030</ele>
        <time>2021-08-07T07:43:41.655Z</time>
      </trkpt>
      <trkpt lat="46.91918" lon="8.6863">
        <ele>2030</ele>
        <time>2021-08-07T07:43:42.655Z</time>
      </trkpt>
      <trkpt lat="46.91918" lon="8.68629">
        <ele>2030</ele>
        <time>2021-08-07T07:43:43.655Z</time>
      </trkpt>
      <trkpt lat="46.91917" lon="8.68629">
        <ele>2030</ele>
        <time>2021-08-07T07:43:44.656Z</time>
      </trkpt>
      <trkpt lat="46.91918" lon="8.68628">
        <ele>2029</ele>
        <time>2021-08-07T07:43:45.656Z</time>
      </trkpt>
      <trkpt lat="46.91918" lon="8.68628">
        <ele>2029</ele>
        <time>2021-08-07T07:43:46.656Z</time>
      </trkpt>
      <trkpt lat="46.91918" lon="8.68627">
        <ele>2029</ele>
        <time>2021-08-07T07:43:47.655Z</time>
      </trkpt>
      <trkpt lat="46.91918" lon="8.68626">
        <ele>2029</ele>
        <time>2021-08-07T07:43:48.655Z</time>
      </trkpt>
      <trkpt lat="46.91917" lon="8.68626">
        <ele>2029</ele>
        <time>2021-08-07T07:43:49.655Z</time>
      </trkpt>
      <trkpt lat="46.91917" lon="8.68625">
        <ele>2029</ele>
        <time>2021-08-07T07:43:50.655Z</time>
      </trkpt>
      <trkpt lat="46.91916" lon="8.68625">
        <ele>2029</ele>
        <time>2021-08-07T07:43:51.655Z</time>
      </trkpt>
      <trkpt lat="46.91916" lon="8.68625">
        <ele>2029</ele>
        <time>2021-08-07T07:43:52.656Z</time>
      </trkpt>
      <trkpt lat="46.91915" lon="8.68625">
        <ele>2029</ele>
        <time>2021-08-07T07:43:53.655Z</time>
      </trkpt>
      <trkpt lat="46.91915" lon="8.68626">
        <ele>2029</ele>
        <time>2021-08-07T07:43:54.655Z</time>
      </trkpt>
      <trkpt lat="46.91915" lon="8.68625">
        <ele>2028</ele>
        <time>2021-08-07T07:43:55.656Z</time>
      </trkpt>
      <trkpt lat="46.91915" lon="8.68625">
        <ele>2028</ele>
        <time>2021-08-07T07:43:56.655Z</time>
      </trkpt>
      <trkpt lat="46.91914" lon="8.68624">
        <ele>2028</ele>
        <time>2021-08-07T07:43:57.655Z</time>
      </trkpt>
      <trkpt lat="46.91914" lon="8.68624">
        <ele>2028</ele>
        <time>2021-08-07T07:43:58.656Z</time>
      </trkpt>
      <trkpt lat="46.91914" lon="8.68624">
        <ele>2028</ele>
        <time>2021-08-07T07:43:59.655Z</time>
      </trkpt>
      <trkpt lat="46.91913" lon="8.68623">
        <ele>2028</ele>
        <time>2021-08-07T07:44:00.656Z</time>
      </trkpt>
      <trkpt lat="46.91913" lon="8.68623">
        <ele>2028</ele>
        <time>2021-08-07T07:44:01.655Z</time>
      </trkpt>
      <trkpt lat="46.91913" lon="8.68623">
        <ele>2028</ele>
        <time>2021-08-07T07:44:02.655Z</time>
      </trkpt>
      <trkpt lat="46.91912" lon="8.68622">
        <ele>2028</ele>
        <time>2021-08-07T07:44:03.655Z</time>
      </trkpt>
      <trkpt lat="46.91912" lon="8.68621">
        <ele>2028</ele>
        <time>2021-08-07T07:44:04.656Z</time>
      </trkpt>
      <trkpt lat="46.91911" lon="8.6862">
        <ele>2028</ele>
        <time>2021-08-07T07:44:05.655Z</time>
      </trkpt>
      <trkpt lat="46.91911" lon="8.68619">
        <ele>2028</ele>
        <time>2021-08-07T07:44:06.655Z</time>
      </trkpt>
      <trkpt lat="46.9191" lon="8.68618">
        <ele>2028</ele>
        <time>2021-08-07T07:44:07.655Z</time>
      </trkpt>
      <trkpt lat="46.91909" lon="8.68618">
        <ele>2028</ele>
        <time>2021-08-07T07:44:08.655Z</time>
      </trkpt>
      <trkpt lat="46.91909" lon="8.68617">
        <ele>2028</ele>
        <time>2021-08-07T07:44:09.656Z</time>
      </trkpt>
      <trkpt lat="46.91909" lon="8.68617">
        <ele>2028</ele>
        <time>2021-08-07T07:44:10.655Z</time>
      </trkpt>
      <trkpt lat="46.91908" lon="8.68616">
        <ele>2028</ele>
        <time>2021-08-07T07:44:11.655Z</time>
      </trkpt>
      <trkpt lat="46.91908" lon="8.68616">
        <ele>2029</ele>
        <time>2021-08-07T07:44:12.655Z</time>
      </trkpt>
      <trkpt lat="46.91907" lon="8.68616">
        <ele>2030</ele>
        <time>2021-08-07T07:44:13.656Z</time>
      </trkpt>
      <trkpt lat="46.91907" lon="8.68617">
        <ele>2031</ele>
        <time>2021-08-07T07:44:14.655Z</time>
      </trkpt>
      <trkpt lat="46.91906" lon="8.68617">
        <ele>2031</ele>
        <time>2021-08-07T07:44:15.655Z</time>
      </trkpt>
      <trkpt lat="46.91905" lon="8.68617">
        <ele>2032</ele>
        <time>2021-08-07T07:44:16.655Z</time>
      </trkpt>
      <trkpt lat="46.91904" lon="8.68616">
        <ele>2033</ele>
        <time>2021-08-07T07:44:17.655Z</time>
      </trkpt>
      <trkpt lat="46.91904" lon="8.68616">
        <ele>2034</ele>
        <time>2021-08-07T07:44:18.655Z</time>
      </trkpt>
      <trkpt lat="46.91903" lon="8.68614">
        <ele>2035</ele>
        <time>2021-08-07T07:44:19.655Z</time>
      </trkpt>
      <trkpt lat="46.91902" lon="8.68613">
        <ele>2035</ele>
        <time>2021-08-07T07:44:20.656Z</time>
      </trkpt>
      <trkpt lat="46.91902" lon="8.68613">
        <ele>2036</ele>
        <time>2021-08-07T07:44:21.656Z</time>
      </trkpt>
      <trkpt lat="46.91902" lon="8.68612">
        <ele>2036</ele>
        <time>2021-08-07T07:44:22.655Z</time>
      </trkpt>
      <trkpt lat="46.91901" lon="8.68613">
        <ele>2036</ele>
        <time>2021-08-07T07:44:23.655Z</time>
      </trkpt>
      <trkpt lat="46.91901" lon="8.68613">
        <ele>2036</ele>
        <time>2021-08-07T07:44:24.655Z</time>
      </trkpt>
      <trkpt lat="46.91901" lon="8.68613">
        <ele>2036</ele>
        <time>2021-08-07T07:44:25.655Z</time>
      </trkpt>
      <trkpt lat="46.919" lon="8.68613">
        <ele>2036</ele>
        <time>2021-08-07T07:44:26.655Z</time>
      </trkpt>
      <trkpt lat="46.91899" lon="8.68612">
        <ele>2036</ele>
        <time>2021-08-07T07:44:27.655Z</time>
      </trkpt>
      <trkpt lat="46.91899" lon="8.68612">
        <ele>2036</ele>
        <time>2021-08-07T07:44:28.655Z</time>
      </trkpt>
      <trkpt lat="46.91899" lon="8.68611">
        <ele>2036</ele>
        <time>2021-08-07T07:44:29.656Z</time>
      </trkpt>
      <trkpt lat="46.91898" lon="8.6861">
        <ele>2036</ele>
        <time>2021-08-07T07:44:30.655Z</time>
      </trkpt>
      <trkpt lat="46.91897" lon="8.68609">
        <ele>2036</ele>
        <time>2021-08-07T07:44:31.655Z</time>
      </trkpt>
      <trkpt lat="46.91897" lon="8.68609">
        <ele>2036</ele>
        <time>2021-08-07T07:44:32.655Z</time>
      </trkpt>
      <trkpt lat="46.91896" lon="8.68608">
        <ele>2036</ele>
        <time>2021-08-07T07:44:33.656Z</time>
      </trkpt>
      <trkpt lat="46.91897" lon="8.68609">
        <ele>2036</ele>
        <time>2021-08-07T07:44:34.655Z</time>
      </trkpt>
      <trkpt lat="46.91897" lon="8.6861">
        <ele>2036</ele>
        <time>2021-08-07T07:44:35.655Z</time>
      </trkpt>
      <trkpt lat="46.91897" lon="8.68611">
        <ele>2036</ele>
        <time>2021-08-07T07:44:36.655Z</time>
      </trkpt>
      <trkpt lat="46.91896" lon="8.68611">
        <ele>2036</ele>
        <time>2021-08-07T07:44:37.655Z</time>
      </trkpt>
      <trkpt lat="46.91896" lon="8.68611">
        <ele>2036</ele>
        <time>2021-08-07T07:44:38.656Z</time>
      </trkpt>
      <trkpt lat="46.91895" lon="8.68611">
        <ele>2036</ele>
        <time>2021-08-07T07:44:39.655Z</time>
      </trkpt>
      <trkpt lat="46.91895" lon="8.6861">
        <ele>2036</ele>
        <time>2021-08-07T07:44:40.655Z</time>
      </trkpt>
      <trkpt lat="46.91895" lon="8.6861">
        <ele>2036</ele>
        <time>2021-08-07T07:44:41.655Z</time>
      </trkpt>
      <trkpt lat="46.91895" lon="8.6861">
        <ele>2035</ele>
        <time>2021-08-07T07:44:42.655Z</time>
      </trkpt>
      <trkpt lat="46.91895" lon="8.6861">
        <ele>2036</ele>
        <time>2021-08-07T07:44:43.656Z</time>
      </trkpt>
      <trkpt lat="46.91895" lon="8.68609">
        <ele>2036</ele>
        <time>2021-08-07T07:44:44.656Z</time>
      </trkpt>
      <trkpt lat="46.91895" lon="8.68608">
        <ele>2036</ele>
        <time>2021-08-07T07:44:45.656Z</time>
      </trkpt>
      <trkpt lat="46.91894" lon="8.68607">
        <ele>2036</ele>
        <time>2021-08-07T07:44:46.657Z</time>
      </trkpt>
      <trkpt lat="46.91894" lon="8.68607">
        <ele>2036</ele>
        <time>2021-08-07T07:44:47.656Z</time>
      </trkpt>
      <trkpt lat="46.91894" lon="8.68606">
        <ele>2036</ele>
        <time>2021-08-07T07:44:48.657Z</time>
      </trkpt>
      <trkpt lat="46.91894" lon="8.68606">
        <ele>2036</ele>
        <time>2021-08-07T07:44:49.657Z</time>
      </trkpt>
      <trkpt lat="46.91893" lon="8.68606">
        <ele>2036</ele>
        <time>2021-08-07T07:44:50.656Z</time>
      </trkpt>
      <trkpt lat="46.91893" lon="8.68606">
        <ele>2036</ele>
        <time>2021-08-07T07:44:51.657Z</time>
      </trkpt>
      <trkpt lat="46.91894" lon="8.68606">
        <ele>2037</ele>
        <time>2021-08-07T07:44:52.656Z</time>
      </trkpt>
      <trkpt lat="46.91894" lon="8.68605">
        <ele>2038</ele>
        <time>2021-08-07T07:44:53.656Z</time>
      </trkpt>
      <trkpt lat="46.91893" lon="8.68604">
        <ele>2038</ele>
        <time>2021-08-07T07:44:54.656Z</time>
      </trkpt>
      <trkpt lat="46.91892" lon="8.68604">
        <ele>2039</ele>
        <time>2021-08-07T07:44:55.656Z</time>
      </trkpt>
      <trkpt lat="46.91892" lon="8.68604">
        <ele>2039</ele>
        <time>2021-08-07T07:44:56.656Z</time>
      </trkpt>
      <trkpt lat="46.91891" lon="8.68603">
        <ele>2040</ele>
        <time>2021-08-07T07:44:57.656Z</time>
      </trkpt>
      <trkpt lat="46.9189" lon="8.68603">
        <ele>2040</ele>
        <time>2021-08-07T07:44:58.656Z</time>
      </trkpt>
      <trkpt lat="46.9189" lon="8.68602">
        <ele>2041</ele>
        <time>2021-08-07T07:44:59.656Z</time>
      </trkpt>
      <trkpt lat="46.91889" lon="8.68601">
        <ele>2041</ele>
        <time>2021-08-07T07:45:00.656Z</time>
      </trkpt>
      <trkpt lat="46.91889" lon="8.68601">
        <ele>2041</ele>
        <time>2021-08-07T07:45:01.656Z</time>
      </trkpt>
      <trkpt lat="46.91889" lon="8.686">
        <ele>2040</ele>
        <time>2021-08-07T07:45:02.656Z</time>
      </trkpt>
      <trkpt lat="46.91888" lon="8.686">
        <ele>2040</ele>
        <time>2021-08-07T07:45:03.656Z</time>
      </trkpt>
      <trkpt lat="46.91888" lon="8.68599">
        <ele>2040</ele>
        <time>2021-08-07T07:45:04.656Z</time>
      </trkpt>
      <trkpt lat="46.91887" lon="8.68598">
        <ele>2040</ele>
        <time>2021-08-07T07:45:05.656Z</time>
      </trkpt>
      <trkpt lat="46.91887" lon="8.68598">
        <ele>2040</ele>
        <time>2021-08-07T07:45:06.656Z</time>
      </trkpt>
      <trkpt lat="46.91886" lon="8.68597">
        <ele>2040</ele>
        <time>2021-08-07T07:45:07.656Z</time>
      </trkpt>
      <trkpt lat="46.91886" lon="8.68597">
        <ele>2041</ele>
        <time>2021-08-07T07:45:08.656Z</time>
      </trkpt>
      <trkpt lat="46.91886" lon="8.68596">
        <ele>2041</ele>
        <time>2021-08-07T07:45:09.656Z</time>
      </trkpt>
      <trkpt lat="46.91885" lon="8.68596">
        <ele>2041</ele>
        <time>2021-08-07T07:45:10.656Z</time>
      </trkpt>
      <trkpt lat="46.91884" lon="8.68595">
        <ele>2041</ele>
        <time>2021-08-07T07:45:11.656Z</time>
      </trkpt>
      <trkpt lat="46.91884" lon="8.68594">
        <ele>2041</ele>
        <time>2021-08-07T07:45:12.656Z</time>
      </trkpt>
      <trkpt lat="46.91883" lon="8.68594">
        <ele>2041</ele>
        <time>2021-08-07T07:45:13.656Z</time>
      </trkpt>
      <trkpt lat="46.91883" lon="8.68593">
        <ele>2041</ele>
        <time>2021-08-07T07:45:14.656Z</time>
      </trkpt>
      <trkpt lat="46.91883" lon="8.68593">
        <ele>2041</ele>
        <time>2021-08-07T07:45:15.656Z</time>
      </trkpt>
      <trkpt lat="46.91882" lon="8.68592">
        <ele>2041</ele>
        <time>2021-08-07T07:45:16.656Z</time>
      </trkpt>
      <trkpt lat="46.91882" lon="8.68592">
        <ele>2041</ele>
        <time>2021-08-07T07:45:17.656Z</time>
      </trkpt>
      <trkpt lat="46.91882" lon="8.68592">
        <ele>2041</ele>
        <time>2021-08-07T07:45:18.656Z</time>
      </trkpt>
      <trkpt lat="46.91882" lon="8.68591">
        <ele>2042</ele>
        <time>2021-08-07T07:45:19.656Z</time>
      </trkpt>
      <trkpt lat="46.91882" lon="8.68591">
        <ele>2042</ele>
        <time>2021-08-07T07:45:20.656Z</time>
      </trkpt>
      <trkpt lat="46.91882" lon="8.6859">
        <ele>2042</ele>
        <time>2021-08-07T07:45:21.656Z</time>
      </trkpt>
      <trkpt lat="46.91881" lon="8.6859">
        <ele>2043</ele>
        <time>2021-08-07T07:45:22.656Z</time>
      </trkpt>
      <trkpt lat="46.91882" lon="8.6859">
        <ele>2044</ele>
        <time>2021-08-07T07:45:23.656Z</time>
      </trkpt>
      <trkpt lat="46.91881" lon="8.68588">
        <ele>2045</ele>
        <time>2021-08-07T07:45:24.657Z</time>
      </trkpt>
      <trkpt lat="46.9188" lon="8.68587">
        <ele>2045</ele>
        <time>2021-08-07T07:45:25.657Z</time>
      </trkpt>
      <trkpt lat="46.9188" lon="8.68587">
        <ele>2045</ele>
        <time>2021-08-07T07:45:26.657Z</time>
      </trkpt>
      <trkpt lat="46.9188" lon="8.68587">
        <ele>2044</ele>
        <time>2021-08-07T07:45:27.657Z</time>
      </trkpt>
      <trkpt lat="46.9188" lon="8.68586">
        <ele>2044</ele>
        <time>2021-08-07T07:45:28.656Z</time>
      </trkpt>
      <trkpt lat="46.91879" lon="8.68586">
        <ele>2045</ele>
        <time>2021-08-07T07:45:29.657Z</time>
      </trkpt>
      <trkpt lat="46.91879" lon="8.68586">
        <ele>2045</ele>
        <time>2021-08-07T07:45:30.657Z</time>
      </trkpt>
      <trkpt lat="46.91879" lon="8.68585">
        <ele>2046</ele>
        <time>2021-08-07T07:45:31.657Z</time>
      </trkpt>
      <trkpt lat="46.91878" lon="8.68585">
        <ele>2047</ele>
        <time>2021-08-07T07:45:32.657Z</time>
      </trkpt>
      <trkpt lat="46.91878" lon="8.68585">
        <ele>2047</ele>
        <time>2021-08-07T07:45:33.656Z</time>
      </trkpt>
      <trkpt lat="46.91878" lon="8.68585">
        <ele>2048</ele>
        <time>2021-08-07T07:45:34.656Z</time>
      </trkpt>
      <trkpt lat="46.91877" lon="8.68585">
        <ele>2048</ele>
        <time>2021-08-07T07:45:35.657Z</time>
      </trkpt>
      <trkpt lat="46.91877" lon="8.68584">
        <ele>2048</ele>
        <time>2021-08-07T07:45:36.656Z</time>
      </trkpt>
      <trkpt lat="46.91877" lon="8.68585">
        <ele>2049</ele>
        <time>2021-08-07T07:45:37.657Z</time>
      </trkpt>
      <trkpt lat="46.91877" lon="8.68585">
        <ele>2049</ele>
        <time>2021-08-07T07:45:38.657Z</time>
      </trkpt>
      <trkpt lat="46.91877" lon="8.68585">
        <ele>2049</ele>
        <time>2021-08-07T07:45:39.657Z</time>
      </trkpt>
      <trkpt lat="46.91876" lon="8.68584">
        <ele>2049</ele>
        <time>2021-08-07T07:45:40.657Z</time>
      </trkpt>
      <trkpt lat="46.91876" lon="8.68584">
        <ele>2049</ele>
        <time>2021-08-07T07:45:41.657Z</time>
      </trkpt>
      <trkpt lat="46.91875" lon="8.68584">
        <ele>2049</ele>
        <time>2021-08-07T07:45:42.656Z</time>
      </trkpt>
      <trkpt lat="46.91874" lon="8.68584">
        <ele>2049</ele>
        <time>2021-08-07T07:45:43.656Z</time>
      </trkpt>
      <trkpt lat="46.91874" lon="8.68584">
        <ele>2049</ele>
        <time>2021-08-07T07:45:44.657Z</time>
      </trkpt>
      <trkpt lat="46.91874" lon="8.68585">
        <ele>2049</ele>
        <time>2021-08-07T07:45:45.657Z</time>
      </trkpt>
      <trkpt lat="46.91873" lon="8.68585">
        <ele>2049</ele>
        <time>2021-08-07T07:45:46.657Z</time>
      </trkpt>
      <trkpt lat="46.91873" lon="8.68585">
        <ele>2049</ele>
        <time>2021-08-07T07:45:47.656Z</time>
      </trkpt>
      <trkpt lat="46.91872" lon="8.68586">
        <ele>2050</ele>
        <time>2021-08-07T07:45:48.656Z</time>
      </trkpt>
      <trkpt lat="46.91872" lon="8.68587">
        <ele>2049</ele>
        <time>2021-08-07T07:45:49.657Z</time>
      </trkpt>
      <trkpt lat="46.91871" lon="8.68587">
        <ele>2049</ele>
        <time>2021-08-07T07:45:50.657Z</time>
      </trkpt>
      <trkpt lat="46.91871" lon="8.68588">
        <ele>2050</ele>
        <time>2021-08-07T07:45:51.657Z</time>
      </trkpt>
      <trkpt lat="46.91871" lon="8.68589">
        <ele>2050</ele>
        <time>2021-08-07T07:45:52.656Z</time>
      </trkpt>
      <trkpt lat="46.9187" lon="8.68589">
        <ele>2050</ele>
        <time>2021-08-07T07:45:53.657Z</time>
      </trkpt>
      <trkpt lat="46.9187" lon="8.68589">
        <ele>2050</ele>
        <time>2021-08-07T07:45:54.656Z</time>
      </trkpt>
      <trkpt lat="46.91869" lon="8.68589">
        <ele>2049</ele>
        <time>2021-08-07T07:45:55.657Z</time>
      </trkpt>
      <trkpt lat="46.91869" lon="8.68588">
        <ele>2049</ele>
        <time>2021-08-07T07:45:56.656Z</time>
      </trkpt>
      <trkpt lat="46.91869" lon="8.68587">
        <ele>2049</ele>
        <time>2021-08-07T07:45:57.656Z</time>
      </trkpt>
      <trkpt lat="46.91869" lon="8.68587">
        <ele>2049</ele>
        <time>2021-08-07T07:45:58.656Z</time>
      </trkpt>
      <trkpt lat="46.91869" lon="8.68586">
        <ele>2049</ele>
        <time>2021-08-07T07:45:59.657Z</time>
      </trkpt>
      <trkpt lat="46.91869" lon="8.68586">
        <ele>2050</ele>
        <time>2021-08-07T07:46:00.657Z</time>
      </trkpt>
      <trkpt lat="46.91869" lon="8.68585">
        <ele>2050</ele>
        <time>2021-08-07T07:46:01.656Z</time>
      </trkpt>
      <trkpt lat="46.91868" lon="8.68585">
        <ele>2050</ele>
        <time>2021-08-07T07:46:02.656Z</time>
      </trkpt>
      <trkpt lat="46.91869" lon="8.68584">
        <ele>2051</ele>
        <time>2021-08-07T07:46:03.656Z</time>
      </trkpt>
      <trkpt lat="46.91868" lon="8.68583">
        <ele>2052</ele>
        <time>2021-08-07T07:46:04.656Z</time>
      </trkpt>
      <trkpt lat="46.91868" lon="8.68582">
        <ele>2052</ele>
        <time>2021-08-07T07:46:05.657Z</time>
      </trkpt>
      <trkpt lat="46.91867" lon="8.68582">
        <ele>2052</ele>
        <time>2021-08-07T07:46:06.657Z</time>
      </trkpt>
      <trkpt lat="46.91866" lon="8.68581">
        <ele>2053</ele>
        <time>2021-08-07T07:46:07.657Z</time>
      </trkpt>
      <trkpt lat="46.91866" lon="8.6858">
        <ele>2053</ele>
        <time>2021-08-07T07:46:08.657Z</time>
      </trkpt>
      <trkpt lat="46.91866" lon="8.6858">
        <ele>2053</ele>
        <time>2021-08-07T07:46:09.657Z</time>
      </trkpt>
      <trkpt lat="46.91866" lon="8.6858">
        <ele>2053</ele>
        <time>2021-08-07T07:46:10.656Z</time>
      </trkpt>
      <trkpt lat="46.91866" lon="8.68579">
        <ele>2053</ele>
        <time>2021-08-07T07:46:11.657Z</time>
      </trkpt>
      <trkpt lat="46.91864" lon="8.68577">
        <ele>2056</ele>
        <time>2021-08-07T07:46:12.657Z</time>
      </trkpt>
      <trkpt lat="46.91864" lon="8.68576">
        <ele>2056</ele>
        <time>2021-08-07T07:46:13.657Z</time>
      </trkpt>
      <trkpt lat="46.91864" lon="8.68576">
        <ele>2057</ele>
        <time>2021-08-07T07:46:14.656Z</time>
      </trkpt>
      <trkpt lat="46.91864" lon="8.68573">
        <ele>2058</ele>
        <time>2021-08-07T07:46:15.657Z</time>
      </trkpt>
      <trkpt lat="46.91863" lon="8.68572">
        <ele>2059</ele>
        <time>2021-08-07T07:46:16.657Z</time>
      </trkpt>
      <trkpt lat="46.91863" lon="8.68571">
        <ele>2059</ele>
        <time>2021-08-07T07:46:17.657Z</time>
      </trkpt>
      <trkpt lat="46.91862" lon="8.68571">
        <ele>2059</ele>
        <time>2021-08-07T07:46:18.657Z</time>
      </trkpt>
      <trkpt lat="46.91862" lon="8.6857">
        <ele>2059</ele>
        <time>2021-08-07T07:46:19.656Z</time>
      </trkpt>
      <trkpt lat="46.91862" lon="8.6857">
        <ele>2059</ele>
        <time>2021-08-07T07:46:20.657Z</time>
      </trkpt>
      <trkpt lat="46.91862" lon="8.6857">
        <ele>2059</ele>
        <time>2021-08-07T07:46:21.657Z</time>
      </trkpt>
      <trkpt lat="46.91861" lon="8.68571">
        <ele>2058</ele>
        <time>2021-08-07T07:46:22.659Z</time>
      </trkpt>
      <trkpt lat="46.91861" lon="8.68571">
        <ele>2057</ele>
        <time>2021-08-07T07:46:23.658Z</time>
      </trkpt>
      <trkpt lat="46.91861" lon="8.68571">
        <ele>2057</ele>
        <time>2021-08-07T07:46:24.658Z</time>
      </trkpt>
      <trkpt lat="46.91861" lon="8.6857">
        <ele>2057</ele>
        <time>2021-08-07T07:46:25.659Z</time>
      </trkpt>
      <trkpt lat="46.91861" lon="8.6857">
        <ele>2057</ele>
        <time>2021-08-07T07:46:26.659Z</time>
      </trkpt>
      <trkpt lat="46.91861" lon="8.68569">
        <ele>2057</ele>
        <time>2021-08-07T07:46:27.659Z</time>
      </trkpt>
      <trkpt lat="46.9186" lon="8.68568">
        <ele>2057</ele>
        <time>2021-08-07T07:46:28.659Z</time>
      </trkpt>
      <trkpt lat="46.9186" lon="8.68567">
        <ele>2056</ele>
        <time>2021-08-07T07:46:29.658Z</time>
      </trkpt>
      <trkpt lat="46.91859" lon="8.68567">
        <ele>2056</ele>
        <time>2021-08-07T07:46:30.659Z</time>
      </trkpt>
      <trkpt lat="46.91859" lon="8.68566">
        <ele>2056</ele>
        <time>2021-08-07T07:46:31.658Z</time>
      </trkpt>
      <trkpt lat="46.91858" lon="8.68566">
        <ele>2056</ele>
        <time>2021-08-07T07:46:32.658Z</time>
      </trkpt>
      <trkpt lat="46.91857" lon="8.68565">
        <ele>2055</ele>
        <time>2021-08-07T07:46:33.658Z</time>
      </trkpt>
      <trkpt lat="46.91857" lon="8.68565">
        <ele>2055</ele>
        <time>2021-08-07T07:46:34.659Z</time>
      </trkpt>
      <trkpt lat="46.91856" lon="8.68564">
        <ele>2055</ele>
        <time>2021-08-07T07:46:35.658Z</time>
      </trkpt>
      <trkpt lat="46.91856" lon="8.68563">
        <ele>2055</ele>
        <time>2021-08-07T07:46:36.658Z</time>
      </trkpt>
      <trkpt lat="46.91855" lon="8.68563">
        <ele>2055</ele>
        <time>2021-08-07T07:46:37.658Z</time>
      </trkpt>
      <trkpt lat="46.91855" lon="8.68563">
        <ele>2054</ele>
        <time>2021-08-07T07:46:38.659Z</time>
      </trkpt>
      <trkpt lat="46.91854" lon="8.68563">
        <ele>2054</ele>
        <time>2021-08-07T07:46:39.658Z</time>
      </trkpt>
      <trkpt lat="46.91854" lon="8.68563">
        <ele>2054</ele>
        <time>2021-08-07T07:46:40.659Z</time>
      </trkpt>
      <trkpt lat="46.91854" lon="8.68564">
        <ele>2054</ele>
        <time>2021-08-07T07:46:41.658Z</time>
      </trkpt>
      <trkpt lat="46.91854" lon="8.68564">
        <ele>2054</ele>
        <time>2021-08-07T07:46:42.658Z</time>
      </trkpt>
      <trkpt lat="46.9185" lon="8.68564">
        <ele>2058</ele>
        <time>2021-08-07T07:46:43.660Z</time>
      </trkpt>
      <trkpt lat="46.9185" lon="8.68565">
        <ele>2059</ele>
        <time>2021-08-07T07:46:44.659Z</time>
      </trkpt>
      <trkpt lat="46.9185" lon="8.68566">
        <ele>2059</ele>
        <time>2021-08-07T07:46:45.659Z</time>
      </trkpt>
      <trkpt lat="46.9185" lon="8.68566">
        <ele>2060</ele>
        <time>2021-08-07T07:46:46.659Z</time>
      </trkpt>
      <trkpt lat="46.91851" lon="8.68567">
        <ele>2060</ele>
        <time>2021-08-07T07:46:47.659Z</time>
      </trkpt>
      <trkpt lat="46.91853" lon="8.68568">
        <ele>2060</ele>
        <time>2021-08-07T07:46:48.659Z</time>
      </trkpt>
      <trkpt lat="46.91854" lon="8.68568">
        <ele>2060</ele>
        <time>2021-08-07T07:46:49.660Z</time>
      </trkpt>
      <trkpt lat="46.91854" lon="8.68568">
        <ele>2060</ele>
        <time>2021-08-07T07:46:50.660Z</time>
      </trkpt>
      <trkpt lat="46.91853" lon="8.68566">
        <ele>2062</ele>
        <time>2021-08-07T07:46:51.660Z</time>
      </trkpt>
      <trkpt lat="46.91853" lon="8.68566">
        <ele>2062</ele>
        <time>2021-08-07T07:46:52.659Z</time>
      </trkpt>
      <trkpt lat="46.91853" lon="8.68565">
        <ele>2063</ele>
        <time>2021-08-07T07:46:53.659Z</time>
      </trkpt>
      <trkpt lat="46.91852" lon="8.68565">
        <ele>2063</ele>
        <time>2021-08-07T07:46:54.660Z</time>
      </trkpt>
      <trkpt lat="46.91852" lon="8.68562">
        <ele>2063</ele>
        <time>2021-08-07T07:46:55.661Z</time>
      </trkpt>
      <trkpt lat="46.91851" lon="8.68561">
        <ele>2063</ele>
        <time>2021-08-07T07:46:56.660Z</time>
      </trkpt>
      <trkpt lat="46.91851" lon="8.68561">
        <ele>2063</ele>
        <time>2021-08-07T07:46:57.660Z</time>
      </trkpt>
      <trkpt lat="46.91851" lon="8.68561">
        <ele>2062</ele>
        <time>2021-08-07T07:46:58.661Z</time>
      </trkpt>
      <trkpt lat="46.91852" lon="8.6856">
        <ele>2062</ele>
        <time>2021-08-07T07:46:59.661Z</time>
      </trkpt>
      <trkpt lat="46.91852" lon="8.6856">
        <ele>2062</ele>
        <time>2021-08-07T07:47:00.661Z</time>
      </trkpt>
      <trkpt lat="46.91852" lon="8.68561">
        <ele>2062</ele>
        <time>2021-08-07T07:47:01.660Z</time>
      </trkpt>
      <trkpt lat="46.91851" lon="8.68563">
        <ele>2060</ele>
        <time>2021-08-07T07:47:02.661Z</time>
      </trkpt>
      <trkpt lat="46.91851" lon="8.68563">
        <ele>2060</ele>
        <time>2021-08-07T07:47:03.661Z</time>
      </trkpt>
      <trkpt lat="46.91852" lon="8.68564">
        <ele>2060</ele>
        <time>2021-08-07T07:47:04.660Z</time>
      </trkpt>
      <trkpt lat="46.91852" lon="8.68564">
        <ele>2060</ele>
        <time>2021-08-07T07:47:05.661Z</time>
      </trkpt>
      <trkpt lat="46.91851" lon="8.68564">
        <ele>2061</ele>
        <time>2021-08-07T07:47:06.660Z</time>
      </trkpt>
      <trkpt lat="46.91851" lon="8.68565">
        <ele>2061</ele>
        <time>2021-08-07T07:47:07.661Z</time>
      </trkpt>
      <trkpt lat="46.91851" lon="8.68566">
        <ele>2062</ele>
        <time>2021-08-07T07:47:08.661Z</time>
      </trkpt>
      <trkpt lat="46.91851" lon="8.68568">
        <ele>2062</ele>
        <time>2021-08-07T07:47:09.661Z</time>
      </trkpt>
      <trkpt lat="46.9185" lon="8.68568">
        <ele>2062</ele>
        <time>2021-08-07T07:47:10.661Z</time>
      </trkpt>
      <trkpt lat="46.9185" lon="8.68569">
        <ele>2062</ele>
        <time>2021-08-07T07:47:11.660Z</time>
      </trkpt>
      <trkpt lat="46.91849" lon="8.68569">
        <ele>2062</ele>
        <time>2021-08-07T07:47:12.661Z</time>
      </trkpt>
      <trkpt lat="46.91849" lon="8.6857">
        <ele>2062</ele>
        <time>2021-08-07T07:47:13.661Z</time>
      </trkpt>
      <trkpt lat="46.91848" lon="8.6857">
        <ele>2062</ele>
        <time>2021-08-07T07:47:14.661Z</time>
      </trkpt>
      <trkpt lat="46.91847" lon="8.6857">
        <ele>2062</ele>
        <time>2021-08-07T07:47:15.660Z</time>
      </trkpt>
      <trkpt lat="46.91846" lon="8.68571">
        <ele>2062</ele>
        <time>2021-08-07T07:47:16.661Z</time>
      </trkpt>
      <trkpt lat="46.91845" lon="8.68571">
        <ele>2062</ele>
        <time>2021-08-07T07:47:17.661Z</time>
      </trkpt>
      <trkpt lat="46.91844" lon="8.68571">
        <ele>2062</ele>
        <time>2021-08-07T07:47:18.661Z</time>
      </trkpt>
      <trkpt lat="46.91843" lon="8.68571">
        <ele>2061</ele>
        <time>2021-08-07T07:47:19.661Z</time>
      </trkpt>
      <trkpt lat="46.91842" lon="8.68571">
        <ele>2061</ele>
        <time>2021-08-07T07:47:20.661Z</time>
      </trkpt>
      <trkpt lat="46.91841" lon="8.68571">
        <ele>2061</ele>
        <time>2021-08-07T07:47:21.660Z</time>
      </trkpt>
      <trkpt lat="46.9184" lon="8.68571">
        <ele>2060</ele>
        <time>2021-08-07T07:47:22.660Z</time>
      </trkpt>
      <trkpt lat="46.91839" lon="8.68571">
        <ele>2061</ele>
        <time>2021-08-07T07:47:23.661Z</time>
      </trkpt>
      <trkpt lat="46.91839" lon="8.68572">
        <ele>2061</ele>
        <time>2021-08-07T07:47:24.661Z</time>
      </trkpt>
      <trkpt lat="46.91839" lon="8.68572">
        <ele>2061</ele>
        <time>2021-08-07T07:47:25.660Z</time>
      </trkpt>
      <trkpt lat="46.91838" lon="8.68572">
        <ele>2062</ele>
        <time>2021-08-07T07:47:26.661Z</time>
      </trkpt>
      <trkpt lat="46.91837" lon="8.68572">
        <ele>2062</ele>
        <time>2021-08-07T07:47:27.661Z</time>
      </trkpt>
      <trkpt lat="46.91836" lon="8.68573">
        <ele>2062</ele>
        <time>2021-08-07T07:47:28.661Z</time>
      </trkpt>
      <trkpt lat="46.91835" lon="8.68573">
        <ele>2062</ele>
        <time>2021-08-07T07:47:29.661Z</time>
      </trkpt>
      <trkpt lat="46.91834" lon="8.68574">
        <ele>2062</ele>
        <time>2021-08-07T07:47:30.661Z</time>
      </trkpt>
      <trkpt lat="46.91833" lon="8.68574">
        <ele>2062</ele>
        <time>2021-08-07T07:47:31.660Z</time>
      </trkpt>
      <trkpt lat="46.91832" lon="8.68574">
        <ele>2062</ele>
        <time>2021-08-07T07:47:32.660Z</time>
      </trkpt>
      <trkpt lat="46.91831" lon="8.68574">
        <ele>2061</ele>
        <time>2021-08-07T07:47:33.661Z</time>
      </trkpt>
      <trkpt lat="46.9183" lon="8.68574">
        <ele>2061</ele>
        <time>2021-08-07T07:47:34.661Z</time>
      </trkpt>
      <trkpt lat="46.91829" lon="8.68574">
        <ele>2061</ele>
        <time>2021-08-07T07:47:35.661Z</time>
      </trkpt>
      <trkpt lat="46.91829" lon="8.68574">
        <ele>2060</ele>
        <time>2021-08-07T07:47:36.661Z</time>
      </trkpt>
      <trkpt lat="46.91828" lon="8.68575">
        <ele>2060</ele>
        <time>2021-08-07T07:47:37.660Z</time>
      </trkpt>
      <trkpt lat="46.91827" lon="8.68575">
        <ele>2060</ele>
        <time>2021-08-07T07:47:38.661Z</time>
      </trkpt>
      <trkpt lat="46.91827" lon="8.68576">
        <ele>2060</ele>
        <time>2021-08-07T07:47:39.661Z</time>
      </trkpt>
      <trkpt lat="46.91826" lon="8.68577">
        <ele>2060</ele>
        <time>2021-08-07T07:47:40.661Z</time>
      </trkpt>
      <trkpt lat="46.91826" lon="8.68578">
        <ele>2060</ele>
        <time>2021-08-07T07:47:41.660Z</time>
      </trkpt>
      <trkpt lat="46.91825" lon="8.68578">
        <ele>2060</ele>
        <time>2021-08-07T07:47:42.660Z</time>
      </trkpt>
      <trkpt lat="46.91824" lon="8.68578">
        <ele>2059</ele>
        <time>2021-08-07T07:47:43.661Z</time>
      </trkpt>
      <trkpt lat="46.91823" lon="8.68579">
        <ele>2058</ele>
        <time>2021-08-07T07:47:44.661Z</time>
      </trkpt>
      <trkpt lat="46.91822" lon="8.68579">
        <ele>2058</ele>
        <time>2021-08-07T07:47:45.661Z</time>
      </trkpt>
      <trkpt lat="46.91822" lon="8.6858">
        <ele>2058</ele>
        <time>2021-08-07T07:47:46.661Z</time>
      </trkpt>
      <trkpt lat="46.91821" lon="8.6858">
        <ele>2057</ele>
        <time>2021-08-07T07:47:47.661Z</time>
      </trkpt>
      <trkpt lat="46.91819" lon="8.6858">
        <ele>2058</ele>
        <time>2021-08-07T07:47:48.661Z</time>
      </trkpt>
      <trkpt lat="46.91819" lon="8.68581">
        <ele>2059</ele>
        <time>2021-08-07T07:47:49.661Z</time>
      </trkpt>
      <trkpt lat="46.91818" lon="8.68581">
        <ele>2060</ele>
        <time>2021-08-07T07:47:50.661Z</time>
      </trkpt>
      <trkpt lat="46.91817" lon="8.68581">
        <ele>2061</ele>
        <time>2021-08-07T07:47:51.661Z</time>
      </trkpt>
      <trkpt lat="46.91816" lon="8.68581">
        <ele>2061</ele>
        <time>2021-08-07T07:47:52.661Z</time>
      </trkpt>
      <trkpt lat="46.91816" lon="8.68581">
        <ele>2062</ele>
        <time>2021-08-07T07:47:53.661Z</time>
      </trkpt>
      <trkpt lat="46.91815" lon="8.68581">
        <ele>2063</ele>
        <time>2021-08-07T07:47:54.661Z</time>
      </trkpt>
      <trkpt lat="46.91813" lon="8.68581">
        <ele>2064</ele>
        <time>2021-08-07T07:47:55.660Z</time>
      </trkpt>
      <trkpt lat="46.91812" lon="8.68581">
        <ele>2064</ele>
        <time>2021-08-07T07:47:56.661Z</time>
      </trkpt>
      <trkpt lat="46.91812" lon="8.6858">
        <ele>2065</ele>
        <time>2021-08-07T07:47:57.661Z</time>
      </trkpt>
      <trkpt lat="46.91811" lon="8.68579">
        <ele>2065</ele>
        <time>2021-08-07T07:47:58.661Z</time>
      </trkpt>
      <trkpt lat="46.9181" lon="8.68579">
        <ele>2065</ele>
        <time>2021-08-07T07:47:59.661Z</time>
      </trkpt>
      <trkpt lat="46.91809" lon="8.68579">
        <ele>2066</ele>
        <time>2021-08-07T07:48:00.661Z</time>
      </trkpt>
      <trkpt lat="46.91809" lon="8.68579">
        <ele>2066</ele>
        <time>2021-08-07T07:48:01.661Z</time>
      </trkpt>
      <trkpt lat="46.91809" lon="8.68579">
        <ele>2066</ele>
        <time>2021-08-07T07:48:02.661Z</time>
      </trkpt>
      <trkpt lat="46.91808" lon="8.6858">
        <ele>2066</ele>
        <time>2021-08-07T07:48:03.660Z</time>
      </trkpt>
      <trkpt lat="46.91807" lon="8.6858">
        <ele>2066</ele>
        <time>2021-08-07T07:48:04.660Z</time>
      </trkpt>
      <trkpt lat="46.91807" lon="8.6858">
        <ele>2066</ele>
        <time>2021-08-07T07:48:05.661Z</time>
      </trkpt>
      <trkpt lat="46.91806" lon="8.6858">
        <ele>2066</ele>
        <time>2021-08-07T07:48:06.660Z</time>
      </trkpt>
      <trkpt lat="46.91806" lon="8.6858">
        <ele>2066</ele>
        <time>2021-08-07T07:48:07.661Z</time>
      </trkpt>
      <trkpt lat="46.91805" lon="8.6858">
        <ele>2066</ele>
        <time>2021-08-07T07:48:08.660Z</time>
      </trkpt>
      <trkpt lat="46.91805" lon="8.6858">
        <ele>2066</ele>
        <time>2021-08-07T07:48:09.660Z</time>
      </trkpt>
      <trkpt lat="46.91804" lon="8.6858">
        <ele>2066</ele>
        <time>2021-08-07T07:48:10.660Z</time>
      </trkpt>
      <trkpt lat="46.91804" lon="8.68581">
        <ele>2066</ele>
        <time>2021-08-07T07:48:11.660Z</time>
      </trkpt>
      <trkpt lat="46.91804" lon="8.68581">
        <ele>2066</ele>
        <time>2021-08-07T07:48:12.660Z</time>
      </trkpt>
      <trkpt lat="46.91804" lon="8.68582">
        <ele>2066</ele>
        <time>2021-08-07T07:48:13.661Z</time>
      </trkpt>
      <trkpt lat="46.91804" lon="8.68581">
        <ele>2066</ele>
        <time>2021-08-07T07:48:14.661Z</time>
      </trkpt>
      <trkpt lat="46.91803" lon="8.68579">
        <ele>2065</ele>
        <time>2021-08-07T07:48:15.661Z</time>
      </trkpt>
      <trkpt lat="46.91803" lon="8.68579">
        <ele>2064</ele>
        <time>2021-08-07T07:48:16.660Z</time>
      </trkpt>
      <trkpt lat="46.91802" lon="8.68578">
        <ele>2064</ele>
        <time>2021-08-07T07:48:17.661Z</time>
      </trkpt>
      <trkpt lat="46.91802" lon="8.68578">
        <ele>2064</ele>
        <time>2021-08-07T07:48:18.661Z</time>
      </trkpt>
      <trkpt lat="46.91801" lon="8.68577">
        <ele>2064</ele>
        <time>2021-08-07T07:48:19.661Z</time>
      </trkpt>
      <trkpt lat="46.918" lon="8.68576">
        <ele>2065</ele>
        <time>2021-08-07T07:48:20.661Z</time>
      </trkpt>
      <trkpt lat="46.91799" lon="8.68576">
        <ele>2065</ele>
        <time>2021-08-07T07:48:21.661Z</time>
      </trkpt>
      <trkpt lat="46.91798" lon="8.68576">
        <ele>2065</ele>
        <time>2021-08-07T07:48:22.661Z</time>
      </trkpt>
      <trkpt lat="46.91796" lon="8.68576">
        <ele>2065</ele>
        <time>2021-08-07T07:48:23.661Z</time>
      </trkpt>
      <trkpt lat="46.91796" lon="8.68576">
        <ele>2065</ele>
        <time>2021-08-07T07:48:24.661Z</time>
      </trkpt>
      <trkpt lat="46.91795" lon="8.68575">
        <ele>2066</ele>
        <time>2021-08-07T07:48:25.661Z</time>
      </trkpt>
      <trkpt lat="46.91794" lon="8.68575">
        <ele>2066</ele>
        <time>2021-08-07T07:48:26.661Z</time>
      </trkpt>
      <trkpt lat="46.91793" lon="8.68575">
        <ele>2067</ele>
        <time>2021-08-07T07:48:27.661Z</time>
      </trkpt>
      <trkpt lat="46.91793" lon="8.68573">
        <ele>2067</ele>
        <time>2021-08-07T07:48:28.660Z</time>
      </trkpt>
      <trkpt lat="46.91791" lon="8.68572">
        <ele>2067</ele>
        <time>2021-08-07T07:48:29.660Z</time>
      </trkpt>
      <trkpt lat="46.9179" lon="8.68572">
        <ele>2067</ele>
        <time>2021-08-07T07:48:30.660Z</time>
      </trkpt>
      <trkpt lat="46.91789" lon="8.68571">
        <ele>2068</ele>
        <time>2021-08-07T07:48:31.661Z</time>
      </trkpt>
      <trkpt lat="46.91788" lon="8.6857">
        <ele>2068</ele>
        <time>2021-08-07T07:48:32.661Z</time>
      </trkpt>
      <trkpt lat="46.91787" lon="8.68569">
        <ele>2068</ele>
        <time>2021-08-07T07:48:33.660Z</time>
      </trkpt>
      <trkpt lat="46.91786" lon="8.68568">
        <ele>2068</ele>
        <time>2021-08-07T07:48:34.661Z</time>
      </trkpt>
      <trkpt lat="46.91784" lon="8.68568">
        <ele>2068</ele>
        <time>2021-08-07T07:48:35.661Z</time>
      </trkpt>
      <trkpt lat="46.91784" lon="8.68567">
        <ele>2068</ele>
        <time>2021-08-07T07:48:36.661Z</time>
      </trkpt>
      <trkpt lat="46.91783" lon="8.68567">
        <ele>2068</ele>
        <time>2021-08-07T07:48:37.661Z</time>
      </trkpt>
      <trkpt lat="46.91782" lon="8.68567">
        <ele>2068</ele>
        <time>2021-08-07T07:48:38.661Z</time>
      </trkpt>
      <trkpt lat="46.91781" lon="8.68566">
        <ele>2068</ele>
        <time>2021-08-07T07:48:39.660Z</time>
      </trkpt>
      <trkpt lat="46.9178" lon="8.68565">
        <ele>2068</ele>
        <time>2021-08-07T07:48:40.661Z</time>
      </trkpt>
      <trkpt lat="46.9178" lon="8.68564">
        <ele>2068</ele>
        <time>2021-08-07T07:48:41.661Z</time>
      </trkpt>
      <trkpt lat="46.91779" lon="8.68564">
        <ele>2068</ele>
        <time>2021-08-07T07:48:42.661Z</time>
      </trkpt>
      <trkpt lat="46.91778" lon="8.68563">
        <ele>2069</ele>
        <time>2021-08-07T07:48:43.660Z</time>
      </trkpt>
      <trkpt lat="46.91777" lon="8.68562">
        <ele>2069</ele>
        <time>2021-08-07T07:48:44.661Z</time>
      </trkpt>
      <trkpt lat="46.91776" lon="8.68561">
        <ele>2070</ele>
        <time>2021-08-07T07:48:45.661Z</time>
      </trkpt>
      <trkpt lat="46.91775" lon="8.68561">
        <ele>2070</ele>
        <time>2021-08-07T07:48:46.661Z</time>
      </trkpt>
      <trkpt lat="46.91774" lon="8.68562">
        <ele>2071</ele>
        <time>2021-08-07T07:48:47.660Z</time>
      </trkpt>
      <trkpt lat="46.91774" lon="8.68563">
        <ele>2072</ele>
        <time>2021-08-07T07:48:48.660Z</time>
      </trkpt>
      <trkpt lat="46.91773" lon="8.68563">
        <ele>2072</ele>
        <time>2021-08-07T07:48:49.660Z</time>
      </trkpt>
      <trkpt lat="46.91773" lon="8.68563">
        <ele>2073</ele>
        <time>2021-08-07T07:48:50.661Z</time>
      </trkpt>
      <trkpt lat="46.91771" lon="8.68562">
        <ele>2073</ele>
        <time>2021-08-07T07:48:51.661Z</time>
      </trkpt>
      <trkpt lat="46.9177" lon="8.68562">
        <ele>2073</ele>
        <time>2021-08-07T07:48:52.661Z</time>
      </trkpt>
      <trkpt lat="46.91769" lon="8.68562">
        <ele>2073</ele>
        <time>2021-08-07T07:48:53.661Z</time>
      </trkpt>
      <trkpt lat="46.91769" lon="8.68562">
        <ele>2072</ele>
        <time>2021-08-07T07:48:54.661Z</time>
      </trkpt>
      <trkpt lat="46.91768" lon="8.68561">
        <ele>2072</ele>
        <time>2021-08-07T07:48:55.661Z</time>
      </trkpt>
      <trkpt lat="46.91767" lon="8.68561">
        <ele>2072</ele>
        <time>2021-08-07T07:48:56.660Z</time>
      </trkpt>
      <trkpt lat="46.91767" lon="8.6856">
        <ele>2072</ele>
        <time>2021-08-07T07:48:57.660Z</time>
      </trkpt>
      <trkpt lat="46.91766" lon="8.68559">
        <ele>2073</ele>
        <time>2021-08-07T07:48:58.661Z</time>
      </trkpt>
      <trkpt lat="46.91765" lon="8.68558">
        <ele>2073</ele>
        <time>2021-08-07T07:48:59.660Z</time>
      </trkpt>
      <trkpt lat="46.91764" lon="8.68557">
        <ele>2073</ele>
        <time>2021-08-07T07:49:00.661Z</time>
      </trkpt>
      <trkpt lat="46.91763" lon="8.68556">
        <ele>2073</ele>
        <time>2021-08-07T07:49:01.660Z</time>
      </trkpt>
      <trkpt lat="46.91762" lon="8.68555">
        <ele>2074</ele>
        <time>2021-08-07T07:49:02.661Z</time>
      </trkpt>
      <trkpt lat="46.91762" lon="8.68554">
        <ele>2074</ele>
        <time>2021-08-07T07:49:03.661Z</time>
      </trkpt>
      <trkpt lat="46.9176" lon="8.68554">
        <ele>2074</ele>
        <time>2021-08-07T07:49:04.661Z</time>
      </trkpt>
      <trkpt lat="46.9176" lon="8.68553">
        <ele>2074</ele>
        <time>2021-08-07T07:49:05.661Z</time>
      </trkpt>
      <trkpt lat="46.91759" lon="8.68553">
        <ele>2074</ele>
        <time>2021-08-07T07:49:06.661Z</time>
      </trkpt>
      <trkpt lat="46.91757" lon="8.68552">
        <ele>2074</ele>
        <time>2021-08-07T07:49:07.661Z</time>
      </trkpt>
      <trkpt lat="46.91756" lon="8.68551">
        <ele>2074</ele>
        <time>2021-08-07T07:49:08.661Z</time>
      </trkpt>
      <trkpt lat="46.91755" lon="8.6855">
        <ele>2075</ele>
        <time>2021-08-07T07:49:09.661Z</time>
      </trkpt>
      <trkpt lat="46.91754" lon="8.6855">
        <ele>2075</ele>
        <time>2021-08-07T07:49:10.660Z</time>
      </trkpt>
      <trkpt lat="46.91753" lon="8.68549">
        <ele>2075</ele>
        <time>2021-08-07T07:49:11.660Z</time>
      </trkpt>
      <trkpt lat="46.91752" lon="8.68549">
        <ele>2076</ele>
        <time>2021-08-07T07:49:12.661Z</time>
      </trkpt>
      <trkpt lat="46.91751" lon="8.68548">
        <ele>2076</ele>
        <time>2021-08-07T07:49:13.660Z</time>
      </trkpt>
      <trkpt lat="46.9175" lon="8.68548">
        <ele>2076</ele>
        <time>2021-08-07T07:49:14.661Z</time>
      </trkpt>
      <trkpt lat="46.91749" lon="8.68548">
        <ele>2076</ele>
        <time>2021-08-07T07:49:15.661Z</time>
      </trkpt>
      <trkpt lat="46.91748" lon="8.68547">
        <ele>2076</ele>
        <time>2021-08-07T07:49:16.660Z</time>
      </trkpt>
      <trkpt lat="46.91747" lon="8.68547">
        <ele>2076</ele>
        <time>2021-08-07T07:49:17.660Z</time>
      </trkpt>
      <trkpt lat="46.91746" lon="8.68546">
        <ele>2077</ele>
        <time>2021-08-07T07:49:18.661Z</time>
      </trkpt>
      <trkpt lat="46.91745" lon="8.68545">
        <ele>2077</ele>
        <time>2021-08-07T07:49:19.661Z</time>
      </trkpt>
      <trkpt lat="46.91745" lon="8.68544">
        <ele>2078</ele>
        <time>2021-08-07T07:49:20.661Z</time>
      </trkpt>
      <trkpt lat="46.91744" lon="8.68544">
        <ele>2077</ele>
        <time>2021-08-07T07:49:21.661Z</time>
      </trkpt>
      <trkpt lat="46.91744" lon="8.68544">
        <ele>2077</ele>
        <time>2021-08-07T07:49:22.661Z</time>
      </trkpt>
      <trkpt lat="46.91743" lon="8.68543">
        <ele>2077</ele>
        <time>2021-08-07T07:49:23.661Z</time>
      </trkpt>
      <trkpt lat="46.91742" lon="8.68543">
        <ele>2078</ele>
        <time>2021-08-07T07:49:24.661Z</time>
      </trkpt>
      <trkpt lat="46.91742" lon="8.68543">
        <ele>2078</ele>
        <time>2021-08-07T07:49:25.661Z</time>
      </trkpt>
      <trkpt lat="46.91742" lon="8.68543">
        <ele>2078</ele>
        <time>2021-08-07T07:49:26.661Z</time>
      </trkpt>
      <trkpt lat="46.91742" lon="8.68543">
        <ele>2079</ele>
        <time>2021-08-07T07:49:27.661Z</time>
      </trkpt>
      <trkpt lat="46.91742" lon="8.68544">
        <ele>2079</ele>
        <time>2021-08-07T07:49:28.660Z</time>
      </trkpt>
      <trkpt lat="46.91746" lon="8.68552">
        <ele>2091</ele>
        <time>2021-08-07T07:49:29.661Z</time>
      </trkpt>
      <trkpt lat="46.91746" lon="8.68552">
        <ele>2091</ele>
        <time>2021-08-07T07:49:30.662Z</time>
      </trkpt>
      <trkpt lat="46.91746" lon="8.68552">
        <ele>2090</ele>
        <time>2021-08-07T07:49:31.661Z</time>
      </trkpt>
      <trkpt lat="46.91747" lon="8.68549">
        <ele>2086</ele>
        <time>2021-08-07T07:49:32.663Z</time>
      </trkpt>
      <trkpt lat="46.91746" lon="8.6855">
        <ele>2088</ele>
        <time>2021-08-07T07:49:33.663Z</time>
      </trkpt>
      <trkpt lat="46.91745" lon="8.6855">
        <ele>2088</ele>
        <time>2021-08-07T07:49:34.662Z</time>
      </trkpt>
      <trkpt lat="46.91745" lon="8.68551">
        <ele>2087</ele>
        <time>2021-08-07T07:49:35.662Z</time>
      </trkpt>
      <trkpt lat="46.91744" lon="8.68552">
        <ele>2087</ele>
        <time>2021-08-07T07:49:36.662Z</time>
      </trkpt>
      <trkpt lat="46.91743" lon="8.68554">
        <ele>2088</ele>
        <time>2021-08-07T07:49:37.662Z</time>
      </trkpt>
      <trkpt lat="46.91742" lon="8.68555">
        <ele>2088</ele>
        <time>2021-08-07T07:49:38.662Z</time>
      </trkpt>
      <trkpt lat="46.91742" lon="8.68557">
        <ele>2088</ele>
        <time>2021-08-07T07:49:39.662Z</time>
      </trkpt>
      <trkpt lat="46.91741" lon="8.68558">
        <ele>2088</ele>
        <time>2021-08-07T07:49:40.662Z</time>
      </trkpt>
      <trkpt lat="46.9174" lon="8.68559">
        <ele>2088</ele>
        <time>2021-08-07T07:49:41.662Z</time>
      </trkpt>
      <trkpt lat="46.91739" lon="8.6856">
        <ele>2087</ele>
        <time>2021-08-07T07:49:42.662Z</time>
      </trkpt>
      <trkpt lat="46.91738" lon="8.68561">
        <ele>2087</ele>
        <time>2021-08-07T07:49:43.662Z</time>
      </trkpt>
      <trkpt lat="46.91738" lon="8.68561">
        <ele>2086</ele>
        <time>2021-08-07T07:49:44.663Z</time>
      </trkpt>
      <trkpt lat="46.91737" lon="8.68562">
        <ele>2086</ele>
        <time>2021-08-07T07:49:45.662Z</time>
      </trkpt>
      <trkpt lat="46.91736" lon="8.68563">
        <ele>2086</ele>
        <time>2021-08-07T07:49:46.663Z</time>
      </trkpt>
      <trkpt lat="46.91735" lon="8.68563">
        <ele>2086</ele>
        <time>2021-08-07T07:49:47.663Z</time>
      </trkpt>
      <trkpt lat="46.91734" lon="8.68565">
        <ele>2085</ele>
        <time>2021-08-07T07:49:48.663Z</time>
      </trkpt>
      <trkpt lat="46.91734" lon="8.68566">
        <ele>2085</ele>
        <time>2021-08-07T07:49:49.663Z</time>
      </trkpt>
      <trkpt lat="46.91734" lon="8.68567">
        <ele>2085</ele>
        <time>2021-08-07T07:49:50.663Z</time>
      </trkpt>
      <trkpt lat="46.91733" lon="8.68568">
        <ele>2085</ele>
        <time>2021-08-07T07:49:51.663Z</time>
      </trkpt>
      <trkpt lat="46.91732" lon="8.68569">
        <ele>2085</ele>
        <time>2021-08-07T07:49:52.662Z</time>
      </trkpt>
      <trkpt lat="46.91731" lon="8.6857">
        <ele>2085</ele>
        <time>2021-08-07T07:49:53.663Z</time>
      </trkpt>
      <trkpt lat="46.91731" lon="8.68572">
        <ele>2085</ele>
        <time>2021-08-07T07:49:54.662Z</time>
      </trkpt>
      <trkpt lat="46.9173" lon="8.68574">
        <ele>2085</ele>
        <time>2021-08-07T07:49:55.663Z</time>
      </trkpt>
      <trkpt lat="46.9173" lon="8.68575">
        <ele>2085</ele>
        <time>2021-08-07T07:49:56.662Z</time>
      </trkpt>
      <trkpt lat="46.91729" lon="8.68576">
        <ele>2084</ele>
        <time>2021-08-07T07:49:57.663Z</time>
      </trkpt>
      <trkpt lat="46.91729" lon="8.68577">
        <ele>2084</ele>
        <time>2021-08-07T07:49:58.662Z</time>
      </trkpt>
      <trkpt lat="46.91728" lon="8.68578">
        <ele>2085</ele>
        <time>2021-08-07T07:49:59.663Z</time>
      </trkpt>
      <trkpt lat="46.91728" lon="8.68579">
        <ele>2084</ele>
        <time>2021-08-07T07:50:00.662Z</time>
      </trkpt>
      <trkpt lat="46.91727" lon="8.6858">
        <ele>2084</ele>
        <time>2021-08-07T07:50:01.662Z</time>
      </trkpt>
      <trkpt lat="46.91726" lon="8.68581">
        <ele>2084</ele>
        <time>2021-08-07T07:50:02.663Z</time>
      </trkpt>
      <trkpt lat="46.91725" lon="8.68582">
        <ele>2084</ele>
        <time>2021-08-07T07:50:03.663Z</time>
      </trkpt>
      <trkpt lat="46.91724" lon="8.68583">
        <ele>2085</ele>
        <time>2021-08-07T07:50:04.663Z</time>
      </trkpt>
      <trkpt lat="46.91723" lon="8.68585">
        <ele>2085</ele>
        <time>2021-08-07T07:50:05.662Z</time>
      </trkpt>
      <trkpt lat="46.91722" lon="8.68587">
        <ele>2086</ele>
        <time>2021-08-07T07:50:06.662Z</time>
      </trkpt>
      <trkpt lat="46.91721" lon="8.68588">
        <ele>2086</ele>
        <time>2021-08-07T07:50:07.662Z</time>
      </trkpt>
      <trkpt lat="46.91721" lon="8.68589">
        <ele>2086</ele>
        <time>2021-08-07T07:50:08.663Z</time>
      </trkpt>
      <trkpt lat="46.9172" lon="8.68591">
        <ele>2087</ele>
        <time>2021-08-07T07:50:09.663Z</time>
      </trkpt>
      <trkpt lat="46.9172" lon="8.68591">
        <ele>2087</ele>
        <time>2021-08-07T07:50:10.663Z</time>
      </trkpt>
      <trkpt lat="46.91719" lon="8.68593">
        <ele>2087</ele>
        <time>2021-08-07T07:50:11.663Z</time>
      </trkpt>
      <trkpt lat="46.91718" lon="8.68594">
        <ele>2087</ele>
        <time>2021-08-07T07:50:12.663Z</time>
      </trkpt>
      <trkpt lat="46.91718" lon="8.68595">
        <ele>2087</ele>
        <time>2021-08-07T07:50:13.663Z</time>
      </trkpt>
      <trkpt lat="46.91717" lon="8.68597">
        <ele>2087</ele>
        <time>2021-08-07T07:50:14.663Z</time>
      </trkpt>
      <trkpt lat="46.91717" lon="8.68598">
        <ele>2087</ele>
        <time>2021-08-07T07:50:15.662Z</time>
      </trkpt>
      <trkpt lat="46.91716" lon="8.686">
        <ele>2086</ele>
        <time>2021-08-07T07:50:16.663Z</time>
      </trkpt>
      <trkpt lat="46.91716" lon="8.68602">
        <ele>2086</ele>
        <time>2021-08-07T07:50:17.663Z</time>
      </trkpt>
      <trkpt lat="46.91716" lon="8.68604">
        <ele>2086</ele>
        <time>2021-08-07T07:50:18.662Z</time>
      </trkpt>
      <trkpt lat="46.91716" lon="8.68605">
        <ele>2086</ele>
        <time>2021-08-07T07:50:19.662Z</time>
      </trkpt>
      <trkpt lat="46.91716" lon="8.68606">
        <ele>2086</ele>
        <time>2021-08-07T07:50:20.663Z</time>
      </trkpt>
      <trkpt lat="46.91716" lon="8.68608">
        <ele>2086</ele>
        <time>2021-08-07T07:50:21.662Z</time>
      </trkpt>
      <trkpt lat="46.91716" lon="8.68609">
        <ele>2086</ele>
        <time>2021-08-07T07:50:22.662Z</time>
      </trkpt>
      <trkpt lat="46.91716" lon="8.68611">
        <ele>2086</ele>
        <time>2021-08-07T07:50:23.662Z</time>
      </trkpt>
      <trkpt lat="46.91716" lon="8.68612">
        <ele>2087</ele>
        <time>2021-08-07T07:50:24.663Z</time>
      </trkpt>
      <trkpt lat="46.91716" lon="8.68614">
        <ele>2087</ele>
        <time>2021-08-07T07:50:25.662Z</time>
      </trkpt>
      <trkpt lat="46.91716" lon="8.68615">
        <ele>2087</ele>
        <time>2021-08-07T07:50:26.663Z</time>
      </trkpt>
      <trkpt lat="46.91715" lon="8.68616">
        <ele>2087</ele>
        <time>2021-08-07T07:50:27.662Z</time>
      </trkpt>
      <trkpt lat="46.91716" lon="8.68618">
        <ele>2086</ele>
        <time>2021-08-07T07:50:28.663Z</time>
      </trkpt>
      <trkpt lat="46.91716" lon="8.68619">
        <ele>2086</ele>
        <time>2021-08-07T07:50:29.663Z</time>
      </trkpt>
      <trkpt lat="46.91716" lon="8.68621">
        <ele>2086</ele>
        <time>2021-08-07T07:50:30.662Z</time>
      </trkpt>
      <trkpt lat="46.91715" lon="8.68622">
        <ele>2086</ele>
        <time>2021-08-07T07:50:31.663Z</time>
      </trkpt>
      <trkpt lat="46.91715" lon="8.68623">
        <ele>2086</ele>
        <time>2021-08-07T07:50:32.662Z</time>
      </trkpt>
      <trkpt lat="46.91715" lon="8.68624">
        <ele>2086</ele>
        <time>2021-08-07T07:50:33.663Z</time>
      </trkpt>
      <trkpt lat="46.91715" lon="8.68626">
        <ele>2087</ele>
        <time>2021-08-07T07:50:34.663Z</time>
      </trkpt>
      <trkpt lat="46.91714" lon="8.68627">
        <ele>2087</ele>
        <time>2021-08-07T07:50:35.663Z</time>
      </trkpt>
      <trkpt lat="46.91714" lon="8.68628">
        <ele>2087</ele>
        <time>2021-08-07T07:50:36.662Z</time>
      </trkpt>
      <trkpt lat="46.91714" lon="8.6863">
        <ele>2086</ele>
        <time>2021-08-07T07:50:37.663Z</time>
      </trkpt>
      <trkpt lat="46.91713" lon="8.68631">
        <ele>2086</ele>
        <time>2021-08-07T07:50:38.663Z</time>
      </trkpt>
      <trkpt lat="46.91712" lon="8.68631">
        <ele>2085</ele>
        <time>2021-08-07T07:50:39.663Z</time>
      </trkpt>
      <trkpt lat="46.91711" lon="8.68632">
        <ele>2085</ele>
        <time>2021-08-07T07:50:40.662Z</time>
      </trkpt>
      <trkpt lat="46.9171" lon="8.68633">
        <ele>2085</ele>
        <time>2021-08-07T07:50:41.663Z</time>
      </trkpt>
      <trkpt lat="46.9171" lon="8.68634">
        <ele>2085</ele>
        <time>2021-08-07T07:50:42.662Z</time>
      </trkpt>
      <trkpt lat="46.91709" lon="8.68634">
        <ele>2084</ele>
        <time>2021-08-07T07:50:43.663Z</time>
      </trkpt>
      <trkpt lat="46.91708" lon="8.68634">
        <ele>2084</ele>
        <time>2021-08-07T07:50:44.663Z</time>
      </trkpt>
      <trkpt lat="46.91707" lon="8.68634">
        <ele>2084</ele>
        <time>2021-08-07T07:50:45.663Z</time>
      </trkpt>
      <trkpt lat="46.91706" lon="8.68634">
        <ele>2084</ele>
        <time>2021-08-07T07:50:46.663Z</time>
      </trkpt>
      <trkpt lat="46.91706" lon="8.68633">
        <ele>2084</ele>
        <time>2021-08-07T07:50:47.663Z</time>
      </trkpt>
      <trkpt lat="46.91705" lon="8.68632">
        <ele>2084</ele>
        <time>2021-08-07T07:50:48.663Z</time>
      </trkpt>
      <trkpt lat="46.91705" lon="8.68631">
        <ele>2083</ele>
        <time>2021-08-07T07:50:49.663Z</time>
      </trkpt>
      <trkpt lat="46.91704" lon="8.6863">
        <ele>2084</ele>
        <time>2021-08-07T07:50:50.662Z</time>
      </trkpt>
      <trkpt lat="46.91703" lon="8.68629">
        <ele>2084</ele>
        <time>2021-08-07T07:50:51.663Z</time>
      </trkpt>
      <trkpt lat="46.91702" lon="8.68629">
        <ele>2084</ele>
        <time>2021-08-07T07:50:52.662Z</time>
      </trkpt>
      <trkpt lat="46.91702" lon="8.68629">
        <ele>2084</ele>
        <time>2021-08-07T07:50:53.662Z</time>
      </trkpt>
      <trkpt lat="46.91703" lon="8.68629">
        <ele>2084</ele>
        <time>2021-08-07T07:50:54.663Z</time>
      </trkpt>
      <trkpt lat="46.91703" lon="8.68624">
        <ele>2084</ele>
        <time>2021-08-07T07:50:55.663Z</time>
      </trkpt>
      <trkpt lat="46.91703" lon="8.68625">
        <ele>2084</ele>
        <time>2021-08-07T07:50:56.662Z</time>
      </trkpt>
      <trkpt lat="46.91703" lon="8.68625">
        <ele>2084</ele>
        <time>2021-08-07T07:50:57.663Z</time>
      </trkpt>
      <trkpt lat="46.91703" lon="8.68624">
        <ele>2085</ele>
        <time>2021-08-07T07:50:58.663Z</time>
      </trkpt>
      <trkpt lat="46.91703" lon="8.68625">
        <ele>2085</ele>
        <time>2021-08-07T07:50:59.662Z</time>
      </trkpt>
      <trkpt lat="46.91703" lon="8.68625">
        <ele>2085</ele>
        <time>2021-08-07T07:51:00.663Z</time>
      </trkpt>
      <trkpt lat="46.91702" lon="8.68622">
        <ele>2087</ele>
        <time>2021-08-07T07:51:01.664Z</time>
      </trkpt>
      <trkpt lat="46.91703" lon="8.68622">
        <ele>2087</ele>
        <time>2021-08-07T07:51:02.665Z</time>
      </trkpt>
      <trkpt lat="46.91703" lon="8.68622">
        <ele>2087</ele>
        <time>2021-08-07T07:51:03.665Z</time>
      </trkpt>
      <trkpt lat="46.91703" lon="8.68622">
        <ele>2087</ele>
        <time>2021-08-07T07:51:04.664Z</time>
      </trkpt>
      <trkpt lat="46.91705" lon="8.68625">
        <ele>2086</ele>
        <time>2021-08-07T07:51:05.665Z</time>
      </trkpt>
      <trkpt lat="46.91705" lon="8.68625">
        <ele>2086</ele>
        <time>2021-08-07T07:51:06.664Z</time>
      </trkpt>
      <trkpt lat="46.91705" lon="8.68626">
        <ele>2087</ele>
        <time>2021-08-07T07:51:07.665Z</time>
      </trkpt>
      <trkpt lat="46.91705" lon="8.68626">
        <ele>2087</ele>
        <time>2021-08-07T07:51:08.665Z</time>
      </trkpt>
      <trkpt lat="46.91707" lon="8.68629">
        <ele>2085</ele>
        <time>2021-08-07T07:51:09.665Z</time>
      </trkpt>
      <trkpt lat="46.91707" lon="8.68629">
        <ele>2085</ele>
        <time>2021-08-07T07:51:10.665Z</time>
      </trkpt>
      <trkpt lat="46.91704" lon="8.68629">
        <ele>2086</ele>
        <time>2021-08-07T07:51:11.664Z</time>
      </trkpt>
      <trkpt lat="46.91704" lon="8.68629">
        <ele>2086</ele>
        <time>2021-08-07T07:51:12.664Z</time>
      </trkpt>
      <trkpt lat="46.91705" lon="8.68627">
        <ele>2083</ele>
        <time>2021-08-07T07:51:13.665Z</time>
      </trkpt>
      <trkpt lat="46.91704" lon="8.68626">
        <ele>2082</ele>
        <time>2021-08-07T07:51:14.665Z</time>
      </trkpt>
      <trkpt lat="46.91703" lon="8.68625">
        <ele>2082</ele>
        <time>2021-08-07T07:51:15.664Z</time>
      </trkpt>
      <trkpt lat="46.91702" lon="8.68624">
        <ele>2081</ele>
        <time>2021-08-07T07:51:16.665Z</time>
      </trkpt>
      <trkpt lat="46.91702" lon="8.68624">
        <ele>2080</ele>
        <time>2021-08-07T07:51:17.665Z</time>
      </trkpt>
      <trkpt lat="46.91702" lon="8.68624">
        <ele>2080</ele>
        <time>2021-08-07T07:51:18.665Z</time>
      </trkpt>
      <trkpt lat="46.91702" lon="8.68624">
        <ele>2079</ele>
        <time>2021-08-07T07:51:19.664Z</time>
      </trkpt>
      <trkpt lat="46.91703" lon="8.68624">
        <ele>2079</ele>
        <time>2021-08-07T07:51:20.665Z</time>
      </trkpt>
      <trkpt lat="46.9171" lon="8.68626">
        <ele>2083</ele>
        <time>2021-08-07T07:51:21.664Z</time>
      </trkpt>
      <trkpt lat="46.9171" lon="8.68626">
        <ele>2083</ele>
        <time>2021-08-07T07:51:22.664Z</time>
      </trkpt>
      <trkpt lat="46.91709" lon="8.68625">
        <ele>2083</ele>
        <time>2021-08-07T07:51:23.664Z</time>
      </trkpt>
      <trkpt lat="46.91704" lon="8.68626">
        <ele>2080</ele>
        <time>2021-08-07T07:51:24.665Z</time>
      </trkpt>
      <trkpt lat="46.91704" lon="8.68626">
        <ele>2081</ele>
        <time>2021-08-07T07:51:25.664Z</time>
      </trkpt>
      <trkpt lat="46.91704" lon="8.68622">
        <ele>2080</ele>
        <time>2021-08-07T07:51:26.666Z</time>
      </trkpt>
      <trkpt lat="46.91704" lon="8.68623">
        <ele>2080</ele>
        <time>2021-08-07T07:51:27.666Z</time>
      </trkpt>
      <trkpt lat="46.91705" lon="8.68623">
        <ele>2080</ele>
        <time>2021-08-07T07:51:28.665Z</time>
      </trkpt>
      <trkpt lat="46.91705" lon="8.68624">
        <ele>2080</ele>
        <time>2021-08-07T07:51:29.665Z</time>
      </trkpt>
      <trkpt lat="46.91705" lon="8.68624">
        <ele>2081</ele>
        <time>2021-08-07T07:51:30.666Z</time>
      </trkpt>
      <trkpt lat="46.91705" lon="8.68624">
        <ele>2081</ele>
        <time>2021-08-07T07:51:31.667Z</time>
      </trkpt>
      <trkpt lat="46.91705" lon="8.68624">
        <ele>2081</ele>
        <time>2021-08-07T07:51:32.667Z</time>
      </trkpt>
      <trkpt lat="46.91704" lon="8.68625">
        <ele>2079</ele>
        <time>2021-08-07T07:51:33.667Z</time>
      </trkpt>
      <trkpt lat="46.91704" lon="8.68625">
        <ele>2079</ele>
        <time>2021-08-07T07:51:34.666Z</time>
      </trkpt>
      <trkpt lat="46.91705" lon="8.68625">
        <ele>2078</ele>
        <time>2021-08-07T07:51:35.666Z</time>
      </trkpt>
      <trkpt lat="46.91706" lon="8.68625">
        <ele>2077</ele>
        <time>2021-08-07T07:51:36.668Z</time>
      </trkpt>
      <trkpt lat="46.91706" lon="8.68625">
        <ele>2077</ele>
        <time>2021-08-07T07:51:37.669Z</time>
      </trkpt>
      <trkpt lat="46.91705" lon="8.68624">
        <ele>2079</ele>
        <time>2021-08-07T07:51:38.670Z</time>
      </trkpt>
      <trkpt lat="46.91704" lon="8.68625">
        <ele>2080</ele>
        <time>2021-08-07T07:51:39.670Z</time>
      </trkpt>
      <trkpt lat="46.91704" lon="8.68625">
        <ele>2080</ele>
        <time>2021-08-07T07:51:40.669Z</time>
      </trkpt>
      <trkpt lat="46.91705" lon="8.68625">
        <ele>2080</ele>
        <time>2021-08-07T07:51:41.670Z</time>
      </trkpt>
      <trkpt lat="46.91705" lon="8.68625">
        <ele>2080</ele>
        <time>2021-08-07T07:51:42.670Z</time>
      </trkpt>
      <trkpt lat="46.91705" lon="8.68627">
        <ele>2080</ele>
        <time>2021-08-07T07:51:43.671Z</time>
      </trkpt>
      <trkpt lat="46.91705" lon="8.68627">
        <ele>2079</ele>
        <time>2021-08-07T07:51:44.670Z</time>
      </trkpt>
      <trkpt lat="46.91704" lon="8.68626">
        <ele>2079</ele>
        <time>2021-08-07T07:51:45.671Z</time>
      </trkpt>
      <trkpt lat="46.91705" lon="8.68626">
        <ele>2079</ele>
        <time>2021-08-07T07:51:46.672Z</time>
      </trkpt>
      <trkpt lat="46.91705" lon="8.68626">
        <ele>2079</ele>
        <time>2021-08-07T07:51:47.672Z</time>
      </trkpt>
      <trkpt lat="46.91705" lon="8.68625">
        <ele>2079</ele>
        <time>2021-08-07T07:51:48.671Z</time>
      </trkpt>
      <trkpt lat="46.91705" lon="8.68626">
        <ele>2079</ele>
        <time>2021-08-07T07:51:49.671Z</time>
      </trkpt>
      <trkpt lat="46.91706" lon="8.68626">
        <ele>2079</ele>
        <time>2021-08-07T07:51:50.673Z</time>
      </trkpt>
      <trkpt lat="46.91707" lon="8.68626">
        <ele>2079</ele>
        <time>2021-08-07T07:51:51.673Z</time>
      </trkpt>
      <trkpt lat="46.91708" lon="8.68625">
        <ele>2079</ele>
        <time>2021-08-07T07:51:52.672Z</time>
      </trkpt>
      <trkpt lat="46.91708" lon="8.68623">
        <ele>2079</ele>
        <time>2021-08-07T07:51:53.672Z</time>
      </trkpt>
      <trkpt lat="46.91709" lon="8.68622">
        <ele>2079</ele>
        <time>2021-08-07T07:51:54.672Z</time>
      </trkpt>
      <trkpt lat="46.91709" lon="8.6862">
        <ele>2079</ele>
        <time>2021-08-07T07:51:55.673Z</time>
      </trkpt>
      <trkpt lat="46.91709" lon="8.68618">
        <ele>2079</ele>
        <time>2021-08-07T07:51:56.673Z</time>
      </trkpt>
      <trkpt lat="46.91709" lon="8.68616">
        <ele>2080</ele>
        <time>2021-08-07T07:51:57.672Z</time>
      </trkpt>
      <trkpt lat="46.91709" lon="8.68615">
        <ele>2080</ele>
        <time>2021-08-07T07:51:58.672Z</time>
      </trkpt>
      <trkpt lat="46.91709" lon="8.68614">
        <ele>2080</ele>
        <time>2021-08-07T07:51:59.672Z</time>
      </trkpt>
      <trkpt lat="46.91709" lon="8.68612">
        <ele>2080</ele>
        <time>2021-08-07T07:52:00.672Z</time>
      </trkpt>
      <trkpt lat="46.91709" lon="8.68611">
        <ele>2080</ele>
        <time>2021-08-07T07:52:01.673Z</time>
      </trkpt>
      <trkpt lat="46.91709" lon="8.6861">
        <ele>2080</ele>
        <time>2021-08-07T07:52:02.673Z</time>
      </trkpt>
      <trkpt lat="46.9171" lon="8.68608">
        <ele>2080</ele>
        <time>2021-08-07T07:52:03.673Z</time>
      </trkpt>
      <trkpt lat="46.91711" lon="8.68607">
        <ele>2080</ele>
        <time>2021-08-07T07:52:04.672Z</time>
      </trkpt>
      <trkpt lat="46.91712" lon="8.68605">
        <ele>2080</ele>
        <time>2021-08-07T07:52:05.673Z</time>
      </trkpt>
      <trkpt lat="46.91712" lon="8.68604">
        <ele>2080</ele>
        <time>2021-08-07T07:52:06.672Z</time>
      </trkpt>
      <trkpt lat="46.91713" lon="8.68603">
        <ele>2080</ele>
        <time>2021-08-07T07:52:07.673Z</time>
      </trkpt>
      <trkpt lat="46.91713" lon="8.68601">
        <ele>2080</ele>
        <time>2021-08-07T07:52:08.673Z</time>
      </trkpt>
      <trkpt lat="46.91714" lon="8.686">
        <ele>2079</ele>
        <time>2021-08-07T07:52:09.673Z</time>
      </trkpt>
      <trkpt lat="46.91715" lon="8.68599">
        <ele>2079</ele>
        <time>2021-08-07T07:52:10.672Z</time>
      </trkpt>
      <trkpt lat="46.91715" lon="8.68598">
        <ele>2079</ele>
        <time>2021-08-07T07:52:11.673Z</time>
      </trkpt>
      <trkpt lat="46.91715" lon="8.68597">
        <ele>2079</ele>
        <time>2021-08-07T07:52:12.673Z</time>
      </trkpt>
      <trkpt lat="46.91715" lon="8.68596">
        <ele>2079</ele>
        <time>2021-08-07T07:52:13.672Z</time>
      </trkpt>
      <trkpt lat="46.91715" lon="8.68594">
        <ele>2079</ele>
        <time>2021-08-07T07:52:14.673Z</time>
      </trkpt>
      <trkpt lat="46.91716" lon="8.68593">
        <ele>2079</ele>
        <time>2021-08-07T07:52:15.673Z</time>
      </trkpt>
      <trkpt lat="46.91717" lon="8.68591">
        <ele>2080</ele>
        <time>2021-08-07T07:52:16.672Z</time>
      </trkpt>
      <trkpt lat="46.91717" lon="8.6859">
        <ele>2080</ele>
        <time>2021-08-07T07:52:17.673Z</time>
      </trkpt>
      <trkpt lat="46.91718" lon="8.68589">
        <ele>2080</ele>
        <time>2021-08-07T07:52:18.673Z</time>
      </trkpt>
      <trkpt lat="46.91719" lon="8.68587">
        <ele>2080</ele>
        <time>2021-08-07T07:52:19.673Z</time>
      </trkpt>
      <trkpt lat="46.91719" lon="8.68586">
        <ele>2081</ele>
        <time>2021-08-07T07:52:20.673Z</time>
      </trkpt>
      <trkpt lat="46.9172" lon="8.68584">
        <ele>2081</ele>
        <time>2021-08-07T07:52:21.672Z</time>
      </trkpt>
      <trkpt lat="46.9172" lon="8.68583">
        <ele>2082</ele>
        <time>2021-08-07T07:52:22.673Z</time>
      </trkpt>
      <trkpt lat="46.91721" lon="8.68582">
        <ele>2083</ele>
        <time>2021-08-07T07:52:23.673Z</time>
      </trkpt>
      <trkpt lat="46.91722" lon="8.68581">
        <ele>2084</ele>
        <time>2021-08-07T07:52:24.673Z</time>
      </trkpt>
      <trkpt lat="46.91723" lon="8.68579">
        <ele>2085</ele>
        <time>2021-08-07T07:52:25.672Z</time>
      </trkpt>
      <trkpt lat="46.91724" lon="8.68578">
        <ele>2085</ele>
        <time>2021-08-07T07:52:26.672Z</time>
      </trkpt>
      <trkpt lat="46.91724" lon="8.68578">
        <ele>2085</ele>
        <time>2021-08-07T07:52:27.673Z</time>
      </trkpt>
      <trkpt lat="46.91725" lon="8.68577">
        <ele>2086</ele>
        <time>2021-08-07T07:52:28.673Z</time>
      </trkpt>
      <trkpt lat="46.91726" lon="8.68576">
        <ele>2086</ele>
        <time>2021-08-07T07:52:29.672Z</time>
      </trkpt>
      <trkpt lat="46.91727" lon="8.68575">
        <ele>2086</ele>
        <time>2021-08-07T07:52:30.672Z</time>
      </trkpt>
      <trkpt lat="46.91728" lon="8.68574">
        <ele>2086</ele>
        <time>2021-08-07T07:52:31.673Z</time>
      </trkpt>
      <trkpt lat="46.91728" lon="8.68573">
        <ele>2086</ele>
        <time>2021-08-07T07:52:32.672Z</time>
      </trkpt>
      <trkpt lat="46.91729" lon="8.68572">
        <ele>2086</ele>
        <time>2021-08-07T07:52:33.673Z</time>
      </trkpt>
      <trkpt lat="46.9173" lon="8.68571">
        <ele>2086</ele>
        <time>2021-08-07T07:52:34.672Z</time>
      </trkpt>
      <trkpt lat="46.91731" lon="8.68569">
        <ele>2085</ele>
        <time>2021-08-07T07:52:35.673Z</time>
      </trkpt>
      <trkpt lat="46.91731" lon="8.68568">
        <ele>2085</ele>
        <time>2021-08-07T07:52:36.673Z</time>
      </trkpt>
      <trkpt lat="46.91732" lon="8.68567">
        <ele>2085</ele>
        <time>2021-08-07T07:52:37.673Z</time>
      </trkpt>
      <trkpt lat="46.91732" lon="8.68566">
        <ele>2085</ele>
        <time>2021-08-07T07:52:38.672Z</time>
      </trkpt>
      <trkpt lat="46.91733" lon="8.68564">
        <ele>2085</ele>
        <time>2021-08-07T07:52:39.672Z</time>
      </trkpt>
      <trkpt lat="46.91733" lon="8.68563">
        <ele>2085</ele>
        <time>2021-08-07T07:52:40.673Z</time>
      </trkpt>
      <trkpt lat="46.91734" lon="8.68561">
        <ele>2085</ele>
        <time>2021-08-07T07:52:41.673Z</time>
      </trkpt>
      <trkpt lat="46.91734" lon="8.6856">
        <ele>2085</ele>
        <time>2021-08-07T07:52:42.673Z</time>
      </trkpt>
      <trkpt lat="46.91735" lon="8.68559">
        <ele>2085</ele>
        <time>2021-08-07T07:52:43.673Z</time>
      </trkpt>
      <trkpt lat="46.91735" lon="8.68558">
        <ele>2085</ele>
        <time>2021-08-07T07:52:44.672Z</time>
      </trkpt>
      <trkpt lat="46.91736" lon="8.68556">
        <ele>2085</ele>
        <time>2021-08-07T07:52:45.673Z</time>
      </trkpt>
      <trkpt lat="46.91736" lon="8.68555">
        <ele>2085</ele>
        <time>2021-08-07T07:52:46.672Z</time>
      </trkpt>
      <trkpt lat="46.91737" lon="8.68554">
        <ele>2085</ele>
        <time>2021-08-07T07:52:47.673Z</time>
      </trkpt>
      <trkpt lat="46.91738" lon="8.68553">
        <ele>2085</ele>
        <time>2021-08-07T07:52:48.673Z</time>
      </trkpt>
      <trkpt lat="46.91739" lon="8.68552">
        <ele>2085</ele>
        <time>2021-08-07T07:52:49.673Z</time>
      </trkpt>
      <trkpt lat="46.9174" lon="8.68551">
        <ele>2085</ele>
        <time>2021-08-07T07:52:50.673Z</time>
      </trkpt>
      <trkpt lat="46.91741" lon="8.68551">
        <ele>2085</ele>
        <time>2021-08-07T07:52:51.673Z</time>
      </trkpt>
      <trkpt lat="46.91742" lon="8.6855">
        <ele>2085</ele>
        <time>2021-08-07T07:52:52.672Z</time>
      </trkpt>
      <trkpt lat="46.91743" lon="8.68549">
        <ele>2085</ele>
        <time>2021-08-07T07:52:53.672Z</time>
      </trkpt>
      <trkpt lat="46.91744" lon="8.68548">
        <ele>2085</ele>
        <time>2021-08-07T07:52:54.672Z</time>
      </trkpt>
      <trkpt lat="46.91745" lon="8.68547">
        <ele>2085</ele>
        <time>2021-08-07T07:52:55.673Z</time>
      </trkpt>
      <trkpt lat="46.91746" lon="8.68545">
        <ele>2085</ele>
        <time>2021-08-07T07:52:56.672Z</time>
      </trkpt>
      <trkpt lat="46.91746" lon="8.68543">
        <ele>2085</ele>
        <time>2021-08-07T07:52:57.673Z</time>
      </trkpt>
      <trkpt lat="46.91746" lon="8.68542">
        <ele>2085</ele>
        <time>2021-08-07T07:52:58.673Z</time>
      </trkpt>
      <trkpt lat="46.91746" lon="8.6854">
        <ele>2086</ele>
        <time>2021-08-07T07:52:59.672Z</time>
      </trkpt>
      <trkpt lat="46.91746" lon="8.68538">
        <ele>2086</ele>
        <time>2021-08-07T07:53:00.673Z</time>
      </trkpt>
      <trkpt lat="46.91746" lon="8.68537">
        <ele>2086</ele>
        <time>2021-08-07T07:53:01.673Z</time>
      </trkpt>
      <trkpt lat="46.91746" lon="8.68535">
        <ele>2086</ele>
        <time>2021-08-07T07:53:02.672Z</time>
      </trkpt>
      <trkpt lat="46.91746" lon="8.68534">
        <ele>2086</ele>
        <time>2021-08-07T07:53:03.673Z</time>
      </trkpt>
      <trkpt lat="46.91746" lon="8.68532">
        <ele>2087</ele>
        <time>2021-08-07T07:53:04.673Z</time>
      </trkpt>
      <trkpt lat="46.91746" lon="8.68531">
        <ele>2087</ele>
        <time>2021-08-07T07:53:05.672Z</time>
      </trkpt>
      <trkpt lat="46.91746" lon="8.68529">
        <ele>2088</ele>
        <time>2021-08-07T07:53:06.672Z</time>
      </trkpt>
      <trkpt lat="46.91747" lon="8.68528">
        <ele>2088</ele>
        <time>2021-08-07T07:53:07.673Z</time>
      </trkpt>
      <trkpt lat="46.91747" lon="8.68527">
        <ele>2088</ele>
        <time>2021-08-07T07:53:08.673Z</time>
      </trkpt>
      <trkpt lat="46.91748" lon="8.68526">
        <ele>2088</ele>
        <time>2021-08-07T07:53:09.673Z</time>
      </trkpt>
      <trkpt lat="46.91748" lon="8.68525">
        <ele>2087</ele>
        <time>2021-08-07T07:53:10.673Z</time>
      </trkpt>
      <trkpt lat="46.91748" lon="8.68524">
        <ele>2087</ele>
        <time>2021-08-07T07:53:11.672Z</time>
      </trkpt>
      <trkpt lat="46.91748" lon="8.68522">
        <ele>2087</ele>
        <time>2021-08-07T07:53:12.672Z</time>
      </trkpt>
      <trkpt lat="46.91748" lon="8.68521">
        <ele>2086</ele>
        <time>2021-08-07T07:53:13.673Z</time>
      </trkpt>
      <trkpt lat="46.91748" lon="8.6852">
        <ele>2086</ele>
        <time>2021-08-07T07:53:14.673Z</time>
      </trkpt>
      <trkpt lat="46.91748" lon="8.68519">
        <ele>2085</ele>
        <time>2021-08-07T07:53:15.673Z</time>
      </trkpt>
      <trkpt lat="46.91749" lon="8.68518">
        <ele>2084</ele>
        <time>2021-08-07T07:53:16.672Z</time>
      </trkpt>
      <trkpt lat="46.91749" lon="8.68517">
        <ele>2084</ele>
        <time>2021-08-07T07:53:17.673Z</time>
      </trkpt>
      <trkpt lat="46.91749" lon="8.68516">
        <ele>2083</ele>
        <time>2021-08-07T07:53:18.672Z</time>
      </trkpt>
      <trkpt lat="46.9175" lon="8.68514">
        <ele>2083</ele>
        <time>2021-08-07T07:53:19.672Z</time>
      </trkpt>
      <trkpt lat="46.91751" lon="8.68514">
        <ele>2082</ele>
        <time>2021-08-07T07:53:20.673Z</time>
      </trkpt>
      <trkpt lat="46.91751" lon="8.68512">
        <ele>2082</ele>
        <time>2021-08-07T07:53:21.672Z</time>
      </trkpt>
      <trkpt lat="46.91751" lon="8.68511">
        <ele>2082</ele>
        <time>2021-08-07T07:53:22.672Z</time>
      </trkpt>
      <trkpt lat="46.91752" lon="8.6851">
        <ele>2081</ele>
        <time>2021-08-07T07:53:23.672Z</time>
      </trkpt>
      <trkpt lat="46.91752" lon="8.68508">
        <ele>2080</ele>
        <time>2021-08-07T07:53:24.672Z</time>
      </trkpt>
      <trkpt lat="46.91753" lon="8.68507">
        <ele>2080</ele>
        <time>2021-08-07T07:53:25.672Z</time>
      </trkpt>
      <trkpt lat="46.91753" lon="8.68506">
        <ele>2079</ele>
        <time>2021-08-07T07:53:26.672Z</time>
      </trkpt>
      <trkpt lat="46.91754" lon="8.68505">
        <ele>2079</ele>
        <time>2021-08-07T07:53:27.673Z</time>
      </trkpt>
      <trkpt lat="46.91755" lon="8.68504">
        <ele>2078</ele>
        <time>2021-08-07T07:53:28.672Z</time>
      </trkpt>
      <trkpt lat="46.91755" lon="8.68502">
        <ele>2078</ele>
        <time>2021-08-07T07:53:29.673Z</time>
      </trkpt>
      <trkpt lat="46.91755" lon="8.68501">
        <ele>2078</ele>
        <time>2021-08-07T07:53:30.673Z</time>
      </trkpt>
      <trkpt lat="46.91756" lon="8.685">
        <ele>2079</ele>
        <time>2021-08-07T07:53:31.673Z</time>
      </trkpt>
      <trkpt lat="46.91756" lon="8.68499">
        <ele>2079</ele>
        <time>2021-08-07T07:53:32.672Z</time>
      </trkpt>
      <trkpt lat="46.91757" lon="8.68498">
        <ele>2080</ele>
        <time>2021-08-07T07:53:33.673Z</time>
      </trkpt>
      <trkpt lat="46.91758" lon="8.68496">
        <ele>2080</ele>
        <time>2021-08-07T07:53:34.673Z</time>
      </trkpt>
      <trkpt lat="46.91758" lon="8.68495">
        <ele>2081</ele>
        <time>2021-08-07T07:53:35.673Z</time>
      </trkpt>
      <trkpt lat="46.91758" lon="8.68494">
        <ele>2081</ele>
        <time>2021-08-07T07:53:36.673Z</time>
      </trkpt>
      <trkpt lat="46.91759" lon="8.68493">
        <ele>2082</ele>
        <time>2021-08-07T07:53:37.673Z</time>
      </trkpt>
      <trkpt lat="46.91759" lon="8.68492">
        <ele>2082</ele>
        <time>2021-08-07T07:53:38.673Z</time>
      </trkpt>
      <trkpt lat="46.91759" lon="8.68491">
        <ele>2082</ele>
        <time>2021-08-07T07:53:39.673Z</time>
      </trkpt>
      <trkpt lat="46.91759" lon="8.6849">
        <ele>2082</ele>
        <time>2021-08-07T07:53:40.673Z</time>
      </trkpt>
      <trkpt lat="46.91758" lon="8.68489">
        <ele>2083</ele>
        <time>2021-08-07T07:53:41.672Z</time>
      </trkpt>
      <trkpt lat="46.91758" lon="8.68488">
        <ele>2083</ele>
        <time>2021-08-07T07:53:42.673Z</time>
      </trkpt>
      <trkpt lat="46.91758" lon="8.68487">
        <ele>2083</ele>
        <time>2021-08-07T07:53:43.673Z</time>
      </trkpt>
      <trkpt lat="46.91758" lon="8.68487">
        <ele>2084</ele>
        <time>2021-08-07T07:53:44.673Z</time>
      </trkpt>
      <trkpt lat="46.91759" lon="8.68486">
        <ele>2084</ele>
        <time>2021-08-07T07:53:45.672Z</time>
      </trkpt>
      <trkpt lat="46.91759" lon="8.68485">
        <ele>2084</ele>
        <time>2021-08-07T07:53:46.672Z</time>
      </trkpt>
      <trkpt lat="46.9176" lon="8.68484">
        <ele>2084</ele>
        <time>2021-08-07T07:53:47.672Z</time>
      </trkpt>
      <trkpt lat="46.9176" lon="8.68483">
        <ele>2084</ele>
        <time>2021-08-07T07:53:48.672Z</time>
      </trkpt>
      <trkpt lat="46.91761" lon="8.68482">
        <ele>2083</ele>
        <time>2021-08-07T07:53:49.673Z</time>
      </trkpt>
      <trkpt lat="46.91761" lon="8.68481">
        <ele>2083</ele>
        <time>2021-08-07T07:53:50.673Z</time>
      </trkpt>
      <trkpt lat="46.91761" lon="8.6848">
        <ele>2083</ele>
        <time>2021-08-07T07:53:51.673Z</time>
      </trkpt>
      <trkpt lat="46.91762" lon="8.68479">
        <ele>2082</ele>
        <time>2021-08-07T07:53:52.673Z</time>
      </trkpt>
      <trkpt lat="46.91763" lon="8.68478">
        <ele>2082</ele>
        <time>2021-08-07T07:53:53.673Z</time>
      </trkpt>
      <trkpt lat="46.91763" lon="8.68478">
        <ele>2082</ele>
        <time>2021-08-07T07:53:54.673Z</time>
      </trkpt>
      <trkpt lat="46.91763" lon="8.68476">
        <ele>2081</ele>
        <time>2021-08-07T07:53:55.673Z</time>
      </trkpt>
      <trkpt lat="46.91763" lon="8.68474">
        <ele>2081</ele>
        <time>2021-08-07T07:53:56.673Z</time>
      </trkpt>
      <trkpt lat="46.91764" lon="8.68473">
        <ele>2080</ele>
        <time>2021-08-07T07:53:57.672Z</time>
      </trkpt>
      <trkpt lat="46.91764" lon="8.68472">
        <ele>2080</ele>
        <time>2021-08-07T07:53:58.673Z</time>
      </trkpt>
      <trkpt lat="46.91765" lon="8.68472">
        <ele>2081</ele>
        <time>2021-08-07T07:53:59.673Z</time>
      </trkpt>
      <trkpt lat="46.91765" lon="8.68471">
        <ele>2081</ele>
        <time>2021-08-07T07:54:00.673Z</time>
      </trkpt>
      <trkpt lat="46.91766" lon="8.6847">
        <ele>2082</ele>
        <time>2021-08-07T07:54:01.672Z</time>
      </trkpt>
      <trkpt lat="46.91766" lon="8.68469">
        <ele>2083</ele>
        <time>2021-08-07T07:54:02.672Z</time>
      </trkpt>
      <trkpt lat="46.91767" lon="8.68468">
        <ele>2083</ele>
        <time>2021-08-07T07:54:03.673Z</time>
      </trkpt>
      <trkpt lat="46.91767" lon="8.68467">
        <ele>2084</ele>
        <time>2021-08-07T07:54:04.673Z</time>
      </trkpt>
      <trkpt lat="46.91768" lon="8.68467">
        <ele>2084</ele>
        <time>2021-08-07T07:54:05.673Z</time>
      </trkpt>
      <trkpt lat="46.91768" lon="8.68466">
        <ele>2085</ele>
        <time>2021-08-07T07:54:06.673Z</time>
      </trkpt>
      <trkpt lat="46.91768" lon="8.68466">
        <ele>2085</ele>
        <time>2021-08-07T07:54:07.673Z</time>
      </trkpt>
      <trkpt lat="46.91769" lon="8.68465">
        <ele>2086</ele>
        <time>2021-08-07T07:54:08.673Z</time>
      </trkpt>
      <trkpt lat="46.91769" lon="8.68464">
        <ele>2086</ele>
        <time>2021-08-07T07:54:09.673Z</time>
      </trkpt>
      <trkpt lat="46.91769" lon="8.68463">
        <ele>2086</ele>
        <time>2021-08-07T07:54:10.673Z</time>
      </trkpt>
      <trkpt lat="46.91769" lon="8.68462">
        <ele>2086</ele>
        <time>2021-08-07T07:54:11.673Z</time>
      </trkpt>
      <trkpt lat="46.9177" lon="8.68461">
        <ele>2086</ele>
        <time>2021-08-07T07:54:12.673Z</time>
      </trkpt>
      <trkpt lat="46.9177" lon="8.68461">
        <ele>2086</ele>
        <time>2021-08-07T07:54:13.673Z</time>
      </trkpt>
      <trkpt lat="46.9177" lon="8.6846">
        <ele>2086</ele>
        <time>2021-08-07T07:54:14.673Z</time>
      </trkpt>
      <trkpt lat="46.91771" lon="8.68459">
        <ele>2086</ele>
        <time>2021-08-07T07:54:15.673Z</time>
      </trkpt>
      <trkpt lat="46.91771" lon="8.68459">
        <ele>2086</ele>
        <time>2021-08-07T07:54:16.672Z</time>
      </trkpt>
      <trkpt lat="46.91771" lon="8.68458">
        <ele>2086</ele>
        <time>2021-08-07T07:54:17.673Z</time>
      </trkpt>
      <trkpt lat="46.91771" lon="8.68457">
        <ele>2086</ele>
        <time>2021-08-07T07:54:18.673Z</time>
      </trkpt>
      <trkpt lat="46.91771" lon="8.68457">
        <ele>2086</ele>
        <time>2021-08-07T07:54:19.673Z</time>
      </trkpt>
      <trkpt lat="46.91771" lon="8.68456">
        <ele>2087</ele>
        <time>2021-08-07T07:54:20.673Z</time>
      </trkpt>
      <trkpt lat="46.91772" lon="8.68456">
        <ele>2087</ele>
        <time>2021-08-07T07:54:21.672Z</time>
      </trkpt>
      <trkpt lat="46.91772" lon="8.68455">
        <ele>2088</ele>
        <time>2021-08-07T07:54:22.672Z</time>
      </trkpt>
      <trkpt lat="46.91772" lon="8.68455">
        <ele>2089</ele>
        <time>2021-08-07T07:54:23.672Z</time>
      </trkpt>
      <trkpt lat="46.91773" lon="8.68454">
        <ele>2090</ele>
        <time>2021-08-07T07:54:24.673Z</time>
      </trkpt>
      <trkpt lat="46.91773" lon="8.68453">
        <ele>2091</ele>
        <time>2021-08-07T07:54:25.673Z</time>
      </trkpt>
      <trkpt lat="46.91773" lon="8.68453">
        <ele>2091</ele>
        <time>2021-08-07T07:54:26.673Z</time>
      </trkpt>
      <trkpt lat="46.91773" lon="8.68453">
        <ele>2092</ele>
        <time>2021-08-07T07:54:27.673Z</time>
      </trkpt>
      <trkpt lat="46.91774" lon="8.68452">
        <ele>2092</ele>
        <time>2021-08-07T07:54:28.673Z</time>
      </trkpt>
      <trkpt lat="46.91774" lon="8.68452">
        <ele>2093</ele>
        <time>2021-08-07T07:54:29.673Z</time>
      </trkpt>
      <trkpt lat="46.91774" lon="8.68451">
        <ele>2093</ele>
        <time>2021-08-07T07:54:30.672Z</time>
      </trkpt>
      <trkpt lat="46.91775" lon="8.68451">
        <ele>2093</ele>
        <time>2021-08-07T07:54:31.673Z</time>
      </trkpt>
      <trkpt lat="46.91775" lon="8.68449">
        <ele>2094</ele>
        <time>2021-08-07T07:54:32.672Z</time>
      </trkpt>
      <trkpt lat="46.91775" lon="8.68449">
        <ele>2094</ele>
        <time>2021-08-07T07:54:33.672Z</time>
      </trkpt>
      <trkpt lat="46.91776" lon="8.68449">
        <ele>2095</ele>
        <time>2021-08-07T07:54:34.673Z</time>
      </trkpt>
      <trkpt lat="46.91777" lon="8.6845">
        <ele>2096</ele>
        <time>2021-08-07T07:54:35.673Z</time>
      </trkpt>
      <trkpt lat="46.91777" lon="8.6845">
        <ele>2096</ele>
        <time>2021-08-07T07:54:36.673Z</time>
      </trkpt>
      <trkpt lat="46.91778" lon="8.6845">
        <ele>2097</ele>
        <time>2021-08-07T07:54:37.672Z</time>
      </trkpt>
      <trkpt lat="46.91779" lon="8.6845">
        <ele>2098</ele>
        <time>2021-08-07T07:54:38.673Z</time>
      </trkpt>
      <trkpt lat="46.91779" lon="8.68448">
        <ele>2098</ele>
        <time>2021-08-07T07:54:39.673Z</time>
      </trkpt>
      <trkpt lat="46.9178" lon="8.68447">
        <ele>2099</ele>
        <time>2021-08-07T07:54:40.672Z</time>
      </trkpt>
      <trkpt lat="46.9178" lon="8.68446">
        <ele>2099</ele>
        <time>2021-08-07T07:54:41.673Z</time>
      </trkpt>
      <trkpt lat="46.91781" lon="8.68445">
        <ele>2100</ele>
        <time>2021-08-07T07:54:42.673Z</time>
      </trkpt>
      <trkpt lat="46.91782" lon="8.68445">
        <ele>2100</ele>
        <time>2021-08-07T07:54:43.673Z</time>
      </trkpt>
      <trkpt lat="46.91782" lon="8.68444">
        <ele>2101</ele>
        <time>2021-08-07T07:54:44.672Z</time>
      </trkpt>
      <trkpt lat="46.91783" lon="8.68444">
        <ele>2101</ele>
        <time>2021-08-07T07:54:45.673Z</time>
      </trkpt>
      <trkpt lat="46.91784" lon="8.68443">
        <ele>2101</ele>
        <time>2021-08-07T07:54:46.673Z</time>
      </trkpt>
      <trkpt lat="46.91785" lon="8.68443">
        <ele>2101</ele>
        <time>2021-08-07T07:54:47.673Z</time>
      </trkpt>
      <trkpt lat="46.91786" lon="8.68442">
        <ele>2101</ele>
        <time>2021-08-07T07:54:48.673Z</time>
      </trkpt>
      <trkpt lat="46.91787" lon="8.68442">
        <ele>2101</ele>
        <time>2021-08-07T07:54:49.673Z</time>
      </trkpt>
      <trkpt lat="46.91788" lon="8.68441">
        <ele>2102</ele>
        <time>2021-08-07T07:54:50.672Z</time>
      </trkpt>
      <trkpt lat="46.91789" lon="8.68441">
        <ele>2101</ele>
        <time>2021-08-07T07:54:51.673Z</time>
      </trkpt>
      <trkpt lat="46.91789" lon="8.6844">
        <ele>2101</ele>
        <time>2021-08-07T07:54:52.673Z</time>
      </trkpt>
      <trkpt lat="46.9179" lon="8.6844">
        <ele>2101</ele>
        <time>2021-08-07T07:54:53.673Z</time>
      </trkpt>
      <trkpt lat="46.91791" lon="8.6844">
        <ele>2102</ele>
        <time>2021-08-07T07:54:54.673Z</time>
      </trkpt>
      <trkpt lat="46.91791" lon="8.68439">
        <ele>2101</ele>
        <time>2021-08-07T07:54:55.673Z</time>
      </trkpt>
      <trkpt lat="46.91792" lon="8.68438">
        <ele>2101</ele>
        <time>2021-08-07T07:54:56.672Z</time>
      </trkpt>
      <trkpt lat="46.91793" lon="8.68438">
        <ele>2101</ele>
        <time>2021-08-07T07:54:57.673Z</time>
      </trkpt>
      <trkpt lat="46.91794" lon="8.68437">
        <ele>2101</ele>
        <time>2021-08-07T07:54:58.673Z</time>
      </trkpt>
      <trkpt lat="46.91795" lon="8.68437">
        <ele>2101</ele>
        <time>2021-08-07T07:54:59.672Z</time>
      </trkpt>
      <trkpt lat="46.91796" lon="8.68436">
        <ele>2101</ele>
        <time>2021-08-07T07:55:00.673Z</time>
      </trkpt>
      <trkpt lat="46.91796" lon="8.68436">
        <ele>2100</ele>
        <time>2021-08-07T07:55:01.673Z</time>
      </trkpt>
      <trkpt lat="46.91797" lon="8.68436">
        <ele>2100</ele>
        <time>2021-08-07T07:55:02.673Z</time>
      </trkpt>
      <trkpt lat="46.91798" lon="8.68435">
        <ele>2100</ele>
        <time>2021-08-07T07:55:03.672Z</time>
      </trkpt>
      <trkpt lat="46.91798" lon="8.68434">
        <ele>2099</ele>
        <time>2021-08-07T07:55:04.673Z</time>
      </trkpt>
      <trkpt lat="46.91799" lon="8.68434">
        <ele>2099</ele>
        <time>2021-08-07T07:55:05.672Z</time>
      </trkpt>
      <trkpt lat="46.91799" lon="8.68433">
        <ele>2099</ele>
        <time>2021-08-07T07:55:06.672Z</time>
      </trkpt>
      <trkpt lat="46.918" lon="8.68433">
        <ele>2099</ele>
        <time>2021-08-07T07:55:07.672Z</time>
      </trkpt>
      <trkpt lat="46.918" lon="8.68432">
        <ele>2099</ele>
        <time>2021-08-07T07:55:08.673Z</time>
      </trkpt>
      <trkpt lat="46.918" lon="8.68431">
        <ele>2099</ele>
        <time>2021-08-07T07:55:09.673Z</time>
      </trkpt>
      <trkpt lat="46.91801" lon="8.68431">
        <ele>2099</ele>
        <time>2021-08-07T07:55:10.673Z</time>
      </trkpt>
      <trkpt lat="46.91801" lon="8.6843">
        <ele>2099</ele>
        <time>2021-08-07T07:55:11.673Z</time>
      </trkpt>
      <trkpt lat="46.91802" lon="8.6843">
        <ele>2099</ele>
        <time>2021-08-07T07:55:12.673Z</time>
      </trkpt>
      <trkpt lat="46.91802" lon="8.6843">
        <ele>2099</ele>
        <time>2021-08-07T07:55:13.673Z</time>
      </trkpt>
      <trkpt lat="46.91803" lon="8.68429">
        <ele>2098</ele>
        <time>2021-08-07T07:55:14.673Z</time>
      </trkpt>
      <trkpt lat="46.91803" lon="8.68429">
        <ele>2098</ele>
        <time>2021-08-07T07:55:15.673Z</time>
      </trkpt>
      <trkpt lat="46.91804" lon="8.68428">
        <ele>2098</ele>
        <time>2021-08-07T07:55:16.673Z</time>
      </trkpt>
      <trkpt lat="46.91804" lon="8.68427">
        <ele>2098</ele>
        <time>2021-08-07T07:55:17.673Z</time>
      </trkpt>
      <trkpt lat="46.91805" lon="8.68427">
        <ele>2098</ele>
        <time>2021-08-07T07:55:18.673Z</time>
      </trkpt>
      <trkpt lat="46.91805" lon="8.68426">
        <ele>2098</ele>
        <time>2021-08-07T07:55:19.673Z</time>
      </trkpt>
      <trkpt lat="46.91806" lon="8.68425">
        <ele>2098</ele>
        <time>2021-08-07T07:55:20.672Z</time>
      </trkpt>
      <trkpt lat="46.91806" lon="8.68424">
        <ele>2098</ele>
        <time>2021-08-07T07:55:21.672Z</time>
      </trkpt>
      <trkpt lat="46.91806" lon="8.68424">
        <ele>2098</ele>
        <time>2021-08-07T07:55:22.673Z</time>
      </trkpt>
      <trkpt lat="46.91806" lon="8.68423">
        <ele>2098</ele>
        <time>2021-08-07T07:55:23.672Z</time>
      </trkpt>
      <trkpt lat="46.91807" lon="8.68423">
        <ele>2098</ele>
        <time>2021-08-07T07:55:24.673Z</time>
      </trkpt>
      <trkpt lat="46.91807" lon="8.68423">
        <ele>2099</ele>
        <time>2021-08-07T07:55:25.675Z</time>
      </trkpt>
      <trkpt lat="46.91807" lon="8.68422">
        <ele>2099</ele>
        <time>2021-08-07T07:55:26.675Z</time>
      </trkpt>
      <trkpt lat="46.91808" lon="8.68422">
        <ele>2099</ele>
        <time>2021-08-07T07:55:27.674Z</time>
      </trkpt>
      <trkpt lat="46.91808" lon="8.68421">
        <ele>2099</ele>
        <time>2021-08-07T07:55:28.674Z</time>
      </trkpt>
      <trkpt lat="46.91808" lon="8.6842">
        <ele>2099</ele>
        <time>2021-08-07T07:55:29.674Z</time>
      </trkpt>
      <trkpt lat="46.91809" lon="8.68419">
        <ele>2098</ele>
        <time>2021-08-07T07:55:30.674Z</time>
      </trkpt>
      <trkpt lat="46.91809" lon="8.68418">
        <ele>2098</ele>
        <time>2021-08-07T07:55:31.674Z</time>
      </trkpt>
      <trkpt lat="46.9181" lon="8.68418">
        <ele>2097</ele>
        <time>2021-08-07T07:55:32.674Z</time>
      </trkpt>
      <trkpt lat="46.9181" lon="8.68417">
        <ele>2097</ele>
        <time>2021-08-07T07:55:33.674Z</time>
      </trkpt>
      <trkpt lat="46.91811" lon="8.68416">
        <ele>2097</ele>
        <time>2021-08-07T07:55:34.674Z</time>
      </trkpt>
      <trkpt lat="46.91811" lon="8.68416">
        <ele>2097</ele>
        <time>2021-08-07T07:55:35.675Z</time>
      </trkpt>
      <trkpt lat="46.91812" lon="8.68415">
        <ele>2097</ele>
        <time>2021-08-07T07:55:36.674Z</time>
      </trkpt>
      <trkpt lat="46.91812" lon="8.68414">
        <ele>2097</ele>
        <time>2021-08-07T07:55:37.674Z</time>
      </trkpt>
      <trkpt lat="46.91813" lon="8.68413">
        <ele>2097</ele>
        <time>2021-08-07T07:55:38.674Z</time>
      </trkpt>
      <trkpt lat="46.91813" lon="8.68413">
        <ele>2097</ele>
        <time>2021-08-07T07:55:39.674Z</time>
      </trkpt>
      <trkpt lat="46.91814" lon="8.68412">
        <ele>2098</ele>
        <time>2021-08-07T07:55:40.674Z</time>
      </trkpt>
      <trkpt lat="46.91814" lon="8.68411">
        <ele>2098</ele>
        <time>2021-08-07T07:55:41.675Z</time>
      </trkpt>
      <trkpt lat="46.91815" lon="8.6841">
        <ele>2098</ele>
        <time>2021-08-07T07:55:42.674Z</time>
      </trkpt>
      <trkpt lat="46.91816" lon="8.6841">
        <ele>2098</ele>
        <time>2021-08-07T07:55:43.674Z</time>
      </trkpt>
      <trkpt lat="46.91816" lon="8.68409">
        <ele>2098</ele>
        <time>2021-08-07T07:55:44.674Z</time>
      </trkpt>
      <trkpt lat="46.91817" lon="8.68408">
        <ele>2098</ele>
        <time>2021-08-07T07:55:45.674Z</time>
      </trkpt>
      <trkpt lat="46.91817" lon="8.68408">
        <ele>2098</ele>
        <time>2021-08-07T07:55:46.675Z</time>
      </trkpt>
      <trkpt lat="46.91818" lon="8.68407">
        <ele>2098</ele>
        <time>2021-08-07T07:55:47.674Z</time>
      </trkpt>
      <trkpt lat="46.91818" lon="8.68407">
        <ele>2099</ele>
        <time>2021-08-07T07:55:48.675Z</time>
      </trkpt>
      <trkpt lat="46.91819" lon="8.68406">
        <ele>2099</ele>
        <time>2021-08-07T07:55:49.674Z</time>
      </trkpt>
      <trkpt lat="46.9182" lon="8.68405">
        <ele>2099</ele>
        <time>2021-08-07T07:55:50.675Z</time>
      </trkpt>
      <trkpt lat="46.9182" lon="8.68405">
        <ele>2099</ele>
        <time>2021-08-07T07:55:51.675Z</time>
      </trkpt>
      <trkpt lat="46.91821" lon="8.68405">
        <ele>2098</ele>
        <time>2021-08-07T07:55:52.675Z</time>
      </trkpt>
      <trkpt lat="46.91822" lon="8.68404">
        <ele>2098</ele>
        <time>2021-08-07T07:55:53.674Z</time>
      </trkpt>
      <trkpt lat="46.91822" lon="8.68404">
        <ele>2098</ele>
        <time>2021-08-07T07:55:54.675Z</time>
      </trkpt>
      <trkpt lat="46.91823" lon="8.68404">
        <ele>2098</ele>
        <time>2021-08-07T07:55:55.675Z</time>
      </trkpt>
      <trkpt lat="46.91824" lon="8.68404">
        <ele>2098</ele>
        <time>2021-08-07T07:55:56.675Z</time>
      </trkpt>
      <trkpt lat="46.91824" lon="8.68403">
        <ele>2098</ele>
        <time>2021-08-07T07:55:57.675Z</time>
      </trkpt>
      <trkpt lat="46.91825" lon="8.68402">
        <ele>2098</ele>
        <time>2021-08-07T07:55:58.675Z</time>
      </trkpt>
      <trkpt lat="46.91825" lon="8.68402">
        <ele>2099</ele>
        <time>2021-08-07T07:55:59.675Z</time>
      </trkpt>
      <trkpt lat="46.91826" lon="8.68401">
        <ele>2099</ele>
        <time>2021-08-07T07:56:00.675Z</time>
      </trkpt>
      <trkpt lat="46.91826" lon="8.68401">
        <ele>2100</ele>
        <time>2021-08-07T07:56:01.675Z</time>
      </trkpt>
      <trkpt lat="46.91826" lon="8.684">
        <ele>2101</ele>
        <time>2021-08-07T07:56:02.675Z</time>
      </trkpt>
      <trkpt lat="46.91826" lon="8.684">
        <ele>2101</ele>
        <time>2021-08-07T07:56:03.675Z</time>
      </trkpt>
      <trkpt lat="46.91827" lon="8.684">
        <ele>2102</ele>
        <time>2021-08-07T07:56:04.674Z</time>
      </trkpt>
      <trkpt lat="46.91827" lon="8.68399">
        <ele>2102</ele>
        <time>2021-08-07T07:56:05.675Z</time>
      </trkpt>
      <trkpt lat="46.91828" lon="8.68399">
        <ele>2102</ele>
        <time>2021-08-07T07:56:06.675Z</time>
      </trkpt>
      <trkpt lat="46.91829" lon="8.68398">
        <ele>2103</ele>
        <time>2021-08-07T07:56:07.674Z</time>
      </trkpt>
      <trkpt lat="46.91829" lon="8.68398">
        <ele>2103</ele>
        <time>2021-08-07T07:56:08.675Z</time>
      </trkpt>
      <trkpt lat="46.91829" lon="8.68397">
        <ele>2103</ele>
        <time>2021-08-07T07:56:09.675Z</time>
      </trkpt>
      <trkpt lat="46.9183" lon="8.68397">
        <ele>2103</ele>
        <time>2021-08-07T07:56:10.675Z</time>
      </trkpt>
      <trkpt lat="46.9183" lon="8.68397">
        <ele>2103</ele>
        <time>2021-08-07T07:56:11.674Z</time>
      </trkpt>
      <trkpt lat="46.9183" lon="8.68396">
        <ele>2104</ele>
        <time>2021-08-07T07:56:12.674Z</time>
      </trkpt>
      <trkpt lat="46.91831" lon="8.68396">
        <ele>2104</ele>
        <time>2021-08-07T07:56:13.674Z</time>
      </trkpt>
      <trkpt lat="46.91831" lon="8.68396">
        <ele>2104</ele>
        <time>2021-08-07T07:56:14.675Z</time>
      </trkpt>
      <trkpt lat="46.91831" lon="8.68395">
        <ele>2104</ele>
        <time>2021-08-07T07:56:15.675Z</time>
      </trkpt>
      <trkpt lat="46.91832" lon="8.68395">
        <ele>2104</ele>
        <time>2021-08-07T07:56:16.675Z</time>
      </trkpt>
      <trkpt lat="46.91832" lon="8.68394">
        <ele>2104</ele>
        <time>2021-08-07T07:56:17.675Z</time>
      </trkpt>
      <trkpt lat="46.91833" lon="8.68394">
        <ele>2105</ele>
        <time>2021-08-07T07:56:18.675Z</time>
      </trkpt>
      <trkpt lat="46.91833" lon="8.68394">
        <ele>2105</ele>
        <time>2021-08-07T07:56:19.675Z</time>
      </trkpt>
      <trkpt lat="46.91834" lon="8.68393">
        <ele>2105</ele>
        <time>2021-08-07T07:56:20.675Z</time>
      </trkpt>
      <trkpt lat="46.91834" lon="8.68392">
        <ele>2105</ele>
        <time>2021-08-07T07:56:21.674Z</time>
      </trkpt>
      <trkpt lat="46.91834" lon="8.68392">
        <ele>2106</ele>
        <time>2021-08-07T07:56:22.674Z</time>
      </trkpt>
      <trkpt lat="46.91834" lon="8.68392">
        <ele>2106</ele>
        <time>2021-08-07T07:56:23.675Z</time>
      </trkpt>
      <trkpt lat="46.91834" lon="8.68391">
        <ele>2107</ele>
        <time>2021-08-07T07:56:24.675Z</time>
      </trkpt>
      <trkpt lat="46.91835" lon="8.68391">
        <ele>2107</ele>
        <time>2021-08-07T07:56:25.675Z</time>
      </trkpt>
      <trkpt lat="46.91835" lon="8.6839">
        <ele>2108</ele>
        <time>2021-08-07T07:56:26.674Z</time>
      </trkpt>
      <trkpt lat="46.91835" lon="8.68389">
        <ele>2108</ele>
        <time>2021-08-07T07:56:27.674Z</time>
      </trkpt>
      <trkpt lat="46.91836" lon="8.68389">
        <ele>2108</ele>
        <time>2021-08-07T07:56:28.675Z</time>
      </trkpt>
      <trkpt lat="46.91836" lon="8.68388">
        <ele>2108</ele>
        <time>2021-08-07T07:56:29.675Z</time>
      </trkpt>
      <trkpt lat="46.91836" lon="8.68388">
        <ele>2109</ele>
        <time>2021-08-07T07:56:30.675Z</time>
      </trkpt>
      <trkpt lat="46.91836" lon="8.68387">
        <ele>2109</ele>
        <time>2021-08-07T07:56:31.674Z</time>
      </trkpt>
      <trkpt lat="46.91836" lon="8.68386">
        <ele>2110</ele>
        <time>2021-08-07T07:56:32.675Z</time>
      </trkpt>
      <trkpt lat="46.91835" lon="8.68386">
        <ele>2110</ele>
        <time>2021-08-07T07:56:33.674Z</time>
      </trkpt>
      <trkpt lat="46.91835" lon="8.68385">
        <ele>2110</ele>
        <time>2021-08-07T07:56:34.675Z</time>
      </trkpt>
      <trkpt lat="46.91834" lon="8.68385">
        <ele>2110</ele>
        <time>2021-08-07T07:56:35.675Z</time>
      </trkpt>
      <trkpt lat="46.91833" lon="8.68385">
        <ele>2110</ele>
        <time>2021-08-07T07:56:36.675Z</time>
      </trkpt>
      <trkpt lat="46.91833" lon="8.68385">
        <ele>2111</ele>
        <time>2021-08-07T07:56:37.675Z</time>
      </trkpt>
      <trkpt lat="46.91832" lon="8.68386">
        <ele>2111</ele>
        <time>2021-08-07T07:56:38.675Z</time>
      </trkpt>
      <trkpt lat="46.91832" lon="8.68386">
        <ele>2112</ele>
        <time>2021-08-07T07:56:39.675Z</time>
      </trkpt>
      <trkpt lat="46.91831" lon="8.68386">
        <ele>2112</ele>
        <time>2021-08-07T07:56:40.675Z</time>
      </trkpt>
      <trkpt lat="46.91831" lon="8.68386">
        <ele>2113</ele>
        <time>2021-08-07T07:56:41.674Z</time>
      </trkpt>
      <trkpt lat="46.91832" lon="8.68386">
        <ele>2113</ele>
        <time>2021-08-07T07:56:42.675Z</time>
      </trkpt>
      <trkpt lat="46.91832" lon="8.68386">
        <ele>2114</ele>
        <time>2021-08-07T07:56:43.675Z</time>
      </trkpt>
      <trkpt lat="46.91833" lon="8.68385">
        <ele>2114</ele>
        <time>2021-08-07T07:56:44.674Z</time>
      </trkpt>
      <trkpt lat="46.91833" lon="8.68385">
        <ele>2114</ele>
        <time>2021-08-07T07:56:45.675Z</time>
      </trkpt>
      <trkpt lat="46.91833" lon="8.68384">
        <ele>2114</ele>
        <time>2021-08-07T07:56:46.675Z</time>
      </trkpt>
      <trkpt lat="46.91833" lon="8.68383">
        <ele>2114</ele>
        <time>2021-08-07T07:56:47.675Z</time>
      </trkpt>
      <trkpt lat="46.91834" lon="8.68383">
        <ele>2115</ele>
        <time>2021-08-07T07:56:48.675Z</time>
      </trkpt>
      <trkpt lat="46.91834" lon="8.68383">
        <ele>2115</ele>
        <time>2021-08-07T07:56:49.674Z</time>
      </trkpt>
      <trkpt lat="46.91834" lon="8.68382">
        <ele>2116</ele>
        <time>2021-08-07T07:56:50.674Z</time>
      </trkpt>
      <trkpt lat="46.91834" lon="8.68381">
        <ele>2116</ele>
        <time>2021-08-07T07:56:51.675Z</time>
      </trkpt>
      <trkpt lat="46.91835" lon="8.6838">
        <ele>2117</ele>
        <time>2021-08-07T07:56:52.675Z</time>
      </trkpt>
      <trkpt lat="46.91836" lon="8.68379">
        <ele>2117</ele>
        <time>2021-08-07T07:56:53.675Z</time>
      </trkpt>
      <trkpt lat="46.91836" lon="8.68379">
        <ele>2118</ele>
        <time>2021-08-07T07:56:54.675Z</time>
      </trkpt>
      <trkpt lat="46.91837" lon="8.68378">
        <ele>2118</ele>
        <time>2021-08-07T07:56:55.674Z</time>
      </trkpt>
      <trkpt lat="46.91837" lon="8.68378">
        <ele>2118</ele>
        <time>2021-08-07T07:56:56.675Z</time>
      </trkpt>
      <trkpt lat="46.91837" lon="8.68377">
        <ele>2118</ele>
        <time>2021-08-07T07:56:57.675Z</time>
      </trkpt>
      <trkpt lat="46.91836" lon="8.68377">
        <ele>2118</ele>
        <time>2021-08-07T07:56:58.674Z</time>
      </trkpt>
      <trkpt lat="46.91836" lon="8.68376">
        <ele>2118</ele>
        <time>2021-08-07T07:56:59.675Z</time>
      </trkpt>
      <trkpt lat="46.91836" lon="8.68375">
        <ele>2118</ele>
        <time>2021-08-07T07:57:00.674Z</time>
      </trkpt>
      <trkpt lat="46.91837" lon="8.68375">
        <ele>2119</ele>
        <time>2021-08-07T07:57:01.674Z</time>
      </trkpt>
      <trkpt lat="46.91837" lon="8.68374">
        <ele>2119</ele>
        <time>2021-08-07T07:57:02.674Z</time>
      </trkpt>
      <trkpt lat="46.91837" lon="8.68374">
        <ele>2120</ele>
        <time>2021-08-07T07:57:03.674Z</time>
      </trkpt>
      <trkpt lat="46.91837" lon="8.68373">
        <ele>2121</ele>
        <time>2021-08-07T07:57:04.674Z</time>
      </trkpt>
      <trkpt lat="46.91837" lon="8.68373">
        <ele>2121</ele>
        <time>2021-08-07T07:57:05.674Z</time>
      </trkpt>
      <trkpt lat="46.91837" lon="8.68373">
        <ele>2122</ele>
        <time>2021-08-07T07:57:06.674Z</time>
      </trkpt>
      <trkpt lat="46.91837" lon="8.68373">
        <ele>2122</ele>
        <time>2021-08-07T07:57:07.675Z</time>
      </trkpt>
      <trkpt lat="46.91838" lon="8.68372">
        <ele>2122</ele>
        <time>2021-08-07T07:57:08.675Z</time>
      </trkpt>
      <trkpt lat="46.91838" lon="8.68372">
        <ele>2122</ele>
        <time>2021-08-07T07:57:09.674Z</time>
      </trkpt>
      <trkpt lat="46.91838" lon="8.68372">
        <ele>2122</ele>
        <time>2021-08-07T07:57:10.675Z</time>
      </trkpt>
      <trkpt lat="46.91838" lon="8.68371">
        <ele>2122</ele>
        <time>2021-08-07T07:57:11.675Z</time>
      </trkpt>
      <trkpt lat="46.91839" lon="8.68371">
        <ele>2123</ele>
        <time>2021-08-07T07:57:12.677Z</time>
      </trkpt>
      <trkpt lat="46.91839" lon="8.68371">
        <ele>2123</ele>
        <time>2021-08-07T07:57:13.677Z</time>
      </trkpt>
      <trkpt lat="46.91839" lon="8.6837">
        <ele>2123</ele>
        <time>2021-08-07T07:57:14.676Z</time>
      </trkpt>
      <trkpt lat="46.91839" lon="8.6837">
        <ele>2123</ele>
        <time>2021-08-07T07:57:15.677Z</time>
      </trkpt>
      <trkpt lat="46.91839" lon="8.68371">
        <ele>2123</ele>
        <time>2021-08-07T07:57:16.677Z</time>
      </trkpt>
      <trkpt lat="46.9184" lon="8.6837">
        <ele>2122</ele>
        <time>2021-08-07T07:57:17.678Z</time>
      </trkpt>
      <trkpt lat="46.91841" lon="8.68369">
        <ele>2122</ele>
        <time>2021-08-07T07:57:18.678Z</time>
      </trkpt>
      <trkpt lat="46.91841" lon="8.68369">
        <ele>2122</ele>
        <time>2021-08-07T07:57:19.678Z</time>
      </trkpt>
      <trkpt lat="46.91841" lon="8.68368">
        <ele>2122</ele>
        <time>2021-08-07T07:57:20.677Z</time>
      </trkpt>
      <trkpt lat="46.91842" lon="8.68368">
        <ele>2122</ele>
        <time>2021-08-07T07:57:21.677Z</time>
      </trkpt>
      <trkpt lat="46.91842" lon="8.68367">
        <ele>2122</ele>
        <time>2021-08-07T07:57:22.678Z</time>
      </trkpt>
      <trkpt lat="46.91842" lon="8.68367">
        <ele>2122</ele>
        <time>2021-08-07T07:57:23.678Z</time>
      </trkpt>
      <trkpt lat="46.91842" lon="8.68366">
        <ele>2122</ele>
        <time>2021-08-07T07:57:24.678Z</time>
      </trkpt>
      <trkpt lat="46.91843" lon="8.68365">
        <ele>2122</ele>
        <time>2021-08-07T07:57:25.677Z</time>
      </trkpt>
      <trkpt lat="46.91843" lon="8.68365">
        <ele>2122</ele>
        <time>2021-08-07T07:57:26.677Z</time>
      </trkpt>
      <trkpt lat="46.91843" lon="8.68364">
        <ele>2122</ele>
        <time>2021-08-07T07:57:27.678Z</time>
      </trkpt>
      <trkpt lat="46.91843" lon="8.68363">
        <ele>2123</ele>
        <time>2021-08-07T07:57:28.678Z</time>
      </trkpt>
      <trkpt lat="46.91844" lon="8.68363">
        <ele>2123</ele>
        <time>2021-08-07T07:57:29.678Z</time>
      </trkpt>
      <trkpt lat="46.91844" lon="8.68363">
        <ele>2124</ele>
        <time>2021-08-07T07:57:30.677Z</time>
      </trkpt>
      <trkpt lat="46.91845" lon="8.68363">
        <ele>2124</ele>
        <time>2021-08-07T07:57:31.677Z</time>
      </trkpt>
      <trkpt lat="46.91845" lon="8.68363">
        <ele>2124</ele>
        <time>2021-08-07T07:57:32.677Z</time>
      </trkpt>
      <trkpt lat="46.91846" lon="8.68363">
        <ele>2124</ele>
        <time>2021-08-07T07:57:33.678Z</time>
      </trkpt>
      <trkpt lat="46.91846" lon="8.68363">
        <ele>2125</ele>
        <time>2021-08-07T07:57:34.678Z</time>
      </trkpt>
      <trkpt lat="46.91847" lon="8.68364">
        <ele>2125</ele>
        <time>2021-08-07T07:57:35.678Z</time>
      </trkpt>
      <trkpt lat="46.91848" lon="8.68364">
        <ele>2125</ele>
        <time>2021-08-07T07:57:36.678Z</time>
      </trkpt>
      <trkpt lat="46.91849" lon="8.68364">
        <ele>2125</ele>
        <time>2021-08-07T07:57:37.678Z</time>
      </trkpt>
      <trkpt lat="46.91849" lon="8.68363">
        <ele>2125</ele>
        <time>2021-08-07T07:57:38.678Z</time>
      </trkpt>
      <trkpt lat="46.9185" lon="8.68364">
        <ele>2125</ele>
        <time>2021-08-07T07:57:39.677Z</time>
      </trkpt>
      <trkpt lat="46.9185" lon="8.68364">
        <ele>2125</ele>
        <time>2021-08-07T07:57:40.678Z</time>
      </trkpt>
      <trkpt lat="46.91851" lon="8.68363">
        <ele>2125</ele>
        <time>2021-08-07T07:57:41.677Z</time>
      </trkpt>
      <trkpt lat="46.91852" lon="8.68363">
        <ele>2126</ele>
        <time>2021-08-07T07:57:42.677Z</time>
      </trkpt>
      <trkpt lat="46.91852" lon="8.68363">
        <ele>2126</ele>
        <time>2021-08-07T07:57:43.677Z</time>
      </trkpt>
      <trkpt lat="46.91853" lon="8.68363">
        <ele>2126</ele>
        <time>2021-08-07T07:57:44.677Z</time>
      </trkpt>
      <trkpt lat="46.91853" lon="8.68361">
        <ele>2126</ele>
        <time>2021-08-07T07:57:45.678Z</time>
      </trkpt>
      <trkpt lat="46.91853" lon="8.6836">
        <ele>2126</ele>
        <time>2021-08-07T07:57:46.678Z</time>
      </trkpt>
      <trkpt lat="46.91853" lon="8.68359">
        <ele>2126</ele>
        <time>2021-08-07T07:57:47.678Z</time>
      </trkpt>
      <trkpt lat="46.91853" lon="8.68358">
        <ele>2126</ele>
        <time>2021-08-07T07:57:48.678Z</time>
      </trkpt>
      <trkpt lat="46.91853" lon="8.68357">
        <ele>2125</ele>
        <time>2021-08-07T07:57:49.677Z</time>
      </trkpt>
      <trkpt lat="46.91853" lon="8.68357">
        <ele>2125</ele>
        <time>2021-08-07T07:57:50.677Z</time>
      </trkpt>
      <trkpt lat="46.91852" lon="8.68356">
        <ele>2125</ele>
        <time>2021-08-07T07:57:51.678Z</time>
      </trkpt>
      <trkpt lat="46.91852" lon="8.68355">
        <ele>2125</ele>
        <time>2021-08-07T07:57:52.678Z</time>
      </trkpt>
      <trkpt lat="46.91852" lon="8.68355">
        <ele>2125</ele>
        <time>2021-08-07T07:57:53.677Z</time>
      </trkpt>
      <trkpt lat="46.91852" lon="8.68354">
        <ele>2124</ele>
        <time>2021-08-07T07:57:54.678Z</time>
      </trkpt>
      <trkpt lat="46.91852" lon="8.68354">
        <ele>2124</ele>
        <time>2021-08-07T07:57:55.678Z</time>
      </trkpt>
      <trkpt lat="46.91851" lon="8.68353">
        <ele>2124</ele>
        <time>2021-08-07T07:57:56.677Z</time>
      </trkpt>
      <trkpt lat="46.91851" lon="8.68352">
        <ele>2123</ele>
        <time>2021-08-07T07:57:57.678Z</time>
      </trkpt>
      <trkpt lat="46.91852" lon="8.68351">
        <ele>2123</ele>
        <time>2021-08-07T07:57:58.678Z</time>
      </trkpt>
      <trkpt lat="46.91852" lon="8.6835">
        <ele>2123</ele>
        <time>2021-08-07T07:57:59.677Z</time>
      </trkpt>
      <trkpt lat="46.91852" lon="8.6835">
        <ele>2122</ele>
        <time>2021-08-07T07:58:00.677Z</time>
      </trkpt>
      <trkpt lat="46.91852" lon="8.68349">
        <ele>2123</ele>
        <time>2021-08-07T07:58:01.677Z</time>
      </trkpt>
      <trkpt lat="46.91852" lon="8.68349">
        <ele>2123</ele>
        <time>2021-08-07T07:58:02.678Z</time>
      </trkpt>
      <trkpt lat="46.91852" lon="8.68348">
        <ele>2124</ele>
        <time>2021-08-07T07:58:03.678Z</time>
      </trkpt>
      <trkpt lat="46.91851" lon="8.68347">
        <ele>2125</ele>
        <time>2021-08-07T07:58:04.678Z</time>
      </trkpt>
      <trkpt lat="46.91852" lon="8.68347">
        <ele>2125</ele>
        <time>2021-08-07T07:58:05.678Z</time>
      </trkpt>
      <trkpt lat="46.91852" lon="8.68347">
        <ele>2125</ele>
        <time>2021-08-07T07:58:06.678Z</time>
      </trkpt>
      <trkpt lat="46.91852" lon="8.68346">
        <ele>2126</ele>
        <time>2021-08-07T07:58:07.677Z</time>
      </trkpt>
      <trkpt lat="46.91852" lon="8.68345">
        <ele>2126</ele>
        <time>2021-08-07T07:58:08.677Z</time>
      </trkpt>
      <trkpt lat="46.91852" lon="8.68345">
        <ele>2127</ele>
        <time>2021-08-07T07:58:09.678Z</time>
      </trkpt>
      <trkpt lat="46.91852" lon="8.68344">
        <ele>2127</ele>
        <time>2021-08-07T07:58:10.678Z</time>
      </trkpt>
      <trkpt lat="46.91853" lon="8.68343">
        <ele>2127</ele>
        <time>2021-08-07T07:58:11.677Z</time>
      </trkpt>
      <trkpt lat="46.91852" lon="8.68343">
        <ele>2127</ele>
        <time>2021-08-07T07:58:12.677Z</time>
      </trkpt>
      <trkpt lat="46.91852" lon="8.68342">
        <ele>2127</ele>
        <time>2021-08-07T07:58:13.678Z</time>
      </trkpt>
      <trkpt lat="46.91853" lon="8.68341">
        <ele>2127</ele>
        <time>2021-08-07T07:58:14.677Z</time>
      </trkpt>
      <trkpt lat="46.91853" lon="8.6834">
        <ele>2126</ele>
        <time>2021-08-07T07:58:15.678Z</time>
      </trkpt>
      <trkpt lat="46.91853" lon="8.68339">
        <ele>2126</ele>
        <time>2021-08-07T07:58:16.678Z</time>
      </trkpt>
      <trkpt lat="46.91853" lon="8.68339">
        <ele>2126</ele>
        <time>2021-08-07T07:58:17.678Z</time>
      </trkpt>
      <trkpt lat="46.91853" lon="8.68338">
        <ele>2126</ele>
        <time>2021-08-07T07:58:18.678Z</time>
      </trkpt>
      <trkpt lat="46.91853" lon="8.68338">
        <ele>2126</ele>
        <time>2021-08-07T07:58:19.678Z</time>
      </trkpt>
      <trkpt lat="46.91853" lon="8.68337">
        <ele>2126</ele>
        <time>2021-08-07T07:58:20.678Z</time>
      </trkpt>
      <trkpt lat="46.91854" lon="8.68337">
        <ele>2126</ele>
        <time>2021-08-07T07:58:21.678Z</time>
      </trkpt>
      <trkpt lat="46.91854" lon="8.68336">
        <ele>2126</ele>
        <time>2021-08-07T07:58:22.678Z</time>
      </trkpt>
      <trkpt lat="46.91855" lon="8.68336">
        <ele>2125</ele>
        <time>2021-08-07T07:58:23.678Z</time>
      </trkpt>
      <trkpt lat="46.91855" lon="8.68335">
        <ele>2125</ele>
        <time>2021-08-07T07:58:24.678Z</time>
      </trkpt>
      <trkpt lat="46.91855" lon="8.68334">
        <ele>2125</ele>
        <time>2021-08-07T07:58:25.678Z</time>
      </trkpt>
      <trkpt lat="46.91855" lon="8.68334">
        <ele>2125</ele>
        <time>2021-08-07T07:58:26.678Z</time>
      </trkpt>
      <trkpt lat="46.91855" lon="8.68333">
        <ele>2124</ele>
        <time>2021-08-07T07:58:27.678Z</time>
      </trkpt>
      <trkpt lat="46.91855" lon="8.68333">
        <ele>2125</ele>
        <time>2021-08-07T07:58:28.678Z</time>
      </trkpt>
      <trkpt lat="46.91855" lon="8.68332">
        <ele>2125</ele>
        <time>2021-08-07T07:58:29.678Z</time>
      </trkpt>
      <trkpt lat="46.91855" lon="8.68331">
        <ele>2125</ele>
        <time>2021-08-07T07:58:30.678Z</time>
      </trkpt>
      <trkpt lat="46.91855" lon="8.68331">
        <ele>2126</ele>
        <time>2021-08-07T07:58:31.678Z</time>
      </trkpt>
      <trkpt lat="46.91855" lon="8.6833">
        <ele>2126</ele>
        <time>2021-08-07T07:58:32.678Z</time>
      </trkpt>
      <trkpt lat="46.91855" lon="8.6833">
        <ele>2127</ele>
        <time>2021-08-07T07:58:33.678Z</time>
      </trkpt>
      <trkpt lat="46.91855" lon="8.68329">
        <ele>2127</ele>
        <time>2021-08-07T07:58:34.678Z</time>
      </trkpt>
      <trkpt lat="46.91855" lon="8.68329">
        <ele>2127</ele>
        <time>2021-08-07T07:58:35.677Z</time>
      </trkpt>
      <trkpt lat="46.91856" lon="8.6833">
        <ele>2129</ele>
        <time>2021-08-07T07:58:36.678Z</time>
      </trkpt>
      <trkpt lat="46.91856" lon="8.68329">
        <ele>2130</ele>
        <time>2021-08-07T07:58:37.677Z</time>
      </trkpt>
      <trkpt lat="46.91857" lon="8.68329">
        <ele>2130</ele>
        <time>2021-08-07T07:58:38.677Z</time>
      </trkpt>
      <trkpt lat="46.91857" lon="8.68328">
        <ele>2130</ele>
        <time>2021-08-07T07:58:39.678Z</time>
      </trkpt>
      <trkpt lat="46.91857" lon="8.68328">
        <ele>2130</ele>
        <time>2021-08-07T07:58:40.677Z</time>
      </trkpt>
      <trkpt lat="46.91857" lon="8.68327">
        <ele>2130</ele>
        <time>2021-08-07T07:58:41.678Z</time>
      </trkpt>
      <trkpt lat="46.91858" lon="8.68327">
        <ele>2131</ele>
        <time>2021-08-07T07:58:42.677Z</time>
      </trkpt>
      <trkpt lat="46.91858" lon="8.68326">
        <ele>2131</ele>
        <time>2021-08-07T07:58:43.677Z</time>
      </trkpt>
      <trkpt lat="46.91858" lon="8.68326">
        <ele>2131</ele>
        <time>2021-08-07T07:58:44.677Z</time>
      </trkpt>
      <trkpt lat="46.91859" lon="8.68326">
        <ele>2132</ele>
        <time>2021-08-07T07:58:45.677Z</time>
      </trkpt>
      <trkpt lat="46.91859" lon="8.68325">
        <ele>2132</ele>
        <time>2021-08-07T07:58:46.678Z</time>
      </trkpt>
      <trkpt lat="46.9186" lon="8.68325">
        <ele>2132</ele>
        <time>2021-08-07T07:58:47.678Z</time>
      </trkpt>
      <trkpt lat="46.9186" lon="8.68324">
        <ele>2132</ele>
        <time>2021-08-07T07:58:48.677Z</time>
      </trkpt>
      <trkpt lat="46.9186" lon="8.68323">
        <ele>2133</ele>
        <time>2021-08-07T07:58:49.677Z</time>
      </trkpt>
      <trkpt lat="46.9186" lon="8.68323">
        <ele>2133</ele>
        <time>2021-08-07T07:58:50.677Z</time>
      </trkpt>
      <trkpt lat="46.9186" lon="8.68322">
        <ele>2133</ele>
        <time>2021-08-07T07:58:51.677Z</time>
      </trkpt>
      <trkpt lat="46.9186" lon="8.68321">
        <ele>2134</ele>
        <time>2021-08-07T07:58:52.677Z</time>
      </trkpt>
      <trkpt lat="46.9186" lon="8.68321">
        <ele>2134</ele>
        <time>2021-08-07T07:58:53.677Z</time>
      </trkpt>
      <trkpt lat="46.9186" lon="8.6832">
        <ele>2134</ele>
        <time>2021-08-07T07:58:54.677Z</time>
      </trkpt>
      <trkpt lat="46.9186" lon="8.68319">
        <ele>2134</ele>
        <time>2021-08-07T07:58:55.678Z</time>
      </trkpt>
      <trkpt lat="46.91861" lon="8.68318">
        <ele>2134</ele>
        <time>2021-08-07T07:58:56.678Z</time>
      </trkpt>
      <trkpt lat="46.91861" lon="8.68318">
        <ele>2134</ele>
        <time>2021-08-07T07:58:57.678Z</time>
      </trkpt>
      <trkpt lat="46.91861" lon="8.68317">
        <ele>2134</ele>
        <time>2021-08-07T07:58:58.677Z</time>
      </trkpt>
      <trkpt lat="46.91861" lon="8.68317">
        <ele>2134</ele>
        <time>2021-08-07T07:58:59.677Z</time>
      </trkpt>
      <trkpt lat="46.91861" lon="8.68316">
        <ele>2134</ele>
        <time>2021-08-07T07:59:00.677Z</time>
      </trkpt>
      <trkpt lat="46.91861" lon="8.68315">
        <ele>2133</ele>
        <time>2021-08-07T07:59:01.678Z</time>
      </trkpt>
      <trkpt lat="46.91861" lon="8.68314">
        <ele>2133</ele>
        <time>2021-08-07T07:59:02.677Z</time>
      </trkpt>
      <trkpt lat="46.91861" lon="8.68313">
        <ele>2132</ele>
        <time>2021-08-07T07:59:03.677Z</time>
      </trkpt>
      <trkpt lat="46.91861" lon="8.68313">
        <ele>2133</ele>
        <time>2021-08-07T07:59:04.677Z</time>
      </trkpt>
      <trkpt lat="46.91861" lon="8.68312">
        <ele>2133</ele>
        <time>2021-08-07T07:59:05.678Z</time>
      </trkpt>
      <trkpt lat="46.9186" lon="8.68311">
        <ele>2133</ele>
        <time>2021-08-07T07:59:06.678Z</time>
      </trkpt>
      <trkpt lat="46.9186" lon="8.68311">
        <ele>2133</ele>
        <time>2021-08-07T07:59:07.678Z</time>
      </trkpt>
      <trkpt lat="46.9186" lon="8.6831">
        <ele>2134</ele>
        <time>2021-08-07T07:59:08.678Z</time>
      </trkpt>
      <trkpt lat="46.9186" lon="8.6831">
        <ele>2134</ele>
        <time>2021-08-07T07:59:09.678Z</time>
      </trkpt>
      <trkpt lat="46.9186" lon="8.68309">
        <ele>2135</ele>
        <time>2021-08-07T07:59:10.677Z</time>
      </trkpt>
      <trkpt lat="46.9186" lon="8.68308">
        <ele>2135</ele>
        <time>2021-08-07T07:59:11.677Z</time>
      </trkpt>
      <trkpt lat="46.9186" lon="8.68308">
        <ele>2135</ele>
        <time>2021-08-07T07:59:12.677Z</time>
      </trkpt>
      <trkpt lat="46.91861" lon="8.68307">
        <ele>2135</ele>
        <time>2021-08-07T07:59:13.678Z</time>
      </trkpt>
      <trkpt lat="46.91861" lon="8.68307">
        <ele>2135</ele>
        <time>2021-08-07T07:59:14.678Z</time>
      </trkpt>
      <trkpt lat="46.91861" lon="8.68306">
        <ele>2135</ele>
        <time>2021-08-07T07:59:15.677Z</time>
      </trkpt>
      <trkpt lat="46.91861" lon="8.68306">
        <ele>2136</ele>
        <time>2021-08-07T07:59:16.677Z</time>
      </trkpt>
      <trkpt lat="46.91861" lon="8.68305">
        <ele>2136</ele>
        <time>2021-08-07T07:59:17.677Z</time>
      </trkpt>
      <trkpt lat="46.91861" lon="8.68305">
        <ele>2136</ele>
        <time>2021-08-07T07:59:18.678Z</time>
      </trkpt>
      <trkpt lat="46.91861" lon="8.68305">
        <ele>2136</ele>
        <time>2021-08-07T07:59:19.677Z</time>
      </trkpt>
      <trkpt lat="46.9186" lon="8.68304">
        <ele>2136</ele>
        <time>2021-08-07T07:59:20.677Z</time>
      </trkpt>
      <trkpt lat="46.91861" lon="8.68304">
        <ele>2136</ele>
        <time>2021-08-07T07:59:21.677Z</time>
      </trkpt>
      <trkpt lat="46.91861" lon="8.68303">
        <ele>2136</ele>
        <time>2021-08-07T07:59:22.678Z</time>
      </trkpt>
      <trkpt lat="46.91861" lon="8.68303">
        <ele>2137</ele>
        <time>2021-08-07T07:59:23.677Z</time>
      </trkpt>
      <trkpt lat="46.91861" lon="8.68303">
        <ele>2137</ele>
        <time>2021-08-07T07:59:24.677Z</time>
      </trkpt>
      <trkpt lat="46.91863" lon="8.68302">
        <ele>2138</ele>
        <time>2021-08-07T07:59:25.679Z</time>
      </trkpt>
      <trkpt lat="46.91864" lon="8.68303">
        <ele>2139</ele>
        <time>2021-08-07T07:59:26.678Z</time>
      </trkpt>
      <trkpt lat="46.91864" lon="8.68303">
        <ele>2139</ele>
        <time>2021-08-07T07:59:27.679Z</time>
      </trkpt>
      <trkpt lat="46.91864" lon="8.68302">
        <ele>2140</ele>
        <time>2021-08-07T07:59:28.679Z</time>
      </trkpt>
      <trkpt lat="46.91864" lon="8.68302">
        <ele>2139</ele>
        <time>2021-08-07T07:59:29.679Z</time>
      </trkpt>
      <trkpt lat="46.91864" lon="8.68302">
        <ele>2136</ele>
        <time>2021-08-07T07:59:30.680Z</time>
      </trkpt>
      <trkpt lat="46.91864" lon="8.68302">
        <ele>2136</ele>
        <time>2021-08-07T07:59:31.680Z</time>
      </trkpt>
      <trkpt lat="46.91864" lon="8.68303">
        <ele>2137</ele>
        <time>2021-08-07T07:59:32.680Z</time>
      </trkpt>
      <trkpt lat="46.91862" lon="8.68302">
        <ele>2139</ele>
        <time>2021-08-07T07:59:33.681Z</time>
      </trkpt>
      <trkpt lat="46.91862" lon="8.68302">
        <ele>2139</ele>
        <time>2021-08-07T07:59:34.680Z</time>
      </trkpt>
      <trkpt lat="46.91862" lon="8.68302">
        <ele>2138</ele>
        <time>2021-08-07T07:59:35.681Z</time>
      </trkpt>
      <trkpt lat="46.91863" lon="8.68302">
        <ele>2139</ele>
        <time>2021-08-07T07:59:36.681Z</time>
      </trkpt>
      <trkpt lat="46.91863" lon="8.68301">
        <ele>2139</ele>
        <time>2021-08-07T07:59:37.680Z</time>
      </trkpt>
      <trkpt lat="46.91864" lon="8.683">
        <ele>2138</ele>
        <time>2021-08-07T07:59:38.681Z</time>
      </trkpt>
      <trkpt lat="46.91867" lon="8.68295">
        <ele>2144</ele>
        <time>2021-08-07T07:59:39.682Z</time>
      </trkpt>
      <trkpt lat="46.91867" lon="8.68295">
        <ele>2146</ele>
        <time>2021-08-07T07:59:40.682Z</time>
      </trkpt>
      <trkpt lat="46.91868" lon="8.68294">
        <ele>2156</ele>
        <time>2021-08-07T07:59:41.681Z</time>
      </trkpt>
      <trkpt lat="46.91868" lon="8.68294">
        <ele>2156</ele>
        <time>2021-08-07T07:59:42.682Z</time>
      </trkpt>
      <trkpt lat="46.9187" lon="8.68296">
        <ele>2154</ele>
        <time>2021-08-07T07:59:43.683Z</time>
      </trkpt>
      <trkpt lat="46.9187" lon="8.68297">
        <ele>2154</ele>
        <time>2021-08-07T07:59:44.683Z</time>
      </trkpt>
      <trkpt lat="46.91869" lon="8.68298">
        <ele>2154</ele>
        <time>2021-08-07T07:59:45.682Z</time>
      </trkpt>
      <trkpt lat="46.91867" lon="8.68298">
        <ele>2149</ele>
        <time>2021-08-07T07:59:46.683Z</time>
      </trkpt>
      <trkpt lat="46.91866" lon="8.68298">
        <ele>2148</ele>
        <time>2021-08-07T07:59:47.683Z</time>
      </trkpt>
      <trkpt lat="46.91867" lon="8.68297">
        <ele>2143</ele>
        <time>2021-08-07T07:59:48.683Z</time>
      </trkpt>
      <trkpt lat="46.91868" lon="8.68298">
        <ele>2143</ele>
        <time>2021-08-07T07:59:49.684Z</time>
      </trkpt>
      <trkpt lat="46.91868" lon="8.68299">
        <ele>2144</ele>
        <time>2021-08-07T07:59:50.684Z</time>
      </trkpt>
      <trkpt lat="46.91868" lon="8.68298">
        <ele>2144</ele>
        <time>2021-08-07T07:59:51.683Z</time>
      </trkpt>
      <trkpt lat="46.91868" lon="8.68298">
        <ele>2143</ele>
        <time>2021-08-07T07:59:52.684Z</time>
      </trkpt>
      <trkpt lat="46.91866" lon="8.68299">
        <ele>2138</ele>
        <time>2021-08-07T07:59:53.684Z</time>
      </trkpt>
      <trkpt lat="46.91867" lon="8.68298">
        <ele>2138</ele>
        <time>2021-08-07T07:59:54.684Z</time>
      </trkpt>
      <trkpt lat="46.91867" lon="8.68298">
        <ele>2138</ele>
        <time>2021-08-07T07:59:55.683Z</time>
      </trkpt>
      <trkpt lat="46.91867" lon="8.68298">
        <ele>2138</ele>
        <time>2021-08-07T07:59:56.683Z</time>
      </trkpt>
      <trkpt lat="46.91864" lon="8.68299">
        <ele>2138</ele>
        <time>2021-08-07T07:59:57.685Z</time>
      </trkpt>
      <trkpt lat="46.91864" lon="8.68299">
        <ele>2138</ele>
        <time>2021-08-07T07:59:58.684Z</time>
      </trkpt>
      <trkpt lat="46.91864" lon="8.68299">
        <ele>2138</ele>
        <time>2021-08-07T07:59:59.684Z</time>
      </trkpt>
      <trkpt lat="46.91864" lon="8.68299">
        <ele>2138</ele>
        <time>2021-08-07T08:00:00.684Z</time>
      </trkpt>
      <trkpt lat="46.91864" lon="8.68298">
        <ele>2138</ele>
        <time>2021-08-07T08:00:01.685Z</time>
      </trkpt>
      <trkpt lat="46.91863" lon="8.68298">
        <ele>2138</ele>
        <time>2021-08-07T08:00:02.684Z</time>
      </trkpt>
      <trkpt lat="46.91863" lon="8.68299">
        <ele>2139</ele>
        <time>2021-08-07T08:00:03.684Z</time>
      </trkpt>
      <trkpt lat="46.91863" lon="8.68299">
        <ele>2139</ele>
        <time>2021-08-07T08:00:04.684Z</time>
      </trkpt>
      <trkpt lat="46.91861" lon="8.683">
        <ele>2137</ele>
        <time>2021-08-07T08:00:05.685Z</time>
      </trkpt>
      <trkpt lat="46.91861" lon="8.683">
        <ele>2137</ele>
        <time>2021-08-07T08:00:06.686Z</time>
      </trkpt>
      <trkpt lat="46.9186" lon="8.68302">
        <ele>2137</ele>
        <time>2021-08-07T08:00:07.686Z</time>
      </trkpt>
      <trkpt lat="46.9186" lon="8.68303">
        <ele>2137</ele>
        <time>2021-08-07T08:00:08.686Z</time>
      </trkpt>
      <trkpt lat="46.9186" lon="8.68303">
        <ele>2138</ele>
        <time>2021-08-07T08:00:09.685Z</time>
      </trkpt>
      <trkpt lat="46.9186" lon="8.68304">
        <ele>2138</ele>
        <time>2021-08-07T08:00:10.685Z</time>
      </trkpt>
      <trkpt lat="46.9186" lon="8.68303">
        <ele>2141</ele>
        <time>2021-08-07T08:00:11.687Z</time>
      </trkpt>
      <trkpt lat="46.9186" lon="8.68303">
        <ele>2141</ele>
        <time>2021-08-07T08:00:12.687Z</time>
      </trkpt>
      <trkpt lat="46.91861" lon="8.68303">
        <ele>2141</ele>
        <time>2021-08-07T08:00:13.687Z</time>
      </trkpt>
      <trkpt lat="46.91861" lon="8.68303">
        <ele>2141</ele>
        <time>2021-08-07T08:00:14.687Z</time>
      </trkpt>
      <trkpt lat="46.91861" lon="8.68302">
        <ele>2141</ele>
        <time>2021-08-07T08:00:15.687Z</time>
      </trkpt>
      <trkpt lat="46.91861" lon="8.68302">
        <ele>2141</ele>
        <time>2021-08-07T08:00:16.687Z</time>
      </trkpt>
      <trkpt lat="46.91861" lon="8.68303">
        <ele>2142</ele>
        <time>2021-08-07T08:00:17.687Z</time>
      </trkpt>
      <trkpt lat="46.91861" lon="8.68304">
        <ele>2141</ele>
        <time>2021-08-07T08:00:18.688Z</time>
      </trkpt>
      <trkpt lat="46.91861" lon="8.68304">
        <ele>2141</ele>
        <time>2021-08-07T08:00:19.688Z</time>
      </trkpt>
      <trkpt lat="46.91861" lon="8.68304">
        <ele>2138</ele>
        <time>2021-08-07T08:00:20.688Z</time>
      </trkpt>
      <trkpt lat="46.91861" lon="8.68303">
        <ele>2137</ele>
        <time>2021-08-07T08:00:21.688Z</time>
      </trkpt>
      <trkpt lat="46.9186" lon="8.68303">
        <ele>2137</ele>
        <time>2021-08-07T08:00:22.687Z</time>
      </trkpt>
      <trkpt lat="46.9186" lon="8.68303">
        <ele>2137</ele>
        <time>2021-08-07T08:00:23.688Z</time>
      </trkpt>
      <trkpt lat="46.91861" lon="8.68303">
        <ele>2136</ele>
        <time>2021-08-07T08:00:24.688Z</time>
      </trkpt>
      <trkpt lat="46.91861" lon="8.68303">
        <ele>2136</ele>
        <time>2021-08-07T08:00:25.688Z</time>
      </trkpt>
      <trkpt lat="46.91861" lon="8.68302">
        <ele>2136</ele>
        <time>2021-08-07T08:00:26.688Z</time>
      </trkpt>
      <trkpt lat="46.91864" lon="8.683">
        <ele>2136</ele>
        <time>2021-08-07T08:00:27.689Z</time>
      </trkpt>
      <trkpt lat="46.91866" lon="8.68296">
        <ele>2140</ele>
        <time>2021-08-07T08:00:28.689Z</time>
      </trkpt>
      <trkpt lat="46.91866" lon="8.68295">
        <ele>2141</ele>
        <time>2021-08-07T08:00:29.689Z</time>
      </trkpt>
      <trkpt lat="46.91863" lon="8.68297">
        <ele>2138</ele>
        <time>2021-08-07T08:00:30.690Z</time>
      </trkpt>
      <trkpt lat="46.91864" lon="8.68297">
        <ele>2138</ele>
        <time>2021-08-07T08:00:31.689Z</time>
      </trkpt>
      <trkpt lat="46.91864" lon="8.68297">
        <ele>2138</ele>
        <time>2021-08-07T08:00:32.689Z</time>
      </trkpt>
      <trkpt lat="46.91864" lon="8.68297">
        <ele>2138</ele>
        <time>2021-08-07T08:00:33.689Z</time>
      </trkpt>
      <trkpt lat="46.91864" lon="8.68298">
        <ele>2137</ele>
        <time>2021-08-07T08:00:34.690Z</time>
      </trkpt>
      <trkpt lat="46.91864" lon="8.68298">
        <ele>2137</ele>
        <time>2021-08-07T08:00:35.689Z</time>
      </trkpt>
      <trkpt lat="46.91864" lon="8.68298">
        <ele>2137</ele>
        <time>2021-08-07T08:00:36.689Z</time>
      </trkpt>
      <trkpt lat="46.91864" lon="8.68301">
        <ele>2138</ele>
        <time>2021-08-07T08:00:37.689Z</time>
      </trkpt>
      <trkpt lat="46.91866" lon="8.683">
        <ele>2137</ele>
        <time>2021-08-07T08:00:38.690Z</time>
      </trkpt>
      <trkpt lat="46.91867" lon="8.68299">
        <ele>2134</ele>
        <time>2021-08-07T08:00:39.691Z</time>
      </trkpt>
      <trkpt lat="46.91866" lon="8.68302">
        <ele>2131</ele>
        <time>2021-08-07T08:00:40.691Z</time>
      </trkpt>
      <trkpt lat="46.91866" lon="8.683">
        <ele>2132</ele>
        <time>2021-08-07T08:00:41.690Z</time>
      </trkpt>
      <trkpt lat="46.91866" lon="8.683">
        <ele>2132</ele>
        <time>2021-08-07T08:00:42.690Z</time>
      </trkpt>
      <trkpt lat="46.91866" lon="8.683">
        <ele>2132</ele>
        <time>2021-08-07T08:00:43.690Z</time>
      </trkpt>
      <trkpt lat="46.91863" lon="8.68301">
        <ele>2137</ele>
        <time>2021-08-07T08:00:44.690Z</time>
      </trkpt>
      <trkpt lat="46.91866" lon="8.68304">
        <ele>2135</ele>
        <time>2021-08-07T08:00:45.691Z</time>
      </trkpt>
      <trkpt lat="46.91866" lon="8.68304">
        <ele>2135</ele>
        <time>2021-08-07T08:00:46.690Z</time>
      </trkpt>
      <trkpt lat="46.91864" lon="8.68303">
        <ele>2136</ele>
        <time>2021-08-07T08:00:47.690Z</time>
      </trkpt>
      <trkpt lat="46.91864" lon="8.68303">
        <ele>2136</ele>
        <time>2021-08-07T08:00:48.691Z</time>
      </trkpt>
      <trkpt lat="46.91863" lon="8.68303">
        <ele>2135</ele>
        <time>2021-08-07T08:00:49.690Z</time>
      </trkpt>
      <trkpt lat="46.91863" lon="8.68303">
        <ele>2135</ele>
        <time>2021-08-07T08:00:50.690Z</time>
      </trkpt>
      <trkpt lat="46.91864" lon="8.68302">
        <ele>2135</ele>
        <time>2021-08-07T08:00:51.690Z</time>
      </trkpt>
      <trkpt lat="46.91863" lon="8.68302">
        <ele>2136</ele>
        <time>2021-08-07T08:00:52.690Z</time>
      </trkpt>
      <trkpt lat="46.91863" lon="8.68301">
        <ele>2137</ele>
        <time>2021-08-07T08:00:53.692Z</time>
      </trkpt>
      <trkpt lat="46.91863" lon="8.68301">
        <ele>2137</ele>
        <time>2021-08-07T08:00:54.692Z</time>
      </trkpt>
      <trkpt lat="46.91863" lon="8.68302">
        <ele>2137</ele>
        <time>2021-08-07T08:00:55.692Z</time>
      </trkpt>
      <trkpt lat="46.91863" lon="8.68301">
        <ele>2133</ele>
        <time>2021-08-07T08:00:59.691Z</time>
      </trkpt>
      <trkpt lat="46.91863" lon="8.68302">
        <ele>2133</ele>
        <time>2021-08-07T08:01:00.692Z</time>
      </trkpt>
      <trkpt lat="46.91862" lon="8.68302">
        <ele>2134</ele>
        <time>2021-08-07T08:01:01.691Z</time>
      </trkpt>
      <trkpt lat="46.91862" lon="8.68302">
        <ele>2134</ele>
        <time>2021-08-07T08:01:02.692Z</time>
      </trkpt>
      <trkpt lat="46.91861" lon="8.68301">
        <ele>2135</ele>
        <time>2021-08-07T08:01:03.692Z</time>
      </trkpt>
      <trkpt lat="46.91861" lon="8.68301">
        <ele>2135</ele>
        <time>2021-08-07T08:01:04.692Z</time>
      </trkpt>
      <trkpt lat="46.91861" lon="8.68301">
        <ele>2137</ele>
        <time>2021-08-07T08:01:05.692Z</time>
      </trkpt>
      <trkpt lat="46.9186" lon="8.683">
        <ele>2137</ele>
        <time>2021-08-07T08:01:06.693Z</time>
      </trkpt>
      <trkpt lat="46.91861" lon="8.683">
        <ele>2138</ele>
        <time>2021-08-07T08:01:07.692Z</time>
      </trkpt>
      <trkpt lat="46.91861" lon="8.683">
        <ele>2138</ele>
        <time>2021-08-07T08:01:08.692Z</time>
      </trkpt>
      <trkpt lat="46.91862" lon="8.68299">
        <ele>2138</ele>
        <time>2021-08-07T08:01:09.693Z</time>
      </trkpt>
      <trkpt lat="46.91862" lon="8.683">
        <ele>2138</ele>
        <time>2021-08-07T08:01:10.693Z</time>
      </trkpt>
      <trkpt lat="46.91862" lon="8.683">
        <ele>2137</ele>
        <time>2021-08-07T08:01:11.693Z</time>
      </trkpt>
      <trkpt lat="46.91862" lon="8.683">
        <ele>2137</ele>
        <time>2021-08-07T08:01:12.693Z</time>
      </trkpt>
      <trkpt lat="46.91862" lon="8.68301">
        <ele>2137</ele>
        <time>2021-08-07T08:01:13.693Z</time>
      </trkpt>
      <trkpt lat="46.91862" lon="8.68301">
        <ele>2137</ele>
        <time>2021-08-07T08:01:14.692Z</time>
      </trkpt>
      <trkpt lat="46.91862" lon="8.68301">
        <ele>2137</ele>
        <time>2021-08-07T08:01:15.692Z</time>
      </trkpt>
      <trkpt lat="46.91862" lon="8.68302">
        <ele>2137</ele>
        <time>2021-08-07T08:01:16.692Z</time>
      </trkpt>
      <trkpt lat="46.91862" lon="8.68303">
        <ele>2137</ele>
        <time>2021-08-07T08:01:17.693Z</time>
      </trkpt>
      <trkpt lat="46.91862" lon="8.68304">
        <ele>2137</ele>
        <time>2021-08-07T08:01:18.692Z</time>
      </trkpt>
      <trkpt lat="46.91862" lon="8.68305">
        <ele>2136</ele>
        <time>2021-08-07T08:01:19.693Z</time>
      </trkpt>
      <trkpt lat="46.91861" lon="8.68305">
        <ele>2136</ele>
        <time>2021-08-07T08:01:20.694Z</time>
      </trkpt>
      <trkpt lat="46.91862" lon="8.68304">
        <ele>2133</ele>
        <time>2021-08-07T08:01:21.693Z</time>
      </trkpt>
      <trkpt lat="46.91862" lon="8.68303">
        <ele>2133</ele>
        <time>2021-08-07T08:01:22.693Z</time>
      </trkpt>
      <trkpt lat="46.91863" lon="8.68302">
        <ele>2133</ele>
        <time>2021-08-07T08:01:23.693Z</time>
      </trkpt>
      <trkpt lat="46.91864" lon="8.68299">
        <ele>2138</ele>
        <time>2021-08-07T08:01:24.694Z</time>
      </trkpt>
      <trkpt lat="46.91864" lon="8.683">
        <ele>2138</ele>
        <time>2021-08-07T08:01:25.693Z</time>
      </trkpt>
      <trkpt lat="46.91863" lon="8.68301">
        <ele>2139</ele>
        <time>2021-08-07T08:01:26.694Z</time>
      </trkpt>
      <trkpt lat="46.91863" lon="8.68301">
        <ele>2139</ele>
        <time>2021-08-07T08:01:27.694Z</time>
      </trkpt>
      <trkpt lat="46.91863" lon="8.68301">
        <ele>2139</ele>
        <time>2021-08-07T08:01:28.693Z</time>
      </trkpt>
      <trkpt lat="46.91864" lon="8.68301">
        <ele>2140</ele>
        <time>2021-08-07T08:01:29.693Z</time>
      </trkpt>
      <trkpt lat="46.91864" lon="8.683">
        <ele>2138</ele>
        <time>2021-08-07T08:01:30.694Z</time>
      </trkpt>
      <trkpt lat="46.91863" lon="8.683">
        <ele>2139</ele>
        <time>2021-08-07T08:01:31.694Z</time>
      </trkpt>
      <trkpt lat="46.91863" lon="8.683">
        <ele>2139</ele>
        <time>2021-08-07T08:01:32.694Z</time>
      </trkpt>
      <trkpt lat="46.91862" lon="8.68301">
        <ele>2139</ele>
        <time>2021-08-07T08:01:33.694Z</time>
      </trkpt>
      <trkpt lat="46.91862" lon="8.68301">
        <ele>2139</ele>
        <time>2021-08-07T08:01:34.693Z</time>
      </trkpt>
      <trkpt lat="46.91862" lon="8.68301">
        <ele>2139</ele>
        <time>2021-08-07T08:01:35.693Z</time>
      </trkpt>
      <trkpt lat="46.91862" lon="8.68302">
        <ele>2135</ele>
        <time>2021-08-07T08:01:36.693Z</time>
      </trkpt>
      <trkpt lat="46.91862" lon="8.68302">
        <ele>2136</ele>
        <time>2021-08-07T08:01:37.694Z</time>
      </trkpt>
      <trkpt lat="46.91862" lon="8.68301">
        <ele>2138</ele>
        <time>2021-08-07T08:01:38.695Z</time>
      </trkpt>
      <trkpt lat="46.91862" lon="8.68301">
        <ele>2138</ele>
        <time>2021-08-07T08:01:39.695Z</time>
      </trkpt>
      <trkpt lat="46.91862" lon="8.68301">
        <ele>2139</ele>
        <time>2021-08-07T08:01:40.694Z</time>
      </trkpt>
      <trkpt lat="46.91864" lon="8.68303">
        <ele>2136</ele>
        <time>2021-08-07T08:01:41.694Z</time>
      </trkpt>
      <trkpt lat="46.91864" lon="8.68303">
        <ele>2137</ele>
        <time>2021-08-07T08:01:42.694Z</time>
      </trkpt>
      <trkpt lat="46.9186" lon="8.68302">
        <ele>2136</ele>
        <time>2021-08-07T08:01:43.694Z</time>
      </trkpt>
      <trkpt lat="46.9186" lon="8.68302">
        <ele>2136</ele>
        <time>2021-08-07T08:01:44.695Z</time>
      </trkpt>
      <trkpt lat="46.91863" lon="8.68301">
        <ele>2134</ele>
        <time>2021-08-07T08:01:45.695Z</time>
      </trkpt>
      <trkpt lat="46.91863" lon="8.68302">
        <ele>2139</ele>
        <time>2021-08-07T08:01:46.696Z</time>
      </trkpt>
      <trkpt lat="46.91863" lon="8.68302">
        <ele>2139</ele>
        <time>2021-08-07T08:01:47.695Z</time>
      </trkpt>
      <trkpt lat="46.91862" lon="8.68302">
        <ele>2137</ele>
        <time>2021-08-07T08:01:48.695Z</time>
      </trkpt>
      <trkpt lat="46.91862" lon="8.68302">
        <ele>2137</ele>
        <time>2021-08-07T08:01:49.695Z</time>
      </trkpt>
      <trkpt lat="46.91862" lon="8.68302">
        <ele>2136</ele>
        <time>2021-08-07T08:01:50.695Z</time>
      </trkpt>
      <trkpt lat="46.91862" lon="8.68302">
        <ele>2136</ele>
        <time>2021-08-07T08:01:51.696Z</time>
      </trkpt>
      <trkpt lat="46.91862" lon="8.68302">
        <ele>2136</ele>
        <time>2021-08-07T08:01:52.696Z</time>
      </trkpt>
      <trkpt lat="46.91862" lon="8.68301">
        <ele>2136</ele>
        <time>2021-08-07T08:01:53.695Z</time>
      </trkpt>
      <trkpt lat="46.91863" lon="8.683">
        <ele>2144</ele>
        <time>2021-08-07T08:01:54.696Z</time>
      </trkpt>
      <trkpt lat="46.91863" lon="8.683">
        <ele>2144</ele>
        <time>2021-08-07T08:01:55.695Z</time>
      </trkpt>
      <trkpt lat="46.91865" lon="8.68303">
        <ele>2139</ele>
        <time>2021-08-07T08:01:56.696Z</time>
      </trkpt>
      <trkpt lat="46.91865" lon="8.68303">
        <ele>2139</ele>
        <time>2021-08-07T08:01:57.695Z</time>
      </trkpt>
      <trkpt lat="46.91862" lon="8.68303">
        <ele>2137</ele>
        <time>2021-08-07T08:01:58.696Z</time>
      </trkpt>
      <trkpt lat="46.91863" lon="8.68303">
        <ele>2138</ele>
        <time>2021-08-07T08:01:59.696Z</time>
      </trkpt>
      <trkpt lat="46.91863" lon="8.68302">
        <ele>2138</ele>
        <time>2021-08-07T08:02:00.695Z</time>
      </trkpt>
      <trkpt lat="46.91863" lon="8.68302">
        <ele>2138</ele>
        <time>2021-08-07T08:02:01.695Z</time>
      </trkpt>
      <trkpt lat="46.91863" lon="8.68301">
        <ele>2138</ele>
        <time>2021-08-07T08:02:02.695Z</time>
      </trkpt>
      <trkpt lat="46.91863" lon="8.683">
        <ele>2138</ele>
        <time>2021-08-07T08:02:03.695Z</time>
      </trkpt>
      <trkpt lat="46.91863" lon="8.683">
        <ele>2138</ele>
        <time>2021-08-07T08:02:04.696Z</time>
      </trkpt>
      <trkpt lat="46.91863" lon="8.683">
        <ele>2138</ele>
        <time>2021-08-07T08:02:05.696Z</time>
      </trkpt>
      <trkpt lat="46.91864" lon="8.683">
        <ele>2138</ele>
        <time>2021-08-07T08:02:06.696Z</time>
      </trkpt>
      <trkpt lat="46.91864" lon="8.683">
        <ele>2139</ele>
        <time>2021-08-07T08:02:07.695Z</time>
      </trkpt>
      <trkpt lat="46.91864" lon="8.683">
        <ele>2139</ele>
        <time>2021-08-07T08:02:08.696Z</time>
      </trkpt>
      <trkpt lat="46.91865" lon="8.683">
        <ele>2140</ele>
        <time>2021-08-07T08:02:09.696Z</time>
      </trkpt>
      <trkpt lat="46.91865" lon="8.683">
        <ele>2141</ele>
        <time>2021-08-07T08:02:10.696Z</time>
      </trkpt>
      <trkpt lat="46.91866" lon="8.68299">
        <ele>2141</ele>
        <time>2021-08-07T08:02:11.696Z</time>
      </trkpt>
      <trkpt lat="46.91866" lon="8.68299">
        <ele>2142</ele>
        <time>2021-08-07T08:02:12.696Z</time>
      </trkpt>
      <trkpt lat="46.91866" lon="8.68299">
        <ele>2142</ele>
        <time>2021-08-07T08:02:13.696Z</time>
      </trkpt>
      <trkpt lat="46.91866" lon="8.68299">
        <ele>2141</ele>
        <time>2021-08-07T08:02:14.695Z</time>
      </trkpt>
      <trkpt lat="46.91866" lon="8.68299">
        <ele>2141</ele>
        <time>2021-08-07T08:02:15.696Z</time>
      </trkpt>
      <trkpt lat="46.91866" lon="8.68299">
        <ele>2140</ele>
        <time>2021-08-07T08:02:16.695Z</time>
      </trkpt>
      <trkpt lat="46.91866" lon="8.68299">
        <ele>2139</ele>
        <time>2021-08-07T08:02:17.696Z</time>
      </trkpt>
      <trkpt lat="46.91866" lon="8.68299">
        <ele>2138</ele>
        <time>2021-08-07T08:02:18.696Z</time>
      </trkpt>
      <trkpt lat="46.91866" lon="8.68299">
        <ele>2138</ele>
        <time>2021-08-07T08:02:19.696Z</time>
      </trkpt>
      <trkpt lat="46.91866" lon="8.68299">
        <ele>2138</ele>
        <time>2021-08-07T08:02:20.696Z</time>
      </trkpt>
      <trkpt lat="46.91866" lon="8.68299">
        <ele>2138</ele>
        <time>2021-08-07T08:02:21.695Z</time>
      </trkpt>
      <trkpt lat="46.91866" lon="8.68299">
        <ele>2138</ele>
        <time>2021-08-07T08:02:22.695Z</time>
      </trkpt>
      <trkpt lat="46.91866" lon="8.68299">
        <ele>2138</ele>
        <time>2021-08-07T08:02:23.696Z</time>
      </trkpt>
      <trkpt lat="46.91866" lon="8.683">
        <ele>2138</ele>
        <time>2021-08-07T08:02:24.695Z</time>
      </trkpt>
      <trkpt lat="46.91866" lon="8.683">
        <ele>2138</ele>
        <time>2021-08-07T08:02:25.696Z</time>
      </trkpt>
      <trkpt lat="46.91866" lon="8.683">
        <ele>2139</ele>
        <time>2021-08-07T08:02:26.696Z</time>
      </trkpt>
      <trkpt lat="46.91866" lon="8.683">
        <ele>2139</ele>
        <time>2021-08-07T08:02:27.696Z</time>
      </trkpt>
      <trkpt lat="46.91866" lon="8.683">
        <ele>2138</ele>
        <time>2021-08-07T08:02:28.696Z</time>
      </trkpt>
      <trkpt lat="46.91866" lon="8.683">
        <ele>2138</ele>
        <time>2021-08-07T08:02:29.695Z</time>
      </trkpt>
      <trkpt lat="46.91865" lon="8.683">
        <ele>2138</ele>
        <time>2021-08-07T08:02:30.695Z</time>
      </trkpt>
      <trkpt lat="46.91865" lon="8.683">
        <ele>2137</ele>
        <time>2021-08-07T08:02:31.696Z</time>
      </trkpt>
      <trkpt lat="46.91865" lon="8.683">
        <ele>2137</ele>
        <time>2021-08-07T08:02:32.695Z</time>
      </trkpt>
      <trkpt lat="46.91865" lon="8.683">
        <ele>2137</ele>
        <time>2021-08-07T08:02:33.695Z</time>
      </trkpt>
      <trkpt lat="46.91865" lon="8.683">
        <ele>2137</ele>
        <time>2021-08-07T08:02:34.696Z</time>
      </trkpt>
      <trkpt lat="46.91865" lon="8.683">
        <ele>2137</ele>
        <time>2021-08-07T08:02:35.696Z</time>
      </trkpt>
      <trkpt lat="46.91865" lon="8.683">
        <ele>2137</ele>
        <time>2021-08-07T08:02:36.696Z</time>
      </trkpt>
      <trkpt lat="46.91865" lon="8.683">
        <ele>2138</ele>
        <time>2021-08-07T08:02:37.695Z</time>
      </trkpt>
      <trkpt lat="46.91865" lon="8.68301">
        <ele>2138</ele>
        <time>2021-08-07T08:02:38.695Z</time>
      </trkpt>
      <trkpt lat="46.91866" lon="8.68301">
        <ele>2138</ele>
        <time>2021-08-07T08:02:39.695Z</time>
      </trkpt>
      <trkpt lat="46.91866" lon="8.68301">
        <ele>2138</ele>
        <time>2021-08-07T08:02:40.695Z</time>
      </trkpt>
      <trkpt lat="46.91866" lon="8.683">
        <ele>2137</ele>
        <time>2021-08-07T08:02:41.695Z</time>
      </trkpt>
      <trkpt lat="46.91865" lon="8.683">
        <ele>2137</ele>
        <time>2021-08-07T08:02:42.695Z</time>
      </trkpt>
      <trkpt lat="46.91865" lon="8.683">
        <ele>2138</ele>
        <time>2021-08-07T08:02:43.695Z</time>
      </trkpt>
      <trkpt lat="46.91865" lon="8.68301">
        <ele>2138</ele>
        <time>2021-08-07T08:02:44.696Z</time>
      </trkpt>
      <trkpt lat="46.91864" lon="8.68301">
        <ele>2138</ele>
        <time>2021-08-07T08:02:45.695Z</time>
      </trkpt>
      <trkpt lat="46.91864" lon="8.68302">
        <ele>2138</ele>
        <time>2021-08-07T08:02:46.695Z</time>
      </trkpt>
      <trkpt lat="46.91864" lon="8.68302">
        <ele>2138</ele>
        <time>2021-08-07T08:02:47.695Z</time>
      </trkpt>
      <trkpt lat="46.91864" lon="8.68302">
        <ele>2138</ele>
        <time>2021-08-07T08:02:48.696Z</time>
      </trkpt>
      <trkpt lat="46.91862" lon="8.68301">
        <ele>2138</ele>
        <time>2021-08-07T08:02:49.696Z</time>
      </trkpt>
      <trkpt lat="46.91862" lon="8.68302">
        <ele>2137</ele>
        <time>2021-08-07T08:02:50.696Z</time>
      </trkpt>
      <trkpt lat="46.91862" lon="8.68302">
        <ele>2137</ele>
        <time>2021-08-07T08:02:51.696Z</time>
      </trkpt>
      <trkpt lat="46.91862" lon="8.68302">
        <ele>2137</ele>
        <time>2021-08-07T08:02:52.696Z</time>
      </trkpt>
      <trkpt lat="46.91862" lon="8.68301">
        <ele>2137</ele>
        <time>2021-08-07T08:02:53.695Z</time>
      </trkpt>
      <trkpt lat="46.91862" lon="8.68301">
        <ele>2138</ele>
        <time>2021-08-07T08:02:54.696Z</time>
      </trkpt>
      <trkpt lat="46.91862" lon="8.683">
        <ele>2138</ele>
        <time>2021-08-07T08:02:55.696Z</time>
      </trkpt>
      <trkpt lat="46.91863" lon="8.68301">
        <ele>2138</ele>
        <time>2021-08-07T08:02:56.697Z</time>
      </trkpt>
      <trkpt lat="46.91863" lon="8.68301">
        <ele>2138</ele>
        <time>2021-08-07T08:02:57.697Z</time>
      </trkpt>
      <trkpt lat="46.91863" lon="8.68301">
        <ele>2139</ele>
        <time>2021-08-07T08:02:58.697Z</time>
      </trkpt>
      <trkpt lat="46.91863" lon="8.68301">
        <ele>2137</ele>
        <time>2021-08-07T08:02:59.699Z</time>
      </trkpt>
      <trkpt lat="46.91863" lon="8.68301">
        <ele>2137</ele>
        <time>2021-08-07T08:03:00.698Z</time>
      </trkpt>
      <trkpt lat="46.91863" lon="8.683">
        <ele>2137</ele>
        <time>2021-08-07T08:03:01.698Z</time>
      </trkpt>
      <trkpt lat="46.91864" lon="8.683">
        <ele>2137</ele>
        <time>2021-08-07T08:03:02.699Z</time>
      </trkpt>
      <trkpt lat="46.91864" lon="8.683">
        <ele>2137</ele>
        <time>2021-08-07T08:03:03.698Z</time>
      </trkpt>
      <trkpt lat="46.91864" lon="8.68299">
        <ele>2137</ele>
        <time>2021-08-07T08:03:04.699Z</time>
      </trkpt>
      <trkpt lat="46.91864" lon="8.68299">
        <ele>2138</ele>
        <time>2021-08-07T08:03:05.699Z</time>
      </trkpt>
      <trkpt lat="46.91865" lon="8.683">
        <ele>2138</ele>
        <time>2021-08-07T08:03:06.699Z</time>
      </trkpt>
      <trkpt lat="46.91864" lon="8.683">
        <ele>2138</ele>
        <time>2021-08-07T08:03:07.699Z</time>
      </trkpt>
      <trkpt lat="46.91864" lon="8.683">
        <ele>2138</ele>
        <time>2021-08-07T08:03:08.698Z</time>
      </trkpt>
      <trkpt lat="46.91862" lon="8.68302">
        <ele>2138</ele>
        <time>2021-08-07T08:03:09.699Z</time>
      </trkpt>
      <trkpt lat="46.91862" lon="8.68302">
        <ele>2138</ele>
        <time>2021-08-07T08:03:10.699Z</time>
      </trkpt>
      <trkpt lat="46.91863" lon="8.68301">
        <ele>2139</ele>
        <time>2021-08-07T08:03:11.700Z</time>
      </trkpt>
      <trkpt lat="46.91863" lon="8.68301">
        <ele>2140</ele>
        <time>2021-08-07T08:03:12.700Z</time>
      </trkpt>
      <trkpt lat="46.91862" lon="8.68302">
        <ele>2137</ele>
        <time>2021-08-07T08:03:13.699Z</time>
      </trkpt>
      <trkpt lat="46.91863" lon="8.68302">
        <ele>2137</ele>
        <time>2021-08-07T08:03:14.699Z</time>
      </trkpt>
      <trkpt lat="46.91862" lon="8.683">
        <ele>2134</ele>
        <time>2021-08-07T08:03:15.700Z</time>
      </trkpt>
      <trkpt lat="46.91862" lon="8.68301">
        <ele>2135</ele>
        <time>2021-08-07T08:03:16.699Z</time>
      </trkpt>
      <trkpt lat="46.91863" lon="8.68302">
        <ele>2135</ele>
        <time>2021-08-07T08:03:17.699Z</time>
      </trkpt>
      <trkpt lat="46.91862" lon="8.683">
        <ele>2137</ele>
        <time>2021-08-07T08:03:18.701Z</time>
      </trkpt>
      <trkpt lat="46.91862" lon="8.683">
        <ele>2137</ele>
        <time>2021-08-07T08:03:19.701Z</time>
      </trkpt>
      <trkpt lat="46.91862" lon="8.683">
        <ele>2138</ele>
        <time>2021-08-07T08:03:20.700Z</time>
      </trkpt>
      <trkpt lat="46.91862" lon="8.68298">
        <ele>2138</ele>
        <time>2021-08-07T08:03:21.701Z</time>
      </trkpt>
      <trkpt lat="46.91862" lon="8.68298">
        <ele>2138</ele>
        <time>2021-08-07T08:03:22.701Z</time>
      </trkpt>
      <trkpt lat="46.91862" lon="8.68301">
        <ele>2139</ele>
        <time>2021-08-07T08:03:23.701Z</time>
      </trkpt>
      <trkpt lat="46.91862" lon="8.68301">
        <ele>2140</ele>
        <time>2021-08-07T08:03:24.701Z</time>
      </trkpt>
      <trkpt lat="46.91862" lon="8.68302">
        <ele>2141</ele>
        <time>2021-08-07T08:03:25.700Z</time>
      </trkpt>
      <trkpt lat="46.91862" lon="8.68302">
        <ele>2141</ele>
        <time>2021-08-07T08:03:26.701Z</time>
      </trkpt>
      <trkpt lat="46.91862" lon="8.68303">
        <ele>2140</ele>
        <time>2021-08-07T08:03:27.701Z</time>
      </trkpt>
      <trkpt lat="46.91862" lon="8.68303">
        <ele>2139</ele>
        <time>2021-08-07T08:03:28.701Z</time>
      </trkpt>
      <trkpt lat="46.91862" lon="8.68303">
        <ele>2139</ele>
        <time>2021-08-07T08:03:29.700Z</time>
      </trkpt>
      <trkpt lat="46.91862" lon="8.68303">
        <ele>2139</ele>
        <time>2021-08-07T08:03:30.700Z</time>
      </trkpt>
      <trkpt lat="46.91862" lon="8.68303">
        <ele>2139</ele>
        <time>2021-08-07T08:03:31.701Z</time>
      </trkpt>
      <trkpt lat="46.91862" lon="8.68303">
        <ele>2139</ele>
        <time>2021-08-07T08:03:32.701Z</time>
      </trkpt>
      <trkpt lat="46.91862" lon="8.68303">
        <ele>2139</ele>
        <time>2021-08-07T08:03:33.700Z</time>
      </trkpt>
      <trkpt lat="46.91862" lon="8.68303">
        <ele>2140</ele>
        <time>2021-08-07T08:03:34.701Z</time>
      </trkpt>
      <trkpt lat="46.91862" lon="8.68303">
        <ele>2140</ele>
        <time>2021-08-07T08:03:35.701Z</time>
      </trkpt>
      <trkpt lat="46.91862" lon="8.68303">
        <ele>2140</ele>
        <time>2021-08-07T08:03:36.701Z</time>
      </trkpt>
      <trkpt lat="46.91862" lon="8.68302">
        <ele>2139</ele>
        <time>2021-08-07T08:03:37.702Z</time>
      </trkpt>
      <trkpt lat="46.91862" lon="8.68302">
        <ele>2139</ele>
        <time>2021-08-07T08:03:38.702Z</time>
      </trkpt>
      <trkpt lat="46.91862" lon="8.68303">
        <ele>2141</ele>
        <time>2021-08-07T08:03:39.702Z</time>
      </trkpt>
      <trkpt lat="46.91862" lon="8.68303">
        <ele>2141</ele>
        <time>2021-08-07T08:03:40.701Z</time>
      </trkpt>
      <trkpt lat="46.91861" lon="8.68303">
        <ele>2140</ele>
        <time>2021-08-07T08:03:41.701Z</time>
      </trkpt>
      <trkpt lat="46.91861" lon="8.68303">
        <ele>2139</ele>
        <time>2021-08-07T08:03:42.701Z</time>
      </trkpt>
      <trkpt lat="46.91861" lon="8.68304">
        <ele>2138</ele>
        <time>2021-08-07T08:03:43.701Z</time>
      </trkpt>
      <trkpt lat="46.91861" lon="8.68304">
        <ele>2138</ele>
        <time>2021-08-07T08:03:44.701Z</time>
      </trkpt>
      <trkpt lat="46.91862" lon="8.68304">
        <ele>2140</ele>
        <time>2021-08-07T08:03:45.701Z</time>
      </trkpt>
      <trkpt lat="46.91862" lon="8.68304">
        <ele>2141</ele>
        <time>2021-08-07T08:03:46.701Z</time>
      </trkpt>
      <trkpt lat="46.91862" lon="8.68303">
        <ele>2141</ele>
        <time>2021-08-07T08:03:47.702Z</time>
      </trkpt>
      <trkpt lat="46.91861" lon="8.68303">
        <ele>2141</ele>
        <time>2021-08-07T08:03:48.702Z</time>
      </trkpt>
      <trkpt lat="46.91861" lon="8.68303">
        <ele>2141</ele>
        <time>2021-08-07T08:03:49.701Z</time>
      </trkpt>
      <trkpt lat="46.91862" lon="8.68302">
        <ele>2139</ele>
        <time>2021-08-07T08:03:50.704Z</time>
      </trkpt>
      <trkpt lat="46.91862" lon="8.68302">
        <ele>2139</ele>
        <time>2021-08-07T08:03:51.703Z</time>
      </trkpt>
      <trkpt lat="46.91861" lon="8.68301">
        <ele>2139</ele>
        <time>2021-08-07T08:03:52.704Z</time>
      </trkpt>
      <trkpt lat="46.91861" lon="8.68301">
        <ele>2140</ele>
        <time>2021-08-07T08:03:53.703Z</time>
      </trkpt>
      <trkpt lat="46.9186" lon="8.68301">
        <ele>2140</ele>
        <time>2021-08-07T08:03:54.704Z</time>
      </trkpt>
      <trkpt lat="46.91861" lon="8.68299">
        <ele>2140</ele>
        <time>2021-08-07T08:03:55.704Z</time>
      </trkpt>
      <trkpt lat="46.91862" lon="8.68299">
        <ele>2140</ele>
        <time>2021-08-07T08:03:56.704Z</time>
      </trkpt>
      <trkpt lat="46.91862" lon="8.68298">
        <ele>2141</ele>
        <time>2021-08-07T08:03:57.703Z</time>
      </trkpt>
      <trkpt lat="46.91862" lon="8.68297">
        <ele>2141</ele>
        <time>2021-08-07T08:03:58.704Z</time>
      </trkpt>
      <trkpt lat="46.91862" lon="8.68296">
        <ele>2141</ele>
        <time>2021-08-07T08:03:59.704Z</time>
      </trkpt>
      <trkpt lat="46.91861" lon="8.68294">
        <ele>2141</ele>
        <time>2021-08-07T08:04:00.704Z</time>
      </trkpt>
      <trkpt lat="46.91861" lon="8.68294">
        <ele>2140</ele>
        <time>2021-08-07T08:04:01.704Z</time>
      </trkpt>
      <trkpt lat="46.91861" lon="8.68293">
        <ele>2140</ele>
        <time>2021-08-07T08:04:02.704Z</time>
      </trkpt>
      <trkpt lat="46.9186" lon="8.68291">
        <ele>2139</ele>
        <time>2021-08-07T08:04:03.704Z</time>
      </trkpt>
      <trkpt lat="46.9186" lon="8.6829">
        <ele>2139</ele>
        <time>2021-08-07T08:04:04.704Z</time>
      </trkpt>
      <trkpt lat="46.91859" lon="8.68289">
        <ele>2139</ele>
        <time>2021-08-07T08:04:05.703Z</time>
      </trkpt>
      <trkpt lat="46.91859" lon="8.68288">
        <ele>2139</ele>
        <time>2021-08-07T08:04:06.704Z</time>
      </trkpt>
      <trkpt lat="46.91859" lon="8.68287">
        <ele>2139</ele>
        <time>2021-08-07T08:04:07.704Z</time>
      </trkpt>
      <trkpt lat="46.91859" lon="8.68286">
        <ele>2139</ele>
        <time>2021-08-07T08:04:08.703Z</time>
      </trkpt>
      <trkpt lat="46.91859" lon="8.68285">
        <ele>2139</ele>
        <time>2021-08-07T08:04:09.704Z</time>
      </trkpt>
      <trkpt lat="46.9186" lon="8.68284">
        <ele>2139</ele>
        <time>2021-08-07T08:04:10.703Z</time>
      </trkpt>
      <trkpt lat="46.9186" lon="8.68283">
        <ele>2139</ele>
        <time>2021-08-07T08:04:11.703Z</time>
      </trkpt>
      <trkpt lat="46.91861" lon="8.68282">
        <ele>2140</ele>
        <time>2021-08-07T08:04:12.704Z</time>
      </trkpt>
      <trkpt lat="46.91862" lon="8.68281">
        <ele>2140</ele>
        <time>2021-08-07T08:04:13.703Z</time>
      </trkpt>
      <trkpt lat="46.91862" lon="8.6828">
        <ele>2140</ele>
        <time>2021-08-07T08:04:14.704Z</time>
      </trkpt>
      <trkpt lat="46.91863" lon="8.68279">
        <ele>2141</ele>
        <time>2021-08-07T08:04:15.704Z</time>
      </trkpt>
      <trkpt lat="46.91863" lon="8.68278">
        <ele>2141</ele>
        <time>2021-08-07T08:04:16.703Z</time>
      </trkpt>
      <trkpt lat="46.91863" lon="8.68276">
        <ele>2141</ele>
        <time>2021-08-07T08:04:17.704Z</time>
      </trkpt>
      <trkpt lat="46.91863" lon="8.68275">
        <ele>2141</ele>
        <time>2021-08-07T08:04:18.704Z</time>
      </trkpt>
      <trkpt lat="46.91863" lon="8.68273">
        <ele>2140</ele>
        <time>2021-08-07T08:04:19.704Z</time>
      </trkpt>
      <trkpt lat="46.91864" lon="8.68272">
        <ele>2139</ele>
        <time>2021-08-07T08:04:20.703Z</time>
      </trkpt>
      <trkpt lat="46.91864" lon="8.68271">
        <ele>2139</ele>
        <time>2021-08-07T08:04:21.704Z</time>
      </trkpt>
      <trkpt lat="46.91863" lon="8.68269">
        <ele>2139</ele>
        <time>2021-08-07T08:04:22.703Z</time>
      </trkpt>
      <trkpt lat="46.91862" lon="8.68268">
        <ele>2139</ele>
        <time>2021-08-07T08:04:23.704Z</time>
      </trkpt>
      <trkpt lat="46.91862" lon="8.68266">
        <ele>2139</ele>
        <time>2021-08-07T08:04:24.704Z</time>
      </trkpt>
      <trkpt lat="46.91861" lon="8.68265">
        <ele>2139</ele>
        <time>2021-08-07T08:04:25.704Z</time>
      </trkpt>
      <trkpt lat="46.91861" lon="8.68263">
        <ele>2138</ele>
        <time>2021-08-07T08:04:26.704Z</time>
      </trkpt>
      <trkpt lat="46.9186" lon="8.68262">
        <ele>2137</ele>
        <time>2021-08-07T08:04:27.703Z</time>
      </trkpt>
      <trkpt lat="46.9186" lon="8.68261">
        <ele>2137</ele>
        <time>2021-08-07T08:04:28.704Z</time>
      </trkpt>
      <trkpt lat="46.9186" lon="8.68259">
        <ele>2136</ele>
        <time>2021-08-07T08:04:29.704Z</time>
      </trkpt>
      <trkpt lat="46.91859" lon="8.68258">
        <ele>2136</ele>
        <time>2021-08-07T08:04:30.704Z</time>
      </trkpt>
      <trkpt lat="46.91859" lon="8.68257">
        <ele>2136</ele>
        <time>2021-08-07T08:04:31.703Z</time>
      </trkpt>
      <trkpt lat="46.91858" lon="8.68257">
        <ele>2136</ele>
        <time>2021-08-07T08:04:32.703Z</time>
      </trkpt>
      <trkpt lat="46.91858" lon="8.68255">
        <ele>2136</ele>
        <time>2021-08-07T08:04:33.704Z</time>
      </trkpt>
      <trkpt lat="46.91857" lon="8.68254">
        <ele>2136</ele>
        <time>2021-08-07T08:04:34.704Z</time>
      </trkpt>
      <trkpt lat="46.91856" lon="8.68253">
        <ele>2136</ele>
        <time>2021-08-07T08:04:35.704Z</time>
      </trkpt>
      <trkpt lat="46.91856" lon="8.68252">
        <ele>2136</ele>
        <time>2021-08-07T08:04:36.703Z</time>
      </trkpt>
      <trkpt lat="46.91855" lon="8.68251">
        <ele>2136</ele>
        <time>2021-08-07T08:04:37.704Z</time>
      </trkpt>
      <trkpt lat="46.91854" lon="8.68249">
        <ele>2136</ele>
        <time>2021-08-07T08:04:38.704Z</time>
      </trkpt>
      <trkpt lat="46.91853" lon="8.68248">
        <ele>2135</ele>
        <time>2021-08-07T08:04:39.704Z</time>
      </trkpt>
      <trkpt lat="46.91852" lon="8.68248">
        <ele>2135</ele>
        <time>2021-08-07T08:04:40.703Z</time>
      </trkpt>
      <trkpt lat="46.91851" lon="8.68247">
        <ele>2134</ele>
        <time>2021-08-07T08:04:41.704Z</time>
      </trkpt>
      <trkpt lat="46.9185" lon="8.68247">
        <ele>2134</ele>
        <time>2021-08-07T08:04:42.704Z</time>
      </trkpt>
      <trkpt lat="46.91849" lon="8.68246">
        <ele>2134</ele>
        <time>2021-08-07T08:04:43.703Z</time>
      </trkpt>
      <trkpt lat="46.91848" lon="8.68246">
        <ele>2134</ele>
        <time>2021-08-07T08:04:44.703Z</time>
      </trkpt>
      <trkpt lat="46.91847" lon="8.68245">
        <ele>2134</ele>
        <time>2021-08-07T08:04:45.703Z</time>
      </trkpt>
      <trkpt lat="46.91847" lon="8.68244">
        <ele>2134</ele>
        <time>2021-08-07T08:04:46.704Z</time>
      </trkpt>
      <trkpt lat="46.91846" lon="8.68244">
        <ele>2134</ele>
        <time>2021-08-07T08:04:47.704Z</time>
      </trkpt>
      <trkpt lat="46.91846" lon="8.68243">
        <ele>2135</ele>
        <time>2021-08-07T08:04:48.703Z</time>
      </trkpt>
      <trkpt lat="46.91846" lon="8.68243">
        <ele>2135</ele>
        <time>2021-08-07T08:04:49.704Z</time>
      </trkpt>
      <trkpt lat="46.91845" lon="8.68242">
        <ele>2135</ele>
        <time>2021-08-07T08:04:50.704Z</time>
      </trkpt>
      <trkpt lat="46.91844" lon="8.68242">
        <ele>2135</ele>
        <time>2021-08-07T08:04:51.704Z</time>
      </trkpt>
      <trkpt lat="46.91844" lon="8.68242">
        <ele>2135</ele>
        <time>2021-08-07T08:04:52.704Z</time>
      </trkpt>
      <trkpt lat="46.91843" lon="8.68242">
        <ele>2135</ele>
        <time>2021-08-07T08:04:53.704Z</time>
      </trkpt>
      <trkpt lat="46.91842" lon="8.68241">
        <ele>2135</ele>
        <time>2021-08-07T08:04:54.704Z</time>
      </trkpt>
      <trkpt lat="46.91842" lon="8.68241">
        <ele>2135</ele>
        <time>2021-08-07T08:04:55.703Z</time>
      </trkpt>
      <trkpt lat="46.91841" lon="8.6824">
        <ele>2136</ele>
        <time>2021-08-07T08:04:56.704Z</time>
      </trkpt>
      <trkpt lat="46.9184" lon="8.6824">
        <ele>2136</ele>
        <time>2021-08-07T08:04:57.704Z</time>
      </trkpt>
      <trkpt lat="46.91839" lon="8.68239">
        <ele>2136</ele>
        <time>2021-08-07T08:04:58.704Z</time>
      </trkpt>
      <trkpt lat="46.91839" lon="8.68238">
        <ele>2137</ele>
        <time>2021-08-07T08:04:59.704Z</time>
      </trkpt>
      <trkpt lat="46.91838" lon="8.68238">
        <ele>2137</ele>
        <time>2021-08-07T08:05:00.704Z</time>
      </trkpt>
      <trkpt lat="46.91837" lon="8.68237">
        <ele>2137</ele>
        <time>2021-08-07T08:05:01.703Z</time>
      </trkpt>
      <trkpt lat="46.91837" lon="8.68236">
        <ele>2136</ele>
        <time>2021-08-07T08:05:02.704Z</time>
      </trkpt>
      <trkpt lat="46.91836" lon="8.68235">
        <ele>2136</ele>
        <time>2021-08-07T08:05:03.704Z</time>
      </trkpt>
      <trkpt lat="46.91835" lon="8.68234">
        <ele>2136</ele>
        <time>2021-08-07T08:05:04.704Z</time>
      </trkpt>
      <trkpt lat="46.91834" lon="8.68233">
        <ele>2136</ele>
        <time>2021-08-07T08:05:05.703Z</time>
      </trkpt>
      <trkpt lat="46.91834" lon="8.68233">
        <ele>2136</ele>
        <time>2021-08-07T08:05:06.704Z</time>
      </trkpt>
      <trkpt lat="46.91833" lon="8.68233">
        <ele>2136</ele>
        <time>2021-08-07T08:05:07.703Z</time>
      </trkpt>
      <trkpt lat="46.91832" lon="8.68232">
        <ele>2135</ele>
        <time>2021-08-07T08:05:08.704Z</time>
      </trkpt>
      <trkpt lat="46.91831" lon="8.68232">
        <ele>2135</ele>
        <time>2021-08-07T08:05:09.704Z</time>
      </trkpt>
      <trkpt lat="46.9183" lon="8.68231">
        <ele>2135</ele>
        <time>2021-08-07T08:05:10.704Z</time>
      </trkpt>
      <trkpt lat="46.91829" lon="8.68231">
        <ele>2136</ele>
        <time>2021-08-07T08:05:11.704Z</time>
      </trkpt>
      <trkpt lat="46.91828" lon="8.6823">
        <ele>2136</ele>
        <time>2021-08-07T08:05:12.704Z</time>
      </trkpt>
      <trkpt lat="46.91827" lon="8.68229">
        <ele>2136</ele>
        <time>2021-08-07T08:05:13.704Z</time>
      </trkpt>
      <trkpt lat="46.91826" lon="8.68228">
        <ele>2136</ele>
        <time>2021-08-07T08:05:14.704Z</time>
      </trkpt>
      <trkpt lat="46.91825" lon="8.68227">
        <ele>2136</ele>
        <time>2021-08-07T08:05:15.704Z</time>
      </trkpt>
      <trkpt lat="46.91825" lon="8.68226">
        <ele>2136</ele>
        <time>2021-08-07T08:05:16.704Z</time>
      </trkpt>
      <trkpt lat="46.91824" lon="8.68226">
        <ele>2136</ele>
        <time>2021-08-07T08:05:17.703Z</time>
      </trkpt>
      <trkpt lat="46.91823" lon="8.68225">
        <ele>2136</ele>
        <time>2021-08-07T08:05:18.704Z</time>
      </trkpt>
      <trkpt lat="46.91823" lon="8.68225">
        <ele>2136</ele>
        <time>2021-08-07T08:05:19.704Z</time>
      </trkpt>
      <trkpt lat="46.91822" lon="8.68224">
        <ele>2136</ele>
        <time>2021-08-07T08:05:20.704Z</time>
      </trkpt>
      <trkpt lat="46.91822" lon="8.68224">
        <ele>2136</ele>
        <time>2021-08-07T08:05:21.704Z</time>
      </trkpt>
      <trkpt lat="46.91822" lon="8.68223">
        <ele>2136</ele>
        <time>2021-08-07T08:05:22.703Z</time>
      </trkpt>
      <trkpt lat="46.91821" lon="8.68222">
        <ele>2136</ele>
        <time>2021-08-07T08:05:23.704Z</time>
      </trkpt>
      <trkpt lat="46.91821" lon="8.68222">
        <ele>2137</ele>
        <time>2021-08-07T08:05:24.704Z</time>
      </trkpt>
      <trkpt lat="46.9182" lon="8.68221">
        <ele>2137</ele>
        <time>2021-08-07T08:05:25.704Z</time>
      </trkpt>
      <trkpt lat="46.9182" lon="8.6822">
        <ele>2137</ele>
        <time>2021-08-07T08:05:26.704Z</time>
      </trkpt>
      <trkpt lat="46.9182" lon="8.68219">
        <ele>2137</ele>
        <time>2021-08-07T08:05:27.704Z</time>
      </trkpt>
      <trkpt lat="46.91819" lon="8.68218">
        <ele>2137</ele>
        <time>2021-08-07T08:05:28.704Z</time>
      </trkpt>
      <trkpt lat="46.91818" lon="8.68217">
        <ele>2137</ele>
        <time>2021-08-07T08:05:29.704Z</time>
      </trkpt>
      <trkpt lat="46.91818" lon="8.68217">
        <ele>2137</ele>
        <time>2021-08-07T08:05:30.704Z</time>
      </trkpt>
      <trkpt lat="46.91817" lon="8.68216">
        <ele>2136</ele>
        <time>2021-08-07T08:05:31.704Z</time>
      </trkpt>
      <trkpt lat="46.91817" lon="8.68216">
        <ele>2136</ele>
        <time>2021-08-07T08:05:32.703Z</time>
      </trkpt>
      <trkpt lat="46.91816" lon="8.68215">
        <ele>2135</ele>
        <time>2021-08-07T08:05:33.703Z</time>
      </trkpt>
      <trkpt lat="46.91815" lon="8.68215">
        <ele>2135</ele>
        <time>2021-08-07T08:05:34.703Z</time>
      </trkpt>
      <trkpt lat="46.91815" lon="8.68214">
        <ele>2135</ele>
        <time>2021-08-07T08:05:35.703Z</time>
      </trkpt>
      <trkpt lat="46.91814" lon="8.68214">
        <ele>2135</ele>
        <time>2021-08-07T08:05:36.703Z</time>
      </trkpt>
      <trkpt lat="46.91814" lon="8.68213">
        <ele>2135</ele>
        <time>2021-08-07T08:05:37.704Z</time>
      </trkpt>
      <trkpt lat="46.91813" lon="8.68212">
        <ele>2135</ele>
        <time>2021-08-07T08:05:38.703Z</time>
      </trkpt>
      <trkpt lat="46.91812" lon="8.68211">
        <ele>2134</ele>
        <time>2021-08-07T08:05:39.704Z</time>
      </trkpt>
      <trkpt lat="46.91812" lon="8.68209">
        <ele>2134</ele>
        <time>2021-08-07T08:05:40.703Z</time>
      </trkpt>
      <trkpt lat="46.91811" lon="8.68208">
        <ele>2134</ele>
        <time>2021-08-07T08:05:41.703Z</time>
      </trkpt>
      <trkpt lat="46.9181" lon="8.68207">
        <ele>2133</ele>
        <time>2021-08-07T08:05:42.703Z</time>
      </trkpt>
      <trkpt lat="46.9181" lon="8.68207">
        <ele>2133</ele>
        <time>2021-08-07T08:05:43.703Z</time>
      </trkpt>
      <trkpt lat="46.9181" lon="8.68206">
        <ele>2133</ele>
        <time>2021-08-07T08:05:44.703Z</time>
      </trkpt>
      <trkpt lat="46.9181" lon="8.68205">
        <ele>2133</ele>
        <time>2021-08-07T08:05:45.704Z</time>
      </trkpt>
      <trkpt lat="46.91809" lon="8.68204">
        <ele>2134</ele>
        <time>2021-08-07T08:05:46.703Z</time>
      </trkpt>
      <trkpt lat="46.91809" lon="8.68202">
        <ele>2134</ele>
        <time>2021-08-07T08:05:47.703Z</time>
      </trkpt>
      <trkpt lat="46.91809" lon="8.68201">
        <ele>2135</ele>
        <time>2021-08-07T08:05:48.703Z</time>
      </trkpt>
      <trkpt lat="46.91808" lon="8.682">
        <ele>2135</ele>
        <time>2021-08-07T08:05:49.703Z</time>
      </trkpt>
      <trkpt lat="46.91808" lon="8.68198">
        <ele>2135</ele>
        <time>2021-08-07T08:05:50.703Z</time>
      </trkpt>
      <trkpt lat="46.91807" lon="8.68197">
        <ele>2134</ele>
        <time>2021-08-07T08:05:51.704Z</time>
      </trkpt>
      <trkpt lat="46.91807" lon="8.68196">
        <ele>2134</ele>
        <time>2021-08-07T08:05:52.703Z</time>
      </trkpt>
      <trkpt lat="46.91807" lon="8.68195">
        <ele>2133</ele>
        <time>2021-08-07T08:05:53.703Z</time>
      </trkpt>
      <trkpt lat="46.91806" lon="8.68193">
        <ele>2133</ele>
        <time>2021-08-07T08:05:54.703Z</time>
      </trkpt>
      <trkpt lat="46.91806" lon="8.68193">
        <ele>2132</ele>
        <time>2021-08-07T08:05:55.703Z</time>
      </trkpt>
      <trkpt lat="46.91806" lon="8.68192">
        <ele>2132</ele>
        <time>2021-08-07T08:05:56.703Z</time>
      </trkpt>
      <trkpt lat="46.91806" lon="8.68191">
        <ele>2131</ele>
        <time>2021-08-07T08:05:57.703Z</time>
      </trkpt>
      <trkpt lat="46.91805" lon="8.68189">
        <ele>2131</ele>
        <time>2021-08-07T08:05:58.704Z</time>
      </trkpt>
      <trkpt lat="46.91805" lon="8.68188">
        <ele>2131</ele>
        <time>2021-08-07T08:05:59.703Z</time>
      </trkpt>
      <trkpt lat="46.91805" lon="8.68188">
        <ele>2131</ele>
        <time>2021-08-07T08:06:00.703Z</time>
      </trkpt>
      <trkpt lat="46.91804" lon="8.68187">
        <ele>2131</ele>
        <time>2021-08-07T08:06:01.703Z</time>
      </trkpt>
      <trkpt lat="46.91804" lon="8.68186">
        <ele>2132</ele>
        <time>2021-08-07T08:06:02.704Z</time>
      </trkpt>
      <trkpt lat="46.91804" lon="8.68186">
        <ele>2132</ele>
        <time>2021-08-07T08:06:03.703Z</time>
      </trkpt>
      <trkpt lat="46.91804" lon="8.68186">
        <ele>2132</ele>
        <time>2021-08-07T08:06:04.704Z</time>
      </trkpt>
      <trkpt lat="46.91804" lon="8.68185">
        <ele>2132</ele>
        <time>2021-08-07T08:06:05.704Z</time>
      </trkpt>
      <trkpt lat="46.91804" lon="8.68184">
        <ele>2132</ele>
        <time>2021-08-07T08:06:06.703Z</time>
      </trkpt>
      <trkpt lat="46.91804" lon="8.68183">
        <ele>2131</ele>
        <time>2021-08-07T08:06:07.703Z</time>
      </trkpt>
      <trkpt lat="46.91803" lon="8.68181">
        <ele>2131</ele>
        <time>2021-08-07T08:06:08.703Z</time>
      </trkpt>
      <trkpt lat="46.91802" lon="8.6818">
        <ele>2130</ele>
        <time>2021-08-07T08:06:09.703Z</time>
      </trkpt>
      <trkpt lat="46.91802" lon="8.68179">
        <ele>2130</ele>
        <time>2021-08-07T08:06:10.704Z</time>
      </trkpt>
      <trkpt lat="46.91802" lon="8.68177">
        <ele>2129</ele>
        <time>2021-08-07T08:06:11.704Z</time>
      </trkpt>
      <trkpt lat="46.91801" lon="8.68176">
        <ele>2129</ele>
        <time>2021-08-07T08:06:12.704Z</time>
      </trkpt>
      <trkpt lat="46.91801" lon="8.68175">
        <ele>2128</ele>
        <time>2021-08-07T08:06:13.703Z</time>
      </trkpt>
      <trkpt lat="46.918" lon="8.68174">
        <ele>2128</ele>
        <time>2021-08-07T08:06:14.703Z</time>
      </trkpt>
      <trkpt lat="46.918" lon="8.68172">
        <ele>2127</ele>
        <time>2021-08-07T08:06:15.703Z</time>
      </trkpt>
      <trkpt lat="46.91799" lon="8.68171">
        <ele>2126</ele>
        <time>2021-08-07T08:06:16.704Z</time>
      </trkpt>
      <trkpt lat="46.91799" lon="8.68169">
        <ele>2126</ele>
        <time>2021-08-07T08:06:17.703Z</time>
      </trkpt>
      <trkpt lat="46.91799" lon="8.68168">
        <ele>2126</ele>
        <time>2021-08-07T08:06:18.704Z</time>
      </trkpt>
      <trkpt lat="46.91799" lon="8.68167">
        <ele>2126</ele>
        <time>2021-08-07T08:06:19.704Z</time>
      </trkpt>
      <trkpt lat="46.91799" lon="8.68166">
        <ele>2126</ele>
        <time>2021-08-07T08:06:20.704Z</time>
      </trkpt>
      <trkpt lat="46.91799" lon="8.68164">
        <ele>2125</ele>
        <time>2021-08-07T08:06:21.704Z</time>
      </trkpt>
      <trkpt lat="46.91799" lon="8.68164">
        <ele>2125</ele>
        <time>2021-08-07T08:06:22.703Z</time>
      </trkpt>
      <trkpt lat="46.91798" lon="8.68162">
        <ele>2126</ele>
        <time>2021-08-07T08:06:23.703Z</time>
      </trkpt>
      <trkpt lat="46.91798" lon="8.68161">
        <ele>2125</ele>
        <time>2021-08-07T08:06:24.704Z</time>
      </trkpt>
      <trkpt lat="46.91797" lon="8.6816">
        <ele>2125</ele>
        <time>2021-08-07T08:06:25.703Z</time>
      </trkpt>
      <trkpt lat="46.91797" lon="8.68159">
        <ele>2125</ele>
        <time>2021-08-07T08:06:26.704Z</time>
      </trkpt>
      <trkpt lat="46.91797" lon="8.68159">
        <ele>2125</ele>
        <time>2021-08-07T08:06:27.703Z</time>
      </trkpt>
      <trkpt lat="46.91798" lon="8.68158">
        <ele>2125</ele>
        <time>2021-08-07T08:06:28.703Z</time>
      </trkpt>
      <trkpt lat="46.91798" lon="8.68156">
        <ele>2125</ele>
        <time>2021-08-07T08:06:29.704Z</time>
      </trkpt>
      <trkpt lat="46.91798" lon="8.68155">
        <ele>2125</ele>
        <time>2021-08-07T08:06:30.704Z</time>
      </trkpt>
      <trkpt lat="46.91797" lon="8.68154">
        <ele>2125</ele>
        <time>2021-08-07T08:06:31.704Z</time>
      </trkpt>
      <trkpt lat="46.91797" lon="8.68154">
        <ele>2125</ele>
        <time>2021-08-07T08:06:32.704Z</time>
      </trkpt>
      <trkpt lat="46.91797" lon="8.68154">
        <ele>2126</ele>
        <time>2021-08-07T08:06:33.704Z</time>
      </trkpt>
      <trkpt lat="46.91796" lon="8.68154">
        <ele>2126</ele>
        <time>2021-08-07T08:06:34.703Z</time>
      </trkpt>
      <trkpt lat="46.91796" lon="8.68154">
        <ele>2126</ele>
        <time>2021-08-07T08:06:35.704Z</time>
      </trkpt>
      <trkpt lat="46.91795" lon="8.68153">
        <ele>2126</ele>
        <time>2021-08-07T08:06:36.704Z</time>
      </trkpt>
      <trkpt lat="46.91795" lon="8.68152">
        <ele>2126</ele>
        <time>2021-08-07T08:06:37.704Z</time>
      </trkpt>
      <trkpt lat="46.91795" lon="8.6815">
        <ele>2126</ele>
        <time>2021-08-07T08:06:38.703Z</time>
      </trkpt>
      <trkpt lat="46.91795" lon="8.68149">
        <ele>2125</ele>
        <time>2021-08-07T08:06:39.703Z</time>
      </trkpt>
      <trkpt lat="46.91795" lon="8.68148">
        <ele>2125</ele>
        <time>2021-08-07T08:06:40.703Z</time>
      </trkpt>
      <trkpt lat="46.91795" lon="8.68146">
        <ele>2124</ele>
        <time>2021-08-07T08:06:41.704Z</time>
      </trkpt>
      <trkpt lat="46.91795" lon="8.68145">
        <ele>2124</ele>
        <time>2021-08-07T08:06:42.703Z</time>
      </trkpt>
      <trkpt lat="46.91795" lon="8.68143">
        <ele>2123</ele>
        <time>2021-08-07T08:06:43.703Z</time>
      </trkpt>
      <trkpt lat="46.91795" lon="8.68142">
        <ele>2122</ele>
        <time>2021-08-07T08:06:44.704Z</time>
      </trkpt>
      <trkpt lat="46.91794" lon="8.68141">
        <ele>2121</ele>
        <time>2021-08-07T08:06:45.704Z</time>
      </trkpt>
      <trkpt lat="46.91794" lon="8.68139">
        <ele>2121</ele>
        <time>2021-08-07T08:06:46.704Z</time>
      </trkpt>
      <trkpt lat="46.91793" lon="8.68138">
        <ele>2121</ele>
        <time>2021-08-07T08:06:47.704Z</time>
      </trkpt>
      <trkpt lat="46.91793" lon="8.68136">
        <ele>2120</ele>
        <time>2021-08-07T08:06:48.704Z</time>
      </trkpt>
      <trkpt lat="46.91792" lon="8.68136">
        <ele>2120</ele>
        <time>2021-08-07T08:06:49.704Z</time>
      </trkpt>
      <trkpt lat="46.91791" lon="8.68136">
        <ele>2119</ele>
        <time>2021-08-07T08:06:50.703Z</time>
      </trkpt>
      <trkpt lat="46.91791" lon="8.68136">
        <ele>2119</ele>
        <time>2021-08-07T08:06:51.704Z</time>
      </trkpt>
      <trkpt lat="46.91791" lon="8.68135">
        <ele>2119</ele>
        <time>2021-08-07T08:06:52.703Z</time>
      </trkpt>
      <trkpt lat="46.91791" lon="8.68135">
        <ele>2119</ele>
        <time>2021-08-07T08:06:53.703Z</time>
      </trkpt>
      <trkpt lat="46.91791" lon="8.68134">
        <ele>2119</ele>
        <time>2021-08-07T08:06:54.704Z</time>
      </trkpt>
      <trkpt lat="46.91789" lon="8.68139">
        <ele>2117</ele>
        <time>2021-08-07T08:06:55.703Z</time>
      </trkpt>
      <trkpt lat="46.91789" lon="8.68139">
        <ele>2117</ele>
        <time>2021-08-07T08:06:56.703Z</time>
      </trkpt>
      <trkpt lat="46.91789" lon="8.68139">
        <ele>2117</ele>
        <time>2021-08-07T08:06:57.703Z</time>
      </trkpt>
      <trkpt lat="46.91789" lon="8.6814">
        <ele>2117</ele>
        <time>2021-08-07T08:06:58.704Z</time>
      </trkpt>
      <trkpt lat="46.91784" lon="8.68149">
        <ele>2114</ele>
        <time>2021-08-07T08:06:59.705Z</time>
      </trkpt>
      <trkpt lat="46.91784" lon="8.68146">
        <ele>2114</ele>
        <time>2021-08-07T08:07:00.705Z</time>
      </trkpt>
      <trkpt lat="46.91785" lon="8.68145">
        <ele>2116</ele>
        <time>2021-08-07T08:07:01.705Z</time>
      </trkpt>
      <trkpt lat="46.91785" lon="8.68144">
        <ele>2117</ele>
        <time>2021-08-07T08:07:02.705Z</time>
      </trkpt>
      <trkpt lat="46.91784" lon="8.68143">
        <ele>2118</ele>
        <time>2021-08-07T08:07:03.704Z</time>
      </trkpt>
      <trkpt lat="46.91784" lon="8.68142">
        <ele>2119</ele>
        <time>2021-08-07T08:07:04.705Z</time>
      </trkpt>
      <trkpt lat="46.91784" lon="8.68141">
        <ele>2119</ele>
        <time>2021-08-07T08:07:05.704Z</time>
      </trkpt>
      <trkpt lat="46.91785" lon="8.6814">
        <ele>2120</ele>
        <time>2021-08-07T08:07:06.705Z</time>
      </trkpt>
      <trkpt lat="46.91785" lon="8.68139">
        <ele>2120</ele>
        <time>2021-08-07T08:07:07.704Z</time>
      </trkpt>
      <trkpt lat="46.91785" lon="8.68137">
        <ele>2120</ele>
        <time>2021-08-07T08:07:08.705Z</time>
      </trkpt>
      <trkpt lat="46.91785" lon="8.68136">
        <ele>2121</ele>
        <time>2021-08-07T08:07:09.705Z</time>
      </trkpt>
      <trkpt lat="46.91785" lon="8.68134">
        <ele>2121</ele>
        <time>2021-08-07T08:07:10.704Z</time>
      </trkpt>
      <trkpt lat="46.91786" lon="8.68132">
        <ele>2121</ele>
        <time>2021-08-07T08:07:11.705Z</time>
      </trkpt>
      <trkpt lat="46.91786" lon="8.6813">
        <ele>2121</ele>
        <time>2021-08-07T08:07:12.705Z</time>
      </trkpt>
      <trkpt lat="46.91786" lon="8.68129">
        <ele>2121</ele>
        <time>2021-08-07T08:07:13.704Z</time>
      </trkpt>
      <trkpt lat="46.91787" lon="8.68127">
        <ele>2121</ele>
        <time>2021-08-07T08:07:14.704Z</time>
      </trkpt>
      <trkpt lat="46.91786" lon="8.68125">
        <ele>2120</ele>
        <time>2021-08-07T08:07:15.704Z</time>
      </trkpt>
      <trkpt lat="46.91787" lon="8.68122">
        <ele>2120</ele>
        <time>2021-08-07T08:07:16.705Z</time>
      </trkpt>
      <trkpt lat="46.91787" lon="8.6812">
        <ele>2119</ele>
        <time>2021-08-07T08:07:17.705Z</time>
      </trkpt>
      <trkpt lat="46.91787" lon="8.68119">
        <ele>2119</ele>
        <time>2021-08-07T08:07:18.704Z</time>
      </trkpt>
      <trkpt lat="46.91788" lon="8.68117">
        <ele>2119</ele>
        <time>2021-08-07T08:07:19.705Z</time>
      </trkpt>
      <trkpt lat="46.91788" lon="8.68116">
        <ele>2120</ele>
        <time>2021-08-07T08:07:20.705Z</time>
      </trkpt>
      <trkpt lat="46.91788" lon="8.68114">
        <ele>2120</ele>
        <time>2021-08-07T08:07:21.705Z</time>
      </trkpt>
      <trkpt lat="46.91788" lon="8.68113">
        <ele>2119</ele>
        <time>2021-08-07T08:07:22.705Z</time>
      </trkpt>
      <trkpt lat="46.91788" lon="8.68111">
        <ele>2119</ele>
        <time>2021-08-07T08:07:23.704Z</time>
      </trkpt>
      <trkpt lat="46.91787" lon="8.68109">
        <ele>2119</ele>
        <time>2021-08-07T08:07:24.704Z</time>
      </trkpt>
      <trkpt lat="46.91787" lon="8.68108">
        <ele>2118</ele>
        <time>2021-08-07T08:07:25.705Z</time>
      </trkpt>
      <trkpt lat="46.91787" lon="8.68106">
        <ele>2118</ele>
        <time>2021-08-07T08:07:26.705Z</time>
      </trkpt>
      <trkpt lat="46.91787" lon="8.68104">
        <ele>2118</ele>
        <time>2021-08-07T08:07:27.705Z</time>
      </trkpt>
      <trkpt lat="46.91787" lon="8.68103">
        <ele>2117</ele>
        <time>2021-08-07T08:07:28.705Z</time>
      </trkpt>
      <trkpt lat="46.91788" lon="8.68101">
        <ele>2117</ele>
        <time>2021-08-07T08:07:29.705Z</time>
      </trkpt>
      <trkpt lat="46.91788" lon="8.68099">
        <ele>2117</ele>
        <time>2021-08-07T08:07:30.704Z</time>
      </trkpt>
      <trkpt lat="46.91788" lon="8.68098">
        <ele>2117</ele>
        <time>2021-08-07T08:07:31.705Z</time>
      </trkpt>
      <trkpt lat="46.91787" lon="8.68096">
        <ele>2117</ele>
        <time>2021-08-07T08:07:32.705Z</time>
      </trkpt>
      <trkpt lat="46.91787" lon="8.68094">
        <ele>2117</ele>
        <time>2021-08-07T08:07:33.705Z</time>
      </trkpt>
      <trkpt lat="46.91786" lon="8.68094">
        <ele>2117</ele>
        <time>2021-08-07T08:07:34.705Z</time>
      </trkpt>
      <trkpt lat="46.91786" lon="8.68093">
        <ele>2117</ele>
        <time>2021-08-07T08:07:35.704Z</time>
      </trkpt>
      <trkpt lat="46.91786" lon="8.68093">
        <ele>2117</ele>
        <time>2021-08-07T08:07:36.705Z</time>
      </trkpt>
      <trkpt lat="46.91785" lon="8.6809">
        <ele>2116</ele>
        <time>2021-08-07T08:07:37.706Z</time>
      </trkpt>
      <trkpt lat="46.91785" lon="8.68089">
        <ele>2116</ele>
        <time>2021-08-07T08:07:38.706Z</time>
      </trkpt>
      <trkpt lat="46.91785" lon="8.68088">
        <ele>2116</ele>
        <time>2021-08-07T08:07:39.705Z</time>
      </trkpt>
      <trkpt lat="46.91785" lon="8.68086">
        <ele>2115</ele>
        <time>2021-08-07T08:07:40.706Z</time>
      </trkpt>
      <trkpt lat="46.91785" lon="8.68085">
        <ele>2115</ele>
        <time>2021-08-07T08:07:41.706Z</time>
      </trkpt>
      <trkpt lat="46.91784" lon="8.68083">
        <ele>2115</ele>
        <time>2021-08-07T08:07:42.706Z</time>
      </trkpt>
      <trkpt lat="46.91784" lon="8.68082">
        <ele>2115</ele>
        <time>2021-08-07T08:07:43.706Z</time>
      </trkpt>
      <trkpt lat="46.91784" lon="8.68081">
        <ele>2115</ele>
        <time>2021-08-07T08:07:44.706Z</time>
      </trkpt>
      <trkpt lat="46.91784" lon="8.68079">
        <ele>2115</ele>
        <time>2021-08-07T08:07:45.705Z</time>
      </trkpt>
      <trkpt lat="46.91784" lon="8.68078">
        <ele>2114</ele>
        <time>2021-08-07T08:07:46.706Z</time>
      </trkpt>
      <trkpt lat="46.91783" lon="8.68077">
        <ele>2114</ele>
        <time>2021-08-07T08:07:47.705Z</time>
      </trkpt>
      <trkpt lat="46.91784" lon="8.68075">
        <ele>2115</ele>
        <time>2021-08-07T08:07:48.706Z</time>
      </trkpt>
      <trkpt lat="46.91784" lon="8.68074">
        <ele>2115</ele>
        <time>2021-08-07T08:07:49.706Z</time>
      </trkpt>
      <trkpt lat="46.91784" lon="8.68073">
        <ele>2115</ele>
        <time>2021-08-07T08:07:50.705Z</time>
      </trkpt>
      <trkpt lat="46.91784" lon="8.68071">
        <ele>2115</ele>
        <time>2021-08-07T08:07:51.706Z</time>
      </trkpt>
      <trkpt lat="46.91784" lon="8.6807">
        <ele>2114</ele>
        <time>2021-08-07T08:07:52.705Z</time>
      </trkpt>
      <trkpt lat="46.91783" lon="8.68068">
        <ele>2114</ele>
        <time>2021-08-07T08:07:53.705Z</time>
      </trkpt>
      <trkpt lat="46.91783" lon="8.68067">
        <ele>2114</ele>
        <time>2021-08-07T08:07:54.706Z</time>
      </trkpt>
      <trkpt lat="46.91782" lon="8.68066">
        <ele>2113</ele>
        <time>2021-08-07T08:07:55.705Z</time>
      </trkpt>
      <trkpt lat="46.91781" lon="8.68064">
        <ele>2113</ele>
        <time>2021-08-07T08:07:56.705Z</time>
      </trkpt>
      <trkpt lat="46.9178" lon="8.68063">
        <ele>2113</ele>
        <time>2021-08-07T08:07:57.706Z</time>
      </trkpt>
      <trkpt lat="46.9178" lon="8.68062">
        <ele>2113</ele>
        <time>2021-08-07T08:07:58.706Z</time>
      </trkpt>
      <trkpt lat="46.91779" lon="8.68061">
        <ele>2112</ele>
        <time>2021-08-07T08:07:59.705Z</time>
      </trkpt>
      <trkpt lat="46.91779" lon="8.6806">
        <ele>2112</ele>
        <time>2021-08-07T08:08:00.705Z</time>
      </trkpt>
      <trkpt lat="46.91778" lon="8.68059">
        <ele>2112</ele>
        <time>2021-08-07T08:08:01.706Z</time>
      </trkpt>
      <trkpt lat="46.91778" lon="8.68058">
        <ele>2111</ele>
        <time>2021-08-07T08:08:02.706Z</time>
      </trkpt>
      <trkpt lat="46.91777" lon="8.68057">
        <ele>2111</ele>
        <time>2021-08-07T08:08:03.706Z</time>
      </trkpt>
      <trkpt lat="46.91776" lon="8.68056">
        <ele>2111</ele>
        <time>2021-08-07T08:08:04.706Z</time>
      </trkpt>
      <trkpt lat="46.91775" lon="8.68055">
        <ele>2111</ele>
        <time>2021-08-07T08:08:05.705Z</time>
      </trkpt>
      <trkpt lat="46.91774" lon="8.68053">
        <ele>2111</ele>
        <time>2021-08-07T08:08:06.705Z</time>
      </trkpt>
      <trkpt lat="46.91773" lon="8.68052">
        <ele>2111</ele>
        <time>2021-08-07T08:08:07.705Z</time>
      </trkpt>
      <trkpt lat="46.91772" lon="8.68051">
        <ele>2111</ele>
        <time>2021-08-07T08:08:08.706Z</time>
      </trkpt>
      <trkpt lat="46.91771" lon="8.6805">
        <ele>2111</ele>
        <time>2021-08-07T08:08:09.706Z</time>
      </trkpt>
      <trkpt lat="46.9177" lon="8.68049">
        <ele>2111</ele>
        <time>2021-08-07T08:08:10.706Z</time>
      </trkpt>
      <trkpt lat="46.9177" lon="8.68048">
        <ele>2110</ele>
        <time>2021-08-07T08:08:11.706Z</time>
      </trkpt>
      <trkpt lat="46.91769" lon="8.68048">
        <ele>2110</ele>
        <time>2021-08-07T08:08:12.706Z</time>
      </trkpt>
      <trkpt lat="46.91768" lon="8.68048">
        <ele>2110</ele>
        <time>2021-08-07T08:08:13.706Z</time>
      </trkpt>
      <trkpt lat="46.91768" lon="8.68047">
        <ele>2110</ele>
        <time>2021-08-07T08:08:14.706Z</time>
      </trkpt>
      <trkpt lat="46.91767" lon="8.68046">
        <ele>2110</ele>
        <time>2021-08-07T08:08:15.705Z</time>
      </trkpt>
      <trkpt lat="46.91766" lon="8.68045">
        <ele>2109</ele>
        <time>2021-08-07T08:08:16.706Z</time>
      </trkpt>
      <trkpt lat="46.91765" lon="8.68044">
        <ele>2108</ele>
        <time>2021-08-07T08:08:17.706Z</time>
      </trkpt>
      <trkpt lat="46.91764" lon="8.68043">
        <ele>2108</ele>
        <time>2021-08-07T08:08:18.706Z</time>
      </trkpt>
      <trkpt lat="46.91764" lon="8.68042">
        <ele>2107</ele>
        <time>2021-08-07T08:08:19.706Z</time>
      </trkpt>
      <trkpt lat="46.91763" lon="8.6804">
        <ele>2106</ele>
        <time>2021-08-07T08:08:20.705Z</time>
      </trkpt>
      <trkpt lat="46.91762" lon="8.68039">
        <ele>2106</ele>
        <time>2021-08-07T08:08:21.705Z</time>
      </trkpt>
      <trkpt lat="46.91761" lon="8.68039">
        <ele>2105</ele>
        <time>2021-08-07T08:08:22.706Z</time>
      </trkpt>
      <trkpt lat="46.9176" lon="8.68038">
        <ele>2105</ele>
        <time>2021-08-07T08:08:23.706Z</time>
      </trkpt>
      <trkpt lat="46.91759" lon="8.68036">
        <ele>2104</ele>
        <time>2021-08-07T08:08:24.706Z</time>
      </trkpt>
      <trkpt lat="46.91758" lon="8.68036">
        <ele>2104</ele>
        <time>2021-08-07T08:08:25.706Z</time>
      </trkpt>
      <trkpt lat="46.91757" lon="8.68035">
        <ele>2104</ele>
        <time>2021-08-07T08:08:26.706Z</time>
      </trkpt>
      <trkpt lat="46.91756" lon="8.68034">
        <ele>2104</ele>
        <time>2021-08-07T08:08:27.706Z</time>
      </trkpt>
      <trkpt lat="46.91756" lon="8.68033">
        <ele>2104</ele>
        <time>2021-08-07T08:08:28.706Z</time>
      </trkpt>
      <trkpt lat="46.91755" lon="8.68032">
        <ele>2104</ele>
        <time>2021-08-07T08:08:29.706Z</time>
      </trkpt>
      <trkpt lat="46.91754" lon="8.68031">
        <ele>2105</ele>
        <time>2021-08-07T08:08:30.706Z</time>
      </trkpt>
      <trkpt lat="46.91753" lon="8.68031">
        <ele>2105</ele>
        <time>2021-08-07T08:08:31.705Z</time>
      </trkpt>
      <trkpt lat="46.91752" lon="8.6803">
        <ele>2105</ele>
        <time>2021-08-07T08:08:32.705Z</time>
      </trkpt>
      <trkpt lat="46.91751" lon="8.6803">
        <ele>2105</ele>
        <time>2021-08-07T08:08:33.705Z</time>
      </trkpt>
      <trkpt lat="46.9175" lon="8.68029">
        <ele>2105</ele>
        <time>2021-08-07T08:08:34.705Z</time>
      </trkpt>
      <trkpt lat="46.91749" lon="8.68028">
        <ele>2106</ele>
        <time>2021-08-07T08:08:35.705Z</time>
      </trkpt>
      <trkpt lat="46.91749" lon="8.68028">
        <ele>2106</ele>
        <time>2021-08-07T08:08:36.705Z</time>
      </trkpt>
      <trkpt lat="46.91748" lon="8.68028">
        <ele>2105</ele>
        <time>2021-08-07T08:08:37.705Z</time>
      </trkpt>
      <trkpt lat="46.91747" lon="8.68027">
        <ele>2105</ele>
        <time>2021-08-07T08:08:38.705Z</time>
      </trkpt>
      <trkpt lat="46.91746" lon="8.68026">
        <ele>2104</ele>
        <time>2021-08-07T08:08:39.706Z</time>
      </trkpt>
      <trkpt lat="46.91745" lon="8.68025">
        <ele>2103</ele>
        <time>2021-08-07T08:08:40.706Z</time>
      </trkpt>
      <trkpt lat="46.91744" lon="8.68024">
        <ele>2103</ele>
        <time>2021-08-07T08:08:41.706Z</time>
      </trkpt>
      <trkpt lat="46.91743" lon="8.68024">
        <ele>2102</ele>
        <time>2021-08-07T08:08:42.706Z</time>
      </trkpt>
      <trkpt lat="46.91743" lon="8.68023">
        <ele>2102</ele>
        <time>2021-08-07T08:08:43.706Z</time>
      </trkpt>
      <trkpt lat="46.91742" lon="8.68023">
        <ele>2101</ele>
        <time>2021-08-07T08:08:44.706Z</time>
      </trkpt>
      <trkpt lat="46.91742" lon="8.68022">
        <ele>2101</ele>
        <time>2021-08-07T08:08:45.706Z</time>
      </trkpt>
      <trkpt lat="46.91741" lon="8.68022">
        <ele>2100</ele>
        <time>2021-08-07T08:08:46.705Z</time>
      </trkpt>
      <trkpt lat="46.9174" lon="8.68022">
        <ele>2100</ele>
        <time>2021-08-07T08:08:47.706Z</time>
      </trkpt>
      <trkpt lat="46.91739" lon="8.68021">
        <ele>2100</ele>
        <time>2021-08-07T08:08:48.706Z</time>
      </trkpt>
      <trkpt lat="46.91738" lon="8.6802">
        <ele>2100</ele>
        <time>2021-08-07T08:08:49.706Z</time>
      </trkpt>
      <trkpt lat="46.91737" lon="8.68019">
        <ele>2101</ele>
        <time>2021-08-07T08:08:50.705Z</time>
      </trkpt>
      <trkpt lat="46.91736" lon="8.68019">
        <ele>2101</ele>
        <time>2021-08-07T08:08:51.705Z</time>
      </trkpt>
      <trkpt lat="46.91735" lon="8.68018">
        <ele>2101</ele>
        <time>2021-08-07T08:08:52.705Z</time>
      </trkpt>
      <trkpt lat="46.91734" lon="8.68017">
        <ele>2101</ele>
        <time>2021-08-07T08:08:53.705Z</time>
      </trkpt>
      <trkpt lat="46.91733" lon="8.68016">
        <ele>2101</ele>
        <time>2021-08-07T08:08:54.705Z</time>
      </trkpt>
      <trkpt lat="46.91733" lon="8.68015">
        <ele>2101</ele>
        <time>2021-08-07T08:08:55.705Z</time>
      </trkpt>
      <trkpt lat="46.91732" lon="8.68014">
        <ele>2101</ele>
        <time>2021-08-07T08:08:56.706Z</time>
      </trkpt>
      <trkpt lat="46.91731" lon="8.68013">
        <ele>2101</ele>
        <time>2021-08-07T08:08:57.706Z</time>
      </trkpt>
      <trkpt lat="46.9173" lon="8.68012">
        <ele>2101</ele>
        <time>2021-08-07T08:08:58.706Z</time>
      </trkpt>
      <trkpt lat="46.9173" lon="8.68011">
        <ele>2101</ele>
        <time>2021-08-07T08:08:59.705Z</time>
      </trkpt>
      <trkpt lat="46.91729" lon="8.6801">
        <ele>2101</ele>
        <time>2021-08-07T08:09:00.705Z</time>
      </trkpt>
      <trkpt lat="46.91728" lon="8.68009">
        <ele>2100</ele>
        <time>2021-08-07T08:09:01.706Z</time>
      </trkpt>
      <trkpt lat="46.91728" lon="8.68009">
        <ele>2100</ele>
        <time>2021-08-07T08:09:02.706Z</time>
      </trkpt>
      <trkpt lat="46.91727" lon="8.68008">
        <ele>2100</ele>
        <time>2021-08-07T08:09:03.706Z</time>
      </trkpt>
      <trkpt lat="46.91726" lon="8.68008">
        <ele>2100</ele>
        <time>2021-08-07T08:09:04.706Z</time>
      </trkpt>
      <trkpt lat="46.91725" lon="8.68008">
        <ele>2100</ele>
        <time>2021-08-07T08:09:05.706Z</time>
      </trkpt>
      <trkpt lat="46.91724" lon="8.68008">
        <ele>2100</ele>
        <time>2021-08-07T08:09:06.706Z</time>
      </trkpt>
      <trkpt lat="46.91724" lon="8.68007">
        <ele>2100</ele>
        <time>2021-08-07T08:09:07.706Z</time>
      </trkpt>
      <trkpt lat="46.91723" lon="8.68007">
        <ele>2100</ele>
        <time>2021-08-07T08:09:08.706Z</time>
      </trkpt>
      <trkpt lat="46.91723" lon="8.68007">
        <ele>2100</ele>
        <time>2021-08-07T08:09:09.706Z</time>
      </trkpt>
      <trkpt lat="46.91722" lon="8.68006">
        <ele>2100</ele>
        <time>2021-08-07T08:09:10.706Z</time>
      </trkpt>
      <trkpt lat="46.91722" lon="8.68005">
        <ele>2100</ele>
        <time>2021-08-07T08:09:11.705Z</time>
      </trkpt>
      <trkpt lat="46.91721" lon="8.68004">
        <ele>2100</ele>
        <time>2021-08-07T08:09:12.705Z</time>
      </trkpt>
      <trkpt lat="46.91721" lon="8.68003">
        <ele>2100</ele>
        <time>2021-08-07T08:09:13.706Z</time>
      </trkpt>
      <trkpt lat="46.9172" lon="8.68002">
        <ele>2100</ele>
        <time>2021-08-07T08:09:14.705Z</time>
      </trkpt>
      <trkpt lat="46.91719" lon="8.68001">
        <ele>2100</ele>
        <time>2021-08-07T08:09:15.706Z</time>
      </trkpt>
      <trkpt lat="46.91718" lon="8.68">
        <ele>2101</ele>
        <time>2021-08-07T08:09:16.706Z</time>
      </trkpt>
      <trkpt lat="46.91718" lon="8.67999">
        <ele>2101</ele>
        <time>2021-08-07T08:09:17.706Z</time>
      </trkpt>
      <trkpt lat="46.91718" lon="8.67999">
        <ele>2101</ele>
        <time>2021-08-07T08:09:18.706Z</time>
      </trkpt>
      <trkpt lat="46.91718" lon="8.67998">
        <ele>2101</ele>
        <time>2021-08-07T08:09:19.706Z</time>
      </trkpt>
      <trkpt lat="46.91718" lon="8.67997">
        <ele>2101</ele>
        <time>2021-08-07T08:09:20.706Z</time>
      </trkpt>
      <trkpt lat="46.91717" lon="8.67996">
        <ele>2101</ele>
        <time>2021-08-07T08:09:21.706Z</time>
      </trkpt>
      <trkpt lat="46.91717" lon="8.67995">
        <ele>2101</ele>
        <time>2021-08-07T08:09:22.706Z</time>
      </trkpt>
      <trkpt lat="46.91716" lon="8.67993">
        <ele>2100</ele>
        <time>2021-08-07T08:09:23.705Z</time>
      </trkpt>
      <trkpt lat="46.91716" lon="8.67992">
        <ele>2100</ele>
        <time>2021-08-07T08:09:24.706Z</time>
      </trkpt>
      <trkpt lat="46.91715" lon="8.67991">
        <ele>2100</ele>
        <time>2021-08-07T08:09:25.706Z</time>
      </trkpt>
      <trkpt lat="46.91715" lon="8.6799">
        <ele>2100</ele>
        <time>2021-08-07T08:09:26.705Z</time>
      </trkpt>
      <trkpt lat="46.91714" lon="8.67989">
        <ele>2100</ele>
        <time>2021-08-07T08:09:27.706Z</time>
      </trkpt>
      <trkpt lat="46.91713" lon="8.67988">
        <ele>2100</ele>
        <time>2021-08-07T08:09:28.706Z</time>
      </trkpt>
      <trkpt lat="46.91713" lon="8.67987">
        <ele>2100</ele>
        <time>2021-08-07T08:09:29.706Z</time>
      </trkpt>
      <trkpt lat="46.91712" lon="8.67986">
        <ele>2100</ele>
        <time>2021-08-07T08:09:30.706Z</time>
      </trkpt>
      <trkpt lat="46.91711" lon="8.67985">
        <ele>2099</ele>
        <time>2021-08-07T08:09:31.706Z</time>
      </trkpt>
      <trkpt lat="46.9171" lon="8.67984">
        <ele>2099</ele>
        <time>2021-08-07T08:09:32.706Z</time>
      </trkpt>
      <trkpt lat="46.9171" lon="8.67983">
        <ele>2099</ele>
        <time>2021-08-07T08:09:33.705Z</time>
      </trkpt>
      <trkpt lat="46.9171" lon="8.67982">
        <ele>2099</ele>
        <time>2021-08-07T08:09:34.706Z</time>
      </trkpt>
      <trkpt lat="46.9171" lon="8.67981">
        <ele>2098</ele>
        <time>2021-08-07T08:09:35.706Z</time>
      </trkpt>
      <trkpt lat="46.9171" lon="8.67981">
        <ele>2098</ele>
        <time>2021-08-07T08:09:36.705Z</time>
      </trkpt>
      <trkpt lat="46.9171" lon="8.67981">
        <ele>2097</ele>
        <time>2021-08-07T08:09:37.706Z</time>
      </trkpt>
      <trkpt lat="46.91711" lon="8.67981">
        <ele>2097</ele>
        <time>2021-08-07T08:09:38.706Z</time>
      </trkpt>
      <trkpt lat="46.91711" lon="8.6798">
        <ele>2097</ele>
        <time>2021-08-07T08:09:39.706Z</time>
      </trkpt>
      <trkpt lat="46.91712" lon="8.6798">
        <ele>2097</ele>
        <time>2021-08-07T08:09:40.706Z</time>
      </trkpt>
      <trkpt lat="46.91712" lon="8.67979">
        <ele>2097</ele>
        <time>2021-08-07T08:09:41.706Z</time>
      </trkpt>
      <trkpt lat="46.91712" lon="8.67978">
        <ele>2097</ele>
        <time>2021-08-07T08:09:42.705Z</time>
      </trkpt>
      <trkpt lat="46.91712" lon="8.67976">
        <ele>2096</ele>
        <time>2021-08-07T08:09:43.706Z</time>
      </trkpt>
      <trkpt lat="46.91711" lon="8.67975">
        <ele>2096</ele>
        <time>2021-08-07T08:09:44.706Z</time>
      </trkpt>
      <trkpt lat="46.91711" lon="8.67974">
        <ele>2096</ele>
        <time>2021-08-07T08:09:45.706Z</time>
      </trkpt>
      <trkpt lat="46.9171" lon="8.67973">
        <ele>2096</ele>
        <time>2021-08-07T08:09:46.705Z</time>
      </trkpt>
      <trkpt lat="46.9171" lon="8.67971">
        <ele>2096</ele>
        <time>2021-08-07T08:09:47.706Z</time>
      </trkpt>
      <trkpt lat="46.91709" lon="8.6797">
        <ele>2096</ele>
        <time>2021-08-07T08:09:48.705Z</time>
      </trkpt>
      <trkpt lat="46.91709" lon="8.67969">
        <ele>2095</ele>
        <time>2021-08-07T08:09:49.705Z</time>
      </trkpt>
      <trkpt lat="46.91708" lon="8.67968">
        <ele>2095</ele>
        <time>2021-08-07T08:09:50.705Z</time>
      </trkpt>
      <trkpt lat="46.91707" lon="8.67968">
        <ele>2095</ele>
        <time>2021-08-07T08:09:51.706Z</time>
      </trkpt>
      <trkpt lat="46.91707" lon="8.67967">
        <ele>2094</ele>
        <time>2021-08-07T08:09:52.705Z</time>
      </trkpt>
      <trkpt lat="46.91706" lon="8.67966">
        <ele>2094</ele>
        <time>2021-08-07T08:09:53.706Z</time>
      </trkpt>
      <trkpt lat="46.91705" lon="8.67966">
        <ele>2094</ele>
        <time>2021-08-07T08:09:54.706Z</time>
      </trkpt>
      <trkpt lat="46.91705" lon="8.67965">
        <ele>2093</ele>
        <time>2021-08-07T08:09:55.705Z</time>
      </trkpt>
      <trkpt lat="46.91705" lon="8.67965">
        <ele>2092</ele>
        <time>2021-08-07T08:09:56.706Z</time>
      </trkpt>
      <trkpt lat="46.91704" lon="8.67964">
        <ele>2092</ele>
        <time>2021-08-07T08:09:57.706Z</time>
      </trkpt>
      <trkpt lat="46.91704" lon="8.67964">
        <ele>2091</ele>
        <time>2021-08-07T08:09:58.706Z</time>
      </trkpt>
      <trkpt lat="46.91704" lon="8.67963">
        <ele>2091</ele>
        <time>2021-08-07T08:09:59.706Z</time>
      </trkpt>
      <trkpt lat="46.91704" lon="8.67963">
        <ele>2091</ele>
        <time>2021-08-07T08:10:00.705Z</time>
      </trkpt>
      <trkpt lat="46.91705" lon="8.67964">
        <ele>2091</ele>
        <time>2021-08-07T08:10:01.706Z</time>
      </trkpt>
      <trkpt lat="46.91705" lon="8.67963">
        <ele>2091</ele>
        <time>2021-08-07T08:10:02.706Z</time>
      </trkpt>
      <trkpt lat="46.91705" lon="8.67963">
        <ele>2092</ele>
        <time>2021-08-07T08:10:03.706Z</time>
      </trkpt>
      <trkpt lat="46.91704" lon="8.67962">
        <ele>2092</ele>
        <time>2021-08-07T08:10:04.706Z</time>
      </trkpt>
      <trkpt lat="46.91704" lon="8.67962">
        <ele>2093</ele>
        <time>2021-08-07T08:10:05.706Z</time>
      </trkpt>
      <trkpt lat="46.91703" lon="8.6796">
        <ele>2092</ele>
        <time>2021-08-07T08:10:06.707Z</time>
      </trkpt>
      <trkpt lat="46.91702" lon="8.67959">
        <ele>2092</ele>
        <time>2021-08-07T08:10:07.707Z</time>
      </trkpt>
      <trkpt lat="46.91702" lon="8.67958">
        <ele>2091</ele>
        <time>2021-08-07T08:10:08.706Z</time>
      </trkpt>
      <trkpt lat="46.91702" lon="8.67957">
        <ele>2091</ele>
        <time>2021-08-07T08:10:09.706Z</time>
      </trkpt>
      <trkpt lat="46.91702" lon="8.67957">
        <ele>2091</ele>
        <time>2021-08-07T08:10:10.707Z</time>
      </trkpt>
      <trkpt lat="46.91702" lon="8.67957">
        <ele>2094</ele>
        <time>2021-08-07T08:10:11.707Z</time>
      </trkpt>
      <trkpt lat="46.91702" lon="8.67957">
        <ele>2093</ele>
        <time>2021-08-07T08:10:12.707Z</time>
      </trkpt>
      <trkpt lat="46.91701" lon="8.67956">
        <ele>2093</ele>
        <time>2021-08-07T08:10:13.707Z</time>
      </trkpt>
      <trkpt lat="46.91701" lon="8.67957">
        <ele>2093</ele>
        <time>2021-08-07T08:10:14.708Z</time>
      </trkpt>
      <trkpt lat="46.91701" lon="8.67957">
        <ele>2093</ele>
        <time>2021-08-07T08:10:15.707Z</time>
      </trkpt>
      <trkpt lat="46.91701" lon="8.67957">
        <ele>2093</ele>
        <time>2021-08-07T08:10:16.707Z</time>
      </trkpt>
      <trkpt lat="46.91701" lon="8.67958">
        <ele>2093</ele>
        <time>2021-08-07T08:10:17.708Z</time>
      </trkpt>
      <trkpt lat="46.91701" lon="8.67958">
        <ele>2093</ele>
        <time>2021-08-07T08:10:18.708Z</time>
      </trkpt>
      <trkpt lat="46.91701" lon="8.67958">
        <ele>2093</ele>
        <time>2021-08-07T08:10:19.709Z</time>
      </trkpt>
      <trkpt lat="46.91701" lon="8.67958">
        <ele>2094</ele>
        <time>2021-08-07T08:10:20.709Z</time>
      </trkpt>
      <trkpt lat="46.91701" lon="8.67959">
        <ele>2093</ele>
        <time>2021-08-07T08:10:21.709Z</time>
      </trkpt>
      <trkpt lat="46.91702" lon="8.67959">
        <ele>2093</ele>
        <time>2021-08-07T08:10:22.709Z</time>
      </trkpt>
      <trkpt lat="46.91702" lon="8.67958">
        <ele>2093</ele>
        <time>2021-08-07T08:10:23.709Z</time>
      </trkpt>
      <trkpt lat="46.91702" lon="8.67958">
        <ele>2092</ele>
        <time>2021-08-07T08:10:24.709Z</time>
      </trkpt>
      <trkpt lat="46.91702" lon="8.67957">
        <ele>2092</ele>
        <time>2021-08-07T08:10:25.708Z</time>
      </trkpt>
      <trkpt lat="46.91701" lon="8.67956">
        <ele>2092</ele>
        <time>2021-08-07T08:10:26.709Z</time>
      </trkpt>
      <trkpt lat="46.91701" lon="8.67956">
        <ele>2092</ele>
        <time>2021-08-07T08:10:27.708Z</time>
      </trkpt>
      <trkpt lat="46.91701" lon="8.67955">
        <ele>2092</ele>
        <time>2021-08-07T08:10:28.708Z</time>
      </trkpt>
      <trkpt lat="46.917" lon="8.67954">
        <ele>2092</ele>
        <time>2021-08-07T08:10:29.708Z</time>
      </trkpt>
      <trkpt lat="46.917" lon="8.67953">
        <ele>2092</ele>
        <time>2021-08-07T08:10:30.709Z</time>
      </trkpt>
      <trkpt lat="46.917" lon="8.67953">
        <ele>2093</ele>
        <time>2021-08-07T08:10:31.708Z</time>
      </trkpt>
      <trkpt lat="46.917" lon="8.67952">
        <ele>2092</ele>
        <time>2021-08-07T08:10:32.709Z</time>
      </trkpt>
      <trkpt lat="46.91699" lon="8.67951">
        <ele>2092</ele>
        <time>2021-08-07T08:10:33.708Z</time>
      </trkpt>
      <trkpt lat="46.91698" lon="8.6795">
        <ele>2091</ele>
        <time>2021-08-07T08:10:34.709Z</time>
      </trkpt>
      <trkpt lat="46.91698" lon="8.67949">
        <ele>2090</ele>
        <time>2021-08-07T08:10:35.709Z</time>
      </trkpt>
      <trkpt lat="46.91698" lon="8.67948">
        <ele>2090</ele>
        <time>2021-08-07T08:10:36.709Z</time>
      </trkpt>
      <trkpt lat="46.91697" lon="8.67948">
        <ele>2090</ele>
        <time>2021-08-07T08:10:37.709Z</time>
      </trkpt>
      <trkpt lat="46.91697" lon="8.67947">
        <ele>2089</ele>
        <time>2021-08-07T08:10:38.709Z</time>
      </trkpt>
      <trkpt lat="46.91696" lon="8.67947">
        <ele>2089</ele>
        <time>2021-08-07T08:10:39.708Z</time>
      </trkpt>
      <trkpt lat="46.91696" lon="8.67947">
        <ele>2089</ele>
        <time>2021-08-07T08:10:40.709Z</time>
      </trkpt>
      <trkpt lat="46.91696" lon="8.67946">
        <ele>2088</ele>
        <time>2021-08-07T08:10:41.709Z</time>
      </trkpt>
      <trkpt lat="46.91695" lon="8.67946">
        <ele>2088</ele>
        <time>2021-08-07T08:10:42.708Z</time>
      </trkpt>
      <trkpt lat="46.91695" lon="8.67945">
        <ele>2088</ele>
        <time>2021-08-07T08:10:43.709Z</time>
      </trkpt>
      <trkpt lat="46.91695" lon="8.67945">
        <ele>2087</ele>
        <time>2021-08-07T08:10:44.709Z</time>
      </trkpt>
      <trkpt lat="46.91694" lon="8.67945">
        <ele>2087</ele>
        <time>2021-08-07T08:10:45.708Z</time>
      </trkpt>
      <trkpt lat="46.91694" lon="8.67945">
        <ele>2087</ele>
        <time>2021-08-07T08:10:46.708Z</time>
      </trkpt>
      <trkpt lat="46.91693" lon="8.67944">
        <ele>2087</ele>
        <time>2021-08-07T08:10:47.708Z</time>
      </trkpt>
      <trkpt lat="46.91692" lon="8.67944">
        <ele>2087</ele>
        <time>2021-08-07T08:10:48.708Z</time>
      </trkpt>
      <trkpt lat="46.91692" lon="8.67944">
        <ele>2087</ele>
        <time>2021-08-07T08:10:49.708Z</time>
      </trkpt>
      <trkpt lat="46.91692" lon="8.67943">
        <ele>2087</ele>
        <time>2021-08-07T08:10:50.708Z</time>
      </trkpt>
      <trkpt lat="46.91692" lon="8.67943">
        <ele>2087</ele>
        <time>2021-08-07T08:10:51.709Z</time>
      </trkpt>
      <trkpt lat="46.91692" lon="8.67942">
        <ele>2087</ele>
        <time>2021-08-07T08:10:52.708Z</time>
      </trkpt>
      <trkpt lat="46.91692" lon="8.67941">
        <ele>2086</ele>
        <time>2021-08-07T08:10:53.709Z</time>
      </trkpt>
      <trkpt lat="46.91691" lon="8.6794">
        <ele>2086</ele>
        <time>2021-08-07T08:10:54.709Z</time>
      </trkpt>
      <trkpt lat="46.9169" lon="8.67939">
        <ele>2086</ele>
        <time>2021-08-07T08:10:55.709Z</time>
      </trkpt>
      <trkpt lat="46.91689" lon="8.67938">
        <ele>2086</ele>
        <time>2021-08-07T08:10:56.709Z</time>
      </trkpt>
      <trkpt lat="46.91689" lon="8.67937">
        <ele>2085</ele>
        <time>2021-08-07T08:10:57.708Z</time>
      </trkpt>
      <trkpt lat="46.91688" lon="8.67936">
        <ele>2085</ele>
        <time>2021-08-07T08:10:58.709Z</time>
      </trkpt>
      <trkpt lat="46.91688" lon="8.67935">
        <ele>2085</ele>
        <time>2021-08-07T08:10:59.708Z</time>
      </trkpt>
      <trkpt lat="46.91688" lon="8.67934">
        <ele>2084</ele>
        <time>2021-08-07T08:11:00.709Z</time>
      </trkpt>
      <trkpt lat="46.91688" lon="8.67933">
        <ele>2084</ele>
        <time>2021-08-07T08:11:01.709Z</time>
      </trkpt>
      <trkpt lat="46.91687" lon="8.67932">
        <ele>2084</ele>
        <time>2021-08-07T08:11:02.708Z</time>
      </trkpt>
      <trkpt lat="46.91687" lon="8.67931">
        <ele>2083</ele>
        <time>2021-08-07T08:11:03.709Z</time>
      </trkpt>
      <trkpt lat="46.91686" lon="8.6793">
        <ele>2083</ele>
        <time>2021-08-07T08:11:04.709Z</time>
      </trkpt>
      <trkpt lat="46.91686" lon="8.67929">
        <ele>2082</ele>
        <time>2021-08-07T08:11:05.709Z</time>
      </trkpt>
      <trkpt lat="46.91685" lon="8.67928">
        <ele>2082</ele>
        <time>2021-08-07T08:11:06.709Z</time>
      </trkpt>
      <trkpt lat="46.91685" lon="8.67926">
        <ele>2082</ele>
        <time>2021-08-07T08:11:07.709Z</time>
      </trkpt>
      <trkpt lat="46.91685" lon="8.67925">
        <ele>2082</ele>
        <time>2021-08-07T08:11:08.708Z</time>
      </trkpt>
      <trkpt lat="46.91685" lon="8.67924">
        <ele>2082</ele>
        <time>2021-08-07T08:11:09.709Z</time>
      </trkpt>
      <trkpt lat="46.91685" lon="8.67923">
        <ele>2082</ele>
        <time>2021-08-07T08:11:10.709Z</time>
      </trkpt>
      <trkpt lat="46.91685" lon="8.67922">
        <ele>2082</ele>
        <time>2021-08-07T08:11:11.709Z</time>
      </trkpt>
      <trkpt lat="46.91685" lon="8.67921">
        <ele>2082</ele>
        <time>2021-08-07T08:11:12.709Z</time>
      </trkpt>
      <trkpt lat="46.91685" lon="8.67921">
        <ele>2082</ele>
        <time>2021-08-07T08:11:13.708Z</time>
      </trkpt>
      <trkpt lat="46.91685" lon="8.6792">
        <ele>2083</ele>
        <time>2021-08-07T08:11:14.709Z</time>
      </trkpt>
      <trkpt lat="46.91686" lon="8.6792">
        <ele>2083</ele>
        <time>2021-08-07T08:11:15.708Z</time>
      </trkpt>
      <trkpt lat="46.91686" lon="8.67919">
        <ele>2084</ele>
        <time>2021-08-07T08:11:16.709Z</time>
      </trkpt>
      <trkpt lat="46.91686" lon="8.67918">
        <ele>2084</ele>
        <time>2021-08-07T08:11:17.709Z</time>
      </trkpt>
      <trkpt lat="46.91686" lon="8.67917">
        <ele>2084</ele>
        <time>2021-08-07T08:11:18.709Z</time>
      </trkpt>
      <trkpt lat="46.91686" lon="8.67916">
        <ele>2085</ele>
        <time>2021-08-07T08:11:19.708Z</time>
      </trkpt>
      <trkpt lat="46.91686" lon="8.67915">
        <ele>2085</ele>
        <time>2021-08-07T08:11:20.709Z</time>
      </trkpt>
      <trkpt lat="46.91686" lon="8.67914">
        <ele>2086</ele>
        <time>2021-08-07T08:11:21.708Z</time>
      </trkpt>
      <trkpt lat="46.91685" lon="8.67913">
        <ele>2086</ele>
        <time>2021-08-07T08:11:22.708Z</time>
      </trkpt>
      <trkpt lat="46.91684" lon="8.67912">
        <ele>2086</ele>
        <time>2021-08-07T08:11:23.708Z</time>
      </trkpt>
      <trkpt lat="46.91684" lon="8.6791">
        <ele>2086</ele>
        <time>2021-08-07T08:11:24.708Z</time>
      </trkpt>
      <trkpt lat="46.91683" lon="8.67909">
        <ele>2086</ele>
        <time>2021-08-07T08:11:25.708Z</time>
      </trkpt>
      <trkpt lat="46.91683" lon="8.67908">
        <ele>2086</ele>
        <time>2021-08-07T08:11:26.709Z</time>
      </trkpt>
      <trkpt lat="46.91682" lon="8.67906">
        <ele>2086</ele>
        <time>2021-08-07T08:11:27.708Z</time>
      </trkpt>
      <trkpt lat="46.91681" lon="8.67904">
        <ele>2085</ele>
        <time>2021-08-07T08:11:28.708Z</time>
      </trkpt>
      <trkpt lat="46.9168" lon="8.67903">
        <ele>2085</ele>
        <time>2021-08-07T08:11:29.708Z</time>
      </trkpt>
      <trkpt lat="46.9168" lon="8.67901">
        <ele>2084</ele>
        <time>2021-08-07T08:11:30.708Z</time>
      </trkpt>
      <trkpt lat="46.9168" lon="8.679">
        <ele>2084</ele>
        <time>2021-08-07T08:11:31.708Z</time>
      </trkpt>
      <trkpt lat="46.91679" lon="8.67899">
        <ele>2083</ele>
        <time>2021-08-07T08:11:32.709Z</time>
      </trkpt>
      <trkpt lat="46.91679" lon="8.67897">
        <ele>2082</ele>
        <time>2021-08-07T08:11:33.708Z</time>
      </trkpt>
      <trkpt lat="46.91678" lon="8.67896">
        <ele>2082</ele>
        <time>2021-08-07T08:11:34.708Z</time>
      </trkpt>
      <trkpt lat="46.91678" lon="8.67895">
        <ele>2081</ele>
        <time>2021-08-07T08:11:35.708Z</time>
      </trkpt>
      <trkpt lat="46.91677" lon="8.67894">
        <ele>2081</ele>
        <time>2021-08-07T08:11:36.708Z</time>
      </trkpt>
      <trkpt lat="46.91677" lon="8.67893">
        <ele>2081</ele>
        <time>2021-08-07T08:11:37.709Z</time>
      </trkpt>
      <trkpt lat="46.91677" lon="8.67893">
        <ele>2081</ele>
        <time>2021-08-07T08:11:38.708Z</time>
      </trkpt>
      <trkpt lat="46.91676" lon="8.67892">
        <ele>2081</ele>
        <time>2021-08-07T08:11:39.708Z</time>
      </trkpt>
      <trkpt lat="46.91675" lon="8.67892">
        <ele>2081</ele>
        <time>2021-08-07T08:11:40.708Z</time>
      </trkpt>
      <trkpt lat="46.91675" lon="8.67892">
        <ele>2081</ele>
        <time>2021-08-07T08:11:41.708Z</time>
      </trkpt>
      <trkpt lat="46.91674" lon="8.67891">
        <ele>2082</ele>
        <time>2021-08-07T08:11:42.708Z</time>
      </trkpt>
      <trkpt lat="46.91674" lon="8.6789">
        <ele>2081</ele>
        <time>2021-08-07T08:11:43.708Z</time>
      </trkpt>
      <trkpt lat="46.91674" lon="8.67889">
        <ele>2081</ele>
        <time>2021-08-07T08:11:44.708Z</time>
      </trkpt>
      <trkpt lat="46.91674" lon="8.67888">
        <ele>2081</ele>
        <time>2021-08-07T08:11:45.708Z</time>
      </trkpt>
      <trkpt lat="46.91675" lon="8.67886">
        <ele>2081</ele>
        <time>2021-08-07T08:11:46.708Z</time>
      </trkpt>
      <trkpt lat="46.91674" lon="8.67885">
        <ele>2081</ele>
        <time>2021-08-07T08:11:47.708Z</time>
      </trkpt>
      <trkpt lat="46.91674" lon="8.67884">
        <ele>2081</ele>
        <time>2021-08-07T08:11:48.708Z</time>
      </trkpt>
      <trkpt lat="46.91673" lon="8.67882">
        <ele>2081</ele>
        <time>2021-08-07T08:11:49.708Z</time>
      </trkpt>
      <trkpt lat="46.91673" lon="8.67881">
        <ele>2080</ele>
        <time>2021-08-07T08:11:50.708Z</time>
      </trkpt>
      <trkpt lat="46.91672" lon="8.6788">
        <ele>2080</ele>
        <time>2021-08-07T08:11:51.708Z</time>
      </trkpt>
      <trkpt lat="46.91672" lon="8.67878">
        <ele>2079</ele>
        <time>2021-08-07T08:11:52.708Z</time>
      </trkpt>
      <trkpt lat="46.91671" lon="8.67877">
        <ele>2079</ele>
        <time>2021-08-07T08:11:53.708Z</time>
      </trkpt>
      <trkpt lat="46.91671" lon="8.67876">
        <ele>2078</ele>
        <time>2021-08-07T08:11:54.708Z</time>
      </trkpt>
      <trkpt lat="46.91671" lon="8.67875">
        <ele>2078</ele>
        <time>2021-08-07T08:11:55.708Z</time>
      </trkpt>
      <trkpt lat="46.91671" lon="8.67876">
        <ele>2078</ele>
        <time>2021-08-07T08:11:56.708Z</time>
      </trkpt>
      <trkpt lat="46.91671" lon="8.67873">
        <ele>2075</ele>
        <time>2021-08-07T08:11:57.708Z</time>
      </trkpt>
      <trkpt lat="46.91671" lon="8.67871">
        <ele>2075</ele>
        <time>2021-08-07T08:11:58.709Z</time>
      </trkpt>
      <trkpt lat="46.91671" lon="8.6787">
        <ele>2075</ele>
        <time>2021-08-07T08:11:59.708Z</time>
      </trkpt>
      <trkpt lat="46.91671" lon="8.67869">
        <ele>2075</ele>
        <time>2021-08-07T08:12:00.709Z</time>
      </trkpt>
      <trkpt lat="46.9167" lon="8.67868">
        <ele>2075</ele>
        <time>2021-08-07T08:12:01.709Z</time>
      </trkpt>
      <trkpt lat="46.9167" lon="8.67867">
        <ele>2076</ele>
        <time>2021-08-07T08:12:02.709Z</time>
      </trkpt>
      <trkpt lat="46.91671" lon="8.67865">
        <ele>2076</ele>
        <time>2021-08-07T08:12:03.709Z</time>
      </trkpt>
      <trkpt lat="46.91671" lon="8.67863">
        <ele>2076</ele>
        <time>2021-08-07T08:12:04.709Z</time>
      </trkpt>
      <trkpt lat="46.91671" lon="8.67861">
        <ele>2077</ele>
        <time>2021-08-07T08:12:05.709Z</time>
      </trkpt>
      <trkpt lat="46.91671" lon="8.6786">
        <ele>2077</ele>
        <time>2021-08-07T08:12:06.709Z</time>
      </trkpt>
      <trkpt lat="46.91672" lon="8.67859">
        <ele>2077</ele>
        <time>2021-08-07T08:12:07.709Z</time>
      </trkpt>
      <trkpt lat="46.91672" lon="8.67857">
        <ele>2078</ele>
        <time>2021-08-07T08:12:08.708Z</time>
      </trkpt>
      <trkpt lat="46.91672" lon="8.67856">
        <ele>2078</ele>
        <time>2021-08-07T08:12:09.708Z</time>
      </trkpt>
      <trkpt lat="46.91672" lon="8.67855">
        <ele>2078</ele>
        <time>2021-08-07T08:12:10.709Z</time>
      </trkpt>
      <trkpt lat="46.91671" lon="8.67853">
        <ele>2078</ele>
        <time>2021-08-07T08:12:11.709Z</time>
      </trkpt>
      <trkpt lat="46.91671" lon="8.67852">
        <ele>2079</ele>
        <time>2021-08-07T08:12:12.709Z</time>
      </trkpt>
      <trkpt lat="46.91671" lon="8.6785">
        <ele>2078</ele>
        <time>2021-08-07T08:12:13.709Z</time>
      </trkpt>
      <trkpt lat="46.91671" lon="8.67849">
        <ele>2078</ele>
        <time>2021-08-07T08:12:14.709Z</time>
      </trkpt>
      <trkpt lat="46.91671" lon="8.67847">
        <ele>2077</ele>
        <time>2021-08-07T08:12:15.708Z</time>
      </trkpt>
      <trkpt lat="46.91671" lon="8.67846">
        <ele>2077</ele>
        <time>2021-08-07T08:12:16.709Z</time>
      </trkpt>
      <trkpt lat="46.91671" lon="8.67845">
        <ele>2076</ele>
        <time>2021-08-07T08:12:17.708Z</time>
      </trkpt>
      <trkpt lat="46.91671" lon="8.67844">
        <ele>2075</ele>
        <time>2021-08-07T08:12:18.708Z</time>
      </trkpt>
      <trkpt lat="46.91671" lon="8.67843">
        <ele>2075</ele>
        <time>2021-08-07T08:12:19.708Z</time>
      </trkpt>
      <trkpt lat="46.91672" lon="8.67841">
        <ele>2075</ele>
        <time>2021-08-07T08:12:20.708Z</time>
      </trkpt>
      <trkpt lat="46.91671" lon="8.6784">
        <ele>2074</ele>
        <time>2021-08-07T08:12:21.709Z</time>
      </trkpt>
      <trkpt lat="46.91672" lon="8.67838">
        <ele>2074</ele>
        <time>2021-08-07T08:12:22.709Z</time>
      </trkpt>
      <trkpt lat="46.91672" lon="8.67837">
        <ele>2073</ele>
        <time>2021-08-07T08:12:23.709Z</time>
      </trkpt>
      <trkpt lat="46.91672" lon="8.67836">
        <ele>2073</ele>
        <time>2021-08-07T08:12:24.709Z</time>
      </trkpt>
      <trkpt lat="46.91672" lon="8.67835">
        <ele>2073</ele>
        <time>2021-08-07T08:12:25.709Z</time>
      </trkpt>
      <trkpt lat="46.91672" lon="8.67833">
        <ele>2073</ele>
        <time>2021-08-07T08:12:26.709Z</time>
      </trkpt>
      <trkpt lat="46.91673" lon="8.67832">
        <ele>2073</ele>
        <time>2021-08-07T08:12:27.709Z</time>
      </trkpt>
      <trkpt lat="46.91673" lon="8.67831">
        <ele>2073</ele>
        <time>2021-08-07T08:12:28.709Z</time>
      </trkpt>
      <trkpt lat="46.91673" lon="8.67829">
        <ele>2073</ele>
        <time>2021-08-07T08:12:29.709Z</time>
      </trkpt>
      <trkpt lat="46.91673" lon="8.67827">
        <ele>2073</ele>
        <time>2021-08-07T08:12:30.709Z</time>
      </trkpt>
      <trkpt lat="46.91673" lon="8.67825">
        <ele>2073</ele>
        <time>2021-08-07T08:12:31.708Z</time>
      </trkpt>
      <trkpt lat="46.91673" lon="8.67824">
        <ele>2073</ele>
        <time>2021-08-07T08:12:32.708Z</time>
      </trkpt>
      <trkpt lat="46.91673" lon="8.67822">
        <ele>2073</ele>
        <time>2021-08-07T08:12:33.709Z</time>
      </trkpt>
      <trkpt lat="46.91673" lon="8.67821">
        <ele>2073</ele>
        <time>2021-08-07T08:12:34.709Z</time>
      </trkpt>
      <trkpt lat="46.91672" lon="8.67819">
        <ele>2073</ele>
        <time>2021-08-07T08:12:35.709Z</time>
      </trkpt>
      <trkpt lat="46.91672" lon="8.67818">
        <ele>2074</ele>
        <time>2021-08-07T08:12:36.709Z</time>
      </trkpt>
      <trkpt lat="46.91672" lon="8.67817">
        <ele>2074</ele>
        <time>2021-08-07T08:12:37.708Z</time>
      </trkpt>
      <trkpt lat="46.91672" lon="8.67816">
        <ele>2074</ele>
        <time>2021-08-07T08:12:38.709Z</time>
      </trkpt>
      <trkpt lat="46.91672" lon="8.67815">
        <ele>2073</ele>
        <time>2021-08-07T08:12:39.708Z</time>
      </trkpt>
      <trkpt lat="46.91672" lon="8.67813">
        <ele>2073</ele>
        <time>2021-08-07T08:12:40.708Z</time>
      </trkpt>
      <trkpt lat="46.91672" lon="8.67812">
        <ele>2073</ele>
        <time>2021-08-07T08:12:41.708Z</time>
      </trkpt>
      <trkpt lat="46.91672" lon="8.67811">
        <ele>2072</ele>
        <time>2021-08-07T08:12:42.708Z</time>
      </trkpt>
      <trkpt lat="46.91672" lon="8.6781">
        <ele>2072</ele>
        <time>2021-08-07T08:12:43.708Z</time>
      </trkpt>
      <trkpt lat="46.91672" lon="8.67809">
        <ele>2072</ele>
        <time>2021-08-07T08:12:44.708Z</time>
      </trkpt>
      <trkpt lat="46.91672" lon="8.67809">
        <ele>2072</ele>
        <time>2021-08-07T08:12:45.708Z</time>
      </trkpt>
      <trkpt lat="46.91672" lon="8.67808">
        <ele>2071</ele>
        <time>2021-08-07T08:12:46.710Z</time>
      </trkpt>
      <trkpt lat="46.91672" lon="8.67807">
        <ele>2071</ele>
        <time>2021-08-07T08:12:47.710Z</time>
      </trkpt>
      <trkpt lat="46.91672" lon="8.67806">
        <ele>2072</ele>
        <time>2021-08-07T08:12:48.710Z</time>
      </trkpt>
      <trkpt lat="46.91672" lon="8.67806">
        <ele>2072</ele>
        <time>2021-08-07T08:12:49.710Z</time>
      </trkpt>
      <trkpt lat="46.91672" lon="8.67805">
        <ele>2072</ele>
        <time>2021-08-07T08:12:50.709Z</time>
      </trkpt>
      <trkpt lat="46.91672" lon="8.67804">
        <ele>2072</ele>
        <time>2021-08-07T08:12:51.710Z</time>
      </trkpt>
      <trkpt lat="46.91672" lon="8.67803">
        <ele>2072</ele>
        <time>2021-08-07T08:12:52.710Z</time>
      </trkpt>
      <trkpt lat="46.91673" lon="8.67801">
        <ele>2072</ele>
        <time>2021-08-07T08:12:53.710Z</time>
      </trkpt>
      <trkpt lat="46.91673" lon="8.678">
        <ele>2072</ele>
        <time>2021-08-07T08:12:54.710Z</time>
      </trkpt>
      <trkpt lat="46.91672" lon="8.67799">
        <ele>2072</ele>
        <time>2021-08-07T08:12:55.710Z</time>
      </trkpt>
      <trkpt lat="46.91672" lon="8.67798">
        <ele>2072</ele>
        <time>2021-08-07T08:12:56.710Z</time>
      </trkpt>
      <trkpt lat="46.91672" lon="8.67797">
        <ele>2072</ele>
        <time>2021-08-07T08:12:57.710Z</time>
      </trkpt>
      <trkpt lat="46.91672" lon="8.67796">
        <ele>2071</ele>
        <time>2021-08-07T08:12:58.710Z</time>
      </trkpt>
      <trkpt lat="46.91672" lon="8.67795">
        <ele>2071</ele>
        <time>2021-08-07T08:12:59.710Z</time>
      </trkpt>
      <trkpt lat="46.91673" lon="8.67793">
        <ele>2071</ele>
        <time>2021-08-07T08:13:00.710Z</time>
      </trkpt>
      <trkpt lat="46.91673" lon="8.67792">
        <ele>2070</ele>
        <time>2021-08-07T08:13:01.709Z</time>
      </trkpt>
      <trkpt lat="46.91673" lon="8.67791">
        <ele>2070</ele>
        <time>2021-08-07T08:13:02.710Z</time>
      </trkpt>
      <trkpt lat="46.91673" lon="8.67789">
        <ele>2069</ele>
        <time>2021-08-07T08:13:03.709Z</time>
      </trkpt>
      <trkpt lat="46.91674" lon="8.67788">
        <ele>2069</ele>
        <time>2021-08-07T08:13:04.709Z</time>
      </trkpt>
      <trkpt lat="46.91674" lon="8.67787">
        <ele>2069</ele>
        <time>2021-08-07T08:13:05.710Z</time>
      </trkpt>
      <trkpt lat="46.91674" lon="8.67785">
        <ele>2069</ele>
        <time>2021-08-07T08:13:06.710Z</time>
      </trkpt>
      <trkpt lat="46.91674" lon="8.67785">
        <ele>2069</ele>
        <time>2021-08-07T08:13:07.709Z</time>
      </trkpt>
      <trkpt lat="46.91675" lon="8.67784">
        <ele>2068</ele>
        <time>2021-08-07T08:13:08.709Z</time>
      </trkpt>
      <trkpt lat="46.91674" lon="8.67782">
        <ele>2068</ele>
        <time>2021-08-07T08:13:09.710Z</time>
      </trkpt>
      <trkpt lat="46.91674" lon="8.67781">
        <ele>2068</ele>
        <time>2021-08-07T08:13:10.710Z</time>
      </trkpt>
      <trkpt lat="46.91674" lon="8.67779">
        <ele>2068</ele>
        <time>2021-08-07T08:13:11.710Z</time>
      </trkpt>
      <trkpt lat="46.91674" lon="8.67778">
        <ele>2068</ele>
        <time>2021-08-07T08:13:12.709Z</time>
      </trkpt>
      <trkpt lat="46.91674" lon="8.67777">
        <ele>2068</ele>
        <time>2021-08-07T08:13:13.710Z</time>
      </trkpt>
      <trkpt lat="46.91674" lon="8.67776">
        <ele>2067</ele>
        <time>2021-08-07T08:13:14.709Z</time>
      </trkpt>
      <trkpt lat="46.91673" lon="8.67776">
        <ele>2067</ele>
        <time>2021-08-07T08:13:15.710Z</time>
      </trkpt>
      <trkpt lat="46.91673" lon="8.67775">
        <ele>2067</ele>
        <time>2021-08-07T08:13:16.710Z</time>
      </trkpt>
      <trkpt lat="46.91673" lon="8.67773">
        <ele>2067</ele>
        <time>2021-08-07T08:13:17.710Z</time>
      </trkpt>
      <trkpt lat="46.91673" lon="8.67772">
        <ele>2067</ele>
        <time>2021-08-07T08:13:18.710Z</time>
      </trkpt>
      <trkpt lat="46.91673" lon="8.67771">
        <ele>2067</ele>
        <time>2021-08-07T08:13:19.710Z</time>
      </trkpt>
      <trkpt lat="46.91673" lon="8.6777">
        <ele>2067</ele>
        <time>2021-08-07T08:13:20.710Z</time>
      </trkpt>
      <trkpt lat="46.91673" lon="8.67768">
        <ele>2066</ele>
        <time>2021-08-07T08:13:21.709Z</time>
      </trkpt>
      <trkpt lat="46.91674" lon="8.67767">
        <ele>2066</ele>
        <time>2021-08-07T08:13:22.709Z</time>
      </trkpt>
      <trkpt lat="46.91674" lon="8.67766">
        <ele>2066</ele>
        <time>2021-08-07T08:13:23.709Z</time>
      </trkpt>
      <trkpt lat="46.91674" lon="8.67764">
        <ele>2066</ele>
        <time>2021-08-07T08:13:24.710Z</time>
      </trkpt>
      <trkpt lat="46.91674" lon="8.67763">
        <ele>2065</ele>
        <time>2021-08-07T08:13:25.710Z</time>
      </trkpt>
      <trkpt lat="46.91674" lon="8.67762">
        <ele>2065</ele>
        <time>2021-08-07T08:13:26.709Z</time>
      </trkpt>
      <trkpt lat="46.91674" lon="8.67761">
        <ele>2065</ele>
        <time>2021-08-07T08:13:27.710Z</time>
      </trkpt>
      <trkpt lat="46.91675" lon="8.6776">
        <ele>2065</ele>
        <time>2021-08-07T08:13:28.710Z</time>
      </trkpt>
      <trkpt lat="46.91675" lon="8.67759">
        <ele>2066</ele>
        <time>2021-08-07T08:13:29.709Z</time>
      </trkpt>
      <trkpt lat="46.91675" lon="8.67758">
        <ele>2067</ele>
        <time>2021-08-07T08:13:30.709Z</time>
      </trkpt>
      <trkpt lat="46.91675" lon="8.67756">
        <ele>2067</ele>
        <time>2021-08-07T08:13:31.709Z</time>
      </trkpt>
      <trkpt lat="46.91675" lon="8.67755">
        <ele>2066</ele>
        <time>2021-08-07T08:13:32.710Z</time>
      </trkpt>
      <trkpt lat="46.91675" lon="8.67754">
        <ele>2066</ele>
        <time>2021-08-07T08:13:33.710Z</time>
      </trkpt>
      <trkpt lat="46.91676" lon="8.67753">
        <ele>2065</ele>
        <time>2021-08-07T08:13:34.709Z</time>
      </trkpt>
      <trkpt lat="46.91676" lon="8.67752">
        <ele>2064</ele>
        <time>2021-08-07T08:13:35.710Z</time>
      </trkpt>
      <trkpt lat="46.91676" lon="8.67751">
        <ele>2064</ele>
        <time>2021-08-07T08:13:36.710Z</time>
      </trkpt>
      <trkpt lat="46.91676" lon="8.6775">
        <ele>2064</ele>
        <time>2021-08-07T08:13:37.710Z</time>
      </trkpt>
      <trkpt lat="46.91676" lon="8.6775">
        <ele>2064</ele>
        <time>2021-08-07T08:13:38.710Z</time>
      </trkpt>
      <trkpt lat="46.91676" lon="8.67749">
        <ele>2064</ele>
        <time>2021-08-07T08:13:39.710Z</time>
      </trkpt>
      <trkpt lat="46.91676" lon="8.67749">
        <ele>2064</ele>
        <time>2021-08-07T08:13:40.709Z</time>
      </trkpt>
      <trkpt lat="46.91676" lon="8.67748">
        <ele>2063</ele>
        <time>2021-08-07T08:13:41.710Z</time>
      </trkpt>
      <trkpt lat="46.91676" lon="8.67747">
        <ele>2063</ele>
        <time>2021-08-07T08:13:42.709Z</time>
      </trkpt>
      <trkpt lat="46.91676" lon="8.67746">
        <ele>2063</ele>
        <time>2021-08-07T08:13:43.710Z</time>
      </trkpt>
      <trkpt lat="46.91677" lon="8.67745">
        <ele>2063</ele>
        <time>2021-08-07T08:13:44.710Z</time>
      </trkpt>
      <trkpt lat="46.91677" lon="8.67743">
        <ele>2063</ele>
        <time>2021-08-07T08:13:45.710Z</time>
      </trkpt>
      <trkpt lat="46.91677" lon="8.67742">
        <ele>2062</ele>
        <time>2021-08-07T08:13:46.710Z</time>
      </trkpt>
      <trkpt lat="46.91677" lon="8.6774">
        <ele>2062</ele>
        <time>2021-08-07T08:13:47.709Z</time>
      </trkpt>
      <trkpt lat="46.91678" lon="8.67739">
        <ele>2062</ele>
        <time>2021-08-07T08:13:48.710Z</time>
      </trkpt>
      <trkpt lat="46.91677" lon="8.67737">
        <ele>2062</ele>
        <time>2021-08-07T08:13:49.710Z</time>
      </trkpt>
      <trkpt lat="46.91677" lon="8.67735">
        <ele>2062</ele>
        <time>2021-08-07T08:13:50.709Z</time>
      </trkpt>
      <trkpt lat="46.91677" lon="8.67734">
        <ele>2061</ele>
        <time>2021-08-07T08:13:51.710Z</time>
      </trkpt>
      <trkpt lat="46.91677" lon="8.67733">
        <ele>2061</ele>
        <time>2021-08-07T08:13:52.709Z</time>
      </trkpt>
      <trkpt lat="46.91677" lon="8.67731">
        <ele>2061</ele>
        <time>2021-08-07T08:13:53.710Z</time>
      </trkpt>
      <trkpt lat="46.91677" lon="8.6773">
        <ele>2060</ele>
        <time>2021-08-07T08:13:54.709Z</time>
      </trkpt>
      <trkpt lat="46.91676" lon="8.67728">
        <ele>2060</ele>
        <time>2021-08-07T08:13:55.710Z</time>
      </trkpt>
      <trkpt lat="46.91676" lon="8.67727">
        <ele>2060</ele>
        <time>2021-08-07T08:13:56.710Z</time>
      </trkpt>
      <trkpt lat="46.91676" lon="8.67725">
        <ele>2059</ele>
        <time>2021-08-07T08:13:57.709Z</time>
      </trkpt>
      <trkpt lat="46.91675" lon="8.67724">
        <ele>2059</ele>
        <time>2021-08-07T08:13:58.710Z</time>
      </trkpt>
      <trkpt lat="46.91675" lon="8.67723">
        <ele>2059</ele>
        <time>2021-08-07T08:13:59.710Z</time>
      </trkpt>
      <trkpt lat="46.91675" lon="8.67721">
        <ele>2059</ele>
        <time>2021-08-07T08:14:00.710Z</time>
      </trkpt>
      <trkpt lat="46.91675" lon="8.6772">
        <ele>2059</ele>
        <time>2021-08-07T08:14:01.710Z</time>
      </trkpt>
      <trkpt lat="46.91675" lon="8.67719">
        <ele>2059</ele>
        <time>2021-08-07T08:14:02.710Z</time>
      </trkpt>
      <trkpt lat="46.91675" lon="8.67718">
        <ele>2058</ele>
        <time>2021-08-07T08:14:03.710Z</time>
      </trkpt>
      <trkpt lat="46.91676" lon="8.67717">
        <ele>2059</ele>
        <time>2021-08-07T08:14:04.710Z</time>
      </trkpt>
      <trkpt lat="46.91676" lon="8.67716">
        <ele>2059</ele>
        <time>2021-08-07T08:14:05.710Z</time>
      </trkpt>
      <trkpt lat="46.91677" lon="8.67715">
        <ele>2059</ele>
        <time>2021-08-07T08:14:06.710Z</time>
      </trkpt>
      <trkpt lat="46.91678" lon="8.67714">
        <ele>2059</ele>
        <time>2021-08-07T08:14:07.710Z</time>
      </trkpt>
      <trkpt lat="46.91679" lon="8.67714">
        <ele>2060</ele>
        <time>2021-08-07T08:14:08.710Z</time>
      </trkpt>
      <trkpt lat="46.9168" lon="8.67713">
        <ele>2061</ele>
        <time>2021-08-07T08:14:09.710Z</time>
      </trkpt>
      <trkpt lat="46.91681" lon="8.67713">
        <ele>2061</ele>
        <time>2021-08-07T08:14:10.709Z</time>
      </trkpt>
      <trkpt lat="46.91682" lon="8.67711">
        <ele>2061</ele>
        <time>2021-08-07T08:14:11.710Z</time>
      </trkpt>
      <trkpt lat="46.91682" lon="8.67709">
        <ele>2061</ele>
        <time>2021-08-07T08:14:12.710Z</time>
      </trkpt>
      <trkpt lat="46.91682" lon="8.67707">
        <ele>2061</ele>
        <time>2021-08-07T08:14:13.710Z</time>
      </trkpt>
      <trkpt lat="46.91682" lon="8.67705">
        <ele>2060</ele>
        <time>2021-08-07T08:14:14.710Z</time>
      </trkpt>
      <trkpt lat="46.91682" lon="8.67704">
        <ele>2059</ele>
        <time>2021-08-07T08:14:15.710Z</time>
      </trkpt>
      <trkpt lat="46.91682" lon="8.67704">
        <ele>2058</ele>
        <time>2021-08-07T08:14:16.709Z</time>
      </trkpt>
      <trkpt lat="46.91682" lon="8.67703">
        <ele>2057</ele>
        <time>2021-08-07T08:14:17.709Z</time>
      </trkpt>
      <trkpt lat="46.91682" lon="8.67702">
        <ele>2056</ele>
        <time>2021-08-07T08:14:18.709Z</time>
      </trkpt>
      <trkpt lat="46.91682" lon="8.67702">
        <ele>2056</ele>
        <time>2021-08-07T08:14:19.710Z</time>
      </trkpt>
      <trkpt lat="46.91681" lon="8.677">
        <ele>2052</ele>
        <time>2021-08-07T08:14:20.710Z</time>
      </trkpt>
      <trkpt lat="46.91681" lon="8.67699">
        <ele>2051</ele>
        <time>2021-08-07T08:14:21.710Z</time>
      </trkpt>
      <trkpt lat="46.91681" lon="8.67698">
        <ele>2051</ele>
        <time>2021-08-07T08:14:22.710Z</time>
      </trkpt>
      <trkpt lat="46.91681" lon="8.67697">
        <ele>2051</ele>
        <time>2021-08-07T08:14:23.711Z</time>
      </trkpt>
      <trkpt lat="46.91682" lon="8.67697">
        <ele>2052</ele>
        <time>2021-08-07T08:14:24.711Z</time>
      </trkpt>
      <trkpt lat="46.91682" lon="8.67695">
        <ele>2051</ele>
        <time>2021-08-07T08:14:25.711Z</time>
      </trkpt>
      <trkpt lat="46.91683" lon="8.67694">
        <ele>2052</ele>
        <time>2021-08-07T08:14:26.711Z</time>
      </trkpt>
      <trkpt lat="46.91683" lon="8.67693">
        <ele>2052</ele>
        <time>2021-08-07T08:14:27.710Z</time>
      </trkpt>
      <trkpt lat="46.91683" lon="8.67692">
        <ele>2052</ele>
        <time>2021-08-07T08:14:28.711Z</time>
      </trkpt>
      <trkpt lat="46.91683" lon="8.67691">
        <ele>2052</ele>
        <time>2021-08-07T08:14:29.710Z</time>
      </trkpt>
      <trkpt lat="46.91684" lon="8.6769">
        <ele>2052</ele>
        <time>2021-08-07T08:14:30.711Z</time>
      </trkpt>
      <trkpt lat="46.91684" lon="8.67689">
        <ele>2052</ele>
        <time>2021-08-07T08:14:31.711Z</time>
      </trkpt>
      <trkpt lat="46.91685" lon="8.67688">
        <ele>2052</ele>
        <time>2021-08-07T08:14:32.711Z</time>
      </trkpt>
      <trkpt lat="46.91686" lon="8.67686">
        <ele>2052</ele>
        <time>2021-08-07T08:14:33.710Z</time>
      </trkpt>
      <trkpt lat="46.91686" lon="8.67685">
        <ele>2052</ele>
        <time>2021-08-07T08:14:34.711Z</time>
      </trkpt>
      <trkpt lat="46.91687" lon="8.67684">
        <ele>2052</ele>
        <time>2021-08-07T08:14:35.711Z</time>
      </trkpt>
      <trkpt lat="46.91687" lon="8.67683">
        <ele>2052</ele>
        <time>2021-08-07T08:14:36.710Z</time>
      </trkpt>
      <trkpt lat="46.91687" lon="8.67682">
        <ele>2052</ele>
        <time>2021-08-07T08:14:37.711Z</time>
      </trkpt>
      <trkpt lat="46.91687" lon="8.67681">
        <ele>2051</ele>
        <time>2021-08-07T08:14:38.710Z</time>
      </trkpt>
      <trkpt lat="46.91688" lon="8.6768">
        <ele>2051</ele>
        <time>2021-08-07T08:14:39.710Z</time>
      </trkpt>
      <trkpt lat="46.91688" lon="8.67679">
        <ele>2051</ele>
        <time>2021-08-07T08:14:40.711Z</time>
      </trkpt>
      <trkpt lat="46.91687" lon="8.67678">
        <ele>2050</ele>
        <time>2021-08-07T08:14:41.711Z</time>
      </trkpt>
      <trkpt lat="46.91687" lon="8.67677">
        <ele>2050</ele>
        <time>2021-08-07T08:14:42.710Z</time>
      </trkpt>
      <trkpt lat="46.91687" lon="8.67676">
        <ele>2050</ele>
        <time>2021-08-07T08:14:43.711Z</time>
      </trkpt>
      <trkpt lat="46.91688" lon="8.67674">
        <ele>2049</ele>
        <time>2021-08-07T08:14:44.710Z</time>
      </trkpt>
      <trkpt lat="46.91688" lon="8.67672">
        <ele>2049</ele>
        <time>2021-08-07T08:14:45.711Z</time>
      </trkpt>
      <trkpt lat="46.91688" lon="8.67671">
        <ele>2049</ele>
        <time>2021-08-07T08:14:46.711Z</time>
      </trkpt>
      <trkpt lat="46.91687" lon="8.67669">
        <ele>2049</ele>
        <time>2021-08-07T08:14:47.710Z</time>
      </trkpt>
      <trkpt lat="46.91688" lon="8.67668">
        <ele>2049</ele>
        <time>2021-08-07T08:14:48.711Z</time>
      </trkpt>
      <trkpt lat="46.91687" lon="8.67666">
        <ele>2049</ele>
        <time>2021-08-07T08:14:49.711Z</time>
      </trkpt>
      <trkpt lat="46.91687" lon="8.67665">
        <ele>2049</ele>
        <time>2021-08-07T08:14:50.711Z</time>
      </trkpt>
      <trkpt lat="46.91687" lon="8.67663">
        <ele>2048</ele>
        <time>2021-08-07T08:14:51.710Z</time>
      </trkpt>
      <trkpt lat="46.91687" lon="8.67661">
        <ele>2048</ele>
        <time>2021-08-07T08:14:52.710Z</time>
      </trkpt>
      <trkpt lat="46.91687" lon="8.6766">
        <ele>2048</ele>
        <time>2021-08-07T08:14:53.710Z</time>
      </trkpt>
      <trkpt lat="46.91688" lon="8.67659">
        <ele>2047</ele>
        <time>2021-08-07T08:14:54.710Z</time>
      </trkpt>
      <trkpt lat="46.91689" lon="8.67658">
        <ele>2047</ele>
        <time>2021-08-07T08:14:55.711Z</time>
      </trkpt>
      <trkpt lat="46.9169" lon="8.67657">
        <ele>2046</ele>
        <time>2021-08-07T08:14:56.711Z</time>
      </trkpt>
      <trkpt lat="46.91691" lon="8.67655">
        <ele>2045</ele>
        <time>2021-08-07T08:14:57.711Z</time>
      </trkpt>
      <trkpt lat="46.91691" lon="8.67654">
        <ele>2044</ele>
        <time>2021-08-07T08:14:58.710Z</time>
      </trkpt>
      <trkpt lat="46.91692" lon="8.67653">
        <ele>2044</ele>
        <time>2021-08-07T08:14:59.711Z</time>
      </trkpt>
      <trkpt lat="46.91693" lon="8.67651">
        <ele>2044</ele>
        <time>2021-08-07T08:15:00.711Z</time>
      </trkpt>
      <trkpt lat="46.91694" lon="8.67649">
        <ele>2043</ele>
        <time>2021-08-07T08:15:01.711Z</time>
      </trkpt>
      <trkpt lat="46.91694" lon="8.67648">
        <ele>2043</ele>
        <time>2021-08-07T08:15:02.711Z</time>
      </trkpt>
      <trkpt lat="46.91694" lon="8.67646">
        <ele>2042</ele>
        <time>2021-08-07T08:15:03.711Z</time>
      </trkpt>
      <trkpt lat="46.91695" lon="8.67645">
        <ele>2042</ele>
        <time>2021-08-07T08:15:04.710Z</time>
      </trkpt>
      <trkpt lat="46.91695" lon="8.67644">
        <ele>2042</ele>
        <time>2021-08-07T08:15:05.711Z</time>
      </trkpt>
      <trkpt lat="46.91696" lon="8.67642">
        <ele>2042</ele>
        <time>2021-08-07T08:15:06.711Z</time>
      </trkpt>
      <trkpt lat="46.91696" lon="8.67641">
        <ele>2042</ele>
        <time>2021-08-07T08:15:07.711Z</time>
      </trkpt>
      <trkpt lat="46.91697" lon="8.67639">
        <ele>2042</ele>
        <time>2021-08-07T08:15:08.711Z</time>
      </trkpt>
      <trkpt lat="46.91698" lon="8.67638">
        <ele>2041</ele>
        <time>2021-08-07T08:15:09.711Z</time>
      </trkpt>
      <trkpt lat="46.91698" lon="8.67637">
        <ele>2041</ele>
        <time>2021-08-07T08:15:10.711Z</time>
      </trkpt>
      <trkpt lat="46.91699" lon="8.67636">
        <ele>2041</ele>
        <time>2021-08-07T08:15:11.711Z</time>
      </trkpt>
      <trkpt lat="46.917" lon="8.67635">
        <ele>2041</ele>
        <time>2021-08-07T08:15:12.711Z</time>
      </trkpt>
      <trkpt lat="46.91701" lon="8.67634">
        <ele>2041</ele>
        <time>2021-08-07T08:15:13.710Z</time>
      </trkpt>
      <trkpt lat="46.91701" lon="8.67633">
        <ele>2041</ele>
        <time>2021-08-07T08:15:14.711Z</time>
      </trkpt>
      <trkpt lat="46.91701" lon="8.67632">
        <ele>2041</ele>
        <time>2021-08-07T08:15:15.711Z</time>
      </trkpt>
      <trkpt lat="46.91702" lon="8.67631">
        <ele>2041</ele>
        <time>2021-08-07T08:15:16.710Z</time>
      </trkpt>
      <trkpt lat="46.91702" lon="8.67629">
        <ele>2041</ele>
        <time>2021-08-07T08:15:17.711Z</time>
      </trkpt>
      <trkpt lat="46.91703" lon="8.67628">
        <ele>2041</ele>
        <time>2021-08-07T08:15:18.711Z</time>
      </trkpt>
      <trkpt lat="46.91703" lon="8.67626">
        <ele>2042</ele>
        <time>2021-08-07T08:15:19.710Z</time>
      </trkpt>
      <trkpt lat="46.91704" lon="8.67625">
        <ele>2043</ele>
        <time>2021-08-07T08:15:20.710Z</time>
      </trkpt>
      <trkpt lat="46.91704" lon="8.67622">
        <ele>2043</ele>
        <time>2021-08-07T08:15:21.711Z</time>
      </trkpt>
      <trkpt lat="46.91705" lon="8.67621">
        <ele>2043</ele>
        <time>2021-08-07T08:15:22.711Z</time>
      </trkpt>
      <trkpt lat="46.91706" lon="8.6762">
        <ele>2043</ele>
        <time>2021-08-07T08:15:23.711Z</time>
      </trkpt>
      <trkpt lat="46.91707" lon="8.67618">
        <ele>2042</ele>
        <time>2021-08-07T08:15:24.710Z</time>
      </trkpt>
      <trkpt lat="46.91707" lon="8.67617">
        <ele>2042</ele>
        <time>2021-08-07T08:15:25.711Z</time>
      </trkpt>
      <trkpt lat="46.91708" lon="8.67615">
        <ele>2042</ele>
        <time>2021-08-07T08:15:26.711Z</time>
      </trkpt>
      <trkpt lat="46.91708" lon="8.67614">
        <ele>2042</ele>
        <time>2021-08-07T08:15:27.711Z</time>
      </trkpt>
      <trkpt lat="46.91709" lon="8.67613">
        <ele>2041</ele>
        <time>2021-08-07T08:15:28.710Z</time>
      </trkpt>
      <trkpt lat="46.91709" lon="8.67611">
        <ele>2041</ele>
        <time>2021-08-07T08:15:29.710Z</time>
      </trkpt>
      <trkpt lat="46.9171" lon="8.6761">
        <ele>2041</ele>
        <time>2021-08-07T08:15:30.710Z</time>
      </trkpt>
      <trkpt lat="46.9171" lon="8.67608">
        <ele>2040</ele>
        <time>2021-08-07T08:15:31.710Z</time>
      </trkpt>
      <trkpt lat="46.9171" lon="8.67607">
        <ele>2040</ele>
        <time>2021-08-07T08:15:32.711Z</time>
      </trkpt>
      <trkpt lat="46.9171" lon="8.67606">
        <ele>2039</ele>
        <time>2021-08-07T08:15:33.711Z</time>
      </trkpt>
      <trkpt lat="46.91711" lon="8.67604">
        <ele>2039</ele>
        <time>2021-08-07T08:15:34.711Z</time>
      </trkpt>
      <trkpt lat="46.91711" lon="8.67603">
        <ele>2039</ele>
        <time>2021-08-07T08:15:35.710Z</time>
      </trkpt>
      <trkpt lat="46.91711" lon="8.67603">
        <ele>2040</ele>
        <time>2021-08-07T08:15:36.710Z</time>
      </trkpt>
      <trkpt lat="46.91711" lon="8.67602">
        <ele>2041</ele>
        <time>2021-08-07T08:15:37.711Z</time>
      </trkpt>
      <trkpt lat="46.91711" lon="8.67601">
        <ele>2041</ele>
        <time>2021-08-07T08:15:38.711Z</time>
      </trkpt>
      <trkpt lat="46.91712" lon="8.676">
        <ele>2041</ele>
        <time>2021-08-07T08:15:39.710Z</time>
      </trkpt>
      <trkpt lat="46.91712" lon="8.67599">
        <ele>2041</ele>
        <time>2021-08-07T08:15:40.711Z</time>
      </trkpt>
      <trkpt lat="46.91713" lon="8.67598">
        <ele>2041</ele>
        <time>2021-08-07T08:15:41.710Z</time>
      </trkpt>
      <trkpt lat="46.91713" lon="8.67597">
        <ele>2041</ele>
        <time>2021-08-07T08:15:42.711Z</time>
      </trkpt>
      <trkpt lat="46.91713" lon="8.67597">
        <ele>2042</ele>
        <time>2021-08-07T08:15:43.711Z</time>
      </trkpt>
      <trkpt lat="46.91714" lon="8.67596">
        <ele>2042</ele>
        <time>2021-08-07T08:15:44.710Z</time>
      </trkpt>
      <trkpt lat="46.91715" lon="8.67595">
        <ele>2043</ele>
        <time>2021-08-07T08:15:45.710Z</time>
      </trkpt>
      <trkpt lat="46.91715" lon="8.67594">
        <ele>2043</ele>
        <time>2021-08-07T08:15:46.711Z</time>
      </trkpt>
      <trkpt lat="46.91716" lon="8.67593">
        <ele>2044</ele>
        <time>2021-08-07T08:15:47.711Z</time>
      </trkpt>
      <trkpt lat="46.91716" lon="8.67592">
        <ele>2044</ele>
        <time>2021-08-07T08:15:48.710Z</time>
      </trkpt>
      <trkpt lat="46.91716" lon="8.67591">
        <ele>2044</ele>
        <time>2021-08-07T08:15:49.710Z</time>
      </trkpt>
      <trkpt lat="46.91716" lon="8.6759">
        <ele>2044</ele>
        <time>2021-08-07T08:15:50.711Z</time>
      </trkpt>
      <trkpt lat="46.91716" lon="8.6759">
        <ele>2045</ele>
        <time>2021-08-07T08:15:51.710Z</time>
      </trkpt>
      <trkpt lat="46.91716" lon="8.67589">
        <ele>2045</ele>
        <time>2021-08-07T08:15:52.710Z</time>
      </trkpt>
      <trkpt lat="46.91716" lon="8.67588">
        <ele>2044</ele>
        <time>2021-08-07T08:15:53.710Z</time>
      </trkpt>
      <trkpt lat="46.91716" lon="8.67586">
        <ele>2044</ele>
        <time>2021-08-07T08:15:54.711Z</time>
      </trkpt>
      <trkpt lat="46.91715" lon="8.67585">
        <ele>2044</ele>
        <time>2021-08-07T08:15:55.710Z</time>
      </trkpt>
      <trkpt lat="46.91715" lon="8.67584">
        <ele>2043</ele>
        <time>2021-08-07T08:15:56.710Z</time>
      </trkpt>
      <trkpt lat="46.91715" lon="8.67582">
        <ele>2043</ele>
        <time>2021-08-07T08:15:57.710Z</time>
      </trkpt>
      <trkpt lat="46.91714" lon="8.67581">
        <ele>2043</ele>
        <time>2021-08-07T08:15:58.710Z</time>
      </trkpt>
      <trkpt lat="46.91714" lon="8.67579">
        <ele>2042</ele>
        <time>2021-08-07T08:15:59.710Z</time>
      </trkpt>
      <trkpt lat="46.91713" lon="8.67577">
        <ele>2042</ele>
        <time>2021-08-07T08:16:00.710Z</time>
      </trkpt>
      <trkpt lat="46.91713" lon="8.67576">
        <ele>2041</ele>
        <time>2021-08-07T08:16:01.711Z</time>
      </trkpt>
      <trkpt lat="46.91712" lon="8.67574">
        <ele>2041</ele>
        <time>2021-08-07T08:16:02.710Z</time>
      </trkpt>
      <trkpt lat="46.91712" lon="8.67572">
        <ele>2041</ele>
        <time>2021-08-07T08:16:03.710Z</time>
      </trkpt>
      <trkpt lat="46.91712" lon="8.67571">
        <ele>2040</ele>
        <time>2021-08-07T08:16:04.711Z</time>
      </trkpt>
      <trkpt lat="46.91713" lon="8.6757">
        <ele>2040</ele>
        <time>2021-08-07T08:16:05.710Z</time>
      </trkpt>
      <trkpt lat="46.91713" lon="8.67569">
        <ele>2040</ele>
        <time>2021-08-07T08:16:06.710Z</time>
      </trkpt>
      <trkpt lat="46.91714" lon="8.67567">
        <ele>2040</ele>
        <time>2021-08-07T08:16:07.711Z</time>
      </trkpt>
      <trkpt lat="46.91714" lon="8.67566">
        <ele>2040</ele>
        <time>2021-08-07T08:16:08.710Z</time>
      </trkpt>
      <trkpt lat="46.91714" lon="8.67564">
        <ele>2041</ele>
        <time>2021-08-07T08:16:09.710Z</time>
      </trkpt>
      <trkpt lat="46.91714" lon="8.67563">
        <ele>2041</ele>
        <time>2021-08-07T08:16:10.710Z</time>
      </trkpt>
      <trkpt lat="46.91714" lon="8.67562">
        <ele>2042</ele>
        <time>2021-08-07T08:16:11.711Z</time>
      </trkpt>
      <trkpt lat="46.91714" lon="8.6756">
        <ele>2042</ele>
        <time>2021-08-07T08:16:12.710Z</time>
      </trkpt>
      <trkpt lat="46.91714" lon="8.67559">
        <ele>2042</ele>
        <time>2021-08-07T08:16:13.710Z</time>
      </trkpt>
      <trkpt lat="46.91714" lon="8.67557">
        <ele>2043</ele>
        <time>2021-08-07T08:16:14.710Z</time>
      </trkpt>
      <trkpt lat="46.91715" lon="8.67556">
        <ele>2043</ele>
        <time>2021-08-07T08:16:15.710Z</time>
      </trkpt>
      <trkpt lat="46.91715" lon="8.67554">
        <ele>2043</ele>
        <time>2021-08-07T08:16:16.710Z</time>
      </trkpt>
      <trkpt lat="46.91716" lon="8.67553">
        <ele>2043</ele>
        <time>2021-08-07T08:16:17.710Z</time>
      </trkpt>
      <trkpt lat="46.91717" lon="8.67553">
        <ele>2043</ele>
        <time>2021-08-07T08:16:18.711Z</time>
      </trkpt>
      <trkpt lat="46.91718" lon="8.67552">
        <ele>2043</ele>
        <time>2021-08-07T08:16:19.710Z</time>
      </trkpt>
      <trkpt lat="46.91719" lon="8.67551">
        <ele>2043</ele>
        <time>2021-08-07T08:16:20.711Z</time>
      </trkpt>
      <trkpt lat="46.9172" lon="8.67551">
        <ele>2043</ele>
        <time>2021-08-07T08:16:21.710Z</time>
      </trkpt>
      <trkpt lat="46.91721" lon="8.6755">
        <ele>2044</ele>
        <time>2021-08-07T08:16:22.711Z</time>
      </trkpt>
      <trkpt lat="46.91722" lon="8.67549">
        <ele>2044</ele>
        <time>2021-08-07T08:16:23.711Z</time>
      </trkpt>
      <trkpt lat="46.91723" lon="8.67549">
        <ele>2044</ele>
        <time>2021-08-07T08:16:24.710Z</time>
      </trkpt>
      <trkpt lat="46.91723" lon="8.67548">
        <ele>2044</ele>
        <time>2021-08-07T08:16:25.711Z</time>
      </trkpt>
      <trkpt lat="46.91724" lon="8.67547">
        <ele>2044</ele>
        <time>2021-08-07T08:16:26.711Z</time>
      </trkpt>
      <trkpt lat="46.91724" lon="8.67547">
        <ele>2044</ele>
        <time>2021-08-07T08:16:27.711Z</time>
      </trkpt>
      <trkpt lat="46.91725" lon="8.67547">
        <ele>2044</ele>
        <time>2021-08-07T08:16:28.711Z</time>
      </trkpt>
      <trkpt lat="46.91725" lon="8.67546">
        <ele>2044</ele>
        <time>2021-08-07T08:16:29.711Z</time>
      </trkpt>
      <trkpt lat="46.91726" lon="8.67545">
        <ele>2043</ele>
        <time>2021-08-07T08:16:30.711Z</time>
      </trkpt>
      <trkpt lat="46.91726" lon="8.67545">
        <ele>2043</ele>
        <time>2021-08-07T08:16:31.710Z</time>
      </trkpt>
      <trkpt lat="46.91727" lon="8.67544">
        <ele>2043</ele>
        <time>2021-08-07T08:16:32.711Z</time>
      </trkpt>
      <trkpt lat="46.91727" lon="8.67544">
        <ele>2042</ele>
        <time>2021-08-07T08:16:33.711Z</time>
      </trkpt>
      <trkpt lat="46.91727" lon="8.67543">
        <ele>2042</ele>
        <time>2021-08-07T08:16:34.710Z</time>
      </trkpt>
      <trkpt lat="46.91727" lon="8.67542">
        <ele>2043</ele>
        <time>2021-08-07T08:16:35.711Z</time>
      </trkpt>
      <trkpt lat="46.91726" lon="8.67542">
        <ele>2043</ele>
        <time>2021-08-07T08:16:36.711Z</time>
      </trkpt>
      <trkpt lat="46.91728" lon="8.6754">
        <ele>2042</ele>
        <time>2021-08-07T08:16:37.711Z</time>
      </trkpt>
      <trkpt lat="46.91728" lon="8.67539">
        <ele>2041</ele>
        <time>2021-08-07T08:16:38.710Z</time>
      </trkpt>
      <trkpt lat="46.91728" lon="8.67538">
        <ele>2041</ele>
        <time>2021-08-07T08:16:39.710Z</time>
      </trkpt>
      <trkpt lat="46.91728" lon="8.67537">
        <ele>2041</ele>
        <time>2021-08-07T08:16:40.710Z</time>
      </trkpt>
      <trkpt lat="46.91728" lon="8.67536">
        <ele>2041</ele>
        <time>2021-08-07T08:16:41.711Z</time>
      </trkpt>
      <trkpt lat="46.91728" lon="8.67535">
        <ele>2040</ele>
        <time>2021-08-07T08:16:42.710Z</time>
      </trkpt>
      <trkpt lat="46.91728" lon="8.67534">
        <ele>2040</ele>
        <time>2021-08-07T08:16:43.711Z</time>
      </trkpt>
      <trkpt lat="46.91728" lon="8.67534">
        <ele>2040</ele>
        <time>2021-08-07T08:16:44.710Z</time>
      </trkpt>
      <trkpt lat="46.91729" lon="8.67534">
        <ele>2040</ele>
        <time>2021-08-07T08:16:45.711Z</time>
      </trkpt>
      <trkpt lat="46.91729" lon="8.67533">
        <ele>2041</ele>
        <time>2021-08-07T08:16:46.711Z</time>
      </trkpt>
      <trkpt lat="46.9173" lon="8.67532">
        <ele>2041</ele>
        <time>2021-08-07T08:16:47.711Z</time>
      </trkpt>
      <trkpt lat="46.9173" lon="8.67532">
        <ele>2041</ele>
        <time>2021-08-07T08:16:48.710Z</time>
      </trkpt>
      <trkpt lat="46.91731" lon="8.67532">
        <ele>2040</ele>
        <time>2021-08-07T08:16:49.711Z</time>
      </trkpt>
      <trkpt lat="46.91731" lon="8.67532">
        <ele>2040</ele>
        <time>2021-08-07T08:16:50.711Z</time>
      </trkpt>
      <trkpt lat="46.91732" lon="8.67532">
        <ele>2040</ele>
        <time>2021-08-07T08:16:51.710Z</time>
      </trkpt>
      <trkpt lat="46.91732" lon="8.67533">
        <ele>2040</ele>
        <time>2021-08-07T08:16:52.711Z</time>
      </trkpt>
      <trkpt lat="46.91733" lon="8.67533">
        <ele>2040</ele>
        <time>2021-08-07T08:16:53.711Z</time>
      </trkpt>
      <trkpt lat="46.91733" lon="8.67534">
        <ele>2039</ele>
        <time>2021-08-07T08:16:54.711Z</time>
      </trkpt>
      <trkpt lat="46.91734" lon="8.67534">
        <ele>2039</ele>
        <time>2021-08-07T08:16:55.710Z</time>
      </trkpt>
      <trkpt lat="46.91734" lon="8.67534">
        <ele>2038</ele>
        <time>2021-08-07T08:16:56.710Z</time>
      </trkpt>
      <trkpt lat="46.91735" lon="8.67534">
        <ele>2038</ele>
        <time>2021-08-07T08:16:57.710Z</time>
      </trkpt>
      <trkpt lat="46.91734" lon="8.67534">
        <ele>2037</ele>
        <time>2021-08-07T08:16:58.711Z</time>
      </trkpt>
      <trkpt lat="46.91735" lon="8.67534">
        <ele>2037</ele>
        <time>2021-08-07T08:16:59.711Z</time>
      </trkpt>
      <trkpt lat="46.91735" lon="8.67534">
        <ele>2037</ele>
        <time>2021-08-07T08:17:00.711Z</time>
      </trkpt>
      <trkpt lat="46.91735" lon="8.67534">
        <ele>2036</ele>
        <time>2021-08-07T08:17:01.711Z</time>
      </trkpt>
      <trkpt lat="46.91735" lon="8.67534">
        <ele>2036</ele>
        <time>2021-08-07T08:17:02.711Z</time>
      </trkpt>
      <trkpt lat="46.91735" lon="8.67535">
        <ele>2037</ele>
        <time>2021-08-07T08:17:03.712Z</time>
      </trkpt>
      <trkpt lat="46.91735" lon="8.67535">
        <ele>2038</ele>
        <time>2021-08-07T08:17:04.712Z</time>
      </trkpt>
      <trkpt lat="46.91734" lon="8.67535">
        <ele>2036</ele>
        <time>2021-08-07T08:17:05.713Z</time>
      </trkpt>
      <trkpt lat="46.91734" lon="8.67535">
        <ele>2036</ele>
        <time>2021-08-07T08:17:06.712Z</time>
      </trkpt>
      <trkpt lat="46.91733" lon="8.67532">
        <ele>2040</ele>
        <time>2021-08-07T08:17:07.713Z</time>
      </trkpt>
      <trkpt lat="46.91733" lon="8.67531">
        <ele>2040</ele>
        <time>2021-08-07T08:17:08.713Z</time>
      </trkpt>
      <trkpt lat="46.91732" lon="8.67531">
        <ele>2040</ele>
        <time>2021-08-07T08:17:09.712Z</time>
      </trkpt>
      <trkpt lat="46.91731" lon="8.67531">
        <ele>2040</ele>
        <time>2021-08-07T08:17:10.712Z</time>
      </trkpt>
      <trkpt lat="46.9173" lon="8.6753">
        <ele>2040</ele>
        <time>2021-08-07T08:17:11.712Z</time>
      </trkpt>
      <trkpt lat="46.91731" lon="8.67531">
        <ele>2040</ele>
        <time>2021-08-07T08:17:12.712Z</time>
      </trkpt>
      <trkpt lat="46.91731" lon="8.67532">
        <ele>2040</ele>
        <time>2021-08-07T08:17:13.712Z</time>
      </trkpt>
      <trkpt lat="46.91731" lon="8.67532">
        <ele>2039</ele>
        <time>2021-08-07T08:17:14.714Z</time>
      </trkpt>
      <trkpt lat="46.91731" lon="8.67531">
        <ele>2039</ele>
        <time>2021-08-07T08:17:15.713Z</time>
      </trkpt>
      <trkpt lat="46.91732" lon="8.67531">
        <ele>2039</ele>
        <time>2021-08-07T08:17:16.714Z</time>
      </trkpt>
      <trkpt lat="46.91732" lon="8.67531">
        <ele>2039</ele>
        <time>2021-08-07T08:17:17.714Z</time>
      </trkpt>
      <trkpt lat="46.91732" lon="8.67531">
        <ele>2039</ele>
        <time>2021-08-07T08:17:18.713Z</time>
      </trkpt>
      <trkpt lat="46.91732" lon="8.67531">
        <ele>2038</ele>
        <time>2021-08-07T08:17:19.714Z</time>
      </trkpt>
      <trkpt lat="46.91733" lon="8.67535">
        <ele>2036</ele>
        <time>2021-08-07T08:17:20.714Z</time>
      </trkpt>
      <trkpt lat="46.91733" lon="8.67535">
        <ele>2035</ele>
        <time>2021-08-07T08:17:21.715Z</time>
      </trkpt>
      <trkpt lat="46.91733" lon="8.67535">
        <ele>2035</ele>
        <time>2021-08-07T08:17:22.591Z</time>
      </trkpt>
      <trkpt lat="46.91734" lon="8.67537">
        <ele>2035</ele>
        <time>2021-08-07T08:17:23.591Z</time>
      </trkpt>
      <trkpt lat="46.91734" lon="8.67537">
        <ele>2034</ele>
        <time>2021-08-07T08:17:24.591Z</time>
      </trkpt>
      <trkpt lat="46.91734" lon="8.67536">
        <ele>2036</ele>
        <time>2021-08-07T08:17:25.592Z</time>
      </trkpt>
      <trkpt lat="46.91734" lon="8.67536">
        <ele>2036</ele>
        <time>2021-08-07T08:17:26.591Z</time>
      </trkpt>
      <trkpt lat="46.91733" lon="8.67534">
        <ele>2036</ele>
        <time>2021-08-07T08:17:27.592Z</time>
      </trkpt>
      <trkpt lat="46.91733" lon="8.67534">
        <ele>2036</ele>
        <time>2021-08-07T08:17:28.592Z</time>
      </trkpt>
      <trkpt lat="46.91732" lon="8.67534">
        <ele>2036</ele>
        <time>2021-08-07T08:17:29.591Z</time>
      </trkpt>
      <trkpt lat="46.91734" lon="8.67534">
        <ele>2033</ele>
        <time>2021-08-07T08:17:30.593Z</time>
      </trkpt>
      <trkpt lat="46.91734" lon="8.67534">
        <ele>2033</ele>
        <time>2021-08-07T08:17:31.593Z</time>
      </trkpt>
      <trkpt lat="46.91733" lon="8.67534">
        <ele>2033</ele>
        <time>2021-08-07T08:17:32.593Z</time>
      </trkpt>
      <trkpt lat="46.91734" lon="8.67535">
        <ele>2035</ele>
        <time>2021-08-07T08:17:33.594Z</time>
      </trkpt>
      <trkpt lat="46.91734" lon="8.67535">
        <ele>2035</ele>
        <time>2021-08-07T08:17:34.593Z</time>
      </trkpt>
      <trkpt lat="46.91734" lon="8.67535">
        <ele>2034</ele>
        <time>2021-08-07T08:17:35.593Z</time>
      </trkpt>
      <trkpt lat="46.91735" lon="8.67535">
        <ele>2036</ele>
        <time>2021-08-07T08:17:36.593Z</time>
      </trkpt>
      <trkpt lat="46.91735" lon="8.67535">
        <ele>2036</ele>
        <time>2021-08-07T08:17:37.593Z</time>
      </trkpt>
      <trkpt lat="46.91736" lon="8.67535">
        <ele>2038</ele>
        <time>2021-08-07T08:17:38.594Z</time>
      </trkpt>
      <trkpt lat="46.91736" lon="8.67535">
        <ele>2038</ele>
        <time>2021-08-07T08:17:39.594Z</time>
      </trkpt>
      <trkpt lat="46.91736" lon="8.67534">
        <ele>2038</ele>
        <time>2021-08-07T08:17:40.595Z</time>
      </trkpt>
      <trkpt lat="46.91736" lon="8.67534">
        <ele>2038</ele>
        <time>2021-08-07T08:17:41.594Z</time>
      </trkpt>
      <trkpt lat="46.91734" lon="8.67534">
        <ele>2037</ele>
        <time>2021-08-07T08:17:42.595Z</time>
      </trkpt>
      <trkpt lat="46.91738" lon="8.67532">
        <ele>2036</ele>
        <time>2021-08-07T08:17:43.597Z</time>
      </trkpt>
      <trkpt lat="46.91738" lon="8.6753">
        <ele>2035</ele>
        <time>2021-08-07T08:17:44.598Z</time>
      </trkpt>
      <trkpt lat="46.91738" lon="8.6753">
        <ele>2034</ele>
        <time>2021-08-07T08:17:45.598Z</time>
      </trkpt>
      <trkpt lat="46.91738" lon="8.67529">
        <ele>2034</ele>
        <time>2021-08-07T08:17:46.598Z</time>
      </trkpt>
      <trkpt lat="46.91737" lon="8.67529">
        <ele>2038</ele>
        <time>2021-08-07T08:17:47.598Z</time>
      </trkpt>
      <trkpt lat="46.91737" lon="8.67529">
        <ele>2038</ele>
        <time>2021-08-07T08:17:48.597Z</time>
      </trkpt>
      <trkpt lat="46.91737" lon="8.6753">
        <ele>2038</ele>
        <time>2021-08-07T08:17:49.598Z</time>
      </trkpt>
      <trkpt lat="46.91737" lon="8.6753">
        <ele>2038</ele>
        <time>2021-08-07T08:17:50.598Z</time>
      </trkpt>
      <trkpt lat="46.91737" lon="8.67531">
        <ele>2038</ele>
        <time>2021-08-07T08:17:51.598Z</time>
      </trkpt>
      <trkpt lat="46.91737" lon="8.67531">
        <ele>2037</ele>
        <time>2021-08-07T08:17:52.598Z</time>
      </trkpt>
      <trkpt lat="46.91737" lon="8.67531">
        <ele>2036</ele>
        <time>2021-08-07T08:17:53.598Z</time>
      </trkpt>
      <trkpt lat="46.91737" lon="8.67531">
        <ele>2036</ele>
        <time>2021-08-07T08:17:54.598Z</time>
      </trkpt>
      <trkpt lat="46.91735" lon="8.6753">
        <ele>2032</ele>
        <time>2021-08-07T08:17:55.599Z</time>
      </trkpt>
      <trkpt lat="46.91736" lon="8.6753">
        <ele>2032</ele>
        <time>2021-08-07T08:17:56.599Z</time>
      </trkpt>
      <trkpt lat="46.91736" lon="8.6753">
        <ele>2033</ele>
        <time>2021-08-07T08:17:57.598Z</time>
      </trkpt>
      <trkpt lat="46.91735" lon="8.6753">
        <ele>2034</ele>
        <time>2021-08-07T08:17:58.600Z</time>
      </trkpt>
      <trkpt lat="46.91735" lon="8.6753">
        <ele>2035</ele>
        <time>2021-08-07T08:17:59.600Z</time>
      </trkpt>
      <trkpt lat="46.91735" lon="8.6753">
        <ele>2035</ele>
        <time>2021-08-07T08:18:00.600Z</time>
      </trkpt>
      <trkpt lat="46.91735" lon="8.6753">
        <ele>2035</ele>
        <time>2021-08-07T08:18:01.600Z</time>
      </trkpt>
      <trkpt lat="46.91734" lon="8.6753">
        <ele>2036</ele>
        <time>2021-08-07T08:18:02.599Z</time>
      </trkpt>
      <trkpt lat="46.91734" lon="8.6753">
        <ele>2036</ele>
        <time>2021-08-07T08:18:03.600Z</time>
      </trkpt>
      <trkpt lat="46.91734" lon="8.6753">
        <ele>2036</ele>
        <time>2021-08-07T08:18:04.600Z</time>
      </trkpt>
      <trkpt lat="46.91734" lon="8.6753">
        <ele>2037</ele>
        <time>2021-08-07T08:18:05.600Z</time>
      </trkpt>
      <trkpt lat="46.91734" lon="8.6753">
        <ele>2037</ele>
        <time>2021-08-07T08:18:06.599Z</time>
      </trkpt>
      <trkpt lat="46.91734" lon="8.6753">
        <ele>2037</ele>
        <time>2021-08-07T08:18:07.599Z</time>
      </trkpt>
      <trkpt lat="46.91734" lon="8.67529">
        <ele>2037</ele>
        <time>2021-08-07T08:18:08.600Z</time>
      </trkpt>
      <trkpt lat="46.91733" lon="8.67527">
        <ele>2033</ele>
        <time>2021-08-07T08:18:09.601Z</time>
      </trkpt>
      <trkpt lat="46.91733" lon="8.67527">
        <ele>2033</ele>
        <time>2021-08-07T08:18:10.601Z</time>
      </trkpt>
      <trkpt lat="46.91734" lon="8.67527">
        <ele>2032</ele>
        <time>2021-08-07T08:18:11.601Z</time>
      </trkpt>
      <trkpt lat="46.91734" lon="8.67527">
        <ele>2032</ele>
        <time>2021-08-07T08:18:12.601Z</time>
      </trkpt>
      <trkpt lat="46.91734" lon="8.67527">
        <ele>2032</ele>
        <time>2021-08-07T08:18:13.601Z</time>
      </trkpt>
      <trkpt lat="46.91735" lon="8.67526">
        <ele>2031</ele>
        <time>2021-08-07T08:18:14.601Z</time>
      </trkpt>
      <trkpt lat="46.91735" lon="8.67525">
        <ele>2031</ele>
        <time>2021-08-07T08:18:15.601Z</time>
      </trkpt>
      <trkpt lat="46.91735" lon="8.67525">
        <ele>2031</ele>
        <time>2021-08-07T08:18:16.601Z</time>
      </trkpt>
      <trkpt lat="46.91734" lon="8.67524">
        <ele>2031</ele>
        <time>2021-08-07T08:18:17.600Z</time>
      </trkpt>
      <trkpt lat="46.91734" lon="8.67523">
        <ele>2031</ele>
        <time>2021-08-07T08:18:18.600Z</time>
      </trkpt>
      <trkpt lat="46.91735" lon="8.6752">
        <ele>2031</ele>
        <time>2021-08-07T08:18:19.601Z</time>
      </trkpt>
      <trkpt lat="46.91735" lon="8.67519">
        <ele>2031</ele>
        <time>2021-08-07T08:18:20.601Z</time>
      </trkpt>
      <trkpt lat="46.91735" lon="8.67519">
        <ele>2031</ele>
        <time>2021-08-07T08:18:21.601Z</time>
      </trkpt>
      <trkpt lat="46.91734" lon="8.67518">
        <ele>2032</ele>
        <time>2021-08-07T08:18:22.601Z</time>
      </trkpt>
      <trkpt lat="46.91735" lon="8.67517">
        <ele>2032</ele>
        <time>2021-08-07T08:18:23.601Z</time>
      </trkpt>
      <trkpt lat="46.91735" lon="8.67516">
        <ele>2032</ele>
        <time>2021-08-07T08:18:24.601Z</time>
      </trkpt>
      <trkpt lat="46.91735" lon="8.67515">
        <ele>2032</ele>
        <time>2021-08-07T08:18:25.601Z</time>
      </trkpt>
      <trkpt lat="46.91735" lon="8.67514">
        <ele>2032</ele>
        <time>2021-08-07T08:18:26.600Z</time>
      </trkpt>
      <trkpt lat="46.91735" lon="8.67514">
        <ele>2031</ele>
        <time>2021-08-07T08:18:27.601Z</time>
      </trkpt>
      <trkpt lat="46.91736" lon="8.67513">
        <ele>2031</ele>
        <time>2021-08-07T08:18:28.601Z</time>
      </trkpt>
      <trkpt lat="46.91736" lon="8.67512">
        <ele>2030</ele>
        <time>2021-08-07T08:18:29.601Z</time>
      </trkpt>
      <trkpt lat="46.91736" lon="8.67511">
        <ele>2030</ele>
        <time>2021-08-07T08:18:30.601Z</time>
      </trkpt>
      <trkpt lat="46.91735" lon="8.67511">
        <ele>2029</ele>
        <time>2021-08-07T08:18:31.601Z</time>
      </trkpt>
      <trkpt lat="46.91734" lon="8.67511">
        <ele>2029</ele>
        <time>2021-08-07T08:18:32.601Z</time>
      </trkpt>
      <trkpt lat="46.91734" lon="8.6751">
        <ele>2028</ele>
        <time>2021-08-07T08:18:33.600Z</time>
      </trkpt>
      <trkpt lat="46.91731" lon="8.6751">
        <ele>2024</ele>
        <time>2021-08-07T08:18:34.601Z</time>
      </trkpt>
      <trkpt lat="46.91731" lon="8.67511">
        <ele>2024</ele>
        <time>2021-08-07T08:18:35.601Z</time>
      </trkpt>
      <trkpt lat="46.91731" lon="8.6751">
        <ele>2024</ele>
        <time>2021-08-07T08:18:36.600Z</time>
      </trkpt>
      <trkpt lat="46.9173" lon="8.67511">
        <ele>2024</ele>
        <time>2021-08-07T08:18:37.600Z</time>
      </trkpt>
      <trkpt lat="46.9173" lon="8.67511">
        <ele>2024</ele>
        <time>2021-08-07T08:18:38.600Z</time>
      </trkpt>
      <trkpt lat="46.91731" lon="8.67509">
        <ele>2023</ele>
        <time>2021-08-07T08:18:39.601Z</time>
      </trkpt>
      <trkpt lat="46.91732" lon="8.67508">
        <ele>2023</ele>
        <time>2021-08-07T08:18:40.601Z</time>
      </trkpt>
      <trkpt lat="46.91733" lon="8.67507">
        <ele>2023</ele>
        <time>2021-08-07T08:18:41.601Z</time>
      </trkpt>
      <trkpt lat="46.91733" lon="8.67506">
        <ele>2022</ele>
        <time>2021-08-07T08:18:42.600Z</time>
      </trkpt>
      <trkpt lat="46.91734" lon="8.67505">
        <ele>2022</ele>
        <time>2021-08-07T08:18:43.600Z</time>
      </trkpt>
      <trkpt lat="46.91734" lon="8.67505">
        <ele>2021</ele>
        <time>2021-08-07T08:18:44.601Z</time>
      </trkpt>
      <trkpt lat="46.91734" lon="8.67506">
        <ele>2021</ele>
        <time>2021-08-07T08:18:45.601Z</time>
      </trkpt>
      <trkpt lat="46.91734" lon="8.67506">
        <ele>2021</ele>
        <time>2021-08-07T08:18:46.601Z</time>
      </trkpt>
      <trkpt lat="46.91734" lon="8.67506">
        <ele>2020</ele>
        <time>2021-08-07T08:18:47.601Z</time>
      </trkpt>
      <trkpt lat="46.91734" lon="8.67507">
        <ele>2020</ele>
        <time>2021-08-07T08:18:48.600Z</time>
      </trkpt>
      <trkpt lat="46.91734" lon="8.67507">
        <ele>2019</ele>
        <time>2021-08-07T08:18:49.601Z</time>
      </trkpt>
      <trkpt lat="46.91734" lon="8.67507">
        <ele>2019</ele>
        <time>2021-08-07T08:18:50.601Z</time>
      </trkpt>
      <trkpt lat="46.91734" lon="8.67507">
        <ele>2019</ele>
        <time>2021-08-07T08:18:51.601Z</time>
      </trkpt>
      <trkpt lat="46.91734" lon="8.67507">
        <ele>2020</ele>
        <time>2021-08-07T08:18:52.601Z</time>
      </trkpt>
      <trkpt lat="46.91734" lon="8.67507">
        <ele>2021</ele>
        <time>2021-08-07T08:18:53.600Z</time>
      </trkpt>
      <trkpt lat="46.91735" lon="8.67507">
        <ele>2022</ele>
        <time>2021-08-07T08:18:54.601Z</time>
      </trkpt>
      <trkpt lat="46.91735" lon="8.67507">
        <ele>2023</ele>
        <time>2021-08-07T08:18:55.600Z</time>
      </trkpt>
      <trkpt lat="46.91735" lon="8.67508">
        <ele>2024</ele>
        <time>2021-08-07T08:18:56.601Z</time>
      </trkpt>
      <trkpt lat="46.91735" lon="8.67508">
        <ele>2025</ele>
        <time>2021-08-07T08:18:57.600Z</time>
      </trkpt>
      <trkpt lat="46.91735" lon="8.67507">
        <ele>2026</ele>
        <time>2021-08-07T08:18:58.601Z</time>
      </trkpt>
      <trkpt lat="46.91736" lon="8.67507">
        <ele>2026</ele>
        <time>2021-08-07T08:18:59.601Z</time>
      </trkpt>
      <trkpt lat="46.91736" lon="8.67507">
        <ele>2027</ele>
        <time>2021-08-07T08:19:00.601Z</time>
      </trkpt>
      <trkpt lat="46.91736" lon="8.67506">
        <ele>2027</ele>
        <time>2021-08-07T08:19:01.601Z</time>
      </trkpt>
      <trkpt lat="46.91735" lon="8.67504">
        <ele>2028</ele>
        <time>2021-08-07T08:19:02.600Z</time>
      </trkpt>
      <trkpt lat="46.91734" lon="8.67503">
        <ele>2028</ele>
        <time>2021-08-07T08:19:03.600Z</time>
      </trkpt>
      <trkpt lat="46.91733" lon="8.67501">
        <ele>2028</ele>
        <time>2021-08-07T08:19:04.600Z</time>
      </trkpt>
      <trkpt lat="46.91732" lon="8.675">
        <ele>2029</ele>
        <time>2021-08-07T08:19:05.601Z</time>
      </trkpt>
      <trkpt lat="46.91732" lon="8.67499">
        <ele>2029</ele>
        <time>2021-08-07T08:19:06.601Z</time>
      </trkpt>
      <trkpt lat="46.91732" lon="8.67498">
        <ele>2029</ele>
        <time>2021-08-07T08:19:07.600Z</time>
      </trkpt>
      <trkpt lat="46.91732" lon="8.67497">
        <ele>2030</ele>
        <time>2021-08-07T08:19:08.601Z</time>
      </trkpt>
      <trkpt lat="46.91732" lon="8.67496">
        <ele>2030</ele>
        <time>2021-08-07T08:19:09.601Z</time>
      </trkpt>
      <trkpt lat="46.91731" lon="8.67495">
        <ele>2030</ele>
        <time>2021-08-07T08:19:10.600Z</time>
      </trkpt>
      <trkpt lat="46.91731" lon="8.67494">
        <ele>2030</ele>
        <time>2021-08-07T08:19:11.601Z</time>
      </trkpt>
      <trkpt lat="46.91731" lon="8.67493">
        <ele>2029</ele>
        <time>2021-08-07T08:19:12.600Z</time>
      </trkpt>
      <trkpt lat="46.91731" lon="8.67492">
        <ele>2029</ele>
        <time>2021-08-07T08:19:13.600Z</time>
      </trkpt>
      <trkpt lat="46.91731" lon="8.67491">
        <ele>2029</ele>
        <time>2021-08-07T08:19:14.601Z</time>
      </trkpt>
      <trkpt lat="46.91731" lon="8.67489">
        <ele>2029</ele>
        <time>2021-08-07T08:19:15.601Z</time>
      </trkpt>
      <trkpt lat="46.91731" lon="8.67488">
        <ele>2029</ele>
        <time>2021-08-07T08:19:16.600Z</time>
      </trkpt>
      <trkpt lat="46.91731" lon="8.67487">
        <ele>2028</ele>
        <time>2021-08-07T08:19:17.600Z</time>
      </trkpt>
      <trkpt lat="46.91731" lon="8.67485">
        <ele>2028</ele>
        <time>2021-08-07T08:19:18.601Z</time>
      </trkpt>
      <trkpt lat="46.9173" lon="8.67484">
        <ele>2028</ele>
        <time>2021-08-07T08:19:19.601Z</time>
      </trkpt>
      <trkpt lat="46.91731" lon="8.67483">
        <ele>2028</ele>
        <time>2021-08-07T08:19:20.600Z</time>
      </trkpt>
      <trkpt lat="46.91731" lon="8.67483">
        <ele>2027</ele>
        <time>2021-08-07T08:19:21.600Z</time>
      </trkpt>
      <trkpt lat="46.91731" lon="8.67481">
        <ele>2027</ele>
        <time>2021-08-07T08:19:22.601Z</time>
      </trkpt>
      <trkpt lat="46.91732" lon="8.67479">
        <ele>2027</ele>
        <time>2021-08-07T08:19:23.600Z</time>
      </trkpt>
      <trkpt lat="46.91732" lon="8.67478">
        <ele>2026</ele>
        <time>2021-08-07T08:19:24.600Z</time>
      </trkpt>
      <trkpt lat="46.91731" lon="8.67478">
        <ele>2026</ele>
        <time>2021-08-07T08:19:25.600Z</time>
      </trkpt>
      <trkpt lat="46.91731" lon="8.67477">
        <ele>2026</ele>
        <time>2021-08-07T08:19:26.600Z</time>
      </trkpt>
      <trkpt lat="46.91731" lon="8.67477">
        <ele>2026</ele>
        <time>2021-08-07T08:19:27.600Z</time>
      </trkpt>
      <trkpt lat="46.91731" lon="8.67476">
        <ele>2026</ele>
        <time>2021-08-07T08:19:28.600Z</time>
      </trkpt>
      <trkpt lat="46.91731" lon="8.67475">
        <ele>2026</ele>
        <time>2021-08-07T08:19:29.600Z</time>
      </trkpt>
      <trkpt lat="46.9173" lon="8.67474">
        <ele>2026</ele>
        <time>2021-08-07T08:19:30.600Z</time>
      </trkpt>
      <trkpt lat="46.9173" lon="8.67473">
        <ele>2026</ele>
        <time>2021-08-07T08:19:31.600Z</time>
      </trkpt>
      <trkpt lat="46.91729" lon="8.67473">
        <ele>2026</ele>
        <time>2021-08-07T08:19:32.600Z</time>
      </trkpt>
      <trkpt lat="46.91729" lon="8.67471">
        <ele>2026</ele>
        <time>2021-08-07T08:19:33.600Z</time>
      </trkpt>
      <trkpt lat="46.91729" lon="8.6747">
        <ele>2025</ele>
        <time>2021-08-07T08:19:34.600Z</time>
      </trkpt>
      <trkpt lat="46.9173" lon="8.67469">
        <ele>2025</ele>
        <time>2021-08-07T08:19:35.600Z</time>
      </trkpt>
      <trkpt lat="46.91729" lon="8.67468">
        <ele>2024</ele>
        <time>2021-08-07T08:19:36.600Z</time>
      </trkpt>
      <trkpt lat="46.91729" lon="8.67467">
        <ele>2023</ele>
        <time>2021-08-07T08:19:37.600Z</time>
      </trkpt>
      <trkpt lat="46.91729" lon="8.67466">
        <ele>2023</ele>
        <time>2021-08-07T08:19:38.600Z</time>
      </trkpt>
      <trkpt lat="46.91729" lon="8.67465">
        <ele>2022</ele>
        <time>2021-08-07T08:19:39.600Z</time>
      </trkpt>
      <trkpt lat="46.91729" lon="8.67464">
        <ele>2022</ele>
        <time>2021-08-07T08:19:40.600Z</time>
      </trkpt>
      <trkpt lat="46.91727" lon="8.67464">
        <ele>2021</ele>
        <time>2021-08-07T08:19:41.600Z</time>
      </trkpt>
      <trkpt lat="46.91726" lon="8.67464">
        <ele>2021</ele>
        <time>2021-08-07T08:19:42.601Z</time>
      </trkpt>
      <trkpt lat="46.91725" lon="8.67463">
        <ele>2021</ele>
        <time>2021-08-07T08:19:43.601Z</time>
      </trkpt>
      <trkpt lat="46.91725" lon="8.67462">
        <ele>2021</ele>
        <time>2021-08-07T08:19:44.601Z</time>
      </trkpt>
      <trkpt lat="46.91724" lon="8.67461">
        <ele>2021</ele>
        <time>2021-08-07T08:19:45.601Z</time>
      </trkpt>
      <trkpt lat="46.91724" lon="8.6746">
        <ele>2021</ele>
        <time>2021-08-07T08:19:46.600Z</time>
      </trkpt>
      <trkpt lat="46.91724" lon="8.67458">
        <ele>2020</ele>
        <time>2021-08-07T08:19:47.600Z</time>
      </trkpt>
      <trkpt lat="46.91723" lon="8.67457">
        <ele>2020</ele>
        <time>2021-08-07T08:19:48.601Z</time>
      </trkpt>
      <trkpt lat="46.91723" lon="8.67456">
        <ele>2020</ele>
        <time>2021-08-07T08:19:49.601Z</time>
      </trkpt>
      <trkpt lat="46.91722" lon="8.67455">
        <ele>2020</ele>
        <time>2021-08-07T08:19:50.601Z</time>
      </trkpt>
      <trkpt lat="46.91722" lon="8.67454">
        <ele>2020</ele>
        <time>2021-08-07T08:19:51.601Z</time>
      </trkpt>
      <trkpt lat="46.91721" lon="8.67453">
        <ele>2020</ele>
        <time>2021-08-07T08:19:52.601Z</time>
      </trkpt>
      <trkpt lat="46.91721" lon="8.67452">
        <ele>2020</ele>
        <time>2021-08-07T08:19:53.601Z</time>
      </trkpt>
      <trkpt lat="46.9172" lon="8.67451">
        <ele>2021</ele>
        <time>2021-08-07T08:19:54.600Z</time>
      </trkpt>
      <trkpt lat="46.9172" lon="8.6745">
        <ele>2021</ele>
        <time>2021-08-07T08:19:55.600Z</time>
      </trkpt>
      <trkpt lat="46.91719" lon="8.67448">
        <ele>2021</ele>
        <time>2021-08-07T08:19:56.601Z</time>
      </trkpt>
      <trkpt lat="46.91719" lon="8.67446">
        <ele>2021</ele>
        <time>2021-08-07T08:19:57.600Z</time>
      </trkpt>
      <trkpt lat="46.91719" lon="8.67444">
        <ele>2021</ele>
        <time>2021-08-07T08:19:58.601Z</time>
      </trkpt>
      <trkpt lat="46.91719" lon="8.67442">
        <ele>2020</ele>
        <time>2021-08-07T08:19:59.601Z</time>
      </trkpt>
      <trkpt lat="46.91719" lon="8.67441">
        <ele>2020</ele>
        <time>2021-08-07T08:20:00.600Z</time>
      </trkpt>
      <trkpt lat="46.91719" lon="8.6744">
        <ele>2019</ele>
        <time>2021-08-07T08:20:01.601Z</time>
      </trkpt>
      <trkpt lat="46.91719" lon="8.67439">
        <ele>2018</ele>
        <time>2021-08-07T08:20:02.601Z</time>
      </trkpt>
      <trkpt lat="46.91719" lon="8.67437">
        <ele>2017</ele>
        <time>2021-08-07T08:20:03.601Z</time>
      </trkpt>
      <trkpt lat="46.91719" lon="8.67436">
        <ele>2017</ele>
        <time>2021-08-07T08:20:04.601Z</time>
      </trkpt>
      <trkpt lat="46.91718" lon="8.67434">
        <ele>2016</ele>
        <time>2021-08-07T08:20:05.600Z</time>
      </trkpt>
      <trkpt lat="46.91718" lon="8.67433">
        <ele>2016</ele>
        <time>2021-08-07T08:20:06.601Z</time>
      </trkpt>
      <trkpt lat="46.91718" lon="8.67432">
        <ele>2016</ele>
        <time>2021-08-07T08:20:07.601Z</time>
      </trkpt>
      <trkpt lat="46.91718" lon="8.67431">
        <ele>2016</ele>
        <time>2021-08-07T08:20:08.600Z</time>
      </trkpt>
      <trkpt lat="46.91718" lon="8.67429">
        <ele>2017</ele>
        <time>2021-08-07T08:20:09.600Z</time>
      </trkpt>
      <trkpt lat="46.91718" lon="8.67428">
        <ele>2017</ele>
        <time>2021-08-07T08:20:10.601Z</time>
      </trkpt>
      <trkpt lat="46.91718" lon="8.67427">
        <ele>2018</ele>
        <time>2021-08-07T08:20:11.601Z</time>
      </trkpt>
      <trkpt lat="46.91719" lon="8.67426">
        <ele>2018</ele>
        <time>2021-08-07T08:20:12.601Z</time>
      </trkpt>
      <trkpt lat="46.91719" lon="8.67424">
        <ele>2019</ele>
        <time>2021-08-07T08:20:13.601Z</time>
      </trkpt>
      <trkpt lat="46.91719" lon="8.67423">
        <ele>2019</ele>
        <time>2021-08-07T08:20:14.600Z</time>
      </trkpt>
      <trkpt lat="46.91719" lon="8.67422">
        <ele>2019</ele>
        <time>2021-08-07T08:20:15.601Z</time>
      </trkpt>
      <trkpt lat="46.91719" lon="8.67421">
        <ele>2019</ele>
        <time>2021-08-07T08:20:16.601Z</time>
      </trkpt>
      <trkpt lat="46.91719" lon="8.6742">
        <ele>2019</ele>
        <time>2021-08-07T08:20:17.601Z</time>
      </trkpt>
      <trkpt lat="46.91719" lon="8.67419">
        <ele>2019</ele>
        <time>2021-08-07T08:20:18.601Z</time>
      </trkpt>
      <trkpt lat="46.91719" lon="8.67419">
        <ele>2019</ele>
        <time>2021-08-07T08:20:19.600Z</time>
      </trkpt>
      <trkpt lat="46.91719" lon="8.67419">
        <ele>2019</ele>
        <time>2021-08-07T08:20:20.601Z</time>
      </trkpt>
      <trkpt lat="46.91715" lon="8.67413">
        <ele>2017</ele>
        <time>2021-08-07T08:20:21.601Z</time>
      </trkpt>
      <trkpt lat="46.91715" lon="8.67413">
        <ele>2017</ele>
        <time>2021-08-07T08:20:22.601Z</time>
      </trkpt>
      <trkpt lat="46.91715" lon="8.67414">
        <ele>2017</ele>
        <time>2021-08-07T08:20:23.600Z</time>
      </trkpt>
      <trkpt lat="46.91715" lon="8.67412">
        <ele>2015</ele>
        <time>2021-08-07T08:20:24.600Z</time>
      </trkpt>
      <trkpt lat="46.91715" lon="8.67411">
        <ele>2014</ele>
        <time>2021-08-07T08:20:25.600Z</time>
      </trkpt>
      <trkpt lat="46.91715" lon="8.67411">
        <ele>2015</ele>
        <time>2021-08-07T08:20:26.600Z</time>
      </trkpt>
      <trkpt lat="46.91714" lon="8.6741">
        <ele>2015</ele>
        <time>2021-08-07T08:20:27.600Z</time>
      </trkpt>
      <trkpt lat="46.91714" lon="8.67409">
        <ele>2015</ele>
        <time>2021-08-07T08:20:28.601Z</time>
      </trkpt>
      <trkpt lat="46.91713" lon="8.67409">
        <ele>2015</ele>
        <time>2021-08-07T08:20:29.600Z</time>
      </trkpt>
      <trkpt lat="46.91712" lon="8.67408">
        <ele>2015</ele>
        <time>2021-08-07T08:20:30.601Z</time>
      </trkpt>
      <trkpt lat="46.91712" lon="8.67407">
        <ele>2014</ele>
        <time>2021-08-07T08:20:31.601Z</time>
      </trkpt>
      <trkpt lat="46.91712" lon="8.67406">
        <ele>2014</ele>
        <time>2021-08-07T08:20:32.601Z</time>
      </trkpt>
      <trkpt lat="46.91712" lon="8.67406">
        <ele>2014</ele>
        <time>2021-08-07T08:20:33.600Z</time>
      </trkpt>
      <trkpt lat="46.91712" lon="8.67405">
        <ele>2014</ele>
        <time>2021-08-07T08:20:34.601Z</time>
      </trkpt>
      <trkpt lat="46.91711" lon="8.67404">
        <ele>2015</ele>
        <time>2021-08-07T08:20:35.601Z</time>
      </trkpt>
      <trkpt lat="46.91711" lon="8.67405">
        <ele>2015</ele>
        <time>2021-08-07T08:20:36.601Z</time>
      </trkpt>
      <trkpt lat="46.91711" lon="8.67405">
        <ele>2015</ele>
        <time>2021-08-07T08:20:37.601Z</time>
      </trkpt>
      <trkpt lat="46.9171" lon="8.67405">
        <ele>2015</ele>
        <time>2021-08-07T08:20:38.600Z</time>
      </trkpt>
      <trkpt lat="46.9171" lon="8.67405">
        <ele>2014</ele>
        <time>2021-08-07T08:20:39.601Z</time>
      </trkpt>
      <trkpt lat="46.9171" lon="8.67405">
        <ele>2014</ele>
        <time>2021-08-07T08:20:40.600Z</time>
      </trkpt>
      <trkpt lat="46.9171" lon="8.67405">
        <ele>2014</ele>
        <time>2021-08-07T08:20:41.601Z</time>
      </trkpt>
      <trkpt lat="46.9171" lon="8.67404">
        <ele>2014</ele>
        <time>2021-08-07T08:20:42.600Z</time>
      </trkpt>
      <trkpt lat="46.9171" lon="8.67403">
        <ele>2015</ele>
        <time>2021-08-07T08:20:43.600Z</time>
      </trkpt>
      <trkpt lat="46.91709" lon="8.67402">
        <ele>2015</ele>
        <time>2021-08-07T08:20:44.601Z</time>
      </trkpt>
      <trkpt lat="46.91709" lon="8.67401">
        <ele>2015</ele>
        <time>2021-08-07T08:20:45.601Z</time>
      </trkpt>
      <trkpt lat="46.91709" lon="8.674">
        <ele>2015</ele>
        <time>2021-08-07T08:20:46.601Z</time>
      </trkpt>
      <trkpt lat="46.91709" lon="8.67399">
        <ele>2015</ele>
        <time>2021-08-07T08:20:47.601Z</time>
      </trkpt>
      <trkpt lat="46.91708" lon="8.67398">
        <ele>2015</ele>
        <time>2021-08-07T08:20:48.601Z</time>
      </trkpt>
      <trkpt lat="46.91707" lon="8.67397">
        <ele>2015</ele>
        <time>2021-08-07T08:20:49.600Z</time>
      </trkpt>
      <trkpt lat="46.91706" lon="8.67396">
        <ele>2015</ele>
        <time>2021-08-07T08:20:50.601Z</time>
      </trkpt>
      <trkpt lat="46.91706" lon="8.67396">
        <ele>2015</ele>
        <time>2021-08-07T08:20:51.600Z</time>
      </trkpt>
      <trkpt lat="46.91705" lon="8.67395">
        <ele>2015</ele>
        <time>2021-08-07T08:20:52.601Z</time>
      </trkpt>
      <trkpt lat="46.91704" lon="8.67394">
        <ele>2015</ele>
        <time>2021-08-07T08:20:53.600Z</time>
      </trkpt>
      <trkpt lat="46.91704" lon="8.67393">
        <ele>2015</ele>
        <time>2021-08-07T08:20:54.601Z</time>
      </trkpt>
      <trkpt lat="46.91703" lon="8.67392">
        <ele>2015</ele>
        <time>2021-08-07T08:20:55.601Z</time>
      </trkpt>
      <trkpt lat="46.91702" lon="8.67392">
        <ele>2016</ele>
        <time>2021-08-07T08:20:56.600Z</time>
      </trkpt>
      <trkpt lat="46.91701" lon="8.67391">
        <ele>2016</ele>
        <time>2021-08-07T08:20:57.601Z</time>
      </trkpt>
      <trkpt lat="46.917" lon="8.6739">
        <ele>2016</ele>
        <time>2021-08-07T08:20:58.601Z</time>
      </trkpt>
      <trkpt lat="46.91699" lon="8.6739">
        <ele>2016</ele>
        <time>2021-08-07T08:20:59.601Z</time>
      </trkpt>
      <trkpt lat="46.91698" lon="8.67389">
        <ele>2016</ele>
        <time>2021-08-07T08:21:00.600Z</time>
      </trkpt>
      <trkpt lat="46.91697" lon="8.67389">
        <ele>2016</ele>
        <time>2021-08-07T08:21:01.601Z</time>
      </trkpt>
      <trkpt lat="46.91697" lon="8.67389">
        <ele>2016</ele>
        <time>2021-08-07T08:21:02.600Z</time>
      </trkpt>
      <trkpt lat="46.91697" lon="8.67389">
        <ele>2015</ele>
        <time>2021-08-07T08:21:03.601Z</time>
      </trkpt>
      <trkpt lat="46.91697" lon="8.67389">
        <ele>2015</ele>
        <time>2021-08-07T08:21:04.601Z</time>
      </trkpt>
      <trkpt lat="46.91696" lon="8.67388">
        <ele>2014</ele>
        <time>2021-08-07T08:21:05.603Z</time>
      </trkpt>
      <trkpt lat="46.91696" lon="8.67387">
        <ele>2014</ele>
        <time>2021-08-07T08:21:06.603Z</time>
      </trkpt>
      <trkpt lat="46.91695" lon="8.67386">
        <ele>2014</ele>
        <time>2021-08-07T08:21:07.602Z</time>
      </trkpt>
      <trkpt lat="46.91694" lon="8.67386">
        <ele>2013</ele>
        <time>2021-08-07T08:21:08.603Z</time>
      </trkpt>
      <trkpt lat="46.91693" lon="8.67386">
        <ele>2014</ele>
        <time>2021-08-07T08:21:09.602Z</time>
      </trkpt>
      <trkpt lat="46.91692" lon="8.67386">
        <ele>2014</ele>
        <time>2021-08-07T08:21:10.603Z</time>
      </trkpt>
      <trkpt lat="46.91691" lon="8.67387">
        <ele>2014</ele>
        <time>2021-08-07T08:21:11.603Z</time>
      </trkpt>
      <trkpt lat="46.91691" lon="8.67387">
        <ele>2014</ele>
        <time>2021-08-07T08:21:12.603Z</time>
      </trkpt>
      <trkpt lat="46.9169" lon="8.67387">
        <ele>2014</ele>
        <time>2021-08-07T08:21:13.602Z</time>
      </trkpt>
      <trkpt lat="46.9169" lon="8.67387">
        <ele>2014</ele>
        <time>2021-08-07T08:21:14.603Z</time>
      </trkpt>
      <trkpt lat="46.91689" lon="8.67387">
        <ele>2013</ele>
        <time>2021-08-07T08:21:15.603Z</time>
      </trkpt>
      <trkpt lat="46.91688" lon="8.67388">
        <ele>2013</ele>
        <time>2021-08-07T08:21:16.603Z</time>
      </trkpt>
      <trkpt lat="46.91688" lon="8.67389">
        <ele>2013</ele>
        <time>2021-08-07T08:21:17.603Z</time>
      </trkpt>
      <trkpt lat="46.91688" lon="8.67389">
        <ele>2013</ele>
        <time>2021-08-07T08:21:18.603Z</time>
      </trkpt>
      <trkpt lat="46.91687" lon="8.6739">
        <ele>2013</ele>
        <time>2021-08-07T08:21:19.603Z</time>
      </trkpt>
      <trkpt lat="46.91687" lon="8.6739">
        <ele>2013</ele>
        <time>2021-08-07T08:21:20.603Z</time>
      </trkpt>
      <trkpt lat="46.91687" lon="8.67391">
        <ele>2012</ele>
        <time>2021-08-07T08:21:21.603Z</time>
      </trkpt>
      <trkpt lat="46.91686" lon="8.67391">
        <ele>2012</ele>
        <time>2021-08-07T08:21:22.603Z</time>
      </trkpt>
      <trkpt lat="46.91686" lon="8.67391">
        <ele>2012</ele>
        <time>2021-08-07T08:21:23.602Z</time>
      </trkpt>
      <trkpt lat="46.91686" lon="8.67391">
        <ele>2012</ele>
        <time>2021-08-07T08:21:24.603Z</time>
      </trkpt>
      <trkpt lat="46.91685" lon="8.67391">
        <ele>2012</ele>
        <time>2021-08-07T08:21:25.603Z</time>
      </trkpt>
      <trkpt lat="46.91685" lon="8.67391">
        <ele>2012</ele>
        <time>2021-08-07T08:21:26.603Z</time>
      </trkpt>
      <trkpt lat="46.91684" lon="8.67391">
        <ele>2012</ele>
        <time>2021-08-07T08:21:27.602Z</time>
      </trkpt>
      <trkpt lat="46.91683" lon="8.67391">
        <ele>2012</ele>
        <time>2021-08-07T08:21:28.602Z</time>
      </trkpt>
      <trkpt lat="46.91683" lon="8.67391">
        <ele>2012</ele>
        <time>2021-08-07T08:21:29.602Z</time>
      </trkpt>
      <trkpt lat="46.91683" lon="8.67392">
        <ele>2012</ele>
        <time>2021-08-07T08:21:30.603Z</time>
      </trkpt>
      <trkpt lat="46.91683" lon="8.67392">
        <ele>2012</ele>
        <time>2021-08-07T08:21:31.603Z</time>
      </trkpt>
      <trkpt lat="46.91683" lon="8.67392">
        <ele>2012</ele>
        <time>2021-08-07T08:21:32.603Z</time>
      </trkpt>
      <trkpt lat="46.91682" lon="8.67393">
        <ele>2011</ele>
        <time>2021-08-07T08:21:33.602Z</time>
      </trkpt>
      <trkpt lat="46.91682" lon="8.67393">
        <ele>2011</ele>
        <time>2021-08-07T08:21:34.603Z</time>
      </trkpt>
      <trkpt lat="46.91681" lon="8.67394">
        <ele>2011</ele>
        <time>2021-08-07T08:21:35.603Z</time>
      </trkpt>
      <trkpt lat="46.9168" lon="8.67394">
        <ele>2011</ele>
        <time>2021-08-07T08:21:36.603Z</time>
      </trkpt>
      <trkpt lat="46.91679" lon="8.67394">
        <ele>2011</ele>
        <time>2021-08-07T08:21:37.602Z</time>
      </trkpt>
      <trkpt lat="46.91678" lon="8.67393">
        <ele>2011</ele>
        <time>2021-08-07T08:21:38.603Z</time>
      </trkpt>
      <trkpt lat="46.91677" lon="8.67393">
        <ele>2011</ele>
        <time>2021-08-07T08:21:39.603Z</time>
      </trkpt>
      <trkpt lat="46.91677" lon="8.67393">
        <ele>2011</ele>
        <time>2021-08-07T08:21:40.603Z</time>
      </trkpt>
      <trkpt lat="46.91676" lon="8.67394">
        <ele>2011</ele>
        <time>2021-08-07T08:21:41.603Z</time>
      </trkpt>
      <trkpt lat="46.91676" lon="8.67395">
        <ele>2011</ele>
        <time>2021-08-07T08:21:42.603Z</time>
      </trkpt>
      <trkpt lat="46.91676" lon="8.67396">
        <ele>2010</ele>
        <time>2021-08-07T08:21:43.602Z</time>
      </trkpt>
      <trkpt lat="46.91676" lon="8.67398">
        <ele>2010</ele>
        <time>2021-08-07T08:21:44.603Z</time>
      </trkpt>
      <trkpt lat="46.91677" lon="8.67399">
        <ele>2010</ele>
        <time>2021-08-07T08:21:45.603Z</time>
      </trkpt>
      <trkpt lat="46.91677" lon="8.674">
        <ele>2010</ele>
        <time>2021-08-07T08:21:46.603Z</time>
      </trkpt>
      <trkpt lat="46.91678" lon="8.67401">
        <ele>2010</ele>
        <time>2021-08-07T08:21:47.603Z</time>
      </trkpt>
      <trkpt lat="46.91678" lon="8.67401">
        <ele>2010</ele>
        <time>2021-08-07T08:21:48.603Z</time>
      </trkpt>
      <trkpt lat="46.91678" lon="8.67401">
        <ele>2010</ele>
        <time>2021-08-07T08:21:49.602Z</time>
      </trkpt>
      <trkpt lat="46.91678" lon="8.67402">
        <ele>2011</ele>
        <time>2021-08-07T08:21:50.603Z</time>
      </trkpt>
      <trkpt lat="46.91677" lon="8.67402">
        <ele>2011</ele>
        <time>2021-08-07T08:21:51.603Z</time>
      </trkpt>
      <trkpt lat="46.91677" lon="8.67403">
        <ele>2011</ele>
        <time>2021-08-07T08:21:52.603Z</time>
      </trkpt>
      <trkpt lat="46.91676" lon="8.67403">
        <ele>2011</ele>
        <time>2021-08-07T08:21:53.602Z</time>
      </trkpt>
      <trkpt lat="46.91676" lon="8.67403">
        <ele>2011</ele>
        <time>2021-08-07T08:21:54.603Z</time>
      </trkpt>
      <trkpt lat="46.91676" lon="8.67404">
        <ele>2011</ele>
        <time>2021-08-07T08:21:55.603Z</time>
      </trkpt>
      <trkpt lat="46.91676" lon="8.67405">
        <ele>2010</ele>
        <time>2021-08-07T08:21:56.603Z</time>
      </trkpt>
      <trkpt lat="46.91675" lon="8.67405">
        <ele>2010</ele>
        <time>2021-08-07T08:21:57.602Z</time>
      </trkpt>
      <trkpt lat="46.91675" lon="8.67405">
        <ele>2010</ele>
        <time>2021-08-07T08:21:58.603Z</time>
      </trkpt>
      <trkpt lat="46.91675" lon="8.67406">
        <ele>2009</ele>
        <time>2021-08-07T08:21:59.603Z</time>
      </trkpt>
      <trkpt lat="46.91674" lon="8.67406">
        <ele>2009</ele>
        <time>2021-08-07T08:22:00.603Z</time>
      </trkpt>
      <trkpt lat="46.91675" lon="8.67406">
        <ele>2009</ele>
        <time>2021-08-07T08:22:01.603Z</time>
      </trkpt>
      <trkpt lat="46.91675" lon="8.67406">
        <ele>2009</ele>
        <time>2021-08-07T08:22:02.603Z</time>
      </trkpt>
      <trkpt lat="46.91674" lon="8.67406">
        <ele>2009</ele>
        <time>2021-08-07T08:22:03.603Z</time>
      </trkpt>
      <trkpt lat="46.91674" lon="8.67407">
        <ele>2009</ele>
        <time>2021-08-07T08:22:04.604Z</time>
      </trkpt>
      <trkpt lat="46.91673" lon="8.67407">
        <ele>2009</ele>
        <time>2021-08-07T08:22:05.603Z</time>
      </trkpt>
      <trkpt lat="46.91672" lon="8.67407">
        <ele>2008</ele>
        <time>2021-08-07T08:22:06.604Z</time>
      </trkpt>
      <trkpt lat="46.91672" lon="8.67407">
        <ele>2008</ele>
        <time>2021-08-07T08:22:07.603Z</time>
      </trkpt>
      <trkpt lat="46.91671" lon="8.67407">
        <ele>2008</ele>
        <time>2021-08-07T08:22:08.604Z</time>
      </trkpt>
      <trkpt lat="46.91671" lon="8.67407">
        <ele>2009</ele>
        <time>2021-08-07T08:22:09.604Z</time>
      </trkpt>
      <trkpt lat="46.9167" lon="8.67407">
        <ele>2009</ele>
        <time>2021-08-07T08:22:10.604Z</time>
      </trkpt>
      <trkpt lat="46.9167" lon="8.67407">
        <ele>2009</ele>
        <time>2021-08-07T08:22:11.603Z</time>
      </trkpt>
      <trkpt lat="46.9167" lon="8.67407">
        <ele>2009</ele>
        <time>2021-08-07T08:22:12.603Z</time>
      </trkpt>
      <trkpt lat="46.91669" lon="8.67407">
        <ele>2009</ele>
        <time>2021-08-07T08:22:13.604Z</time>
      </trkpt>
      <trkpt lat="46.91669" lon="8.67407">
        <ele>2009</ele>
        <time>2021-08-07T08:22:14.604Z</time>
      </trkpt>
      <trkpt lat="46.91668" lon="8.67406">
        <ele>2009</ele>
        <time>2021-08-07T08:22:15.604Z</time>
      </trkpt>
      <trkpt lat="46.91668" lon="8.67406">
        <ele>2009</ele>
        <time>2021-08-07T08:22:16.604Z</time>
      </trkpt>
      <trkpt lat="46.91667" lon="8.67405">
        <ele>2008</ele>
        <time>2021-08-07T08:22:17.603Z</time>
      </trkpt>
      <trkpt lat="46.91667" lon="8.67405">
        <ele>2007</ele>
        <time>2021-08-07T08:22:18.603Z</time>
      </trkpt>
      <trkpt lat="46.91667" lon="8.67405">
        <ele>2006</ele>
        <time>2021-08-07T08:22:19.603Z</time>
      </trkpt>
      <trkpt lat="46.91666" lon="8.67404">
        <ele>2005</ele>
        <time>2021-08-07T08:22:20.603Z</time>
      </trkpt>
      <trkpt lat="46.91666" lon="8.67404">
        <ele>2005</ele>
        <time>2021-08-07T08:22:21.604Z</time>
      </trkpt>
      <trkpt lat="46.91666" lon="8.67404">
        <ele>2004</ele>
        <time>2021-08-07T08:22:22.603Z</time>
      </trkpt>
      <trkpt lat="46.91667" lon="8.67402">
        <ele>1998</ele>
        <time>2021-08-07T08:22:23.604Z</time>
      </trkpt>
      <trkpt lat="46.91667" lon="8.67401">
        <ele>1998</ele>
        <time>2021-08-07T08:22:24.604Z</time>
      </trkpt>
      <trkpt lat="46.91668" lon="8.674">
        <ele>1998</ele>
        <time>2021-08-07T08:22:25.604Z</time>
      </trkpt>
      <trkpt lat="46.91668" lon="8.67399">
        <ele>1998</ele>
        <time>2021-08-07T08:22:26.604Z</time>
      </trkpt>
      <trkpt lat="46.91668" lon="8.67398">
        <ele>1999</ele>
        <time>2021-08-07T08:22:27.604Z</time>
      </trkpt>
      <trkpt lat="46.91668" lon="8.67398">
        <ele>1999</ele>
        <time>2021-08-07T08:22:28.604Z</time>
      </trkpt>
      <trkpt lat="46.91668" lon="8.67397">
        <ele>1999</ele>
        <time>2021-08-07T08:22:29.605Z</time>
      </trkpt>
      <trkpt lat="46.91668" lon="8.67396">
        <ele>1999</ele>
        <time>2021-08-07T08:22:30.605Z</time>
      </trkpt>
      <trkpt lat="46.91668" lon="8.67396">
        <ele>1999</ele>
        <time>2021-08-07T08:22:31.604Z</time>
      </trkpt>
      <trkpt lat="46.91668" lon="8.67396">
        <ele>1999</ele>
        <time>2021-08-07T08:22:32.605Z</time>
      </trkpt>
      <trkpt lat="46.91668" lon="8.67396">
        <ele>2000</ele>
        <time>2021-08-07T08:22:33.604Z</time>
      </trkpt>
      <trkpt lat="46.91666" lon="8.67396">
        <ele>2003</ele>
        <time>2021-08-07T08:22:34.605Z</time>
      </trkpt>
      <trkpt lat="46.91666" lon="8.67396">
        <ele>2003</ele>
        <time>2021-08-07T08:22:35.604Z</time>
      </trkpt>
      <trkpt lat="46.91665" lon="8.67397">
        <ele>2003</ele>
        <time>2021-08-07T08:22:36.604Z</time>
      </trkpt>
      <trkpt lat="46.91665" lon="8.67398">
        <ele>2003</ele>
        <time>2021-08-07T08:22:37.605Z</time>
      </trkpt>
      <trkpt lat="46.91665" lon="8.67398">
        <ele>2003</ele>
        <time>2021-08-07T08:22:38.605Z</time>
      </trkpt>
      <trkpt lat="46.91665" lon="8.67399">
        <ele>2003</ele>
        <time>2021-08-07T08:22:39.604Z</time>
      </trkpt>
      <trkpt lat="46.91664" lon="8.674">
        <ele>2004</ele>
        <time>2021-08-07T08:22:40.604Z</time>
      </trkpt>
      <trkpt lat="46.91664" lon="8.674">
        <ele>2003</ele>
        <time>2021-08-07T08:22:41.605Z</time>
      </trkpt>
      <trkpt lat="46.91664" lon="8.674">
        <ele>2003</ele>
        <time>2021-08-07T08:22:42.606Z</time>
      </trkpt>
      <trkpt lat="46.91664" lon="8.67401">
        <ele>2003</ele>
        <time>2021-08-07T08:22:43.606Z</time>
      </trkpt>
      <trkpt lat="46.91663" lon="8.67401">
        <ele>2003</ele>
        <time>2021-08-07T08:22:44.605Z</time>
      </trkpt>
      <trkpt lat="46.91663" lon="8.67401">
        <ele>2002</ele>
        <time>2021-08-07T08:22:45.606Z</time>
      </trkpt>
      <trkpt lat="46.91662" lon="8.67401">
        <ele>2002</ele>
        <time>2021-08-07T08:22:46.606Z</time>
      </trkpt>
      <trkpt lat="46.91661" lon="8.67402">
        <ele>2002</ele>
        <time>2021-08-07T08:22:47.606Z</time>
      </trkpt>
      <trkpt lat="46.9166" lon="8.67402">
        <ele>2002</ele>
        <time>2021-08-07T08:22:48.606Z</time>
      </trkpt>
      <trkpt lat="46.9166" lon="8.67403">
        <ele>2002</ele>
        <time>2021-08-07T08:22:49.606Z</time>
      </trkpt>
      <trkpt lat="46.91659" lon="8.67404">
        <ele>2002</ele>
        <time>2021-08-07T08:22:50.606Z</time>
      </trkpt>
      <trkpt lat="46.91659" lon="8.67406">
        <ele>2001</ele>
        <time>2021-08-07T08:22:51.606Z</time>
      </trkpt>
      <trkpt lat="46.91659" lon="8.67407">
        <ele>2001</ele>
        <time>2021-08-07T08:22:52.606Z</time>
      </trkpt>
      <trkpt lat="46.91659" lon="8.67407">
        <ele>2001</ele>
        <time>2021-08-07T08:22:53.606Z</time>
      </trkpt>
      <trkpt lat="46.91659" lon="8.67408">
        <ele>2001</ele>
        <time>2021-08-07T08:22:54.606Z</time>
      </trkpt>
      <trkpt lat="46.91659" lon="8.67409">
        <ele>2001</ele>
        <time>2021-08-07T08:22:55.606Z</time>
      </trkpt>
      <trkpt lat="46.91659" lon="8.67409">
        <ele>2001</ele>
        <time>2021-08-07T08:22:56.606Z</time>
      </trkpt>
      <trkpt lat="46.9166" lon="8.6741">
        <ele>2001</ele>
        <time>2021-08-07T08:22:57.605Z</time>
      </trkpt>
      <trkpt lat="46.9166" lon="8.67411">
        <ele>2000</ele>
        <time>2021-08-07T08:22:58.606Z</time>
      </trkpt>
      <trkpt lat="46.9166" lon="8.67411">
        <ele>2000</ele>
        <time>2021-08-07T08:22:59.606Z</time>
      </trkpt>
      <trkpt lat="46.9166" lon="8.67412">
        <ele>2000</ele>
        <time>2021-08-07T08:23:00.605Z</time>
      </trkpt>
      <trkpt lat="46.9166" lon="8.67413">
        <ele>1999</ele>
        <time>2021-08-07T08:23:01.606Z</time>
      </trkpt>
      <trkpt lat="46.9166" lon="8.67414">
        <ele>1999</ele>
        <time>2021-08-07T08:23:02.606Z</time>
      </trkpt>
      <trkpt lat="46.91659" lon="8.67415">
        <ele>1999</ele>
        <time>2021-08-07T08:23:03.606Z</time>
      </trkpt>
      <trkpt lat="46.91659" lon="8.67416">
        <ele>1999</ele>
        <time>2021-08-07T08:23:04.605Z</time>
      </trkpt>
      <trkpt lat="46.91659" lon="8.67418">
        <ele>1999</ele>
        <time>2021-08-07T08:23:05.606Z</time>
      </trkpt>
      <trkpt lat="46.91659" lon="8.67419">
        <ele>1999</ele>
        <time>2021-08-07T08:23:06.606Z</time>
      </trkpt>
      <trkpt lat="46.91659" lon="8.6742">
        <ele>1999</ele>
        <time>2021-08-07T08:23:07.605Z</time>
      </trkpt>
      <trkpt lat="46.91659" lon="8.67422">
        <ele>2000</ele>
        <time>2021-08-07T08:23:08.606Z</time>
      </trkpt>
      <trkpt lat="46.91659" lon="8.67422">
        <ele>2000</ele>
        <time>2021-08-07T08:23:09.605Z</time>
      </trkpt>
      <trkpt lat="46.91659" lon="8.67423">
        <ele>2001</ele>
        <time>2021-08-07T08:23:10.606Z</time>
      </trkpt>
      <trkpt lat="46.91659" lon="8.67424">
        <ele>2001</ele>
        <time>2021-08-07T08:23:11.605Z</time>
      </trkpt>
      <trkpt lat="46.91659" lon="8.67426">
        <ele>2001</ele>
        <time>2021-08-07T08:23:12.606Z</time>
      </trkpt>
      <trkpt lat="46.91659" lon="8.67427">
        <ele>2001</ele>
        <time>2021-08-07T08:23:13.606Z</time>
      </trkpt>
      <trkpt lat="46.91659" lon="8.67428">
        <ele>2000</ele>
        <time>2021-08-07T08:23:14.605Z</time>
      </trkpt>
      <trkpt lat="46.91659" lon="8.67428">
        <ele>2000</ele>
        <time>2021-08-07T08:23:15.606Z</time>
      </trkpt>
      <trkpt lat="46.91659" lon="8.67428">
        <ele>2000</ele>
        <time>2021-08-07T08:23:16.605Z</time>
      </trkpt>
      <trkpt lat="46.91658" lon="8.67429">
        <ele>1999</ele>
        <time>2021-08-07T08:23:17.606Z</time>
      </trkpt>
      <trkpt lat="46.91658" lon="8.67429">
        <ele>1999</ele>
        <time>2021-08-07T08:23:18.605Z</time>
      </trkpt>
      <trkpt lat="46.91658" lon="8.6743">
        <ele>1998</ele>
        <time>2021-08-07T08:23:19.606Z</time>
      </trkpt>
      <trkpt lat="46.91657" lon="8.6743">
        <ele>1997</ele>
        <time>2021-08-07T08:23:20.605Z</time>
      </trkpt>
      <trkpt lat="46.91657" lon="8.67431">
        <ele>1997</ele>
        <time>2021-08-07T08:23:21.605Z</time>
      </trkpt>
      <trkpt lat="46.91656" lon="8.67432">
        <ele>1996</ele>
        <time>2021-08-07T08:23:22.606Z</time>
      </trkpt>
      <trkpt lat="46.91656" lon="8.67433">
        <ele>1996</ele>
        <time>2021-08-07T08:23:23.606Z</time>
      </trkpt>
      <trkpt lat="46.91655" lon="8.67434">
        <ele>1996</ele>
        <time>2021-08-07T08:23:24.606Z</time>
      </trkpt>
      <trkpt lat="46.91655" lon="8.67435">
        <ele>1996</ele>
        <time>2021-08-07T08:23:25.606Z</time>
      </trkpt>
      <trkpt lat="46.91655" lon="8.67437">
        <ele>1996</ele>
        <time>2021-08-07T08:23:26.606Z</time>
      </trkpt>
      <trkpt lat="46.91655" lon="8.67437">
        <ele>1996</ele>
        <time>2021-08-07T08:23:27.605Z</time>
      </trkpt>
      <trkpt lat="46.91655" lon="8.67438">
        <ele>1996</ele>
        <time>2021-08-07T08:23:28.606Z</time>
      </trkpt>
      <trkpt lat="46.91655" lon="8.67438">
        <ele>1995</ele>
        <time>2021-08-07T08:23:29.606Z</time>
      </trkpt>
      <trkpt lat="46.91655" lon="8.67438">
        <ele>1995</ele>
        <time>2021-08-07T08:23:30.606Z</time>
      </trkpt>
      <trkpt lat="46.91655" lon="8.6744">
        <ele>1993</ele>
        <time>2021-08-07T08:23:31.606Z</time>
      </trkpt>
      <trkpt lat="46.91654" lon="8.6744">
        <ele>1992</ele>
        <time>2021-08-07T08:23:32.606Z</time>
      </trkpt>
      <trkpt lat="46.91654" lon="8.67439">
        <ele>1991</ele>
        <time>2021-08-07T08:23:33.606Z</time>
      </trkpt>
      <trkpt lat="46.91654" lon="8.67439">
        <ele>1990</ele>
        <time>2021-08-07T08:23:34.605Z</time>
      </trkpt>
      <trkpt lat="46.91653" lon="8.67438">
        <ele>1990</ele>
        <time>2021-08-07T08:23:35.605Z</time>
      </trkpt>
      <trkpt lat="46.91652" lon="8.67438">
        <ele>1989</ele>
        <time>2021-08-07T08:23:36.606Z</time>
      </trkpt>
      <trkpt lat="46.91651" lon="8.67437">
        <ele>1989</ele>
        <time>2021-08-07T08:23:37.606Z</time>
      </trkpt>
      <trkpt lat="46.91651" lon="8.67438">
        <ele>1988</ele>
        <time>2021-08-07T08:23:38.605Z</time>
      </trkpt>
      <trkpt lat="46.9165" lon="8.67439">
        <ele>1988</ele>
        <time>2021-08-07T08:23:39.606Z</time>
      </trkpt>
      <trkpt lat="46.9165" lon="8.6744">
        <ele>1988</ele>
        <time>2021-08-07T08:23:40.605Z</time>
      </trkpt>
      <trkpt lat="46.9165" lon="8.67441">
        <ele>1989</ele>
        <time>2021-08-07T08:23:41.606Z</time>
      </trkpt>
      <trkpt lat="46.9165" lon="8.67441">
        <ele>1989</ele>
        <time>2021-08-07T08:23:42.605Z</time>
      </trkpt>
      <trkpt lat="46.9165" lon="8.67441">
        <ele>1989</ele>
        <time>2021-08-07T08:23:43.606Z</time>
      </trkpt>
      <trkpt lat="46.9165" lon="8.67441">
        <ele>1990</ele>
        <time>2021-08-07T08:23:44.606Z</time>
      </trkpt>
      <trkpt lat="46.91649" lon="8.67441">
        <ele>1990</ele>
        <time>2021-08-07T08:23:45.605Z</time>
      </trkpt>
      <trkpt lat="46.91649" lon="8.67441">
        <ele>1990</ele>
        <time>2021-08-07T08:23:46.606Z</time>
      </trkpt>
      <trkpt lat="46.91649" lon="8.67441">
        <ele>1990</ele>
        <time>2021-08-07T08:23:47.605Z</time>
      </trkpt>
      <trkpt lat="46.91648" lon="8.67441">
        <ele>1990</ele>
        <time>2021-08-07T08:23:48.606Z</time>
      </trkpt>
      <trkpt lat="46.91648" lon="8.67441">
        <ele>1989</ele>
        <time>2021-08-07T08:23:49.605Z</time>
      </trkpt>
      <trkpt lat="46.91648" lon="8.67442">
        <ele>1989</ele>
        <time>2021-08-07T08:23:50.606Z</time>
      </trkpt>
      <trkpt lat="46.91648" lon="8.67443">
        <ele>1989</ele>
        <time>2021-08-07T08:23:51.606Z</time>
      </trkpt>
      <trkpt lat="46.91648" lon="8.67443">
        <ele>1988</ele>
        <time>2021-08-07T08:23:52.605Z</time>
      </trkpt>
      <trkpt lat="46.91648" lon="8.67442">
        <ele>1988</ele>
        <time>2021-08-07T08:23:53.605Z</time>
      </trkpt>
      <trkpt lat="46.91648" lon="8.67441">
        <ele>1988</ele>
        <time>2021-08-07T08:23:54.605Z</time>
      </trkpt>
      <trkpt lat="46.91648" lon="8.67441">
        <ele>1988</ele>
        <time>2021-08-07T08:23:55.605Z</time>
      </trkpt>
      <trkpt lat="46.91648" lon="8.6744">
        <ele>1988</ele>
        <time>2021-08-07T08:23:56.605Z</time>
      </trkpt>
      <trkpt lat="46.91648" lon="8.67439">
        <ele>1987</ele>
        <time>2021-08-07T08:23:57.605Z</time>
      </trkpt>
      <trkpt lat="46.91648" lon="8.67438">
        <ele>1987</ele>
        <time>2021-08-07T08:23:58.605Z</time>
      </trkpt>
      <trkpt lat="46.91647" lon="8.67437">
        <ele>1987</ele>
        <time>2021-08-07T08:23:59.605Z</time>
      </trkpt>
      <trkpt lat="46.91647" lon="8.67437">
        <ele>1986</ele>
        <time>2021-08-07T08:24:00.605Z</time>
      </trkpt>
      <trkpt lat="46.91647" lon="8.67437">
        <ele>1985</ele>
        <time>2021-08-07T08:24:01.606Z</time>
      </trkpt>
      <trkpt lat="46.91647" lon="8.67436">
        <ele>1984</ele>
        <time>2021-08-07T08:24:02.606Z</time>
      </trkpt>
      <trkpt lat="46.91647" lon="8.67435">
        <ele>1984</ele>
        <time>2021-08-07T08:24:03.605Z</time>
      </trkpt>
      <trkpt lat="46.91647" lon="8.67434">
        <ele>1984</ele>
        <time>2021-08-07T08:24:04.606Z</time>
      </trkpt>
      <trkpt lat="46.91647" lon="8.67434">
        <ele>1984</ele>
        <time>2021-08-07T08:24:05.605Z</time>
      </trkpt>
      <trkpt lat="46.91647" lon="8.67433">
        <ele>1984</ele>
        <time>2021-08-07T08:24:06.605Z</time>
      </trkpt>
      <trkpt lat="46.91647" lon="8.67432">
        <ele>1984</ele>
        <time>2021-08-07T08:24:07.606Z</time>
      </trkpt>
      <trkpt lat="46.91648" lon="8.67431">
        <ele>1984</ele>
        <time>2021-08-07T08:24:08.606Z</time>
      </trkpt>
      <trkpt lat="46.91648" lon="8.67431">
        <ele>1985</ele>
        <time>2021-08-07T08:24:09.606Z</time>
      </trkpt>
      <trkpt lat="46.91648" lon="8.6743">
        <ele>1985</ele>
        <time>2021-08-07T08:24:10.606Z</time>
      </trkpt>
      <trkpt lat="46.91647" lon="8.67429">
        <ele>1985</ele>
        <time>2021-08-07T08:24:11.606Z</time>
      </trkpt>
      <trkpt lat="46.91647" lon="8.67428">
        <ele>1985</ele>
        <time>2021-08-07T08:24:12.606Z</time>
      </trkpt>
      <trkpt lat="46.91647" lon="8.67428">
        <ele>1986</ele>
        <time>2021-08-07T08:24:13.605Z</time>
      </trkpt>
      <trkpt lat="46.91646" lon="8.67428">
        <ele>1985</ele>
        <time>2021-08-07T08:24:14.606Z</time>
      </trkpt>
      <trkpt lat="46.91646" lon="8.67427">
        <ele>1985</ele>
        <time>2021-08-07T08:24:15.606Z</time>
      </trkpt>
      <trkpt lat="46.91646" lon="8.67427">
        <ele>1985</ele>
        <time>2021-08-07T08:24:16.606Z</time>
      </trkpt>
      <trkpt lat="46.91645" lon="8.67426">
        <ele>1985</ele>
        <time>2021-08-07T08:24:17.605Z</time>
      </trkpt>
      <trkpt lat="46.91644" lon="8.67425">
        <ele>1985</ele>
        <time>2021-08-07T08:24:18.606Z</time>
      </trkpt>
      <trkpt lat="46.91644" lon="8.67425">
        <ele>1984</ele>
        <time>2021-08-07T08:24:19.606Z</time>
      </trkpt>
      <trkpt lat="46.91643" lon="8.67425">
        <ele>1984</ele>
        <time>2021-08-07T08:24:20.605Z</time>
      </trkpt>
      <trkpt lat="46.91643" lon="8.67425">
        <ele>1984</ele>
        <time>2021-08-07T08:24:21.605Z</time>
      </trkpt>
      <trkpt lat="46.91643" lon="8.67426">
        <ele>1984</ele>
        <time>2021-08-07T08:24:22.605Z</time>
      </trkpt>
      <trkpt lat="46.91642" lon="8.67427">
        <ele>1984</ele>
        <time>2021-08-07T08:24:23.606Z</time>
      </trkpt>
      <trkpt lat="46.91642" lon="8.67427">
        <ele>1983</ele>
        <time>2021-08-07T08:24:24.606Z</time>
      </trkpt>
      <trkpt lat="46.91642" lon="8.67428">
        <ele>1983</ele>
        <time>2021-08-07T08:24:25.606Z</time>
      </trkpt>
      <trkpt lat="46.91641" lon="8.67429">
        <ele>1983</ele>
        <time>2021-08-07T08:24:26.605Z</time>
      </trkpt>
      <trkpt lat="46.91641" lon="8.6743">
        <ele>1983</ele>
        <time>2021-08-07T08:24:27.606Z</time>
      </trkpt>
      <trkpt lat="46.9164" lon="8.67431">
        <ele>1983</ele>
        <time>2021-08-07T08:24:28.605Z</time>
      </trkpt>
      <trkpt lat="46.9164" lon="8.67432">
        <ele>1983</ele>
        <time>2021-08-07T08:24:29.605Z</time>
      </trkpt>
      <trkpt lat="46.91639" lon="8.67432">
        <ele>1982</ele>
        <time>2021-08-07T08:24:30.606Z</time>
      </trkpt>
      <trkpt lat="46.91639" lon="8.67433">
        <ele>1982</ele>
        <time>2021-08-07T08:24:31.606Z</time>
      </trkpt>
      <trkpt lat="46.91639" lon="8.67435">
        <ele>1981</ele>
        <time>2021-08-07T08:24:32.605Z</time>
      </trkpt>
      <trkpt lat="46.91638" lon="8.67435">
        <ele>1980</ele>
        <time>2021-08-07T08:24:33.606Z</time>
      </trkpt>
      <trkpt lat="46.91638" lon="8.67436">
        <ele>1980</ele>
        <time>2021-08-07T08:24:34.606Z</time>
      </trkpt>
      <trkpt lat="46.91637" lon="8.67437">
        <ele>1980</ele>
        <time>2021-08-07T08:24:35.605Z</time>
      </trkpt>
      <trkpt lat="46.91636" lon="8.67438">
        <ele>1979</ele>
        <time>2021-08-07T08:24:36.605Z</time>
      </trkpt>
      <trkpt lat="46.91635" lon="8.67439">
        <ele>1980</ele>
        <time>2021-08-07T08:24:37.606Z</time>
      </trkpt>
      <trkpt lat="46.91635" lon="8.6744">
        <ele>1980</ele>
        <time>2021-08-07T08:24:38.605Z</time>
      </trkpt>
      <trkpt lat="46.91634" lon="8.67441">
        <ele>1980</ele>
        <time>2021-08-07T08:24:39.606Z</time>
      </trkpt>
      <trkpt lat="46.91634" lon="8.67442">
        <ele>1980</ele>
        <time>2021-08-07T08:24:40.605Z</time>
      </trkpt>
      <trkpt lat="46.91634" lon="8.67443">
        <ele>1980</ele>
        <time>2021-08-07T08:24:41.605Z</time>
      </trkpt>
      <trkpt lat="46.91633" lon="8.67444">
        <ele>1980</ele>
        <time>2021-08-07T08:24:42.606Z</time>
      </trkpt>
      <trkpt lat="46.91633" lon="8.67446">
        <ele>1980</ele>
        <time>2021-08-07T08:24:43.606Z</time>
      </trkpt>
      <trkpt lat="46.91633" lon="8.67447">
        <ele>1979</ele>
        <time>2021-08-07T08:24:44.606Z</time>
      </trkpt>
      <trkpt lat="46.91632" lon="8.67448">
        <ele>1979</ele>
        <time>2021-08-07T08:24:45.606Z</time>
      </trkpt>
      <trkpt lat="46.91632" lon="8.6745">
        <ele>1979</ele>
        <time>2021-08-07T08:24:46.605Z</time>
      </trkpt>
      <trkpt lat="46.91632" lon="8.67451">
        <ele>1979</ele>
        <time>2021-08-07T08:24:47.606Z</time>
      </trkpt>
      <trkpt lat="46.91631" lon="8.67453">
        <ele>1978</ele>
        <time>2021-08-07T08:24:48.605Z</time>
      </trkpt>
      <trkpt lat="46.91631" lon="8.67454">
        <ele>1978</ele>
        <time>2021-08-07T08:24:49.605Z</time>
      </trkpt>
      <trkpt lat="46.9163" lon="8.67454">
        <ele>1978</ele>
        <time>2021-08-07T08:24:50.605Z</time>
      </trkpt>
      <trkpt lat="46.9163" lon="8.67455">
        <ele>1977</ele>
        <time>2021-08-07T08:24:51.606Z</time>
      </trkpt>
      <trkpt lat="46.91629" lon="8.67456">
        <ele>1977</ele>
        <time>2021-08-07T08:24:52.606Z</time>
      </trkpt>
      <trkpt lat="46.91629" lon="8.67458">
        <ele>1976</ele>
        <time>2021-08-07T08:24:53.606Z</time>
      </trkpt>
      <trkpt lat="46.91628" lon="8.67459">
        <ele>1976</ele>
        <time>2021-08-07T08:24:54.605Z</time>
      </trkpt>
      <trkpt lat="46.91627" lon="8.6746">
        <ele>1976</ele>
        <time>2021-08-07T08:24:55.605Z</time>
      </trkpt>
      <trkpt lat="46.91627" lon="8.67462">
        <ele>1976</ele>
        <time>2021-08-07T08:24:56.606Z</time>
      </trkpt>
      <trkpt lat="46.91626" lon="8.67464">
        <ele>1976</ele>
        <time>2021-08-07T08:24:57.606Z</time>
      </trkpt>
      <trkpt lat="46.91625" lon="8.67466">
        <ele>1975</ele>
        <time>2021-08-07T08:24:58.606Z</time>
      </trkpt>
      <trkpt lat="46.91625" lon="8.67467">
        <ele>1975</ele>
        <time>2021-08-07T08:24:59.606Z</time>
      </trkpt>
      <trkpt lat="46.91625" lon="8.67468">
        <ele>1975</ele>
        <time>2021-08-07T08:25:00.606Z</time>
      </trkpt>
      <trkpt lat="46.91624" lon="8.6747">
        <ele>1974</ele>
        <time>2021-08-07T08:25:01.606Z</time>
      </trkpt>
      <trkpt lat="46.91624" lon="8.67471">
        <ele>1973</ele>
        <time>2021-08-07T08:25:02.605Z</time>
      </trkpt>
      <trkpt lat="46.91624" lon="8.67472">
        <ele>1973</ele>
        <time>2021-08-07T08:25:03.605Z</time>
      </trkpt>
      <trkpt lat="46.91624" lon="8.67474">
        <ele>1973</ele>
        <time>2021-08-07T08:25:04.606Z</time>
      </trkpt>
      <trkpt lat="46.91623" lon="8.67474">
        <ele>1973</ele>
        <time>2021-08-07T08:25:05.605Z</time>
      </trkpt>
      <trkpt lat="46.91623" lon="8.67474">
        <ele>1973</ele>
        <time>2021-08-07T08:25:06.606Z</time>
      </trkpt>
      <trkpt lat="46.91622" lon="8.67473">
        <ele>1973</ele>
        <time>2021-08-07T08:25:07.605Z</time>
      </trkpt>
      <trkpt lat="46.91621" lon="8.67473">
        <ele>1973</ele>
        <time>2021-08-07T08:25:08.606Z</time>
      </trkpt>
      <trkpt lat="46.91621" lon="8.67473">
        <ele>1973</ele>
        <time>2021-08-07T08:25:09.606Z</time>
      </trkpt>
      <trkpt lat="46.9162" lon="8.67474">
        <ele>1973</ele>
        <time>2021-08-07T08:25:10.606Z</time>
      </trkpt>
      <trkpt lat="46.91619" lon="8.67474">
        <ele>1973</ele>
        <time>2021-08-07T08:25:11.605Z</time>
      </trkpt>
      <trkpt lat="46.91618" lon="8.67475">
        <ele>1972</ele>
        <time>2021-08-07T08:25:12.606Z</time>
      </trkpt>
      <trkpt lat="46.91618" lon="8.67476">
        <ele>1972</ele>
        <time>2021-08-07T08:25:13.606Z</time>
      </trkpt>
      <trkpt lat="46.91617" lon="8.67476">
        <ele>1972</ele>
        <time>2021-08-07T08:25:14.605Z</time>
      </trkpt>
      <trkpt lat="46.91617" lon="8.67477">
        <ele>1971</ele>
        <time>2021-08-07T08:25:15.606Z</time>
      </trkpt>
      <trkpt lat="46.91616" lon="8.67478">
        <ele>1971</ele>
        <time>2021-08-07T08:25:16.606Z</time>
      </trkpt>
      <trkpt lat="46.91616" lon="8.67479">
        <ele>1970</ele>
        <time>2021-08-07T08:25:17.606Z</time>
      </trkpt>
      <trkpt lat="46.91615" lon="8.6748">
        <ele>1970</ele>
        <time>2021-08-07T08:25:18.606Z</time>
      </trkpt>
      <trkpt lat="46.91614" lon="8.6748">
        <ele>1970</ele>
        <time>2021-08-07T08:25:19.605Z</time>
      </trkpt>
      <trkpt lat="46.91614" lon="8.67482">
        <ele>1969</ele>
        <time>2021-08-07T08:25:20.606Z</time>
      </trkpt>
      <trkpt lat="46.91613" lon="8.67483">
        <ele>1968</ele>
        <time>2021-08-07T08:25:21.605Z</time>
      </trkpt>
      <trkpt lat="46.91613" lon="8.67484">
        <ele>1968</ele>
        <time>2021-08-07T08:25:22.606Z</time>
      </trkpt>
      <trkpt lat="46.91612" lon="8.67484">
        <ele>1967</ele>
        <time>2021-08-07T08:25:23.605Z</time>
      </trkpt>
      <trkpt lat="46.91612" lon="8.67485">
        <ele>1966</ele>
        <time>2021-08-07T08:25:24.605Z</time>
      </trkpt>
      <trkpt lat="46.91611" lon="8.67486">
        <ele>1965</ele>
        <time>2021-08-07T08:25:25.605Z</time>
      </trkpt>
      <trkpt lat="46.91611" lon="8.67487">
        <ele>1965</ele>
        <time>2021-08-07T08:25:26.606Z</time>
      </trkpt>
      <trkpt lat="46.91611" lon="8.67488">
        <ele>1964</ele>
        <time>2021-08-07T08:25:27.605Z</time>
      </trkpt>
      <trkpt lat="46.9161" lon="8.6749">
        <ele>1964</ele>
        <time>2021-08-07T08:25:28.605Z</time>
      </trkpt>
      <trkpt lat="46.9161" lon="8.67491">
        <ele>1964</ele>
        <time>2021-08-07T08:25:29.606Z</time>
      </trkpt>
      <trkpt lat="46.91609" lon="8.67492">
        <ele>1964</ele>
        <time>2021-08-07T08:25:30.606Z</time>
      </trkpt>
      <trkpt lat="46.91608" lon="8.67492">
        <ele>1963</ele>
        <time>2021-08-07T08:25:31.606Z</time>
      </trkpt>
      <trkpt lat="46.91607" lon="8.67493">
        <ele>1963</ele>
        <time>2021-08-07T08:25:32.606Z</time>
      </trkpt>
      <trkpt lat="46.91607" lon="8.67495">
        <ele>1963</ele>
        <time>2021-08-07T08:25:33.605Z</time>
      </trkpt>
      <trkpt lat="46.91606" lon="8.67496">
        <ele>1963</ele>
        <time>2021-08-07T08:25:34.606Z</time>
      </trkpt>
      <trkpt lat="46.91605" lon="8.67497">
        <ele>1963</ele>
        <time>2021-08-07T08:25:35.606Z</time>
      </trkpt>
      <trkpt lat="46.91605" lon="8.67499">
        <ele>1963</ele>
        <time>2021-08-07T08:25:36.605Z</time>
      </trkpt>
      <trkpt lat="46.91605" lon="8.675">
        <ele>1963</ele>
        <time>2021-08-07T08:25:37.605Z</time>
      </trkpt>
      <trkpt lat="46.91604" lon="8.67501">
        <ele>1962</ele>
        <time>2021-08-07T08:25:38.606Z</time>
      </trkpt>
      <trkpt lat="46.91604" lon="8.67502">
        <ele>1962</ele>
        <time>2021-08-07T08:25:39.606Z</time>
      </trkpt>
      <trkpt lat="46.91603" lon="8.67503">
        <ele>1961</ele>
        <time>2021-08-07T08:25:40.605Z</time>
      </trkpt>
      <trkpt lat="46.91602" lon="8.67504">
        <ele>1961</ele>
        <time>2021-08-07T08:25:41.605Z</time>
      </trkpt>
      <trkpt lat="46.91602" lon="8.67505">
        <ele>1960</ele>
        <time>2021-08-07T08:25:42.606Z</time>
      </trkpt>
      <trkpt lat="46.91601" lon="8.67506">
        <ele>1960</ele>
        <time>2021-08-07T08:25:43.605Z</time>
      </trkpt>
      <trkpt lat="46.916" lon="8.67507">
        <ele>1960</ele>
        <time>2021-08-07T08:25:44.606Z</time>
      </trkpt>
      <trkpt lat="46.916" lon="8.67507">
        <ele>1959</ele>
        <time>2021-08-07T08:25:45.605Z</time>
      </trkpt>
      <trkpt lat="46.91599" lon="8.67509">
        <ele>1959</ele>
        <time>2021-08-07T08:25:46.606Z</time>
      </trkpt>
      <trkpt lat="46.91598" lon="8.6751">
        <ele>1958</ele>
        <time>2021-08-07T08:25:47.605Z</time>
      </trkpt>
      <trkpt lat="46.91597" lon="8.6751">
        <ele>1958</ele>
        <time>2021-08-07T08:25:48.606Z</time>
      </trkpt>
      <trkpt lat="46.91596" lon="8.67512">
        <ele>1957</ele>
        <time>2021-08-07T08:25:49.606Z</time>
      </trkpt>
      <trkpt lat="46.91595" lon="8.67512">
        <ele>1957</ele>
        <time>2021-08-07T08:25:50.606Z</time>
      </trkpt>
      <trkpt lat="46.91595" lon="8.67513">
        <ele>1956</ele>
        <time>2021-08-07T08:25:51.606Z</time>
      </trkpt>
      <trkpt lat="46.91594" lon="8.67514">
        <ele>1956</ele>
        <time>2021-08-07T08:25:52.606Z</time>
      </trkpt>
      <trkpt lat="46.91593" lon="8.67515">
        <ele>1955</ele>
        <time>2021-08-07T08:25:53.606Z</time>
      </trkpt>
      <trkpt lat="46.91592" lon="8.67516">
        <ele>1955</ele>
        <time>2021-08-07T08:25:54.606Z</time>
      </trkpt>
      <trkpt lat="46.91591" lon="8.67517">
        <ele>1955</ele>
        <time>2021-08-07T08:25:55.606Z</time>
      </trkpt>
      <trkpt lat="46.9159" lon="8.67517">
        <ele>1955</ele>
        <time>2021-08-07T08:25:56.605Z</time>
      </trkpt>
      <trkpt lat="46.91589" lon="8.67518">
        <ele>1955</ele>
        <time>2021-08-07T08:25:57.606Z</time>
      </trkpt>
      <trkpt lat="46.91588" lon="8.67519">
        <ele>1955</ele>
        <time>2021-08-07T08:25:58.605Z</time>
      </trkpt>
      <trkpt lat="46.91587" lon="8.67519">
        <ele>1955</ele>
        <time>2021-08-07T08:25:59.606Z</time>
      </trkpt>
      <trkpt lat="46.91586" lon="8.6752">
        <ele>1955</ele>
        <time>2021-08-07T08:26:00.606Z</time>
      </trkpt>
      <trkpt lat="46.91585" lon="8.67521">
        <ele>1955</ele>
        <time>2021-08-07T08:26:01.605Z</time>
      </trkpt>
      <trkpt lat="46.91585" lon="8.67522">
        <ele>1955</ele>
        <time>2021-08-07T08:26:02.606Z</time>
      </trkpt>
      <trkpt lat="46.91584" lon="8.67523">
        <ele>1955</ele>
        <time>2021-08-07T08:26:03.606Z</time>
      </trkpt>
      <trkpt lat="46.91583" lon="8.67524">
        <ele>1955</ele>
        <time>2021-08-07T08:26:04.606Z</time>
      </trkpt>
      <trkpt lat="46.91582" lon="8.67525">
        <ele>1954</ele>
        <time>2021-08-07T08:26:05.605Z</time>
      </trkpt>
      <trkpt lat="46.91582" lon="8.67526">
        <ele>1954</ele>
        <time>2021-08-07T08:26:06.606Z</time>
      </trkpt>
      <trkpt lat="46.91581" lon="8.67527">
        <ele>1954</ele>
        <time>2021-08-07T08:26:07.605Z</time>
      </trkpt>
      <trkpt lat="46.9158" lon="8.67528">
        <ele>1954</ele>
        <time>2021-08-07T08:26:08.606Z</time>
      </trkpt>
      <trkpt lat="46.9158" lon="8.6753">
        <ele>1954</ele>
        <time>2021-08-07T08:26:09.606Z</time>
      </trkpt>
      <trkpt lat="46.91579" lon="8.67531">
        <ele>1954</ele>
        <time>2021-08-07T08:26:10.606Z</time>
      </trkpt>
      <trkpt lat="46.91579" lon="8.67531">
        <ele>1954</ele>
        <time>2021-08-07T08:26:11.605Z</time>
      </trkpt>
      <trkpt lat="46.91578" lon="8.67532">
        <ele>1954</ele>
        <time>2021-08-07T08:26:12.605Z</time>
      </trkpt>
      <trkpt lat="46.91578" lon="8.67534">
        <ele>1955</ele>
        <time>2021-08-07T08:26:13.606Z</time>
      </trkpt>
      <trkpt lat="46.91578" lon="8.67535">
        <ele>1955</ele>
        <time>2021-08-07T08:26:14.605Z</time>
      </trkpt>
      <trkpt lat="46.91577" lon="8.67536">
        <ele>1954</ele>
        <time>2021-08-07T08:26:15.606Z</time>
      </trkpt>
      <trkpt lat="46.91577" lon="8.67538">
        <ele>1954</ele>
        <time>2021-08-07T08:26:16.606Z</time>
      </trkpt>
      <trkpt lat="46.91576" lon="8.67539">
        <ele>1954</ele>
        <time>2021-08-07T08:26:17.606Z</time>
      </trkpt>
      <trkpt lat="46.91576" lon="8.6754">
        <ele>1954</ele>
        <time>2021-08-07T08:26:18.605Z</time>
      </trkpt>
      <trkpt lat="46.91576" lon="8.67542">
        <ele>1953</ele>
        <time>2021-08-07T08:26:19.606Z</time>
      </trkpt>
      <trkpt lat="46.91575" lon="8.67542">
        <ele>1953</ele>
        <time>2021-08-07T08:26:20.605Z</time>
      </trkpt>
      <trkpt lat="46.91575" lon="8.67544">
        <ele>1953</ele>
        <time>2021-08-07T08:26:21.606Z</time>
      </trkpt>
      <trkpt lat="46.91574" lon="8.67545">
        <ele>1953</ele>
        <time>2021-08-07T08:26:22.606Z</time>
      </trkpt>
      <trkpt lat="46.91574" lon="8.67546">
        <ele>1953</ele>
        <time>2021-08-07T08:26:23.606Z</time>
      </trkpt>
      <trkpt lat="46.91574" lon="8.67547">
        <ele>1952</ele>
        <time>2021-08-07T08:26:24.606Z</time>
      </trkpt>
      <trkpt lat="46.91573" lon="8.67549">
        <ele>1951</ele>
        <time>2021-08-07T08:26:25.605Z</time>
      </trkpt>
      <trkpt lat="46.91572" lon="8.6755">
        <ele>1951</ele>
        <time>2021-08-07T08:26:26.606Z</time>
      </trkpt>
      <trkpt lat="46.91572" lon="8.67551">
        <ele>1951</ele>
        <time>2021-08-07T08:26:27.605Z</time>
      </trkpt>
      <trkpt lat="46.91571" lon="8.67553">
        <ele>1950</ele>
        <time>2021-08-07T08:26:28.606Z</time>
      </trkpt>
      <trkpt lat="46.91571" lon="8.67554">
        <ele>1949</ele>
        <time>2021-08-07T08:26:29.605Z</time>
      </trkpt>
      <trkpt lat="46.9157" lon="8.67555">
        <ele>1949</ele>
        <time>2021-08-07T08:26:30.606Z</time>
      </trkpt>
      <trkpt lat="46.9157" lon="8.67556">
        <ele>1948</ele>
        <time>2021-08-07T08:26:31.605Z</time>
      </trkpt>
      <trkpt lat="46.91569" lon="8.67557">
        <ele>1948</ele>
        <time>2021-08-07T08:26:32.605Z</time>
      </trkpt>
      <trkpt lat="46.91569" lon="8.67558">
        <ele>1947</ele>
        <time>2021-08-07T08:26:33.605Z</time>
      </trkpt>
      <trkpt lat="46.91568" lon="8.67559">
        <ele>1947</ele>
        <time>2021-08-07T08:26:34.606Z</time>
      </trkpt>
      <trkpt lat="46.91567" lon="8.6756">
        <ele>1947</ele>
        <time>2021-08-07T08:26:35.605Z</time>
      </trkpt>
      <trkpt lat="46.91567" lon="8.67562">
        <ele>1947</ele>
        <time>2021-08-07T08:26:36.605Z</time>
      </trkpt>
      <trkpt lat="46.91566" lon="8.67563">
        <ele>1946</ele>
        <time>2021-08-07T08:26:37.605Z</time>
      </trkpt>
      <trkpt lat="46.91566" lon="8.67564">
        <ele>1945</ele>
        <time>2021-08-07T08:26:38.606Z</time>
      </trkpt>
      <trkpt lat="46.91565" lon="8.67565">
        <ele>1944</ele>
        <time>2021-08-07T08:26:39.605Z</time>
      </trkpt>
      <trkpt lat="46.91564" lon="8.67567">
        <ele>1943</ele>
        <time>2021-08-07T08:26:40.606Z</time>
      </trkpt>
      <trkpt lat="46.91564" lon="8.67568">
        <ele>1943</ele>
        <time>2021-08-07T08:26:41.606Z</time>
      </trkpt>
      <trkpt lat="46.91563" lon="8.67568">
        <ele>1942</ele>
        <time>2021-08-07T08:26:42.606Z</time>
      </trkpt>
      <trkpt lat="46.91563" lon="8.67569">
        <ele>1942</ele>
        <time>2021-08-07T08:26:43.606Z</time>
      </trkpt>
      <trkpt lat="46.91561" lon="8.6757">
        <ele>1941</ele>
        <time>2021-08-07T08:26:44.605Z</time>
      </trkpt>
      <trkpt lat="46.91561" lon="8.67571">
        <ele>1941</ele>
        <time>2021-08-07T08:26:45.606Z</time>
      </trkpt>
      <trkpt lat="46.9156" lon="8.67573">
        <ele>1941</ele>
        <time>2021-08-07T08:26:46.606Z</time>
      </trkpt>
      <trkpt lat="46.91559" lon="8.67574">
        <ele>1941</ele>
        <time>2021-08-07T08:26:47.606Z</time>
      </trkpt>
      <trkpt lat="46.91558" lon="8.67575">
        <ele>1942</ele>
        <time>2021-08-07T08:26:48.606Z</time>
      </trkpt>
      <trkpt lat="46.91557" lon="8.67576">
        <ele>1942</ele>
        <time>2021-08-07T08:26:49.605Z</time>
      </trkpt>
      <trkpt lat="46.91557" lon="8.67577">
        <ele>1942</ele>
        <time>2021-08-07T08:26:50.605Z</time>
      </trkpt>
      <trkpt lat="46.91556" lon="8.67578">
        <ele>1942</ele>
        <time>2021-08-07T08:26:51.605Z</time>
      </trkpt>
      <trkpt lat="46.91556" lon="8.6758">
        <ele>1942</ele>
        <time>2021-08-07T08:26:52.606Z</time>
      </trkpt>
      <trkpt lat="46.91555" lon="8.67581">
        <ele>1942</ele>
        <time>2021-08-07T08:26:53.605Z</time>
      </trkpt>
      <trkpt lat="46.91554" lon="8.67582">
        <ele>1942</ele>
        <time>2021-08-07T08:26:54.606Z</time>
      </trkpt>
      <trkpt lat="46.91553" lon="8.67583">
        <ele>1942</ele>
        <time>2021-08-07T08:26:55.605Z</time>
      </trkpt>
      <trkpt lat="46.91552" lon="8.67583">
        <ele>1942</ele>
        <time>2021-08-07T08:26:56.606Z</time>
      </trkpt>
      <trkpt lat="46.91552" lon="8.67584">
        <ele>1942</ele>
        <time>2021-08-07T08:26:57.606Z</time>
      </trkpt>
      <trkpt lat="46.91551" lon="8.67585">
        <ele>1942</ele>
        <time>2021-08-07T08:26:58.606Z</time>
      </trkpt>
      <trkpt lat="46.91551" lon="8.67585">
        <ele>1942</ele>
        <time>2021-08-07T08:26:59.606Z</time>
      </trkpt>
      <trkpt lat="46.91551" lon="8.67586">
        <ele>1942</ele>
        <time>2021-08-07T08:27:00.606Z</time>
      </trkpt>
      <trkpt lat="46.91551" lon="8.67585">
        <ele>1942</ele>
        <time>2021-08-07T08:27:01.605Z</time>
      </trkpt>
      <trkpt lat="46.91556" lon="8.67586">
        <ele>1945</ele>
        <time>2021-08-07T08:27:02.606Z</time>
      </trkpt>
      <trkpt lat="46.91555" lon="8.67586">
        <ele>1945</ele>
        <time>2021-08-07T08:27:03.606Z</time>
      </trkpt>
      <trkpt lat="46.91553" lon="8.67586">
        <ele>1945</ele>
        <time>2021-08-07T08:27:04.605Z</time>
      </trkpt>
      <trkpt lat="46.91552" lon="8.67586">
        <ele>1944</ele>
        <time>2021-08-07T08:27:05.606Z</time>
      </trkpt>
      <trkpt lat="46.91551" lon="8.67587">
        <ele>1944</ele>
        <time>2021-08-07T08:27:06.606Z</time>
      </trkpt>
      <trkpt lat="46.9155" lon="8.67588">
        <ele>1943</ele>
        <time>2021-08-07T08:27:07.606Z</time>
      </trkpt>
      <trkpt lat="46.91549" lon="8.67588">
        <ele>1943</ele>
        <time>2021-08-07T08:27:08.606Z</time>
      </trkpt>
      <trkpt lat="46.91548" lon="8.67589">
        <ele>1942</ele>
        <time>2021-08-07T08:27:09.606Z</time>
      </trkpt>
      <trkpt lat="46.91548" lon="8.67589">
        <ele>1941</ele>
        <time>2021-08-07T08:27:10.605Z</time>
      </trkpt>
      <trkpt lat="46.91547" lon="8.67589">
        <ele>1941</ele>
        <time>2021-08-07T08:27:11.605Z</time>
      </trkpt>
      <trkpt lat="46.91546" lon="8.6759">
        <ele>1940</ele>
        <time>2021-08-07T08:27:12.606Z</time>
      </trkpt>
      <trkpt lat="46.91546" lon="8.6759">
        <ele>1938</ele>
        <time>2021-08-07T08:27:13.605Z</time>
      </trkpt>
      <trkpt lat="46.91545" lon="8.67591">
        <ele>1937</ele>
        <time>2021-08-07T08:27:14.605Z</time>
      </trkpt>
      <trkpt lat="46.91544" lon="8.67592">
        <ele>1936</ele>
        <time>2021-08-07T08:27:15.605Z</time>
      </trkpt>
      <trkpt lat="46.91543" lon="8.67593">
        <ele>1935</ele>
        <time>2021-08-07T08:27:16.605Z</time>
      </trkpt>
      <trkpt lat="46.91542" lon="8.67593">
        <ele>1934</ele>
        <time>2021-08-07T08:27:17.605Z</time>
      </trkpt>
      <trkpt lat="46.91541" lon="8.67595">
        <ele>1933</ele>
        <time>2021-08-07T08:27:18.606Z</time>
      </trkpt>
      <trkpt lat="46.9154" lon="8.67596">
        <ele>1932</ele>
        <time>2021-08-07T08:27:19.605Z</time>
      </trkpt>
      <trkpt lat="46.91538" lon="8.67597">
        <ele>1931</ele>
        <time>2021-08-07T08:27:20.605Z</time>
      </trkpt>
      <trkpt lat="46.91538" lon="8.67599">
        <ele>1931</ele>
        <time>2021-08-07T08:27:21.605Z</time>
      </trkpt>
      <trkpt lat="46.91537" lon="8.67601">
        <ele>1930</ele>
        <time>2021-08-07T08:27:22.606Z</time>
      </trkpt>
      <trkpt lat="46.91536" lon="8.67602">
        <ele>1930</ele>
        <time>2021-08-07T08:27:23.605Z</time>
      </trkpt>
      <trkpt lat="46.91536" lon="8.67604">
        <ele>1930</ele>
        <time>2021-08-07T08:27:24.605Z</time>
      </trkpt>
      <trkpt lat="46.91535" lon="8.67605">
        <ele>1930</ele>
        <time>2021-08-07T08:27:25.605Z</time>
      </trkpt>
      <trkpt lat="46.91535" lon="8.67607">
        <ele>1930</ele>
        <time>2021-08-07T08:27:26.606Z</time>
      </trkpt>
      <trkpt lat="46.91535" lon="8.67609">
        <ele>1930</ele>
        <time>2021-08-07T08:27:27.605Z</time>
      </trkpt>
      <trkpt lat="46.91535" lon="8.6761">
        <ele>1930</ele>
        <time>2021-08-07T08:27:28.605Z</time>
      </trkpt>
      <trkpt lat="46.91534" lon="8.67611">
        <ele>1930</ele>
        <time>2021-08-07T08:27:29.605Z</time>
      </trkpt>
      <trkpt lat="46.91534" lon="8.67612">
        <ele>1931</ele>
        <time>2021-08-07T08:27:30.605Z</time>
      </trkpt>
      <trkpt lat="46.91534" lon="8.67612">
        <ele>1931</ele>
        <time>2021-08-07T08:27:31.605Z</time>
      </trkpt>
      <trkpt lat="46.91534" lon="8.67612">
        <ele>1931</ele>
        <time>2021-08-07T08:27:32.605Z</time>
      </trkpt>
      <trkpt lat="46.91534" lon="8.67615">
        <ele>1932</ele>
        <time>2021-08-07T08:27:33.607Z</time>
      </trkpt>
      <trkpt lat="46.91534" lon="8.67615">
        <ele>1931</ele>
        <time>2021-08-07T08:27:34.607Z</time>
      </trkpt>
      <trkpt lat="46.91534" lon="8.67616">
        <ele>1931</ele>
        <time>2021-08-07T08:27:35.606Z</time>
      </trkpt>
      <trkpt lat="46.91534" lon="8.67617">
        <ele>1931</ele>
        <time>2021-08-07T08:27:36.606Z</time>
      </trkpt>
      <trkpt lat="46.91534" lon="8.67618">
        <ele>1931</ele>
        <time>2021-08-07T08:27:37.607Z</time>
      </trkpt>
      <trkpt lat="46.91534" lon="8.6762">
        <ele>1931</ele>
        <time>2021-08-07T08:27:38.606Z</time>
      </trkpt>
      <trkpt lat="46.91533" lon="8.67621">
        <ele>1930</ele>
        <time>2021-08-07T08:27:39.607Z</time>
      </trkpt>
      <trkpt lat="46.91533" lon="8.67622">
        <ele>1930</ele>
        <time>2021-08-07T08:27:40.606Z</time>
      </trkpt>
      <trkpt lat="46.91532" lon="8.67623">
        <ele>1930</ele>
        <time>2021-08-07T08:27:41.606Z</time>
      </trkpt>
      <trkpt lat="46.91532" lon="8.67624">
        <ele>1930</ele>
        <time>2021-08-07T08:27:42.606Z</time>
      </trkpt>
      <trkpt lat="46.91532" lon="8.67625">
        <ele>1930</ele>
        <time>2021-08-07T08:27:43.606Z</time>
      </trkpt>
      <trkpt lat="46.91531" lon="8.67626">
        <ele>1930</ele>
        <time>2021-08-07T08:27:44.606Z</time>
      </trkpt>
      <trkpt lat="46.91531" lon="8.67628">
        <ele>1930</ele>
        <time>2021-08-07T08:27:45.606Z</time>
      </trkpt>
      <trkpt lat="46.9153" lon="8.6763">
        <ele>1930</ele>
        <time>2021-08-07T08:27:46.606Z</time>
      </trkpt>
      <trkpt lat="46.9153" lon="8.67632">
        <ele>1930</ele>
        <time>2021-08-07T08:27:47.606Z</time>
      </trkpt>
      <trkpt lat="46.9153" lon="8.67634">
        <ele>1930</ele>
        <time>2021-08-07T08:27:48.606Z</time>
      </trkpt>
      <trkpt lat="46.91529" lon="8.67635">
        <ele>1931</ele>
        <time>2021-08-07T08:27:49.606Z</time>
      </trkpt>
      <trkpt lat="46.91529" lon="8.67637">
        <ele>1931</ele>
        <time>2021-08-07T08:27:50.606Z</time>
      </trkpt>
      <trkpt lat="46.91529" lon="8.67638">
        <ele>1932</ele>
        <time>2021-08-07T08:27:51.607Z</time>
      </trkpt>
      <trkpt lat="46.91528" lon="8.6764">
        <ele>1932</ele>
        <time>2021-08-07T08:27:52.606Z</time>
      </trkpt>
      <trkpt lat="46.91528" lon="8.67641">
        <ele>1932</ele>
        <time>2021-08-07T08:27:53.606Z</time>
      </trkpt>
      <trkpt lat="46.91528" lon="8.67643">
        <ele>1932</ele>
        <time>2021-08-07T08:27:54.606Z</time>
      </trkpt>
      <trkpt lat="46.91528" lon="8.67643">
        <ele>1932</ele>
        <time>2021-08-07T08:27:55.606Z</time>
      </trkpt>
      <trkpt lat="46.91527" lon="8.67644">
        <ele>1932</ele>
        <time>2021-08-07T08:27:56.606Z</time>
      </trkpt>
      <trkpt lat="46.91527" lon="8.67644">
        <ele>1931</ele>
        <time>2021-08-07T08:27:57.607Z</time>
      </trkpt>
      <trkpt lat="46.91526" lon="8.67645">
        <ele>1931</ele>
        <time>2021-08-07T08:27:58.607Z</time>
      </trkpt>
      <trkpt lat="46.91526" lon="8.67645">
        <ele>1931</ele>
        <time>2021-08-07T08:27:59.606Z</time>
      </trkpt>
      <trkpt lat="46.91525" lon="8.67646">
        <ele>1931</ele>
        <time>2021-08-07T08:28:00.607Z</time>
      </trkpt>
      <trkpt lat="46.91524" lon="8.67647">
        <ele>1931</ele>
        <time>2021-08-07T08:28:01.607Z</time>
      </trkpt>
      <trkpt lat="46.91524" lon="8.67648">
        <ele>1931</ele>
        <time>2021-08-07T08:28:02.606Z</time>
      </trkpt>
      <trkpt lat="46.91523" lon="8.67649">
        <ele>1931</ele>
        <time>2021-08-07T08:28:03.607Z</time>
      </trkpt>
      <trkpt lat="46.91522" lon="8.67649">
        <ele>1931</ele>
        <time>2021-08-07T08:28:04.607Z</time>
      </trkpt>
      <trkpt lat="46.91522" lon="8.6765">
        <ele>1931</ele>
        <time>2021-08-07T08:28:05.607Z</time>
      </trkpt>
      <trkpt lat="46.91521" lon="8.67651">
        <ele>1931</ele>
        <time>2021-08-07T08:28:06.607Z</time>
      </trkpt>
      <trkpt lat="46.91521" lon="8.67652">
        <ele>1930</ele>
        <time>2021-08-07T08:28:07.607Z</time>
      </trkpt>
      <trkpt lat="46.9152" lon="8.67653">
        <ele>1930</ele>
        <time>2021-08-07T08:28:08.606Z</time>
      </trkpt>
      <trkpt lat="46.9152" lon="8.67654">
        <ele>1929</ele>
        <time>2021-08-07T08:28:09.607Z</time>
      </trkpt>
      <trkpt lat="46.91519" lon="8.67655">
        <ele>1928</ele>
        <time>2021-08-07T08:28:10.607Z</time>
      </trkpt>
      <trkpt lat="46.91518" lon="8.67656">
        <ele>1928</ele>
        <time>2021-08-07T08:28:11.606Z</time>
      </trkpt>
      <trkpt lat="46.91518" lon="8.67657">
        <ele>1927</ele>
        <time>2021-08-07T08:28:12.606Z</time>
      </trkpt>
      <trkpt lat="46.91517" lon="8.67658">
        <ele>1926</ele>
        <time>2021-08-07T08:28:13.607Z</time>
      </trkpt>
      <trkpt lat="46.91517" lon="8.67659">
        <ele>1925</ele>
        <time>2021-08-07T08:28:14.607Z</time>
      </trkpt>
      <trkpt lat="46.91517" lon="8.6766">
        <ele>1925</ele>
        <time>2021-08-07T08:28:15.606Z</time>
      </trkpt>
      <trkpt lat="46.91516" lon="8.67661">
        <ele>1924</ele>
        <time>2021-08-07T08:28:16.607Z</time>
      </trkpt>
      <trkpt lat="46.91516" lon="8.67662">
        <ele>1923</ele>
        <time>2021-08-07T08:28:17.606Z</time>
      </trkpt>
      <trkpt lat="46.91515" lon="8.67663">
        <ele>1922</ele>
        <time>2021-08-07T08:28:18.607Z</time>
      </trkpt>
      <trkpt lat="46.91514" lon="8.67665">
        <ele>1921</ele>
        <time>2021-08-07T08:28:19.607Z</time>
      </trkpt>
      <trkpt lat="46.91513" lon="8.67666">
        <ele>1921</ele>
        <time>2021-08-07T08:28:20.607Z</time>
      </trkpt>
      <trkpt lat="46.91513" lon="8.67668">
        <ele>1920</ele>
        <time>2021-08-07T08:28:21.607Z</time>
      </trkpt>
      <trkpt lat="46.91512" lon="8.67669">
        <ele>1920</ele>
        <time>2021-08-07T08:28:22.606Z</time>
      </trkpt>
      <trkpt lat="46.91512" lon="8.6767">
        <ele>1920</ele>
        <time>2021-08-07T08:28:23.606Z</time>
      </trkpt>
      <trkpt lat="46.91511" lon="8.67672">
        <ele>1920</ele>
        <time>2021-08-07T08:28:24.606Z</time>
      </trkpt>
      <trkpt lat="46.91511" lon="8.67674">
        <ele>1920</ele>
        <time>2021-08-07T08:28:25.607Z</time>
      </trkpt>
      <trkpt lat="46.91511" lon="8.67675">
        <ele>1920</ele>
        <time>2021-08-07T08:28:26.607Z</time>
      </trkpt>
      <trkpt lat="46.9151" lon="8.67677">
        <ele>1919</ele>
        <time>2021-08-07T08:28:27.606Z</time>
      </trkpt>
      <trkpt lat="46.9151" lon="8.67678">
        <ele>1919</ele>
        <time>2021-08-07T08:28:28.606Z</time>
      </trkpt>
      <trkpt lat="46.9151" lon="8.6768">
        <ele>1919</ele>
        <time>2021-08-07T08:28:29.607Z</time>
      </trkpt>
      <trkpt lat="46.91509" lon="8.6768">
        <ele>1918</ele>
        <time>2021-08-07T08:28:30.606Z</time>
      </trkpt>
      <trkpt lat="46.91509" lon="8.6768">
        <ele>1918</ele>
        <time>2021-08-07T08:28:31.607Z</time>
      </trkpt>
      <trkpt lat="46.91509" lon="8.67682">
        <ele>1917</ele>
        <time>2021-08-07T08:28:32.607Z</time>
      </trkpt>
      <trkpt lat="46.91509" lon="8.67684">
        <ele>1916</ele>
        <time>2021-08-07T08:28:33.607Z</time>
      </trkpt>
      <trkpt lat="46.91508" lon="8.67685">
        <ele>1916</ele>
        <time>2021-08-07T08:28:34.607Z</time>
      </trkpt>
      <trkpt lat="46.91508" lon="8.67686">
        <ele>1915</ele>
        <time>2021-08-07T08:28:35.607Z</time>
      </trkpt>
      <trkpt lat="46.91509" lon="8.67687">
        <ele>1914</ele>
        <time>2021-08-07T08:28:36.607Z</time>
      </trkpt>
      <trkpt lat="46.91509" lon="8.67688">
        <ele>1914</ele>
        <time>2021-08-07T08:28:37.606Z</time>
      </trkpt>
      <trkpt lat="46.91509" lon="8.67689">
        <ele>1913</ele>
        <time>2021-08-07T08:28:38.607Z</time>
      </trkpt>
      <trkpt lat="46.91509" lon="8.67689">
        <ele>1913</ele>
        <time>2021-08-07T08:28:39.606Z</time>
      </trkpt>
      <trkpt lat="46.91509" lon="8.6769">
        <ele>1912</ele>
        <time>2021-08-07T08:28:40.607Z</time>
      </trkpt>
      <trkpt lat="46.91509" lon="8.67691">
        <ele>1912</ele>
        <time>2021-08-07T08:28:41.606Z</time>
      </trkpt>
      <trkpt lat="46.91509" lon="8.67692">
        <ele>1912</ele>
        <time>2021-08-07T08:28:42.607Z</time>
      </trkpt>
      <trkpt lat="46.91508" lon="8.67692">
        <ele>1912</ele>
        <time>2021-08-07T08:28:43.607Z</time>
      </trkpt>
      <trkpt lat="46.91508" lon="8.67693">
        <ele>1912</ele>
        <time>2021-08-07T08:28:44.607Z</time>
      </trkpt>
      <trkpt lat="46.91508" lon="8.67694">
        <ele>1912</ele>
        <time>2021-08-07T08:28:45.606Z</time>
      </trkpt>
      <trkpt lat="46.91509" lon="8.67694">
        <ele>1911</ele>
        <time>2021-08-07T08:28:46.606Z</time>
      </trkpt>
      <trkpt lat="46.91509" lon="8.67695">
        <ele>1911</ele>
        <time>2021-08-07T08:28:47.607Z</time>
      </trkpt>
      <trkpt lat="46.91508" lon="8.67697">
        <ele>1910</ele>
        <time>2021-08-07T08:28:48.607Z</time>
      </trkpt>
      <trkpt lat="46.91508" lon="8.67698">
        <ele>1910</ele>
        <time>2021-08-07T08:28:49.607Z</time>
      </trkpt>
      <trkpt lat="46.91507" lon="8.67699">
        <ele>1909</ele>
        <time>2021-08-07T08:28:50.606Z</time>
      </trkpt>
      <trkpt lat="46.91507" lon="8.67699">
        <ele>1909</ele>
        <time>2021-08-07T08:28:51.607Z</time>
      </trkpt>
      <trkpt lat="46.91507" lon="8.677">
        <ele>1909</ele>
        <time>2021-08-07T08:28:52.607Z</time>
      </trkpt>
      <trkpt lat="46.91506" lon="8.67701">
        <ele>1909</ele>
        <time>2021-08-07T08:28:53.606Z</time>
      </trkpt>
      <trkpt lat="46.91506" lon="8.67702">
        <ele>1909</ele>
        <time>2021-08-07T08:28:54.607Z</time>
      </trkpt>
      <trkpt lat="46.91506" lon="8.67702">
        <ele>1909</ele>
        <time>2021-08-07T08:28:55.606Z</time>
      </trkpt>
      <trkpt lat="46.91506" lon="8.67704">
        <ele>1909</ele>
        <time>2021-08-07T08:28:56.606Z</time>
      </trkpt>
      <trkpt lat="46.91506" lon="8.67705">
        <ele>1909</ele>
        <time>2021-08-07T08:28:57.607Z</time>
      </trkpt>
      <trkpt lat="46.91506" lon="8.67705">
        <ele>1909</ele>
        <time>2021-08-07T08:28:58.607Z</time>
      </trkpt>
      <trkpt lat="46.91505" lon="8.67704">
        <ele>1909</ele>
        <time>2021-08-07T08:28:59.607Z</time>
      </trkpt>
      <trkpt lat="46.91505" lon="8.67705">
        <ele>1909</ele>
        <time>2021-08-07T08:29:00.607Z</time>
      </trkpt>
      <trkpt lat="46.91505" lon="8.67707">
        <ele>1909</ele>
        <time>2021-08-07T08:29:01.607Z</time>
      </trkpt>
      <trkpt lat="46.91505" lon="8.67707">
        <ele>1909</ele>
        <time>2021-08-07T08:29:02.607Z</time>
      </trkpt>
      <trkpt lat="46.91505" lon="8.67707">
        <ele>1909</ele>
        <time>2021-08-07T08:29:03.606Z</time>
      </trkpt>
      <trkpt lat="46.91504" lon="8.67707">
        <ele>1910</ele>
        <time>2021-08-07T08:29:04.607Z</time>
      </trkpt>
      <trkpt lat="46.91504" lon="8.67707">
        <ele>1911</ele>
        <time>2021-08-07T08:29:05.606Z</time>
      </trkpt>
      <trkpt lat="46.91504" lon="8.67708">
        <ele>1911</ele>
        <time>2021-08-07T08:29:06.606Z</time>
      </trkpt>
      <trkpt lat="46.91504" lon="8.67708">
        <ele>1911</ele>
        <time>2021-08-07T08:29:07.607Z</time>
      </trkpt>
      <trkpt lat="46.91504" lon="8.67708">
        <ele>1912</ele>
        <time>2021-08-07T08:29:08.607Z</time>
      </trkpt>
      <trkpt lat="46.91503" lon="8.67708">
        <ele>1912</ele>
        <time>2021-08-07T08:29:09.606Z</time>
      </trkpt>
      <trkpt lat="46.91502" lon="8.67707">
        <ele>1913</ele>
        <time>2021-08-07T08:29:10.607Z</time>
      </trkpt>
      <trkpt lat="46.91502" lon="8.67707">
        <ele>1914</ele>
        <time>2021-08-07T08:29:11.606Z</time>
      </trkpt>
      <trkpt lat="46.91501" lon="8.67707">
        <ele>1914</ele>
        <time>2021-08-07T08:29:12.607Z</time>
      </trkpt>
      <trkpt lat="46.915" lon="8.67708">
        <ele>1914</ele>
        <time>2021-08-07T08:29:13.606Z</time>
      </trkpt>
      <trkpt lat="46.915" lon="8.67708">
        <ele>1915</ele>
        <time>2021-08-07T08:29:14.607Z</time>
      </trkpt>
      <trkpt lat="46.91499" lon="8.67708">
        <ele>1915</ele>
        <time>2021-08-07T08:29:15.606Z</time>
      </trkpt>
      <trkpt lat="46.91498" lon="8.67708">
        <ele>1916</ele>
        <time>2021-08-07T08:29:16.607Z</time>
      </trkpt>
      <trkpt lat="46.91497" lon="8.67708">
        <ele>1917</ele>
        <time>2021-08-07T08:29:17.607Z</time>
      </trkpt>
      <trkpt lat="46.91497" lon="8.67707">
        <ele>1917</ele>
        <time>2021-08-07T08:29:18.607Z</time>
      </trkpt>
      <trkpt lat="46.91496" lon="8.67706">
        <ele>1918</ele>
        <time>2021-08-07T08:29:19.606Z</time>
      </trkpt>
      <trkpt lat="46.91495" lon="8.67706">
        <ele>1919</ele>
        <time>2021-08-07T08:29:20.607Z</time>
      </trkpt>
      <trkpt lat="46.91495" lon="8.67706">
        <ele>1919</ele>
        <time>2021-08-07T08:29:21.607Z</time>
      </trkpt>
      <trkpt lat="46.91494" lon="8.67706">
        <ele>1920</ele>
        <time>2021-08-07T08:29:22.606Z</time>
      </trkpt>
      <trkpt lat="46.91493" lon="8.67706">
        <ele>1921</ele>
        <time>2021-08-07T08:29:23.607Z</time>
      </trkpt>
      <trkpt lat="46.91492" lon="8.67706">
        <ele>1921</ele>
        <time>2021-08-07T08:29:24.606Z</time>
      </trkpt>
      <trkpt lat="46.91492" lon="8.67705">
        <ele>1922</ele>
        <time>2021-08-07T08:29:25.607Z</time>
      </trkpt>
      <trkpt lat="46.91491" lon="8.67705">
        <ele>1923</ele>
        <time>2021-08-07T08:29:26.607Z</time>
      </trkpt>
      <trkpt lat="46.9149" lon="8.67705">
        <ele>1924</ele>
        <time>2021-08-07T08:29:27.606Z</time>
      </trkpt>
      <trkpt lat="46.91489" lon="8.67706">
        <ele>1925</ele>
        <time>2021-08-07T08:29:28.607Z</time>
      </trkpt>
      <trkpt lat="46.91488" lon="8.67707">
        <ele>1925</ele>
        <time>2021-08-07T08:29:29.607Z</time>
      </trkpt>
      <trkpt lat="46.91488" lon="8.67708">
        <ele>1925</ele>
        <time>2021-08-07T08:29:30.607Z</time>
      </trkpt>
      <trkpt lat="46.91487" lon="8.67709">
        <ele>1925</ele>
        <time>2021-08-07T08:29:31.607Z</time>
      </trkpt>
      <trkpt lat="46.91487" lon="8.6771">
        <ele>1924</ele>
        <time>2021-08-07T08:29:32.607Z</time>
      </trkpt>
      <trkpt lat="46.91487" lon="8.6771">
        <ele>1923</ele>
        <time>2021-08-07T08:29:33.606Z</time>
      </trkpt>
      <trkpt lat="46.91487" lon="8.6771">
        <ele>1923</ele>
        <time>2021-08-07T08:29:34.606Z</time>
      </trkpt>
      <trkpt lat="46.91486" lon="8.6771">
        <ele>1922</ele>
        <time>2021-08-07T08:29:35.607Z</time>
      </trkpt>
      <trkpt lat="46.91485" lon="8.6771">
        <ele>1922</ele>
        <time>2021-08-07T08:29:36.607Z</time>
      </trkpt>
      <trkpt lat="46.91484" lon="8.67708">
        <ele>1922</ele>
        <time>2021-08-07T08:29:37.607Z</time>
      </trkpt>
      <trkpt lat="46.91484" lon="8.67708">
        <ele>1922</ele>
        <time>2021-08-07T08:29:38.606Z</time>
      </trkpt>
      <trkpt lat="46.91484" lon="8.67707">
        <ele>1922</ele>
        <time>2021-08-07T08:29:39.606Z</time>
      </trkpt>
      <trkpt lat="46.91482" lon="8.67706">
        <ele>1922</ele>
        <time>2021-08-07T08:29:40.607Z</time>
      </trkpt>
      <trkpt lat="46.91481" lon="8.67707">
        <ele>1922</ele>
        <time>2021-08-07T08:29:41.608Z</time>
      </trkpt>
      <trkpt lat="46.9148" lon="8.67707">
        <ele>1921</ele>
        <time>2021-08-07T08:29:42.607Z</time>
      </trkpt>
      <trkpt lat="46.91479" lon="8.67708">
        <ele>1921</ele>
        <time>2021-08-07T08:29:43.607Z</time>
      </trkpt>
      <trkpt lat="46.91478" lon="8.6771">
        <ele>1920</ele>
        <time>2021-08-07T08:29:44.608Z</time>
      </trkpt>
      <trkpt lat="46.91477" lon="8.6771">
        <ele>1920</ele>
        <time>2021-08-07T08:29:45.608Z</time>
      </trkpt>
      <trkpt lat="46.91476" lon="8.67711">
        <ele>1919</ele>
        <time>2021-08-07T08:29:46.607Z</time>
      </trkpt>
      <trkpt lat="46.91475" lon="8.67712">
        <ele>1919</ele>
        <time>2021-08-07T08:29:47.608Z</time>
      </trkpt>
      <trkpt lat="46.91475" lon="8.67713">
        <ele>1919</ele>
        <time>2021-08-07T08:29:48.608Z</time>
      </trkpt>
      <trkpt lat="46.91475" lon="8.67713">
        <ele>1918</ele>
        <time>2021-08-07T08:29:49.608Z</time>
      </trkpt>
      <trkpt lat="46.91475" lon="8.67714">
        <ele>1918</ele>
        <time>2021-08-07T08:29:50.608Z</time>
      </trkpt>
      <trkpt lat="46.91475" lon="8.67714">
        <ele>1918</ele>
        <time>2021-08-07T08:29:51.608Z</time>
      </trkpt>
      <trkpt lat="46.91479" lon="8.67716">
        <ele>1918</ele>
        <time>2021-08-07T08:29:52.608Z</time>
      </trkpt>
      <trkpt lat="46.91479" lon="8.67715">
        <ele>1918</ele>
        <time>2021-08-07T08:29:53.607Z</time>
      </trkpt>
      <trkpt lat="46.91479" lon="8.67717">
        <ele>1917</ele>
        <time>2021-08-07T08:29:54.607Z</time>
      </trkpt>
      <trkpt lat="46.91479" lon="8.67718">
        <ele>1917</ele>
        <time>2021-08-07T08:29:55.607Z</time>
      </trkpt>
      <trkpt lat="46.91478" lon="8.67719">
        <ele>1916</ele>
        <time>2021-08-07T08:29:56.607Z</time>
      </trkpt>
      <trkpt lat="46.91478" lon="8.6772">
        <ele>1915</ele>
        <time>2021-08-07T08:29:57.607Z</time>
      </trkpt>
      <trkpt lat="46.91478" lon="8.67721">
        <ele>1914</ele>
        <time>2021-08-07T08:29:58.607Z</time>
      </trkpt>
      <trkpt lat="46.91477" lon="8.67722">
        <ele>1913</ele>
        <time>2021-08-07T08:29:59.608Z</time>
      </trkpt>
      <trkpt lat="46.91477" lon="8.67723">
        <ele>1912</ele>
        <time>2021-08-07T08:30:00.607Z</time>
      </trkpt>
      <trkpt lat="46.91476" lon="8.67723">
        <ele>1911</ele>
        <time>2021-08-07T08:30:01.607Z</time>
      </trkpt>
      <trkpt lat="46.91476" lon="8.67724">
        <ele>1911</ele>
        <time>2021-08-07T08:30:02.607Z</time>
      </trkpt>
      <trkpt lat="46.91476" lon="8.67725">
        <ele>1911</ele>
        <time>2021-08-07T08:30:03.607Z</time>
      </trkpt>
      <trkpt lat="46.91476" lon="8.67726">
        <ele>1911</ele>
        <time>2021-08-07T08:30:04.607Z</time>
      </trkpt>
      <trkpt lat="46.91475" lon="8.67726">
        <ele>1911</ele>
        <time>2021-08-07T08:30:05.607Z</time>
      </trkpt>
      <trkpt lat="46.91475" lon="8.67727">
        <ele>1911</ele>
        <time>2021-08-07T08:30:06.607Z</time>
      </trkpt>
      <trkpt lat="46.91474" lon="8.67728">
        <ele>1911</ele>
        <time>2021-08-07T08:30:07.607Z</time>
      </trkpt>
      <trkpt lat="46.91474" lon="8.6773">
        <ele>1910</ele>
        <time>2021-08-07T08:30:08.607Z</time>
      </trkpt>
      <trkpt lat="46.91473" lon="8.67732">
        <ele>1910</ele>
        <time>2021-08-07T08:30:09.607Z</time>
      </trkpt>
      <trkpt lat="46.91472" lon="8.67733">
        <ele>1910</ele>
        <time>2021-08-07T08:30:10.607Z</time>
      </trkpt>
      <trkpt lat="46.91472" lon="8.67735">
        <ele>1909</ele>
        <time>2021-08-07T08:30:11.607Z</time>
      </trkpt>
      <trkpt lat="46.91471" lon="8.67737">
        <ele>1909</ele>
        <time>2021-08-07T08:30:12.607Z</time>
      </trkpt>
      <trkpt lat="46.91471" lon="8.67738">
        <ele>1908</ele>
        <time>2021-08-07T08:30:13.607Z</time>
      </trkpt>
      <trkpt lat="46.9147" lon="8.67739">
        <ele>1907</ele>
        <time>2021-08-07T08:30:14.607Z</time>
      </trkpt>
      <trkpt lat="46.9147" lon="8.6774">
        <ele>1906</ele>
        <time>2021-08-07T08:30:15.607Z</time>
      </trkpt>
      <trkpt lat="46.91469" lon="8.67742">
        <ele>1906</ele>
        <time>2021-08-07T08:30:16.607Z</time>
      </trkpt>
      <trkpt lat="46.91468" lon="8.67742">
        <ele>1905</ele>
        <time>2021-08-07T08:30:17.607Z</time>
      </trkpt>
      <trkpt lat="46.91468" lon="8.67743">
        <ele>1905</ele>
        <time>2021-08-07T08:30:18.608Z</time>
      </trkpt>
      <trkpt lat="46.91467" lon="8.67743">
        <ele>1905</ele>
        <time>2021-08-07T08:30:19.607Z</time>
      </trkpt>
      <trkpt lat="46.91466" lon="8.67743">
        <ele>1905</ele>
        <time>2021-08-07T08:30:20.607Z</time>
      </trkpt>
      <trkpt lat="46.91465" lon="8.67744">
        <ele>1905</ele>
        <time>2021-08-07T08:30:21.607Z</time>
      </trkpt>
      <trkpt lat="46.91464" lon="8.67745">
        <ele>1905</ele>
        <time>2021-08-07T08:30:22.607Z</time>
      </trkpt>
      <trkpt lat="46.91464" lon="8.67745">
        <ele>1905</ele>
        <time>2021-08-07T08:30:23.607Z</time>
      </trkpt>
      <trkpt lat="46.91463" lon="8.67746">
        <ele>1905</ele>
        <time>2021-08-07T08:30:24.607Z</time>
      </trkpt>
      <trkpt lat="46.91462" lon="8.67747">
        <ele>1905</ele>
        <time>2021-08-07T08:30:25.607Z</time>
      </trkpt>
      <trkpt lat="46.91461" lon="8.67748">
        <ele>1904</ele>
        <time>2021-08-07T08:30:26.607Z</time>
      </trkpt>
      <trkpt lat="46.91461" lon="8.67748">
        <ele>1904</ele>
        <time>2021-08-07T08:30:27.607Z</time>
      </trkpt>
      <trkpt lat="46.9146" lon="8.67749">
        <ele>1904</ele>
        <time>2021-08-07T08:30:28.607Z</time>
      </trkpt>
      <trkpt lat="46.9146" lon="8.67749">
        <ele>1903</ele>
        <time>2021-08-07T08:30:29.607Z</time>
      </trkpt>
      <trkpt lat="46.91459" lon="8.6775">
        <ele>1903</ele>
        <time>2021-08-07T08:30:30.608Z</time>
      </trkpt>
      <trkpt lat="46.91459" lon="8.6775">
        <ele>1903</ele>
        <time>2021-08-07T08:30:31.608Z</time>
      </trkpt>
      <trkpt lat="46.91458" lon="8.67751">
        <ele>1903</ele>
        <time>2021-08-07T08:30:32.607Z</time>
      </trkpt>
      <trkpt lat="46.91457" lon="8.67751">
        <ele>1904</ele>
        <time>2021-08-07T08:30:33.607Z</time>
      </trkpt>
      <trkpt lat="46.91456" lon="8.67751">
        <ele>1904</ele>
        <time>2021-08-07T08:30:34.608Z</time>
      </trkpt>
      <trkpt lat="46.91456" lon="8.67751">
        <ele>1905</ele>
        <time>2021-08-07T08:30:35.608Z</time>
      </trkpt>
      <trkpt lat="46.91455" lon="8.67751">
        <ele>1906</ele>
        <time>2021-08-07T08:30:36.607Z</time>
      </trkpt>
      <trkpt lat="46.91454" lon="8.6775">
        <ele>1906</ele>
        <time>2021-08-07T08:30:37.607Z</time>
      </trkpt>
      <trkpt lat="46.91453" lon="8.6775">
        <ele>1907</ele>
        <time>2021-08-07T08:30:38.607Z</time>
      </trkpt>
      <trkpt lat="46.91453" lon="8.67751">
        <ele>1907</ele>
        <time>2021-08-07T08:30:39.608Z</time>
      </trkpt>
      <trkpt lat="46.91452" lon="8.67753">
        <ele>1906</ele>
        <time>2021-08-07T08:30:40.608Z</time>
      </trkpt>
      <trkpt lat="46.91451" lon="8.67755">
        <ele>1906</ele>
        <time>2021-08-07T08:30:41.607Z</time>
      </trkpt>
      <trkpt lat="46.91451" lon="8.67757">
        <ele>1905</ele>
        <time>2021-08-07T08:30:42.607Z</time>
      </trkpt>
      <trkpt lat="46.9145" lon="8.67758">
        <ele>1905</ele>
        <time>2021-08-07T08:30:43.607Z</time>
      </trkpt>
      <trkpt lat="46.9145" lon="8.67759">
        <ele>1904</ele>
        <time>2021-08-07T08:30:44.608Z</time>
      </trkpt>
      <trkpt lat="46.91449" lon="8.6776">
        <ele>1903</ele>
        <time>2021-08-07T08:30:45.608Z</time>
      </trkpt>
      <trkpt lat="46.91448" lon="8.67761">
        <ele>1903</ele>
        <time>2021-08-07T08:30:46.607Z</time>
      </trkpt>
      <trkpt lat="46.91448" lon="8.67762">
        <ele>1902</ele>
        <time>2021-08-07T08:30:47.607Z</time>
      </trkpt>
      <trkpt lat="46.91448" lon="8.67764">
        <ele>1901</ele>
        <time>2021-08-07T08:30:48.607Z</time>
      </trkpt>
      <trkpt lat="46.91447" lon="8.67765">
        <ele>1901</ele>
        <time>2021-08-07T08:30:49.607Z</time>
      </trkpt>
      <trkpt lat="46.91446" lon="8.67766">
        <ele>1900</ele>
        <time>2021-08-07T08:30:50.608Z</time>
      </trkpt>
      <trkpt lat="46.91445" lon="8.67768">
        <ele>1899</ele>
        <time>2021-08-07T08:30:51.608Z</time>
      </trkpt>
      <trkpt lat="46.91444" lon="8.67768">
        <ele>1898</ele>
        <time>2021-08-07T08:30:52.608Z</time>
      </trkpt>
      <trkpt lat="46.91443" lon="8.67769">
        <ele>1898</ele>
        <time>2021-08-07T08:30:53.607Z</time>
      </trkpt>
      <trkpt lat="46.91443" lon="8.67769">
        <ele>1898</ele>
        <time>2021-08-07T08:30:54.607Z</time>
      </trkpt>
      <trkpt lat="46.91442" lon="8.67769">
        <ele>1898</ele>
        <time>2021-08-07T08:30:55.607Z</time>
      </trkpt>
      <trkpt lat="46.91442" lon="8.67769">
        <ele>1898</ele>
        <time>2021-08-07T08:30:56.607Z</time>
      </trkpt>
      <trkpt lat="46.91441" lon="8.67769">
        <ele>1898</ele>
        <time>2021-08-07T08:30:57.607Z</time>
      </trkpt>
      <trkpt lat="46.9144" lon="8.6777">
        <ele>1898</ele>
        <time>2021-08-07T08:30:58.607Z</time>
      </trkpt>
      <trkpt lat="46.9144" lon="8.6777">
        <ele>1897</ele>
        <time>2021-08-07T08:30:59.607Z</time>
      </trkpt>
      <trkpt lat="46.91439" lon="8.6777">
        <ele>1896</ele>
        <time>2021-08-07T08:31:00.607Z</time>
      </trkpt>
      <trkpt lat="46.91438" lon="8.6777">
        <ele>1896</ele>
        <time>2021-08-07T08:31:01.608Z</time>
      </trkpt>
      <trkpt lat="46.91437" lon="8.67771">
        <ele>1896</ele>
        <time>2021-08-07T08:31:02.608Z</time>
      </trkpt>
      <trkpt lat="46.91436" lon="8.67771">
        <ele>1896</ele>
        <time>2021-08-07T08:31:03.608Z</time>
      </trkpt>
      <trkpt lat="46.91435" lon="8.67771">
        <ele>1895</ele>
        <time>2021-08-07T08:31:04.608Z</time>
      </trkpt>
      <trkpt lat="46.91435" lon="8.67772">
        <ele>1895</ele>
        <time>2021-08-07T08:31:05.608Z</time>
      </trkpt>
      <trkpt lat="46.91434" lon="8.67773">
        <ele>1894</ele>
        <time>2021-08-07T08:31:06.607Z</time>
      </trkpt>
      <trkpt lat="46.91434" lon="8.67774">
        <ele>1893</ele>
        <time>2021-08-07T08:31:07.607Z</time>
      </trkpt>
      <trkpt lat="46.91433" lon="8.67775">
        <ele>1893</ele>
        <time>2021-08-07T08:31:08.608Z</time>
      </trkpt>
      <trkpt lat="46.91433" lon="8.67775">
        <ele>1892</ele>
        <time>2021-08-07T08:31:09.607Z</time>
      </trkpt>
      <trkpt lat="46.91432" lon="8.67776">
        <ele>1892</ele>
        <time>2021-08-07T08:31:10.608Z</time>
      </trkpt>
      <trkpt lat="46.91431" lon="8.67776">
        <ele>1891</ele>
        <time>2021-08-07T08:31:11.608Z</time>
      </trkpt>
      <trkpt lat="46.9143" lon="8.67776">
        <ele>1891</ele>
        <time>2021-08-07T08:31:12.608Z</time>
      </trkpt>
      <trkpt lat="46.9143" lon="8.67777">
        <ele>1891</ele>
        <time>2021-08-07T08:31:13.608Z</time>
      </trkpt>
      <trkpt lat="46.91429" lon="8.67777">
        <ele>1891</ele>
        <time>2021-08-07T08:31:14.608Z</time>
      </trkpt>
      <trkpt lat="46.91428" lon="8.67778">
        <ele>1890</ele>
        <time>2021-08-07T08:31:15.608Z</time>
      </trkpt>
      <trkpt lat="46.91428" lon="8.67779">
        <ele>1889</ele>
        <time>2021-08-07T08:31:16.608Z</time>
      </trkpt>
      <trkpt lat="46.91428" lon="8.6778">
        <ele>1889</ele>
        <time>2021-08-07T08:31:17.608Z</time>
      </trkpt>
      <trkpt lat="46.91427" lon="8.67781">
        <ele>1888</ele>
        <time>2021-08-07T08:31:18.608Z</time>
      </trkpt>
      <trkpt lat="46.91426" lon="8.67782">
        <ele>1888</ele>
        <time>2021-08-07T08:31:19.607Z</time>
      </trkpt>
      <trkpt lat="46.91426" lon="8.67783">
        <ele>1887</ele>
        <time>2021-08-07T08:31:20.608Z</time>
      </trkpt>
      <trkpt lat="46.91425" lon="8.67783">
        <ele>1887</ele>
        <time>2021-08-07T08:31:21.608Z</time>
      </trkpt>
      <trkpt lat="46.91425" lon="8.67784">
        <ele>1888</ele>
        <time>2021-08-07T08:31:22.608Z</time>
      </trkpt>
      <trkpt lat="46.91425" lon="8.67786">
        <ele>1888</ele>
        <time>2021-08-07T08:31:23.608Z</time>
      </trkpt>
      <trkpt lat="46.91424" lon="8.67787">
        <ele>1888</ele>
        <time>2021-08-07T08:31:24.608Z</time>
      </trkpt>
      <trkpt lat="46.91424" lon="8.67787">
        <ele>1887</ele>
        <time>2021-08-07T08:31:25.607Z</time>
      </trkpt>
      <trkpt lat="46.91423" lon="8.67787">
        <ele>1887</ele>
        <time>2021-08-07T08:31:26.608Z</time>
      </trkpt>
      <trkpt lat="46.91423" lon="8.67786">
        <ele>1887</ele>
        <time>2021-08-07T08:31:27.607Z</time>
      </trkpt>
      <trkpt lat="46.91423" lon="8.67785">
        <ele>1887</ele>
        <time>2021-08-07T08:31:28.608Z</time>
      </trkpt>
      <trkpt lat="46.91423" lon="8.67784">
        <ele>1887</ele>
        <time>2021-08-07T08:31:29.608Z</time>
      </trkpt>
      <trkpt lat="46.91423" lon="8.67783">
        <ele>1887</ele>
        <time>2021-08-07T08:31:30.607Z</time>
      </trkpt>
      <trkpt lat="46.91424" lon="8.67782">
        <ele>1887</ele>
        <time>2021-08-07T08:31:31.607Z</time>
      </trkpt>
      <trkpt lat="46.91423" lon="8.67781">
        <ele>1887</ele>
        <time>2021-08-07T08:31:32.608Z</time>
      </trkpt>
      <trkpt lat="46.91424" lon="8.67779">
        <ele>1887</ele>
        <time>2021-08-07T08:31:33.607Z</time>
      </trkpt>
      <trkpt lat="46.91424" lon="8.67778">
        <ele>1887</ele>
        <time>2021-08-07T08:31:34.608Z</time>
      </trkpt>
      <trkpt lat="46.91424" lon="8.67776">
        <ele>1887</ele>
        <time>2021-08-07T08:31:35.607Z</time>
      </trkpt>
      <trkpt lat="46.91424" lon="8.67775">
        <ele>1887</ele>
        <time>2021-08-07T08:31:36.608Z</time>
      </trkpt>
      <trkpt lat="46.91424" lon="8.67774">
        <ele>1887</ele>
        <time>2021-08-07T08:31:37.607Z</time>
      </trkpt>
      <trkpt lat="46.91424" lon="8.67773">
        <ele>1887</ele>
        <time>2021-08-07T08:31:38.608Z</time>
      </trkpt>
      <trkpt lat="46.91424" lon="8.67772">
        <ele>1887</ele>
        <time>2021-08-07T08:31:39.608Z</time>
      </trkpt>
      <trkpt lat="46.91424" lon="8.6777">
        <ele>1886</ele>
        <time>2021-08-07T08:31:40.607Z</time>
      </trkpt>
      <trkpt lat="46.91425" lon="8.67769">
        <ele>1886</ele>
        <time>2021-08-07T08:31:41.607Z</time>
      </trkpt>
      <trkpt lat="46.91425" lon="8.67768">
        <ele>1887</ele>
        <time>2021-08-07T08:31:42.608Z</time>
      </trkpt>
      <trkpt lat="46.91426" lon="8.67766">
        <ele>1887</ele>
        <time>2021-08-07T08:31:43.607Z</time>
      </trkpt>
      <trkpt lat="46.91426" lon="8.67765">
        <ele>1886</ele>
        <time>2021-08-07T08:31:44.608Z</time>
      </trkpt>
      <trkpt lat="46.91426" lon="8.67764">
        <ele>1886</ele>
        <time>2021-08-07T08:31:45.608Z</time>
      </trkpt>
      <trkpt lat="46.91426" lon="8.67763">
        <ele>1887</ele>
        <time>2021-08-07T08:31:46.608Z</time>
      </trkpt>
      <trkpt lat="46.91425" lon="8.67763">
        <ele>1887</ele>
        <time>2021-08-07T08:31:47.607Z</time>
      </trkpt>
      <trkpt lat="46.91425" lon="8.67762">
        <ele>1887</ele>
        <time>2021-08-07T08:31:48.608Z</time>
      </trkpt>
      <trkpt lat="46.91425" lon="8.67762">
        <ele>1886</ele>
        <time>2021-08-07T08:31:49.607Z</time>
      </trkpt>
      <trkpt lat="46.91424" lon="8.67761">
        <ele>1886</ele>
        <time>2021-08-07T08:31:50.608Z</time>
      </trkpt>
      <trkpt lat="46.91424" lon="8.67761">
        <ele>1886</ele>
        <time>2021-08-07T08:31:51.607Z</time>
      </trkpt>
      <trkpt lat="46.91423" lon="8.6776">
        <ele>1886</ele>
        <time>2021-08-07T08:31:52.608Z</time>
      </trkpt>
      <trkpt lat="46.91423" lon="8.6776">
        <ele>1887</ele>
        <time>2021-08-07T08:31:53.608Z</time>
      </trkpt>
      <trkpt lat="46.91422" lon="8.67759">
        <ele>1888</ele>
        <time>2021-08-07T08:31:54.608Z</time>
      </trkpt>
      <trkpt lat="46.91421" lon="8.67758">
        <ele>1888</ele>
        <time>2021-08-07T08:31:55.608Z</time>
      </trkpt>
      <trkpt lat="46.9142" lon="8.67758">
        <ele>1889</ele>
        <time>2021-08-07T08:31:56.607Z</time>
      </trkpt>
      <trkpt lat="46.91419" lon="8.67758">
        <ele>1889</ele>
        <time>2021-08-07T08:31:57.608Z</time>
      </trkpt>
      <trkpt lat="46.91418" lon="8.67758">
        <ele>1890</ele>
        <time>2021-08-07T08:31:58.608Z</time>
      </trkpt>
      <trkpt lat="46.91417" lon="8.67758">
        <ele>1890</ele>
        <time>2021-08-07T08:31:59.608Z</time>
      </trkpt>
      <trkpt lat="46.91417" lon="8.67759">
        <ele>1890</ele>
        <time>2021-08-07T08:32:00.608Z</time>
      </trkpt>
      <trkpt lat="46.91415" lon="8.6776">
        <ele>1890</ele>
        <time>2021-08-07T08:32:01.607Z</time>
      </trkpt>
      <trkpt lat="46.91414" lon="8.67761">
        <ele>1890</ele>
        <time>2021-08-07T08:32:02.607Z</time>
      </trkpt>
      <trkpt lat="46.91413" lon="8.67762">
        <ele>1890</ele>
        <time>2021-08-07T08:32:03.608Z</time>
      </trkpt>
      <trkpt lat="46.91412" lon="8.67762">
        <ele>1890</ele>
        <time>2021-08-07T08:32:04.608Z</time>
      </trkpt>
      <trkpt lat="46.91412" lon="8.67763">
        <ele>1890</ele>
        <time>2021-08-07T08:32:05.608Z</time>
      </trkpt>
      <trkpt lat="46.91411" lon="8.67764">
        <ele>1890</ele>
        <time>2021-08-07T08:32:06.607Z</time>
      </trkpt>
      <trkpt lat="46.9141" lon="8.67764">
        <ele>1890</ele>
        <time>2021-08-07T08:32:07.608Z</time>
      </trkpt>
      <trkpt lat="46.9141" lon="8.67766">
        <ele>1889</ele>
        <time>2021-08-07T08:32:08.607Z</time>
      </trkpt>
      <trkpt lat="46.91409" lon="8.67767">
        <ele>1889</ele>
        <time>2021-08-07T08:32:09.607Z</time>
      </trkpt>
      <trkpt lat="46.91409" lon="8.67768">
        <ele>1888</ele>
        <time>2021-08-07T08:32:10.608Z</time>
      </trkpt>
      <trkpt lat="46.91408" lon="8.67769">
        <ele>1888</ele>
        <time>2021-08-07T08:32:11.608Z</time>
      </trkpt>
      <trkpt lat="46.91407" lon="8.6777">
        <ele>1888</ele>
        <time>2021-08-07T08:32:12.608Z</time>
      </trkpt>
      <trkpt lat="46.91407" lon="8.67771">
        <ele>1887</ele>
        <time>2021-08-07T08:32:13.608Z</time>
      </trkpt>
      <trkpt lat="46.91406" lon="8.67772">
        <ele>1887</ele>
        <time>2021-08-07T08:32:14.608Z</time>
      </trkpt>
      <trkpt lat="46.91405" lon="8.67773">
        <ele>1886</ele>
        <time>2021-08-07T08:32:15.608Z</time>
      </trkpt>
      <trkpt lat="46.91405" lon="8.67774">
        <ele>1886</ele>
        <time>2021-08-07T08:32:16.608Z</time>
      </trkpt>
      <trkpt lat="46.91404" lon="8.67776">
        <ele>1885</ele>
        <time>2021-08-07T08:32:17.607Z</time>
      </trkpt>
      <trkpt lat="46.91403" lon="8.67777">
        <ele>1885</ele>
        <time>2021-08-07T08:32:18.608Z</time>
      </trkpt>
      <trkpt lat="46.91403" lon="8.67779">
        <ele>1885</ele>
        <time>2021-08-07T08:32:19.607Z</time>
      </trkpt>
      <trkpt lat="46.91403" lon="8.6778">
        <ele>1885</ele>
        <time>2021-08-07T08:32:20.607Z</time>
      </trkpt>
      <trkpt lat="46.91402" lon="8.67782">
        <ele>1884</ele>
        <time>2021-08-07T08:32:21.608Z</time>
      </trkpt>
      <trkpt lat="46.91402" lon="8.67783">
        <ele>1884</ele>
        <time>2021-08-07T08:32:22.607Z</time>
      </trkpt>
      <trkpt lat="46.91401" lon="8.67784">
        <ele>1884</ele>
        <time>2021-08-07T08:32:23.608Z</time>
      </trkpt>
      <trkpt lat="46.91401" lon="8.67785">
        <ele>1883</ele>
        <time>2021-08-07T08:32:24.607Z</time>
      </trkpt>
      <trkpt lat="46.914" lon="8.67786">
        <ele>1882</ele>
        <time>2021-08-07T08:32:25.608Z</time>
      </trkpt>
      <trkpt lat="46.91399" lon="8.67786">
        <ele>1882</ele>
        <time>2021-08-07T08:32:26.608Z</time>
      </trkpt>
      <trkpt lat="46.91398" lon="8.67787">
        <ele>1882</ele>
        <time>2021-08-07T08:32:27.608Z</time>
      </trkpt>
      <trkpt lat="46.91397" lon="8.67787">
        <ele>1882</ele>
        <time>2021-08-07T08:32:28.608Z</time>
      </trkpt>
      <trkpt lat="46.91396" lon="8.67788">
        <ele>1882</ele>
        <time>2021-08-07T08:32:29.607Z</time>
      </trkpt>
      <trkpt lat="46.91396" lon="8.67789">
        <ele>1882</ele>
        <time>2021-08-07T08:32:30.608Z</time>
      </trkpt>
      <trkpt lat="46.91395" lon="8.6779">
        <ele>1882</ele>
        <time>2021-08-07T08:32:31.607Z</time>
      </trkpt>
      <trkpt lat="46.91395" lon="8.67791">
        <ele>1881</ele>
        <time>2021-08-07T08:32:32.608Z</time>
      </trkpt>
      <trkpt lat="46.91395" lon="8.67791">
        <ele>1881</ele>
        <time>2021-08-07T08:32:33.608Z</time>
      </trkpt>
      <trkpt lat="46.91395" lon="8.67791">
        <ele>1880</ele>
        <time>2021-08-07T08:32:34.607Z</time>
      </trkpt>
      <trkpt lat="46.91396" lon="8.67791">
        <ele>1879</ele>
        <time>2021-08-07T08:32:35.609Z</time>
      </trkpt>
      <trkpt lat="46.91396" lon="8.67791">
        <ele>1878</ele>
        <time>2021-08-07T08:32:36.609Z</time>
      </trkpt>
      <trkpt lat="46.91396" lon="8.67791">
        <ele>1877</ele>
        <time>2021-08-07T08:32:37.608Z</time>
      </trkpt>
      <trkpt lat="46.91397" lon="8.67791">
        <ele>1876</ele>
        <time>2021-08-07T08:32:38.608Z</time>
      </trkpt>
      <trkpt lat="46.91397" lon="8.67792">
        <ele>1872</ele>
        <time>2021-08-07T08:32:39.609Z</time>
      </trkpt>
      <trkpt lat="46.91396" lon="8.67795">
        <ele>1871</ele>
        <time>2021-08-07T08:32:40.610Z</time>
      </trkpt>
      <trkpt lat="46.91396" lon="8.67795">
        <ele>1871</ele>
        <time>2021-08-07T08:32:41.610Z</time>
      </trkpt>
      <trkpt lat="46.91395" lon="8.67795">
        <ele>1871</ele>
        <time>2021-08-07T08:32:42.609Z</time>
      </trkpt>
      <trkpt lat="46.91395" lon="8.67795">
        <ele>1870</ele>
        <time>2021-08-07T08:32:43.609Z</time>
      </trkpt>
      <trkpt lat="46.91395" lon="8.67795">
        <ele>1870</ele>
        <time>2021-08-07T08:32:44.609Z</time>
      </trkpt>
      <trkpt lat="46.91394" lon="8.67796">
        <ele>1870</ele>
        <time>2021-08-07T08:32:45.610Z</time>
      </trkpt>
      <trkpt lat="46.91394" lon="8.67796">
        <ele>1870</ele>
        <time>2021-08-07T08:32:46.609Z</time>
      </trkpt>
      <trkpt lat="46.91393" lon="8.67796">
        <ele>1870</ele>
        <time>2021-08-07T08:32:47.610Z</time>
      </trkpt>
      <trkpt lat="46.91393" lon="8.67796">
        <ele>1870</ele>
        <time>2021-08-07T08:32:48.610Z</time>
      </trkpt>
      <trkpt lat="46.91393" lon="8.67796">
        <ele>1869</ele>
        <time>2021-08-07T08:32:49.610Z</time>
      </trkpt>
      <trkpt lat="46.91392" lon="8.67796">
        <ele>1869</ele>
        <time>2021-08-07T08:32:50.610Z</time>
      </trkpt>
      <trkpt lat="46.91392" lon="8.67796">
        <ele>1869</ele>
        <time>2021-08-07T08:32:51.609Z</time>
      </trkpt>
      <trkpt lat="46.9139" lon="8.678">
        <ele>1868</ele>
        <time>2021-08-07T08:32:52.611Z</time>
      </trkpt>
      <trkpt lat="46.91389" lon="8.67799">
        <ele>1868</ele>
        <time>2021-08-07T08:32:53.610Z</time>
      </trkpt>
      <trkpt lat="46.91389" lon="8.67799">
        <ele>1869</ele>
        <time>2021-08-07T08:32:54.610Z</time>
      </trkpt>
      <trkpt lat="46.91389" lon="8.67799">
        <ele>1869</ele>
        <time>2021-08-07T08:32:55.611Z</time>
      </trkpt>
      <trkpt lat="46.91388" lon="8.67799">
        <ele>1870</ele>
        <time>2021-08-07T08:32:56.611Z</time>
      </trkpt>
      <trkpt lat="46.91388" lon="8.678">
        <ele>1870</ele>
        <time>2021-08-07T08:32:57.610Z</time>
      </trkpt>
      <trkpt lat="46.91388" lon="8.67801">
        <ele>1871</ele>
        <time>2021-08-07T08:32:58.611Z</time>
      </trkpt>
      <trkpt lat="46.91387" lon="8.67801">
        <ele>1871</ele>
        <time>2021-08-07T08:32:59.611Z</time>
      </trkpt>
      <trkpt lat="46.91387" lon="8.67801">
        <ele>1871</ele>
        <time>2021-08-07T08:33:00.611Z</time>
      </trkpt>
      <trkpt lat="46.91387" lon="8.67801">
        <ele>1872</ele>
        <time>2021-08-07T08:33:01.610Z</time>
      </trkpt>
      <trkpt lat="46.91387" lon="8.67802">
        <ele>1872</ele>
        <time>2021-08-07T08:33:02.610Z</time>
      </trkpt>
      <trkpt lat="46.91388" lon="8.67804">
        <ele>1872</ele>
        <time>2021-08-07T08:33:03.610Z</time>
      </trkpt>
      <trkpt lat="46.91389" lon="8.67804">
        <ele>1872</ele>
        <time>2021-08-07T08:33:04.611Z</time>
      </trkpt>
      <trkpt lat="46.91389" lon="8.67804">
        <ele>1872</ele>
        <time>2021-08-07T08:33:05.611Z</time>
      </trkpt>
      <trkpt lat="46.91389" lon="8.67804">
        <ele>1872</ele>
        <time>2021-08-07T08:33:06.610Z</time>
      </trkpt>
      <trkpt lat="46.91388" lon="8.67802">
        <ele>1873</ele>
        <time>2021-08-07T08:33:07.611Z</time>
      </trkpt>
      <trkpt lat="46.91388" lon="8.67803">
        <ele>1872</ele>
        <time>2021-08-07T08:33:08.611Z</time>
      </trkpt>
      <trkpt lat="46.91389" lon="8.67803">
        <ele>1871</ele>
        <time>2021-08-07T08:33:09.613Z</time>
      </trkpt>
      <trkpt lat="46.91387" lon="8.67802">
        <ele>1867</ele>
        <time>2021-08-07T08:33:10.613Z</time>
      </trkpt>
      <trkpt lat="46.91388" lon="8.67802">
        <ele>1865</ele>
        <time>2021-08-07T08:33:11.612Z</time>
      </trkpt>
      <trkpt lat="46.91387" lon="8.67802">
        <ele>1865</ele>
        <time>2021-08-07T08:33:12.612Z</time>
      </trkpt>
      <trkpt lat="46.91386" lon="8.67804">
        <ele>1866</ele>
        <time>2021-08-07T08:33:13.613Z</time>
      </trkpt>
      <trkpt lat="46.91386" lon="8.67804">
        <ele>1866</ele>
        <time>2021-08-07T08:33:14.613Z</time>
      </trkpt>
      <trkpt lat="46.91387" lon="8.67804">
        <ele>1866</ele>
        <time>2021-08-07T08:33:15.613Z</time>
      </trkpt>
      <trkpt lat="46.91387" lon="8.67804">
        <ele>1866</ele>
        <time>2021-08-07T08:33:16.613Z</time>
      </trkpt>
      <trkpt lat="46.91387" lon="8.67804">
        <ele>1866</ele>
        <time>2021-08-07T08:33:17.612Z</time>
      </trkpt>
      <trkpt lat="46.91386" lon="8.67804">
        <ele>1866</ele>
        <time>2021-08-07T08:33:18.613Z</time>
      </trkpt>
      <trkpt lat="46.91386" lon="8.67804">
        <ele>1866</ele>
        <time>2021-08-07T08:33:19.614Z</time>
      </trkpt>
      <trkpt lat="46.91387" lon="8.67804">
        <ele>1866</ele>
        <time>2021-08-07T08:33:20.614Z</time>
      </trkpt>
      <trkpt lat="46.91387" lon="8.67804">
        <ele>1866</ele>
        <time>2021-08-07T08:33:21.613Z</time>
      </trkpt>
      <trkpt lat="46.91387" lon="8.67804">
        <ele>1866</ele>
        <time>2021-08-07T08:33:22.614Z</time>
      </trkpt>
      <trkpt lat="46.91387" lon="8.67804">
        <ele>1867</ele>
        <time>2021-08-07T08:33:23.614Z</time>
      </trkpt>
      <trkpt lat="46.91387" lon="8.67804">
        <ele>1867</ele>
        <time>2021-08-07T08:33:24.613Z</time>
      </trkpt>
      <trkpt lat="46.91387" lon="8.67804">
        <ele>1867</ele>
        <time>2021-08-07T08:33:25.614Z</time>
      </trkpt>
      <trkpt lat="46.91387" lon="8.67803">
        <ele>1868</ele>
        <time>2021-08-07T08:33:26.613Z</time>
      </trkpt>
      <trkpt lat="46.91386" lon="8.67803">
        <ele>1868</ele>
        <time>2021-08-07T08:33:27.613Z</time>
      </trkpt>
      <trkpt lat="46.91386" lon="8.67803">
        <ele>1868</ele>
        <time>2021-08-07T08:33:28.614Z</time>
      </trkpt>
      <trkpt lat="46.91387" lon="8.67803">
        <ele>1869</ele>
        <time>2021-08-07T08:33:29.613Z</time>
      </trkpt>
      <trkpt lat="46.91388" lon="8.67801">
        <ele>1865</ele>
        <time>2021-08-07T08:33:30.614Z</time>
      </trkpt>
      <trkpt lat="46.9139" lon="8.67799">
        <ele>1868</ele>
        <time>2021-08-07T08:33:31.615Z</time>
      </trkpt>
      <trkpt lat="46.91391" lon="8.67798">
        <ele>1868</ele>
        <time>2021-08-07T08:33:32.615Z</time>
      </trkpt>
      <trkpt lat="46.91391" lon="8.67798">
        <ele>1868</ele>
        <time>2021-08-07T08:33:33.614Z</time>
      </trkpt>
      <trkpt lat="46.91391" lon="8.67798">
        <ele>1868</ele>
        <time>2021-08-07T08:33:34.615Z</time>
      </trkpt>
      <trkpt lat="46.91391" lon="8.67798">
        <ele>1868</ele>
        <time>2021-08-07T08:33:35.614Z</time>
      </trkpt>
      <trkpt lat="46.91391" lon="8.67799">
        <ele>1868</ele>
        <time>2021-08-07T08:33:36.615Z</time>
      </trkpt>
      <trkpt lat="46.91391" lon="8.67799">
        <ele>1867</ele>
        <time>2021-08-07T08:33:37.615Z</time>
      </trkpt>
      <trkpt lat="46.91391" lon="8.678">
        <ele>1867</ele>
        <time>2021-08-07T08:33:38.615Z</time>
      </trkpt>
      <trkpt lat="46.91392" lon="8.678">
        <ele>1867</ele>
        <time>2021-08-07T08:33:39.615Z</time>
      </trkpt>
      <trkpt lat="46.91392" lon="8.67801">
        <ele>1867</ele>
        <time>2021-08-07T08:33:40.615Z</time>
      </trkpt>
      <trkpt lat="46.91393" lon="8.678">
        <ele>1868</ele>
        <time>2021-08-07T08:33:41.616Z</time>
      </trkpt>
      <trkpt lat="46.91393" lon="8.678">
        <ele>1869</ele>
        <time>2021-08-07T08:33:42.616Z</time>
      </trkpt>
      <trkpt lat="46.91393" lon="8.678">
        <ele>1870</ele>
        <time>2021-08-07T08:33:43.615Z</time>
      </trkpt>
      <trkpt lat="46.91393" lon="8.678">
        <ele>1871</ele>
        <time>2021-08-07T08:33:44.615Z</time>
      </trkpt>
      <trkpt lat="46.91393" lon="8.678">
        <ele>1872</ele>
        <time>2021-08-07T08:33:45.616Z</time>
      </trkpt>
      <trkpt lat="46.91395" lon="8.678">
        <ele>1872</ele>
        <time>2021-08-07T08:33:46.616Z</time>
      </trkpt>
      <trkpt lat="46.91398" lon="8.67799">
        <ele>1873</ele>
        <time>2021-08-07T08:33:47.616Z</time>
      </trkpt>
      <trkpt lat="46.91398" lon="8.67798">
        <ele>1874</ele>
        <time>2021-08-07T08:33:48.616Z</time>
      </trkpt>
      <trkpt lat="46.91397" lon="8.67797">
        <ele>1874</ele>
        <time>2021-08-07T08:33:49.615Z</time>
      </trkpt>
      <trkpt lat="46.91396" lon="8.67797">
        <ele>1875</ele>
        <time>2021-08-07T08:33:50.615Z</time>
      </trkpt>
      <trkpt lat="46.91396" lon="8.67797">
        <ele>1875</ele>
        <time>2021-08-07T08:33:51.616Z</time>
      </trkpt>
      <trkpt lat="46.91396" lon="8.67796">
        <ele>1875</ele>
        <time>2021-08-07T08:33:52.616Z</time>
      </trkpt>
      <trkpt lat="46.91395" lon="8.67795">
        <ele>1873</ele>
        <time>2021-08-07T08:33:53.616Z</time>
      </trkpt>
      <trkpt lat="46.91395" lon="8.67795">
        <ele>1873</ele>
        <time>2021-08-07T08:33:54.615Z</time>
      </trkpt>
      <trkpt lat="46.91395" lon="8.67796">
        <ele>1873</ele>
        <time>2021-08-07T08:33:55.615Z</time>
      </trkpt>
      <trkpt lat="46.91395" lon="8.67797">
        <ele>1870</ele>
        <time>2021-08-07T08:33:56.617Z</time>
      </trkpt>
      <trkpt lat="46.91393" lon="8.67796">
        <ele>1868</ele>
        <time>2021-08-07T08:33:57.618Z</time>
      </trkpt>
      <trkpt lat="46.91393" lon="8.67795">
        <ele>1869</ele>
        <time>2021-08-07T08:33:58.618Z</time>
      </trkpt>
      <trkpt lat="46.91392" lon="8.67795">
        <ele>1869</ele>
        <time>2021-08-07T08:33:59.617Z</time>
      </trkpt>
      <trkpt lat="46.91391" lon="8.67795">
        <ele>1870</ele>
        <time>2021-08-07T08:34:00.617Z</time>
      </trkpt>
      <trkpt lat="46.91391" lon="8.67796">
        <ele>1870</ele>
        <time>2021-08-07T08:34:01.618Z</time>
      </trkpt>
      <trkpt lat="46.9139" lon="8.67797">
        <ele>1871</ele>
        <time>2021-08-07T08:34:02.618Z</time>
      </trkpt>
      <trkpt lat="46.9139" lon="8.67798">
        <ele>1871</ele>
        <time>2021-08-07T08:34:03.618Z</time>
      </trkpt>
      <trkpt lat="46.91389" lon="8.67798">
        <ele>1871</ele>
        <time>2021-08-07T08:34:04.618Z</time>
      </trkpt>
      <trkpt lat="46.91389" lon="8.67799">
        <ele>1872</ele>
        <time>2021-08-07T08:34:05.618Z</time>
      </trkpt>
      <trkpt lat="46.91389" lon="8.67799">
        <ele>1872</ele>
        <time>2021-08-07T08:34:06.618Z</time>
      </trkpt>
      <trkpt lat="46.91389" lon="8.67797">
        <ele>1873</ele>
        <time>2021-08-07T08:34:07.619Z</time>
      </trkpt>
      <trkpt lat="46.91389" lon="8.67797">
        <ele>1873</ele>
        <time>2021-08-07T08:34:08.619Z</time>
      </trkpt>
      <trkpt lat="46.91388" lon="8.67796">
        <ele>1878</ele>
        <time>2021-08-07T08:34:09.618Z</time>
      </trkpt>
      <trkpt lat="46.91387" lon="8.67797">
        <ele>1878</ele>
        <time>2021-08-07T08:34:10.619Z</time>
      </trkpt>
      <trkpt lat="46.91387" lon="8.67798">
        <ele>1878</ele>
        <time>2021-08-07T08:34:11.618Z</time>
      </trkpt>
      <trkpt lat="46.91386" lon="8.67798">
        <ele>1878</ele>
        <time>2021-08-07T08:34:12.619Z</time>
      </trkpt>
      <trkpt lat="46.91385" lon="8.67798">
        <ele>1878</ele>
        <time>2021-08-07T08:34:13.619Z</time>
      </trkpt>
      <trkpt lat="46.91385" lon="8.67798">
        <ele>1878</ele>
        <time>2021-08-07T08:34:14.618Z</time>
      </trkpt>
      <trkpt lat="46.91384" lon="8.67799">
        <ele>1877</ele>
        <time>2021-08-07T08:34:15.618Z</time>
      </trkpt>
      <trkpt lat="46.91383" lon="8.67801">
        <ele>1877</ele>
        <time>2021-08-07T08:34:16.619Z</time>
      </trkpt>
      <trkpt lat="46.91382" lon="8.67802">
        <ele>1876</ele>
        <time>2021-08-07T08:34:17.619Z</time>
      </trkpt>
      <trkpt lat="46.91382" lon="8.67803">
        <ele>1875</ele>
        <time>2021-08-07T08:34:18.618Z</time>
      </trkpt>
      <trkpt lat="46.91382" lon="8.67805">
        <ele>1874</ele>
        <time>2021-08-07T08:34:19.619Z</time>
      </trkpt>
      <trkpt lat="46.91381" lon="8.67805">
        <ele>1873</ele>
        <time>2021-08-07T08:34:20.619Z</time>
      </trkpt>
      <trkpt lat="46.91381" lon="8.67806">
        <ele>1873</ele>
        <time>2021-08-07T08:34:21.619Z</time>
      </trkpt>
      <trkpt lat="46.9138" lon="8.67806">
        <ele>1873</ele>
        <time>2021-08-07T08:34:22.618Z</time>
      </trkpt>
      <trkpt lat="46.9138" lon="8.67807">
        <ele>1873</ele>
        <time>2021-08-07T08:34:23.619Z</time>
      </trkpt>
      <trkpt lat="46.9138" lon="8.67808">
        <ele>1873</ele>
        <time>2021-08-07T08:34:24.619Z</time>
      </trkpt>
      <trkpt lat="46.9138" lon="8.67808">
        <ele>1872</ele>
        <time>2021-08-07T08:34:25.619Z</time>
      </trkpt>
      <trkpt lat="46.91378" lon="8.67809">
        <ele>1869</ele>
        <time>2021-08-07T08:34:26.619Z</time>
      </trkpt>
      <trkpt lat="46.91378" lon="8.6781">
        <ele>1869</ele>
        <time>2021-08-07T08:34:27.619Z</time>
      </trkpt>
      <trkpt lat="46.91377" lon="8.67811">
        <ele>1868</ele>
        <time>2021-08-07T08:34:28.618Z</time>
      </trkpt>
      <trkpt lat="46.91377" lon="8.67811">
        <ele>1867</ele>
        <time>2021-08-07T08:34:29.619Z</time>
      </trkpt>
      <trkpt lat="46.91377" lon="8.67811">
        <ele>1866</ele>
        <time>2021-08-07T08:34:30.618Z</time>
      </trkpt>
      <trkpt lat="46.91376" lon="8.6781">
        <ele>1864</ele>
        <time>2021-08-07T08:34:31.619Z</time>
      </trkpt>
      <trkpt lat="46.91375" lon="8.67811">
        <ele>1864</ele>
        <time>2021-08-07T08:34:32.619Z</time>
      </trkpt>
      <trkpt lat="46.91373" lon="8.67816">
        <ele>1870</ele>
        <time>2021-08-07T08:34:33.619Z</time>
      </trkpt>
      <trkpt lat="46.91373" lon="8.67815">
        <ele>1870</ele>
        <time>2021-08-07T08:34:34.619Z</time>
      </trkpt>
      <trkpt lat="46.91373" lon="8.67814">
        <ele>1871</ele>
        <time>2021-08-07T08:34:35.618Z</time>
      </trkpt>
      <trkpt lat="46.91372" lon="8.67814">
        <ele>1871</ele>
        <time>2021-08-07T08:34:36.619Z</time>
      </trkpt>
      <trkpt lat="46.91372" lon="8.67814">
        <ele>1871</ele>
        <time>2021-08-07T08:34:37.619Z</time>
      </trkpt>
      <trkpt lat="46.91371" lon="8.67813">
        <ele>1872</ele>
        <time>2021-08-07T08:34:38.619Z</time>
      </trkpt>
      <trkpt lat="46.91371" lon="8.67813">
        <ele>1872</ele>
        <time>2021-08-07T08:34:39.619Z</time>
      </trkpt>
      <trkpt lat="46.9137" lon="8.67813">
        <ele>1873</ele>
        <time>2021-08-07T08:34:40.618Z</time>
      </trkpt>
      <trkpt lat="46.9137" lon="8.67812">
        <ele>1874</ele>
        <time>2021-08-07T08:34:41.619Z</time>
      </trkpt>
      <trkpt lat="46.91369" lon="8.67813">
        <ele>1874</ele>
        <time>2021-08-07T08:34:42.619Z</time>
      </trkpt>
      <trkpt lat="46.91369" lon="8.67813">
        <ele>1874</ele>
        <time>2021-08-07T08:34:43.619Z</time>
      </trkpt>
      <trkpt lat="46.91369" lon="8.67814">
        <ele>1874</ele>
        <time>2021-08-07T08:34:44.619Z</time>
      </trkpt>
      <trkpt lat="46.9137" lon="8.67816">
        <ele>1873</ele>
        <time>2021-08-07T08:34:45.619Z</time>
      </trkpt>
      <trkpt lat="46.9137" lon="8.67818">
        <ele>1870</ele>
        <time>2021-08-07T08:34:46.618Z</time>
      </trkpt>
      <trkpt lat="46.9137" lon="8.67818">
        <ele>1868</ele>
        <time>2021-08-07T08:34:47.618Z</time>
      </trkpt>
      <trkpt lat="46.9137" lon="8.67818">
        <ele>1867</ele>
        <time>2021-08-07T08:34:48.618Z</time>
      </trkpt>
      <trkpt lat="46.9137" lon="8.67818">
        <ele>1866</ele>
        <time>2021-08-07T08:34:49.619Z</time>
      </trkpt>
      <trkpt lat="46.9137" lon="8.67819">
        <ele>1866</ele>
        <time>2021-08-07T08:34:50.618Z</time>
      </trkpt>
      <trkpt lat="46.91373" lon="8.67823">
        <ele>1862</ele>
        <time>2021-08-07T08:34:51.618Z</time>
      </trkpt>
      <trkpt lat="46.91372" lon="8.67823">
        <ele>1862</ele>
        <time>2021-08-07T08:34:52.619Z</time>
      </trkpt>
      <trkpt lat="46.91372" lon="8.67823">
        <ele>1862</ele>
        <time>2021-08-07T08:34:53.618Z</time>
      </trkpt>
      <trkpt lat="46.91371" lon="8.67824">
        <ele>1861</ele>
        <time>2021-08-07T08:34:54.619Z</time>
      </trkpt>
      <trkpt lat="46.9137" lon="8.67824">
        <ele>1861</ele>
        <time>2021-08-07T08:34:55.619Z</time>
      </trkpt>
      <trkpt lat="46.9137" lon="8.67824">
        <ele>1861</ele>
        <time>2021-08-07T08:34:56.619Z</time>
      </trkpt>
      <trkpt lat="46.91368" lon="8.67825">
        <ele>1859</ele>
        <time>2021-08-07T08:34:57.619Z</time>
      </trkpt>
      <trkpt lat="46.91368" lon="8.67825">
        <ele>1859</ele>
        <time>2021-08-07T08:34:58.620Z</time>
      </trkpt>
      <trkpt lat="46.91367" lon="8.67826">
        <ele>1859</ele>
        <time>2021-08-07T08:34:59.620Z</time>
      </trkpt>
      <trkpt lat="46.91367" lon="8.67827">
        <ele>1859</ele>
        <time>2021-08-07T08:35:00.620Z</time>
      </trkpt>
      <trkpt lat="46.91367" lon="8.67828">
        <ele>1859</ele>
        <time>2021-08-07T08:35:01.620Z</time>
      </trkpt>
      <trkpt lat="46.91367" lon="8.67829">
        <ele>1859</ele>
        <time>2021-08-07T08:35:02.620Z</time>
      </trkpt>
      <trkpt lat="46.91365" lon="8.67828">
        <ele>1857</ele>
        <time>2021-08-07T08:35:03.619Z</time>
      </trkpt>
      <trkpt lat="46.91364" lon="8.67827">
        <ele>1856</ele>
        <time>2021-08-07T08:35:04.620Z</time>
      </trkpt>
      <trkpt lat="46.91364" lon="8.67827">
        <ele>1856</ele>
        <time>2021-08-07T08:35:05.619Z</time>
      </trkpt>
      <trkpt lat="46.91364" lon="8.67827">
        <ele>1856</ele>
        <time>2021-08-07T08:35:06.619Z</time>
      </trkpt>
      <trkpt lat="46.91365" lon="8.67825">
        <ele>1856</ele>
        <time>2021-08-07T08:35:07.619Z</time>
      </trkpt>
      <trkpt lat="46.91365" lon="8.67824">
        <ele>1856</ele>
        <time>2021-08-07T08:35:08.619Z</time>
      </trkpt>
      <trkpt lat="46.91366" lon="8.67824">
        <ele>1856</ele>
        <time>2021-08-07T08:35:09.619Z</time>
      </trkpt>
      <trkpt lat="46.91366" lon="8.67823">
        <ele>1857</ele>
        <time>2021-08-07T08:35:10.619Z</time>
      </trkpt>
      <trkpt lat="46.91367" lon="8.67823">
        <ele>1857</ele>
        <time>2021-08-07T08:35:11.619Z</time>
      </trkpt>
      <trkpt lat="46.91367" lon="8.67823">
        <ele>1858</ele>
        <time>2021-08-07T08:35:12.619Z</time>
      </trkpt>
      <trkpt lat="46.91367" lon="8.67823">
        <ele>1858</ele>
        <time>2021-08-07T08:35:13.619Z</time>
      </trkpt>
      <trkpt lat="46.91367" lon="8.67825">
        <ele>1859</ele>
        <time>2021-08-07T08:35:14.621Z</time>
      </trkpt>
      <trkpt lat="46.91367" lon="8.67825">
        <ele>1859</ele>
        <time>2021-08-07T08:35:15.620Z</time>
      </trkpt>
      <trkpt lat="46.91367" lon="8.67826">
        <ele>1859</ele>
        <time>2021-08-07T08:35:16.622Z</time>
      </trkpt>
      <trkpt lat="46.91367" lon="8.67826">
        <ele>1860</ele>
        <time>2021-08-07T08:35:17.621Z</time>
      </trkpt>
      <trkpt lat="46.91367" lon="8.67826">
        <ele>1860</ele>
        <time>2021-08-07T08:35:18.621Z</time>
      </trkpt>
      <trkpt lat="46.91366" lon="8.67826">
        <ele>1861</ele>
        <time>2021-08-07T08:35:19.622Z</time>
      </trkpt>
      <trkpt lat="46.91364" lon="8.67828">
        <ele>1862</ele>
        <time>2021-08-07T08:35:20.622Z</time>
      </trkpt>
      <trkpt lat="46.91363" lon="8.67831">
        <ele>1863</ele>
        <time>2021-08-07T08:35:21.622Z</time>
      </trkpt>
      <trkpt lat="46.91362" lon="8.67833">
        <ele>1864</ele>
        <time>2021-08-07T08:35:22.622Z</time>
      </trkpt>
      <trkpt lat="46.91361" lon="8.67834">
        <ele>1865</ele>
        <time>2021-08-07T08:35:23.621Z</time>
      </trkpt>
      <trkpt lat="46.91361" lon="8.67834">
        <ele>1866</ele>
        <time>2021-08-07T08:35:24.622Z</time>
      </trkpt>
      <trkpt lat="46.91361" lon="8.67833">
        <ele>1866</ele>
        <time>2021-08-07T08:35:25.621Z</time>
      </trkpt>
      <trkpt lat="46.91361" lon="8.67835">
        <ele>1871</ele>
        <time>2021-08-07T08:35:26.622Z</time>
      </trkpt>
      <trkpt lat="46.91361" lon="8.67834">
        <ele>1870</ele>
        <time>2021-08-07T08:35:27.622Z</time>
      </trkpt>
      <trkpt lat="46.9136" lon="8.67834">
        <ele>1869</ele>
        <time>2021-08-07T08:35:28.621Z</time>
      </trkpt>
      <trkpt lat="46.9136" lon="8.67834">
        <ele>1868</ele>
        <time>2021-08-07T08:35:29.622Z</time>
      </trkpt>
      <trkpt lat="46.9136" lon="8.67834">
        <ele>1867</ele>
        <time>2021-08-07T08:35:30.622Z</time>
      </trkpt>
      <trkpt lat="46.91359" lon="8.67835">
        <ele>1866</ele>
        <time>2021-08-07T08:35:31.622Z</time>
      </trkpt>
      <trkpt lat="46.91359" lon="8.67835">
        <ele>1866</ele>
        <time>2021-08-07T08:35:32.621Z</time>
      </trkpt>
      <trkpt lat="46.9136" lon="8.67836">
        <ele>1865</ele>
        <time>2021-08-07T08:35:33.622Z</time>
      </trkpt>
      <trkpt lat="46.9136" lon="8.67836">
        <ele>1865</ele>
        <time>2021-08-07T08:35:34.622Z</time>
      </trkpt>
      <trkpt lat="46.91359" lon="8.67835">
        <ele>1865</ele>
        <time>2021-08-07T08:35:35.621Z</time>
      </trkpt>
      <trkpt lat="46.91363" lon="8.67834">
        <ele>1866</ele>
        <time>2021-08-07T08:35:36.622Z</time>
      </trkpt>
      <trkpt lat="46.91362" lon="8.67833">
        <ele>1866</ele>
        <time>2021-08-07T08:35:37.622Z</time>
      </trkpt>
      <trkpt lat="46.91361" lon="8.67831">
        <ele>1866</ele>
        <time>2021-08-07T08:35:38.621Z</time>
      </trkpt>
      <trkpt lat="46.9136" lon="8.67831">
        <ele>1866</ele>
        <time>2021-08-07T08:35:39.622Z</time>
      </trkpt>
      <trkpt lat="46.91359" lon="8.67831">
        <ele>1866</ele>
        <time>2021-08-07T08:35:40.622Z</time>
      </trkpt>
      <trkpt lat="46.91359" lon="8.6783">
        <ele>1867</ele>
        <time>2021-08-07T08:35:41.622Z</time>
      </trkpt>
      <trkpt lat="46.91359" lon="8.6783">
        <ele>1867</ele>
        <time>2021-08-07T08:35:42.621Z</time>
      </trkpt>
      <trkpt lat="46.91359" lon="8.6783">
        <ele>1867</ele>
        <time>2021-08-07T08:35:43.622Z</time>
      </trkpt>
      <trkpt lat="46.91359" lon="8.67829">
        <ele>1868</ele>
        <time>2021-08-07T08:35:44.622Z</time>
      </trkpt>
      <trkpt lat="46.91359" lon="8.67828">
        <ele>1868</ele>
        <time>2021-08-07T08:35:45.622Z</time>
      </trkpt>
      <trkpt lat="46.91358" lon="8.67827">
        <ele>1869</ele>
        <time>2021-08-07T08:35:46.622Z</time>
      </trkpt>
      <trkpt lat="46.91358" lon="8.67826">
        <ele>1869</ele>
        <time>2021-08-07T08:35:47.622Z</time>
      </trkpt>
      <trkpt lat="46.91358" lon="8.67825">
        <ele>1870</ele>
        <time>2021-08-07T08:35:48.621Z</time>
      </trkpt>
      <trkpt lat="46.91358" lon="8.67825">
        <ele>1870</ele>
        <time>2021-08-07T08:35:49.622Z</time>
      </trkpt>
      <trkpt lat="46.91358" lon="8.67826">
        <ele>1870</ele>
        <time>2021-08-07T08:35:50.622Z</time>
      </trkpt>
      <trkpt lat="46.91357" lon="8.67826">
        <ele>1870</ele>
        <time>2021-08-07T08:35:51.621Z</time>
      </trkpt>
      <trkpt lat="46.91357" lon="8.67826">
        <ele>1870</ele>
        <time>2021-08-07T08:35:52.622Z</time>
      </trkpt>
      <trkpt lat="46.91357" lon="8.67825">
        <ele>1871</ele>
        <time>2021-08-07T08:35:53.624Z</time>
      </trkpt>
      <trkpt lat="46.91356" lon="8.67825">
        <ele>1872</ele>
        <time>2021-08-07T08:35:54.624Z</time>
      </trkpt>
      <trkpt lat="46.91356" lon="8.67823">
        <ele>1873</ele>
        <time>2021-08-07T08:35:55.624Z</time>
      </trkpt>
      <trkpt lat="46.91356" lon="8.67823">
        <ele>1872</ele>
        <time>2021-08-07T08:35:56.624Z</time>
      </trkpt>
      <trkpt lat="46.91357" lon="8.67831">
        <ele>1865</ele>
        <time>2021-08-07T08:35:57.624Z</time>
      </trkpt>
      <trkpt lat="46.91358" lon="8.6783">
        <ele>1864</ele>
        <time>2021-08-07T08:35:58.624Z</time>
      </trkpt>
      <trkpt lat="46.91358" lon="8.6783">
        <ele>1863</ele>
        <time>2021-08-07T08:35:59.624Z</time>
      </trkpt>
      <trkpt lat="46.91358" lon="8.67829">
        <ele>1862</ele>
        <time>2021-08-07T08:36:00.624Z</time>
      </trkpt>
      <trkpt lat="46.91358" lon="8.67829">
        <ele>1861</ele>
        <time>2021-08-07T08:36:01.624Z</time>
      </trkpt>
      <trkpt lat="46.91357" lon="8.67828">
        <ele>1861</ele>
        <time>2021-08-07T08:36:02.624Z</time>
      </trkpt>
      <trkpt lat="46.91356" lon="8.67829">
        <ele>1860</ele>
        <time>2021-08-07T08:36:03.624Z</time>
      </trkpt>
      <trkpt lat="46.91356" lon="8.67829">
        <ele>1860</ele>
        <time>2021-08-07T08:36:04.624Z</time>
      </trkpt>
      <trkpt lat="46.91356" lon="8.6783">
        <ele>1859</ele>
        <time>2021-08-07T08:36:05.624Z</time>
      </trkpt>
      <trkpt lat="46.91355" lon="8.67831">
        <ele>1859</ele>
        <time>2021-08-07T08:36:06.624Z</time>
      </trkpt>
      <trkpt lat="46.91354" lon="8.67831">
        <ele>1859</ele>
        <time>2021-08-07T08:36:07.624Z</time>
      </trkpt>
      <trkpt lat="46.91354" lon="8.6783">
        <ele>1860</ele>
        <time>2021-08-07T08:36:08.624Z</time>
      </trkpt>
      <trkpt lat="46.91354" lon="8.6783">
        <ele>1861</ele>
        <time>2021-08-07T08:36:09.625Z</time>
      </trkpt>
      <trkpt lat="46.91353" lon="8.67829">
        <ele>1862</ele>
        <time>2021-08-07T08:36:10.625Z</time>
      </trkpt>
      <trkpt lat="46.91352" lon="8.67829">
        <ele>1863</ele>
        <time>2021-08-07T08:36:11.625Z</time>
      </trkpt>
      <trkpt lat="46.91352" lon="8.6783">
        <ele>1863</ele>
        <time>2021-08-07T08:36:12.625Z</time>
      </trkpt>
      <trkpt lat="46.91353" lon="8.67831">
        <ele>1863</ele>
        <time>2021-08-07T08:36:13.624Z</time>
      </trkpt>
      <trkpt lat="46.91353" lon="8.67832">
        <ele>1863</ele>
        <time>2021-08-07T08:36:14.624Z</time>
      </trkpt>
      <trkpt lat="46.91352" lon="8.67833">
        <ele>1862</ele>
        <time>2021-08-07T08:36:15.625Z</time>
      </trkpt>
      <trkpt lat="46.91352" lon="8.67834">
        <ele>1861</ele>
        <time>2021-08-07T08:36:16.625Z</time>
      </trkpt>
      <trkpt lat="46.91351" lon="8.67834">
        <ele>1860</ele>
        <time>2021-08-07T08:36:17.624Z</time>
      </trkpt>
      <trkpt lat="46.91351" lon="8.67834">
        <ele>1860</ele>
        <time>2021-08-07T08:36:18.625Z</time>
      </trkpt>
      <trkpt lat="46.9135" lon="8.67835">
        <ele>1859</ele>
        <time>2021-08-07T08:36:19.624Z</time>
      </trkpt>
      <trkpt lat="46.9135" lon="8.67835">
        <ele>1859</ele>
        <time>2021-08-07T08:36:20.625Z</time>
      </trkpt>
      <trkpt lat="46.9135" lon="8.67835">
        <ele>1859</ele>
        <time>2021-08-07T08:36:21.625Z</time>
      </trkpt>
      <trkpt lat="46.91349" lon="8.67835">
        <ele>1859</ele>
        <time>2021-08-07T08:36:22.624Z</time>
      </trkpt>
      <trkpt lat="46.91349" lon="8.67836">
        <ele>1859</ele>
        <time>2021-08-07T08:36:23.625Z</time>
      </trkpt>
      <trkpt lat="46.91349" lon="8.67837">
        <ele>1859</ele>
        <time>2021-08-07T08:36:24.624Z</time>
      </trkpt>
      <trkpt lat="46.91351" lon="8.67836">
        <ele>1857</ele>
        <time>2021-08-07T08:36:25.626Z</time>
      </trkpt>
      <trkpt lat="46.91351" lon="8.67836">
        <ele>1857</ele>
        <time>2021-08-07T08:36:26.626Z</time>
      </trkpt>
      <trkpt lat="46.9135" lon="8.67836">
        <ele>1856</ele>
        <time>2021-08-07T08:36:27.626Z</time>
      </trkpt>
      <trkpt lat="46.9135" lon="8.67836">
        <ele>1856</ele>
        <time>2021-08-07T08:36:28.626Z</time>
      </trkpt>
      <trkpt lat="46.9135" lon="8.67836">
        <ele>1856</ele>
        <time>2021-08-07T08:36:29.625Z</time>
      </trkpt>
      <trkpt lat="46.91349" lon="8.67836">
        <ele>1856</ele>
        <time>2021-08-07T08:36:30.626Z</time>
      </trkpt>
      <trkpt lat="46.91349" lon="8.67837">
        <ele>1855</ele>
        <time>2021-08-07T08:36:31.626Z</time>
      </trkpt>
      <trkpt lat="46.91348" lon="8.67837">
        <ele>1855</ele>
        <time>2021-08-07T08:36:32.626Z</time>
      </trkpt>
      <trkpt lat="46.91348" lon="8.67838">
        <ele>1854</ele>
        <time>2021-08-07T08:36:33.626Z</time>
      </trkpt>
      <trkpt lat="46.91347" lon="8.6784">
        <ele>1854</ele>
        <time>2021-08-07T08:36:34.626Z</time>
      </trkpt>
      <trkpt lat="46.91346" lon="8.67841">
        <ele>1853</ele>
        <time>2021-08-07T08:36:35.626Z</time>
      </trkpt>
      <trkpt lat="46.91346" lon="8.67842">
        <ele>1852</ele>
        <time>2021-08-07T08:36:36.626Z</time>
      </trkpt>
      <trkpt lat="46.91345" lon="8.67843">
        <ele>1852</ele>
        <time>2021-08-07T08:36:37.626Z</time>
      </trkpt>
      <trkpt lat="46.91345" lon="8.67845">
        <ele>1851</ele>
        <time>2021-08-07T08:36:38.625Z</time>
      </trkpt>
      <trkpt lat="46.91344" lon="8.67846">
        <ele>1850</ele>
        <time>2021-08-07T08:36:39.625Z</time>
      </trkpt>
      <trkpt lat="46.91344" lon="8.67847">
        <ele>1850</ele>
        <time>2021-08-07T08:36:40.626Z</time>
      </trkpt>
      <trkpt lat="46.91343" lon="8.67847">
        <ele>1849</ele>
        <time>2021-08-07T08:36:41.626Z</time>
      </trkpt>
      <trkpt lat="46.91343" lon="8.67848">
        <ele>1849</ele>
        <time>2021-08-07T08:36:42.626Z</time>
      </trkpt>
      <trkpt lat="46.91342" lon="8.67848">
        <ele>1848</ele>
        <time>2021-08-07T08:36:43.626Z</time>
      </trkpt>
      <trkpt lat="46.91342" lon="8.67849">
        <ele>1848</ele>
        <time>2021-08-07T08:36:44.626Z</time>
      </trkpt>
      <trkpt lat="46.91341" lon="8.6785">
        <ele>1848</ele>
        <time>2021-08-07T08:36:45.625Z</time>
      </trkpt>
      <trkpt lat="46.91341" lon="8.67851">
        <ele>1848</ele>
        <time>2021-08-07T08:36:46.625Z</time>
      </trkpt>
      <trkpt lat="46.9134" lon="8.67851">
        <ele>1849</ele>
        <time>2021-08-07T08:36:47.626Z</time>
      </trkpt>
      <trkpt lat="46.91339" lon="8.67852">
        <ele>1849</ele>
        <time>2021-08-07T08:36:48.626Z</time>
      </trkpt>
      <trkpt lat="46.91338" lon="8.67852">
        <ele>1849</ele>
        <time>2021-08-07T08:36:49.625Z</time>
      </trkpt>
      <trkpt lat="46.91337" lon="8.67853">
        <ele>1850</ele>
        <time>2021-08-07T08:36:50.625Z</time>
      </trkpt>
      <trkpt lat="46.91336" lon="8.67853">
        <ele>1851</ele>
        <time>2021-08-07T08:36:51.626Z</time>
      </trkpt>
      <trkpt lat="46.91335" lon="8.67854">
        <ele>1851</ele>
        <time>2021-08-07T08:36:52.625Z</time>
      </trkpt>
      <trkpt lat="46.91334" lon="8.67855">
        <ele>1851</ele>
        <time>2021-08-07T08:36:53.625Z</time>
      </trkpt>
      <trkpt lat="46.91333" lon="8.67855">
        <ele>1851</ele>
        <time>2021-08-07T08:36:54.626Z</time>
      </trkpt>
      <trkpt lat="46.91333" lon="8.67856">
        <ele>1851</ele>
        <time>2021-08-07T08:36:55.626Z</time>
      </trkpt>
      <trkpt lat="46.91333" lon="8.67856">
        <ele>1850</ele>
        <time>2021-08-07T08:36:56.625Z</time>
      </trkpt>
      <trkpt lat="46.91333" lon="8.67856">
        <ele>1850</ele>
        <time>2021-08-07T08:36:57.626Z</time>
      </trkpt>
      <trkpt lat="46.91333" lon="8.67857">
        <ele>1849</ele>
        <time>2021-08-07T08:36:58.626Z</time>
      </trkpt>
      <trkpt lat="46.91338" lon="8.67856">
        <ele>1848</ele>
        <time>2021-08-07T08:36:59.626Z</time>
      </trkpt>
      <trkpt lat="46.91339" lon="8.67854">
        <ele>1849</ele>
        <time>2021-08-07T08:37:00.625Z</time>
      </trkpt>
      <trkpt lat="46.91336" lon="8.67855">
        <ele>1848</ele>
        <time>2021-08-07T08:37:01.625Z</time>
      </trkpt>
      <trkpt lat="46.91335" lon="8.67856">
        <ele>1848</ele>
        <time>2021-08-07T08:37:02.625Z</time>
      </trkpt>
      <trkpt lat="46.91335" lon="8.67857">
        <ele>1848</ele>
        <time>2021-08-07T08:37:03.625Z</time>
      </trkpt>
      <trkpt lat="46.91334" lon="8.67857">
        <ele>1848</ele>
        <time>2021-08-07T08:37:04.625Z</time>
      </trkpt>
      <trkpt lat="46.91333" lon="8.67857">
        <ele>1848</ele>
        <time>2021-08-07T08:37:05.625Z</time>
      </trkpt>
      <trkpt lat="46.91333" lon="8.67857">
        <ele>1848</ele>
        <time>2021-08-07T08:37:06.625Z</time>
      </trkpt>
      <trkpt lat="46.91332" lon="8.67857">
        <ele>1847</ele>
        <time>2021-08-07T08:37:07.625Z</time>
      </trkpt>
      <trkpt lat="46.91332" lon="8.67858">
        <ele>1847</ele>
        <time>2021-08-07T08:37:08.625Z</time>
      </trkpt>
      <trkpt lat="46.91332" lon="8.67858">
        <ele>1846</ele>
        <time>2021-08-07T08:37:09.625Z</time>
      </trkpt>
      <trkpt lat="46.91332" lon="8.67859">
        <ele>1846</ele>
        <time>2021-08-07T08:37:10.625Z</time>
      </trkpt>
      <trkpt lat="46.91332" lon="8.67859">
        <ele>1845</ele>
        <time>2021-08-07T08:37:11.625Z</time>
      </trkpt>
      <trkpt lat="46.91331" lon="8.67859">
        <ele>1844</ele>
        <time>2021-08-07T08:37:12.625Z</time>
      </trkpt>
      <trkpt lat="46.91331" lon="8.67859">
        <ele>1844</ele>
        <time>2021-08-07T08:37:13.625Z</time>
      </trkpt>
      <trkpt lat="46.9133" lon="8.67859">
        <ele>1844</ele>
        <time>2021-08-07T08:37:14.625Z</time>
      </trkpt>
      <trkpt lat="46.91326" lon="8.67857">
        <ele>1850</ele>
        <time>2021-08-07T08:37:15.626Z</time>
      </trkpt>
      <trkpt lat="46.91326" lon="8.67857">
        <ele>1850</ele>
        <time>2021-08-07T08:37:16.625Z</time>
      </trkpt>
      <trkpt lat="46.91326" lon="8.67856">
        <ele>1849</ele>
        <time>2021-08-07T08:37:17.625Z</time>
      </trkpt>
      <trkpt lat="46.91326" lon="8.67855">
        <ele>1849</ele>
        <time>2021-08-07T08:37:18.626Z</time>
      </trkpt>
      <trkpt lat="46.91326" lon="8.67854">
        <ele>1848</ele>
        <time>2021-08-07T08:37:19.626Z</time>
      </trkpt>
      <trkpt lat="46.91326" lon="8.67854">
        <ele>1847</ele>
        <time>2021-08-07T08:37:20.626Z</time>
      </trkpt>
      <trkpt lat="46.91327" lon="8.67853">
        <ele>1846</ele>
        <time>2021-08-07T08:37:21.626Z</time>
      </trkpt>
      <trkpt lat="46.91328" lon="8.67853">
        <ele>1845</ele>
        <time>2021-08-07T08:37:22.626Z</time>
      </trkpt>
      <trkpt lat="46.9133" lon="8.67852">
        <ele>1842</ele>
        <time>2021-08-07T08:37:23.625Z</time>
      </trkpt>
      <trkpt lat="46.9133" lon="8.6785">
        <ele>1841</ele>
        <time>2021-08-07T08:37:24.626Z</time>
      </trkpt>
      <trkpt lat="46.9133" lon="8.67848">
        <ele>1841</ele>
        <time>2021-08-07T08:37:25.625Z</time>
      </trkpt>
      <trkpt lat="46.9133" lon="8.67847">
        <ele>1840</ele>
        <time>2021-08-07T08:37:26.626Z</time>
      </trkpt>
      <trkpt lat="46.91329" lon="8.67845">
        <ele>1840</ele>
        <time>2021-08-07T08:37:27.626Z</time>
      </trkpt>
      <trkpt lat="46.91329" lon="8.67843">
        <ele>1840</ele>
        <time>2021-08-07T08:37:28.626Z</time>
      </trkpt>
      <trkpt lat="46.91328" lon="8.67842">
        <ele>1840</ele>
        <time>2021-08-07T08:37:29.626Z</time>
      </trkpt>
      <trkpt lat="46.91329" lon="8.67841">
        <ele>1840</ele>
        <time>2021-08-07T08:37:30.626Z</time>
      </trkpt>
      <trkpt lat="46.91329" lon="8.6784">
        <ele>1841</ele>
        <time>2021-08-07T08:37:31.626Z</time>
      </trkpt>
      <trkpt lat="46.9133" lon="8.6784">
        <ele>1841</ele>
        <time>2021-08-07T08:37:32.625Z</time>
      </trkpt>
      <trkpt lat="46.91331" lon="8.67838">
        <ele>1841</ele>
        <time>2021-08-07T08:37:33.626Z</time>
      </trkpt>
      <trkpt lat="46.91332" lon="8.67837">
        <ele>1841</ele>
        <time>2021-08-07T08:37:34.626Z</time>
      </trkpt>
      <trkpt lat="46.91332" lon="8.67835">
        <ele>1841</ele>
        <time>2021-08-07T08:37:35.626Z</time>
      </trkpt>
      <trkpt lat="46.91332" lon="8.67834">
        <ele>1841</ele>
        <time>2021-08-07T08:37:36.626Z</time>
      </trkpt>
      <trkpt lat="46.91333" lon="8.67832">
        <ele>1841</ele>
        <time>2021-08-07T08:37:37.625Z</time>
      </trkpt>
      <trkpt lat="46.91333" lon="8.67831">
        <ele>1841</ele>
        <time>2021-08-07T08:37:38.625Z</time>
      </trkpt>
      <trkpt lat="46.91333" lon="8.6783">
        <ele>1840</ele>
        <time>2021-08-07T08:37:39.626Z</time>
      </trkpt>
      <trkpt lat="46.91332" lon="8.67829">
        <ele>1840</ele>
        <time>2021-08-07T08:37:40.625Z</time>
      </trkpt>
      <trkpt lat="46.91331" lon="8.67829">
        <ele>1840</ele>
        <time>2021-08-07T08:37:41.626Z</time>
      </trkpt>
      <trkpt lat="46.9133" lon="8.67829">
        <ele>1840</ele>
        <time>2021-08-07T08:37:42.626Z</time>
      </trkpt>
      <trkpt lat="46.91329" lon="8.67829">
        <ele>1840</ele>
        <time>2021-08-07T08:37:43.626Z</time>
      </trkpt>
      <trkpt lat="46.91328" lon="8.6783">
        <ele>1840</ele>
        <time>2021-08-07T08:37:44.625Z</time>
      </trkpt>
      <trkpt lat="46.91327" lon="8.67832">
        <ele>1840</ele>
        <time>2021-08-07T08:37:45.625Z</time>
      </trkpt>
      <trkpt lat="46.91326" lon="8.67832">
        <ele>1840</ele>
        <time>2021-08-07T08:37:46.626Z</time>
      </trkpt>
      <trkpt lat="46.91325" lon="8.67832">
        <ele>1840</ele>
        <time>2021-08-07T08:37:47.626Z</time>
      </trkpt>
      <trkpt lat="46.91324" lon="8.67831">
        <ele>1841</ele>
        <time>2021-08-07T08:37:48.626Z</time>
      </trkpt>
      <trkpt lat="46.91324" lon="8.6783">
        <ele>1841</ele>
        <time>2021-08-07T08:37:49.626Z</time>
      </trkpt>
      <trkpt lat="46.91324" lon="8.67829">
        <ele>1841</ele>
        <time>2021-08-07T08:37:50.625Z</time>
      </trkpt>
      <trkpt lat="46.91323" lon="8.67828">
        <ele>1842</ele>
        <time>2021-08-07T08:37:51.626Z</time>
      </trkpt>
      <trkpt lat="46.91321" lon="8.67827">
        <ele>1843</ele>
        <time>2021-08-07T08:37:52.626Z</time>
      </trkpt>
      <trkpt lat="46.9132" lon="8.67826">
        <ele>1843</ele>
        <time>2021-08-07T08:37:53.626Z</time>
      </trkpt>
      <trkpt lat="46.9132" lon="8.67826">
        <ele>1844</ele>
        <time>2021-08-07T08:37:54.626Z</time>
      </trkpt>
      <trkpt lat="46.91319" lon="8.67825">
        <ele>1845</ele>
        <time>2021-08-07T08:37:55.625Z</time>
      </trkpt>
      <trkpt lat="46.91317" lon="8.67825">
        <ele>1846</ele>
        <time>2021-08-07T08:37:56.626Z</time>
      </trkpt>
      <trkpt lat="46.91317" lon="8.67825">
        <ele>1846</ele>
        <time>2021-08-07T08:37:57.625Z</time>
      </trkpt>
      <trkpt lat="46.91317" lon="8.67824">
        <ele>1847</ele>
        <time>2021-08-07T08:37:58.625Z</time>
      </trkpt>
      <trkpt lat="46.91317" lon="8.67824">
        <ele>1847</ele>
        <time>2021-08-07T08:37:59.626Z</time>
      </trkpt>
      <trkpt lat="46.91316" lon="8.67824">
        <ele>1850</ele>
        <time>2021-08-07T08:38:00.627Z</time>
      </trkpt>
      <trkpt lat="46.91318" lon="8.67822">
        <ele>1844</ele>
        <time>2021-08-07T08:38:01.627Z</time>
      </trkpt>
      <trkpt lat="46.91318" lon="8.67821">
        <ele>1843</ele>
        <time>2021-08-07T08:38:02.627Z</time>
      </trkpt>
      <trkpt lat="46.91318" lon="8.6782">
        <ele>1842</ele>
        <time>2021-08-07T08:38:03.626Z</time>
      </trkpt>
      <trkpt lat="46.91318" lon="8.6782">
        <ele>1842</ele>
        <time>2021-08-07T08:38:04.627Z</time>
      </trkpt>
      <trkpt lat="46.91318" lon="8.67819">
        <ele>1842</ele>
        <time>2021-08-07T08:38:05.627Z</time>
      </trkpt>
      <trkpt lat="46.91317" lon="8.67818">
        <ele>1841</ele>
        <time>2021-08-07T08:38:06.627Z</time>
      </trkpt>
      <trkpt lat="46.91317" lon="8.67818">
        <ele>1841</ele>
        <time>2021-08-07T08:38:07.626Z</time>
      </trkpt>
      <trkpt lat="46.91317" lon="8.67817">
        <ele>1841</ele>
        <time>2021-08-07T08:38:08.627Z</time>
      </trkpt>
      <trkpt lat="46.91316" lon="8.67817">
        <ele>1840</ele>
        <time>2021-08-07T08:38:09.627Z</time>
      </trkpt>
      <trkpt lat="46.91315" lon="8.67818">
        <ele>1839</ele>
        <time>2021-08-07T08:38:10.627Z</time>
      </trkpt>
      <trkpt lat="46.91315" lon="8.67818">
        <ele>1837</ele>
        <time>2021-08-07T08:38:11.626Z</time>
      </trkpt>
      <trkpt lat="46.91315" lon="8.67819">
        <ele>1836</ele>
        <time>2021-08-07T08:38:12.627Z</time>
      </trkpt>
      <trkpt lat="46.91314" lon="8.67819">
        <ele>1836</ele>
        <time>2021-08-07T08:38:13.626Z</time>
      </trkpt>
      <trkpt lat="46.91313" lon="8.67819">
        <ele>1835</ele>
        <time>2021-08-07T08:38:14.627Z</time>
      </trkpt>
      <trkpt lat="46.91312" lon="8.67819">
        <ele>1835</ele>
        <time>2021-08-07T08:38:15.627Z</time>
      </trkpt>
      <trkpt lat="46.91311" lon="8.6782">
        <ele>1835</ele>
        <time>2021-08-07T08:38:16.626Z</time>
      </trkpt>
      <trkpt lat="46.9131" lon="8.67821">
        <ele>1835</ele>
        <time>2021-08-07T08:38:17.627Z</time>
      </trkpt>
      <trkpt lat="46.9131" lon="8.67821">
        <ele>1835</ele>
        <time>2021-08-07T08:38:18.627Z</time>
      </trkpt>
      <trkpt lat="46.91309" lon="8.67823">
        <ele>1835</ele>
        <time>2021-08-07T08:38:19.627Z</time>
      </trkpt>
      <trkpt lat="46.91309" lon="8.67824">
        <ele>1835</ele>
        <time>2021-08-07T08:38:20.627Z</time>
      </trkpt>
      <trkpt lat="46.91309" lon="8.67824">
        <ele>1835</ele>
        <time>2021-08-07T08:38:21.627Z</time>
      </trkpt>
      <trkpt lat="46.91308" lon="8.67825">
        <ele>1835</ele>
        <time>2021-08-07T08:38:22.627Z</time>
      </trkpt>
      <trkpt lat="46.91308" lon="8.67826">
        <ele>1835</ele>
        <time>2021-08-07T08:38:23.626Z</time>
      </trkpt>
      <trkpt lat="46.91307" lon="8.67826">
        <ele>1835</ele>
        <time>2021-08-07T08:38:24.627Z</time>
      </trkpt>
      <trkpt lat="46.91306" lon="8.67827">
        <ele>1836</ele>
        <time>2021-08-07T08:38:25.626Z</time>
      </trkpt>
      <trkpt lat="46.91305" lon="8.67827">
        <ele>1836</ele>
        <time>2021-08-07T08:38:26.627Z</time>
      </trkpt>
      <trkpt lat="46.91304" lon="8.67827">
        <ele>1836</ele>
        <time>2021-08-07T08:38:27.627Z</time>
      </trkpt>
      <trkpt lat="46.91304" lon="8.67828">
        <ele>1836</ele>
        <time>2021-08-07T08:38:28.626Z</time>
      </trkpt>
      <trkpt lat="46.91303" lon="8.67828">
        <ele>1836</ele>
        <time>2021-08-07T08:38:29.627Z</time>
      </trkpt>
      <trkpt lat="46.91302" lon="8.67828">
        <ele>1837</ele>
        <time>2021-08-07T08:38:30.626Z</time>
      </trkpt>
      <trkpt lat="46.91301" lon="8.67827">
        <ele>1837</ele>
        <time>2021-08-07T08:38:31.627Z</time>
      </trkpt>
      <trkpt lat="46.913" lon="8.67826">
        <ele>1837</ele>
        <time>2021-08-07T08:38:32.627Z</time>
      </trkpt>
      <trkpt lat="46.91299" lon="8.67827">
        <ele>1837</ele>
        <time>2021-08-07T08:38:33.626Z</time>
      </trkpt>
      <trkpt lat="46.91298" lon="8.67827">
        <ele>1838</ele>
        <time>2021-08-07T08:38:34.627Z</time>
      </trkpt>
      <trkpt lat="46.91297" lon="8.67827">
        <ele>1838</ele>
        <time>2021-08-07T08:38:35.626Z</time>
      </trkpt>
      <trkpt lat="46.91296" lon="8.67828">
        <ele>1838</ele>
        <time>2021-08-07T08:38:36.627Z</time>
      </trkpt>
      <trkpt lat="46.91295" lon="8.67828">
        <ele>1839</ele>
        <time>2021-08-07T08:38:37.627Z</time>
      </trkpt>
      <trkpt lat="46.91294" lon="8.67829">
        <ele>1839</ele>
        <time>2021-08-07T08:38:38.627Z</time>
      </trkpt>
      <trkpt lat="46.91293" lon="8.6783">
        <ele>1839</ele>
        <time>2021-08-07T08:38:39.626Z</time>
      </trkpt>
      <trkpt lat="46.91292" lon="8.67831">
        <ele>1839</ele>
        <time>2021-08-07T08:38:40.627Z</time>
      </trkpt>
      <trkpt lat="46.91291" lon="8.67831">
        <ele>1839</ele>
        <time>2021-08-07T08:38:41.627Z</time>
      </trkpt>
      <trkpt lat="46.9129" lon="8.67831">
        <ele>1840</ele>
        <time>2021-08-07T08:38:42.626Z</time>
      </trkpt>
      <trkpt lat="46.91289" lon="8.6783">
        <ele>1840</ele>
        <time>2021-08-07T08:38:43.627Z</time>
      </trkpt>
      <trkpt lat="46.91289" lon="8.6783">
        <ele>1840</ele>
        <time>2021-08-07T08:38:44.627Z</time>
      </trkpt>
      <trkpt lat="46.91288" lon="8.67829">
        <ele>1840</ele>
        <time>2021-08-07T08:38:45.626Z</time>
      </trkpt>
      <trkpt lat="46.91287" lon="8.67827">
        <ele>1840</ele>
        <time>2021-08-07T08:38:46.627Z</time>
      </trkpt>
      <trkpt lat="46.91287" lon="8.67827">
        <ele>1841</ele>
        <time>2021-08-07T08:38:47.627Z</time>
      </trkpt>
      <trkpt lat="46.91286" lon="8.67827">
        <ele>1841</ele>
        <time>2021-08-07T08:38:48.627Z</time>
      </trkpt>
      <trkpt lat="46.91285" lon="8.67826">
        <ele>1841</ele>
        <time>2021-08-07T08:38:49.626Z</time>
      </trkpt>
      <trkpt lat="46.91285" lon="8.67826">
        <ele>1841</ele>
        <time>2021-08-07T08:38:50.627Z</time>
      </trkpt>
      <trkpt lat="46.91285" lon="8.67825">
        <ele>1841</ele>
        <time>2021-08-07T08:38:51.627Z</time>
      </trkpt>
      <trkpt lat="46.91285" lon="8.67824">
        <ele>1841</ele>
        <time>2021-08-07T08:38:52.627Z</time>
      </trkpt>
      <trkpt lat="46.91284" lon="8.67824">
        <ele>1841</ele>
        <time>2021-08-07T08:38:53.626Z</time>
      </trkpt>
      <trkpt lat="46.91284" lon="8.67824">
        <ele>1841</ele>
        <time>2021-08-07T08:38:54.627Z</time>
      </trkpt>
      <trkpt lat="46.91284" lon="8.67823">
        <ele>1840</ele>
        <time>2021-08-07T08:38:55.626Z</time>
      </trkpt>
      <trkpt lat="46.91283" lon="8.67822">
        <ele>1840</ele>
        <time>2021-08-07T08:38:56.626Z</time>
      </trkpt>
      <trkpt lat="46.91283" lon="8.67821">
        <ele>1840</ele>
        <time>2021-08-07T08:38:57.627Z</time>
      </trkpt>
      <trkpt lat="46.91283" lon="8.67819">
        <ele>1840</ele>
        <time>2021-08-07T08:38:58.627Z</time>
      </trkpt>
      <trkpt lat="46.91281" lon="8.67819">
        <ele>1840</ele>
        <time>2021-08-07T08:38:59.627Z</time>
      </trkpt>
      <trkpt lat="46.9128" lon="8.67819">
        <ele>1840</ele>
        <time>2021-08-07T08:39:00.627Z</time>
      </trkpt>
      <trkpt lat="46.9128" lon="8.6782">
        <ele>1840</ele>
        <time>2021-08-07T08:39:01.627Z</time>
      </trkpt>
      <trkpt lat="46.9128" lon="8.67821">
        <ele>1839</ele>
        <time>2021-08-07T08:39:02.627Z</time>
      </trkpt>
      <trkpt lat="46.91279" lon="8.67821">
        <ele>1839</ele>
        <time>2021-08-07T08:39:03.627Z</time>
      </trkpt>
      <trkpt lat="46.91278" lon="8.67822">
        <ele>1839</ele>
        <time>2021-08-07T08:39:04.627Z</time>
      </trkpt>
      <trkpt lat="46.91277" lon="8.67822">
        <ele>1839</ele>
        <time>2021-08-07T08:39:05.626Z</time>
      </trkpt>
      <trkpt lat="46.91276" lon="8.67821">
        <ele>1838</ele>
        <time>2021-08-07T08:39:06.627Z</time>
      </trkpt>
      <trkpt lat="46.91276" lon="8.67821">
        <ele>1838</ele>
        <time>2021-08-07T08:39:07.627Z</time>
      </trkpt>
      <trkpt lat="46.91275" lon="8.67821">
        <ele>1838</ele>
        <time>2021-08-07T08:39:08.627Z</time>
      </trkpt>
      <trkpt lat="46.91274" lon="8.67821">
        <ele>1838</ele>
        <time>2021-08-07T08:39:09.627Z</time>
      </trkpt>
      <trkpt lat="46.91273" lon="8.67821">
        <ele>1837</ele>
        <time>2021-08-07T08:39:10.627Z</time>
      </trkpt>
      <trkpt lat="46.91272" lon="8.67821">
        <ele>1837</ele>
        <time>2021-08-07T08:39:11.627Z</time>
      </trkpt>
      <trkpt lat="46.91271" lon="8.67822">
        <ele>1836</ele>
        <time>2021-08-07T08:39:12.627Z</time>
      </trkpt>
      <trkpt lat="46.9127" lon="8.67822">
        <ele>1836</ele>
        <time>2021-08-07T08:39:13.627Z</time>
      </trkpt>
      <trkpt lat="46.91269" lon="8.67822">
        <ele>1836</ele>
        <time>2021-08-07T08:39:14.626Z</time>
      </trkpt>
      <trkpt lat="46.91267" lon="8.67822">
        <ele>1835</ele>
        <time>2021-08-07T08:39:15.626Z</time>
      </trkpt>
      <trkpt lat="46.91266" lon="8.67822">
        <ele>1836</ele>
        <time>2021-08-07T08:39:16.627Z</time>
      </trkpt>
      <trkpt lat="46.91265" lon="8.67823">
        <ele>1835</ele>
        <time>2021-08-07T08:39:17.626Z</time>
      </trkpt>
      <trkpt lat="46.91265" lon="8.67824">
        <ele>1835</ele>
        <time>2021-08-07T08:39:18.627Z</time>
      </trkpt>
      <trkpt lat="46.91264" lon="8.67825">
        <ele>1835</ele>
        <time>2021-08-07T08:39:19.627Z</time>
      </trkpt>
      <trkpt lat="46.91263" lon="8.67826">
        <ele>1834</ele>
        <time>2021-08-07T08:39:20.627Z</time>
      </trkpt>
      <trkpt lat="46.91262" lon="8.67827">
        <ele>1834</ele>
        <time>2021-08-07T08:39:21.627Z</time>
      </trkpt>
      <trkpt lat="46.91261" lon="8.67828">
        <ele>1833</ele>
        <time>2021-08-07T08:39:22.626Z</time>
      </trkpt>
      <trkpt lat="46.9126" lon="8.67828">
        <ele>1832</ele>
        <time>2021-08-07T08:39:23.626Z</time>
      </trkpt>
      <trkpt lat="46.91259" lon="8.6783">
        <ele>1831</ele>
        <time>2021-08-07T08:39:24.627Z</time>
      </trkpt>
      <trkpt lat="46.9126" lon="8.67831">
        <ele>1829</ele>
        <time>2021-08-07T08:39:25.627Z</time>
      </trkpt>
      <trkpt lat="46.91259" lon="8.67832">
        <ele>1828</ele>
        <time>2021-08-07T08:39:26.627Z</time>
      </trkpt>
      <trkpt lat="46.91258" lon="8.67832">
        <ele>1827</ele>
        <time>2021-08-07T08:39:27.627Z</time>
      </trkpt>
      <trkpt lat="46.91257" lon="8.67832">
        <ele>1827</ele>
        <time>2021-08-07T08:39:28.626Z</time>
      </trkpt>
      <trkpt lat="46.91257" lon="8.67831">
        <ele>1826</ele>
        <time>2021-08-07T08:39:29.627Z</time>
      </trkpt>
      <trkpt lat="46.91256" lon="8.67831">
        <ele>1826</ele>
        <time>2021-08-07T08:39:30.627Z</time>
      </trkpt>
      <trkpt lat="46.91255" lon="8.67831">
        <ele>1826</ele>
        <time>2021-08-07T08:39:31.627Z</time>
      </trkpt>
      <trkpt lat="46.91254" lon="8.67831">
        <ele>1826</ele>
        <time>2021-08-07T08:39:32.626Z</time>
      </trkpt>
      <trkpt lat="46.91252" lon="8.67831">
        <ele>1826</ele>
        <time>2021-08-07T08:39:33.627Z</time>
      </trkpt>
      <trkpt lat="46.91251" lon="8.67831">
        <ele>1826</ele>
        <time>2021-08-07T08:39:34.627Z</time>
      </trkpt>
      <trkpt lat="46.91249" lon="8.67831">
        <ele>1825</ele>
        <time>2021-08-07T08:39:35.627Z</time>
      </trkpt>
      <trkpt lat="46.91248" lon="8.67831">
        <ele>1824</ele>
        <time>2021-08-07T08:39:36.627Z</time>
      </trkpt>
      <trkpt lat="46.91247" lon="8.67831">
        <ele>1824</ele>
        <time>2021-08-07T08:39:37.627Z</time>
      </trkpt>
      <trkpt lat="46.91245" lon="8.6783">
        <ele>1824</ele>
        <time>2021-08-07T08:39:38.627Z</time>
      </trkpt>
      <trkpt lat="46.91244" lon="8.6783">
        <ele>1823</ele>
        <time>2021-08-07T08:39:39.627Z</time>
      </trkpt>
      <trkpt lat="46.91243" lon="8.6783">
        <ele>1823</ele>
        <time>2021-08-07T08:39:40.626Z</time>
      </trkpt>
      <trkpt lat="46.91243" lon="8.6783">
        <ele>1822</ele>
        <time>2021-08-07T08:39:41.627Z</time>
      </trkpt>
      <trkpt lat="46.91242" lon="8.6783">
        <ele>1821</ele>
        <time>2021-08-07T08:39:42.627Z</time>
      </trkpt>
      <trkpt lat="46.91241" lon="8.67829">
        <ele>1820</ele>
        <time>2021-08-07T08:39:43.627Z</time>
      </trkpt>
      <trkpt lat="46.9124" lon="8.67829">
        <ele>1819</ele>
        <time>2021-08-07T08:39:44.627Z</time>
      </trkpt>
      <trkpt lat="46.91239" lon="8.67828">
        <ele>1819</ele>
        <time>2021-08-07T08:39:45.627Z</time>
      </trkpt>
      <trkpt lat="46.91238" lon="8.67828">
        <ele>1819</ele>
        <time>2021-08-07T08:39:46.627Z</time>
      </trkpt>
      <trkpt lat="46.91237" lon="8.67828">
        <ele>1818</ele>
        <time>2021-08-07T08:39:47.626Z</time>
      </trkpt>
      <trkpt lat="46.91236" lon="8.67827">
        <ele>1818</ele>
        <time>2021-08-07T08:39:48.626Z</time>
      </trkpt>
      <trkpt lat="46.91236" lon="8.67828">
        <ele>1818</ele>
        <time>2021-08-07T08:39:49.627Z</time>
      </trkpt>
      <trkpt lat="46.91235" lon="8.67828">
        <ele>1818</ele>
        <time>2021-08-07T08:39:50.627Z</time>
      </trkpt>
      <trkpt lat="46.91234" lon="8.67828">
        <ele>1817</ele>
        <time>2021-08-07T08:39:51.626Z</time>
      </trkpt>
      <trkpt lat="46.91232" lon="8.67827">
        <ele>1817</ele>
        <time>2021-08-07T08:39:52.627Z</time>
      </trkpt>
      <trkpt lat="46.91232" lon="8.67827">
        <ele>1818</ele>
        <time>2021-08-07T08:39:53.626Z</time>
      </trkpt>
      <trkpt lat="46.91231" lon="8.67827">
        <ele>1818</ele>
        <time>2021-08-07T08:39:54.627Z</time>
      </trkpt>
      <trkpt lat="46.9123" lon="8.67826">
        <ele>1819</ele>
        <time>2021-08-07T08:39:55.627Z</time>
      </trkpt>
      <trkpt lat="46.91229" lon="8.67826">
        <ele>1820</ele>
        <time>2021-08-07T08:39:56.627Z</time>
      </trkpt>
      <trkpt lat="46.91228" lon="8.67826">
        <ele>1821</ele>
        <time>2021-08-07T08:39:57.626Z</time>
      </trkpt>
      <trkpt lat="46.91227" lon="8.67826">
        <ele>1821</ele>
        <time>2021-08-07T08:39:58.627Z</time>
      </trkpt>
      <trkpt lat="46.91226" lon="8.67825">
        <ele>1822</ele>
        <time>2021-08-07T08:39:59.627Z</time>
      </trkpt>
      <trkpt lat="46.91225" lon="8.67825">
        <ele>1822</ele>
        <time>2021-08-07T08:40:00.627Z</time>
      </trkpt>
      <trkpt lat="46.91224" lon="8.67825">
        <ele>1823</ele>
        <time>2021-08-07T08:40:01.627Z</time>
      </trkpt>
      <trkpt lat="46.91223" lon="8.67825">
        <ele>1824</ele>
        <time>2021-08-07T08:40:02.627Z</time>
      </trkpt>
      <trkpt lat="46.91222" lon="8.67826">
        <ele>1824</ele>
        <time>2021-08-07T08:40:03.626Z</time>
      </trkpt>
      <trkpt lat="46.91221" lon="8.67826">
        <ele>1824</ele>
        <time>2021-08-07T08:40:04.627Z</time>
      </trkpt>
      <trkpt lat="46.9122" lon="8.67826">
        <ele>1823</ele>
        <time>2021-08-07T08:40:05.627Z</time>
      </trkpt>
      <trkpt lat="46.9122" lon="8.67826">
        <ele>1823</ele>
        <time>2021-08-07T08:40:06.627Z</time>
      </trkpt>
      <trkpt lat="46.91219" lon="8.67826">
        <ele>1823</ele>
        <time>2021-08-07T08:40:07.627Z</time>
      </trkpt>
      <trkpt lat="46.91217" lon="8.67825">
        <ele>1823</ele>
        <time>2021-08-07T08:40:08.626Z</time>
      </trkpt>
      <trkpt lat="46.91216" lon="8.67824">
        <ele>1823</ele>
        <time>2021-08-07T08:40:09.626Z</time>
      </trkpt>
      <trkpt lat="46.91215" lon="8.67822">
        <ele>1823</ele>
        <time>2021-08-07T08:40:10.626Z</time>
      </trkpt>
      <trkpt lat="46.91214" lon="8.67821">
        <ele>1824</ele>
        <time>2021-08-07T08:40:11.627Z</time>
      </trkpt>
      <trkpt lat="46.91213" lon="8.67821">
        <ele>1824</ele>
        <time>2021-08-07T08:40:12.627Z</time>
      </trkpt>
      <trkpt lat="46.91213" lon="8.67821">
        <ele>1823</ele>
        <time>2021-08-07T08:40:13.626Z</time>
      </trkpt>
      <trkpt lat="46.91212" lon="8.6782">
        <ele>1822</ele>
        <time>2021-08-07T08:40:14.626Z</time>
      </trkpt>
      <trkpt lat="46.91211" lon="8.6782">
        <ele>1821</ele>
        <time>2021-08-07T08:40:15.627Z</time>
      </trkpt>
      <trkpt lat="46.9121" lon="8.67819">
        <ele>1820</ele>
        <time>2021-08-07T08:40:16.627Z</time>
      </trkpt>
      <trkpt lat="46.91209" lon="8.67819">
        <ele>1819</ele>
        <time>2021-08-07T08:40:17.627Z</time>
      </trkpt>
      <trkpt lat="46.91208" lon="8.67818">
        <ele>1818</ele>
        <time>2021-08-07T08:40:18.627Z</time>
      </trkpt>
      <trkpt lat="46.91208" lon="8.67818">
        <ele>1817</ele>
        <time>2021-08-07T08:40:19.626Z</time>
      </trkpt>
      <trkpt lat="46.91207" lon="8.67818">
        <ele>1816</ele>
        <time>2021-08-07T08:40:20.626Z</time>
      </trkpt>
      <trkpt lat="46.91206" lon="8.67817">
        <ele>1815</ele>
        <time>2021-08-07T08:40:21.627Z</time>
      </trkpt>
      <trkpt lat="46.91206" lon="8.67817">
        <ele>1815</ele>
        <time>2021-08-07T08:40:22.626Z</time>
      </trkpt>
      <trkpt lat="46.91205" lon="8.67816">
        <ele>1815</ele>
        <time>2021-08-07T08:40:23.626Z</time>
      </trkpt>
      <trkpt lat="46.91204" lon="8.67815">
        <ele>1815</ele>
        <time>2021-08-07T08:40:24.627Z</time>
      </trkpt>
      <trkpt lat="46.91202" lon="8.67814">
        <ele>1815</ele>
        <time>2021-08-07T08:40:25.627Z</time>
      </trkpt>
      <trkpt lat="46.91201" lon="8.67814">
        <ele>1815</ele>
        <time>2021-08-07T08:40:26.626Z</time>
      </trkpt>
      <trkpt lat="46.912" lon="8.67814">
        <ele>1816</ele>
        <time>2021-08-07T08:40:27.626Z</time>
      </trkpt>
      <trkpt lat="46.91199" lon="8.67814">
        <ele>1816</ele>
        <time>2021-08-07T08:40:28.627Z</time>
      </trkpt>
      <trkpt lat="46.91197" lon="8.67814">
        <ele>1817</ele>
        <time>2021-08-07T08:40:29.627Z</time>
      </trkpt>
      <trkpt lat="46.91196" lon="8.67814">
        <ele>1817</ele>
        <time>2021-08-07T08:40:30.626Z</time>
      </trkpt>
      <trkpt lat="46.91194" lon="8.67814">
        <ele>1818</ele>
        <time>2021-08-07T08:40:31.626Z</time>
      </trkpt>
      <trkpt lat="46.91194" lon="8.67814">
        <ele>1819</ele>
        <time>2021-08-07T08:40:32.626Z</time>
      </trkpt>
      <trkpt lat="46.91192" lon="8.67813">
        <ele>1819</ele>
        <time>2021-08-07T08:40:33.626Z</time>
      </trkpt>
      <trkpt lat="46.91191" lon="8.67813">
        <ele>1820</ele>
        <time>2021-08-07T08:40:34.626Z</time>
      </trkpt>
      <trkpt lat="46.9119" lon="8.67812">
        <ele>1820</ele>
        <time>2021-08-07T08:40:35.626Z</time>
      </trkpt>
      <trkpt lat="46.91188" lon="8.67811">
        <ele>1821</ele>
        <time>2021-08-07T08:40:36.626Z</time>
      </trkpt>
      <trkpt lat="46.91187" lon="8.67811">
        <ele>1821</ele>
        <time>2021-08-07T08:40:37.626Z</time>
      </trkpt>
      <trkpt lat="46.91185" lon="8.6781">
        <ele>1821</ele>
        <time>2021-08-07T08:40:38.626Z</time>
      </trkpt>
      <trkpt lat="46.91185" lon="8.6781">
        <ele>1822</ele>
        <time>2021-08-07T08:40:39.626Z</time>
      </trkpt>
      <trkpt lat="46.91184" lon="8.67811">
        <ele>1821</ele>
        <time>2021-08-07T08:40:40.626Z</time>
      </trkpt>
      <trkpt lat="46.91183" lon="8.67811">
        <ele>1821</ele>
        <time>2021-08-07T08:40:41.626Z</time>
      </trkpt>
      <trkpt lat="46.91182" lon="8.67811">
        <ele>1821</ele>
        <time>2021-08-07T08:40:42.626Z</time>
      </trkpt>
      <trkpt lat="46.9118" lon="8.6781">
        <ele>1821</ele>
        <time>2021-08-07T08:40:43.626Z</time>
      </trkpt>
      <trkpt lat="46.91179" lon="8.6781">
        <ele>1821</ele>
        <time>2021-08-07T08:40:44.626Z</time>
      </trkpt>
      <trkpt lat="46.91178" lon="8.6781">
        <ele>1820</ele>
        <time>2021-08-07T08:40:45.627Z</time>
      </trkpt>
      <trkpt lat="46.91178" lon="8.6781">
        <ele>1820</ele>
        <time>2021-08-07T08:40:46.626Z</time>
      </trkpt>
      <trkpt lat="46.91177" lon="8.6781">
        <ele>1820</ele>
        <time>2021-08-07T08:40:47.626Z</time>
      </trkpt>
      <trkpt lat="46.91176" lon="8.67809">
        <ele>1820</ele>
        <time>2021-08-07T08:40:48.627Z</time>
      </trkpt>
      <trkpt lat="46.91176" lon="8.67808">
        <ele>1819</ele>
        <time>2021-08-07T08:40:49.626Z</time>
      </trkpt>
      <trkpt lat="46.91175" lon="8.67808">
        <ele>1819</ele>
        <time>2021-08-07T08:40:50.627Z</time>
      </trkpt>
      <trkpt lat="46.91174" lon="8.67808">
        <ele>1819</ele>
        <time>2021-08-07T08:40:51.626Z</time>
      </trkpt>
      <trkpt lat="46.91174" lon="8.67807">
        <ele>1818</ele>
        <time>2021-08-07T08:40:52.627Z</time>
      </trkpt>
      <trkpt lat="46.91173" lon="8.67807">
        <ele>1818</ele>
        <time>2021-08-07T08:40:53.626Z</time>
      </trkpt>
      <trkpt lat="46.91172" lon="8.67806">
        <ele>1817</ele>
        <time>2021-08-07T08:40:54.626Z</time>
      </trkpt>
      <trkpt lat="46.91171" lon="8.67805">
        <ele>1816</ele>
        <time>2021-08-07T08:40:55.627Z</time>
      </trkpt>
      <trkpt lat="46.9117" lon="8.67804">
        <ele>1815</ele>
        <time>2021-08-07T08:40:56.626Z</time>
      </trkpt>
      <trkpt lat="46.91169" lon="8.67804">
        <ele>1814</ele>
        <time>2021-08-07T08:40:57.626Z</time>
      </trkpt>
      <trkpt lat="46.91168" lon="8.67804">
        <ele>1814</ele>
        <time>2021-08-07T08:40:58.626Z</time>
      </trkpt>
      <trkpt lat="46.91167" lon="8.67803">
        <ele>1813</ele>
        <time>2021-08-07T08:40:59.626Z</time>
      </trkpt>
      <trkpt lat="46.91166" lon="8.67803">
        <ele>1813</ele>
        <time>2021-08-07T08:41:00.626Z</time>
      </trkpt>
      <trkpt lat="46.91165" lon="8.67803">
        <ele>1813</ele>
        <time>2021-08-07T08:41:01.627Z</time>
      </trkpt>
      <trkpt lat="46.91164" lon="8.67802">
        <ele>1814</ele>
        <time>2021-08-07T08:41:02.627Z</time>
      </trkpt>
      <trkpt lat="46.91163" lon="8.67802">
        <ele>1814</ele>
        <time>2021-08-07T08:41:03.627Z</time>
      </trkpt>
      <trkpt lat="46.91162" lon="8.67802">
        <ele>1814</ele>
        <time>2021-08-07T08:41:04.627Z</time>
      </trkpt>
      <trkpt lat="46.9116" lon="8.67802">
        <ele>1814</ele>
        <time>2021-08-07T08:41:05.627Z</time>
      </trkpt>
      <trkpt lat="46.91159" lon="8.67801">
        <ele>1814</ele>
        <time>2021-08-07T08:41:06.626Z</time>
      </trkpt>
      <trkpt lat="46.91158" lon="8.678">
        <ele>1815</ele>
        <time>2021-08-07T08:41:07.627Z</time>
      </trkpt>
      <trkpt lat="46.91157" lon="8.67799">
        <ele>1815</ele>
        <time>2021-08-07T08:41:08.627Z</time>
      </trkpt>
      <trkpt lat="46.91156" lon="8.67799">
        <ele>1816</ele>
        <time>2021-08-07T08:41:09.626Z</time>
      </trkpt>
      <trkpt lat="46.91155" lon="8.67799">
        <ele>1816</ele>
        <time>2021-08-07T08:41:10.627Z</time>
      </trkpt>
      <trkpt lat="46.91154" lon="8.67798">
        <ele>1816</ele>
        <time>2021-08-07T08:41:11.627Z</time>
      </trkpt>
      <trkpt lat="46.91153" lon="8.67799">
        <ele>1816</ele>
        <time>2021-08-07T08:41:12.626Z</time>
      </trkpt>
      <trkpt lat="46.91152" lon="8.67799">
        <ele>1817</ele>
        <time>2021-08-07T08:41:13.626Z</time>
      </trkpt>
      <trkpt lat="46.91151" lon="8.67799">
        <ele>1817</ele>
        <time>2021-08-07T08:41:14.626Z</time>
      </trkpt>
      <trkpt lat="46.9115" lon="8.67798">
        <ele>1818</ele>
        <time>2021-08-07T08:41:15.627Z</time>
      </trkpt>
      <trkpt lat="46.91148" lon="8.67796">
        <ele>1818</ele>
        <time>2021-08-07T08:41:16.626Z</time>
      </trkpt>
      <trkpt lat="46.91147" lon="8.67794">
        <ele>1819</ele>
        <time>2021-08-07T08:41:17.626Z</time>
      </trkpt>
      <trkpt lat="46.91146" lon="8.67793">
        <ele>1820</ele>
        <time>2021-08-07T08:41:18.626Z</time>
      </trkpt>
      <trkpt lat="46.91145" lon="8.67793">
        <ele>1820</ele>
        <time>2021-08-07T08:41:19.627Z</time>
      </trkpt>
      <trkpt lat="46.91144" lon="8.67792">
        <ele>1821</ele>
        <time>2021-08-07T08:41:20.626Z</time>
      </trkpt>
      <trkpt lat="46.91143" lon="8.67791">
        <ele>1822</ele>
        <time>2021-08-07T08:41:21.626Z</time>
      </trkpt>
      <trkpt lat="46.91141" lon="8.6779">
        <ele>1822</ele>
        <time>2021-08-07T08:41:22.626Z</time>
      </trkpt>
      <trkpt lat="46.9114" lon="8.6779">
        <ele>1822</ele>
        <time>2021-08-07T08:41:23.626Z</time>
      </trkpt>
      <trkpt lat="46.91139" lon="8.67789">
        <ele>1822</ele>
        <time>2021-08-07T08:41:24.627Z</time>
      </trkpt>
      <trkpt lat="46.91138" lon="8.67789">
        <ele>1822</ele>
        <time>2021-08-07T08:41:25.626Z</time>
      </trkpt>
      <trkpt lat="46.91137" lon="8.67788">
        <ele>1822</ele>
        <time>2021-08-07T08:41:26.626Z</time>
      </trkpt>
      <trkpt lat="46.91136" lon="8.67788">
        <ele>1822</ele>
        <time>2021-08-07T08:41:27.626Z</time>
      </trkpt>
      <trkpt lat="46.91135" lon="8.67787">
        <ele>1822</ele>
        <time>2021-08-07T08:41:28.627Z</time>
      </trkpt>
      <trkpt lat="46.91134" lon="8.67786">
        <ele>1823</ele>
        <time>2021-08-07T08:41:29.627Z</time>
      </trkpt>
      <trkpt lat="46.91133" lon="8.67785">
        <ele>1823</ele>
        <time>2021-08-07T08:41:30.626Z</time>
      </trkpt>
      <trkpt lat="46.91132" lon="8.67785">
        <ele>1823</ele>
        <time>2021-08-07T08:41:31.626Z</time>
      </trkpt>
      <trkpt lat="46.91131" lon="8.67785">
        <ele>1822</ele>
        <time>2021-08-07T08:41:32.626Z</time>
      </trkpt>
      <trkpt lat="46.9113" lon="8.67784">
        <ele>1822</ele>
        <time>2021-08-07T08:41:33.626Z</time>
      </trkpt>
      <trkpt lat="46.9113" lon="8.67784">
        <ele>1821</ele>
        <time>2021-08-07T08:41:34.627Z</time>
      </trkpt>
      <trkpt lat="46.91129" lon="8.67783">
        <ele>1821</ele>
        <time>2021-08-07T08:41:35.626Z</time>
      </trkpt>
      <trkpt lat="46.91128" lon="8.67782">
        <ele>1820</ele>
        <time>2021-08-07T08:41:36.626Z</time>
      </trkpt>
      <trkpt lat="46.91126" lon="8.67782">
        <ele>1820</ele>
        <time>2021-08-07T08:41:37.626Z</time>
      </trkpt>
      <trkpt lat="46.91125" lon="8.67781">
        <ele>1820</ele>
        <time>2021-08-07T08:41:38.627Z</time>
      </trkpt>
      <trkpt lat="46.91123" lon="8.67781">
        <ele>1820</ele>
        <time>2021-08-07T08:41:39.626Z</time>
      </trkpt>
      <trkpt lat="46.91123" lon="8.6778">
        <ele>1820</ele>
        <time>2021-08-07T08:41:40.626Z</time>
      </trkpt>
      <trkpt lat="46.91122" lon="8.6778">
        <ele>1821</ele>
        <time>2021-08-07T08:41:41.626Z</time>
      </trkpt>
      <trkpt lat="46.91121" lon="8.67779">
        <ele>1821</ele>
        <time>2021-08-07T08:41:42.626Z</time>
      </trkpt>
      <trkpt lat="46.9112" lon="8.67778">
        <ele>1822</ele>
        <time>2021-08-07T08:41:43.626Z</time>
      </trkpt>
      <trkpt lat="46.91119" lon="8.67777">
        <ele>1822</ele>
        <time>2021-08-07T08:41:44.627Z</time>
      </trkpt>
      <trkpt lat="46.91117" lon="8.67777">
        <ele>1822</ele>
        <time>2021-08-07T08:41:45.626Z</time>
      </trkpt>
      <trkpt lat="46.91117" lon="8.67777">
        <ele>1822</ele>
        <time>2021-08-07T08:41:46.626Z</time>
      </trkpt>
      <trkpt lat="46.91116" lon="8.67776">
        <ele>1823</ele>
        <time>2021-08-07T08:41:47.626Z</time>
      </trkpt>
      <trkpt lat="46.91115" lon="8.67777">
        <ele>1823</ele>
        <time>2021-08-07T08:41:48.627Z</time>
      </trkpt>
      <trkpt lat="46.91114" lon="8.67777">
        <ele>1823</ele>
        <time>2021-08-07T08:41:49.627Z</time>
      </trkpt>
      <trkpt lat="46.91114" lon="8.67778">
        <ele>1823</ele>
        <time>2021-08-07T08:41:50.626Z</time>
      </trkpt>
      <trkpt lat="46.91113" lon="8.67779">
        <ele>1822</ele>
        <time>2021-08-07T08:41:51.627Z</time>
      </trkpt>
      <trkpt lat="46.91112" lon="8.6778">
        <ele>1822</ele>
        <time>2021-08-07T08:41:52.626Z</time>
      </trkpt>
      <trkpt lat="46.91112" lon="8.67781">
        <ele>1821</ele>
        <time>2021-08-07T08:41:53.627Z</time>
      </trkpt>
      <trkpt lat="46.91111" lon="8.67784">
        <ele>1820</ele>
        <time>2021-08-07T08:41:54.626Z</time>
      </trkpt>
      <trkpt lat="46.91111" lon="8.67786">
        <ele>1820</ele>
        <time>2021-08-07T08:41:55.627Z</time>
      </trkpt>
      <trkpt lat="46.91111" lon="8.67788">
        <ele>1820</ele>
        <time>2021-08-07T08:41:56.627Z</time>
      </trkpt>
      <trkpt lat="46.91111" lon="8.6779">
        <ele>1819</ele>
        <time>2021-08-07T08:41:57.627Z</time>
      </trkpt>
      <trkpt lat="46.91111" lon="8.67792">
        <ele>1818</ele>
        <time>2021-08-07T08:41:58.627Z</time>
      </trkpt>
      <trkpt lat="46.91111" lon="8.67793">
        <ele>1818</ele>
        <time>2021-08-07T08:41:59.627Z</time>
      </trkpt>
      <trkpt lat="46.91111" lon="8.67795">
        <ele>1817</ele>
        <time>2021-08-07T08:42:00.627Z</time>
      </trkpt>
      <trkpt lat="46.91111" lon="8.67796">
        <ele>1817</ele>
        <time>2021-08-07T08:42:01.626Z</time>
      </trkpt>
      <trkpt lat="46.9111" lon="8.67796">
        <ele>1816</ele>
        <time>2021-08-07T08:42:02.627Z</time>
      </trkpt>
      <trkpt lat="46.9111" lon="8.67797">
        <ele>1815</ele>
        <time>2021-08-07T08:42:03.626Z</time>
      </trkpt>
      <trkpt lat="46.9111" lon="8.67797">
        <ele>1815</ele>
        <time>2021-08-07T08:42:04.627Z</time>
      </trkpt>
      <trkpt lat="46.91109" lon="8.67798">
        <ele>1814</ele>
        <time>2021-08-07T08:42:05.626Z</time>
      </trkpt>
      <trkpt lat="46.91109" lon="8.67798">
        <ele>1814</ele>
        <time>2021-08-07T08:42:06.627Z</time>
      </trkpt>
      <trkpt lat="46.91109" lon="8.67799">
        <ele>1813</ele>
        <time>2021-08-07T08:42:07.627Z</time>
      </trkpt>
      <trkpt lat="46.91109" lon="8.67799">
        <ele>1813</ele>
        <time>2021-08-07T08:42:08.626Z</time>
      </trkpt>
      <trkpt lat="46.91109" lon="8.67801">
        <ele>1808</ele>
        <time>2021-08-07T08:42:09.627Z</time>
      </trkpt>
      <trkpt lat="46.91109" lon="8.67801">
        <ele>1808</ele>
        <time>2021-08-07T08:42:10.627Z</time>
      </trkpt>
      <trkpt lat="46.91111" lon="8.678">
        <ele>1803</ele>
        <time>2021-08-07T08:42:11.628Z</time>
      </trkpt>
      <trkpt lat="46.91111" lon="8.67801">
        <ele>1803</ele>
        <time>2021-08-07T08:42:12.627Z</time>
      </trkpt>
      <trkpt lat="46.91111" lon="8.67801">
        <ele>1804</ele>
        <time>2021-08-07T08:42:13.628Z</time>
      </trkpt>
      <trkpt lat="46.91111" lon="8.67801">
        <ele>1804</ele>
        <time>2021-08-07T08:42:14.628Z</time>
      </trkpt>
      <trkpt lat="46.9111" lon="8.67804">
        <ele>1805</ele>
        <time>2021-08-07T08:42:15.629Z</time>
      </trkpt>
      <trkpt lat="46.91111" lon="8.67803">
        <ele>1805</ele>
        <time>2021-08-07T08:42:16.629Z</time>
      </trkpt>
      <trkpt lat="46.91111" lon="8.67803">
        <ele>1805</ele>
        <time>2021-08-07T08:42:17.629Z</time>
      </trkpt>
      <trkpt lat="46.91111" lon="8.67803">
        <ele>1808</ele>
        <time>2021-08-07T08:42:18.630Z</time>
      </trkpt>
      <trkpt lat="46.91111" lon="8.67803">
        <ele>1808</ele>
        <time>2021-08-07T08:42:19.629Z</time>
      </trkpt>
      <trkpt lat="46.9111" lon="8.67804">
        <ele>1809</ele>
        <time>2021-08-07T08:42:20.630Z</time>
      </trkpt>
      <trkpt lat="46.91109" lon="8.67804">
        <ele>1809</ele>
        <time>2021-08-07T08:42:21.630Z</time>
      </trkpt>
      <trkpt lat="46.91109" lon="8.67805">
        <ele>1809</ele>
        <time>2021-08-07T08:42:22.629Z</time>
      </trkpt>
      <trkpt lat="46.91109" lon="8.67805">
        <ele>1810</ele>
        <time>2021-08-07T08:42:23.631Z</time>
      </trkpt>
      <trkpt lat="46.91109" lon="8.67804">
        <ele>1810</ele>
        <time>2021-08-07T08:42:24.631Z</time>
      </trkpt>
      <trkpt lat="46.91109" lon="8.67804">
        <ele>1811</ele>
        <time>2021-08-07T08:42:25.630Z</time>
      </trkpt>
      <trkpt lat="46.91107" lon="8.67803">
        <ele>1812</ele>
        <time>2021-08-07T08:42:26.631Z</time>
      </trkpt>
      <trkpt lat="46.91106" lon="8.67803">
        <ele>1812</ele>
        <time>2021-08-07T08:42:27.631Z</time>
      </trkpt>
      <trkpt lat="46.91105" lon="8.67804">
        <ele>1813</ele>
        <time>2021-08-07T08:42:28.630Z</time>
      </trkpt>
      <trkpt lat="46.91104" lon="8.67805">
        <ele>1813</ele>
        <time>2021-08-07T08:42:29.631Z</time>
      </trkpt>
      <trkpt lat="46.91103" lon="8.67806">
        <ele>1813</ele>
        <time>2021-08-07T08:42:30.631Z</time>
      </trkpt>
      <trkpt lat="46.91103" lon="8.67807">
        <ele>1812</ele>
        <time>2021-08-07T08:42:31.630Z</time>
      </trkpt>
      <trkpt lat="46.91102" lon="8.67808">
        <ele>1812</ele>
        <time>2021-08-07T08:42:32.631Z</time>
      </trkpt>
      <trkpt lat="46.91102" lon="8.6781">
        <ele>1811</ele>
        <time>2021-08-07T08:42:33.630Z</time>
      </trkpt>
      <trkpt lat="46.91102" lon="8.67811">
        <ele>1810</ele>
        <time>2021-08-07T08:42:34.631Z</time>
      </trkpt>
      <trkpt lat="46.91101" lon="8.67812">
        <ele>1810</ele>
        <time>2021-08-07T08:42:35.630Z</time>
      </trkpt>
      <trkpt lat="46.91101" lon="8.67813">
        <ele>1809</ele>
        <time>2021-08-07T08:42:36.630Z</time>
      </trkpt>
      <trkpt lat="46.91101" lon="8.67814">
        <ele>1809</ele>
        <time>2021-08-07T08:42:37.630Z</time>
      </trkpt>
      <trkpt lat="46.911" lon="8.67816">
        <ele>1808</ele>
        <time>2021-08-07T08:42:38.631Z</time>
      </trkpt>
      <trkpt lat="46.91099" lon="8.67817">
        <ele>1808</ele>
        <time>2021-08-07T08:42:39.630Z</time>
      </trkpt>
      <trkpt lat="46.91099" lon="8.67818">
        <ele>1809</ele>
        <time>2021-08-07T08:42:40.631Z</time>
      </trkpt>
      <trkpt lat="46.91099" lon="8.67818">
        <ele>1809</ele>
        <time>2021-08-07T08:42:41.631Z</time>
      </trkpt>
      <trkpt lat="46.91099" lon="8.67819">
        <ele>1809</ele>
        <time>2021-08-07T08:42:42.631Z</time>
      </trkpt>
      <trkpt lat="46.91098" lon="8.6782">
        <ele>1808</ele>
        <time>2021-08-07T08:42:43.631Z</time>
      </trkpt>
      <trkpt lat="46.91097" lon="8.6782">
        <ele>1809</ele>
        <time>2021-08-07T08:42:44.632Z</time>
      </trkpt>
      <trkpt lat="46.91097" lon="8.67821">
        <ele>1809</ele>
        <time>2021-08-07T08:42:45.632Z</time>
      </trkpt>
      <trkpt lat="46.91096" lon="8.67821">
        <ele>1809</ele>
        <time>2021-08-07T08:42:46.632Z</time>
      </trkpt>
      <trkpt lat="46.91095" lon="8.67821">
        <ele>1809</ele>
        <time>2021-08-07T08:42:47.633Z</time>
      </trkpt>
      <trkpt lat="46.91094" lon="8.67821">
        <ele>1809</ele>
        <time>2021-08-07T08:42:48.632Z</time>
      </trkpt>
      <trkpt lat="46.91093" lon="8.67821">
        <ele>1810</ele>
        <time>2021-08-07T08:42:49.633Z</time>
      </trkpt>
      <trkpt lat="46.91092" lon="8.6782">
        <ele>1810</ele>
        <time>2021-08-07T08:42:50.632Z</time>
      </trkpt>
      <trkpt lat="46.91091" lon="8.6782">
        <ele>1810</ele>
        <time>2021-08-07T08:42:51.633Z</time>
      </trkpt>
      <trkpt lat="46.9109" lon="8.67821">
        <ele>1810</ele>
        <time>2021-08-07T08:42:52.633Z</time>
      </trkpt>
      <trkpt lat="46.91089" lon="8.67821">
        <ele>1811</ele>
        <time>2021-08-07T08:42:53.633Z</time>
      </trkpt>
      <trkpt lat="46.91087" lon="8.67822">
        <ele>1811</ele>
        <time>2021-08-07T08:42:54.632Z</time>
      </trkpt>
      <trkpt lat="46.91086" lon="8.67822">
        <ele>1812</ele>
        <time>2021-08-07T08:42:55.633Z</time>
      </trkpt>
      <trkpt lat="46.91084" lon="8.67822">
        <ele>1812</ele>
        <time>2021-08-07T08:42:56.633Z</time>
      </trkpt>
      <trkpt lat="46.91083" lon="8.67823">
        <ele>1812</ele>
        <time>2021-08-07T08:42:57.633Z</time>
      </trkpt>
      <trkpt lat="46.91082" lon="8.67823">
        <ele>1812</ele>
        <time>2021-08-07T08:42:58.633Z</time>
      </trkpt>
      <trkpt lat="46.91081" lon="8.67824">
        <ele>1812</ele>
        <time>2021-08-07T08:42:59.632Z</time>
      </trkpt>
      <trkpt lat="46.9108" lon="8.67824">
        <ele>1812</ele>
        <time>2021-08-07T08:43:00.633Z</time>
      </trkpt>
      <trkpt lat="46.91079" lon="8.67824">
        <ele>1812</ele>
        <time>2021-08-07T08:43:01.632Z</time>
      </trkpt>
      <trkpt lat="46.91078" lon="8.67825">
        <ele>1811</ele>
        <time>2021-08-07T08:43:02.633Z</time>
      </trkpt>
      <trkpt lat="46.91077" lon="8.67825">
        <ele>1811</ele>
        <time>2021-08-07T08:43:03.633Z</time>
      </trkpt>
      <trkpt lat="46.91076" lon="8.67825">
        <ele>1811</ele>
        <time>2021-08-07T08:43:04.633Z</time>
      </trkpt>
      <trkpt lat="46.91075" lon="8.67825">
        <ele>1811</ele>
        <time>2021-08-07T08:43:05.633Z</time>
      </trkpt>
      <trkpt lat="46.91074" lon="8.67825">
        <ele>1811</ele>
        <time>2021-08-07T08:43:06.632Z</time>
      </trkpt>
      <trkpt lat="46.91074" lon="8.67825">
        <ele>1811</ele>
        <time>2021-08-07T08:43:07.633Z</time>
      </trkpt>
      <trkpt lat="46.91073" lon="8.67826">
        <ele>1811</ele>
        <time>2021-08-07T08:43:08.632Z</time>
      </trkpt>
      <trkpt lat="46.91072" lon="8.67826">
        <ele>1811</ele>
        <time>2021-08-07T08:43:09.633Z</time>
      </trkpt>
      <trkpt lat="46.91072" lon="8.67827">
        <ele>1811</ele>
        <time>2021-08-07T08:43:10.632Z</time>
      </trkpt>
      <trkpt lat="46.91071" lon="8.67828">
        <ele>1811</ele>
        <time>2021-08-07T08:43:11.633Z</time>
      </trkpt>
      <trkpt lat="46.9107" lon="8.67828">
        <ele>1810</ele>
        <time>2021-08-07T08:43:12.633Z</time>
      </trkpt>
      <trkpt lat="46.91069" lon="8.67829">
        <ele>1810</ele>
        <time>2021-08-07T08:43:13.633Z</time>
      </trkpt>
      <trkpt lat="46.91068" lon="8.6783">
        <ele>1811</ele>
        <time>2021-08-07T08:43:14.633Z</time>
      </trkpt>
      <trkpt lat="46.91068" lon="8.6783">
        <ele>1811</ele>
        <time>2021-08-07T08:43:15.633Z</time>
      </trkpt>
      <trkpt lat="46.91067" lon="8.67831">
        <ele>1811</ele>
        <time>2021-08-07T08:43:16.632Z</time>
      </trkpt>
      <trkpt lat="46.91067" lon="8.67831">
        <ele>1812</ele>
        <time>2021-08-07T08:43:17.633Z</time>
      </trkpt>
      <trkpt lat="46.91067" lon="8.67832">
        <ele>1813</ele>
        <time>2021-08-07T08:43:18.633Z</time>
      </trkpt>
      <trkpt lat="46.91067" lon="8.67832">
        <ele>1813</ele>
        <time>2021-08-07T08:43:19.633Z</time>
      </trkpt>
      <trkpt lat="46.91066" lon="8.67832">
        <ele>1813</ele>
        <time>2021-08-07T08:43:20.632Z</time>
      </trkpt>
      <trkpt lat="46.91066" lon="8.67833">
        <ele>1814</ele>
        <time>2021-08-07T08:43:21.633Z</time>
      </trkpt>
      <trkpt lat="46.91066" lon="8.67833">
        <ele>1814</ele>
        <time>2021-08-07T08:43:22.633Z</time>
      </trkpt>
      <trkpt lat="46.91066" lon="8.67835">
        <ele>1814</ele>
        <time>2021-08-07T08:43:23.632Z</time>
      </trkpt>
      <trkpt lat="46.91066" lon="8.67836">
        <ele>1815</ele>
        <time>2021-08-07T08:43:24.633Z</time>
      </trkpt>
      <trkpt lat="46.91067" lon="8.67838">
        <ele>1815</ele>
        <time>2021-08-07T08:43:25.633Z</time>
      </trkpt>
      <trkpt lat="46.91068" lon="8.67839">
        <ele>1815</ele>
        <time>2021-08-07T08:43:26.633Z</time>
      </trkpt>
      <trkpt lat="46.91068" lon="8.6784">
        <ele>1815</ele>
        <time>2021-08-07T08:43:27.632Z</time>
      </trkpt>
      <trkpt lat="46.91069" lon="8.67841">
        <ele>1815</ele>
        <time>2021-08-07T08:43:28.633Z</time>
      </trkpt>
      <trkpt lat="46.9107" lon="8.6784">
        <ele>1815</ele>
        <time>2021-08-07T08:43:29.633Z</time>
      </trkpt>
      <trkpt lat="46.91071" lon="8.67841">
        <ele>1815</ele>
        <time>2021-08-07T08:43:30.632Z</time>
      </trkpt>
      <trkpt lat="46.91072" lon="8.67841">
        <ele>1816</ele>
        <time>2021-08-07T08:43:31.632Z</time>
      </trkpt>
      <trkpt lat="46.91073" lon="8.67841">
        <ele>1816</ele>
        <time>2021-08-07T08:43:32.632Z</time>
      </trkpt>
      <trkpt lat="46.91073" lon="8.67842">
        <ele>1816</ele>
        <time>2021-08-07T08:43:33.632Z</time>
      </trkpt>
      <trkpt lat="46.91074" lon="8.67842">
        <ele>1816</ele>
        <time>2021-08-07T08:43:34.633Z</time>
      </trkpt>
      <trkpt lat="46.91075" lon="8.67843">
        <ele>1816</ele>
        <time>2021-08-07T08:43:35.632Z</time>
      </trkpt>
      <trkpt lat="46.91075" lon="8.67844">
        <ele>1817</ele>
        <time>2021-08-07T08:43:36.632Z</time>
      </trkpt>
      <trkpt lat="46.91076" lon="8.67844">
        <ele>1817</ele>
        <time>2021-08-07T08:43:37.633Z</time>
      </trkpt>
      <trkpt lat="46.91077" lon="8.67844">
        <ele>1817</ele>
        <time>2021-08-07T08:43:38.633Z</time>
      </trkpt>
      <trkpt lat="46.91077" lon="8.67845">
        <ele>1817</ele>
        <time>2021-08-07T08:43:39.633Z</time>
      </trkpt>
      <trkpt lat="46.91077" lon="8.67846">
        <ele>1817</ele>
        <time>2021-08-07T08:43:40.633Z</time>
      </trkpt>
      <trkpt lat="46.91077" lon="8.67846">
        <ele>1817</ele>
        <time>2021-08-07T08:43:41.633Z</time>
      </trkpt>
      <trkpt lat="46.91077" lon="8.67847">
        <ele>1818</ele>
        <time>2021-08-07T08:43:42.633Z</time>
      </trkpt>
      <trkpt lat="46.91077" lon="8.67848">
        <ele>1818</ele>
        <time>2021-08-07T08:43:43.633Z</time>
      </trkpt>
      <trkpt lat="46.91077" lon="8.67849">
        <ele>1818</ele>
        <time>2021-08-07T08:43:44.632Z</time>
      </trkpt>
      <trkpt lat="46.91077" lon="8.6785">
        <ele>1818</ele>
        <time>2021-08-07T08:43:45.633Z</time>
      </trkpt>
      <trkpt lat="46.91077" lon="8.67851">
        <ele>1818</ele>
        <time>2021-08-07T08:43:46.633Z</time>
      </trkpt>
      <trkpt lat="46.91077" lon="8.67852">
        <ele>1818</ele>
        <time>2021-08-07T08:43:47.633Z</time>
      </trkpt>
      <trkpt lat="46.91077" lon="8.67853">
        <ele>1818</ele>
        <time>2021-08-07T08:43:48.633Z</time>
      </trkpt>
      <trkpt lat="46.91076" lon="8.67853">
        <ele>1818</ele>
        <time>2021-08-07T08:43:49.633Z</time>
      </trkpt>
      <trkpt lat="46.91076" lon="8.67854">
        <ele>1818</ele>
        <time>2021-08-07T08:43:50.633Z</time>
      </trkpt>
      <trkpt lat="46.91076" lon="8.67855">
        <ele>1819</ele>
        <time>2021-08-07T08:43:51.632Z</time>
      </trkpt>
      <trkpt lat="46.91076" lon="8.67855">
        <ele>1819</ele>
        <time>2021-08-07T08:43:52.632Z</time>
      </trkpt>
      <trkpt lat="46.91076" lon="8.67855">
        <ele>1819</ele>
        <time>2021-08-07T08:43:53.634Z</time>
      </trkpt>
      <trkpt lat="46.91075" lon="8.67856">
        <ele>1819</ele>
        <time>2021-08-07T08:43:54.634Z</time>
      </trkpt>
      <trkpt lat="46.91075" lon="8.67856">
        <ele>1819</ele>
        <time>2021-08-07T08:43:55.633Z</time>
      </trkpt>
      <trkpt lat="46.91075" lon="8.67851">
        <ele>1820</ele>
        <time>2021-08-07T08:43:57.635Z</time>
      </trkpt>
      <trkpt lat="46.91076" lon="8.67849">
        <ele>1819</ele>
        <time>2021-08-07T08:43:58.635Z</time>
      </trkpt>
      <trkpt lat="46.91076" lon="8.67848">
        <ele>1818</ele>
        <time>2021-08-07T08:43:59.635Z</time>
      </trkpt>
      <trkpt lat="46.91076" lon="8.67847">
        <ele>1818</ele>
        <time>2021-08-07T08:44:00.636Z</time>
      </trkpt>
      <trkpt lat="46.91076" lon="8.67846">
        <ele>1817</ele>
        <time>2021-08-07T08:44:01.635Z</time>
      </trkpt>
      <trkpt lat="46.91077" lon="8.67846">
        <ele>1816</ele>
        <time>2021-08-07T08:44:02.636Z</time>
      </trkpt>
      <trkpt lat="46.91077" lon="8.67846">
        <ele>1815</ele>
        <time>2021-08-07T08:44:03.636Z</time>
      </trkpt>
      <trkpt lat="46.91077" lon="8.67844">
        <ele>1813</ele>
        <time>2021-08-07T08:44:04.637Z</time>
      </trkpt>
      <trkpt lat="46.91077" lon="8.67843">
        <ele>1813</ele>
        <time>2021-08-07T08:44:05.638Z</time>
      </trkpt>
      <trkpt lat="46.91077" lon="8.67843">
        <ele>1813</ele>
        <time>2021-08-07T08:44:06.637Z</time>
      </trkpt>
      <trkpt lat="46.91077" lon="8.67843">
        <ele>1813</ele>
        <time>2021-08-07T08:44:07.638Z</time>
      </trkpt>
      <trkpt lat="46.91078" lon="8.67842">
        <ele>1814</ele>
        <time>2021-08-07T08:44:08.638Z</time>
      </trkpt>
      <trkpt lat="46.91078" lon="8.67842">
        <ele>1814</ele>
        <time>2021-08-07T08:44:09.637Z</time>
      </trkpt>
      <trkpt lat="46.91078" lon="8.67841">
        <ele>1815</ele>
        <time>2021-08-07T08:44:10.638Z</time>
      </trkpt>
      <trkpt lat="46.91077" lon="8.67842">
        <ele>1818</ele>
        <time>2021-08-07T08:44:11.638Z</time>
      </trkpt>
      <trkpt lat="46.91076" lon="8.67841">
        <ele>1819</ele>
        <time>2021-08-07T08:44:12.637Z</time>
      </trkpt>
      <trkpt lat="46.91075" lon="8.67838">
        <ele>1823</ele>
        <time>2021-08-07T08:44:13.637Z</time>
      </trkpt>
      <trkpt lat="46.91075" lon="8.6784">
        <ele>1825</ele>
        <time>2021-08-07T08:44:14.637Z</time>
      </trkpt>
      <trkpt lat="46.91079" lon="8.67842">
        <ele>1815</ele>
        <time>2021-08-07T08:44:15.638Z</time>
      </trkpt>
      <trkpt lat="46.91078" lon="8.67843">
        <ele>1814</ele>
        <time>2021-08-07T08:44:16.639Z</time>
      </trkpt>
      <trkpt lat="46.91079" lon="8.67844">
        <ele>1814</ele>
        <time>2021-08-07T08:44:17.639Z</time>
      </trkpt>
      <trkpt lat="46.91077" lon="8.67843">
        <ele>1812</ele>
        <time>2021-08-07T08:44:18.640Z</time>
      </trkpt>
      <trkpt lat="46.91077" lon="8.67842">
        <ele>1812</ele>
        <time>2021-08-07T08:44:19.640Z</time>
      </trkpt>
      <trkpt lat="46.91076" lon="8.67841">
        <ele>1812</ele>
        <time>2021-08-07T08:44:20.639Z</time>
      </trkpt>
      <trkpt lat="46.91076" lon="8.6784">
        <ele>1812</ele>
        <time>2021-08-07T08:44:21.639Z</time>
      </trkpt>
      <trkpt lat="46.91075" lon="8.6784">
        <ele>1813</ele>
        <time>2021-08-07T08:44:22.640Z</time>
      </trkpt>
      <trkpt lat="46.91074" lon="8.67839">
        <ele>1813</ele>
        <time>2021-08-07T08:44:23.640Z</time>
      </trkpt>
      <trkpt lat="46.91074" lon="8.67839">
        <ele>1814</ele>
        <time>2021-08-07T08:44:24.640Z</time>
      </trkpt>
      <trkpt lat="46.91073" lon="8.67838">
        <ele>1814</ele>
        <time>2021-08-07T08:44:25.639Z</time>
      </trkpt>
      <trkpt lat="46.91072" lon="8.67837">
        <ele>1815</ele>
        <time>2021-08-07T08:44:26.640Z</time>
      </trkpt>
      <trkpt lat="46.91071" lon="8.67837">
        <ele>1815</ele>
        <time>2021-08-07T08:44:27.640Z</time>
      </trkpt>
      <trkpt lat="46.91071" lon="8.67837">
        <ele>1816</ele>
        <time>2021-08-07T08:44:28.639Z</time>
      </trkpt>
      <trkpt lat="46.91071" lon="8.67837">
        <ele>1816</ele>
        <time>2021-08-07T08:44:29.640Z</time>
      </trkpt>
      <trkpt lat="46.91071" lon="8.67837">
        <ele>1816</ele>
        <time>2021-08-07T08:44:30.640Z</time>
      </trkpt>
      <trkpt lat="46.9107" lon="8.67836">
        <ele>1817</ele>
        <time>2021-08-07T08:44:31.640Z</time>
      </trkpt>
      <trkpt lat="46.9107" lon="8.67836">
        <ele>1818</ele>
        <time>2021-08-07T08:44:32.640Z</time>
      </trkpt>
      <trkpt lat="46.91069" lon="8.67836">
        <ele>1818</ele>
        <time>2021-08-07T08:44:33.640Z</time>
      </trkpt>
      <trkpt lat="46.91069" lon="8.67835">
        <ele>1818</ele>
        <time>2021-08-07T08:44:34.640Z</time>
      </trkpt>
      <trkpt lat="46.91069" lon="8.67834">
        <ele>1818</ele>
        <time>2021-08-07T08:44:35.640Z</time>
      </trkpt>
      <trkpt lat="46.91069" lon="8.67833">
        <ele>1817</ele>
        <time>2021-08-07T08:44:36.640Z</time>
      </trkpt>
      <trkpt lat="46.91069" lon="8.67832">
        <ele>1817</ele>
        <time>2021-08-07T08:44:37.641Z</time>
      </trkpt>
      <trkpt lat="46.91069" lon="8.67831">
        <ele>1816</ele>
        <time>2021-08-07T08:44:38.640Z</time>
      </trkpt>
      <trkpt lat="46.91068" lon="8.6783">
        <ele>1815</ele>
        <time>2021-08-07T08:44:39.641Z</time>
      </trkpt>
      <trkpt lat="46.91067" lon="8.6783">
        <ele>1814</ele>
        <time>2021-08-07T08:44:40.641Z</time>
      </trkpt>
      <trkpt lat="46.91069" lon="8.67831">
        <ele>1821</ele>
        <time>2021-08-07T08:44:41.641Z</time>
      </trkpt>
      <trkpt lat="46.91069" lon="8.6783">
        <ele>1821</ele>
        <time>2021-08-07T08:44:42.642Z</time>
      </trkpt>
      <trkpt lat="46.9107" lon="8.67829">
        <ele>1820</ele>
        <time>2021-08-07T08:44:43.641Z</time>
      </trkpt>
      <trkpt lat="46.91071" lon="8.67828">
        <ele>1820</ele>
        <time>2021-08-07T08:44:44.641Z</time>
      </trkpt>
      <trkpt lat="46.91072" lon="8.67827">
        <ele>1820</ele>
        <time>2021-08-07T08:44:45.641Z</time>
      </trkpt>
      <trkpt lat="46.91072" lon="8.67826">
        <ele>1820</ele>
        <time>2021-08-07T08:44:46.641Z</time>
      </trkpt>
      <trkpt lat="46.91072" lon="8.67825">
        <ele>1820</ele>
        <time>2021-08-07T08:44:47.641Z</time>
      </trkpt>
      <trkpt lat="46.91072" lon="8.67824">
        <ele>1821</ele>
        <time>2021-08-07T08:44:48.642Z</time>
      </trkpt>
      <trkpt lat="46.91071" lon="8.67823">
        <ele>1821</ele>
        <time>2021-08-07T08:44:49.642Z</time>
      </trkpt>
      <trkpt lat="46.91071" lon="8.67821">
        <ele>1821</ele>
        <time>2021-08-07T08:44:50.642Z</time>
      </trkpt>
      <trkpt lat="46.91071" lon="8.6782">
        <ele>1821</ele>
        <time>2021-08-07T08:44:51.641Z</time>
      </trkpt>
      <trkpt lat="46.9107" lon="8.67819">
        <ele>1821</ele>
        <time>2021-08-07T08:44:52.641Z</time>
      </trkpt>
      <trkpt lat="46.9107" lon="8.67818">
        <ele>1821</ele>
        <time>2021-08-07T08:44:53.641Z</time>
      </trkpt>
      <trkpt lat="46.9107" lon="8.67817">
        <ele>1821</ele>
        <time>2021-08-07T08:44:54.642Z</time>
      </trkpt>
      <trkpt lat="46.9107" lon="8.67816">
        <ele>1821</ele>
        <time>2021-08-07T08:44:55.642Z</time>
      </trkpt>
      <trkpt lat="46.9107" lon="8.67815">
        <ele>1821</ele>
        <time>2021-08-07T08:44:56.641Z</time>
      </trkpt>
      <trkpt lat="46.91071" lon="8.67813">
        <ele>1822</ele>
        <time>2021-08-07T08:44:57.641Z</time>
      </trkpt>
      <trkpt lat="46.91071" lon="8.67812">
        <ele>1822</ele>
        <time>2021-08-07T08:44:58.642Z</time>
      </trkpt>
      <trkpt lat="46.91071" lon="8.6781">
        <ele>1822</ele>
        <time>2021-08-07T08:44:59.642Z</time>
      </trkpt>
      <trkpt lat="46.9107" lon="8.67809">
        <ele>1822</ele>
        <time>2021-08-07T08:45:00.641Z</time>
      </trkpt>
      <trkpt lat="46.9107" lon="8.67808">
        <ele>1821</ele>
        <time>2021-08-07T08:45:01.641Z</time>
      </trkpt>
      <trkpt lat="46.9107" lon="8.67806">
        <ele>1821</ele>
        <time>2021-08-07T08:45:02.641Z</time>
      </trkpt>
      <trkpt lat="46.9107" lon="8.67805">
        <ele>1820</ele>
        <time>2021-08-07T08:45:03.642Z</time>
      </trkpt>
      <trkpt lat="46.9107" lon="8.67804">
        <ele>1820</ele>
        <time>2021-08-07T08:45:04.642Z</time>
      </trkpt>
      <trkpt lat="46.9107" lon="8.67803">
        <ele>1819</ele>
        <time>2021-08-07T08:45:05.641Z</time>
      </trkpt>
      <trkpt lat="46.9107" lon="8.67802">
        <ele>1818</ele>
        <time>2021-08-07T08:45:06.641Z</time>
      </trkpt>
      <trkpt lat="46.9107" lon="8.67801">
        <ele>1818</ele>
        <time>2021-08-07T08:45:07.641Z</time>
      </trkpt>
      <trkpt lat="46.91071" lon="8.67799">
        <ele>1817</ele>
        <time>2021-08-07T08:45:08.642Z</time>
      </trkpt>
      <trkpt lat="46.9107" lon="8.67799">
        <ele>1817</ele>
        <time>2021-08-07T08:45:09.641Z</time>
      </trkpt>
      <trkpt lat="46.91071" lon="8.67798">
        <ele>1817</ele>
        <time>2021-08-07T08:45:10.641Z</time>
      </trkpt>
      <trkpt lat="46.91071" lon="8.67797">
        <ele>1816</ele>
        <time>2021-08-07T08:45:11.641Z</time>
      </trkpt>
      <trkpt lat="46.91071" lon="8.67796">
        <ele>1816</ele>
        <time>2021-08-07T08:45:12.642Z</time>
      </trkpt>
      <trkpt lat="46.91072" lon="8.67795">
        <ele>1816</ele>
        <time>2021-08-07T08:45:13.641Z</time>
      </trkpt>
      <trkpt lat="46.91073" lon="8.67794">
        <ele>1815</ele>
        <time>2021-08-07T08:45:14.642Z</time>
      </trkpt>
      <trkpt lat="46.91074" lon="8.67793">
        <ele>1815</ele>
        <time>2021-08-07T08:45:15.641Z</time>
      </trkpt>
      <trkpt lat="46.91075" lon="8.67792">
        <ele>1815</ele>
        <time>2021-08-07T08:45:16.641Z</time>
      </trkpt>
      <trkpt lat="46.91077" lon="8.6779">
        <ele>1815</ele>
        <time>2021-08-07T08:45:17.641Z</time>
      </trkpt>
      <trkpt lat="46.91077" lon="8.6779">
        <ele>1814</ele>
        <time>2021-08-07T08:45:18.642Z</time>
      </trkpt>
      <trkpt lat="46.91078" lon="8.67789">
        <ele>1814</ele>
        <time>2021-08-07T08:45:19.642Z</time>
      </trkpt>
      <trkpt lat="46.91078" lon="8.67788">
        <ele>1814</ele>
        <time>2021-08-07T08:45:20.641Z</time>
      </trkpt>
      <trkpt lat="46.91079" lon="8.67788">
        <ele>1814</ele>
        <time>2021-08-07T08:45:21.641Z</time>
      </trkpt>
      <trkpt lat="46.9108" lon="8.67787">
        <ele>1814</ele>
        <time>2021-08-07T08:45:22.641Z</time>
      </trkpt>
      <trkpt lat="46.9108" lon="8.67787">
        <ele>1814</ele>
        <time>2021-08-07T08:45:23.641Z</time>
      </trkpt>
      <trkpt lat="46.91081" lon="8.67785">
        <ele>1813</ele>
        <time>2021-08-07T08:45:24.641Z</time>
      </trkpt>
      <trkpt lat="46.91082" lon="8.67784">
        <ele>1813</ele>
        <time>2021-08-07T08:45:25.641Z</time>
      </trkpt>
      <trkpt lat="46.91082" lon="8.67784">
        <ele>1813</ele>
        <time>2021-08-07T08:45:26.641Z</time>
      </trkpt>
      <trkpt lat="46.91082" lon="8.67782">
        <ele>1812</ele>
        <time>2021-08-07T08:45:27.641Z</time>
      </trkpt>
      <trkpt lat="46.91083" lon="8.67782">
        <ele>1812</ele>
        <time>2021-08-07T08:45:28.641Z</time>
      </trkpt>
      <trkpt lat="46.91082" lon="8.67781">
        <ele>1812</ele>
        <time>2021-08-07T08:45:29.641Z</time>
      </trkpt>
      <trkpt lat="46.91082" lon="8.6778">
        <ele>1812</ele>
        <time>2021-08-07T08:45:30.642Z</time>
      </trkpt>
      <trkpt lat="46.91082" lon="8.67779">
        <ele>1811</ele>
        <time>2021-08-07T08:45:31.642Z</time>
      </trkpt>
      <trkpt lat="46.91083" lon="8.67778">
        <ele>1811</ele>
        <time>2021-08-07T08:45:32.642Z</time>
      </trkpt>
      <trkpt lat="46.91083" lon="8.67776">
        <ele>1811</ele>
        <time>2021-08-07T08:45:33.641Z</time>
      </trkpt>
      <trkpt lat="46.91083" lon="8.67774">
        <ele>1811</ele>
        <time>2021-08-07T08:45:34.641Z</time>
      </trkpt>
      <trkpt lat="46.91084" lon="8.67773">
        <ele>1810</ele>
        <time>2021-08-07T08:45:35.642Z</time>
      </trkpt>
      <trkpt lat="46.91083" lon="8.67771">
        <ele>1810</ele>
        <time>2021-08-07T08:45:36.641Z</time>
      </trkpt>
      <trkpt lat="46.91083" lon="8.67769">
        <ele>1809</ele>
        <time>2021-08-07T08:45:37.642Z</time>
      </trkpt>
      <trkpt lat="46.91083" lon="8.67767">
        <ele>1809</ele>
        <time>2021-08-07T08:45:38.641Z</time>
      </trkpt>
      <trkpt lat="46.91083" lon="8.67766">
        <ele>1809</ele>
        <time>2021-08-07T08:45:39.641Z</time>
      </trkpt>
      <trkpt lat="46.91083" lon="8.67764">
        <ele>1809</ele>
        <time>2021-08-07T08:45:40.642Z</time>
      </trkpt>
      <trkpt lat="46.91083" lon="8.67762">
        <ele>1809</ele>
        <time>2021-08-07T08:45:41.641Z</time>
      </trkpt>
      <trkpt lat="46.91083" lon="8.67761">
        <ele>1809</ele>
        <time>2021-08-07T08:45:42.642Z</time>
      </trkpt>
      <trkpt lat="46.91082" lon="8.67759">
        <ele>1809</ele>
        <time>2021-08-07T08:45:43.642Z</time>
      </trkpt>
      <trkpt lat="46.91082" lon="8.67757">
        <ele>1809</ele>
        <time>2021-08-07T08:45:44.642Z</time>
      </trkpt>
      <trkpt lat="46.91082" lon="8.67756">
        <ele>1810</ele>
        <time>2021-08-07T08:45:45.642Z</time>
      </trkpt>
      <trkpt lat="46.91082" lon="8.67754">
        <ele>1810</ele>
        <time>2021-08-07T08:45:46.641Z</time>
      </trkpt>
      <trkpt lat="46.91082" lon="8.67753">
        <ele>1810</ele>
        <time>2021-08-07T08:45:47.642Z</time>
      </trkpt>
      <trkpt lat="46.91082" lon="8.67753">
        <ele>1810</ele>
        <time>2021-08-07T08:45:48.641Z</time>
      </trkpt>
      <trkpt lat="46.91083" lon="8.67755">
        <ele>1810</ele>
        <time>2021-08-07T08:45:49.642Z</time>
      </trkpt>
      <trkpt lat="46.91083" lon="8.67756">
        <ele>1811</ele>
        <time>2021-08-07T08:45:50.643Z</time>
      </trkpt>
      <trkpt lat="46.91083" lon="8.67756">
        <ele>1811</ele>
        <time>2021-08-07T08:45:51.643Z</time>
      </trkpt>
      <trkpt lat="46.91083" lon="8.67755">
        <ele>1812</ele>
        <time>2021-08-07T08:45:52.642Z</time>
      </trkpt>
      <trkpt lat="46.91084" lon="8.67749">
        <ele>1810</ele>
        <time>2021-08-07T08:45:53.643Z</time>
      </trkpt>
      <trkpt lat="46.91085" lon="8.67748">
        <ele>1810</ele>
        <time>2021-08-07T08:45:54.643Z</time>
      </trkpt>
      <trkpt lat="46.91084" lon="8.67747">
        <ele>1809</ele>
        <time>2021-08-07T08:45:55.643Z</time>
      </trkpt>
      <trkpt lat="46.91084" lon="8.67746">
        <ele>1809</ele>
        <time>2021-08-07T08:45:56.644Z</time>
      </trkpt>
      <trkpt lat="46.91084" lon="8.67745">
        <ele>1808</ele>
        <time>2021-08-07T08:45:57.643Z</time>
      </trkpt>
      <trkpt lat="46.91083" lon="8.67743">
        <ele>1808</ele>
        <time>2021-08-07T08:45:58.644Z</time>
      </trkpt>
      <trkpt lat="46.91083" lon="8.67742">
        <ele>1807</ele>
        <time>2021-08-07T08:45:59.643Z</time>
      </trkpt>
      <trkpt lat="46.91082" lon="8.6774">
        <ele>1807</ele>
        <time>2021-08-07T08:46:00.643Z</time>
      </trkpt>
      <trkpt lat="46.91082" lon="8.67739">
        <ele>1807</ele>
        <time>2021-08-07T08:46:01.643Z</time>
      </trkpt>
      <trkpt lat="46.91082" lon="8.67737">
        <ele>1807</ele>
        <time>2021-08-07T08:46:02.644Z</time>
      </trkpt>
      <trkpt lat="46.91081" lon="8.67735">
        <ele>1807</ele>
        <time>2021-08-07T08:46:03.644Z</time>
      </trkpt>
      <trkpt lat="46.91081" lon="8.67734">
        <ele>1806</ele>
        <time>2021-08-07T08:46:04.644Z</time>
      </trkpt>
      <trkpt lat="46.91081" lon="8.67733">
        <ele>1806</ele>
        <time>2021-08-07T08:46:05.643Z</time>
      </trkpt>
      <trkpt lat="46.91081" lon="8.67731">
        <ele>1806</ele>
        <time>2021-08-07T08:46:06.644Z</time>
      </trkpt>
      <trkpt lat="46.91081" lon="8.6773">
        <ele>1805</ele>
        <time>2021-08-07T08:46:07.643Z</time>
      </trkpt>
      <trkpt lat="46.91082" lon="8.67728">
        <ele>1805</ele>
        <time>2021-08-07T08:46:08.644Z</time>
      </trkpt>
      <trkpt lat="46.91083" lon="8.67726">
        <ele>1805</ele>
        <time>2021-08-07T08:46:09.644Z</time>
      </trkpt>
      <trkpt lat="46.91084" lon="8.67724">
        <ele>1805</ele>
        <time>2021-08-07T08:46:10.644Z</time>
      </trkpt>
      <trkpt lat="46.91084" lon="8.67723">
        <ele>1805</ele>
        <time>2021-08-07T08:46:11.643Z</time>
      </trkpt>
      <trkpt lat="46.91084" lon="8.6772">
        <ele>1804</ele>
        <time>2021-08-07T08:46:12.644Z</time>
      </trkpt>
      <trkpt lat="46.91085" lon="8.67718">
        <ele>1804</ele>
        <time>2021-08-07T08:46:13.643Z</time>
      </trkpt>
      <trkpt lat="46.91085" lon="8.67717">
        <ele>1803</ele>
        <time>2021-08-07T08:46:14.644Z</time>
      </trkpt>
      <trkpt lat="46.91085" lon="8.67716">
        <ele>1803</ele>
        <time>2021-08-07T08:46:15.643Z</time>
      </trkpt>
      <trkpt lat="46.91084" lon="8.67715">
        <ele>1802</ele>
        <time>2021-08-07T08:46:16.643Z</time>
      </trkpt>
      <trkpt lat="46.91083" lon="8.67714">
        <ele>1801</ele>
        <time>2021-08-07T08:46:17.644Z</time>
      </trkpt>
      <trkpt lat="46.91083" lon="8.67713">
        <ele>1800</ele>
        <time>2021-08-07T08:46:18.643Z</time>
      </trkpt>
      <trkpt lat="46.91083" lon="8.67712">
        <ele>1799</ele>
        <time>2021-08-07T08:46:19.644Z</time>
      </trkpt>
      <trkpt lat="46.91083" lon="8.67711">
        <ele>1798</ele>
        <time>2021-08-07T08:46:20.643Z</time>
      </trkpt>
      <trkpt lat="46.91083" lon="8.6771">
        <ele>1798</ele>
        <time>2021-08-07T08:46:21.643Z</time>
      </trkpt>
      <trkpt lat="46.91083" lon="8.67709">
        <ele>1797</ele>
        <time>2021-08-07T08:46:22.644Z</time>
      </trkpt>
      <trkpt lat="46.91083" lon="8.67708">
        <ele>1797</ele>
        <time>2021-08-07T08:46:23.643Z</time>
      </trkpt>
      <trkpt lat="46.91082" lon="8.67707">
        <ele>1797</ele>
        <time>2021-08-07T08:46:24.643Z</time>
      </trkpt>
      <trkpt lat="46.91083" lon="8.67706">
        <ele>1797</ele>
        <time>2021-08-07T08:46:25.644Z</time>
      </trkpt>
      <trkpt lat="46.91082" lon="8.67705">
        <ele>1797</ele>
        <time>2021-08-07T08:46:26.644Z</time>
      </trkpt>
      <trkpt lat="46.91082" lon="8.67705">
        <ele>1797</ele>
        <time>2021-08-07T08:46:27.644Z</time>
      </trkpt>
      <trkpt lat="46.91082" lon="8.67704">
        <ele>1797</ele>
        <time>2021-08-07T08:46:28.644Z</time>
      </trkpt>
      <trkpt lat="46.91082" lon="8.67703">
        <ele>1797</ele>
        <time>2021-08-07T08:46:29.643Z</time>
      </trkpt>
      <trkpt lat="46.91081" lon="8.67703">
        <ele>1796</ele>
        <time>2021-08-07T08:46:30.644Z</time>
      </trkpt>
      <trkpt lat="46.9108" lon="8.67703">
        <ele>1796</ele>
        <time>2021-08-07T08:46:31.644Z</time>
      </trkpt>
      <trkpt lat="46.91079" lon="8.67702">
        <ele>1796</ele>
        <time>2021-08-07T08:46:32.643Z</time>
      </trkpt>
      <trkpt lat="46.91079" lon="8.67701">
        <ele>1795</ele>
        <time>2021-08-07T08:46:33.643Z</time>
      </trkpt>
      <trkpt lat="46.91078" lon="8.677">
        <ele>1795</ele>
        <time>2021-08-07T08:46:34.644Z</time>
      </trkpt>
      <trkpt lat="46.91078" lon="8.67699">
        <ele>1795</ele>
        <time>2021-08-07T08:46:35.644Z</time>
      </trkpt>
      <trkpt lat="46.91079" lon="8.67698">
        <ele>1795</ele>
        <time>2021-08-07T08:46:36.643Z</time>
      </trkpt>
      <trkpt lat="46.91079" lon="8.67698">
        <ele>1795</ele>
        <time>2021-08-07T08:46:37.643Z</time>
      </trkpt>
      <trkpt lat="46.91078" lon="8.67698">
        <ele>1795</ele>
        <time>2021-08-07T08:46:38.643Z</time>
      </trkpt>
      <trkpt lat="46.91078" lon="8.67697">
        <ele>1795</ele>
        <time>2021-08-07T08:46:39.644Z</time>
      </trkpt>
      <trkpt lat="46.91077" lon="8.67696">
        <ele>1795</ele>
        <time>2021-08-07T08:46:40.643Z</time>
      </trkpt>
      <trkpt lat="46.91076" lon="8.67696">
        <ele>1795</ele>
        <time>2021-08-07T08:46:41.644Z</time>
      </trkpt>
      <trkpt lat="46.91076" lon="8.67695">
        <ele>1796</ele>
        <time>2021-08-07T08:46:42.643Z</time>
      </trkpt>
      <trkpt lat="46.91075" lon="8.67695">
        <ele>1796</ele>
        <time>2021-08-07T08:46:43.643Z</time>
      </trkpt>
      <trkpt lat="46.91075" lon="8.67693">
        <ele>1797</ele>
        <time>2021-08-07T08:46:44.644Z</time>
      </trkpt>
      <trkpt lat="46.91075" lon="8.67692">
        <ele>1797</ele>
        <time>2021-08-07T08:46:45.643Z</time>
      </trkpt>
      <trkpt lat="46.91075" lon="8.67692">
        <ele>1797</ele>
        <time>2021-08-07T08:46:46.643Z</time>
      </trkpt>
      <trkpt lat="46.91075" lon="8.67691">
        <ele>1797</ele>
        <time>2021-08-07T08:46:47.644Z</time>
      </trkpt>
      <trkpt lat="46.91075" lon="8.67691">
        <ele>1797</ele>
        <time>2021-08-07T08:46:48.644Z</time>
      </trkpt>
      <trkpt lat="46.91074" lon="8.6769">
        <ele>1796</ele>
        <time>2021-08-07T08:46:49.643Z</time>
      </trkpt>
      <trkpt lat="46.91074" lon="8.67689">
        <ele>1795</ele>
        <time>2021-08-07T08:46:50.644Z</time>
      </trkpt>
      <trkpt lat="46.91074" lon="8.67688">
        <ele>1795</ele>
        <time>2021-08-07T08:46:51.643Z</time>
      </trkpt>
      <trkpt lat="46.91073" lon="8.67686">
        <ele>1794</ele>
        <time>2021-08-07T08:46:52.643Z</time>
      </trkpt>
      <trkpt lat="46.91073" lon="8.67685">
        <ele>1793</ele>
        <time>2021-08-07T08:46:53.643Z</time>
      </trkpt>
      <trkpt lat="46.91072" lon="8.67684">
        <ele>1792</ele>
        <time>2021-08-07T08:46:54.644Z</time>
      </trkpt>
      <trkpt lat="46.91072" lon="8.67683">
        <ele>1792</ele>
        <time>2021-08-07T08:46:55.643Z</time>
      </trkpt>
      <trkpt lat="46.91071" lon="8.67682">
        <ele>1791</ele>
        <time>2021-08-07T08:46:56.643Z</time>
      </trkpt>
      <trkpt lat="46.9107" lon="8.67681">
        <ele>1791</ele>
        <time>2021-08-07T08:46:57.643Z</time>
      </trkpt>
      <trkpt lat="46.9107" lon="8.6768">
        <ele>1791</ele>
        <time>2021-08-07T08:46:58.643Z</time>
      </trkpt>
      <trkpt lat="46.9107" lon="8.67679">
        <ele>1791</ele>
        <time>2021-08-07T08:46:59.643Z</time>
      </trkpt>
      <trkpt lat="46.9107" lon="8.67678">
        <ele>1791</ele>
        <time>2021-08-07T08:47:00.643Z</time>
      </trkpt>
      <trkpt lat="46.91069" lon="8.67677">
        <ele>1791</ele>
        <time>2021-08-07T08:47:01.643Z</time>
      </trkpt>
      <trkpt lat="46.91069" lon="8.67676">
        <ele>1791</ele>
        <time>2021-08-07T08:47:02.643Z</time>
      </trkpt>
      <trkpt lat="46.91069" lon="8.67676">
        <ele>1791</ele>
        <time>2021-08-07T08:47:03.643Z</time>
      </trkpt>
      <trkpt lat="46.91069" lon="8.67674">
        <ele>1791</ele>
        <time>2021-08-07T08:47:04.643Z</time>
      </trkpt>
      <trkpt lat="46.91069" lon="8.67674">
        <ele>1790</ele>
        <time>2021-08-07T08:47:05.643Z</time>
      </trkpt>
      <trkpt lat="46.9107" lon="8.67674">
        <ele>1790</ele>
        <time>2021-08-07T08:47:06.643Z</time>
      </trkpt>
      <trkpt lat="46.9107" lon="8.67674">
        <ele>1789</ele>
        <time>2021-08-07T08:47:07.643Z</time>
      </trkpt>
      <trkpt lat="46.9107" lon="8.67674">
        <ele>1788</ele>
        <time>2021-08-07T08:47:08.644Z</time>
      </trkpt>
      <trkpt lat="46.9107" lon="8.67674">
        <ele>1787</ele>
        <time>2021-08-07T08:47:09.643Z</time>
      </trkpt>
      <trkpt lat="46.91071" lon="8.67674">
        <ele>1785</ele>
        <time>2021-08-07T08:47:10.644Z</time>
      </trkpt>
      <trkpt lat="46.91071" lon="8.67673">
        <ele>1785</ele>
        <time>2021-08-07T08:47:11.643Z</time>
      </trkpt>
      <trkpt lat="46.91071" lon="8.67672">
        <ele>1785</ele>
        <time>2021-08-07T08:47:12.644Z</time>
      </trkpt>
      <trkpt lat="46.91071" lon="8.67671">
        <ele>1785</ele>
        <time>2021-08-07T08:47:13.643Z</time>
      </trkpt>
      <trkpt lat="46.91072" lon="8.6767">
        <ele>1785</ele>
        <time>2021-08-07T08:47:22.743Z</time>
      </trkpt>
      <trkpt lat="46.91072" lon="8.67669">
        <ele>1785</ele>
        <time>2021-08-07T08:47:23.744Z</time>
      </trkpt>
      <trkpt lat="46.91072" lon="8.67667">
        <ele>1785</ele>
        <time>2021-08-07T08:47:24.743Z</time>
      </trkpt>
      <trkpt lat="46.91072" lon="8.67666">
        <ele>1785</ele>
        <time>2021-08-07T08:47:25.743Z</time>
      </trkpt>
      <trkpt lat="46.91071" lon="8.67665">
        <ele>1784</ele>
        <time>2021-08-07T08:47:26.743Z</time>
      </trkpt>
      <trkpt lat="46.91071" lon="8.67664">
        <ele>1784</ele>
        <time>2021-08-07T08:47:27.743Z</time>
      </trkpt>
      <trkpt lat="46.9107" lon="8.67663">
        <ele>1783</ele>
        <time>2021-08-07T08:47:28.743Z</time>
      </trkpt>
      <trkpt lat="46.9107" lon="8.67662">
        <ele>1783</ele>
        <time>2021-08-07T08:47:29.743Z</time>
      </trkpt>
      <trkpt lat="46.9107" lon="8.67662">
        <ele>1784</ele>
        <time>2021-08-07T08:47:30.743Z</time>
      </trkpt>
      <trkpt lat="46.9107" lon="8.67662">
        <ele>1785</ele>
        <time>2021-08-07T08:47:31.743Z</time>
      </trkpt>
      <trkpt lat="46.91071" lon="8.67661">
        <ele>1785</ele>
        <time>2021-08-07T08:47:32.744Z</time>
      </trkpt>
      <trkpt lat="46.91071" lon="8.67661">
        <ele>1786</ele>
        <time>2021-08-07T08:47:33.743Z</time>
      </trkpt>
      <trkpt lat="46.91072" lon="8.6766">
        <ele>1787</ele>
        <time>2021-08-07T08:47:34.743Z</time>
      </trkpt>
      <trkpt lat="46.91072" lon="8.67658">
        <ele>1788</ele>
        <time>2021-08-07T08:47:35.743Z</time>
      </trkpt>
      <trkpt lat="46.91072" lon="8.67657">
        <ele>1788</ele>
        <time>2021-08-07T08:47:36.744Z</time>
      </trkpt>
      <trkpt lat="46.91072" lon="8.67656">
        <ele>1789</ele>
        <time>2021-08-07T08:47:37.743Z</time>
      </trkpt>
      <trkpt lat="46.91072" lon="8.67655">
        <ele>1788</ele>
        <time>2021-08-07T08:47:38.744Z</time>
      </trkpt>
      <trkpt lat="46.91072" lon="8.67654">
        <ele>1788</ele>
        <time>2021-08-07T08:47:49.842Z</time>
      </trkpt>
      <trkpt lat="46.91071" lon="8.67653">
        <ele>1788</ele>
        <time>2021-08-07T08:47:50.842Z</time>
      </trkpt>
      <trkpt lat="46.9107" lon="8.67652">
        <ele>1788</ele>
        <time>2021-08-07T08:47:56.594Z</time>
      </trkpt>
      <trkpt lat="46.91069" lon="8.67651">
        <ele>1788</ele>
        <time>2021-08-07T08:47:57.593Z</time>
      </trkpt>
      <trkpt lat="46.91069" lon="8.67651">
        <ele>1787</ele>
        <time>2021-08-07T08:47:58.593Z</time>
      </trkpt>
      <trkpt lat="46.91069" lon="8.67651">
        <ele>1786</ele>
        <time>2021-08-07T08:47:59.593Z</time>
      </trkpt>
      <trkpt lat="46.91069" lon="8.6765">
        <ele>1785</ele>
        <time>2021-08-07T08:48:00.593Z</time>
      </trkpt>
      <trkpt lat="46.91068" lon="8.67649">
        <ele>1784</ele>
        <time>2021-08-07T08:48:01.593Z</time>
      </trkpt>
      <trkpt lat="46.91068" lon="8.67647">
        <ele>1784</ele>
        <time>2021-08-07T08:48:02.593Z</time>
      </trkpt>
      <trkpt lat="46.91067" lon="8.67646">
        <ele>1784</ele>
        <time>2021-08-07T08:48:03.594Z</time>
      </trkpt>
      <trkpt lat="46.91065" lon="8.67644">
        <ele>1784</ele>
        <time>2021-08-07T08:48:04.593Z</time>
      </trkpt>
      <trkpt lat="46.91063" lon="8.67642">
        <ele>1784</ele>
        <time>2021-08-07T08:48:05.593Z</time>
      </trkpt>
      <trkpt lat="46.91062" lon="8.6764">
        <ele>1784</ele>
        <time>2021-08-07T08:48:06.593Z</time>
      </trkpt>
      <trkpt lat="46.91061" lon="8.67639">
        <ele>1785</ele>
        <time>2021-08-07T08:48:07.593Z</time>
      </trkpt>
      <trkpt lat="46.9106" lon="8.67637">
        <ele>1785</ele>
        <time>2021-08-07T08:48:08.593Z</time>
      </trkpt>
      <trkpt lat="46.91059" lon="8.67636">
        <ele>1785</ele>
        <time>2021-08-07T08:48:09.593Z</time>
      </trkpt>
      <trkpt lat="46.91059" lon="8.67635">
        <ele>1784</ele>
        <time>2021-08-07T08:48:10.593Z</time>
      </trkpt>
      <trkpt lat="46.91058" lon="8.67635">
        <ele>1784</ele>
        <time>2021-08-07T08:48:11.593Z</time>
      </trkpt>
      <trkpt lat="46.91058" lon="8.67634">
        <ele>1784</ele>
        <time>2021-08-07T08:48:12.593Z</time>
      </trkpt>
      <trkpt lat="46.91058" lon="8.67633">
        <ele>1784</ele>
        <time>2021-08-07T08:48:13.593Z</time>
      </trkpt>
      <trkpt lat="46.91057" lon="8.67633">
        <ele>1784</ele>
        <time>2021-08-07T08:48:14.593Z</time>
      </trkpt>
      <trkpt lat="46.91057" lon="8.67633">
        <ele>1783</ele>
        <time>2021-08-07T08:48:15.594Z</time>
      </trkpt>
      <trkpt lat="46.91057" lon="8.67632">
        <ele>1783</ele>
        <time>2021-08-07T08:48:16.593Z</time>
      </trkpt>
      <trkpt lat="46.91058" lon="8.67631">
        <ele>1783</ele>
        <time>2021-08-07T08:48:17.594Z</time>
      </trkpt>
      <trkpt lat="46.91057" lon="8.6763">
        <ele>1783</ele>
        <time>2021-08-07T08:48:18.593Z</time>
      </trkpt>
      <trkpt lat="46.91057" lon="8.67629">
        <ele>1783</ele>
        <time>2021-08-07T08:48:19.594Z</time>
      </trkpt>
      <trkpt lat="46.91057" lon="8.67628">
        <ele>1782</ele>
        <time>2021-08-07T08:48:20.593Z</time>
      </trkpt>
      <trkpt lat="46.91057" lon="8.67628">
        <ele>1782</ele>
        <time>2021-08-07T08:48:21.594Z</time>
      </trkpt>
      <trkpt lat="46.91056" lon="8.67627">
        <ele>1782</ele>
        <time>2021-08-07T08:48:22.593Z</time>
      </trkpt>
      <trkpt lat="46.91057" lon="8.67626">
        <ele>1782</ele>
        <time>2021-08-07T08:48:23.593Z</time>
      </trkpt>
      <trkpt lat="46.91057" lon="8.67626">
        <ele>1782</ele>
        <time>2021-08-07T08:48:24.593Z</time>
      </trkpt>
      <trkpt lat="46.91057" lon="8.67626">
        <ele>1783</ele>
        <time>2021-08-07T08:48:25.593Z</time>
      </trkpt>
      <trkpt lat="46.91057" lon="8.67626">
        <ele>1783</ele>
        <time>2021-08-07T08:48:26.593Z</time>
      </trkpt>
      <trkpt lat="46.91056" lon="8.67626">
        <ele>1783</ele>
        <time>2021-08-07T08:48:27.594Z</time>
      </trkpt>
      <trkpt lat="46.91056" lon="8.67626">
        <ele>1783</ele>
        <time>2021-08-07T08:48:28.594Z</time>
      </trkpt>
      <trkpt lat="46.91055" lon="8.67624">
        <ele>1784</ele>
        <time>2021-08-07T08:48:29.594Z</time>
      </trkpt>
      <trkpt lat="46.91055" lon="8.67623">
        <ele>1784</ele>
        <time>2021-08-07T08:48:30.593Z</time>
      </trkpt>
      <trkpt lat="46.91055" lon="8.67621">
        <ele>1784</ele>
        <time>2021-08-07T08:48:31.593Z</time>
      </trkpt>
      <trkpt lat="46.91055" lon="8.67621">
        <ele>1785</ele>
        <time>2021-08-07T08:48:32.593Z</time>
      </trkpt>
      <trkpt lat="46.91055" lon="8.6762">
        <ele>1785</ele>
        <time>2021-08-07T08:48:33.593Z</time>
      </trkpt>
      <trkpt lat="46.91054" lon="8.6762">
        <ele>1785</ele>
        <time>2021-08-07T08:48:34.593Z</time>
      </trkpt>
      <trkpt lat="46.91054" lon="8.67618">
        <ele>1785</ele>
        <time>2021-08-07T08:48:35.593Z</time>
      </trkpt>
      <trkpt lat="46.91054" lon="8.67618">
        <ele>1785</ele>
        <time>2021-08-07T08:48:36.593Z</time>
      </trkpt>
      <trkpt lat="46.91055" lon="8.67618">
        <ele>1785</ele>
        <time>2021-08-07T08:48:37.594Z</time>
      </trkpt>
      <trkpt lat="46.91055" lon="8.67618">
        <ele>1785</ele>
        <time>2021-08-07T08:48:38.593Z</time>
      </trkpt>
      <trkpt lat="46.91055" lon="8.67618">
        <ele>1785</ele>
        <time>2021-08-07T08:48:39.593Z</time>
      </trkpt>
      <trkpt lat="46.91055" lon="8.6762">
        <ele>1783</ele>
        <time>2021-08-07T08:48:40.594Z</time>
      </trkpt>
      <trkpt lat="46.91055" lon="8.67621">
        <ele>1783</ele>
        <time>2021-08-07T08:48:41.593Z</time>
      </trkpt>
      <trkpt lat="46.91055" lon="8.67622">
        <ele>1782</ele>
        <time>2021-08-07T08:48:42.594Z</time>
      </trkpt>
      <trkpt lat="46.91055" lon="8.67622">
        <ele>1782</ele>
        <time>2021-08-07T08:48:43.594Z</time>
      </trkpt>
      <trkpt lat="46.91056" lon="8.67625">
        <ele>1780</ele>
        <time>2021-08-07T08:48:44.595Z</time>
      </trkpt>
      <trkpt lat="46.91056" lon="8.67625">
        <ele>1780</ele>
        <time>2021-08-07T08:48:45.595Z</time>
      </trkpt>
      <trkpt lat="46.91056" lon="8.67625">
        <ele>1780</ele>
        <time>2021-08-07T08:48:46.594Z</time>
      </trkpt>
      <trkpt lat="46.91054" lon="8.67624">
        <ele>1787</ele>
        <time>2021-08-07T08:48:47.595Z</time>
      </trkpt>
      <trkpt lat="46.91054" lon="8.67624">
        <ele>1787</ele>
        <time>2021-08-07T08:48:48.594Z</time>
      </trkpt>
      <trkpt lat="46.91053" lon="8.67624">
        <ele>1787</ele>
        <time>2021-08-07T08:48:49.595Z</time>
      </trkpt>
      <trkpt lat="46.91053" lon="8.67624">
        <ele>1787</ele>
        <time>2021-08-07T08:48:50.594Z</time>
      </trkpt>
      <trkpt lat="46.91055" lon="8.67623">
        <ele>1787</ele>
        <time>2021-08-07T08:48:51.595Z</time>
      </trkpt>
      <trkpt lat="46.91055" lon="8.67624">
        <ele>1787</ele>
        <time>2021-08-07T08:48:52.595Z</time>
      </trkpt>
      <trkpt lat="46.91056" lon="8.67624">
        <ele>1788</ele>
        <time>2021-08-07T08:48:53.594Z</time>
      </trkpt>
      <trkpt lat="46.91056" lon="8.67624">
        <ele>1789</ele>
        <time>2021-08-07T08:48:54.595Z</time>
      </trkpt>
      <trkpt lat="46.91056" lon="8.67624">
        <ele>1790</ele>
        <time>2021-08-07T08:48:55.594Z</time>
      </trkpt>
      <trkpt lat="46.91055" lon="8.67624">
        <ele>1792</ele>
        <time>2021-08-07T08:48:56.595Z</time>
      </trkpt>
      <trkpt lat="46.91055" lon="8.67623">
        <ele>1793</ele>
        <time>2021-08-07T08:48:57.595Z</time>
      </trkpt>
      <trkpt lat="46.91055" lon="8.67623">
        <ele>1794</ele>
        <time>2021-08-07T08:48:58.594Z</time>
      </trkpt>
      <trkpt lat="46.91054" lon="8.67623">
        <ele>1795</ele>
        <time>2021-08-07T08:48:59.594Z</time>
      </trkpt>
      <trkpt lat="46.91054" lon="8.67623">
        <ele>1796</ele>
        <time>2021-08-07T08:49:00.595Z</time>
      </trkpt>
      <trkpt lat="46.91055" lon="8.67622">
        <ele>1796</ele>
        <time>2021-08-07T08:49:01.594Z</time>
      </trkpt>
      <trkpt lat="46.91056" lon="8.67622">
        <ele>1795</ele>
        <time>2021-08-07T08:49:02.594Z</time>
      </trkpt>
      <trkpt lat="46.91056" lon="8.67628">
        <ele>1788</ele>
        <time>2021-08-07T08:49:03.594Z</time>
      </trkpt>
      <trkpt lat="46.9106" lon="8.67622">
        <ele>1785</ele>
        <time>2021-08-07T08:49:04.595Z</time>
      </trkpt>
      <trkpt lat="46.9106" lon="8.67621">
        <ele>1784</ele>
        <time>2021-08-07T08:49:05.594Z</time>
      </trkpt>
      <trkpt lat="46.91059" lon="8.6762">
        <ele>1781</ele>
        <time>2021-08-07T08:49:06.595Z</time>
      </trkpt>
      <trkpt lat="46.91059" lon="8.6762">
        <ele>1780</ele>
        <time>2021-08-07T08:49:07.595Z</time>
      </trkpt>
      <trkpt lat="46.91058" lon="8.6762">
        <ele>1780</ele>
        <time>2021-08-07T08:49:08.594Z</time>
      </trkpt>
      <trkpt lat="46.91055" lon="8.67616">
        <ele>1776</ele>
        <time>2021-08-07T08:49:09.595Z</time>
      </trkpt>
      <trkpt lat="46.91055" lon="8.67616">
        <ele>1775</ele>
        <time>2021-08-07T08:49:10.595Z</time>
      </trkpt>
      <trkpt lat="46.91055" lon="8.67616">
        <ele>1772</ele>
        <time>2021-08-07T08:49:11.595Z</time>
      </trkpt>
      <trkpt lat="46.91053" lon="8.67616">
        <ele>1771</ele>
        <time>2021-08-07T08:49:12.596Z</time>
      </trkpt>
      <trkpt lat="46.91054" lon="8.67617">
        <ele>1771</ele>
        <time>2021-08-07T08:49:13.597Z</time>
      </trkpt>
      <trkpt lat="46.91054" lon="8.67617">
        <ele>1771</ele>
        <time>2021-08-07T08:49:14.596Z</time>
      </trkpt>
      <trkpt lat="46.91054" lon="8.67617">
        <ele>1771</ele>
        <time>2021-08-07T08:49:15.596Z</time>
      </trkpt>
      <trkpt lat="46.91054" lon="8.67618">
        <ele>1771</ele>
        <time>2021-08-07T08:49:16.596Z</time>
      </trkpt>
      <trkpt lat="46.91055" lon="8.67617">
        <ele>1771</ele>
        <time>2021-08-07T08:49:17.596Z</time>
      </trkpt>
      <trkpt lat="46.91055" lon="8.67618">
        <ele>1773</ele>
        <time>2021-08-07T08:49:18.597Z</time>
      </trkpt>
      <trkpt lat="46.91055" lon="8.67618">
        <ele>1774</ele>
        <time>2021-08-07T08:49:19.597Z</time>
      </trkpt>
      <trkpt lat="46.91054" lon="8.67618">
        <ele>1774</ele>
        <time>2021-08-07T08:49:20.597Z</time>
      </trkpt>
      <trkpt lat="46.91054" lon="8.67618">
        <ele>1777</ele>
        <time>2021-08-07T08:49:21.597Z</time>
      </trkpt>
      <trkpt lat="46.91054" lon="8.67619">
        <ele>1778</ele>
        <time>2021-08-07T08:49:22.597Z</time>
      </trkpt>
      <trkpt lat="46.91051" lon="8.67614">
        <ele>1784</ele>
        <time>2021-08-07T08:49:23.597Z</time>
      </trkpt>
      <trkpt lat="46.91051" lon="8.67614">
        <ele>1784</ele>
        <time>2021-08-07T08:49:24.598Z</time>
      </trkpt>
      <trkpt lat="46.91049" lon="8.67614">
        <ele>1785</ele>
        <time>2021-08-07T08:49:25.600Z</time>
      </trkpt>
      <trkpt lat="46.91048" lon="8.67614">
        <ele>1784</ele>
        <time>2021-08-07T08:49:26.599Z</time>
      </trkpt>
      <trkpt lat="46.91048" lon="8.67613">
        <ele>1783</ele>
        <time>2021-08-07T08:49:27.599Z</time>
      </trkpt>
      <trkpt lat="46.91048" lon="8.67612">
        <ele>1783</ele>
        <time>2021-08-07T08:49:28.600Z</time>
      </trkpt>
      <trkpt lat="46.91047" lon="8.67611">
        <ele>1782</ele>
        <time>2021-08-07T08:49:32.753Z</time>
      </trkpt>
      <trkpt lat="46.91047" lon="8.6761">
        <ele>1782</ele>
        <time>2021-08-07T08:49:33.753Z</time>
      </trkpt>
      <trkpt lat="46.91047" lon="8.67609">
        <ele>1781</ele>
        <time>2021-08-07T08:49:51.519Z</time>
      </trkpt>
      <trkpt lat="46.91047" lon="8.67608">
        <ele>1781</ele>
        <time>2021-08-07T08:49:52.519Z</time>
      </trkpt>
      <trkpt lat="46.91047" lon="8.67607">
        <ele>1780</ele>
        <time>2021-08-07T08:49:53.518Z</time>
      </trkpt>
      <trkpt lat="46.91047" lon="8.67605">
        <ele>1780</ele>
        <time>2021-08-07T08:49:54.519Z</time>
      </trkpt>
      <trkpt lat="46.91047" lon="8.67604">
        <ele>1780</ele>
        <time>2021-08-07T08:49:55.519Z</time>
      </trkpt>
      <trkpt lat="46.91047" lon="8.67602">
        <ele>1780</ele>
        <time>2021-08-07T08:49:56.518Z</time>
      </trkpt>
      <trkpt lat="46.91047" lon="8.67601">
        <ele>1781</ele>
        <time>2021-08-07T08:49:57.519Z</time>
      </trkpt>
      <trkpt lat="46.91048" lon="8.67599">
        <ele>1781</ele>
        <time>2021-08-07T08:49:58.520Z</time>
      </trkpt>
      <trkpt lat="46.91048" lon="8.67598">
        <ele>1782</ele>
        <time>2021-08-07T08:49:59.519Z</time>
      </trkpt>
      <trkpt lat="46.91048" lon="8.67597">
        <ele>1783</ele>
        <time>2021-08-07T08:50:00.519Z</time>
      </trkpt>
      <trkpt lat="46.91048" lon="8.67596">
        <ele>1783</ele>
        <time>2021-08-07T08:50:01.520Z</time>
      </trkpt>
      <trkpt lat="46.91049" lon="8.67595">
        <ele>1783</ele>
        <time>2021-08-07T08:50:02.520Z</time>
      </trkpt>
      <trkpt lat="46.91049" lon="8.67594">
        <ele>1783</ele>
        <time>2021-08-07T08:50:03.520Z</time>
      </trkpt>
      <trkpt lat="46.91048" lon="8.67593">
        <ele>1782</ele>
        <time>2021-08-07T08:50:04.520Z</time>
      </trkpt>
      <trkpt lat="46.91047" lon="8.67592">
        <ele>1783</ele>
        <time>2021-08-07T08:50:05.520Z</time>
      </trkpt>
      <trkpt lat="46.91045" lon="8.67591">
        <ele>1783</ele>
        <time>2021-08-07T08:50:06.520Z</time>
      </trkpt>
      <trkpt lat="46.91044" lon="8.6759">
        <ele>1783</ele>
        <time>2021-08-07T08:50:07.520Z</time>
      </trkpt>
      <trkpt lat="46.91043" lon="8.67589">
        <ele>1784</ele>
        <time>2021-08-07T08:50:08.520Z</time>
      </trkpt>
      <trkpt lat="46.91042" lon="8.67588">
        <ele>1784</ele>
        <time>2021-08-07T08:50:09.519Z</time>
      </trkpt>
      <trkpt lat="46.91041" lon="8.67588">
        <ele>1784</ele>
        <time>2021-08-07T08:50:10.520Z</time>
      </trkpt>
      <trkpt lat="46.9104" lon="8.67587">
        <ele>1784</ele>
        <time>2021-08-07T08:50:11.519Z</time>
      </trkpt>
      <trkpt lat="46.9104" lon="8.67587">
        <ele>1784</ele>
        <time>2021-08-07T08:50:12.520Z</time>
      </trkpt>
      <trkpt lat="46.91039" lon="8.67586">
        <ele>1784</ele>
        <time>2021-08-07T08:50:13.520Z</time>
      </trkpt>
      <trkpt lat="46.91039" lon="8.67586">
        <ele>1783</ele>
        <time>2021-08-07T08:50:14.519Z</time>
      </trkpt>
      <trkpt lat="46.91038" lon="8.67585">
        <ele>1783</ele>
        <time>2021-08-07T08:50:15.519Z</time>
      </trkpt>
      <trkpt lat="46.91037" lon="8.67584">
        <ele>1782</ele>
        <time>2021-08-07T08:50:16.520Z</time>
      </trkpt>
      <trkpt lat="46.91036" lon="8.67582">
        <ele>1782</ele>
        <time>2021-08-07T08:50:17.520Z</time>
      </trkpt>
      <trkpt lat="46.91036" lon="8.67581">
        <ele>1781</ele>
        <time>2021-08-07T08:50:18.520Z</time>
      </trkpt>
      <trkpt lat="46.91035" lon="8.6758">
        <ele>1782</ele>
        <time>2021-08-07T08:50:19.519Z</time>
      </trkpt>
      <trkpt lat="46.91034" lon="8.67578">
        <ele>1782</ele>
        <time>2021-08-07T08:50:20.520Z</time>
      </trkpt>
      <trkpt lat="46.91033" lon="8.67576">
        <ele>1782</ele>
        <time>2021-08-07T08:50:21.519Z</time>
      </trkpt>
      <trkpt lat="46.91032" lon="8.67575">
        <ele>1782</ele>
        <time>2021-08-07T08:50:22.520Z</time>
      </trkpt>
      <trkpt lat="46.91031" lon="8.67572">
        <ele>1781</ele>
        <time>2021-08-07T08:50:23.520Z</time>
      </trkpt>
      <trkpt lat="46.91031" lon="8.67571">
        <ele>1780</ele>
        <time>2021-08-07T08:50:24.520Z</time>
      </trkpt>
      <trkpt lat="46.91029" lon="8.67569">
        <ele>1779</ele>
        <time>2021-08-07T08:50:25.520Z</time>
      </trkpt>
      <trkpt lat="46.91029" lon="8.67568">
        <ele>1778</ele>
        <time>2021-08-07T08:50:26.520Z</time>
      </trkpt>
      <trkpt lat="46.91028" lon="8.67567">
        <ele>1777</ele>
        <time>2021-08-07T08:50:27.520Z</time>
      </trkpt>
      <trkpt lat="46.91027" lon="8.67566">
        <ele>1776</ele>
        <time>2021-08-07T08:50:28.520Z</time>
      </trkpt>
      <trkpt lat="46.91027" lon="8.67565">
        <ele>1774</ele>
        <time>2021-08-07T08:50:29.520Z</time>
      </trkpt>
      <trkpt lat="46.91027" lon="8.67564">
        <ele>1773</ele>
        <time>2021-08-07T08:50:30.520Z</time>
      </trkpt>
      <trkpt lat="46.91026" lon="8.67562">
        <ele>1772</ele>
        <time>2021-08-07T08:50:31.519Z</time>
      </trkpt>
      <trkpt lat="46.91026" lon="8.67561">
        <ele>1771</ele>
        <time>2021-08-07T08:50:32.520Z</time>
      </trkpt>
      <trkpt lat="46.91026" lon="8.6756">
        <ele>1771</ele>
        <time>2021-08-07T08:50:33.519Z</time>
      </trkpt>
      <trkpt lat="46.91025" lon="8.67559">
        <ele>1770</ele>
        <time>2021-08-07T08:50:34.520Z</time>
      </trkpt>
      <trkpt lat="46.91025" lon="8.67558">
        <ele>1770</ele>
        <time>2021-08-07T08:50:35.520Z</time>
      </trkpt>
      <trkpt lat="46.91024" lon="8.67557">
        <ele>1770</ele>
        <time>2021-08-07T08:50:36.520Z</time>
      </trkpt>
      <trkpt lat="46.91024" lon="8.67556">
        <ele>1770</ele>
        <time>2021-08-07T08:50:37.520Z</time>
      </trkpt>
      <trkpt lat="46.91025" lon="8.67555">
        <ele>1769</ele>
        <time>2021-08-07T08:50:38.520Z</time>
      </trkpt>
      <trkpt lat="46.91024" lon="8.67554">
        <ele>1769</ele>
        <time>2021-08-07T08:50:39.519Z</time>
      </trkpt>
      <trkpt lat="46.91024" lon="8.67553">
        <ele>1768</ele>
        <time>2021-08-07T08:50:40.520Z</time>
      </trkpt>
      <trkpt lat="46.91024" lon="8.67553">
        <ele>1768</ele>
        <time>2021-08-07T08:50:41.520Z</time>
      </trkpt>
      <trkpt lat="46.91024" lon="8.67552">
        <ele>1768</ele>
        <time>2021-08-07T08:50:42.520Z</time>
      </trkpt>
      <trkpt lat="46.91023" lon="8.67551">
        <ele>1768</ele>
        <time>2021-08-07T08:50:43.520Z</time>
      </trkpt>
      <trkpt lat="46.91023" lon="8.6755">
        <ele>1768</ele>
        <time>2021-08-07T08:50:44.519Z</time>
      </trkpt>
      <trkpt lat="46.91022" lon="8.67549">
        <ele>1768</ele>
        <time>2021-08-07T08:50:45.519Z</time>
      </trkpt>
      <trkpt lat="46.91022" lon="8.67548">
        <ele>1768</ele>
        <time>2021-08-07T08:50:46.520Z</time>
      </trkpt>
      <trkpt lat="46.91021" lon="8.67547">
        <ele>1767</ele>
        <time>2021-08-07T08:50:47.519Z</time>
      </trkpt>
      <trkpt lat="46.91021" lon="8.67546">
        <ele>1767</ele>
        <time>2021-08-07T08:50:48.519Z</time>
      </trkpt>
      <trkpt lat="46.91021" lon="8.67544">
        <ele>1767</ele>
        <time>2021-08-07T08:50:49.520Z</time>
      </trkpt>
      <trkpt lat="46.91021" lon="8.67542">
        <ele>1767</ele>
        <time>2021-08-07T08:50:50.520Z</time>
      </trkpt>
      <trkpt lat="46.91022" lon="8.6754">
        <ele>1767</ele>
        <time>2021-08-07T08:50:51.520Z</time>
      </trkpt>
      <trkpt lat="46.91021" lon="8.67539">
        <ele>1767</ele>
        <time>2021-08-07T08:50:52.520Z</time>
      </trkpt>
      <trkpt lat="46.91021" lon="8.67538">
        <ele>1767</ele>
        <time>2021-08-07T08:50:53.520Z</time>
      </trkpt>
      <trkpt lat="46.91021" lon="8.67536">
        <ele>1767</ele>
        <time>2021-08-07T08:50:54.520Z</time>
      </trkpt>
      <trkpt lat="46.91021" lon="8.67535">
        <ele>1767</ele>
        <time>2021-08-07T08:50:55.520Z</time>
      </trkpt>
      <trkpt lat="46.91021" lon="8.67534">
        <ele>1768</ele>
        <time>2021-08-07T08:50:56.520Z</time>
      </trkpt>
      <trkpt lat="46.91022" lon="8.67532">
        <ele>1768</ele>
        <time>2021-08-07T08:50:57.520Z</time>
      </trkpt>
      <trkpt lat="46.91022" lon="8.67531">
        <ele>1768</ele>
        <time>2021-08-07T08:50:58.520Z</time>
      </trkpt>
      <trkpt lat="46.91022" lon="8.67529">
        <ele>1768</ele>
        <time>2021-08-07T08:50:59.519Z</time>
      </trkpt>
      <trkpt lat="46.91022" lon="8.67528">
        <ele>1768</ele>
        <time>2021-08-07T08:51:00.520Z</time>
      </trkpt>
      <trkpt lat="46.91022" lon="8.67526">
        <ele>1768</ele>
        <time>2021-08-07T08:51:01.519Z</time>
      </trkpt>
      <trkpt lat="46.91022" lon="8.67525">
        <ele>1768</ele>
        <time>2021-08-07T08:51:02.520Z</time>
      </trkpt>
      <trkpt lat="46.91023" lon="8.67524">
        <ele>1768</ele>
        <time>2021-08-07T08:51:03.520Z</time>
      </trkpt>
      <trkpt lat="46.91024" lon="8.67523">
        <ele>1769</ele>
        <time>2021-08-07T08:51:04.520Z</time>
      </trkpt>
      <trkpt lat="46.91024" lon="8.67523">
        <ele>1769</ele>
        <time>2021-08-07T08:51:05.520Z</time>
      </trkpt>
      <trkpt lat="46.91024" lon="8.67521">
        <ele>1769</ele>
        <time>2021-08-07T08:51:06.520Z</time>
      </trkpt>
      <trkpt lat="46.91024" lon="8.6752">
        <ele>1769</ele>
        <time>2021-08-07T08:51:07.520Z</time>
      </trkpt>
      <trkpt lat="46.91024" lon="8.67519">
        <ele>1769</ele>
        <time>2021-08-07T08:51:08.519Z</time>
      </trkpt>
      <trkpt lat="46.91024" lon="8.67517">
        <ele>1769</ele>
        <time>2021-08-07T08:51:09.520Z</time>
      </trkpt>
      <trkpt lat="46.91024" lon="8.67516">
        <ele>1769</ele>
        <time>2021-08-07T08:51:10.520Z</time>
      </trkpt>
      <trkpt lat="46.91025" lon="8.67515">
        <ele>1769</ele>
        <time>2021-08-07T08:51:11.520Z</time>
      </trkpt>
      <trkpt lat="46.91026" lon="8.67514">
        <ele>1768</ele>
        <time>2021-08-07T08:51:12.520Z</time>
      </trkpt>
      <trkpt lat="46.91025" lon="8.67513">
        <ele>1768</ele>
        <time>2021-08-07T08:51:13.520Z</time>
      </trkpt>
      <trkpt lat="46.91024" lon="8.67512">
        <ele>1768</ele>
        <time>2021-08-07T08:51:14.519Z</time>
      </trkpt>
      <trkpt lat="46.91024" lon="8.67511">
        <ele>1767</ele>
        <time>2021-08-07T08:51:15.519Z</time>
      </trkpt>
      <trkpt lat="46.91023" lon="8.6751">
        <ele>1767</ele>
        <time>2021-08-07T08:51:16.519Z</time>
      </trkpt>
      <trkpt lat="46.91023" lon="8.67509">
        <ele>1766</ele>
        <time>2021-08-07T08:51:17.520Z</time>
      </trkpt>
      <trkpt lat="46.91023" lon="8.67508">
        <ele>1766</ele>
        <time>2021-08-07T08:51:18.520Z</time>
      </trkpt>
      <trkpt lat="46.91023" lon="8.67507">
        <ele>1765</ele>
        <time>2021-08-07T08:51:19.520Z</time>
      </trkpt>
      <trkpt lat="46.91022" lon="8.67505">
        <ele>1764</ele>
        <time>2021-08-07T08:51:20.520Z</time>
      </trkpt>
      <trkpt lat="46.91022" lon="8.67504">
        <ele>1763</ele>
        <time>2021-08-07T08:51:21.519Z</time>
      </trkpt>
      <trkpt lat="46.91022" lon="8.67503">
        <ele>1762</ele>
        <time>2021-08-07T08:51:22.520Z</time>
      </trkpt>
      <trkpt lat="46.91021" lon="8.67501">
        <ele>1761</ele>
        <time>2021-08-07T08:51:23.519Z</time>
      </trkpt>
      <trkpt lat="46.91021" lon="8.675">
        <ele>1761</ele>
        <time>2021-08-07T08:51:24.520Z</time>
      </trkpt>
      <trkpt lat="46.91021" lon="8.67498">
        <ele>1760</ele>
        <time>2021-08-07T08:51:25.520Z</time>
      </trkpt>
      <trkpt lat="46.91021" lon="8.67497">
        <ele>1759</ele>
        <time>2021-08-07T08:51:26.520Z</time>
      </trkpt>
      <trkpt lat="46.9102" lon="8.67495">
        <ele>1759</ele>
        <time>2021-08-07T08:51:27.519Z</time>
      </trkpt>
      <trkpt lat="46.91021" lon="8.67493">
        <ele>1759</ele>
        <time>2021-08-07T08:51:28.520Z</time>
      </trkpt>
      <trkpt lat="46.91021" lon="8.67492">
        <ele>1758</ele>
        <time>2021-08-07T08:51:29.520Z</time>
      </trkpt>
      <trkpt lat="46.91021" lon="8.67491">
        <ele>1758</ele>
        <time>2021-08-07T08:51:30.520Z</time>
      </trkpt>
      <trkpt lat="46.9102" lon="8.67489">
        <ele>1758</ele>
        <time>2021-08-07T08:51:31.519Z</time>
      </trkpt>
      <trkpt lat="46.91019" lon="8.67488">
        <ele>1758</ele>
        <time>2021-08-07T08:51:32.519Z</time>
      </trkpt>
      <trkpt lat="46.91019" lon="8.67487">
        <ele>1758</ele>
        <time>2021-08-07T08:51:33.520Z</time>
      </trkpt>
      <trkpt lat="46.91018" lon="8.67486">
        <ele>1758</ele>
        <time>2021-08-07T08:51:34.520Z</time>
      </trkpt>
      <trkpt lat="46.91018" lon="8.67487">
        <ele>1758</ele>
        <time>2021-08-07T08:51:35.520Z</time>
      </trkpt>
      <trkpt lat="46.91018" lon="8.67487">
        <ele>1758</ele>
        <time>2021-08-07T08:51:36.520Z</time>
      </trkpt>
      <trkpt lat="46.91018" lon="8.67484">
        <ele>1758</ele>
        <time>2021-08-07T08:51:37.520Z</time>
      </trkpt>
      <trkpt lat="46.91017" lon="8.67483">
        <ele>1758</ele>
        <time>2021-08-07T08:51:38.520Z</time>
      </trkpt>
      <trkpt lat="46.91017" lon="8.67482">
        <ele>1758</ele>
        <time>2021-08-07T08:51:39.521Z</time>
      </trkpt>
      <trkpt lat="46.91017" lon="8.67482">
        <ele>1757</ele>
        <time>2021-08-07T08:51:40.521Z</time>
      </trkpt>
      <trkpt lat="46.91017" lon="8.67481">
        <ele>1757</ele>
        <time>2021-08-07T08:51:41.521Z</time>
      </trkpt>
      <trkpt lat="46.91018" lon="8.67485">
        <ele>1741</ele>
        <time>2021-08-07T08:51:42.521Z</time>
      </trkpt>
      <trkpt lat="46.91021" lon="8.67479">
        <ele>1751</ele>
        <time>2021-08-07T08:51:43.521Z</time>
      </trkpt>
      <trkpt lat="46.91022" lon="8.67478">
        <ele>1752</ele>
        <time>2021-08-07T08:51:44.521Z</time>
      </trkpt>
      <trkpt lat="46.91022" lon="8.67477">
        <ele>1752</ele>
        <time>2021-08-07T08:51:45.520Z</time>
      </trkpt>
      <trkpt lat="46.91022" lon="8.67475">
        <ele>1753</ele>
        <time>2021-08-07T08:51:46.521Z</time>
      </trkpt>
      <trkpt lat="46.91021" lon="8.67474">
        <ele>1753</ele>
        <time>2021-08-07T08:51:47.521Z</time>
      </trkpt>
      <trkpt lat="46.9102" lon="8.67474">
        <ele>1752</ele>
        <time>2021-08-07T08:51:48.521Z</time>
      </trkpt>
      <trkpt lat="46.91019" lon="8.67473">
        <ele>1752</ele>
        <time>2021-08-07T08:51:49.521Z</time>
      </trkpt>
      <trkpt lat="46.91018" lon="8.67472">
        <ele>1752</ele>
        <time>2021-08-07T08:51:50.520Z</time>
      </trkpt>
      <trkpt lat="46.91018" lon="8.67471">
        <ele>1752</ele>
        <time>2021-08-07T08:51:51.521Z</time>
      </trkpt>
      <trkpt lat="46.91017" lon="8.67469">
        <ele>1752</ele>
        <time>2021-08-07T08:51:52.520Z</time>
      </trkpt>
      <trkpt lat="46.91017" lon="8.67467">
        <ele>1752</ele>
        <time>2021-08-07T08:51:53.521Z</time>
      </trkpt>
      <trkpt lat="46.91017" lon="8.67466">
        <ele>1752</ele>
        <time>2021-08-07T08:51:54.520Z</time>
      </trkpt>
      <trkpt lat="46.91016" lon="8.67464">
        <ele>1752</ele>
        <time>2021-08-07T08:51:55.521Z</time>
      </trkpt>
      <trkpt lat="46.91015" lon="8.67463">
        <ele>1752</ele>
        <time>2021-08-07T08:51:56.521Z</time>
      </trkpt>
      <trkpt lat="46.91015" lon="8.67461">
        <ele>1752</ele>
        <time>2021-08-07T08:51:57.521Z</time>
      </trkpt>
      <trkpt lat="46.91014" lon="8.6746">
        <ele>1752</ele>
        <time>2021-08-07T08:51:58.521Z</time>
      </trkpt>
      <trkpt lat="46.91013" lon="8.67458">
        <ele>1752</ele>
        <time>2021-08-07T08:51:59.521Z</time>
      </trkpt>
      <trkpt lat="46.91014" lon="8.67457">
        <ele>1752</ele>
        <time>2021-08-07T08:52:00.520Z</time>
      </trkpt>
      <trkpt lat="46.91013" lon="8.67455">
        <ele>1752</ele>
        <time>2021-08-07T08:52:01.521Z</time>
      </trkpt>
      <trkpt lat="46.91013" lon="8.67454">
        <ele>1752</ele>
        <time>2021-08-07T08:52:02.521Z</time>
      </trkpt>
      <trkpt lat="46.91013" lon="8.67452">
        <ele>1752</ele>
        <time>2021-08-07T08:52:03.520Z</time>
      </trkpt>
      <trkpt lat="46.91012" lon="8.6745">
        <ele>1753</ele>
        <time>2021-08-07T08:52:04.521Z</time>
      </trkpt>
      <trkpt lat="46.91012" lon="8.67449">
        <ele>1753</ele>
        <time>2021-08-07T08:52:05.521Z</time>
      </trkpt>
      <trkpt lat="46.9101" lon="8.67448">
        <ele>1753</ele>
        <time>2021-08-07T08:52:06.521Z</time>
      </trkpt>
      <trkpt lat="46.91009" lon="8.67447">
        <ele>1753</ele>
        <time>2021-08-07T08:52:07.520Z</time>
      </trkpt>
      <trkpt lat="46.91008" lon="8.67447">
        <ele>1753</ele>
        <time>2021-08-07T08:52:08.521Z</time>
      </trkpt>
      <trkpt lat="46.91007" lon="8.67446">
        <ele>1753</ele>
        <time>2021-08-07T08:52:09.521Z</time>
      </trkpt>
      <trkpt lat="46.91006" lon="8.67445">
        <ele>1753</ele>
        <time>2021-08-07T08:52:10.521Z</time>
      </trkpt>
      <trkpt lat="46.91006" lon="8.67444">
        <ele>1753</ele>
        <time>2021-08-07T08:52:11.521Z</time>
      </trkpt>
      <trkpt lat="46.91006" lon="8.67443">
        <ele>1753</ele>
        <time>2021-08-07T08:52:12.521Z</time>
      </trkpt>
      <trkpt lat="46.91006" lon="8.67442">
        <ele>1752</ele>
        <time>2021-08-07T08:52:13.521Z</time>
      </trkpt>
      <trkpt lat="46.91005" lon="8.6744">
        <ele>1752</ele>
        <time>2021-08-07T08:52:14.521Z</time>
      </trkpt>
      <trkpt lat="46.91005" lon="8.67439">
        <ele>1752</ele>
        <time>2021-08-07T08:52:15.521Z</time>
      </trkpt>
      <trkpt lat="46.91004" lon="8.67438">
        <ele>1752</ele>
        <time>2021-08-07T08:52:16.521Z</time>
      </trkpt>
      <trkpt lat="46.91003" lon="8.67437">
        <ele>1752</ele>
        <time>2021-08-07T08:52:17.520Z</time>
      </trkpt>
      <trkpt lat="46.91002" lon="8.67435">
        <ele>1752</ele>
        <time>2021-08-07T08:52:18.521Z</time>
      </trkpt>
      <trkpt lat="46.91002" lon="8.67434">
        <ele>1752</ele>
        <time>2021-08-07T08:52:19.520Z</time>
      </trkpt>
      <trkpt lat="46.91001" lon="8.67433">
        <ele>1752</ele>
        <time>2021-08-07T08:52:20.520Z</time>
      </trkpt>
      <trkpt lat="46.91" lon="8.67431">
        <ele>1752</ele>
        <time>2021-08-07T08:52:21.521Z</time>
      </trkpt>
      <trkpt lat="46.90999" lon="8.6743">
        <ele>1752</ele>
        <time>2021-08-07T08:52:22.521Z</time>
      </trkpt>
      <trkpt lat="46.90999" lon="8.67428">
        <ele>1752</ele>
        <time>2021-08-07T08:52:23.521Z</time>
      </trkpt>
      <trkpt lat="46.90999" lon="8.67427">
        <ele>1752</ele>
        <time>2021-08-07T08:52:24.521Z</time>
      </trkpt>
      <trkpt lat="46.90999" lon="8.67425">
        <ele>1752</ele>
        <time>2021-08-07T08:52:25.521Z</time>
      </trkpt>
      <trkpt lat="46.90998" lon="8.67424">
        <ele>1752</ele>
        <time>2021-08-07T08:52:26.521Z</time>
      </trkpt>
      <trkpt lat="46.90997" lon="8.67423">
        <ele>1752</ele>
        <time>2021-08-07T08:52:27.521Z</time>
      </trkpt>
      <trkpt lat="46.90996" lon="8.67422">
        <ele>1752</ele>
        <time>2021-08-07T08:52:28.520Z</time>
      </trkpt>
      <trkpt lat="46.90995" lon="8.67421">
        <ele>1752</ele>
        <time>2021-08-07T08:52:29.520Z</time>
      </trkpt>
      <trkpt lat="46.90995" lon="8.6742">
        <ele>1752</ele>
        <time>2021-08-07T08:52:30.521Z</time>
      </trkpt>
      <trkpt lat="46.90994" lon="8.67419">
        <ele>1752</ele>
        <time>2021-08-07T08:52:31.521Z</time>
      </trkpt>
      <trkpt lat="46.90993" lon="8.67419">
        <ele>1753</ele>
        <time>2021-08-07T08:52:32.520Z</time>
      </trkpt>
      <trkpt lat="46.90992" lon="8.67418">
        <ele>1752</ele>
        <time>2021-08-07T08:52:33.520Z</time>
      </trkpt>
      <trkpt lat="46.9099" lon="8.67418">
        <ele>1752</ele>
        <time>2021-08-07T08:52:34.520Z</time>
      </trkpt>
      <trkpt lat="46.90989" lon="8.67417">
        <ele>1752</ele>
        <time>2021-08-07T08:52:35.520Z</time>
      </trkpt>
      <trkpt lat="46.90988" lon="8.67417">
        <ele>1753</ele>
        <time>2021-08-07T08:52:36.520Z</time>
      </trkpt>
      <trkpt lat="46.90987" lon="8.67417">
        <ele>1753</ele>
        <time>2021-08-07T08:52:37.521Z</time>
      </trkpt>
      <trkpt lat="46.90986" lon="8.67416">
        <ele>1753</ele>
        <time>2021-08-07T08:52:38.520Z</time>
      </trkpt>
      <trkpt lat="46.90985" lon="8.67416">
        <ele>1753</ele>
        <time>2021-08-07T08:52:39.521Z</time>
      </trkpt>
      <trkpt lat="46.90984" lon="8.67415">
        <ele>1754</ele>
        <time>2021-08-07T08:52:40.520Z</time>
      </trkpt>
      <trkpt lat="46.90983" lon="8.67414">
        <ele>1753</ele>
        <time>2021-08-07T08:52:41.521Z</time>
      </trkpt>
      <trkpt lat="46.90982" lon="8.67413">
        <ele>1753</ele>
        <time>2021-08-07T08:52:42.521Z</time>
      </trkpt>
      <trkpt lat="46.90981" lon="8.67412">
        <ele>1753</ele>
        <time>2021-08-07T08:52:43.521Z</time>
      </trkpt>
      <trkpt lat="46.9098" lon="8.67412">
        <ele>1753</ele>
        <time>2021-08-07T08:52:44.521Z</time>
      </trkpt>
      <trkpt lat="46.90979" lon="8.67411">
        <ele>1752</ele>
        <time>2021-08-07T08:52:45.521Z</time>
      </trkpt>
      <trkpt lat="46.90979" lon="8.67411">
        <ele>1752</ele>
        <time>2021-08-07T08:52:46.521Z</time>
      </trkpt>
      <trkpt lat="46.90978" lon="8.6741">
        <ele>1751</ele>
        <time>2021-08-07T08:52:47.521Z</time>
      </trkpt>
      <trkpt lat="46.90978" lon="8.6741">
        <ele>1751</ele>
        <time>2021-08-07T08:52:48.521Z</time>
      </trkpt>
      <trkpt lat="46.90977" lon="8.67409">
        <ele>1750</ele>
        <time>2021-08-07T08:52:49.521Z</time>
      </trkpt>
      <trkpt lat="46.90977" lon="8.6741">
        <ele>1749</ele>
        <time>2021-08-07T08:52:50.520Z</time>
      </trkpt>
      <trkpt lat="46.90977" lon="8.67408">
        <ele>1745</ele>
        <time>2021-08-07T08:52:51.523Z</time>
      </trkpt>
      <trkpt lat="46.90977" lon="8.67407">
        <ele>1744</ele>
        <time>2021-08-07T08:52:52.523Z</time>
      </trkpt>
      <trkpt lat="46.90977" lon="8.67407">
        <ele>1744</ele>
        <time>2021-08-07T08:52:53.523Z</time>
      </trkpt>
      <trkpt lat="46.90976" lon="8.67405">
        <ele>1744</ele>
        <time>2021-08-07T08:52:54.523Z</time>
      </trkpt>
      <trkpt lat="46.90975" lon="8.67405">
        <ele>1744</ele>
        <time>2021-08-07T08:52:55.522Z</time>
      </trkpt>
      <trkpt lat="46.90975" lon="8.67404">
        <ele>1744</ele>
        <time>2021-08-07T08:52:56.523Z</time>
      </trkpt>
      <trkpt lat="46.90975" lon="8.67403">
        <ele>1745</ele>
        <time>2021-08-07T08:52:57.522Z</time>
      </trkpt>
      <trkpt lat="46.90974" lon="8.67402">
        <ele>1745</ele>
        <time>2021-08-07T08:52:58.523Z</time>
      </trkpt>
      <trkpt lat="46.90973" lon="8.67401">
        <ele>1745</ele>
        <time>2021-08-07T08:52:59.523Z</time>
      </trkpt>
      <trkpt lat="46.90972" lon="8.67401">
        <ele>1746</ele>
        <time>2021-08-07T08:53:00.523Z</time>
      </trkpt>
      <trkpt lat="46.90971" lon="8.67399">
        <ele>1746</ele>
        <time>2021-08-07T08:53:01.523Z</time>
      </trkpt>
      <trkpt lat="46.9097" lon="8.67399">
        <ele>1746</ele>
        <time>2021-08-07T08:53:02.523Z</time>
      </trkpt>
      <trkpt lat="46.90968" lon="8.67398">
        <ele>1746</ele>
        <time>2021-08-07T08:53:03.522Z</time>
      </trkpt>
      <trkpt lat="46.90966" lon="8.67396">
        <ele>1746</ele>
        <time>2021-08-07T08:53:04.523Z</time>
      </trkpt>
      <trkpt lat="46.90965" lon="8.67395">
        <ele>1747</ele>
        <time>2021-08-07T08:53:05.522Z</time>
      </trkpt>
      <trkpt lat="46.90964" lon="8.67393">
        <ele>1747</ele>
        <time>2021-08-07T08:53:06.522Z</time>
      </trkpt>
      <trkpt lat="46.90964" lon="8.67392">
        <ele>1748</ele>
        <time>2021-08-07T08:53:07.522Z</time>
      </trkpt>
      <trkpt lat="46.90963" lon="8.67391">
        <ele>1748</ele>
        <time>2021-08-07T08:53:08.523Z</time>
      </trkpt>
      <trkpt lat="46.90961" lon="8.6739">
        <ele>1748</ele>
        <time>2021-08-07T08:53:09.522Z</time>
      </trkpt>
      <trkpt lat="46.90961" lon="8.67388">
        <ele>1748</ele>
        <time>2021-08-07T08:53:10.523Z</time>
      </trkpt>
      <trkpt lat="46.90959" lon="8.67387">
        <ele>1748</ele>
        <time>2021-08-07T08:53:11.523Z</time>
      </trkpt>
      <trkpt lat="46.90958" lon="8.67386">
        <ele>1747</ele>
        <time>2021-08-07T08:53:12.522Z</time>
      </trkpt>
      <trkpt lat="46.90958" lon="8.67384">
        <ele>1747</ele>
        <time>2021-08-07T08:53:13.523Z</time>
      </trkpt>
      <trkpt lat="46.90957" lon="8.67383">
        <ele>1747</ele>
        <time>2021-08-07T08:53:14.522Z</time>
      </trkpt>
      <trkpt lat="46.90957" lon="8.67381">
        <ele>1747</ele>
        <time>2021-08-07T08:53:15.522Z</time>
      </trkpt>
      <trkpt lat="46.90957" lon="8.6738">
        <ele>1747</ele>
        <time>2021-08-07T08:53:16.522Z</time>
      </trkpt>
      <trkpt lat="46.90957" lon="8.67379">
        <ele>1747</ele>
        <time>2021-08-07T08:53:17.522Z</time>
      </trkpt>
      <trkpt lat="46.90956" lon="8.67378">
        <ele>1747</ele>
        <time>2021-08-07T08:53:18.522Z</time>
      </trkpt>
      <trkpt lat="46.90956" lon="8.67378">
        <ele>1747</ele>
        <time>2021-08-07T08:53:19.523Z</time>
      </trkpt>
      <trkpt lat="46.90955" lon="8.67377">
        <ele>1747</ele>
        <time>2021-08-07T08:53:20.522Z</time>
      </trkpt>
      <trkpt lat="46.90954" lon="8.67376">
        <ele>1746</ele>
        <time>2021-08-07T08:53:21.522Z</time>
      </trkpt>
      <trkpt lat="46.90953" lon="8.67376">
        <ele>1746</ele>
        <time>2021-08-07T08:53:22.522Z</time>
      </trkpt>
      <trkpt lat="46.90953" lon="8.67375">
        <ele>1746</ele>
        <time>2021-08-07T08:53:23.522Z</time>
      </trkpt>
      <trkpt lat="46.90952" lon="8.67374">
        <ele>1746</ele>
        <time>2021-08-07T08:53:24.522Z</time>
      </trkpt>
      <trkpt lat="46.90951" lon="8.67374">
        <ele>1746</ele>
        <time>2021-08-07T08:53:25.522Z</time>
      </trkpt>
      <trkpt lat="46.90949" lon="8.67372">
        <ele>1747</ele>
        <time>2021-08-07T08:53:26.522Z</time>
      </trkpt>
      <trkpt lat="46.90948" lon="8.67371">
        <ele>1747</ele>
        <time>2021-08-07T08:53:27.522Z</time>
      </trkpt>
      <trkpt lat="46.90946" lon="8.6737">
        <ele>1748</ele>
        <time>2021-08-07T08:53:28.522Z</time>
      </trkpt>
      <trkpt lat="46.90944" lon="8.67369">
        <ele>1748</ele>
        <time>2021-08-07T08:53:29.522Z</time>
      </trkpt>
      <trkpt lat="46.90943" lon="8.67369">
        <ele>1749</ele>
        <time>2021-08-07T08:53:30.522Z</time>
      </trkpt>
      <trkpt lat="46.90942" lon="8.67368">
        <ele>1750</ele>
        <time>2021-08-07T08:53:31.522Z</time>
      </trkpt>
      <trkpt lat="46.90941" lon="8.67368">
        <ele>1750</ele>
        <time>2021-08-07T08:53:32.522Z</time>
      </trkpt>
      <trkpt lat="46.9094" lon="8.67367">
        <ele>1751</ele>
        <time>2021-08-07T08:53:33.522Z</time>
      </trkpt>
      <trkpt lat="46.90939" lon="8.67366">
        <ele>1751</ele>
        <time>2021-08-07T08:53:34.522Z</time>
      </trkpt>
      <trkpt lat="46.90939" lon="8.67365">
        <ele>1752</ele>
        <time>2021-08-07T08:53:35.522Z</time>
      </trkpt>
      <trkpt lat="46.90938" lon="8.67365">
        <ele>1752</ele>
        <time>2021-08-07T08:53:36.522Z</time>
      </trkpt>
      <trkpt lat="46.90937" lon="8.67364">
        <ele>1752</ele>
        <time>2021-08-07T08:53:37.522Z</time>
      </trkpt>
      <trkpt lat="46.90936" lon="8.67364">
        <ele>1752</ele>
        <time>2021-08-07T08:53:38.523Z</time>
      </trkpt>
      <trkpt lat="46.90935" lon="8.67363">
        <ele>1751</ele>
        <time>2021-08-07T08:53:39.522Z</time>
      </trkpt>
      <trkpt lat="46.90935" lon="8.67362">
        <ele>1751</ele>
        <time>2021-08-07T08:53:40.523Z</time>
      </trkpt>
      <trkpt lat="46.90935" lon="8.67363">
        <ele>1751</ele>
        <time>2021-08-07T08:53:41.522Z</time>
      </trkpt>
      <trkpt lat="46.90934" lon="8.67365">
        <ele>1751</ele>
        <time>2021-08-07T08:53:42.523Z</time>
      </trkpt>
      <trkpt lat="46.90933" lon="8.67366">
        <ele>1751</ele>
        <time>2021-08-07T08:53:43.523Z</time>
      </trkpt>
      <trkpt lat="46.90932" lon="8.67366">
        <ele>1751</ele>
        <time>2021-08-07T08:53:44.523Z</time>
      </trkpt>
      <trkpt lat="46.90931" lon="8.67366">
        <ele>1752</ele>
        <time>2021-08-07T08:53:45.523Z</time>
      </trkpt>
      <trkpt lat="46.9093" lon="8.67366">
        <ele>1752</ele>
        <time>2021-08-07T08:53:46.523Z</time>
      </trkpt>
      <trkpt lat="46.9093" lon="8.67365">
        <ele>1752</ele>
        <time>2021-08-07T08:53:47.522Z</time>
      </trkpt>
      <trkpt lat="46.90928" lon="8.67365">
        <ele>1752</ele>
        <time>2021-08-07T08:53:48.523Z</time>
      </trkpt>
      <trkpt lat="46.90927" lon="8.67365">
        <ele>1752</ele>
        <time>2021-08-07T08:53:49.522Z</time>
      </trkpt>
      <trkpt lat="46.90927" lon="8.67365">
        <ele>1752</ele>
        <time>2021-08-07T08:53:50.523Z</time>
      </trkpt>
      <trkpt lat="46.90926" lon="8.67364">
        <ele>1751</ele>
        <time>2021-08-07T08:53:51.523Z</time>
      </trkpt>
      <trkpt lat="46.90925" lon="8.67364">
        <ele>1750</ele>
        <time>2021-08-07T08:53:52.523Z</time>
      </trkpt>
      <trkpt lat="46.90924" lon="8.67364">
        <ele>1750</ele>
        <time>2021-08-07T08:53:53.523Z</time>
      </trkpt>
      <trkpt lat="46.90923" lon="8.67364">
        <ele>1749</ele>
        <time>2021-08-07T08:53:54.523Z</time>
      </trkpt>
      <trkpt lat="46.90922" lon="8.67364">
        <ele>1748</ele>
        <time>2021-08-07T08:53:55.523Z</time>
      </trkpt>
      <trkpt lat="46.90922" lon="8.67363">
        <ele>1748</ele>
        <time>2021-08-07T08:53:56.523Z</time>
      </trkpt>
      <trkpt lat="46.90921" lon="8.67363">
        <ele>1747</ele>
        <time>2021-08-07T08:53:57.523Z</time>
      </trkpt>
      <trkpt lat="46.90922" lon="8.67362">
        <ele>1747</ele>
        <time>2021-08-07T08:53:58.522Z</time>
      </trkpt>
      <trkpt lat="46.90922" lon="8.67361">
        <ele>1746</ele>
        <time>2021-08-07T08:53:59.522Z</time>
      </trkpt>
      <trkpt lat="46.90922" lon="8.67361">
        <ele>1746</ele>
        <time>2021-08-07T08:54:00.523Z</time>
      </trkpt>
      <trkpt lat="46.90922" lon="8.67362">
        <ele>1745</ele>
        <time>2021-08-07T08:54:01.523Z</time>
      </trkpt>
      <trkpt lat="46.90923" lon="8.67362">
        <ele>1744</ele>
        <time>2021-08-07T08:54:02.522Z</time>
      </trkpt>
      <trkpt lat="46.90923" lon="8.67362">
        <ele>1743</ele>
        <time>2021-08-07T08:54:03.522Z</time>
      </trkpt>
      <trkpt lat="46.90923" lon="8.67362">
        <ele>1743</ele>
        <time>2021-08-07T08:54:04.523Z</time>
      </trkpt>
      <trkpt lat="46.90922" lon="8.67361">
        <ele>1742</ele>
        <time>2021-08-07T08:54:05.523Z</time>
      </trkpt>
      <trkpt lat="46.90922" lon="8.67361">
        <ele>1741</ele>
        <time>2021-08-07T08:54:06.522Z</time>
      </trkpt>
      <trkpt lat="46.90922" lon="8.6736">
        <ele>1740</ele>
        <time>2021-08-07T08:54:07.523Z</time>
      </trkpt>
      <trkpt lat="46.90922" lon="8.6736">
        <ele>1739</ele>
        <time>2021-08-07T08:54:08.522Z</time>
      </trkpt>
      <trkpt lat="46.90921" lon="8.6736">
        <ele>1739</ele>
        <time>2021-08-07T08:54:09.523Z</time>
      </trkpt>
      <trkpt lat="46.90921" lon="8.6736">
        <ele>1738</ele>
        <time>2021-08-07T08:54:10.523Z</time>
      </trkpt>
      <trkpt lat="46.90919" lon="8.6736">
        <ele>1738</ele>
        <time>2021-08-07T08:54:11.523Z</time>
      </trkpt>
      <trkpt lat="46.90918" lon="8.6736">
        <ele>1737</ele>
        <time>2021-08-07T08:54:12.522Z</time>
      </trkpt>
      <trkpt lat="46.90918" lon="8.6736">
        <ele>1737</ele>
        <time>2021-08-07T08:54:13.523Z</time>
      </trkpt>
      <trkpt lat="46.90917" lon="8.6736">
        <ele>1737</ele>
        <time>2021-08-07T08:54:14.522Z</time>
      </trkpt>
      <trkpt lat="46.90916" lon="8.67359">
        <ele>1736</ele>
        <time>2021-08-07T08:54:15.523Z</time>
      </trkpt>
      <trkpt lat="46.90915" lon="8.67358">
        <ele>1736</ele>
        <time>2021-08-07T08:54:16.522Z</time>
      </trkpt>
      <trkpt lat="46.90915" lon="8.67358">
        <ele>1736</ele>
        <time>2021-08-07T08:54:17.522Z</time>
      </trkpt>
      <trkpt lat="46.90915" lon="8.67358">
        <ele>1735</ele>
        <time>2021-08-07T08:54:18.523Z</time>
      </trkpt>
      <trkpt lat="46.90917" lon="8.6736">
        <ele>1734</ele>
        <time>2021-08-07T08:54:19.523Z</time>
      </trkpt>
      <trkpt lat="46.90917" lon="8.67361">
        <ele>1732</ele>
        <time>2021-08-07T08:54:20.524Z</time>
      </trkpt>
      <trkpt lat="46.90917" lon="8.67361">
        <ele>1730</ele>
        <time>2021-08-07T08:54:21.524Z</time>
      </trkpt>
      <trkpt lat="46.90916" lon="8.67361">
        <ele>1729</ele>
        <time>2021-08-07T08:54:22.523Z</time>
      </trkpt>
      <trkpt lat="46.90917" lon="8.67359">
        <ele>1724</ele>
        <time>2021-08-07T08:54:23.523Z</time>
      </trkpt>
      <trkpt lat="46.90916" lon="8.6736">
        <ele>1724</ele>
        <time>2021-08-07T08:54:24.523Z</time>
      </trkpt>
      <trkpt lat="46.90916" lon="8.67359">
        <ele>1724</ele>
        <time>2021-08-07T08:54:25.523Z</time>
      </trkpt>
      <trkpt lat="46.90918" lon="8.6736">
        <ele>1725</ele>
        <time>2021-08-07T08:54:26.525Z</time>
      </trkpt>
      <trkpt lat="46.90918" lon="8.67361">
        <ele>1725</ele>
        <time>2021-08-07T08:54:27.525Z</time>
      </trkpt>
      <trkpt lat="46.90919" lon="8.67362">
        <ele>1726</ele>
        <time>2021-08-07T08:54:28.525Z</time>
      </trkpt>
      <trkpt lat="46.90919" lon="8.67363">
        <ele>1726</ele>
        <time>2021-08-07T08:54:29.525Z</time>
      </trkpt>
      <trkpt lat="46.90919" lon="8.67363">
        <ele>1727</ele>
        <time>2021-08-07T08:54:30.525Z</time>
      </trkpt>
      <trkpt lat="46.9092" lon="8.67363">
        <ele>1727</ele>
        <time>2021-08-07T08:54:31.525Z</time>
      </trkpt>
      <trkpt lat="46.90921" lon="8.67363">
        <ele>1728</ele>
        <time>2021-08-07T08:54:32.524Z</time>
      </trkpt>
      <trkpt lat="46.90921" lon="8.67363">
        <ele>1729</ele>
        <time>2021-08-07T08:54:33.525Z</time>
      </trkpt>
      <trkpt lat="46.90921" lon="8.67363">
        <ele>1730</ele>
        <time>2021-08-07T08:54:34.525Z</time>
      </trkpt>
      <trkpt lat="46.90922" lon="8.67363">
        <ele>1731</ele>
        <time>2021-08-07T08:54:35.524Z</time>
      </trkpt>
      <trkpt lat="46.90923" lon="8.67363">
        <ele>1732</ele>
        <time>2021-08-07T08:54:36.525Z</time>
      </trkpt>
      <trkpt lat="46.90924" lon="8.67363">
        <ele>1733</ele>
        <time>2021-08-07T08:54:37.525Z</time>
      </trkpt>
      <trkpt lat="46.90925" lon="8.67362">
        <ele>1733</ele>
        <time>2021-08-07T08:54:38.524Z</time>
      </trkpt>
      <trkpt lat="46.90925" lon="8.67362">
        <ele>1734</ele>
        <time>2021-08-07T08:54:39.524Z</time>
      </trkpt>
      <trkpt lat="46.90926" lon="8.67361">
        <ele>1735</ele>
        <time>2021-08-07T08:54:40.525Z</time>
      </trkpt>
      <trkpt lat="46.90927" lon="8.6736">
        <ele>1735</ele>
        <time>2021-08-07T08:54:41.525Z</time>
      </trkpt>
      <trkpt lat="46.90928" lon="8.67358">
        <ele>1736</ele>
        <time>2021-08-07T08:54:42.525Z</time>
      </trkpt>
      <trkpt lat="46.90928" lon="8.67357">
        <ele>1736</ele>
        <time>2021-08-07T08:54:43.525Z</time>
      </trkpt>
      <trkpt lat="46.90929" lon="8.67356">
        <ele>1737</ele>
        <time>2021-08-07T08:54:44.525Z</time>
      </trkpt>
      <trkpt lat="46.9093" lon="8.67355">
        <ele>1737</ele>
        <time>2021-08-07T08:54:45.524Z</time>
      </trkpt>
      <trkpt lat="46.90931" lon="8.67354">
        <ele>1737</ele>
        <time>2021-08-07T08:54:46.525Z</time>
      </trkpt>
      <trkpt lat="46.90932" lon="8.67352">
        <ele>1737</ele>
        <time>2021-08-07T08:54:47.524Z</time>
      </trkpt>
      <trkpt lat="46.90933" lon="8.67351">
        <ele>1737</ele>
        <time>2021-08-07T08:54:48.525Z</time>
      </trkpt>
      <trkpt lat="46.90933" lon="8.6735">
        <ele>1738</ele>
        <time>2021-08-07T08:54:49.525Z</time>
      </trkpt>
      <trkpt lat="46.90933" lon="8.6735">
        <ele>1738</ele>
        <time>2021-08-07T08:54:50.525Z</time>
      </trkpt>
      <trkpt lat="46.90934" lon="8.67349">
        <ele>1738</ele>
        <time>2021-08-07T08:54:51.525Z</time>
      </trkpt>
      <trkpt lat="46.90935" lon="8.67348">
        <ele>1739</ele>
        <time>2021-08-07T08:54:52.525Z</time>
      </trkpt>
      <trkpt lat="46.90935" lon="8.67348">
        <ele>1739</ele>
        <time>2021-08-07T08:54:53.524Z</time>
      </trkpt>
      <trkpt lat="46.90935" lon="8.67348">
        <ele>1739</ele>
        <time>2021-08-07T08:54:54.525Z</time>
      </trkpt>
      <trkpt lat="46.90936" lon="8.67348">
        <ele>1739</ele>
        <time>2021-08-07T08:54:55.525Z</time>
      </trkpt>
      <trkpt lat="46.90936" lon="8.67347">
        <ele>1739</ele>
        <time>2021-08-07T08:54:56.526Z</time>
      </trkpt>
      <trkpt lat="46.90936" lon="8.67347">
        <ele>1740</ele>
        <time>2021-08-07T08:54:57.525Z</time>
      </trkpt>
      <trkpt lat="46.90936" lon="8.67348">
        <ele>1740</ele>
        <time>2021-08-07T08:54:58.526Z</time>
      </trkpt>
      <trkpt lat="46.90936" lon="8.67347">
        <ele>1741</ele>
        <time>2021-08-07T08:54:59.526Z</time>
      </trkpt>
      <trkpt lat="46.90936" lon="8.67347">
        <ele>1741</ele>
        <time>2021-08-07T08:55:00.526Z</time>
      </trkpt>
      <trkpt lat="46.90936" lon="8.67346">
        <ele>1742</ele>
        <time>2021-08-07T08:55:01.526Z</time>
      </trkpt>
      <trkpt lat="46.90936" lon="8.67346">
        <ele>1742</ele>
        <time>2021-08-07T08:55:02.526Z</time>
      </trkpt>
      <trkpt lat="46.90937" lon="8.67347">
        <ele>1742</ele>
        <time>2021-08-07T08:55:03.527Z</time>
      </trkpt>
      <trkpt lat="46.90937" lon="8.67347">
        <ele>1742</ele>
        <time>2021-08-07T08:55:04.526Z</time>
      </trkpt>
      <trkpt lat="46.90938" lon="8.67347">
        <ele>1742</ele>
        <time>2021-08-07T08:55:05.526Z</time>
      </trkpt>
      <trkpt lat="46.90939" lon="8.67346">
        <ele>1742</ele>
        <time>2021-08-07T08:55:06.527Z</time>
      </trkpt>
      <trkpt lat="46.9094" lon="8.67344">
        <ele>1743</ele>
        <time>2021-08-07T08:55:07.527Z</time>
      </trkpt>
      <trkpt lat="46.9094" lon="8.67342">
        <ele>1743</ele>
        <time>2021-08-07T08:55:08.527Z</time>
      </trkpt>
      <trkpt lat="46.9094" lon="8.6734">
        <ele>1743</ele>
        <time>2021-08-07T08:55:09.527Z</time>
      </trkpt>
      <trkpt lat="46.90939" lon="8.67338">
        <ele>1743</ele>
        <time>2021-08-07T08:55:15.636Z</time>
      </trkpt>
      <trkpt lat="46.90939" lon="8.67337">
        <ele>1743</ele>
        <time>2021-08-07T08:55:16.637Z</time>
      </trkpt>
      <trkpt lat="46.90939" lon="8.67335">
        <ele>1743</ele>
        <time>2021-08-07T08:55:17.637Z</time>
      </trkpt>
      <trkpt lat="46.9094" lon="8.67334">
        <ele>1743</ele>
        <time>2021-08-07T08:55:18.637Z</time>
      </trkpt>
      <trkpt lat="46.90939" lon="8.67333">
        <ele>1744</ele>
        <time>2021-08-07T08:55:19.637Z</time>
      </trkpt>
      <trkpt lat="46.90939" lon="8.67332">
        <ele>1744</ele>
        <time>2021-08-07T08:55:20.637Z</time>
      </trkpt>
      <trkpt lat="46.90938" lon="8.67331">
        <ele>1744</ele>
        <time>2021-08-07T08:55:21.637Z</time>
      </trkpt>
      <trkpt lat="46.90938" lon="8.6733">
        <ele>1744</ele>
        <time>2021-08-07T08:55:22.637Z</time>
      </trkpt>
      <trkpt lat="46.90937" lon="8.67329">
        <ele>1744</ele>
        <time>2021-08-07T08:55:23.637Z</time>
      </trkpt>
      <trkpt lat="46.90936" lon="8.67328">
        <ele>1744</ele>
        <time>2021-08-07T08:55:24.637Z</time>
      </trkpt>
      <trkpt lat="46.90936" lon="8.67327">
        <ele>1743</ele>
        <time>2021-08-07T08:55:25.637Z</time>
      </trkpt>
      <trkpt lat="46.90935" lon="8.67325">
        <ele>1743</ele>
        <time>2021-08-07T08:55:26.637Z</time>
      </trkpt>
      <trkpt lat="46.90935" lon="8.67325">
        <ele>1743</ele>
        <time>2021-08-07T08:55:27.637Z</time>
      </trkpt>
      <trkpt lat="46.90934" lon="8.67323">
        <ele>1742</ele>
        <time>2021-08-07T08:55:28.637Z</time>
      </trkpt>
      <trkpt lat="46.90932" lon="8.67323">
        <ele>1742</ele>
        <time>2021-08-07T08:55:29.637Z</time>
      </trkpt>
      <trkpt lat="46.90931" lon="8.67322">
        <ele>1741</ele>
        <time>2021-08-07T08:55:30.637Z</time>
      </trkpt>
      <trkpt lat="46.9093" lon="8.67322">
        <ele>1742</ele>
        <time>2021-08-07T08:55:31.636Z</time>
      </trkpt>
      <trkpt lat="46.9093" lon="8.67321">
        <ele>1742</ele>
        <time>2021-08-07T08:55:32.637Z</time>
      </trkpt>
      <trkpt lat="46.9093" lon="8.6732">
        <ele>1742</ele>
        <time>2021-08-07T08:55:33.637Z</time>
      </trkpt>
      <trkpt lat="46.9093" lon="8.67318">
        <ele>1742</ele>
        <time>2021-08-07T08:55:34.637Z</time>
      </trkpt>
      <trkpt lat="46.9093" lon="8.67317">
        <ele>1742</ele>
        <time>2021-08-07T08:55:35.636Z</time>
      </trkpt>
      <trkpt lat="46.9093" lon="8.67315">
        <ele>1742</ele>
        <time>2021-08-07T08:55:36.637Z</time>
      </trkpt>
      <trkpt lat="46.9093" lon="8.67314">
        <ele>1741</ele>
        <time>2021-08-07T08:55:37.637Z</time>
      </trkpt>
      <trkpt lat="46.90931" lon="8.67312">
        <ele>1741</ele>
        <time>2021-08-07T08:55:38.637Z</time>
      </trkpt>
      <trkpt lat="46.90931" lon="8.6731">
        <ele>1740</ele>
        <time>2021-08-07T08:55:39.637Z</time>
      </trkpt>
      <trkpt lat="46.90931" lon="8.67308">
        <ele>1740</ele>
        <time>2021-08-07T08:55:40.637Z</time>
      </trkpt>
      <trkpt lat="46.90931" lon="8.67308">
        <ele>1740</ele>
        <time>2021-08-07T08:55:41.637Z</time>
      </trkpt>
      <trkpt lat="46.90932" lon="8.67307">
        <ele>1739</ele>
        <time>2021-08-07T08:55:42.637Z</time>
      </trkpt>
      <trkpt lat="46.90932" lon="8.67305">
        <ele>1739</ele>
        <time>2021-08-07T08:55:43.637Z</time>
      </trkpt>
      <trkpt lat="46.90933" lon="8.67304">
        <ele>1738</ele>
        <time>2021-08-07T08:55:44.636Z</time>
      </trkpt>
      <trkpt lat="46.90933" lon="8.67303">
        <ele>1738</ele>
        <time>2021-08-07T08:55:45.637Z</time>
      </trkpt>
      <trkpt lat="46.90932" lon="8.67302">
        <ele>1738</ele>
        <time>2021-08-07T08:55:46.637Z</time>
      </trkpt>
      <trkpt lat="46.90932" lon="8.67301">
        <ele>1737</ele>
        <time>2021-08-07T08:55:47.637Z</time>
      </trkpt>
      <trkpt lat="46.90933" lon="8.673">
        <ele>1737</ele>
        <time>2021-08-07T08:55:48.637Z</time>
      </trkpt>
      <trkpt lat="46.90933" lon="8.67298">
        <ele>1736</ele>
        <time>2021-08-07T08:55:49.637Z</time>
      </trkpt>
      <trkpt lat="46.90934" lon="8.67297">
        <ele>1736</ele>
        <time>2021-08-07T08:55:50.637Z</time>
      </trkpt>
      <trkpt lat="46.90934" lon="8.67296">
        <ele>1736</ele>
        <time>2021-08-07T08:55:51.637Z</time>
      </trkpt>
      <trkpt lat="46.90934" lon="8.67295">
        <ele>1736</ele>
        <time>2021-08-07T08:55:52.636Z</time>
      </trkpt>
      <trkpt lat="46.90934" lon="8.67295">
        <ele>1735</ele>
        <time>2021-08-07T08:55:53.637Z</time>
      </trkpt>
      <trkpt lat="46.90933" lon="8.67295">
        <ele>1735</ele>
        <time>2021-08-07T08:55:54.637Z</time>
      </trkpt>
      <trkpt lat="46.90932" lon="8.67295">
        <ele>1735</ele>
        <time>2021-08-07T08:55:55.638Z</time>
      </trkpt>
      <trkpt lat="46.90932" lon="8.67295">
        <ele>1735</ele>
        <time>2021-08-07T08:55:56.637Z</time>
      </trkpt>
      <trkpt lat="46.90931" lon="8.67296">
        <ele>1734</ele>
        <time>2021-08-07T08:55:57.637Z</time>
      </trkpt>
      <trkpt lat="46.9093" lon="8.67297">
        <ele>1731</ele>
        <time>2021-08-07T08:55:58.638Z</time>
      </trkpt>
      <trkpt lat="46.9093" lon="8.67298">
        <ele>1732</ele>
        <time>2021-08-07T08:55:59.637Z</time>
      </trkpt>
      <trkpt lat="46.9093" lon="8.67299">
        <ele>1732</ele>
        <time>2021-08-07T08:56:00.637Z</time>
      </trkpt>
      <trkpt lat="46.9093" lon="8.67299">
        <ele>1733</ele>
        <time>2021-08-07T08:56:01.637Z</time>
      </trkpt>
      <trkpt lat="46.90931" lon="8.67299">
        <ele>1734</ele>
        <time>2021-08-07T08:56:02.637Z</time>
      </trkpt>
      <trkpt lat="46.90932" lon="8.67299">
        <ele>1734</ele>
        <time>2021-08-07T08:56:03.638Z</time>
      </trkpt>
      <trkpt lat="46.90932" lon="8.67298">
        <ele>1734</ele>
        <time>2021-08-07T08:56:05.762Z</time>
      </trkpt>
      <trkpt lat="46.90932" lon="8.67298">
        <ele>1733</ele>
        <time>2021-08-07T08:56:06.763Z</time>
      </trkpt>
      <trkpt lat="46.90933" lon="8.67302">
        <ele>1728</ele>
        <time>2021-08-07T08:56:07.762Z</time>
      </trkpt>
      <trkpt lat="46.90933" lon="8.67303">
        <ele>1728</ele>
        <time>2021-08-07T08:56:08.762Z</time>
      </trkpt>
      <trkpt lat="46.90933" lon="8.67303">
        <ele>1728</ele>
        <time>2021-08-07T08:56:09.762Z</time>
      </trkpt>
      <trkpt lat="46.90931" lon="8.67304">
        <ele>1732</ele>
        <time>2021-08-07T08:56:10.762Z</time>
      </trkpt>
      <trkpt lat="46.90931" lon="8.67304">
        <ele>1732</ele>
        <time>2021-08-07T08:56:13.893Z</time>
      </trkpt>
      <trkpt lat="46.90929" lon="8.67304">
        <ele>1732</ele>
        <time>2021-08-07T08:56:14.894Z</time>
      </trkpt>
      <trkpt lat="46.9093" lon="8.67302">
        <ele>1731</ele>
        <time>2021-08-07T08:56:15.894Z</time>
      </trkpt>
      <trkpt lat="46.90933" lon="8.67297">
        <ele>1730</ele>
        <time>2021-08-07T08:56:16.895Z</time>
      </trkpt>
      <trkpt lat="46.90933" lon="8.67296">
        <ele>1730</ele>
        <time>2021-08-07T08:56:17.895Z</time>
      </trkpt>
      <trkpt lat="46.90934" lon="8.67294">
        <ele>1730</ele>
        <time>2021-08-07T08:56:18.895Z</time>
      </trkpt>
      <trkpt lat="46.90934" lon="8.67293">
        <ele>1731</ele>
        <time>2021-08-07T08:56:19.895Z</time>
      </trkpt>
      <trkpt lat="46.90935" lon="8.67292">
        <ele>1731</ele>
        <time>2021-08-07T08:56:20.895Z</time>
      </trkpt>
      <trkpt lat="46.90936" lon="8.67291">
        <ele>1732</ele>
        <time>2021-08-07T08:56:21.894Z</time>
      </trkpt>
      <trkpt lat="46.90937" lon="8.67291">
        <ele>1733</ele>
        <time>2021-08-07T08:56:22.895Z</time>
      </trkpt>
      <trkpt lat="46.90938" lon="8.6729">
        <ele>1734</ele>
        <time>2021-08-07T08:56:23.894Z</time>
      </trkpt>
      <trkpt lat="46.90939" lon="8.67289">
        <ele>1734</ele>
        <time>2021-08-07T08:56:24.894Z</time>
      </trkpt>
      <trkpt lat="46.90939" lon="8.67287">
        <ele>1734</ele>
        <time>2021-08-07T08:56:25.895Z</time>
      </trkpt>
      <trkpt lat="46.9094" lon="8.67285">
        <ele>1734</ele>
        <time>2021-08-07T08:56:26.894Z</time>
      </trkpt>
      <trkpt lat="46.9094" lon="8.67283">
        <ele>1734</ele>
        <time>2021-08-07T08:56:27.895Z</time>
      </trkpt>
      <trkpt lat="46.90941" lon="8.67282">
        <ele>1735</ele>
        <time>2021-08-07T08:56:28.895Z</time>
      </trkpt>
      <trkpt lat="46.90941" lon="8.6728">
        <ele>1735</ele>
        <time>2021-08-07T08:56:29.894Z</time>
      </trkpt>
      <trkpt lat="46.90942" lon="8.67279">
        <ele>1735</ele>
        <time>2021-08-07T08:56:30.894Z</time>
      </trkpt>
      <trkpt lat="46.90942" lon="8.67278">
        <ele>1735</ele>
        <time>2021-08-07T08:56:31.894Z</time>
      </trkpt>
      <trkpt lat="46.90943" lon="8.67277">
        <ele>1735</ele>
        <time>2021-08-07T08:56:32.895Z</time>
      </trkpt>
      <trkpt lat="46.90943" lon="8.67276">
        <ele>1735</ele>
        <time>2021-08-07T08:56:33.895Z</time>
      </trkpt>
      <trkpt lat="46.90944" lon="8.67274">
        <ele>1735</ele>
        <time>2021-08-07T08:56:34.895Z</time>
      </trkpt>
      <trkpt lat="46.90944" lon="8.67273">
        <ele>1735</ele>
        <time>2021-08-07T08:56:35.895Z</time>
      </trkpt>
      <trkpt lat="46.90944" lon="8.67272">
        <ele>1735</ele>
        <time>2021-08-07T08:56:36.895Z</time>
      </trkpt>
      <trkpt lat="46.90944" lon="8.67271">
        <ele>1735</ele>
        <time>2021-08-07T08:56:37.894Z</time>
      </trkpt>
      <trkpt lat="46.90944" lon="8.6727">
        <ele>1735</ele>
        <time>2021-08-07T08:56:38.894Z</time>
      </trkpt>
      <trkpt lat="46.90944" lon="8.67269">
        <ele>1735</ele>
        <time>2021-08-07T08:56:39.894Z</time>
      </trkpt>
      <trkpt lat="46.90944" lon="8.67269">
        <ele>1735</ele>
        <time>2021-08-07T08:56:40.894Z</time>
      </trkpt>
      <trkpt lat="46.90944" lon="8.67267">
        <ele>1737</ele>
        <time>2021-08-07T08:56:41.895Z</time>
      </trkpt>
      <trkpt lat="46.90944" lon="8.67266">
        <ele>1737</ele>
        <time>2021-08-07T08:56:42.895Z</time>
      </trkpt>
      <trkpt lat="46.90944" lon="8.67265">
        <ele>1737</ele>
        <time>2021-08-07T08:56:43.895Z</time>
      </trkpt>
      <trkpt lat="46.90944" lon="8.67264">
        <ele>1737</ele>
        <time>2021-08-07T08:56:44.894Z</time>
      </trkpt>
      <trkpt lat="46.90945" lon="8.67262">
        <ele>1737</ele>
        <time>2021-08-07T08:56:45.894Z</time>
      </trkpt>
      <trkpt lat="46.90945" lon="8.67262">
        <ele>1737</ele>
        <time>2021-08-07T08:56:46.895Z</time>
      </trkpt>
      <trkpt lat="46.90945" lon="8.67261">
        <ele>1736</ele>
        <time>2021-08-07T08:56:47.894Z</time>
      </trkpt>
      <trkpt lat="46.90945" lon="8.6726">
        <ele>1736</ele>
        <time>2021-08-07T08:56:48.895Z</time>
      </trkpt>
      <trkpt lat="46.90944" lon="8.67259">
        <ele>1735</ele>
        <time>2021-08-07T08:56:49.895Z</time>
      </trkpt>
      <trkpt lat="46.90944" lon="8.67258">
        <ele>1735</ele>
        <time>2021-08-07T08:56:50.895Z</time>
      </trkpt>
      <trkpt lat="46.90944" lon="8.67257">
        <ele>1734</ele>
        <time>2021-08-07T08:56:51.894Z</time>
      </trkpt>
      <trkpt lat="46.90943" lon="8.67256">
        <ele>1734</ele>
        <time>2021-08-07T08:56:52.894Z</time>
      </trkpt>
      <trkpt lat="46.90943" lon="8.67256">
        <ele>1734</ele>
        <time>2021-08-07T08:56:53.895Z</time>
      </trkpt>
      <trkpt lat="46.90943" lon="8.67256">
        <ele>1734</ele>
        <time>2021-08-07T08:56:54.894Z</time>
      </trkpt>
      <trkpt lat="46.90943" lon="8.67255">
        <ele>1734</ele>
        <time>2021-08-07T08:56:55.895Z</time>
      </trkpt>
      <trkpt lat="46.90942" lon="8.67253">
        <ele>1733</ele>
        <time>2021-08-07T08:56:56.895Z</time>
      </trkpt>
      <trkpt lat="46.90941" lon="8.67253">
        <ele>1733</ele>
        <time>2021-08-07T08:56:57.895Z</time>
      </trkpt>
      <trkpt lat="46.90941" lon="8.67252">
        <ele>1732</ele>
        <time>2021-08-07T08:56:58.895Z</time>
      </trkpt>
      <trkpt lat="46.90941" lon="8.6725">
        <ele>1731</ele>
        <time>2021-08-07T08:56:59.895Z</time>
      </trkpt>
      <trkpt lat="46.9094" lon="8.6725">
        <ele>1731</ele>
        <time>2021-08-07T08:57:00.895Z</time>
      </trkpt>
      <trkpt lat="46.9094" lon="8.67249">
        <ele>1731</ele>
        <time>2021-08-07T08:57:01.895Z</time>
      </trkpt>
      <trkpt lat="46.9094" lon="8.67248">
        <ele>1731</ele>
        <time>2021-08-07T08:57:02.894Z</time>
      </trkpt>
      <trkpt lat="46.9094" lon="8.67247">
        <ele>1730</ele>
        <time>2021-08-07T08:57:03.895Z</time>
      </trkpt>
      <trkpt lat="46.90939" lon="8.67247">
        <ele>1730</ele>
        <time>2021-08-07T08:57:04.895Z</time>
      </trkpt>
      <trkpt lat="46.9094" lon="8.67245">
        <ele>1730</ele>
        <time>2021-08-07T08:57:05.895Z</time>
      </trkpt>
      <trkpt lat="46.90939" lon="8.67244">
        <ele>1730</ele>
        <time>2021-08-07T08:57:06.895Z</time>
      </trkpt>
      <trkpt lat="46.90939" lon="8.67243">
        <ele>1730</ele>
        <time>2021-08-07T08:57:07.895Z</time>
      </trkpt>
      <trkpt lat="46.90938" lon="8.67242">
        <ele>1730</ele>
        <time>2021-08-07T08:57:08.895Z</time>
      </trkpt>
      <trkpt lat="46.90937" lon="8.67242">
        <ele>1730</ele>
        <time>2021-08-07T08:57:09.895Z</time>
      </trkpt>
      <trkpt lat="46.90937" lon="8.67241">
        <ele>1729</ele>
        <time>2021-08-07T08:57:10.895Z</time>
      </trkpt>
      <trkpt lat="46.90938" lon="8.67241">
        <ele>1729</ele>
        <time>2021-08-07T08:57:11.894Z</time>
      </trkpt>
      <trkpt lat="46.90938" lon="8.67241">
        <ele>1729</ele>
        <time>2021-08-07T08:57:12.894Z</time>
      </trkpt>
      <trkpt lat="46.90939" lon="8.67241">
        <ele>1729</ele>
        <time>2021-08-07T08:57:13.895Z</time>
      </trkpt>
      <trkpt lat="46.9094" lon="8.67241">
        <ele>1729</ele>
        <time>2021-08-07T08:57:14.895Z</time>
      </trkpt>
      <trkpt lat="46.9094" lon="8.67241">
        <ele>1729</ele>
        <time>2021-08-07T08:57:15.894Z</time>
      </trkpt>
      <trkpt lat="46.90941" lon="8.67241">
        <ele>1729</ele>
        <time>2021-08-07T08:57:16.895Z</time>
      </trkpt>
      <trkpt lat="46.90942" lon="8.6724">
        <ele>1729</ele>
        <time>2021-08-07T08:57:17.895Z</time>
      </trkpt>
      <trkpt lat="46.90943" lon="8.67239">
        <ele>1729</ele>
        <time>2021-08-07T08:57:18.895Z</time>
      </trkpt>
      <trkpt lat="46.90944" lon="8.67239">
        <ele>1729</ele>
        <time>2021-08-07T08:57:19.895Z</time>
      </trkpt>
      <trkpt lat="46.90945" lon="8.67239">
        <ele>1729</ele>
        <time>2021-08-07T08:57:20.895Z</time>
      </trkpt>
      <trkpt lat="46.90947" lon="8.67238">
        <ele>1730</ele>
        <time>2021-08-07T08:57:21.894Z</time>
      </trkpt>
      <trkpt lat="46.90948" lon="8.67238">
        <ele>1730</ele>
        <time>2021-08-07T08:57:22.895Z</time>
      </trkpt>
      <trkpt lat="46.90949" lon="8.67238">
        <ele>1730</ele>
        <time>2021-08-07T08:57:23.895Z</time>
      </trkpt>
      <trkpt lat="46.9095" lon="8.67238">
        <ele>1731</ele>
        <time>2021-08-07T08:57:24.895Z</time>
      </trkpt>
      <trkpt lat="46.90951" lon="8.67236">
        <ele>1730</ele>
        <time>2021-08-07T08:57:25.894Z</time>
      </trkpt>
      <trkpt lat="46.90952" lon="8.67235">
        <ele>1730</ele>
        <time>2021-08-07T08:57:26.894Z</time>
      </trkpt>
      <trkpt lat="46.90953" lon="8.67233">
        <ele>1730</ele>
        <time>2021-08-07T08:57:27.895Z</time>
      </trkpt>
      <trkpt lat="46.90953" lon="8.67232">
        <ele>1729</ele>
        <time>2021-08-07T08:57:28.895Z</time>
      </trkpt>
      <trkpt lat="46.90954" lon="8.6723">
        <ele>1729</ele>
        <time>2021-08-07T08:57:29.895Z</time>
      </trkpt>
      <trkpt lat="46.90955" lon="8.67229">
        <ele>1730</ele>
        <time>2021-08-07T08:57:30.895Z</time>
      </trkpt>
      <trkpt lat="46.90955" lon="8.67228">
        <ele>1730</ele>
        <time>2021-08-07T08:57:31.894Z</time>
      </trkpt>
      <trkpt lat="46.90956" lon="8.67226">
        <ele>1730</ele>
        <time>2021-08-07T08:57:32.895Z</time>
      </trkpt>
      <trkpt lat="46.90956" lon="8.67225">
        <ele>1729</ele>
        <time>2021-08-07T08:57:33.895Z</time>
      </trkpt>
      <trkpt lat="46.90957" lon="8.67224">
        <ele>1729</ele>
        <time>2021-08-07T08:57:34.894Z</time>
      </trkpt>
      <trkpt lat="46.90958" lon="8.67222">
        <ele>1728</ele>
        <time>2021-08-07T08:57:35.894Z</time>
      </trkpt>
      <trkpt lat="46.90959" lon="8.6722">
        <ele>1728</ele>
        <time>2021-08-07T08:57:36.894Z</time>
      </trkpt>
      <trkpt lat="46.9096" lon="8.67219">
        <ele>1727</ele>
        <time>2021-08-07T08:57:37.894Z</time>
      </trkpt>
      <trkpt lat="46.9096" lon="8.67218">
        <ele>1727</ele>
        <time>2021-08-07T08:57:38.894Z</time>
      </trkpt>
      <trkpt lat="46.90961" lon="8.67218">
        <ele>1727</ele>
        <time>2021-08-07T08:57:39.894Z</time>
      </trkpt>
      <trkpt lat="46.90962" lon="8.67217">
        <ele>1727</ele>
        <time>2021-08-07T08:57:40.894Z</time>
      </trkpt>
      <trkpt lat="46.90962" lon="8.67216">
        <ele>1727</ele>
        <time>2021-08-07T08:57:41.894Z</time>
      </trkpt>
      <trkpt lat="46.90962" lon="8.67214">
        <ele>1727</ele>
        <time>2021-08-07T08:57:42.894Z</time>
      </trkpt>
      <trkpt lat="46.90961" lon="8.67213">
        <ele>1726</ele>
        <time>2021-08-07T08:57:43.894Z</time>
      </trkpt>
      <trkpt lat="46.9096" lon="8.67212">
        <ele>1725</ele>
        <time>2021-08-07T08:57:44.894Z</time>
      </trkpt>
      <trkpt lat="46.90959" lon="8.6721">
        <ele>1724</ele>
        <time>2021-08-07T08:57:45.894Z</time>
      </trkpt>
      <trkpt lat="46.90958" lon="8.67209">
        <ele>1723</ele>
        <time>2021-08-07T08:57:46.894Z</time>
      </trkpt>
      <trkpt lat="46.90957" lon="8.67207">
        <ele>1721</ele>
        <time>2021-08-07T08:57:47.894Z</time>
      </trkpt>
      <trkpt lat="46.90956" lon="8.67206">
        <ele>1720</ele>
        <time>2021-08-07T08:57:48.895Z</time>
      </trkpt>
      <trkpt lat="46.90955" lon="8.67205">
        <ele>1719</ele>
        <time>2021-08-07T08:57:49.894Z</time>
      </trkpt>
      <trkpt lat="46.90953" lon="8.67204">
        <ele>1718</ele>
        <time>2021-08-07T08:57:50.894Z</time>
      </trkpt>
      <trkpt lat="46.90951" lon="8.67203">
        <ele>1716</ele>
        <time>2021-08-07T08:57:51.895Z</time>
      </trkpt>
      <trkpt lat="46.9095" lon="8.67203">
        <ele>1715</ele>
        <time>2021-08-07T08:57:52.894Z</time>
      </trkpt>
      <trkpt lat="46.90949" lon="8.67202">
        <ele>1714</ele>
        <time>2021-08-07T08:57:53.894Z</time>
      </trkpt>
      <trkpt lat="46.90949" lon="8.67201">
        <ele>1714</ele>
        <time>2021-08-07T08:57:54.894Z</time>
      </trkpt>
      <trkpt lat="46.90949" lon="8.672">
        <ele>1713</ele>
        <time>2021-08-07T08:57:55.895Z</time>
      </trkpt>
      <trkpt lat="46.90949" lon="8.67198">
        <ele>1713</ele>
        <time>2021-08-07T08:57:56.895Z</time>
      </trkpt>
      <trkpt lat="46.90947" lon="8.67197">
        <ele>1712</ele>
        <time>2021-08-07T08:57:57.895Z</time>
      </trkpt>
      <trkpt lat="46.90946" lon="8.67196">
        <ele>1712</ele>
        <time>2021-08-07T08:57:58.895Z</time>
      </trkpt>
      <trkpt lat="46.90945" lon="8.67195">
        <ele>1711</ele>
        <time>2021-08-07T08:57:59.895Z</time>
      </trkpt>
      <trkpt lat="46.90945" lon="8.67194">
        <ele>1711</ele>
        <time>2021-08-07T08:58:00.894Z</time>
      </trkpt>
      <trkpt lat="46.90944" lon="8.67193">
        <ele>1710</ele>
        <time>2021-08-07T08:58:01.894Z</time>
      </trkpt>
      <trkpt lat="46.90943" lon="8.67191">
        <ele>1709</ele>
        <time>2021-08-07T08:58:02.895Z</time>
      </trkpt>
      <trkpt lat="46.90943" lon="8.6719">
        <ele>1708</ele>
        <time>2021-08-07T08:58:10.038Z</time>
      </trkpt>
      <trkpt lat="46.90942" lon="8.67189">
        <ele>1708</ele>
        <time>2021-08-07T08:58:11.037Z</time>
      </trkpt>
      <trkpt lat="46.90942" lon="8.67188">
        <ele>1707</ele>
        <time>2021-08-07T08:58:12.037Z</time>
      </trkpt>
      <trkpt lat="46.90941" lon="8.67187">
        <ele>1707</ele>
        <time>2021-08-07T08:58:13.038Z</time>
      </trkpt>
      <trkpt lat="46.9094" lon="8.67186">
        <ele>1707</ele>
        <time>2021-08-07T08:58:14.037Z</time>
      </trkpt>
      <trkpt lat="46.90939" lon="8.67185">
        <ele>1707</ele>
        <time>2021-08-07T08:58:15.037Z</time>
      </trkpt>
      <trkpt lat="46.90939" lon="8.67184">
        <ele>1707</ele>
        <time>2021-08-07T08:58:16.037Z</time>
      </trkpt>
      <trkpt lat="46.90938" lon="8.67183">
        <ele>1707</ele>
        <time>2021-08-07T08:58:17.037Z</time>
      </trkpt>
      <trkpt lat="46.90938" lon="8.67182">
        <ele>1706</ele>
        <time>2021-08-07T08:58:27.153Z</time>
      </trkpt>
      <trkpt lat="46.90937" lon="8.67181">
        <ele>1707</ele>
        <time>2021-08-07T08:58:28.154Z</time>
      </trkpt>
      <trkpt lat="46.90936" lon="8.6718">
        <ele>1706</ele>
        <time>2021-08-07T08:58:29.153Z</time>
      </trkpt>
      <trkpt lat="46.90935" lon="8.6718">
        <ele>1706</ele>
        <time>2021-08-07T08:58:30.153Z</time>
      </trkpt>
      <trkpt lat="46.90935" lon="8.67179">
        <ele>1705</ele>
        <time>2021-08-07T08:58:31.154Z</time>
      </trkpt>
      <trkpt lat="46.90935" lon="8.67177">
        <ele>1704</ele>
        <time>2021-08-07T08:58:32.153Z</time>
      </trkpt>
      <trkpt lat="46.90934" lon="8.67175">
        <ele>1704</ele>
        <time>2021-08-07T08:58:33.153Z</time>
      </trkpt>
      <trkpt lat="46.90933" lon="8.67174">
        <ele>1704</ele>
        <time>2021-08-07T08:58:34.154Z</time>
      </trkpt>
      <trkpt lat="46.90932" lon="8.67174">
        <ele>1703</ele>
        <time>2021-08-07T08:58:35.154Z</time>
      </trkpt>
      <trkpt lat="46.90931" lon="8.67173">
        <ele>1703</ele>
        <time>2021-08-07T08:58:36.154Z</time>
      </trkpt>
      <trkpt lat="46.90929" lon="8.67173">
        <ele>1702</ele>
        <time>2021-08-07T08:58:37.154Z</time>
      </trkpt>
      <trkpt lat="46.90928" lon="8.67173">
        <ele>1702</ele>
        <time>2021-08-07T08:58:38.154Z</time>
      </trkpt>
      <trkpt lat="46.90926" lon="8.67171">
        <ele>1702</ele>
        <time>2021-08-07T08:58:39.154Z</time>
      </trkpt>
      <trkpt lat="46.90925" lon="8.6717">
        <ele>1702</ele>
        <time>2021-08-07T08:58:40.154Z</time>
      </trkpt>
      <trkpt lat="46.90923" lon="8.6717">
        <ele>1702</ele>
        <time>2021-08-07T08:58:41.154Z</time>
      </trkpt>
      <trkpt lat="46.90922" lon="8.6717">
        <ele>1701</ele>
        <time>2021-08-07T08:58:42.153Z</time>
      </trkpt>
      <trkpt lat="46.90921" lon="8.67169">
        <ele>1701</ele>
        <time>2021-08-07T08:58:43.154Z</time>
      </trkpt>
      <trkpt lat="46.9092" lon="8.67169">
        <ele>1701</ele>
        <time>2021-08-07T08:58:44.154Z</time>
      </trkpt>
      <trkpt lat="46.90918" lon="8.67168">
        <ele>1701</ele>
        <time>2021-08-07T08:58:45.153Z</time>
      </trkpt>
      <trkpt lat="46.90917" lon="8.67169">
        <ele>1701</ele>
        <time>2021-08-07T08:58:46.154Z</time>
      </trkpt>
      <trkpt lat="46.90916" lon="8.67169">
        <ele>1701</ele>
        <time>2021-08-07T08:58:47.154Z</time>
      </trkpt>
      <trkpt lat="46.90915" lon="8.67169">
        <ele>1701</ele>
        <time>2021-08-07T08:58:48.154Z</time>
      </trkpt>
      <trkpt lat="46.90914" lon="8.67168">
        <ele>1701</ele>
        <time>2021-08-07T08:58:49.154Z</time>
      </trkpt>
      <trkpt lat="46.90913" lon="8.67168">
        <ele>1701</ele>
        <time>2021-08-07T08:58:50.154Z</time>
      </trkpt>
      <trkpt lat="46.90912" lon="8.67167">
        <ele>1701</ele>
        <time>2021-08-07T08:58:51.154Z</time>
      </trkpt>
      <trkpt lat="46.90911" lon="8.67166">
        <ele>1700</ele>
        <time>2021-08-07T08:58:52.154Z</time>
      </trkpt>
      <trkpt lat="46.9091" lon="8.67166">
        <ele>1700</ele>
        <time>2021-08-07T08:58:53.153Z</time>
      </trkpt>
      <trkpt lat="46.90909" lon="8.67165">
        <ele>1700</ele>
        <time>2021-08-07T08:58:54.154Z</time>
      </trkpt>
      <trkpt lat="46.90909" lon="8.67165">
        <ele>1700</ele>
        <time>2021-08-07T08:58:55.153Z</time>
      </trkpt>
      <trkpt lat="46.90908" lon="8.67164">
        <ele>1700</ele>
        <time>2021-08-07T08:58:56.153Z</time>
      </trkpt>
      <trkpt lat="46.90907" lon="8.67163">
        <ele>1700</ele>
        <time>2021-08-07T08:58:57.153Z</time>
      </trkpt>
      <trkpt lat="46.90906" lon="8.67162">
        <ele>1699</ele>
        <time>2021-08-07T08:58:58.154Z</time>
      </trkpt>
      <trkpt lat="46.90905" lon="8.67161">
        <ele>1699</ele>
        <time>2021-08-07T08:58:59.154Z</time>
      </trkpt>
      <trkpt lat="46.90905" lon="8.6716">
        <ele>1699</ele>
        <time>2021-08-07T08:59:00.154Z</time>
      </trkpt>
      <trkpt lat="46.90904" lon="8.67159">
        <ele>1699</ele>
        <time>2021-08-07T08:59:01.154Z</time>
      </trkpt>
      <trkpt lat="46.90904" lon="8.67157">
        <ele>1699</ele>
        <time>2021-08-07T08:59:02.154Z</time>
      </trkpt>
      <trkpt lat="46.90903" lon="8.67157">
        <ele>1699</ele>
        <time>2021-08-07T08:59:03.154Z</time>
      </trkpt>
      <trkpt lat="46.90902" lon="8.67156">
        <ele>1699</ele>
        <time>2021-08-07T08:59:04.154Z</time>
      </trkpt>
      <trkpt lat="46.90902" lon="8.67154">
        <ele>1699</ele>
        <time>2021-08-07T08:59:05.153Z</time>
      </trkpt>
      <trkpt lat="46.90901" lon="8.67153">
        <ele>1699</ele>
        <time>2021-08-07T08:59:06.154Z</time>
      </trkpt>
      <trkpt lat="46.909" lon="8.67152">
        <ele>1699</ele>
        <time>2021-08-07T08:59:07.154Z</time>
      </trkpt>
      <trkpt lat="46.909" lon="8.67151">
        <ele>1699</ele>
        <time>2021-08-07T08:59:08.154Z</time>
      </trkpt>
      <trkpt lat="46.90899" lon="8.67151">
        <ele>1698</ele>
        <time>2021-08-07T08:59:09.154Z</time>
      </trkpt>
      <trkpt lat="46.90898" lon="8.6715">
        <ele>1698</ele>
        <time>2021-08-07T08:59:10.154Z</time>
      </trkpt>
      <trkpt lat="46.90898" lon="8.67148">
        <ele>1698</ele>
        <time>2021-08-07T08:59:11.154Z</time>
      </trkpt>
      <trkpt lat="46.90897" lon="8.67146">
        <ele>1698</ele>
        <time>2021-08-07T08:59:12.154Z</time>
      </trkpt>
      <trkpt lat="46.90897" lon="8.67145">
        <ele>1697</ele>
        <time>2021-08-07T08:59:13.154Z</time>
      </trkpt>
      <trkpt lat="46.90897" lon="8.67143">
        <ele>1697</ele>
        <time>2021-08-07T08:59:14.153Z</time>
      </trkpt>
      <trkpt lat="46.90896" lon="8.67142">
        <ele>1696</ele>
        <time>2021-08-07T08:59:15.154Z</time>
      </trkpt>
      <trkpt lat="46.90896" lon="8.67142">
        <ele>1695</ele>
        <time>2021-08-07T08:59:16.154Z</time>
      </trkpt>
      <trkpt lat="46.90895" lon="8.67141">
        <ele>1694</ele>
        <time>2021-08-07T08:59:17.154Z</time>
      </trkpt>
      <trkpt lat="46.90894" lon="8.6714">
        <ele>1694</ele>
        <time>2021-08-07T08:59:18.154Z</time>
      </trkpt>
      <trkpt lat="46.90893" lon="8.6714">
        <ele>1694</ele>
        <time>2021-08-07T08:59:19.153Z</time>
      </trkpt>
      <trkpt lat="46.90892" lon="8.67139">
        <ele>1693</ele>
        <time>2021-08-07T08:59:20.154Z</time>
      </trkpt>
      <trkpt lat="46.90891" lon="8.67137">
        <ele>1693</ele>
        <time>2021-08-07T08:59:21.153Z</time>
      </trkpt>
      <trkpt lat="46.9089" lon="8.67136">
        <ele>1693</ele>
        <time>2021-08-07T08:59:22.154Z</time>
      </trkpt>
      <trkpt lat="46.90889" lon="8.67135">
        <ele>1692</ele>
        <time>2021-08-07T08:59:23.154Z</time>
      </trkpt>
      <trkpt lat="46.90888" lon="8.67133">
        <ele>1692</ele>
        <time>2021-08-07T08:59:24.154Z</time>
      </trkpt>
      <trkpt lat="46.90887" lon="8.67132">
        <ele>1692</ele>
        <time>2021-08-07T08:59:25.154Z</time>
      </trkpt>
      <trkpt lat="46.90886" lon="8.67131">
        <ele>1691</ele>
        <time>2021-08-07T08:59:26.154Z</time>
      </trkpt>
      <trkpt lat="46.90886" lon="8.6713">
        <ele>1690</ele>
        <time>2021-08-07T08:59:27.154Z</time>
      </trkpt>
      <trkpt lat="46.90885" lon="8.67129">
        <ele>1690</ele>
        <time>2021-08-07T08:59:28.154Z</time>
      </trkpt>
      <trkpt lat="46.90884" lon="8.67128">
        <ele>1690</ele>
        <time>2021-08-07T08:59:29.153Z</time>
      </trkpt>
      <trkpt lat="46.90883" lon="8.67126">
        <ele>1689</ele>
        <time>2021-08-07T08:59:30.154Z</time>
      </trkpt>
      <trkpt lat="46.90883" lon="8.67125">
        <ele>1689</ele>
        <time>2021-08-07T08:59:31.154Z</time>
      </trkpt>
      <trkpt lat="46.90882" lon="8.67124">
        <ele>1689</ele>
        <time>2021-08-07T08:59:32.154Z</time>
      </trkpt>
      <trkpt lat="46.90881" lon="8.67123">
        <ele>1689</ele>
        <time>2021-08-07T08:59:33.154Z</time>
      </trkpt>
      <trkpt lat="46.90881" lon="8.67122">
        <ele>1688</ele>
        <time>2021-08-07T08:59:34.154Z</time>
      </trkpt>
      <trkpt lat="46.9088" lon="8.67121">
        <ele>1687</ele>
        <time>2021-08-07T08:59:35.154Z</time>
      </trkpt>
      <trkpt lat="46.9088" lon="8.6712">
        <ele>1687</ele>
        <time>2021-08-07T08:59:36.154Z</time>
      </trkpt>
      <trkpt lat="46.90879" lon="8.67119">
        <ele>1688</ele>
        <time>2021-08-07T08:59:37.154Z</time>
      </trkpt>
      <trkpt lat="46.90879" lon="8.67118">
        <ele>1688</ele>
        <time>2021-08-07T08:59:38.154Z</time>
      </trkpt>
      <trkpt lat="46.90878" lon="8.67118">
        <ele>1688</ele>
        <time>2021-08-07T08:59:39.154Z</time>
      </trkpt>
      <trkpt lat="46.90878" lon="8.67118">
        <ele>1688</ele>
        <time>2021-08-07T08:59:40.153Z</time>
      </trkpt>
      <trkpt lat="46.90878" lon="8.67116">
        <ele>1685</ele>
        <time>2021-08-07T08:59:41.155Z</time>
      </trkpt>
      <trkpt lat="46.90879" lon="8.67115">
        <ele>1685</ele>
        <time>2021-08-07T08:59:42.155Z</time>
      </trkpt>
      <trkpt lat="46.90876" lon="8.67121">
        <ele>1688</ele>
        <time>2021-08-07T08:59:43.155Z</time>
      </trkpt>
      <trkpt lat="46.90875" lon="8.67121">
        <ele>1689</ele>
        <time>2021-08-07T08:59:44.155Z</time>
      </trkpt>
      <trkpt lat="46.90875" lon="8.67121">
        <ele>1689</ele>
        <time>2021-08-07T08:59:45.156Z</time>
      </trkpt>
      <trkpt lat="46.90875" lon="8.67122">
        <ele>1690</ele>
        <time>2021-08-07T08:59:46.157Z</time>
      </trkpt>
      <trkpt lat="46.90875" lon="8.67122">
        <ele>1689</ele>
        <time>2021-08-07T08:59:47.157Z</time>
      </trkpt>
      <trkpt lat="46.90875" lon="8.67121">
        <ele>1689</ele>
        <time>2021-08-07T08:59:48.156Z</time>
      </trkpt>
      <trkpt lat="46.90875" lon="8.67122">
        <ele>1688</ele>
        <time>2021-08-07T08:59:49.157Z</time>
      </trkpt>
      <trkpt lat="46.90874" lon="8.67122">
        <ele>1687</ele>
        <time>2021-08-07T08:59:50.156Z</time>
      </trkpt>
      <trkpt lat="46.90873" lon="8.67123">
        <ele>1687</ele>
        <time>2021-08-07T08:59:51.157Z</time>
      </trkpt>
      <trkpt lat="46.90873" lon="8.67124">
        <ele>1687</ele>
        <time>2021-08-07T08:59:52.157Z</time>
      </trkpt>
      <trkpt lat="46.90873" lon="8.67124">
        <ele>1691</ele>
        <time>2021-08-07T08:59:53.158Z</time>
      </trkpt>
      <trkpt lat="46.90872" lon="8.67121">
        <ele>1691</ele>
        <time>2021-08-07T08:59:54.157Z</time>
      </trkpt>
      <trkpt lat="46.90872" lon="8.67119">
        <ele>1692</ele>
        <time>2021-08-07T08:59:55.157Z</time>
      </trkpt>
      <trkpt lat="46.90872" lon="8.67116">
        <ele>1692</ele>
        <time>2021-08-07T08:59:56.157Z</time>
      </trkpt>
      <trkpt lat="46.90872" lon="8.67115">
        <ele>1692</ele>
        <time>2021-08-07T08:59:57.158Z</time>
      </trkpt>
      <trkpt lat="46.90871" lon="8.67113">
        <ele>1692</ele>
        <time>2021-08-07T08:59:58.157Z</time>
      </trkpt>
      <trkpt lat="46.90871" lon="8.67111">
        <ele>1692</ele>
        <time>2021-08-07T08:59:59.157Z</time>
      </trkpt>
      <trkpt lat="46.9087" lon="8.67109">
        <ele>1692</ele>
        <time>2021-08-07T09:00:00.157Z</time>
      </trkpt>
      <trkpt lat="46.9087" lon="8.67108">
        <ele>1692</ele>
        <time>2021-08-07T09:00:01.157Z</time>
      </trkpt>
      <trkpt lat="46.90869" lon="8.67106">
        <ele>1692</ele>
        <time>2021-08-07T09:00:02.157Z</time>
      </trkpt>
      <trkpt lat="46.90869" lon="8.67104">
        <ele>1692</ele>
        <time>2021-08-07T09:00:03.157Z</time>
      </trkpt>
      <trkpt lat="46.90869" lon="8.67103">
        <ele>1692</ele>
        <time>2021-08-07T09:00:04.157Z</time>
      </trkpt>
      <trkpt lat="46.90869" lon="8.67102">
        <ele>1692</ele>
        <time>2021-08-07T09:00:05.157Z</time>
      </trkpt>
      <trkpt lat="46.90869" lon="8.671">
        <ele>1692</ele>
        <time>2021-08-07T09:00:06.157Z</time>
      </trkpt>
      <trkpt lat="46.90868" lon="8.67098">
        <ele>1692</ele>
        <time>2021-08-07T09:00:07.157Z</time>
      </trkpt>
      <trkpt lat="46.90868" lon="8.67096">
        <ele>1692</ele>
        <time>2021-08-07T09:00:08.157Z</time>
      </trkpt>
      <trkpt lat="46.90867" lon="8.67095">
        <ele>1692</ele>
        <time>2021-08-07T09:00:14.250Z</time>
      </trkpt>
      <trkpt lat="46.90867" lon="8.67093">
        <ele>1691</ele>
        <time>2021-08-07T09:00:18.019Z</time>
      </trkpt>
      <trkpt lat="46.90866" lon="8.67092">
        <ele>1691</ele>
        <time>2021-08-07T09:00:19.019Z</time>
      </trkpt>
      <trkpt lat="46.90866" lon="8.67091">
        <ele>1691</ele>
        <time>2021-08-07T09:00:20.019Z</time>
      </trkpt>
      <trkpt lat="46.90865" lon="8.6709">
        <ele>1691</ele>
        <time>2021-08-07T09:00:28.141Z</time>
      </trkpt>
      <trkpt lat="46.90865" lon="8.67088">
        <ele>1690</ele>
        <time>2021-08-07T09:00:29.140Z</time>
      </trkpt>
      <trkpt lat="46.90864" lon="8.67087">
        <ele>1690</ele>
        <time>2021-08-07T09:00:30.140Z</time>
      </trkpt>
      <trkpt lat="46.90863" lon="8.67085">
        <ele>1690</ele>
        <time>2021-08-07T09:00:31.140Z</time>
      </trkpt>
      <trkpt lat="46.90863" lon="8.67083">
        <ele>1690</ele>
        <time>2021-08-07T09:00:32.140Z</time>
      </trkpt>
      <trkpt lat="46.90863" lon="8.67082">
        <ele>1690</ele>
        <time>2021-08-07T09:00:39.288Z</time>
      </trkpt>
      <trkpt lat="46.90863" lon="8.6708">
        <ele>1690</ele>
        <time>2021-08-07T09:00:40.289Z</time>
      </trkpt>
      <trkpt lat="46.90863" lon="8.67078">
        <ele>1690</ele>
        <time>2021-08-07T09:00:41.289Z</time>
      </trkpt>
      <trkpt lat="46.90862" lon="8.67077">
        <ele>1690</ele>
        <time>2021-08-07T09:00:42.289Z</time>
      </trkpt>
      <trkpt lat="46.9086" lon="8.67076">
        <ele>1689</ele>
        <time>2021-08-07T09:00:43.288Z</time>
      </trkpt>
      <trkpt lat="46.90859" lon="8.67074">
        <ele>1689</ele>
        <time>2021-08-07T09:00:44.288Z</time>
      </trkpt>
      <trkpt lat="46.90857" lon="8.67073">
        <ele>1689</ele>
        <time>2021-08-07T09:00:45.289Z</time>
      </trkpt>
      <trkpt lat="46.90856" lon="8.67071">
        <ele>1690</ele>
        <time>2021-08-07T09:00:46.288Z</time>
      </trkpt>
      <trkpt lat="46.90855" lon="8.6707">
        <ele>1690</ele>
        <time>2021-08-07T09:00:47.289Z</time>
      </trkpt>
      <trkpt lat="46.90855" lon="8.67068">
        <ele>1690</ele>
        <time>2021-08-07T09:00:48.289Z</time>
      </trkpt>
      <trkpt lat="46.90854" lon="8.67067">
        <ele>1690</ele>
        <time>2021-08-07T09:00:49.289Z</time>
      </trkpt>
      <trkpt lat="46.90854" lon="8.67066">
        <ele>1691</ele>
        <time>2021-08-07T09:00:50.289Z</time>
      </trkpt>
      <trkpt lat="46.90853" lon="8.67065">
        <ele>1691</ele>
        <time>2021-08-07T09:00:51.288Z</time>
      </trkpt>
      <trkpt lat="46.90853" lon="8.67064">
        <ele>1692</ele>
        <time>2021-08-07T09:00:52.288Z</time>
      </trkpt>
      <trkpt lat="46.90853" lon="8.67063">
        <ele>1692</ele>
        <time>2021-08-07T09:00:53.288Z</time>
      </trkpt>
      <trkpt lat="46.90852" lon="8.67062">
        <ele>1692</ele>
        <time>2021-08-07T09:00:54.288Z</time>
      </trkpt>
      <trkpt lat="46.90851" lon="8.6706">
        <ele>1692</ele>
        <time>2021-08-07T09:00:55.288Z</time>
      </trkpt>
      <trkpt lat="46.9085" lon="8.6706">
        <ele>1692</ele>
        <time>2021-08-07T09:00:56.288Z</time>
      </trkpt>
      <trkpt lat="46.9085" lon="8.67062">
        <ele>1692</ele>
        <time>2021-08-07T09:00:57.289Z</time>
      </trkpt>
      <trkpt lat="46.9085" lon="8.67063">
        <ele>1692</ele>
        <time>2021-08-07T09:00:58.289Z</time>
      </trkpt>
      <trkpt lat="46.9085" lon="8.67063">
        <ele>1693</ele>
        <time>2021-08-07T09:00:59.288Z</time>
      </trkpt>
      <trkpt lat="46.9085" lon="8.67063">
        <ele>1693</ele>
        <time>2021-08-07T09:01:00.288Z</time>
      </trkpt>
      <trkpt lat="46.90849" lon="8.67063">
        <ele>1693</ele>
        <time>2021-08-07T09:01:01.288Z</time>
      </trkpt>
      <trkpt lat="46.90848" lon="8.67058">
        <ele>1697</ele>
        <time>2021-08-07T09:01:05.289Z</time>
      </trkpt>
      <trkpt lat="46.90848" lon="8.67057">
        <ele>1697</ele>
        <time>2021-08-07T09:01:06.288Z</time>
      </trkpt>
      <trkpt lat="46.90848" lon="8.67057">
        <ele>1697</ele>
        <time>2021-08-07T09:01:07.288Z</time>
      </trkpt>
      <trkpt lat="46.90847" lon="8.67056">
        <ele>1696</ele>
        <time>2021-08-07T09:01:08.288Z</time>
      </trkpt>
      <trkpt lat="46.90847" lon="8.67055">
        <ele>1696</ele>
        <time>2021-08-07T09:01:09.288Z</time>
      </trkpt>
      <trkpt lat="46.90846" lon="8.67053">
        <ele>1695</ele>
        <time>2021-08-07T09:01:10.288Z</time>
      </trkpt>
      <trkpt lat="46.90846" lon="8.67052">
        <ele>1694</ele>
        <time>2021-08-07T09:01:11.289Z</time>
      </trkpt>
      <trkpt lat="46.90846" lon="8.67052">
        <ele>1694</ele>
        <time>2021-08-07T09:01:12.288Z</time>
      </trkpt>
      <trkpt lat="46.90845" lon="8.67051">
        <ele>1693</ele>
        <time>2021-08-07T09:01:13.288Z</time>
      </trkpt>
      <trkpt lat="46.90845" lon="8.6705">
        <ele>1692</ele>
        <time>2021-08-07T09:01:14.289Z</time>
      </trkpt>
      <trkpt lat="46.90844" lon="8.6705">
        <ele>1691</ele>
        <time>2021-08-07T09:01:15.288Z</time>
      </trkpt>
      <trkpt lat="46.90844" lon="8.6705">
        <ele>1691</ele>
        <time>2021-08-07T09:01:16.288Z</time>
      </trkpt>
      <trkpt lat="46.90843" lon="8.6705">
        <ele>1690</ele>
        <time>2021-08-07T09:01:17.288Z</time>
      </trkpt>
      <trkpt lat="46.90842" lon="8.6705">
        <ele>1689</ele>
        <time>2021-08-07T09:01:18.289Z</time>
      </trkpt>
      <trkpt lat="46.90842" lon="8.6705">
        <ele>1689</ele>
        <time>2021-08-07T09:01:19.288Z</time>
      </trkpt>
      <trkpt lat="46.90841" lon="8.67052">
        <ele>1688</ele>
        <time>2021-08-07T09:01:20.289Z</time>
      </trkpt>
      <trkpt lat="46.90841" lon="8.67052">
        <ele>1688</ele>
        <time>2021-08-07T09:01:21.288Z</time>
      </trkpt>
      <trkpt lat="46.90841" lon="8.67052">
        <ele>1687</ele>
        <time>2021-08-07T09:01:22.288Z</time>
      </trkpt>
      <trkpt lat="46.90841" lon="8.67052">
        <ele>1686</ele>
        <time>2021-08-07T09:01:23.289Z</time>
      </trkpt>
      <trkpt lat="46.90841" lon="8.67052">
        <ele>1684</ele>
        <time>2021-08-07T09:01:24.290Z</time>
      </trkpt>
      <trkpt lat="46.90841" lon="8.67053">
        <ele>1684</ele>
        <time>2021-08-07T09:01:25.290Z</time>
      </trkpt>
      <trkpt lat="46.90841" lon="8.67053">
        <ele>1685</ele>
        <time>2021-08-07T09:01:26.289Z</time>
      </trkpt>
      <trkpt lat="46.90841" lon="8.67053">
        <ele>1685</ele>
        <time>2021-08-07T09:01:27.289Z</time>
      </trkpt>
      <trkpt lat="46.90841" lon="8.67054">
        <ele>1685</ele>
        <time>2021-08-07T09:01:28.290Z</time>
      </trkpt>
      <trkpt lat="46.90838" lon="8.6706">
        <ele>1686</ele>
        <time>2021-08-07T09:01:29.289Z</time>
      </trkpt>
      <trkpt lat="46.90838" lon="8.67059">
        <ele>1686</ele>
        <time>2021-08-07T09:01:30.290Z</time>
      </trkpt>
      <trkpt lat="46.90838" lon="8.67058">
        <ele>1686</ele>
        <time>2021-08-07T09:01:31.289Z</time>
      </trkpt>
      <trkpt lat="46.90838" lon="8.67057">
        <ele>1685</ele>
        <time>2021-08-07T09:01:32.290Z</time>
      </trkpt>
      <trkpt lat="46.90838" lon="8.67056">
        <ele>1684</ele>
        <time>2021-08-07T09:01:33.289Z</time>
      </trkpt>
      <trkpt lat="46.90838" lon="8.67055">
        <ele>1684</ele>
        <time>2021-08-07T09:01:34.290Z</time>
      </trkpt>
      <trkpt lat="46.90837" lon="8.67054">
        <ele>1683</ele>
        <time>2021-08-07T09:01:35.290Z</time>
      </trkpt>
      <trkpt lat="46.90836" lon="8.67053">
        <ele>1683</ele>
        <time>2021-08-07T09:01:36.289Z</time>
      </trkpt>
      <trkpt lat="46.90836" lon="8.67052">
        <ele>1682</ele>
        <time>2021-08-07T09:01:37.290Z</time>
      </trkpt>
      <trkpt lat="46.90835" lon="8.67052">
        <ele>1682</ele>
        <time>2021-08-07T09:01:38.290Z</time>
      </trkpt>
      <trkpt lat="46.90835" lon="8.67051">
        <ele>1682</ele>
        <time>2021-08-07T09:01:39.290Z</time>
      </trkpt>
      <trkpt lat="46.90835" lon="8.67049">
        <ele>1681</ele>
        <time>2021-08-07T09:01:46.374Z</time>
      </trkpt>
      <trkpt lat="46.90834" lon="8.67048">
        <ele>1681</ele>
        <time>2021-08-07T09:01:47.374Z</time>
      </trkpt>
      <trkpt lat="46.90834" lon="8.67047">
        <ele>1680</ele>
        <time>2021-08-07T09:01:58.156Z</time>
      </trkpt>
      <trkpt lat="46.90834" lon="8.67046">
        <ele>1680</ele>
        <time>2021-08-07T09:01:59.156Z</time>
      </trkpt>
      <trkpt lat="46.90833" lon="8.67045">
        <ele>1679</ele>
        <time>2021-08-07T09:02:00.156Z</time>
      </trkpt>
      <trkpt lat="46.90832" lon="8.67043">
        <ele>1679</ele>
        <time>2021-08-07T09:02:01.155Z</time>
      </trkpt>
      <trkpt lat="46.90832" lon="8.67042">
        <ele>1678</ele>
        <time>2021-08-07T09:02:02.156Z</time>
      </trkpt>
      <trkpt lat="46.90832" lon="8.6704">
        <ele>1678</ele>
        <time>2021-08-07T09:02:03.156Z</time>
      </trkpt>
      <trkpt lat="46.90831" lon="8.67037">
        <ele>1678</ele>
        <time>2021-08-07T09:02:04.156Z</time>
      </trkpt>
      <trkpt lat="46.90831" lon="8.67035">
        <ele>1678</ele>
        <time>2021-08-07T09:02:05.155Z</time>
      </trkpt>
      <trkpt lat="46.90831" lon="8.67033">
        <ele>1677</ele>
        <time>2021-08-07T09:02:06.156Z</time>
      </trkpt>
      <trkpt lat="46.90832" lon="8.6703">
        <ele>1677</ele>
        <time>2021-08-07T09:02:07.156Z</time>
      </trkpt>
      <trkpt lat="46.90832" lon="8.67029">
        <ele>1677</ele>
        <time>2021-08-07T09:02:08.155Z</time>
      </trkpt>
      <trkpt lat="46.90832" lon="8.67027">
        <ele>1677</ele>
        <time>2021-08-07T09:02:09.155Z</time>
      </trkpt>
      <trkpt lat="46.90832" lon="8.67026">
        <ele>1678</ele>
        <time>2021-08-07T09:02:10.156Z</time>
      </trkpt>
      <trkpt lat="46.90832" lon="8.67024">
        <ele>1678</ele>
        <time>2021-08-07T09:02:11.156Z</time>
      </trkpt>
      <trkpt lat="46.90833" lon="8.67022">
        <ele>1678</ele>
        <time>2021-08-07T09:02:12.156Z</time>
      </trkpt>
      <trkpt lat="46.90832" lon="8.67021">
        <ele>1679</ele>
        <time>2021-08-07T09:02:13.155Z</time>
      </trkpt>
      <trkpt lat="46.90832" lon="8.67019">
        <ele>1679</ele>
        <time>2021-08-07T09:02:14.156Z</time>
      </trkpt>
      <trkpt lat="46.90832" lon="8.67017">
        <ele>1680</ele>
        <time>2021-08-07T09:02:15.156Z</time>
      </trkpt>
      <trkpt lat="46.90831" lon="8.67016">
        <ele>1680</ele>
        <time>2021-08-07T09:02:16.155Z</time>
      </trkpt>
      <trkpt lat="46.90831" lon="8.67014">
        <ele>1681</ele>
        <time>2021-08-07T09:02:17.156Z</time>
      </trkpt>
      <trkpt lat="46.90831" lon="8.67012">
        <ele>1681</ele>
        <time>2021-08-07T09:02:18.155Z</time>
      </trkpt>
      <trkpt lat="46.90831" lon="8.6701">
        <ele>1681</ele>
        <time>2021-08-07T09:02:19.155Z</time>
      </trkpt>
      <trkpt lat="46.90832" lon="8.67008">
        <ele>1681</ele>
        <time>2021-08-07T09:02:20.155Z</time>
      </trkpt>
      <trkpt lat="46.90832" lon="8.67007">
        <ele>1681</ele>
        <time>2021-08-07T09:02:21.156Z</time>
      </trkpt>
      <trkpt lat="46.90833" lon="8.67005">
        <ele>1681</ele>
        <time>2021-08-07T09:02:22.156Z</time>
      </trkpt>
      <trkpt lat="46.90833" lon="8.67004">
        <ele>1681</ele>
        <time>2021-08-07T09:02:23.156Z</time>
      </trkpt>
      <trkpt lat="46.90834" lon="8.67002">
        <ele>1681</ele>
        <time>2021-08-07T09:02:24.156Z</time>
      </trkpt>
      <trkpt lat="46.90835" lon="8.67">
        <ele>1681</ele>
        <time>2021-08-07T09:02:25.156Z</time>
      </trkpt>
      <trkpt lat="46.90835" lon="8.66998">
        <ele>1681</ele>
        <time>2021-08-07T09:02:26.156Z</time>
      </trkpt>
      <trkpt lat="46.90836" lon="8.66997">
        <ele>1681</ele>
        <time>2021-08-07T09:02:27.155Z</time>
      </trkpt>
      <trkpt lat="46.90836" lon="8.66996">
        <ele>1682</ele>
        <time>2021-08-07T09:02:28.156Z</time>
      </trkpt>
      <trkpt lat="46.90837" lon="8.66995">
        <ele>1682</ele>
        <time>2021-08-07T09:02:29.155Z</time>
      </trkpt>
      <trkpt lat="46.90838" lon="8.66994">
        <ele>1682</ele>
        <time>2021-08-07T09:02:30.155Z</time>
      </trkpt>
      <trkpt lat="46.90838" lon="8.66993">
        <ele>1682</ele>
        <time>2021-08-07T09:02:31.155Z</time>
      </trkpt>
      <trkpt lat="46.90838" lon="8.66992">
        <ele>1682</ele>
        <time>2021-08-07T09:02:32.156Z</time>
      </trkpt>
      <trkpt lat="46.90839" lon="8.66991">
        <ele>1682</ele>
        <time>2021-08-07T09:02:33.156Z</time>
      </trkpt>
      <trkpt lat="46.90839" lon="8.66989">
        <ele>1682</ele>
        <time>2021-08-07T09:02:34.155Z</time>
      </trkpt>
      <trkpt lat="46.9084" lon="8.66988">
        <ele>1682</ele>
        <time>2021-08-07T09:02:35.156Z</time>
      </trkpt>
      <trkpt lat="46.90841" lon="8.66987">
        <ele>1682</ele>
        <time>2021-08-07T09:02:36.156Z</time>
      </trkpt>
      <trkpt lat="46.90842" lon="8.66987">
        <ele>1682</ele>
        <time>2021-08-07T09:02:37.155Z</time>
      </trkpt>
      <trkpt lat="46.90842" lon="8.66986">
        <ele>1682</ele>
        <time>2021-08-07T09:02:38.156Z</time>
      </trkpt>
      <trkpt lat="46.90843" lon="8.66984">
        <ele>1681</ele>
        <time>2021-08-07T09:02:39.156Z</time>
      </trkpt>
      <trkpt lat="46.90843" lon="8.66983">
        <ele>1681</ele>
        <time>2021-08-07T09:02:40.155Z</time>
      </trkpt>
      <trkpt lat="46.90843" lon="8.66981">
        <ele>1681</ele>
        <time>2021-08-07T09:02:41.156Z</time>
      </trkpt>
      <trkpt lat="46.90843" lon="8.66979">
        <ele>1681</ele>
        <time>2021-08-07T09:02:42.156Z</time>
      </trkpt>
      <trkpt lat="46.90842" lon="8.66978">
        <ele>1681</ele>
        <time>2021-08-07T09:02:43.156Z</time>
      </trkpt>
      <trkpt lat="46.90841" lon="8.66977">
        <ele>1681</ele>
        <time>2021-08-07T09:02:44.156Z</time>
      </trkpt>
      <trkpt lat="46.90841" lon="8.66975">
        <ele>1680</ele>
        <time>2021-08-07T09:02:45.156Z</time>
      </trkpt>
      <trkpt lat="46.90839" lon="8.66974">
        <ele>1680</ele>
        <time>2021-08-07T09:02:46.156Z</time>
      </trkpt>
      <trkpt lat="46.90839" lon="8.66972">
        <ele>1680</ele>
        <time>2021-08-07T09:02:47.155Z</time>
      </trkpt>
      <trkpt lat="46.90839" lon="8.66971">
        <ele>1680</ele>
        <time>2021-08-07T09:02:48.155Z</time>
      </trkpt>
      <trkpt lat="46.90837" lon="8.66969">
        <ele>1680</ele>
        <time>2021-08-07T09:02:49.155Z</time>
      </trkpt>
      <trkpt lat="46.90836" lon="8.66967">
        <ele>1680</ele>
        <time>2021-08-07T09:02:50.156Z</time>
      </trkpt>
      <trkpt lat="46.90834" lon="8.66966">
        <ele>1680</ele>
        <time>2021-08-07T09:02:51.155Z</time>
      </trkpt>
      <trkpt lat="46.90832" lon="8.66965">
        <ele>1680</ele>
        <time>2021-08-07T09:02:52.156Z</time>
      </trkpt>
      <trkpt lat="46.90832" lon="8.66964">
        <ele>1680</ele>
        <time>2021-08-07T09:02:53.156Z</time>
      </trkpt>
      <trkpt lat="46.90832" lon="8.66963">
        <ele>1680</ele>
        <time>2021-08-07T09:02:54.156Z</time>
      </trkpt>
      <trkpt lat="46.90832" lon="8.66962">
        <ele>1681</ele>
        <time>2021-08-07T09:02:55.156Z</time>
      </trkpt>
      <trkpt lat="46.90832" lon="8.6696">
        <ele>1681</ele>
        <time>2021-08-07T09:02:56.155Z</time>
      </trkpt>
      <trkpt lat="46.90831" lon="8.66959">
        <ele>1681</ele>
        <time>2021-08-07T09:02:57.156Z</time>
      </trkpt>
      <trkpt lat="46.90831" lon="8.66958">
        <ele>1681</ele>
        <time>2021-08-07T09:02:58.156Z</time>
      </trkpt>
      <trkpt lat="46.90831" lon="8.66957">
        <ele>1681</ele>
        <time>2021-08-07T09:02:59.156Z</time>
      </trkpt>
      <trkpt lat="46.90832" lon="8.66956">
        <ele>1681</ele>
        <time>2021-08-07T09:03:00.156Z</time>
      </trkpt>
      <trkpt lat="46.90833" lon="8.66954">
        <ele>1681</ele>
        <time>2021-08-07T09:03:01.155Z</time>
      </trkpt>
      <trkpt lat="46.90834" lon="8.66954">
        <ele>1681</ele>
        <time>2021-08-07T09:03:02.156Z</time>
      </trkpt>
      <trkpt lat="46.90834" lon="8.66953">
        <ele>1681</ele>
        <time>2021-08-07T09:03:03.155Z</time>
      </trkpt>
      <trkpt lat="46.90834" lon="8.66953">
        <ele>1680</ele>
        <time>2021-08-07T09:03:04.155Z</time>
      </trkpt>
      <trkpt lat="46.90834" lon="8.66951">
        <ele>1680</ele>
        <time>2021-08-07T09:03:05.156Z</time>
      </trkpt>
      <trkpt lat="46.90834" lon="8.6695">
        <ele>1680</ele>
        <time>2021-08-07T09:03:06.155Z</time>
      </trkpt>
      <trkpt lat="46.90834" lon="8.66949">
        <ele>1680</ele>
        <time>2021-08-07T09:03:07.155Z</time>
      </trkpt>
      <trkpt lat="46.90833" lon="8.66946">
        <ele>1680</ele>
        <time>2021-08-07T09:03:08.157Z</time>
      </trkpt>
      <trkpt lat="46.90832" lon="8.66945">
        <ele>1681</ele>
        <time>2021-08-07T09:03:09.157Z</time>
      </trkpt>
      <trkpt lat="46.9083" lon="8.66943">
        <ele>1681</ele>
        <time>2021-08-07T09:03:10.156Z</time>
      </trkpt>
      <trkpt lat="46.90829" lon="8.6694">
        <ele>1682</ele>
        <time>2021-08-07T09:03:11.156Z</time>
      </trkpt>
      <trkpt lat="46.90828" lon="8.66938">
        <ele>1682</ele>
        <time>2021-08-07T09:03:12.157Z</time>
      </trkpt>
      <trkpt lat="46.90828" lon="8.66936">
        <ele>1682</ele>
        <time>2021-08-07T09:03:13.157Z</time>
      </trkpt>
      <trkpt lat="46.90828" lon="8.66934">
        <ele>1683</ele>
        <time>2021-08-07T09:03:14.157Z</time>
      </trkpt>
      <trkpt lat="46.90828" lon="8.66931">
        <ele>1683</ele>
        <time>2021-08-07T09:03:15.157Z</time>
      </trkpt>
      <trkpt lat="46.90828" lon="8.6693">
        <ele>1683</ele>
        <time>2021-08-07T09:03:16.156Z</time>
      </trkpt>
      <trkpt lat="46.90829" lon="8.66928">
        <ele>1683</ele>
        <time>2021-08-07T09:03:17.156Z</time>
      </trkpt>
      <trkpt lat="46.9083" lon="8.66926">
        <ele>1683</ele>
        <time>2021-08-07T09:03:18.157Z</time>
      </trkpt>
      <trkpt lat="46.9083" lon="8.66925">
        <ele>1683</ele>
        <time>2021-08-07T09:03:19.157Z</time>
      </trkpt>
      <trkpt lat="46.90831" lon="8.66924">
        <ele>1684</ele>
        <time>2021-08-07T09:03:20.156Z</time>
      </trkpt>
      <trkpt lat="46.90832" lon="8.66923">
        <ele>1684</ele>
        <time>2021-08-07T09:03:21.157Z</time>
      </trkpt>
      <trkpt lat="46.90833" lon="8.66922">
        <ele>1684</ele>
        <time>2021-08-07T09:03:22.157Z</time>
      </trkpt>
      <trkpt lat="46.90833" lon="8.66921">
        <ele>1684</ele>
        <time>2021-08-07T09:03:23.157Z</time>
      </trkpt>
      <trkpt lat="46.90834" lon="8.66919">
        <ele>1684</ele>
        <time>2021-08-07T09:03:24.157Z</time>
      </trkpt>
      <trkpt lat="46.90834" lon="8.66916">
        <ele>1685</ele>
        <time>2021-08-07T09:03:25.156Z</time>
      </trkpt>
      <trkpt lat="46.90835" lon="8.66914">
        <ele>1685</ele>
        <time>2021-08-07T09:03:26.157Z</time>
      </trkpt>
      <trkpt lat="46.90835" lon="8.66912">
        <ele>1685</ele>
        <time>2021-08-07T09:03:27.157Z</time>
      </trkpt>
      <trkpt lat="46.90835" lon="8.66909">
        <ele>1685</ele>
        <time>2021-08-07T09:03:28.157Z</time>
      </trkpt>
      <trkpt lat="46.90836" lon="8.66908">
        <ele>1686</ele>
        <time>2021-08-07T09:03:29.156Z</time>
      </trkpt>
      <trkpt lat="46.90836" lon="8.66907">
        <ele>1686</ele>
        <time>2021-08-07T09:03:30.157Z</time>
      </trkpt>
      <trkpt lat="46.90837" lon="8.66906">
        <ele>1686</ele>
        <time>2021-08-07T09:03:31.157Z</time>
      </trkpt>
      <trkpt lat="46.90837" lon="8.66904">
        <ele>1686</ele>
        <time>2021-08-07T09:03:32.157Z</time>
      </trkpt>
      <trkpt lat="46.90838" lon="8.66903">
        <ele>1686</ele>
        <time>2021-08-07T09:03:33.156Z</time>
      </trkpt>
      <trkpt lat="46.90838" lon="8.66901">
        <ele>1686</ele>
        <time>2021-08-07T09:03:34.156Z</time>
      </trkpt>
      <trkpt lat="46.90839" lon="8.669">
        <ele>1686</ele>
        <time>2021-08-07T09:03:36.249Z</time>
      </trkpt>
      <trkpt lat="46.90839" lon="8.66899">
        <ele>1686</ele>
        <time>2021-08-07T09:03:37.249Z</time>
      </trkpt>
      <trkpt lat="46.90839" lon="8.66898">
        <ele>1686</ele>
        <time>2021-08-07T09:03:38.249Z</time>
      </trkpt>
      <trkpt lat="46.9084" lon="8.66897">
        <ele>1686</ele>
        <time>2021-08-07T09:03:39.249Z</time>
      </trkpt>
      <trkpt lat="46.9084" lon="8.66895">
        <ele>1686</ele>
        <time>2021-08-07T09:03:40.250Z</time>
      </trkpt>
      <trkpt lat="46.90841" lon="8.66894">
        <ele>1687</ele>
        <time>2021-08-07T09:03:41.250Z</time>
      </trkpt>
      <trkpt lat="46.90842" lon="8.66894">
        <ele>1687</ele>
        <time>2021-08-07T09:03:42.250Z</time>
      </trkpt>
      <trkpt lat="46.90843" lon="8.66893">
        <ele>1686</ele>
        <time>2021-08-07T09:03:43.249Z</time>
      </trkpt>
      <trkpt lat="46.90843" lon="8.66892">
        <ele>1686</ele>
        <time>2021-08-07T09:03:44.250Z</time>
      </trkpt>
      <trkpt lat="46.90843" lon="8.66891">
        <ele>1686</ele>
        <time>2021-08-07T09:03:45.249Z</time>
      </trkpt>
      <trkpt lat="46.90843" lon="8.66889">
        <ele>1685</ele>
        <time>2021-08-07T09:03:46.249Z</time>
      </trkpt>
      <trkpt lat="46.90844" lon="8.66887">
        <ele>1684</ele>
        <time>2021-08-07T09:03:47.250Z</time>
      </trkpt>
      <trkpt lat="46.90844" lon="8.66886">
        <ele>1683</ele>
        <time>2021-08-07T09:03:48.250Z</time>
      </trkpt>
      <trkpt lat="46.90845" lon="8.66884">
        <ele>1683</ele>
        <time>2021-08-07T09:03:49.250Z</time>
      </trkpt>
      <trkpt lat="46.90845" lon="8.66883">
        <ele>1683</ele>
        <time>2021-08-07T09:03:50.250Z</time>
      </trkpt>
      <trkpt lat="46.90845" lon="8.66881">
        <ele>1683</ele>
        <time>2021-08-07T09:03:51.250Z</time>
      </trkpt>
      <trkpt lat="46.90844" lon="8.66879">
        <ele>1682</ele>
        <time>2021-08-07T09:03:52.250Z</time>
      </trkpt>
      <trkpt lat="46.90844" lon="8.66877">
        <ele>1682</ele>
        <time>2021-08-07T09:03:53.249Z</time>
      </trkpt>
      <trkpt lat="46.90843" lon="8.66875">
        <ele>1681</ele>
        <time>2021-08-07T09:03:54.250Z</time>
      </trkpt>
      <trkpt lat="46.90843" lon="8.66874">
        <ele>1681</ele>
        <time>2021-08-07T09:03:55.249Z</time>
      </trkpt>
      <trkpt lat="46.90844" lon="8.66872">
        <ele>1681</ele>
        <time>2021-08-07T09:03:56.250Z</time>
      </trkpt>
      <trkpt lat="46.90844" lon="8.66871">
        <ele>1680</ele>
        <time>2021-08-07T09:03:57.250Z</time>
      </trkpt>
      <trkpt lat="46.90845" lon="8.66869">
        <ele>1680</ele>
        <time>2021-08-07T09:03:58.250Z</time>
      </trkpt>
      <trkpt lat="46.90846" lon="8.66869">
        <ele>1680</ele>
        <time>2021-08-07T09:03:59.250Z</time>
      </trkpt>
      <trkpt lat="46.90846" lon="8.66868">
        <ele>1681</ele>
        <time>2021-08-07T09:04:00.250Z</time>
      </trkpt>
      <trkpt lat="46.90847" lon="8.66867">
        <ele>1681</ele>
        <time>2021-08-07T09:04:01.249Z</time>
      </trkpt>
      <trkpt lat="46.90847" lon="8.66865">
        <ele>1681</ele>
        <time>2021-08-07T09:04:02.249Z</time>
      </trkpt>
      <trkpt lat="46.90847" lon="8.66864">
        <ele>1681</ele>
        <time>2021-08-07T09:04:03.249Z</time>
      </trkpt>
      <trkpt lat="46.90848" lon="8.66862">
        <ele>1681</ele>
        <time>2021-08-07T09:04:04.250Z</time>
      </trkpt>
      <trkpt lat="46.90848" lon="8.66861">
        <ele>1682</ele>
        <time>2021-08-07T09:04:05.249Z</time>
      </trkpt>
      <trkpt lat="46.90849" lon="8.66859">
        <ele>1682</ele>
        <time>2021-08-07T09:04:06.250Z</time>
      </trkpt>
      <trkpt lat="46.90849" lon="8.66858">
        <ele>1682</ele>
        <time>2021-08-07T09:04:07.250Z</time>
      </trkpt>
      <trkpt lat="46.90849" lon="8.66856">
        <ele>1682</ele>
        <time>2021-08-07T09:04:08.250Z</time>
      </trkpt>
      <trkpt lat="46.90849" lon="8.66854">
        <ele>1682</ele>
        <time>2021-08-07T09:04:09.249Z</time>
      </trkpt>
      <trkpt lat="46.90849" lon="8.66852">
        <ele>1682</ele>
        <time>2021-08-07T09:04:10.249Z</time>
      </trkpt>
      <trkpt lat="46.90849" lon="8.66851">
        <ele>1682</ele>
        <time>2021-08-07T09:04:11.250Z</time>
      </trkpt>
      <trkpt lat="46.90849" lon="8.6685">
        <ele>1682</ele>
        <time>2021-08-07T09:04:12.250Z</time>
      </trkpt>
      <trkpt lat="46.9085" lon="8.66848">
        <ele>1682</ele>
        <time>2021-08-07T09:04:13.250Z</time>
      </trkpt>
      <trkpt lat="46.9085" lon="8.66847">
        <ele>1682</ele>
        <time>2021-08-07T09:04:14.250Z</time>
      </trkpt>
      <trkpt lat="46.9085" lon="8.66846">
        <ele>1682</ele>
        <time>2021-08-07T09:04:15.250Z</time>
      </trkpt>
      <trkpt lat="46.90851" lon="8.66845">
        <ele>1681</ele>
        <time>2021-08-07T09:04:16.250Z</time>
      </trkpt>
      <trkpt lat="46.90851" lon="8.66843">
        <ele>1681</ele>
        <time>2021-08-07T09:04:17.250Z</time>
      </trkpt>
      <trkpt lat="46.90853" lon="8.66842">
        <ele>1681</ele>
        <time>2021-08-07T09:04:18.250Z</time>
      </trkpt>
      <trkpt lat="46.90854" lon="8.6684">
        <ele>1681</ele>
        <time>2021-08-07T09:04:19.249Z</time>
      </trkpt>
      <trkpt lat="46.90855" lon="8.66838">
        <ele>1681</ele>
        <time>2021-08-07T09:04:20.249Z</time>
      </trkpt>
      <trkpt lat="46.90855" lon="8.66837">
        <ele>1681</ele>
        <time>2021-08-07T09:04:21.250Z</time>
      </trkpt>
      <trkpt lat="46.90855" lon="8.66836">
        <ele>1681</ele>
        <time>2021-08-07T09:04:22.250Z</time>
      </trkpt>
      <trkpt lat="46.90855" lon="8.66835">
        <ele>1681</ele>
        <time>2021-08-07T09:04:23.249Z</time>
      </trkpt>
      <trkpt lat="46.90856" lon="8.66834">
        <ele>1680</ele>
        <time>2021-08-07T09:04:24.250Z</time>
      </trkpt>
      <trkpt lat="46.90856" lon="8.66833">
        <ele>1679</ele>
        <time>2021-08-07T09:04:25.250Z</time>
      </trkpt>
      <trkpt lat="46.90856" lon="8.66832">
        <ele>1678</ele>
        <time>2021-08-07T09:04:26.249Z</time>
      </trkpt>
      <trkpt lat="46.90856" lon="8.66831">
        <ele>1678</ele>
        <time>2021-08-07T09:04:27.250Z</time>
      </trkpt>
      <trkpt lat="46.90857" lon="8.66829">
        <ele>1677</ele>
        <time>2021-08-07T09:04:28.250Z</time>
      </trkpt>
      <trkpt lat="46.90857" lon="8.66828">
        <ele>1677</ele>
        <time>2021-08-07T09:04:29.250Z</time>
      </trkpt>
      <trkpt lat="46.90857" lon="8.66828">
        <ele>1676</ele>
        <time>2021-08-07T09:04:30.250Z</time>
      </trkpt>
      <trkpt lat="46.90857" lon="8.66827">
        <ele>1676</ele>
        <time>2021-08-07T09:04:31.250Z</time>
      </trkpt>
      <trkpt lat="46.90857" lon="8.66827">
        <ele>1676</ele>
        <time>2021-08-07T09:04:32.250Z</time>
      </trkpt>
      <trkpt lat="46.90858" lon="8.66826">
        <ele>1676</ele>
        <time>2021-08-07T09:04:33.250Z</time>
      </trkpt>
      <trkpt lat="46.90858" lon="8.66825">
        <ele>1676</ele>
        <time>2021-08-07T09:04:34.250Z</time>
      </trkpt>
      <trkpt lat="46.9086" lon="8.66823">
        <ele>1676</ele>
        <time>2021-08-07T09:04:35.250Z</time>
      </trkpt>
      <trkpt lat="46.9086" lon="8.66822">
        <ele>1676</ele>
        <time>2021-08-07T09:04:36.249Z</time>
      </trkpt>
      <trkpt lat="46.9086" lon="8.66821">
        <ele>1675</ele>
        <time>2021-08-07T09:04:37.249Z</time>
      </trkpt>
      <trkpt lat="46.9086" lon="8.6682">
        <ele>1675</ele>
        <time>2021-08-07T09:04:38.250Z</time>
      </trkpt>
      <trkpt lat="46.9086" lon="8.66818">
        <ele>1676</ele>
        <time>2021-08-07T09:04:39.250Z</time>
      </trkpt>
      <trkpt lat="46.9086" lon="8.66817">
        <ele>1676</ele>
        <time>2021-08-07T09:04:40.250Z</time>
      </trkpt>
      <trkpt lat="46.9086" lon="8.66815">
        <ele>1675</ele>
        <time>2021-08-07T09:04:41.249Z</time>
      </trkpt>
      <trkpt lat="46.9086" lon="8.66813">
        <ele>1675</ele>
        <time>2021-08-07T09:04:42.250Z</time>
      </trkpt>
      <trkpt lat="46.9086" lon="8.66812">
        <ele>1675</ele>
        <time>2021-08-07T09:04:43.250Z</time>
      </trkpt>
      <trkpt lat="46.90859" lon="8.6681">
        <ele>1674</ele>
        <time>2021-08-07T09:04:44.250Z</time>
      </trkpt>
      <trkpt lat="46.90859" lon="8.66809">
        <ele>1674</ele>
        <time>2021-08-07T09:04:45.250Z</time>
      </trkpt>
      <trkpt lat="46.90859" lon="8.66808">
        <ele>1674</ele>
        <time>2021-08-07T09:04:46.250Z</time>
      </trkpt>
      <trkpt lat="46.90859" lon="8.66806">
        <ele>1673</ele>
        <time>2021-08-07T09:04:47.250Z</time>
      </trkpt>
      <trkpt lat="46.90859" lon="8.66805">
        <ele>1673</ele>
        <time>2021-08-07T09:04:48.250Z</time>
      </trkpt>
      <trkpt lat="46.90859" lon="8.66804">
        <ele>1673</ele>
        <time>2021-08-07T09:04:49.249Z</time>
      </trkpt>
      <trkpt lat="46.90859" lon="8.66802">
        <ele>1672</ele>
        <time>2021-08-07T09:04:50.249Z</time>
      </trkpt>
      <trkpt lat="46.90859" lon="8.66801">
        <ele>1672</ele>
        <time>2021-08-07T09:04:51.250Z</time>
      </trkpt>
      <trkpt lat="46.90859" lon="8.66799">
        <ele>1671</ele>
        <time>2021-08-07T09:04:52.250Z</time>
      </trkpt>
      <trkpt lat="46.90859" lon="8.66797">
        <ele>1671</ele>
        <time>2021-08-07T09:04:54.249Z</time>
      </trkpt>
      <trkpt lat="46.90859" lon="8.66796">
        <ele>1670</ele>
        <time>2021-08-07T09:04:55.248Z</time>
      </trkpt>
      <trkpt lat="46.9086" lon="8.66795">
        <ele>1670</ele>
        <time>2021-08-07T09:04:56.249Z</time>
      </trkpt>
      <trkpt lat="46.9086" lon="8.66793">
        <ele>1669</ele>
        <time>2021-08-07T09:04:57.248Z</time>
      </trkpt>
      <trkpt lat="46.9086" lon="8.66792">
        <ele>1669</ele>
        <time>2021-08-07T09:04:58.248Z</time>
      </trkpt>
      <trkpt lat="46.9086" lon="8.6679">
        <ele>1668</ele>
        <time>2021-08-07T09:04:59.249Z</time>
      </trkpt>
      <trkpt lat="46.9086" lon="8.66789">
        <ele>1667</ele>
        <time>2021-08-07T09:05:00.248Z</time>
      </trkpt>
      <trkpt lat="46.9086" lon="8.66788">
        <ele>1667</ele>
        <time>2021-08-07T09:05:01.249Z</time>
      </trkpt>
      <trkpt lat="46.9086" lon="8.66787">
        <ele>1666</ele>
        <time>2021-08-07T09:05:02.248Z</time>
      </trkpt>
      <trkpt lat="46.9086" lon="8.66785">
        <ele>1666</ele>
        <time>2021-08-07T09:05:03.249Z</time>
      </trkpt>
      <trkpt lat="46.9086" lon="8.66784">
        <ele>1666</ele>
        <time>2021-08-07T09:05:04.249Z</time>
      </trkpt>
      <trkpt lat="46.9086" lon="8.66782">
        <ele>1665</ele>
        <time>2021-08-07T09:05:05.249Z</time>
      </trkpt>
      <trkpt lat="46.90859" lon="8.66781">
        <ele>1665</ele>
        <time>2021-08-07T09:05:06.249Z</time>
      </trkpt>
      <trkpt lat="46.90858" lon="8.6678">
        <ele>1665</ele>
        <time>2021-08-07T09:05:07.249Z</time>
      </trkpt>
      <trkpt lat="46.90857" lon="8.66778">
        <ele>1665</ele>
        <time>2021-08-07T09:05:08.248Z</time>
      </trkpt>
      <trkpt lat="46.90855" lon="8.66776">
        <ele>1665</ele>
        <time>2021-08-07T09:05:09.249Z</time>
      </trkpt>
      <trkpt lat="46.90855" lon="8.66773">
        <ele>1665</ele>
        <time>2021-08-07T09:05:10.248Z</time>
      </trkpt>
      <trkpt lat="46.90853" lon="8.66771">
        <ele>1665</ele>
        <time>2021-08-07T09:05:11.249Z</time>
      </trkpt>
      <trkpt lat="46.90852" lon="8.6677">
        <ele>1665</ele>
        <time>2021-08-07T09:05:12.248Z</time>
      </trkpt>
      <trkpt lat="46.90852" lon="8.66768">
        <ele>1665</ele>
        <time>2021-08-07T09:05:13.249Z</time>
      </trkpt>
      <trkpt lat="46.90853" lon="8.66767">
        <ele>1665</ele>
        <time>2021-08-07T09:05:14.249Z</time>
      </trkpt>
      <trkpt lat="46.90853" lon="8.66766">
        <ele>1665</ele>
        <time>2021-08-07T09:05:15.249Z</time>
      </trkpt>
      <trkpt lat="46.90853" lon="8.66765">
        <ele>1665</ele>
        <time>2021-08-07T09:05:16.249Z</time>
      </trkpt>
      <trkpt lat="46.90852" lon="8.66764">
        <ele>1665</ele>
        <time>2021-08-07T09:05:17.249Z</time>
      </trkpt>
      <trkpt lat="46.90853" lon="8.66763">
        <ele>1665</ele>
        <time>2021-08-07T09:05:18.249Z</time>
      </trkpt>
      <trkpt lat="46.90853" lon="8.66763">
        <ele>1664</ele>
        <time>2021-08-07T09:05:19.248Z</time>
      </trkpt>
      <trkpt lat="46.90854" lon="8.66762">
        <ele>1664</ele>
        <time>2021-08-07T09:05:20.249Z</time>
      </trkpt>
      <trkpt lat="46.90854" lon="8.66762">
        <ele>1663</ele>
        <time>2021-08-07T09:05:21.249Z</time>
      </trkpt>
      <trkpt lat="46.90855" lon="8.66762">
        <ele>1663</ele>
        <time>2021-08-07T09:05:22.249Z</time>
      </trkpt>
      <trkpt lat="46.90856" lon="8.66761">
        <ele>1662</ele>
        <time>2021-08-07T09:05:23.248Z</time>
      </trkpt>
      <trkpt lat="46.90858" lon="8.6676">
        <ele>1662</ele>
        <time>2021-08-07T09:05:24.249Z</time>
      </trkpt>
      <trkpt lat="46.90858" lon="8.6676">
        <ele>1661</ele>
        <time>2021-08-07T09:05:25.249Z</time>
      </trkpt>
      <trkpt lat="46.9086" lon="8.66758">
        <ele>1661</ele>
        <time>2021-08-07T09:05:26.249Z</time>
      </trkpt>
      <trkpt lat="46.90861" lon="8.66757">
        <ele>1661</ele>
        <time>2021-08-07T09:05:27.249Z</time>
      </trkpt>
      <trkpt lat="46.90862" lon="8.66755">
        <ele>1660</ele>
        <time>2021-08-07T09:05:28.248Z</time>
      </trkpt>
      <trkpt lat="46.90862" lon="8.66754">
        <ele>1660</ele>
        <time>2021-08-07T09:05:29.249Z</time>
      </trkpt>
      <trkpt lat="46.90863" lon="8.66753">
        <ele>1659</ele>
        <time>2021-08-07T09:05:30.249Z</time>
      </trkpt>
      <trkpt lat="46.90864" lon="8.66752">
        <ele>1659</ele>
        <time>2021-08-07T09:05:31.249Z</time>
      </trkpt>
      <trkpt lat="46.90865" lon="8.6675">
        <ele>1659</ele>
        <time>2021-08-07T09:05:32.249Z</time>
      </trkpt>
      <trkpt lat="46.90866" lon="8.66749">
        <ele>1659</ele>
        <time>2021-08-07T09:05:33.248Z</time>
      </trkpt>
      <trkpt lat="46.90866" lon="8.66749">
        <ele>1659</ele>
        <time>2021-08-07T09:05:34.248Z</time>
      </trkpt>
      <trkpt lat="46.90867" lon="8.66748">
        <ele>1660</ele>
        <time>2021-08-07T09:05:35.249Z</time>
      </trkpt>
      <trkpt lat="46.90868" lon="8.66748">
        <ele>1659</ele>
        <time>2021-08-07T09:05:36.249Z</time>
      </trkpt>
      <trkpt lat="46.90869" lon="8.66748">
        <ele>1659</ele>
        <time>2021-08-07T09:05:37.249Z</time>
      </trkpt>
      <trkpt lat="46.9087" lon="8.66748">
        <ele>1659</ele>
        <time>2021-08-07T09:05:38.249Z</time>
      </trkpt>
      <trkpt lat="46.9087" lon="8.66748">
        <ele>1658</ele>
        <time>2021-08-07T09:05:39.249Z</time>
      </trkpt>
      <trkpt lat="46.90871" lon="8.66748">
        <ele>1657</ele>
        <time>2021-08-07T09:05:40.249Z</time>
      </trkpt>
      <trkpt lat="46.90871" lon="8.66748">
        <ele>1657</ele>
        <time>2021-08-07T09:05:41.248Z</time>
      </trkpt>
      <trkpt lat="46.90872" lon="8.66749">
        <ele>1656</ele>
        <time>2021-08-07T09:05:42.249Z</time>
      </trkpt>
      <trkpt lat="46.90873" lon="8.66748">
        <ele>1655</ele>
        <time>2021-08-07T09:05:43.249Z</time>
      </trkpt>
      <trkpt lat="46.90874" lon="8.66748">
        <ele>1655</ele>
        <time>2021-08-07T09:05:44.249Z</time>
      </trkpt>
      <trkpt lat="46.90875" lon="8.66748">
        <ele>1655</ele>
        <time>2021-08-07T09:05:45.249Z</time>
      </trkpt>
      <trkpt lat="46.90876" lon="8.66748">
        <ele>1654</ele>
        <time>2021-08-07T09:05:46.248Z</time>
      </trkpt>
      <trkpt lat="46.90877" lon="8.66748">
        <ele>1654</ele>
        <time>2021-08-07T09:05:47.249Z</time>
      </trkpt>
      <trkpt lat="46.90877" lon="8.66748">
        <ele>1654</ele>
        <time>2021-08-07T09:05:48.249Z</time>
      </trkpt>
      <trkpt lat="46.90878" lon="8.66748">
        <ele>1653</ele>
        <time>2021-08-07T09:05:49.249Z</time>
      </trkpt>
      <trkpt lat="46.90879" lon="8.66748">
        <ele>1653</ele>
        <time>2021-08-07T09:05:50.248Z</time>
      </trkpt>
      <trkpt lat="46.90879" lon="8.66748">
        <ele>1653</ele>
        <time>2021-08-07T09:05:51.249Z</time>
      </trkpt>
      <trkpt lat="46.9088" lon="8.66747">
        <ele>1653</ele>
        <time>2021-08-07T09:05:52.248Z</time>
      </trkpt>
      <trkpt lat="46.90881" lon="8.66746">
        <ele>1653</ele>
        <time>2021-08-07T09:05:53.248Z</time>
      </trkpt>
      <trkpt lat="46.90881" lon="8.66745">
        <ele>1653</ele>
        <time>2021-08-07T09:05:54.248Z</time>
      </trkpt>
      <trkpt lat="46.90883" lon="8.66744">
        <ele>1653</ele>
        <time>2021-08-07T09:05:55.248Z</time>
      </trkpt>
      <trkpt lat="46.90883" lon="8.66743">
        <ele>1653</ele>
        <time>2021-08-07T09:05:56.249Z</time>
      </trkpt>
      <trkpt lat="46.90884" lon="8.66743">
        <ele>1653</ele>
        <time>2021-08-07T09:05:57.249Z</time>
      </trkpt>
      <trkpt lat="46.90884" lon="8.66743">
        <ele>1653</ele>
        <time>2021-08-07T09:05:58.249Z</time>
      </trkpt>
      <trkpt lat="46.90885" lon="8.66742">
        <ele>1653</ele>
        <time>2021-08-07T09:05:59.251Z</time>
      </trkpt>
      <trkpt lat="46.90885" lon="8.66742">
        <ele>1653</ele>
        <time>2021-08-07T09:06:00.250Z</time>
      </trkpt>
      <trkpt lat="46.90885" lon="8.66742">
        <ele>1653</ele>
        <time>2021-08-07T09:06:01.250Z</time>
      </trkpt>
      <trkpt lat="46.90885" lon="8.66743">
        <ele>1653</ele>
        <time>2021-08-07T09:06:02.250Z</time>
      </trkpt>
      <trkpt lat="46.90886" lon="8.66743">
        <ele>1652</ele>
        <time>2021-08-07T09:06:03.251Z</time>
      </trkpt>
      <trkpt lat="46.90886" lon="8.66743">
        <ele>1652</ele>
        <time>2021-08-07T09:06:04.250Z</time>
      </trkpt>
      <trkpt lat="46.90887" lon="8.66738">
        <ele>1653</ele>
        <time>2021-08-07T09:06:05.250Z</time>
      </trkpt>
      <trkpt lat="46.90888" lon="8.66737">
        <ele>1656</ele>
        <time>2021-08-07T09:06:06.251Z</time>
      </trkpt>
      <trkpt lat="46.90888" lon="8.66737">
        <ele>1657</ele>
        <time>2021-08-07T09:06:07.251Z</time>
      </trkpt>
      <trkpt lat="46.90888" lon="8.66737">
        <ele>1658</ele>
        <time>2021-08-07T09:06:08.251Z</time>
      </trkpt>
      <trkpt lat="46.90889" lon="8.66736">
        <ele>1659</ele>
        <time>2021-08-07T09:06:09.251Z</time>
      </trkpt>
      <trkpt lat="46.90889" lon="8.66736">
        <ele>1660</ele>
        <time>2021-08-07T09:06:10.251Z</time>
      </trkpt>
      <trkpt lat="46.90889" lon="8.66735">
        <ele>1661</ele>
        <time>2021-08-07T09:06:11.251Z</time>
      </trkpt>
      <trkpt lat="46.90889" lon="8.66735">
        <ele>1662</ele>
        <time>2021-08-07T09:06:12.250Z</time>
      </trkpt>
      <trkpt lat="46.90888" lon="8.66735">
        <ele>1663</ele>
        <time>2021-08-07T09:06:13.251Z</time>
      </trkpt>
      <trkpt lat="46.90888" lon="8.66734">
        <ele>1664</ele>
        <time>2021-08-07T09:06:14.250Z</time>
      </trkpt>
      <trkpt lat="46.90893" lon="8.66735">
        <ele>1668</ele>
        <time>2021-08-07T09:06:15.252Z</time>
      </trkpt>
      <trkpt lat="46.90893" lon="8.66735">
        <ele>1669</ele>
        <time>2021-08-07T09:06:16.252Z</time>
      </trkpt>
      <trkpt lat="46.90892" lon="8.66736">
        <ele>1669</ele>
        <time>2021-08-07T09:06:17.253Z</time>
      </trkpt>
      <trkpt lat="46.90892" lon="8.66735">
        <ele>1668</ele>
        <time>2021-08-07T09:06:18.252Z</time>
      </trkpt>
      <trkpt lat="46.90889" lon="8.66737">
        <ele>1666</ele>
        <time>2021-08-07T09:06:19.252Z</time>
      </trkpt>
      <trkpt lat="46.90888" lon="8.66738">
        <ele>1666</ele>
        <time>2021-08-07T09:06:20.253Z</time>
      </trkpt>
      <trkpt lat="46.90887" lon="8.66739">
        <ele>1666</ele>
        <time>2021-08-07T09:06:21.252Z</time>
      </trkpt>
      <trkpt lat="46.90887" lon="8.6674">
        <ele>1665</ele>
        <time>2021-08-07T09:06:22.252Z</time>
      </trkpt>
      <trkpt lat="46.90888" lon="8.6674">
        <ele>1665</ele>
        <time>2021-08-07T09:06:23.252Z</time>
      </trkpt>
      <trkpt lat="46.90888" lon="8.6674">
        <ele>1665</ele>
        <time>2021-08-07T09:06:24.252Z</time>
      </trkpt>
      <trkpt lat="46.90888" lon="8.66741">
        <ele>1654</ele>
        <time>2021-08-07T09:06:25.254Z</time>
      </trkpt>
      <trkpt lat="46.90888" lon="8.6674">
        <ele>1654</ele>
        <time>2021-08-07T09:06:26.253Z</time>
      </trkpt>
      <trkpt lat="46.90888" lon="8.66739">
        <ele>1653</ele>
        <time>2021-08-07T09:06:27.253Z</time>
      </trkpt>
      <trkpt lat="46.90888" lon="8.66738">
        <ele>1653</ele>
        <time>2021-08-07T09:06:28.254Z</time>
      </trkpt>
      <trkpt lat="46.90888" lon="8.66737">
        <ele>1652</ele>
        <time>2021-08-07T09:06:29.254Z</time>
      </trkpt>
      <trkpt lat="46.90888" lon="8.66735">
        <ele>1652</ele>
        <time>2021-08-07T09:06:30.254Z</time>
      </trkpt>
      <trkpt lat="46.90888" lon="8.66734">
        <ele>1652</ele>
        <time>2021-08-07T09:06:31.254Z</time>
      </trkpt>
      <trkpt lat="46.90889" lon="8.66733">
        <ele>1652</ele>
        <time>2021-08-07T09:06:32.253Z</time>
      </trkpt>
      <trkpt lat="46.90889" lon="8.66731">
        <ele>1651</ele>
        <time>2021-08-07T09:06:33.254Z</time>
      </trkpt>
      <trkpt lat="46.90889" lon="8.6673">
        <ele>1651</ele>
        <time>2021-08-07T09:06:34.254Z</time>
      </trkpt>
      <trkpt lat="46.90889" lon="8.66729">
        <ele>1651</ele>
        <time>2021-08-07T09:06:35.253Z</time>
      </trkpt>
      <trkpt lat="46.90889" lon="8.66727">
        <ele>1650</ele>
        <time>2021-08-07T09:06:36.253Z</time>
      </trkpt>
      <trkpt lat="46.90889" lon="8.66726">
        <ele>1650</ele>
        <time>2021-08-07T09:06:37.254Z</time>
      </trkpt>
      <trkpt lat="46.90889" lon="8.66724">
        <ele>1649</ele>
        <time>2021-08-07T09:06:38.254Z</time>
      </trkpt>
      <trkpt lat="46.9089" lon="8.66722">
        <ele>1649</ele>
        <time>2021-08-07T09:06:39.254Z</time>
      </trkpt>
      <trkpt lat="46.9089" lon="8.6672">
        <ele>1649</ele>
        <time>2021-08-07T09:06:40.254Z</time>
      </trkpt>
      <trkpt lat="46.90891" lon="8.66718">
        <ele>1649</ele>
        <time>2021-08-07T09:06:41.254Z</time>
      </trkpt>
      <trkpt lat="46.90891" lon="8.66714">
        <ele>1648</ele>
        <time>2021-08-07T09:06:42.254Z</time>
      </trkpt>
      <trkpt lat="46.90891" lon="8.66713">
        <ele>1648</ele>
        <time>2021-08-07T09:06:43.253Z</time>
      </trkpt>
      <trkpt lat="46.90891" lon="8.66711">
        <ele>1647</ele>
        <time>2021-08-07T09:06:44.253Z</time>
      </trkpt>
      <trkpt lat="46.90892" lon="8.6671">
        <ele>1647</ele>
        <time>2021-08-07T09:06:45.254Z</time>
      </trkpt>
      <trkpt lat="46.90892" lon="8.66708">
        <ele>1647</ele>
        <time>2021-08-07T09:06:46.253Z</time>
      </trkpt>
      <trkpt lat="46.90893" lon="8.66707">
        <ele>1647</ele>
        <time>2021-08-07T09:06:47.254Z</time>
      </trkpt>
      <trkpt lat="46.90893" lon="8.66705">
        <ele>1647</ele>
        <time>2021-08-07T09:06:48.254Z</time>
      </trkpt>
      <trkpt lat="46.90894" lon="8.66703">
        <ele>1647</ele>
        <time>2021-08-07T09:06:49.254Z</time>
      </trkpt>
      <trkpt lat="46.90894" lon="8.66702">
        <ele>1647</ele>
        <time>2021-08-07T09:06:50.254Z</time>
      </trkpt>
      <trkpt lat="46.90894" lon="8.667">
        <ele>1647</ele>
        <time>2021-08-07T09:06:51.253Z</time>
      </trkpt>
      <trkpt lat="46.90894" lon="8.66699">
        <ele>1646</ele>
        <time>2021-08-07T09:06:52.254Z</time>
      </trkpt>
      <trkpt lat="46.90895" lon="8.66697">
        <ele>1647</ele>
        <time>2021-08-07T09:06:53.254Z</time>
      </trkpt>
      <trkpt lat="46.90896" lon="8.66695">
        <ele>1647</ele>
        <time>2021-08-07T09:06:54.254Z</time>
      </trkpt>
      <trkpt lat="46.90897" lon="8.66693">
        <ele>1646</ele>
        <time>2021-08-07T09:06:55.253Z</time>
      </trkpt>
      <trkpt lat="46.90898" lon="8.66691">
        <ele>1646</ele>
        <time>2021-08-07T09:06:56.254Z</time>
      </trkpt>
      <trkpt lat="46.90898" lon="8.66689">
        <ele>1646</ele>
        <time>2021-08-07T09:06:57.253Z</time>
      </trkpt>
      <trkpt lat="46.90898" lon="8.66687">
        <ele>1646</ele>
        <time>2021-08-07T09:06:58.254Z</time>
      </trkpt>
      <trkpt lat="46.90898" lon="8.66686">
        <ele>1646</ele>
        <time>2021-08-07T09:06:59.254Z</time>
      </trkpt>
      <trkpt lat="46.90898" lon="8.66684">
        <ele>1646</ele>
        <time>2021-08-07T09:07:00.254Z</time>
      </trkpt>
      <trkpt lat="46.90899" lon="8.66683">
        <ele>1646</ele>
        <time>2021-08-07T09:07:01.254Z</time>
      </trkpt>
      <trkpt lat="46.90901" lon="8.66681">
        <ele>1645</ele>
        <time>2021-08-07T09:07:02.253Z</time>
      </trkpt>
      <trkpt lat="46.90902" lon="8.6668">
        <ele>1645</ele>
        <time>2021-08-07T09:07:03.253Z</time>
      </trkpt>
      <trkpt lat="46.90902" lon="8.66679">
        <ele>1645</ele>
        <time>2021-08-07T09:07:04.254Z</time>
      </trkpt>
      <trkpt lat="46.90902" lon="8.66677">
        <ele>1645</ele>
        <time>2021-08-07T09:07:05.254Z</time>
      </trkpt>
      <trkpt lat="46.90902" lon="8.66676">
        <ele>1645</ele>
        <time>2021-08-07T09:07:06.254Z</time>
      </trkpt>
      <trkpt lat="46.90902" lon="8.66674">
        <ele>1645</ele>
        <time>2021-08-07T09:07:07.253Z</time>
      </trkpt>
      <trkpt lat="46.90902" lon="8.66672">
        <ele>1645</ele>
        <time>2021-08-07T09:07:08.253Z</time>
      </trkpt>
      <trkpt lat="46.90903" lon="8.66671">
        <ele>1645</ele>
        <time>2021-08-07T09:07:10.355Z</time>
      </trkpt>
      <trkpt lat="46.90903" lon="8.66668">
        <ele>1645</ele>
        <time>2021-08-07T09:07:11.354Z</time>
      </trkpt>
      <trkpt lat="46.90903" lon="8.66667">
        <ele>1645</ele>
        <time>2021-08-07T09:07:12.354Z</time>
      </trkpt>
      <trkpt lat="46.90902" lon="8.66666">
        <ele>1645</ele>
        <time>2021-08-07T09:07:13.355Z</time>
      </trkpt>
      <trkpt lat="46.909" lon="8.66666">
        <ele>1646</ele>
        <time>2021-08-07T09:07:14.355Z</time>
      </trkpt>
      <trkpt lat="46.90899" lon="8.66666">
        <ele>1646</ele>
        <time>2021-08-07T09:07:15.354Z</time>
      </trkpt>
      <trkpt lat="46.90898" lon="8.66665">
        <ele>1646</ele>
        <time>2021-08-07T09:07:16.355Z</time>
      </trkpt>
      <trkpt lat="46.90897" lon="8.66664">
        <ele>1647</ele>
        <time>2021-08-07T09:07:17.355Z</time>
      </trkpt>
      <trkpt lat="46.90896" lon="8.66663">
        <ele>1647</ele>
        <time>2021-08-07T09:07:18.355Z</time>
      </trkpt>
      <trkpt lat="46.90895" lon="8.66662">
        <ele>1647</ele>
        <time>2021-08-07T09:07:19.355Z</time>
      </trkpt>
      <trkpt lat="46.90895" lon="8.66661">
        <ele>1647</ele>
        <time>2021-08-07T09:07:20.354Z</time>
      </trkpt>
      <trkpt lat="46.90895" lon="8.6666">
        <ele>1647</ele>
        <time>2021-08-07T09:07:21.354Z</time>
      </trkpt>
      <trkpt lat="46.90894" lon="8.66659">
        <ele>1648</ele>
        <time>2021-08-07T09:07:22.355Z</time>
      </trkpt>
      <trkpt lat="46.90894" lon="8.66659">
        <ele>1648</ele>
        <time>2021-08-07T09:07:23.355Z</time>
      </trkpt>
      <trkpt lat="46.90893" lon="8.66659">
        <ele>1648</ele>
        <time>2021-08-07T09:07:24.354Z</time>
      </trkpt>
      <trkpt lat="46.90891" lon="8.66658">
        <ele>1648</ele>
        <time>2021-08-07T09:07:25.355Z</time>
      </trkpt>
      <trkpt lat="46.90891" lon="8.66658">
        <ele>1648</ele>
        <time>2021-08-07T09:07:26.355Z</time>
      </trkpt>
      <trkpt lat="46.90889" lon="8.66657">
        <ele>1648</ele>
        <time>2021-08-07T09:07:27.354Z</time>
      </trkpt>
      <trkpt lat="46.90887" lon="8.66656">
        <ele>1648</ele>
        <time>2021-08-07T09:07:28.355Z</time>
      </trkpt>
      <trkpt lat="46.90886" lon="8.66655">
        <ele>1647</ele>
        <time>2021-08-07T09:07:29.354Z</time>
      </trkpt>
      <trkpt lat="46.90886" lon="8.66654">
        <ele>1647</ele>
        <time>2021-08-07T09:07:30.355Z</time>
      </trkpt>
      <trkpt lat="46.90885" lon="8.66654">
        <ele>1646</ele>
        <time>2021-08-07T09:07:31.354Z</time>
      </trkpt>
      <trkpt lat="46.90884" lon="8.66654">
        <ele>1646</ele>
        <time>2021-08-07T09:07:32.354Z</time>
      </trkpt>
      <trkpt lat="46.90883" lon="8.66654">
        <ele>1646</ele>
        <time>2021-08-07T09:07:33.355Z</time>
      </trkpt>
      <trkpt lat="46.90882" lon="8.66654">
        <ele>1646</ele>
        <time>2021-08-07T09:07:34.355Z</time>
      </trkpt>
      <trkpt lat="46.90881" lon="8.66653">
        <ele>1646</ele>
        <time>2021-08-07T09:07:35.354Z</time>
      </trkpt>
      <trkpt lat="46.9088" lon="8.66653">
        <ele>1646</ele>
        <time>2021-08-07T09:07:36.355Z</time>
      </trkpt>
      <trkpt lat="46.90879" lon="8.66653">
        <ele>1646</ele>
        <time>2021-08-07T09:07:37.354Z</time>
      </trkpt>
      <trkpt lat="46.90879" lon="8.66653">
        <ele>1645</ele>
        <time>2021-08-07T09:07:38.355Z</time>
      </trkpt>
      <trkpt lat="46.90878" lon="8.66653">
        <ele>1645</ele>
        <time>2021-08-07T09:07:39.355Z</time>
      </trkpt>
      <trkpt lat="46.90877" lon="8.66652">
        <ele>1645</ele>
        <time>2021-08-07T09:07:40.354Z</time>
      </trkpt>
      <trkpt lat="46.90877" lon="8.66651">
        <ele>1645</ele>
        <time>2021-08-07T09:07:41.355Z</time>
      </trkpt>
      <trkpt lat="46.90877" lon="8.66652">
        <ele>1645</ele>
        <time>2021-08-07T09:07:42.354Z</time>
      </trkpt>
      <trkpt lat="46.90876" lon="8.66653">
        <ele>1644</ele>
        <time>2021-08-07T09:07:43.354Z</time>
      </trkpt>
      <trkpt lat="46.90876" lon="8.66653">
        <ele>1644</ele>
        <time>2021-08-07T09:07:44.355Z</time>
      </trkpt>
      <trkpt lat="46.90875" lon="8.66654">
        <ele>1644</ele>
        <time>2021-08-07T09:07:45.355Z</time>
      </trkpt>
      <trkpt lat="46.90876" lon="8.66655">
        <ele>1644</ele>
        <time>2021-08-07T09:07:46.355Z</time>
      </trkpt>
      <trkpt lat="46.90876" lon="8.66655">
        <ele>1644</ele>
        <time>2021-08-07T09:07:47.354Z</time>
      </trkpt>
      <trkpt lat="46.90878" lon="8.66652">
        <ele>1643</ele>
        <time>2021-08-07T09:07:53.444Z</time>
      </trkpt>
      <trkpt lat="46.90879" lon="8.66649">
        <ele>1643</ele>
        <time>2021-08-07T09:07:54.444Z</time>
      </trkpt>
      <trkpt lat="46.9088" lon="8.66647">
        <ele>1643</ele>
        <time>2021-08-07T09:07:55.445Z</time>
      </trkpt>
      <trkpt lat="46.9088" lon="8.66647">
        <ele>1643</ele>
        <time>2021-08-07T09:07:56.445Z</time>
      </trkpt>
      <trkpt lat="46.90881" lon="8.66647">
        <ele>1643</ele>
        <time>2021-08-07T09:07:57.445Z</time>
      </trkpt>
      <trkpt lat="46.90881" lon="8.66647">
        <ele>1642</ele>
        <time>2021-08-07T09:07:58.444Z</time>
      </trkpt>
      <trkpt lat="46.90881" lon="8.66648">
        <ele>1642</ele>
        <time>2021-08-07T09:07:59.445Z</time>
      </trkpt>
      <trkpt lat="46.90882" lon="8.66648">
        <ele>1642</ele>
        <time>2021-08-07T09:08:00.445Z</time>
      </trkpt>
      <trkpt lat="46.90883" lon="8.66648">
        <ele>1641</ele>
        <time>2021-08-07T09:08:01.444Z</time>
      </trkpt>
      <trkpt lat="46.90884" lon="8.66648">
        <ele>1641</ele>
        <time>2021-08-07T09:08:02.445Z</time>
      </trkpt>
      <trkpt lat="46.90886" lon="8.66648">
        <ele>1640</ele>
        <time>2021-08-07T09:08:03.444Z</time>
      </trkpt>
      <trkpt lat="46.90887" lon="8.66648">
        <ele>1639</ele>
        <time>2021-08-07T09:08:04.444Z</time>
      </trkpt>
      <trkpt lat="46.90887" lon="8.66648">
        <ele>1639</ele>
        <time>2021-08-07T09:08:05.445Z</time>
      </trkpt>
      <trkpt lat="46.90888" lon="8.66647">
        <ele>1639</ele>
        <time>2021-08-07T09:08:06.445Z</time>
      </trkpt>
      <trkpt lat="46.90889" lon="8.66646">
        <ele>1639</ele>
        <time>2021-08-07T09:08:07.445Z</time>
      </trkpt>
      <trkpt lat="46.9089" lon="8.66645">
        <ele>1638</ele>
        <time>2021-08-07T09:08:08.445Z</time>
      </trkpt>
      <trkpt lat="46.90891" lon="8.66645">
        <ele>1638</ele>
        <time>2021-08-07T09:08:09.445Z</time>
      </trkpt>
      <trkpt lat="46.90891" lon="8.66645">
        <ele>1638</ele>
        <time>2021-08-07T09:08:10.445Z</time>
      </trkpt>
      <trkpt lat="46.90892" lon="8.66645">
        <ele>1638</ele>
        <time>2021-08-07T09:08:12.515Z</time>
      </trkpt>
      <trkpt lat="46.90894" lon="8.66644">
        <ele>1638</ele>
        <time>2021-08-07T09:08:13.516Z</time>
      </trkpt>
      <trkpt lat="46.90894" lon="8.66644">
        <ele>1638</ele>
        <time>2021-08-07T09:08:14.515Z</time>
      </trkpt>
      <trkpt lat="46.90895" lon="8.66644">
        <ele>1638</ele>
        <time>2021-08-07T09:08:15.516Z</time>
      </trkpt>
      <trkpt lat="46.90896" lon="8.66644">
        <ele>1639</ele>
        <time>2021-08-07T09:08:16.515Z</time>
      </trkpt>
      <trkpt lat="46.90897" lon="8.66644">
        <ele>1639</ele>
        <time>2021-08-07T09:08:17.516Z</time>
      </trkpt>
      <trkpt lat="46.90899" lon="8.66644">
        <ele>1639</ele>
        <time>2021-08-07T09:08:18.516Z</time>
      </trkpt>
      <trkpt lat="46.909" lon="8.66644">
        <ele>1639</ele>
        <time>2021-08-07T09:08:19.515Z</time>
      </trkpt>
      <trkpt lat="46.90901" lon="8.66644">
        <ele>1640</ele>
        <time>2021-08-07T09:08:20.516Z</time>
      </trkpt>
      <trkpt lat="46.90903" lon="8.66644">
        <ele>1640</ele>
        <time>2021-08-07T09:08:21.516Z</time>
      </trkpt>
      <trkpt lat="46.90904" lon="8.66645">
        <ele>1640</ele>
        <time>2021-08-07T09:08:22.516Z</time>
      </trkpt>
      <trkpt lat="46.90905" lon="8.66645">
        <ele>1640</ele>
        <time>2021-08-07T09:08:23.515Z</time>
      </trkpt>
      <trkpt lat="46.90905" lon="8.66646">
        <ele>1640</ele>
        <time>2021-08-07T09:08:24.516Z</time>
      </trkpt>
      <trkpt lat="46.90905" lon="8.66646">
        <ele>1640</ele>
        <time>2021-08-07T09:08:25.515Z</time>
      </trkpt>
      <trkpt lat="46.90906" lon="8.66646">
        <ele>1640</ele>
        <time>2021-08-07T09:08:26.515Z</time>
      </trkpt>
      <trkpt lat="46.90907" lon="8.66646">
        <ele>1640</ele>
        <time>2021-08-07T09:08:27.516Z</time>
      </trkpt>
      <trkpt lat="46.90908" lon="8.66647">
        <ele>1639</ele>
        <time>2021-08-07T09:08:28.515Z</time>
      </trkpt>
      <trkpt lat="46.90908" lon="8.66648">
        <ele>1638</ele>
        <time>2021-08-07T09:08:29.515Z</time>
      </trkpt>
      <trkpt lat="46.90909" lon="8.66649">
        <ele>1638</ele>
        <time>2021-08-07T09:08:30.516Z</time>
      </trkpt>
      <trkpt lat="46.9091" lon="8.6665">
        <ele>1637</ele>
        <time>2021-08-07T09:08:31.515Z</time>
      </trkpt>
      <trkpt lat="46.90912" lon="8.6665">
        <ele>1636</ele>
        <time>2021-08-07T09:08:32.516Z</time>
      </trkpt>
      <trkpt lat="46.90914" lon="8.6665">
        <ele>1636</ele>
        <time>2021-08-07T09:08:33.516Z</time>
      </trkpt>
      <trkpt lat="46.90915" lon="8.66651">
        <ele>1636</ele>
        <time>2021-08-07T09:08:34.516Z</time>
      </trkpt>
      <trkpt lat="46.90916" lon="8.66652">
        <ele>1636</ele>
        <time>2021-08-07T09:08:35.516Z</time>
      </trkpt>
      <trkpt lat="46.90916" lon="8.66653">
        <ele>1636</ele>
        <time>2021-08-07T09:08:36.515Z</time>
      </trkpt>
      <trkpt lat="46.90917" lon="8.66654">
        <ele>1636</ele>
        <time>2021-08-07T09:08:37.515Z</time>
      </trkpt>
      <trkpt lat="46.90918" lon="8.66654">
        <ele>1636</ele>
        <time>2021-08-07T09:08:38.516Z</time>
      </trkpt>
      <trkpt lat="46.90919" lon="8.66654">
        <ele>1636</ele>
        <time>2021-08-07T09:08:39.516Z</time>
      </trkpt>
      <trkpt lat="46.9092" lon="8.66655">
        <ele>1636</ele>
        <time>2021-08-07T09:08:40.515Z</time>
      </trkpt>
      <trkpt lat="46.90921" lon="8.66655">
        <ele>1636</ele>
        <time>2021-08-07T09:08:41.515Z</time>
      </trkpt>
      <trkpt lat="46.90921" lon="8.66656">
        <ele>1635</ele>
        <time>2021-08-07T09:08:42.516Z</time>
      </trkpt>
      <trkpt lat="46.90922" lon="8.66656">
        <ele>1636</ele>
        <time>2021-08-07T09:08:43.516Z</time>
      </trkpt>
      <trkpt lat="46.90923" lon="8.66656">
        <ele>1636</ele>
        <time>2021-08-07T09:08:44.516Z</time>
      </trkpt>
      <trkpt lat="46.90924" lon="8.66656">
        <ele>1636</ele>
        <time>2021-08-07T09:08:45.515Z</time>
      </trkpt>
      <trkpt lat="46.90925" lon="8.66656">
        <ele>1636</ele>
        <time>2021-08-07T09:08:46.516Z</time>
      </trkpt>
      <trkpt lat="46.90926" lon="8.66656">
        <ele>1636</ele>
        <time>2021-08-07T09:08:47.515Z</time>
      </trkpt>
      <trkpt lat="46.90926" lon="8.66656">
        <ele>1635</ele>
        <time>2021-08-07T09:08:48.515Z</time>
      </trkpt>
      <trkpt lat="46.90927" lon="8.66656">
        <ele>1635</ele>
        <time>2021-08-07T09:08:49.516Z</time>
      </trkpt>
      <trkpt lat="46.90928" lon="8.66655">
        <ele>1635</ele>
        <time>2021-08-07T09:08:50.515Z</time>
      </trkpt>
      <trkpt lat="46.90929" lon="8.66655">
        <ele>1634</ele>
        <time>2021-08-07T09:08:51.515Z</time>
      </trkpt>
      <trkpt lat="46.9093" lon="8.66655">
        <ele>1634</ele>
        <time>2021-08-07T09:08:52.515Z</time>
      </trkpt>
      <trkpt lat="46.90931" lon="8.66655">
        <ele>1633</ele>
        <time>2021-08-07T09:08:53.515Z</time>
      </trkpt>
      <trkpt lat="46.90932" lon="8.66656">
        <ele>1633</ele>
        <time>2021-08-07T09:08:54.516Z</time>
      </trkpt>
      <trkpt lat="46.90932" lon="8.66657">
        <ele>1633</ele>
        <time>2021-08-07T09:08:55.515Z</time>
      </trkpt>
      <trkpt lat="46.90933" lon="8.66658">
        <ele>1632</ele>
        <time>2021-08-07T09:08:56.515Z</time>
      </trkpt>
      <trkpt lat="46.90934" lon="8.66659">
        <ele>1632</ele>
        <time>2021-08-07T09:08:57.516Z</time>
      </trkpt>
      <trkpt lat="46.90935" lon="8.6666">
        <ele>1631</ele>
        <time>2021-08-07T09:08:58.515Z</time>
      </trkpt>
      <trkpt lat="46.90936" lon="8.6666">
        <ele>1631</ele>
        <time>2021-08-07T09:08:59.516Z</time>
      </trkpt>
      <trkpt lat="46.90937" lon="8.66661">
        <ele>1631</ele>
        <time>2021-08-07T09:09:00.516Z</time>
      </trkpt>
      <trkpt lat="46.90938" lon="8.66661">
        <ele>1631</ele>
        <time>2021-08-07T09:09:01.515Z</time>
      </trkpt>
      <trkpt lat="46.90939" lon="8.66662">
        <ele>1631</ele>
        <time>2021-08-07T09:09:02.516Z</time>
      </trkpt>
      <trkpt lat="46.90939" lon="8.66663">
        <ele>1631</ele>
        <time>2021-08-07T09:09:03.516Z</time>
      </trkpt>
      <trkpt lat="46.9094" lon="8.66663">
        <ele>1631</ele>
        <time>2021-08-07T09:09:04.516Z</time>
      </trkpt>
      <trkpt lat="46.90941" lon="8.66664">
        <ele>1631</ele>
        <time>2021-08-07T09:09:05.515Z</time>
      </trkpt>
      <trkpt lat="46.90941" lon="8.66664">
        <ele>1631</ele>
        <time>2021-08-07T09:09:06.515Z</time>
      </trkpt>
      <trkpt lat="46.90942" lon="8.66664">
        <ele>1631</ele>
        <time>2021-08-07T09:09:07.516Z</time>
      </trkpt>
      <trkpt lat="46.90942" lon="8.66664">
        <ele>1632</ele>
        <time>2021-08-07T09:09:08.515Z</time>
      </trkpt>
      <trkpt lat="46.90943" lon="8.66663">
        <ele>1632</ele>
        <time>2021-08-07T09:09:09.515Z</time>
      </trkpt>
      <trkpt lat="46.90944" lon="8.66662">
        <ele>1636</ele>
        <time>2021-08-07T09:09:10.517Z</time>
      </trkpt>
      <trkpt lat="46.90946" lon="8.66662">
        <ele>1642</ele>
        <time>2021-08-07T09:09:11.517Z</time>
      </trkpt>
      <trkpt lat="46.90947" lon="8.66663">
        <ele>1643</ele>
        <time>2021-08-07T09:09:12.518Z</time>
      </trkpt>
      <trkpt lat="46.90948" lon="8.66663">
        <ele>1644</ele>
        <time>2021-08-07T09:09:13.517Z</time>
      </trkpt>
      <trkpt lat="46.90948" lon="8.66664">
        <ele>1645</ele>
        <time>2021-08-07T09:09:14.517Z</time>
      </trkpt>
      <trkpt lat="46.90949" lon="8.66665">
        <ele>1646</ele>
        <time>2021-08-07T09:09:15.518Z</time>
      </trkpt>
      <trkpt lat="46.90949" lon="8.66666">
        <ele>1647</ele>
        <time>2021-08-07T09:09:16.518Z</time>
      </trkpt>
      <trkpt lat="46.90949" lon="8.66668">
        <ele>1648</ele>
        <time>2021-08-07T09:09:17.518Z</time>
      </trkpt>
      <trkpt lat="46.9095" lon="8.66669">
        <ele>1648</ele>
        <time>2021-08-07T09:09:18.518Z</time>
      </trkpt>
      <trkpt lat="46.9095" lon="8.66669">
        <ele>1649</ele>
        <time>2021-08-07T09:09:19.517Z</time>
      </trkpt>
      <trkpt lat="46.90951" lon="8.6667">
        <ele>1649</ele>
        <time>2021-08-07T09:09:20.518Z</time>
      </trkpt>
      <trkpt lat="46.90951" lon="8.66671">
        <ele>1649</ele>
        <time>2021-08-07T09:09:21.518Z</time>
      </trkpt>
      <trkpt lat="46.90951" lon="8.66672">
        <ele>1650</ele>
        <time>2021-08-07T09:09:22.517Z</time>
      </trkpt>
      <trkpt lat="46.90952" lon="8.66675">
        <ele>1650</ele>
        <time>2021-08-07T09:09:23.517Z</time>
      </trkpt>
      <trkpt lat="46.90952" lon="8.66676">
        <ele>1650</ele>
        <time>2021-08-07T09:09:24.518Z</time>
      </trkpt>
      <trkpt lat="46.90953" lon="8.66677">
        <ele>1650</ele>
        <time>2021-08-07T09:09:25.517Z</time>
      </trkpt>
      <trkpt lat="46.90954" lon="8.66678">
        <ele>1650</ele>
        <time>2021-08-07T09:09:26.517Z</time>
      </trkpt>
      <trkpt lat="46.90955" lon="8.66677">
        <ele>1650</ele>
        <time>2021-08-07T09:09:27.518Z</time>
      </trkpt>
      <trkpt lat="46.90957" lon="8.66676">
        <ele>1650</ele>
        <time>2021-08-07T09:09:28.518Z</time>
      </trkpt>
      <trkpt lat="46.90958" lon="8.66676">
        <ele>1650</ele>
        <time>2021-08-07T09:09:29.518Z</time>
      </trkpt>
      <trkpt lat="46.9096" lon="8.66677">
        <ele>1651</ele>
        <time>2021-08-07T09:09:30.518Z</time>
      </trkpt>
      <trkpt lat="46.90961" lon="8.66677">
        <ele>1651</ele>
        <time>2021-08-07T09:09:31.518Z</time>
      </trkpt>
      <trkpt lat="46.90963" lon="8.66677">
        <ele>1650</ele>
        <time>2021-08-07T09:09:32.518Z</time>
      </trkpt>
      <trkpt lat="46.90963" lon="8.66677">
        <ele>1650</ele>
        <time>2021-08-07T09:09:33.517Z</time>
      </trkpt>
      <trkpt lat="46.90965" lon="8.66677">
        <ele>1650</ele>
        <time>2021-08-07T09:09:34.518Z</time>
      </trkpt>
      <trkpt lat="46.90965" lon="8.66677">
        <ele>1649</ele>
        <time>2021-08-07T09:09:37.656Z</time>
      </trkpt>
      <trkpt lat="46.90966" lon="8.66677">
        <ele>1649</ele>
        <time>2021-08-07T09:09:38.655Z</time>
      </trkpt>
      <trkpt lat="46.90967" lon="8.66678">
        <ele>1648</ele>
        <time>2021-08-07T09:09:39.656Z</time>
      </trkpt>
      <trkpt lat="46.90968" lon="8.66678">
        <ele>1648</ele>
        <time>2021-08-07T09:09:40.656Z</time>
      </trkpt>
      <trkpt lat="46.90969" lon="8.66678">
        <ele>1647</ele>
        <time>2021-08-07T09:09:41.655Z</time>
      </trkpt>
      <trkpt lat="46.9097" lon="8.66679">
        <ele>1647</ele>
        <time>2021-08-07T09:09:42.655Z</time>
      </trkpt>
      <trkpt lat="46.9097" lon="8.66679">
        <ele>1647</ele>
        <time>2021-08-07T09:09:43.656Z</time>
      </trkpt>
      <trkpt lat="46.90971" lon="8.6668">
        <ele>1647</ele>
        <time>2021-08-07T09:09:44.655Z</time>
      </trkpt>
      <trkpt lat="46.90973" lon="8.66681">
        <ele>1647</ele>
        <time>2021-08-07T09:09:45.656Z</time>
      </trkpt>
      <trkpt lat="46.90975" lon="8.66681">
        <ele>1647</ele>
        <time>2021-08-07T09:09:46.655Z</time>
      </trkpt>
      <trkpt lat="46.90976" lon="8.66681">
        <ele>1647</ele>
        <time>2021-08-07T09:09:47.656Z</time>
      </trkpt>
      <trkpt lat="46.90977" lon="8.66681">
        <ele>1648</ele>
        <time>2021-08-07T09:09:48.655Z</time>
      </trkpt>
      <trkpt lat="46.90978" lon="8.66682">
        <ele>1648</ele>
        <time>2021-08-07T09:09:49.656Z</time>
      </trkpt>
      <trkpt lat="46.90978" lon="8.66682">
        <ele>1649</ele>
        <time>2021-08-07T09:09:50.656Z</time>
      </trkpt>
      <trkpt lat="46.90978" lon="8.66682">
        <ele>1649</ele>
        <time>2021-08-07T09:09:51.656Z</time>
      </trkpt>
      <trkpt lat="46.9098" lon="8.66682">
        <ele>1650</ele>
        <time>2021-08-07T09:09:52.656Z</time>
      </trkpt>
      <trkpt lat="46.90981" lon="8.66683">
        <ele>1650</ele>
        <time>2021-08-07T09:09:53.656Z</time>
      </trkpt>
      <trkpt lat="46.90983" lon="8.66683">
        <ele>1650</ele>
        <time>2021-08-07T09:09:54.656Z</time>
      </trkpt>
      <trkpt lat="46.90984" lon="8.66683">
        <ele>1650</ele>
        <time>2021-08-07T09:09:55.656Z</time>
      </trkpt>
      <trkpt lat="46.90985" lon="8.66682">
        <ele>1650</ele>
        <time>2021-08-07T09:09:56.655Z</time>
      </trkpt>
      <trkpt lat="46.90986" lon="8.66681">
        <ele>1650</ele>
        <time>2021-08-07T09:09:57.656Z</time>
      </trkpt>
      <trkpt lat="46.90987" lon="8.66679">
        <ele>1651</ele>
        <time>2021-08-07T09:09:58.656Z</time>
      </trkpt>
      <trkpt lat="46.90988" lon="8.66678">
        <ele>1651</ele>
        <time>2021-08-07T09:09:59.656Z</time>
      </trkpt>
      <trkpt lat="46.90989" lon="8.66677">
        <ele>1651</ele>
        <time>2021-08-07T09:10:00.656Z</time>
      </trkpt>
      <trkpt lat="46.9099" lon="8.66675">
        <ele>1651</ele>
        <time>2021-08-07T09:10:01.655Z</time>
      </trkpt>
      <trkpt lat="46.90991" lon="8.66675">
        <ele>1650</ele>
        <time>2021-08-07T09:10:02.656Z</time>
      </trkpt>
      <trkpt lat="46.90993" lon="8.66674">
        <ele>1650</ele>
        <time>2021-08-07T09:10:03.655Z</time>
      </trkpt>
      <trkpt lat="46.90994" lon="8.66673">
        <ele>1650</ele>
        <time>2021-08-07T09:10:04.656Z</time>
      </trkpt>
      <trkpt lat="46.90995" lon="8.66672">
        <ele>1650</ele>
        <time>2021-08-07T09:10:05.655Z</time>
      </trkpt>
      <trkpt lat="46.90996" lon="8.66671">
        <ele>1650</ele>
        <time>2021-08-07T09:10:06.655Z</time>
      </trkpt>
      <trkpt lat="46.90998" lon="8.6667">
        <ele>1650</ele>
        <time>2021-08-07T09:10:07.655Z</time>
      </trkpt>
      <trkpt lat="46.90999" lon="8.66668">
        <ele>1650</ele>
        <time>2021-08-07T09:10:08.655Z</time>
      </trkpt>
      <trkpt lat="46.91" lon="8.66667">
        <ele>1649</ele>
        <time>2021-08-07T09:10:09.656Z</time>
      </trkpt>
      <trkpt lat="46.91002" lon="8.66667">
        <ele>1649</ele>
        <time>2021-08-07T09:10:10.655Z</time>
      </trkpt>
      <trkpt lat="46.91003" lon="8.66666">
        <ele>1649</ele>
        <time>2021-08-07T09:10:11.656Z</time>
      </trkpt>
      <trkpt lat="46.91004" lon="8.66666">
        <ele>1649</ele>
        <time>2021-08-07T09:10:12.655Z</time>
      </trkpt>
      <trkpt lat="46.91005" lon="8.66665">
        <ele>1649</ele>
        <time>2021-08-07T09:10:13.655Z</time>
      </trkpt>
      <trkpt lat="46.91006" lon="8.66664">
        <ele>1650</ele>
        <time>2021-08-07T09:10:14.655Z</time>
      </trkpt>
      <trkpt lat="46.91007" lon="8.66663">
        <ele>1650</ele>
        <time>2021-08-07T09:10:15.655Z</time>
      </trkpt>
      <trkpt lat="46.91008" lon="8.66663">
        <ele>1650</ele>
        <time>2021-08-07T09:10:16.656Z</time>
      </trkpt>
      <trkpt lat="46.9101" lon="8.66662">
        <ele>1650</ele>
        <time>2021-08-07T09:10:17.656Z</time>
      </trkpt>
      <trkpt lat="46.9101" lon="8.66662">
        <ele>1650</ele>
        <time>2021-08-07T09:10:18.655Z</time>
      </trkpt>
      <trkpt lat="46.91011" lon="8.66661">
        <ele>1650</ele>
        <time>2021-08-07T09:10:19.656Z</time>
      </trkpt>
      <trkpt lat="46.91012" lon="8.66661">
        <ele>1650</ele>
        <time>2021-08-07T09:10:20.655Z</time>
      </trkpt>
      <trkpt lat="46.91013" lon="8.66661">
        <ele>1650</ele>
        <time>2021-08-07T09:10:21.655Z</time>
      </trkpt>
      <trkpt lat="46.91013" lon="8.6666">
        <ele>1650</ele>
        <time>2021-08-07T09:10:22.656Z</time>
      </trkpt>
      <trkpt lat="46.91014" lon="8.66661">
        <ele>1649</ele>
        <time>2021-08-07T09:10:23.656Z</time>
      </trkpt>
      <trkpt lat="46.91015" lon="8.6666">
        <ele>1649</ele>
        <time>2021-08-07T09:10:24.656Z</time>
      </trkpt>
      <trkpt lat="46.91016" lon="8.66659">
        <ele>1649</ele>
        <time>2021-08-07T09:10:25.656Z</time>
      </trkpt>
      <trkpt lat="46.91016" lon="8.66658">
        <ele>1649</ele>
        <time>2021-08-07T09:10:26.656Z</time>
      </trkpt>
      <trkpt lat="46.91016" lon="8.66657">
        <ele>1648</ele>
        <time>2021-08-07T09:10:27.656Z</time>
      </trkpt>
      <trkpt lat="46.91017" lon="8.66655">
        <ele>1646</ele>
        <time>2021-08-07T09:10:28.657Z</time>
      </trkpt>
      <trkpt lat="46.91018" lon="8.66655">
        <ele>1645</ele>
        <time>2021-08-07T09:10:29.657Z</time>
      </trkpt>
      <trkpt lat="46.91018" lon="8.66654">
        <ele>1645</ele>
        <time>2021-08-07T09:10:30.656Z</time>
      </trkpt>
      <trkpt lat="46.91018" lon="8.66654">
        <ele>1645</ele>
        <time>2021-08-07T09:10:31.657Z</time>
      </trkpt>
      <trkpt lat="46.91019" lon="8.66654">
        <ele>1645</ele>
        <time>2021-08-07T09:10:32.657Z</time>
      </trkpt>
      <trkpt lat="46.9102" lon="8.66654">
        <ele>1645</ele>
        <time>2021-08-07T09:10:33.657Z</time>
      </trkpt>
      <trkpt lat="46.9102" lon="8.66654">
        <ele>1644</ele>
        <time>2021-08-07T09:10:34.657Z</time>
      </trkpt>
      <trkpt lat="46.9102" lon="8.66654">
        <ele>1644</ele>
        <time>2021-08-07T09:10:35.657Z</time>
      </trkpt>
      <trkpt lat="46.91021" lon="8.66654">
        <ele>1644</ele>
        <time>2021-08-07T09:10:36.657Z</time>
      </trkpt>
      <trkpt lat="46.91022" lon="8.66655">
        <ele>1645</ele>
        <time>2021-08-07T09:10:37.657Z</time>
      </trkpt>
      <trkpt lat="46.91023" lon="8.66655">
        <ele>1645</ele>
        <time>2021-08-07T09:10:38.656Z</time>
      </trkpt>
      <trkpt lat="46.91024" lon="8.66655">
        <ele>1645</ele>
        <time>2021-08-07T09:10:39.657Z</time>
      </trkpt>
      <trkpt lat="46.91025" lon="8.66656">
        <ele>1645</ele>
        <time>2021-08-07T09:10:40.657Z</time>
      </trkpt>
      <trkpt lat="46.91027" lon="8.66656">
        <ele>1646</ele>
        <time>2021-08-07T09:10:41.656Z</time>
      </trkpt>
      <trkpt lat="46.91027" lon="8.66657">
        <ele>1646</ele>
        <time>2021-08-07T09:10:42.657Z</time>
      </trkpt>
      <trkpt lat="46.91028" lon="8.66658">
        <ele>1646</ele>
        <time>2021-08-07T09:10:43.656Z</time>
      </trkpt>
      <trkpt lat="46.91028" lon="8.66659">
        <ele>1646</ele>
        <time>2021-08-07T09:10:44.657Z</time>
      </trkpt>
      <trkpt lat="46.91029" lon="8.66659">
        <ele>1646</ele>
        <time>2021-08-07T09:10:45.657Z</time>
      </trkpt>
      <trkpt lat="46.9103" lon="8.66659">
        <ele>1646</ele>
        <time>2021-08-07T09:10:46.656Z</time>
      </trkpt>
      <trkpt lat="46.91031" lon="8.66659">
        <ele>1646</ele>
        <time>2021-08-07T09:10:47.657Z</time>
      </trkpt>
      <trkpt lat="46.91031" lon="8.66659">
        <ele>1645</ele>
        <time>2021-08-07T09:10:48.657Z</time>
      </trkpt>
      <trkpt lat="46.91032" lon="8.66659">
        <ele>1645</ele>
        <time>2021-08-07T09:10:49.656Z</time>
      </trkpt>
      <trkpt lat="46.91032" lon="8.6666">
        <ele>1644</ele>
        <time>2021-08-07T09:10:50.656Z</time>
      </trkpt>
      <trkpt lat="46.91032" lon="8.66661">
        <ele>1644</ele>
        <time>2021-08-07T09:10:51.657Z</time>
      </trkpt>
      <trkpt lat="46.91032" lon="8.66661">
        <ele>1643</ele>
        <time>2021-08-07T09:10:52.657Z</time>
      </trkpt>
      <trkpt lat="46.91033" lon="8.66661">
        <ele>1643</ele>
        <time>2021-08-07T09:10:53.657Z</time>
      </trkpt>
      <trkpt lat="46.91034" lon="8.66662">
        <ele>1643</ele>
        <time>2021-08-07T09:10:54.657Z</time>
      </trkpt>
      <trkpt lat="46.91036" lon="8.66662">
        <ele>1644</ele>
        <time>2021-08-07T09:10:55.657Z</time>
      </trkpt>
      <trkpt lat="46.91037" lon="8.66663">
        <ele>1644</ele>
        <time>2021-08-07T09:10:56.657Z</time>
      </trkpt>
      <trkpt lat="46.91039" lon="8.66662">
        <ele>1644</ele>
        <time>2021-08-07T09:10:57.657Z</time>
      </trkpt>
      <trkpt lat="46.91039" lon="8.66662">
        <ele>1644</ele>
        <time>2021-08-07T09:10:58.656Z</time>
      </trkpt>
      <trkpt lat="46.9104" lon="8.66662">
        <ele>1644</ele>
        <time>2021-08-07T09:10:59.656Z</time>
      </trkpt>
      <trkpt lat="46.91041" lon="8.66662">
        <ele>1644</ele>
        <time>2021-08-07T09:11:00.657Z</time>
      </trkpt>
      <trkpt lat="46.91042" lon="8.66662">
        <ele>1644</ele>
        <time>2021-08-07T09:11:01.656Z</time>
      </trkpt>
      <trkpt lat="46.91042" lon="8.66662">
        <ele>1643</ele>
        <time>2021-08-07T09:11:02.657Z</time>
      </trkpt>
      <trkpt lat="46.91043" lon="8.66662">
        <ele>1643</ele>
        <time>2021-08-07T09:11:03.656Z</time>
      </trkpt>
      <trkpt lat="46.91044" lon="8.66661">
        <ele>1642</ele>
        <time>2021-08-07T09:11:04.656Z</time>
      </trkpt>
      <trkpt lat="46.91045" lon="8.66661">
        <ele>1642</ele>
        <time>2021-08-07T09:11:05.657Z</time>
      </trkpt>
      <trkpt lat="46.91045" lon="8.66661">
        <ele>1641</ele>
        <time>2021-08-07T09:11:06.657Z</time>
      </trkpt>
      <trkpt lat="46.91046" lon="8.6666">
        <ele>1641</ele>
        <time>2021-08-07T09:11:07.657Z</time>
      </trkpt>
      <trkpt lat="46.91047" lon="8.6666">
        <ele>1641</ele>
        <time>2021-08-07T09:11:08.657Z</time>
      </trkpt>
      <trkpt lat="46.91048" lon="8.66659">
        <ele>1641</ele>
        <time>2021-08-07T09:11:09.657Z</time>
      </trkpt>
      <trkpt lat="46.91049" lon="8.66658">
        <ele>1641</ele>
        <time>2021-08-07T09:11:10.657Z</time>
      </trkpt>
      <trkpt lat="46.9105" lon="8.66658">
        <ele>1641</ele>
        <time>2021-08-07T09:11:11.657Z</time>
      </trkpt>
      <trkpt lat="46.91049" lon="8.66658">
        <ele>1640</ele>
        <time>2021-08-07T09:11:12.656Z</time>
      </trkpt>
      <trkpt lat="46.9105" lon="8.66658">
        <ele>1640</ele>
        <time>2021-08-07T09:11:13.656Z</time>
      </trkpt>
      <trkpt lat="46.9105" lon="8.66657">
        <ele>1640</ele>
        <time>2021-08-07T09:11:14.656Z</time>
      </trkpt>
      <trkpt lat="46.9105" lon="8.66657">
        <ele>1640</ele>
        <time>2021-08-07T09:11:15.657Z</time>
      </trkpt>
      <trkpt lat="46.91051" lon="8.66656">
        <ele>1640</ele>
        <time>2021-08-07T09:11:16.656Z</time>
      </trkpt>
      <trkpt lat="46.91054" lon="8.66659">
        <ele>1640</ele>
        <time>2021-08-07T09:11:17.656Z</time>
      </trkpt>
      <trkpt lat="46.91054" lon="8.6666">
        <ele>1640</ele>
        <time>2021-08-07T09:11:18.657Z</time>
      </trkpt>
      <trkpt lat="46.91055" lon="8.6666">
        <ele>1640</ele>
        <time>2021-08-07T09:11:19.656Z</time>
      </trkpt>
      <trkpt lat="46.91055" lon="8.6666">
        <ele>1640</ele>
        <time>2021-08-07T09:11:20.657Z</time>
      </trkpt>
      <trkpt lat="46.91059" lon="8.66656">
        <ele>1644</ele>
        <time>2021-08-07T09:11:21.657Z</time>
      </trkpt>
      <trkpt lat="46.9106" lon="8.66655">
        <ele>1644</ele>
        <time>2021-08-07T09:11:22.657Z</time>
      </trkpt>
      <trkpt lat="46.91059" lon="8.66653">
        <ele>1644</ele>
        <time>2021-08-07T09:11:23.656Z</time>
      </trkpt>
      <trkpt lat="46.91059" lon="8.66651">
        <ele>1644</ele>
        <time>2021-08-07T09:11:24.658Z</time>
      </trkpt>
      <trkpt lat="46.91059" lon="8.66651">
        <ele>1643</ele>
        <time>2021-08-07T09:11:25.658Z</time>
      </trkpt>
      <trkpt lat="46.91059" lon="8.6665">
        <ele>1643</ele>
        <time>2021-08-07T09:11:26.657Z</time>
      </trkpt>
      <trkpt lat="46.91059" lon="8.66649">
        <ele>1643</ele>
        <time>2021-08-07T09:11:27.658Z</time>
      </trkpt>
      <trkpt lat="46.91058" lon="8.66648">
        <ele>1643</ele>
        <time>2021-08-07T09:11:28.658Z</time>
      </trkpt>
      <trkpt lat="46.91058" lon="8.66647">
        <ele>1643</ele>
        <time>2021-08-07T09:11:29.657Z</time>
      </trkpt>
      <trkpt lat="46.91058" lon="8.66646">
        <ele>1643</ele>
        <time>2021-08-07T09:11:30.657Z</time>
      </trkpt>
      <trkpt lat="46.91057" lon="8.66641">
        <ele>1645</ele>
        <time>2021-08-07T09:11:31.658Z</time>
      </trkpt>
      <trkpt lat="46.91057" lon="8.66642">
        <ele>1645</ele>
        <time>2021-08-07T09:11:32.658Z</time>
      </trkpt>
      <trkpt lat="46.91058" lon="8.66642">
        <ele>1644</ele>
        <time>2021-08-07T09:11:33.658Z</time>
      </trkpt>
      <trkpt lat="46.91058" lon="8.66643">
        <ele>1644</ele>
        <time>2021-08-07T09:11:34.658Z</time>
      </trkpt>
      <trkpt lat="46.91059" lon="8.66645">
        <ele>1643</ele>
        <time>2021-08-07T09:11:35.660Z</time>
      </trkpt>
      <trkpt lat="46.91059" lon="8.66646">
        <ele>1643</ele>
        <time>2021-08-07T09:11:36.660Z</time>
      </trkpt>
      <trkpt lat="46.9106" lon="8.66646">
        <ele>1643</ele>
        <time>2021-08-07T09:11:37.660Z</time>
      </trkpt>
      <trkpt lat="46.91061" lon="8.66647">
        <ele>1643</ele>
        <time>2021-08-07T09:11:38.661Z</time>
      </trkpt>
      <trkpt lat="46.91061" lon="8.66647">
        <ele>1642</ele>
        <time>2021-08-07T09:11:39.660Z</time>
      </trkpt>
      <trkpt lat="46.91063" lon="8.66647">
        <ele>1642</ele>
        <time>2021-08-07T09:11:40.660Z</time>
      </trkpt>
      <trkpt lat="46.91065" lon="8.66648">
        <ele>1642</ele>
        <time>2021-08-07T09:11:41.661Z</time>
      </trkpt>
      <trkpt lat="46.91065" lon="8.66647">
        <ele>1641</ele>
        <time>2021-08-07T09:11:42.660Z</time>
      </trkpt>
      <trkpt lat="46.91066" lon="8.66647">
        <ele>1641</ele>
        <time>2021-08-07T09:11:43.661Z</time>
      </trkpt>
      <trkpt lat="46.91066" lon="8.66647">
        <ele>1641</ele>
        <time>2021-08-07T09:11:44.660Z</time>
      </trkpt>
      <trkpt lat="46.91066" lon="8.66647">
        <ele>1640</ele>
        <time>2021-08-07T09:11:45.661Z</time>
      </trkpt>
      <trkpt lat="46.91067" lon="8.66647">
        <ele>1640</ele>
        <time>2021-08-07T09:11:46.661Z</time>
      </trkpt>
      <trkpt lat="46.91068" lon="8.66647">
        <ele>1640</ele>
        <time>2021-08-07T09:11:47.661Z</time>
      </trkpt>
      <trkpt lat="46.9107" lon="8.66648">
        <ele>1639</ele>
        <time>2021-08-07T09:11:48.661Z</time>
      </trkpt>
      <trkpt lat="46.91071" lon="8.66648">
        <ele>1638</ele>
        <time>2021-08-07T09:11:49.660Z</time>
      </trkpt>
      <trkpt lat="46.91073" lon="8.66648">
        <ele>1638</ele>
        <time>2021-08-07T09:11:50.661Z</time>
      </trkpt>
      <trkpt lat="46.91074" lon="8.66648">
        <ele>1637</ele>
        <time>2021-08-07T09:11:51.661Z</time>
      </trkpt>
      <trkpt lat="46.91075" lon="8.66648">
        <ele>1637</ele>
        <time>2021-08-07T09:11:52.660Z</time>
      </trkpt>
      <trkpt lat="46.91076" lon="8.66649">
        <ele>1636</ele>
        <time>2021-08-07T09:11:53.660Z</time>
      </trkpt>
      <trkpt lat="46.91077" lon="8.66649">
        <ele>1636</ele>
        <time>2021-08-07T09:11:54.661Z</time>
      </trkpt>
      <trkpt lat="46.91078" lon="8.66649">
        <ele>1636</ele>
        <time>2021-08-07T09:11:55.661Z</time>
      </trkpt>
      <trkpt lat="46.91079" lon="8.66649">
        <ele>1635</ele>
        <time>2021-08-07T09:11:56.660Z</time>
      </trkpt>
      <trkpt lat="46.9108" lon="8.66649">
        <ele>1635</ele>
        <time>2021-08-07T09:11:57.661Z</time>
      </trkpt>
      <trkpt lat="46.91082" lon="8.6665">
        <ele>1635</ele>
        <time>2021-08-07T09:11:58.661Z</time>
      </trkpt>
      <trkpt lat="46.91083" lon="8.6665">
        <ele>1635</ele>
        <time>2021-08-07T09:11:59.660Z</time>
      </trkpt>
      <trkpt lat="46.91085" lon="8.66651">
        <ele>1634</ele>
        <time>2021-08-07T09:12:00.661Z</time>
      </trkpt>
      <trkpt lat="46.91085" lon="8.66651">
        <ele>1634</ele>
        <time>2021-08-07T09:12:13.706Z</time>
      </trkpt>
      <trkpt lat="46.91086" lon="8.66651">
        <ele>1634</ele>
        <time>2021-08-07T09:12:19.508Z</time>
      </trkpt>
      <trkpt lat="46.91086" lon="8.66651">
        <ele>1634</ele>
        <time>2021-08-07T09:12:20.508Z</time>
      </trkpt>
      <trkpt lat="46.91086" lon="8.66651">
        <ele>1634</ele>
        <time>2021-08-07T09:12:21.508Z</time>
      </trkpt>
      <trkpt lat="46.91087" lon="8.66651">
        <ele>1634</ele>
        <time>2021-08-07T09:12:22.508Z</time>
      </trkpt>
      <trkpt lat="46.91088" lon="8.66651">
        <ele>1634</ele>
        <time>2021-08-07T09:12:23.509Z</time>
      </trkpt>
      <trkpt lat="46.91089" lon="8.6665">
        <ele>1633</ele>
        <time>2021-08-07T09:12:35.662Z</time>
      </trkpt>
      <trkpt lat="46.91089" lon="8.6665">
        <ele>1633</ele>
        <time>2021-08-07T09:12:36.662Z</time>
      </trkpt>
      <trkpt lat="46.9109" lon="8.6665">
        <ele>1633</ele>
        <time>2021-08-07T09:12:51.505Z</time>
      </trkpt>
      <trkpt lat="46.91091" lon="8.66649">
        <ele>1633</ele>
        <time>2021-08-07T09:12:52.504Z</time>
      </trkpt>
      <trkpt lat="46.91092" lon="8.66649">
        <ele>1633</ele>
        <time>2021-08-07T09:12:53.505Z</time>
      </trkpt>
      <trkpt lat="46.91093" lon="8.66649">
        <ele>1633</ele>
        <time>2021-08-07T09:12:54.504Z</time>
      </trkpt>
      <trkpt lat="46.91094" lon="8.66649">
        <ele>1633</ele>
        <time>2021-08-07T09:13:01.549Z</time>
      </trkpt>
      <trkpt lat="46.91095" lon="8.66649">
        <ele>1633</ele>
        <time>2021-08-07T09:13:02.549Z</time>
      </trkpt>
      <trkpt lat="46.91095" lon="8.66648">
        <ele>1633</ele>
        <time>2021-08-07T09:13:03.549Z</time>
      </trkpt>
      <trkpt lat="46.91095" lon="8.66648">
        <ele>1633</ele>
        <time>2021-08-07T09:13:04.549Z</time>
      </trkpt>
      <trkpt lat="46.91096" lon="8.66648">
        <ele>1633</ele>
        <time>2021-08-07T09:13:05.548Z</time>
      </trkpt>
      <trkpt lat="46.91097" lon="8.66648">
        <ele>1633</ele>
        <time>2021-08-07T09:13:10.650Z</time>
      </trkpt>
      <trkpt lat="46.91098" lon="8.66648">
        <ele>1632</ele>
        <time>2021-08-07T09:13:16.499Z</time>
      </trkpt>
      <trkpt lat="46.91099" lon="8.66648">
        <ele>1632</ele>
        <time>2021-08-07T09:13:17.500Z</time>
      </trkpt>
      <trkpt lat="46.911" lon="8.66648">
        <ele>1632</ele>
        <time>2021-08-07T09:13:22.374Z</time>
      </trkpt>
      <trkpt lat="46.911" lon="8.66649">
        <ele>1632</ele>
        <time>2021-08-07T09:13:23.374Z</time>
      </trkpt>
      <trkpt lat="46.91102" lon="8.66649">
        <ele>1632</ele>
        <time>2021-08-07T09:13:33.161Z</time>
      </trkpt>
      <trkpt lat="46.91103" lon="8.66648">
        <ele>1632</ele>
        <time>2021-08-07T09:13:36.004Z</time>
      </trkpt>
      <trkpt lat="46.91104" lon="8.66648">
        <ele>1632</ele>
        <time>2021-08-07T09:13:37.003Z</time>
      </trkpt>
      <trkpt lat="46.91105" lon="8.66647">
        <ele>1632</ele>
        <time>2021-08-07T09:13:38.003Z</time>
      </trkpt>
      <trkpt lat="46.91106" lon="8.66647">
        <ele>1632</ele>
        <time>2021-08-07T09:13:39.003Z</time>
      </trkpt>
      <trkpt lat="46.91107" lon="8.66647">
        <ele>1632</ele>
        <time>2021-08-07T09:13:40.003Z</time>
      </trkpt>
      <trkpt lat="46.91109" lon="8.66647">
        <ele>1632</ele>
        <time>2021-08-07T09:13:41.004Z</time>
      </trkpt>
      <trkpt lat="46.9111" lon="8.66647">
        <ele>1631</ele>
        <time>2021-08-07T09:13:42.004Z</time>
      </trkpt>
      <trkpt lat="46.91111" lon="8.66647">
        <ele>1631</ele>
        <time>2021-08-07T09:13:43.003Z</time>
      </trkpt>
      <trkpt lat="46.91112" lon="8.66646">
        <ele>1631</ele>
        <time>2021-08-07T09:13:44.004Z</time>
      </trkpt>
      <trkpt lat="46.91113" lon="8.66646">
        <ele>1631</ele>
        <time>2021-08-07T09:13:45.004Z</time>
      </trkpt>
      <trkpt lat="46.91114" lon="8.66645">
        <ele>1631</ele>
        <time>2021-08-07T09:13:46.004Z</time>
      </trkpt>
      <trkpt lat="46.91115" lon="8.66645">
        <ele>1631</ele>
        <time>2021-08-07T09:13:47.004Z</time>
      </trkpt>
      <trkpt lat="46.91116" lon="8.66645">
        <ele>1630</ele>
        <time>2021-08-07T09:13:48.003Z</time>
      </trkpt>
      <trkpt lat="46.91117" lon="8.66644">
        <ele>1630</ele>
        <time>2021-08-07T09:13:49.004Z</time>
      </trkpt>
      <trkpt lat="46.91118" lon="8.66643">
        <ele>1630</ele>
        <time>2021-08-07T09:13:50.003Z</time>
      </trkpt>
      <trkpt lat="46.91119" lon="8.66642">
        <ele>1629</ele>
        <time>2021-08-07T09:13:51.004Z</time>
      </trkpt>
      <trkpt lat="46.91119" lon="8.66642">
        <ele>1629</ele>
        <time>2021-08-07T09:13:52.004Z</time>
      </trkpt>
      <trkpt lat="46.91119" lon="8.6664">
        <ele>1629</ele>
        <time>2021-08-07T09:13:53.004Z</time>
      </trkpt>
      <trkpt lat="46.91119" lon="8.66639">
        <ele>1628</ele>
        <time>2021-08-07T09:13:54.003Z</time>
      </trkpt>
      <trkpt lat="46.91119" lon="8.66637">
        <ele>1628</ele>
        <time>2021-08-07T09:13:55.004Z</time>
      </trkpt>
      <trkpt lat="46.91119" lon="8.66636">
        <ele>1628</ele>
        <time>2021-08-07T09:13:56.004Z</time>
      </trkpt>
      <trkpt lat="46.9112" lon="8.66634">
        <ele>1628</ele>
        <time>2021-08-07T09:13:57.003Z</time>
      </trkpt>
      <trkpt lat="46.9112" lon="8.66634">
        <ele>1628</ele>
        <time>2021-08-07T09:13:58.003Z</time>
      </trkpt>
      <trkpt lat="46.91121" lon="8.66633">
        <ele>1628</ele>
        <time>2021-08-07T09:13:59.003Z</time>
      </trkpt>
      <trkpt lat="46.9112" lon="8.66633">
        <ele>1628</ele>
        <time>2021-08-07T09:14:00.004Z</time>
      </trkpt>
      <trkpt lat="46.9112" lon="8.66632">
        <ele>1628</ele>
        <time>2021-08-07T09:14:01.004Z</time>
      </trkpt>
      <trkpt lat="46.9112" lon="8.66631">
        <ele>1629</ele>
        <time>2021-08-07T09:14:02.004Z</time>
      </trkpt>
      <trkpt lat="46.91121" lon="8.66631">
        <ele>1629</ele>
        <time>2021-08-07T09:14:03.003Z</time>
      </trkpt>
      <trkpt lat="46.91121" lon="8.6663">
        <ele>1629</ele>
        <time>2021-08-07T09:14:04.004Z</time>
      </trkpt>
      <trkpt lat="46.91122" lon="8.66629">
        <ele>1629</ele>
        <time>2021-08-07T09:14:05.004Z</time>
      </trkpt>
      <trkpt lat="46.91123" lon="8.66628">
        <ele>1629</ele>
        <time>2021-08-07T09:14:06.004Z</time>
      </trkpt>
      <trkpt lat="46.91123" lon="8.66628">
        <ele>1630</ele>
        <time>2021-08-07T09:14:07.004Z</time>
      </trkpt>
      <trkpt lat="46.91123" lon="8.66627">
        <ele>1630</ele>
        <time>2021-08-07T09:14:08.004Z</time>
      </trkpt>
      <trkpt lat="46.91124" lon="8.66627">
        <ele>1629</ele>
        <time>2021-08-07T09:14:09.004Z</time>
      </trkpt>
      <trkpt lat="46.91125" lon="8.66627">
        <ele>1629</ele>
        <time>2021-08-07T09:14:10.004Z</time>
      </trkpt>
      <trkpt lat="46.91126" lon="8.66628">
        <ele>1629</ele>
        <time>2021-08-07T09:14:11.004Z</time>
      </trkpt>
      <trkpt lat="46.91126" lon="8.66628">
        <ele>1629</ele>
        <time>2021-08-07T09:14:12.004Z</time>
      </trkpt>
      <trkpt lat="46.91127" lon="8.66628">
        <ele>1629</ele>
        <time>2021-08-07T09:14:13.003Z</time>
      </trkpt>
      <trkpt lat="46.91127" lon="8.66627">
        <ele>1629</ele>
        <time>2021-08-07T09:14:14.004Z</time>
      </trkpt>
      <trkpt lat="46.91128" lon="8.66627">
        <ele>1629</ele>
        <time>2021-08-07T09:14:15.003Z</time>
      </trkpt>
      <trkpt lat="46.91129" lon="8.66627">
        <ele>1629</ele>
        <time>2021-08-07T09:14:16.003Z</time>
      </trkpt>
      <trkpt lat="46.9113" lon="8.66628">
        <ele>1629</ele>
        <time>2021-08-07T09:14:17.004Z</time>
      </trkpt>
      <trkpt lat="46.91131" lon="8.66626">
        <ele>1629</ele>
        <time>2021-08-07T09:14:18.003Z</time>
      </trkpt>
      <trkpt lat="46.91133" lon="8.66625">
        <ele>1629</ele>
        <time>2021-08-07T09:14:19.004Z</time>
      </trkpt>
      <trkpt lat="46.91134" lon="8.66625">
        <ele>1629</ele>
        <time>2021-08-07T09:14:20.003Z</time>
      </trkpt>
      <trkpt lat="46.91134" lon="8.66625">
        <ele>1629</ele>
        <time>2021-08-07T09:14:21.004Z</time>
      </trkpt>
      <trkpt lat="46.91134" lon="8.66625">
        <ele>1629</ele>
        <time>2021-08-07T09:14:22.003Z</time>
      </trkpt>
      <trkpt lat="46.91135" lon="8.66624">
        <ele>1629</ele>
        <time>2021-08-07T09:14:23.003Z</time>
      </trkpt>
      <trkpt lat="46.91135" lon="8.66622">
        <ele>1629</ele>
        <time>2021-08-07T09:14:24.004Z</time>
      </trkpt>
      <trkpt lat="46.91134" lon="8.66621">
        <ele>1629</ele>
        <time>2021-08-07T09:14:25.003Z</time>
      </trkpt>
      <trkpt lat="46.91134" lon="8.6662">
        <ele>1630</ele>
        <time>2021-08-07T09:14:26.003Z</time>
      </trkpt>
      <trkpt lat="46.91135" lon="8.66618">
        <ele>1630</ele>
        <time>2021-08-07T09:14:27.003Z</time>
      </trkpt>
      <trkpt lat="46.91136" lon="8.66617">
        <ele>1630</ele>
        <time>2021-08-07T09:14:28.003Z</time>
      </trkpt>
      <trkpt lat="46.91137" lon="8.66617">
        <ele>1630</ele>
        <time>2021-08-07T09:14:29.003Z</time>
      </trkpt>
      <trkpt lat="46.91138" lon="8.66616">
        <ele>1630</ele>
        <time>2021-08-07T09:14:30.004Z</time>
      </trkpt>
      <trkpt lat="46.91139" lon="8.66616">
        <ele>1630</ele>
        <time>2021-08-07T09:14:31.003Z</time>
      </trkpt>
      <trkpt lat="46.91139" lon="8.66616">
        <ele>1630</ele>
        <time>2021-08-07T09:14:32.004Z</time>
      </trkpt>
      <trkpt lat="46.9114" lon="8.66616">
        <ele>1631</ele>
        <time>2021-08-07T09:14:33.003Z</time>
      </trkpt>
      <trkpt lat="46.91141" lon="8.66616">
        <ele>1631</ele>
        <time>2021-08-07T09:14:34.004Z</time>
      </trkpt>
      <trkpt lat="46.91142" lon="8.66616">
        <ele>1631</ele>
        <time>2021-08-07T09:14:35.004Z</time>
      </trkpt>
      <trkpt lat="46.91143" lon="8.66616">
        <ele>1631</ele>
        <time>2021-08-07T09:14:36.003Z</time>
      </trkpt>
      <trkpt lat="46.91144" lon="8.66616">
        <ele>1632</ele>
        <time>2021-08-07T09:14:37.004Z</time>
      </trkpt>
      <trkpt lat="46.91145" lon="8.66616">
        <ele>1632</ele>
        <time>2021-08-07T09:14:38.003Z</time>
      </trkpt>
      <trkpt lat="46.91146" lon="8.66616">
        <ele>1632</ele>
        <time>2021-08-07T09:14:39.004Z</time>
      </trkpt>
      <trkpt lat="46.91147" lon="8.66616">
        <ele>1632</ele>
        <time>2021-08-07T09:14:40.004Z</time>
      </trkpt>
      <trkpt lat="46.91149" lon="8.66616">
        <ele>1632</ele>
        <time>2021-08-07T09:14:41.004Z</time>
      </trkpt>
      <trkpt lat="46.9115" lon="8.66615">
        <ele>1632</ele>
        <time>2021-08-07T09:14:42.004Z</time>
      </trkpt>
      <trkpt lat="46.91151" lon="8.66615">
        <ele>1632</ele>
        <time>2021-08-07T09:14:43.003Z</time>
      </trkpt>
      <trkpt lat="46.91152" lon="8.66615">
        <ele>1632</ele>
        <time>2021-08-07T09:14:44.003Z</time>
      </trkpt>
      <trkpt lat="46.91153" lon="8.66614">
        <ele>1632</ele>
        <time>2021-08-07T09:14:45.004Z</time>
      </trkpt>
      <trkpt lat="46.91153" lon="8.66614">
        <ele>1632</ele>
        <time>2021-08-07T09:14:46.003Z</time>
      </trkpt>
      <trkpt lat="46.91154" lon="8.66614">
        <ele>1632</ele>
        <time>2021-08-07T09:14:47.004Z</time>
      </trkpt>
      <trkpt lat="46.91155" lon="8.66614">
        <ele>1632</ele>
        <time>2021-08-07T09:14:48.003Z</time>
      </trkpt>
      <trkpt lat="46.91156" lon="8.66614">
        <ele>1631</ele>
        <time>2021-08-07T09:14:49.004Z</time>
      </trkpt>
      <trkpt lat="46.91157" lon="8.66615">
        <ele>1631</ele>
        <time>2021-08-07T09:14:50.004Z</time>
      </trkpt>
      <trkpt lat="46.91158" lon="8.66613">
        <ele>1631</ele>
        <time>2021-08-07T09:14:51.003Z</time>
      </trkpt>
      <trkpt lat="46.91158" lon="8.66612">
        <ele>1631</ele>
        <time>2021-08-07T09:14:52.004Z</time>
      </trkpt>
      <trkpt lat="46.91158" lon="8.66611">
        <ele>1631</ele>
        <time>2021-08-07T09:14:53.003Z</time>
      </trkpt>
      <trkpt lat="46.91154" lon="8.6661">
        <ele>1632</ele>
        <time>2021-08-07T09:14:54.004Z</time>
      </trkpt>
      <trkpt lat="46.91154" lon="8.66608">
        <ele>1632</ele>
        <time>2021-08-07T09:14:55.004Z</time>
      </trkpt>
      <trkpt lat="46.91154" lon="8.66607">
        <ele>1632</ele>
        <time>2021-08-07T09:14:56.003Z</time>
      </trkpt>
      <trkpt lat="46.91154" lon="8.66606">
        <ele>1633</ele>
        <time>2021-08-07T09:14:57.003Z</time>
      </trkpt>
      <trkpt lat="46.91155" lon="8.66606">
        <ele>1633</ele>
        <time>2021-08-07T09:14:58.003Z</time>
      </trkpt>
      <trkpt lat="46.91156" lon="8.66607">
        <ele>1634</ele>
        <time>2021-08-07T09:14:59.003Z</time>
      </trkpt>
      <trkpt lat="46.91157" lon="8.66607">
        <ele>1634</ele>
        <time>2021-08-07T09:15:00.003Z</time>
      </trkpt>
      <trkpt lat="46.91158" lon="8.66608">
        <ele>1635</ele>
        <time>2021-08-07T09:15:01.003Z</time>
      </trkpt>
      <trkpt lat="46.91159" lon="8.66608">
        <ele>1635</ele>
        <time>2021-08-07T09:15:02.003Z</time>
      </trkpt>
      <trkpt lat="46.91159" lon="8.66609">
        <ele>1636</ele>
        <time>2021-08-07T09:15:03.003Z</time>
      </trkpt>
      <trkpt lat="46.9116" lon="8.66609">
        <ele>1636</ele>
        <time>2021-08-07T09:15:04.003Z</time>
      </trkpt>
      <trkpt lat="46.91161" lon="8.66609">
        <ele>1636</ele>
        <time>2021-08-07T09:15:05.003Z</time>
      </trkpt>
      <trkpt lat="46.91163" lon="8.66609">
        <ele>1637</ele>
        <time>2021-08-07T09:15:06.003Z</time>
      </trkpt>
      <trkpt lat="46.91164" lon="8.6661">
        <ele>1637</ele>
        <time>2021-08-07T09:15:07.003Z</time>
      </trkpt>
      <trkpt lat="46.91165" lon="8.6661">
        <ele>1637</ele>
        <time>2021-08-07T09:15:08.004Z</time>
      </trkpt>
      <trkpt lat="46.91166" lon="8.66611">
        <ele>1637</ele>
        <time>2021-08-07T09:15:09.003Z</time>
      </trkpt>
      <trkpt lat="46.91167" lon="8.66612">
        <ele>1638</ele>
        <time>2021-08-07T09:15:10.003Z</time>
      </trkpt>
      <trkpt lat="46.91168" lon="8.66612">
        <ele>1638</ele>
        <time>2021-08-07T09:15:11.004Z</time>
      </trkpt>
      <trkpt lat="46.91169" lon="8.66613">
        <ele>1638</ele>
        <time>2021-08-07T09:15:12.004Z</time>
      </trkpt>
      <trkpt lat="46.9117" lon="8.66615">
        <ele>1638</ele>
        <time>2021-08-07T09:15:13.003Z</time>
      </trkpt>
      <trkpt lat="46.9117" lon="8.66617">
        <ele>1639</ele>
        <time>2021-08-07T09:15:14.004Z</time>
      </trkpt>
      <trkpt lat="46.91172" lon="8.66619">
        <ele>1639</ele>
        <time>2021-08-07T09:15:15.003Z</time>
      </trkpt>
      <trkpt lat="46.91174" lon="8.66621">
        <ele>1639</ele>
        <time>2021-08-07T09:15:16.003Z</time>
      </trkpt>
      <trkpt lat="46.91175" lon="8.66623">
        <ele>1639</ele>
        <time>2021-08-07T09:15:17.004Z</time>
      </trkpt>
      <trkpt lat="46.91177" lon="8.66624">
        <ele>1638</ele>
        <time>2021-08-07T09:15:18.003Z</time>
      </trkpt>
      <trkpt lat="46.91178" lon="8.66624">
        <ele>1638</ele>
        <time>2021-08-07T09:15:19.003Z</time>
      </trkpt>
      <trkpt lat="46.9118" lon="8.66624">
        <ele>1638</ele>
        <time>2021-08-07T09:15:20.003Z</time>
      </trkpt>
      <trkpt lat="46.9118" lon="8.66624">
        <ele>1637</ele>
        <time>2021-08-07T09:15:21.004Z</time>
      </trkpt>
      <trkpt lat="46.91181" lon="8.66623">
        <ele>1637</ele>
        <time>2021-08-07T09:15:22.004Z</time>
      </trkpt>
      <trkpt lat="46.91182" lon="8.66623">
        <ele>1637</ele>
        <time>2021-08-07T09:15:23.004Z</time>
      </trkpt>
      <trkpt lat="46.91183" lon="8.66623">
        <ele>1636</ele>
        <time>2021-08-07T09:15:24.003Z</time>
      </trkpt>
      <trkpt lat="46.91184" lon="8.66623">
        <ele>1636</ele>
        <time>2021-08-07T09:15:25.003Z</time>
      </trkpt>
      <trkpt lat="46.91185" lon="8.66623">
        <ele>1636</ele>
        <time>2021-08-07T09:15:26.003Z</time>
      </trkpt>
      <trkpt lat="46.91185" lon="8.66622">
        <ele>1636</ele>
        <time>2021-08-07T09:15:27.004Z</time>
      </trkpt>
      <trkpt lat="46.91186" lon="8.66622">
        <ele>1636</ele>
        <time>2021-08-07T09:15:28.003Z</time>
      </trkpt>
      <trkpt lat="46.91187" lon="8.66622">
        <ele>1636</ele>
        <time>2021-08-07T09:15:29.003Z</time>
      </trkpt>
      <trkpt lat="46.91188" lon="8.66621">
        <ele>1636</ele>
        <time>2021-08-07T09:15:30.003Z</time>
      </trkpt>
      <trkpt lat="46.9119" lon="8.66621">
        <ele>1636</ele>
        <time>2021-08-07T09:15:31.003Z</time>
      </trkpt>
      <trkpt lat="46.91191" lon="8.66621">
        <ele>1635</ele>
        <time>2021-08-07T09:15:32.004Z</time>
      </trkpt>
      <trkpt lat="46.91193" lon="8.66621">
        <ele>1635</ele>
        <time>2021-08-07T09:15:33.003Z</time>
      </trkpt>
      <trkpt lat="46.91195" lon="8.66621">
        <ele>1635</ele>
        <time>2021-08-07T09:15:34.003Z</time>
      </trkpt>
      <trkpt lat="46.91196" lon="8.66621">
        <ele>1635</ele>
        <time>2021-08-07T09:15:35.003Z</time>
      </trkpt>
      <trkpt lat="46.91197" lon="8.66621">
        <ele>1635</ele>
        <time>2021-08-07T09:15:36.004Z</time>
      </trkpt>
      <trkpt lat="46.91198" lon="8.66621">
        <ele>1635</ele>
        <time>2021-08-07T09:15:37.003Z</time>
      </trkpt>
      <trkpt lat="46.91199" lon="8.66621">
        <ele>1635</ele>
        <time>2021-08-07T09:15:38.003Z</time>
      </trkpt>
      <trkpt lat="46.91199" lon="8.6662">
        <ele>1635</ele>
        <time>2021-08-07T09:15:39.003Z</time>
      </trkpt>
      <trkpt lat="46.91199" lon="8.66619">
        <ele>1634</ele>
        <time>2021-08-07T09:15:40.003Z</time>
      </trkpt>
      <trkpt lat="46.91199" lon="8.66619">
        <ele>1634</ele>
        <time>2021-08-07T09:15:41.003Z</time>
      </trkpt>
      <trkpt lat="46.912" lon="8.66618">
        <ele>1634</ele>
        <time>2021-08-07T09:15:42.003Z</time>
      </trkpt>
      <trkpt lat="46.912" lon="8.66617">
        <ele>1634</ele>
        <time>2021-08-07T09:15:43.004Z</time>
      </trkpt>
      <trkpt lat="46.91201" lon="8.66617">
        <ele>1634</ele>
        <time>2021-08-07T09:15:44.003Z</time>
      </trkpt>
      <trkpt lat="46.91202" lon="8.66617">
        <ele>1634</ele>
        <time>2021-08-07T09:15:45.003Z</time>
      </trkpt>
      <trkpt lat="46.91203" lon="8.66617">
        <ele>1634</ele>
        <time>2021-08-07T09:15:46.004Z</time>
      </trkpt>
      <trkpt lat="46.91204" lon="8.66617">
        <ele>1633</ele>
        <time>2021-08-07T09:15:47.004Z</time>
      </trkpt>
      <trkpt lat="46.91205" lon="8.66617">
        <ele>1633</ele>
        <time>2021-08-07T09:15:48.003Z</time>
      </trkpt>
      <trkpt lat="46.91206" lon="8.66616">
        <ele>1633</ele>
        <time>2021-08-07T09:15:49.003Z</time>
      </trkpt>
      <trkpt lat="46.91207" lon="8.66616">
        <ele>1633</ele>
        <time>2021-08-07T09:15:50.003Z</time>
      </trkpt>
      <trkpt lat="46.91207" lon="8.66616">
        <ele>1633</ele>
        <time>2021-08-07T09:15:51.003Z</time>
      </trkpt>
      <trkpt lat="46.91208" lon="8.66617">
        <ele>1633</ele>
        <time>2021-08-07T09:15:52.003Z</time>
      </trkpt>
      <trkpt lat="46.91209" lon="8.66617">
        <ele>1633</ele>
        <time>2021-08-07T09:15:53.003Z</time>
      </trkpt>
      <trkpt lat="46.9121" lon="8.66617">
        <ele>1633</ele>
        <time>2021-08-07T09:15:54.003Z</time>
      </trkpt>
      <trkpt lat="46.91211" lon="8.66617">
        <ele>1633</ele>
        <time>2021-08-07T09:15:55.004Z</time>
      </trkpt>
      <trkpt lat="46.91212" lon="8.66618">
        <ele>1633</ele>
        <time>2021-08-07T09:15:56.004Z</time>
      </trkpt>
      <trkpt lat="46.91213" lon="8.66618">
        <ele>1633</ele>
        <time>2021-08-07T09:15:57.004Z</time>
      </trkpt>
      <trkpt lat="46.91214" lon="8.66617">
        <ele>1633</ele>
        <time>2021-08-07T09:15:58.004Z</time>
      </trkpt>
      <trkpt lat="46.91215" lon="8.66616">
        <ele>1634</ele>
        <time>2021-08-07T09:15:59.003Z</time>
      </trkpt>
      <trkpt lat="46.91216" lon="8.66614">
        <ele>1634</ele>
        <time>2021-08-07T09:16:00.003Z</time>
      </trkpt>
      <trkpt lat="46.91218" lon="8.66612">
        <ele>1634</ele>
        <time>2021-08-07T09:16:01.004Z</time>
      </trkpt>
      <trkpt lat="46.91219" lon="8.66611">
        <ele>1634</ele>
        <time>2021-08-07T09:16:02.004Z</time>
      </trkpt>
      <trkpt lat="46.9122" lon="8.6661">
        <ele>1634</ele>
        <time>2021-08-07T09:16:03.004Z</time>
      </trkpt>
      <trkpt lat="46.9122" lon="8.66609">
        <ele>1634</ele>
        <time>2021-08-07T09:16:04.004Z</time>
      </trkpt>
      <trkpt lat="46.91221" lon="8.66608">
        <ele>1634</ele>
        <time>2021-08-07T09:16:05.004Z</time>
      </trkpt>
      <trkpt lat="46.91222" lon="8.66607">
        <ele>1633</ele>
        <time>2021-08-07T09:16:06.004Z</time>
      </trkpt>
      <trkpt lat="46.91223" lon="8.66606">
        <ele>1633</ele>
        <time>2021-08-07T09:16:07.004Z</time>
      </trkpt>
      <trkpt lat="46.91223" lon="8.66606">
        <ele>1633</ele>
        <time>2021-08-07T09:16:08.003Z</time>
      </trkpt>
      <trkpt lat="46.91224" lon="8.66605">
        <ele>1634</ele>
        <time>2021-08-07T09:16:09.004Z</time>
      </trkpt>
      <trkpt lat="46.91224" lon="8.66604">
        <ele>1634</ele>
        <time>2021-08-07T09:16:10.004Z</time>
      </trkpt>
      <trkpt lat="46.91225" lon="8.66603">
        <ele>1634</ele>
        <time>2021-08-07T09:16:11.004Z</time>
      </trkpt>
      <trkpt lat="46.91226" lon="8.66602">
        <ele>1635</ele>
        <time>2021-08-07T09:16:12.004Z</time>
      </trkpt>
      <trkpt lat="46.91227" lon="8.66601">
        <ele>1636</ele>
        <time>2021-08-07T09:16:13.003Z</time>
      </trkpt>
      <trkpt lat="46.91228" lon="8.666">
        <ele>1636</ele>
        <time>2021-08-07T09:16:14.004Z</time>
      </trkpt>
      <trkpt lat="46.91229" lon="8.66599">
        <ele>1637</ele>
        <time>2021-08-07T09:16:15.004Z</time>
      </trkpt>
      <trkpt lat="46.91231" lon="8.66598">
        <ele>1637</ele>
        <time>2021-08-07T09:16:16.004Z</time>
      </trkpt>
      <trkpt lat="46.91232" lon="8.66597">
        <ele>1637</ele>
        <time>2021-08-07T09:16:17.004Z</time>
      </trkpt>
      <trkpt lat="46.91232" lon="8.66597">
        <ele>1637</ele>
        <time>2021-08-07T09:16:18.003Z</time>
      </trkpt>
      <trkpt lat="46.91233" lon="8.66596">
        <ele>1638</ele>
        <time>2021-08-07T09:16:19.004Z</time>
      </trkpt>
      <trkpt lat="46.91234" lon="8.66595">
        <ele>1638</ele>
        <time>2021-08-07T09:16:20.004Z</time>
      </trkpt>
      <trkpt lat="46.91235" lon="8.66595">
        <ele>1638</ele>
        <time>2021-08-07T09:16:21.003Z</time>
      </trkpt>
      <trkpt lat="46.91236" lon="8.66594">
        <ele>1639</ele>
        <time>2021-08-07T09:16:22.003Z</time>
      </trkpt>
      <trkpt lat="46.91237" lon="8.66593">
        <ele>1639</ele>
        <time>2021-08-07T09:16:23.004Z</time>
      </trkpt>
      <trkpt lat="46.91238" lon="8.66592">
        <ele>1639</ele>
        <time>2021-08-07T09:16:24.003Z</time>
      </trkpt>
      <trkpt lat="46.91239" lon="8.66592">
        <ele>1639</ele>
        <time>2021-08-07T09:16:25.004Z</time>
      </trkpt>
      <trkpt lat="46.9124" lon="8.66592">
        <ele>1639</ele>
        <time>2021-08-07T09:16:26.004Z</time>
      </trkpt>
      <trkpt lat="46.91241" lon="8.66592">
        <ele>1639</ele>
        <time>2021-08-07T09:16:27.004Z</time>
      </trkpt>
      <trkpt lat="46.91242" lon="8.66592">
        <ele>1638</ele>
        <time>2021-08-07T09:16:28.004Z</time>
      </trkpt>
      <trkpt lat="46.91243" lon="8.66592">
        <ele>1638</ele>
        <time>2021-08-07T09:16:29.004Z</time>
      </trkpt>
      <trkpt lat="46.91244" lon="8.66592">
        <ele>1638</ele>
        <time>2021-08-07T09:16:30.004Z</time>
      </trkpt>
      <trkpt lat="46.91246" lon="8.66591">
        <ele>1638</ele>
        <time>2021-08-07T09:16:31.004Z</time>
      </trkpt>
      <trkpt lat="46.91246" lon="8.6659">
        <ele>1637</ele>
        <time>2021-08-07T09:16:32.003Z</time>
      </trkpt>
      <trkpt lat="46.91247" lon="8.6659">
        <ele>1637</ele>
        <time>2021-08-07T09:16:33.004Z</time>
      </trkpt>
      <trkpt lat="46.91248" lon="8.66589">
        <ele>1637</ele>
        <time>2021-08-07T09:16:34.003Z</time>
      </trkpt>
      <trkpt lat="46.91249" lon="8.6659">
        <ele>1637</ele>
        <time>2021-08-07T09:16:35.003Z</time>
      </trkpt>
      <trkpt lat="46.9125" lon="8.6659">
        <ele>1636</ele>
        <time>2021-08-07T09:16:36.004Z</time>
      </trkpt>
      <trkpt lat="46.91251" lon="8.66591">
        <ele>1636</ele>
        <time>2021-08-07T09:16:37.003Z</time>
      </trkpt>
      <trkpt lat="46.91251" lon="8.66592">
        <ele>1636</ele>
        <time>2021-08-07T09:16:38.004Z</time>
      </trkpt>
      <trkpt lat="46.91252" lon="8.66593">
        <ele>1635</ele>
        <time>2021-08-07T09:16:39.004Z</time>
      </trkpt>
      <trkpt lat="46.91253" lon="8.66593">
        <ele>1635</ele>
        <time>2021-08-07T09:16:40.004Z</time>
      </trkpt>
      <trkpt lat="46.91254" lon="8.66592">
        <ele>1635</ele>
        <time>2021-08-07T09:16:41.004Z</time>
      </trkpt>
      <trkpt lat="46.91256" lon="8.66591">
        <ele>1635</ele>
        <time>2021-08-07T09:16:42.004Z</time>
      </trkpt>
      <trkpt lat="46.91257" lon="8.66591">
        <ele>1635</ele>
        <time>2021-08-07T09:16:43.004Z</time>
      </trkpt>
      <trkpt lat="46.91258" lon="8.6659">
        <ele>1634</ele>
        <time>2021-08-07T09:16:44.004Z</time>
      </trkpt>
      <trkpt lat="46.91259" lon="8.6659">
        <ele>1634</ele>
        <time>2021-08-07T09:16:45.004Z</time>
      </trkpt>
      <trkpt lat="46.9126" lon="8.6659">
        <ele>1633</ele>
        <time>2021-08-07T09:16:46.004Z</time>
      </trkpt>
      <trkpt lat="46.91261" lon="8.66589">
        <ele>1633</ele>
        <time>2021-08-07T09:16:47.003Z</time>
      </trkpt>
      <trkpt lat="46.91262" lon="8.66589">
        <ele>1632</ele>
        <time>2021-08-07T09:16:48.004Z</time>
      </trkpt>
      <trkpt lat="46.91263" lon="8.66589">
        <ele>1632</ele>
        <time>2021-08-07T09:16:49.004Z</time>
      </trkpt>
      <trkpt lat="46.91265" lon="8.66589">
        <ele>1632</ele>
        <time>2021-08-07T09:16:50.004Z</time>
      </trkpt>
      <trkpt lat="46.91266" lon="8.66588">
        <ele>1631</ele>
        <time>2021-08-07T09:16:51.004Z</time>
      </trkpt>
      <trkpt lat="46.91267" lon="8.66588">
        <ele>1631</ele>
        <time>2021-08-07T09:16:52.004Z</time>
      </trkpt>
      <trkpt lat="46.91267" lon="8.66588">
        <ele>1631</ele>
        <time>2021-08-07T09:16:53.004Z</time>
      </trkpt>
      <trkpt lat="46.91269" lon="8.66588">
        <ele>1631</ele>
        <time>2021-08-07T09:16:54.004Z</time>
      </trkpt>
      <trkpt lat="46.9127" lon="8.66588">
        <ele>1630</ele>
        <time>2021-08-07T09:16:55.004Z</time>
      </trkpt>
      <trkpt lat="46.91271" lon="8.66588">
        <ele>1630</ele>
        <time>2021-08-07T09:16:56.003Z</time>
      </trkpt>
      <trkpt lat="46.91272" lon="8.66588">
        <ele>1630</ele>
        <time>2021-08-07T09:16:57.003Z</time>
      </trkpt>
      <trkpt lat="46.91273" lon="8.66588">
        <ele>1630</ele>
        <time>2021-08-07T09:16:58.004Z</time>
      </trkpt>
      <trkpt lat="46.91274" lon="8.66588">
        <ele>1630</ele>
        <time>2021-08-07T09:16:59.003Z</time>
      </trkpt>
      <trkpt lat="46.91275" lon="8.66588">
        <ele>1630</ele>
        <time>2021-08-07T09:17:00.003Z</time>
      </trkpt>
      <trkpt lat="46.91276" lon="8.66588">
        <ele>1630</ele>
        <time>2021-08-07T09:17:01.004Z</time>
      </trkpt>
      <trkpt lat="46.91278" lon="8.66588">
        <ele>1630</ele>
        <time>2021-08-07T09:17:02.004Z</time>
      </trkpt>
      <trkpt lat="46.91279" lon="8.66587">
        <ele>1630</ele>
        <time>2021-08-07T09:17:03.003Z</time>
      </trkpt>
      <trkpt lat="46.9128" lon="8.66587">
        <ele>1631</ele>
        <time>2021-08-07T09:17:04.004Z</time>
      </trkpt>
      <trkpt lat="46.91282" lon="8.66586">
        <ele>1631</ele>
        <time>2021-08-07T09:17:05.004Z</time>
      </trkpt>
      <trkpt lat="46.91283" lon="8.66585">
        <ele>1631</ele>
        <time>2021-08-07T09:17:06.004Z</time>
      </trkpt>
      <trkpt lat="46.91285" lon="8.66584">
        <ele>1631</ele>
        <time>2021-08-07T09:17:07.004Z</time>
      </trkpt>
      <trkpt lat="46.91287" lon="8.66582">
        <ele>1630</ele>
        <time>2021-08-07T09:17:08.003Z</time>
      </trkpt>
      <trkpt lat="46.91288" lon="8.66582">
        <ele>1630</ele>
        <time>2021-08-07T09:17:09.003Z</time>
      </trkpt>
      <trkpt lat="46.91289" lon="8.66581">
        <ele>1630</ele>
        <time>2021-08-07T09:17:10.003Z</time>
      </trkpt>
      <trkpt lat="46.91291" lon="8.6658">
        <ele>1630</ele>
        <time>2021-08-07T09:17:11.004Z</time>
      </trkpt>
      <trkpt lat="46.91291" lon="8.6658">
        <ele>1630</ele>
        <time>2021-08-07T09:17:12.004Z</time>
      </trkpt>
      <trkpt lat="46.91292" lon="8.66579">
        <ele>1630</ele>
        <time>2021-08-07T09:17:13.004Z</time>
      </trkpt>
      <trkpt lat="46.91293" lon="8.66577">
        <ele>1630</ele>
        <time>2021-08-07T09:17:14.003Z</time>
      </trkpt>
      <trkpt lat="46.91294" lon="8.66577">
        <ele>1630</ele>
        <time>2021-08-07T09:17:15.004Z</time>
      </trkpt>
      <trkpt lat="46.91295" lon="8.66576">
        <ele>1630</ele>
        <time>2021-08-07T09:17:16.003Z</time>
      </trkpt>
      <trkpt lat="46.91297" lon="8.66576">
        <ele>1630</ele>
        <time>2021-08-07T09:17:17.004Z</time>
      </trkpt>
      <trkpt lat="46.91298" lon="8.66575">
        <ele>1629</ele>
        <time>2021-08-07T09:17:18.004Z</time>
      </trkpt>
      <trkpt lat="46.913" lon="8.66574">
        <ele>1629</ele>
        <time>2021-08-07T09:17:19.004Z</time>
      </trkpt>
      <trkpt lat="46.91301" lon="8.66574">
        <ele>1629</ele>
        <time>2021-08-07T09:17:20.004Z</time>
      </trkpt>
      <trkpt lat="46.91302" lon="8.66573">
        <ele>1629</ele>
        <time>2021-08-07T09:17:21.003Z</time>
      </trkpt>
      <trkpt lat="46.91304" lon="8.66572">
        <ele>1628</ele>
        <time>2021-08-07T09:17:22.003Z</time>
      </trkpt>
      <trkpt lat="46.91305" lon="8.66572">
        <ele>1628</ele>
        <time>2021-08-07T09:17:23.004Z</time>
      </trkpt>
      <trkpt lat="46.91306" lon="8.66572">
        <ele>1629</ele>
        <time>2021-08-07T09:17:24.004Z</time>
      </trkpt>
      <trkpt lat="46.91307" lon="8.66571">
        <ele>1629</ele>
        <time>2021-08-07T09:17:25.004Z</time>
      </trkpt>
      <trkpt lat="46.91308" lon="8.6657">
        <ele>1630</ele>
        <time>2021-08-07T09:17:26.004Z</time>
      </trkpt>
      <trkpt lat="46.91309" lon="8.6657">
        <ele>1630</ele>
        <time>2021-08-07T09:17:27.004Z</time>
      </trkpt>
      <trkpt lat="46.9131" lon="8.66569">
        <ele>1631</ele>
        <time>2021-08-07T09:17:28.003Z</time>
      </trkpt>
      <trkpt lat="46.91312" lon="8.66568">
        <ele>1631</ele>
        <time>2021-08-07T09:17:29.004Z</time>
      </trkpt>
      <trkpt lat="46.91313" lon="8.66568">
        <ele>1631</ele>
        <time>2021-08-07T09:17:30.004Z</time>
      </trkpt>
      <trkpt lat="46.91314" lon="8.66567">
        <ele>1631</ele>
        <time>2021-08-07T09:17:31.004Z</time>
      </trkpt>
      <trkpt lat="46.91315" lon="8.66566">
        <ele>1630</ele>
        <time>2021-08-07T09:17:32.004Z</time>
      </trkpt>
      <trkpt lat="46.91316" lon="8.66566">
        <ele>1630</ele>
        <time>2021-08-07T09:17:33.004Z</time>
      </trkpt>
      <trkpt lat="46.91317" lon="8.66566">
        <ele>1629</ele>
        <time>2021-08-07T09:17:34.003Z</time>
      </trkpt>
      <trkpt lat="46.91318" lon="8.66565">
        <ele>1629</ele>
        <time>2021-08-07T09:17:35.003Z</time>
      </trkpt>
      <trkpt lat="46.91319" lon="8.66565">
        <ele>1628</ele>
        <time>2021-08-07T09:17:36.003Z</time>
      </trkpt>
      <trkpt lat="46.9132" lon="8.66564">
        <ele>1628</ele>
        <time>2021-08-07T09:17:37.004Z</time>
      </trkpt>
      <trkpt lat="46.91321" lon="8.66563">
        <ele>1627</ele>
        <time>2021-08-07T09:17:38.004Z</time>
      </trkpt>
      <trkpt lat="46.91322" lon="8.66563">
        <ele>1627</ele>
        <time>2021-08-07T09:17:39.004Z</time>
      </trkpt>
      <trkpt lat="46.91323" lon="8.66562">
        <ele>1626</ele>
        <time>2021-08-07T09:17:40.003Z</time>
      </trkpt>
      <trkpt lat="46.91324" lon="8.66562">
        <ele>1626</ele>
        <time>2021-08-07T09:17:41.004Z</time>
      </trkpt>
      <trkpt lat="46.91326" lon="8.66562">
        <ele>1625</ele>
        <time>2021-08-07T09:17:42.004Z</time>
      </trkpt>
      <trkpt lat="46.91327" lon="8.66561">
        <ele>1625</ele>
        <time>2021-08-07T09:17:43.003Z</time>
      </trkpt>
      <trkpt lat="46.91328" lon="8.66561">
        <ele>1624</ele>
        <time>2021-08-07T09:17:44.003Z</time>
      </trkpt>
      <trkpt lat="46.91328" lon="8.66561">
        <ele>1624</ele>
        <time>2021-08-07T09:17:45.003Z</time>
      </trkpt>
      <trkpt lat="46.91329" lon="8.6656">
        <ele>1624</ele>
        <time>2021-08-07T09:17:46.003Z</time>
      </trkpt>
      <trkpt lat="46.9133" lon="8.66559">
        <ele>1623</ele>
        <time>2021-08-07T09:17:47.004Z</time>
      </trkpt>
      <trkpt lat="46.91331" lon="8.66559">
        <ele>1623</ele>
        <time>2021-08-07T09:17:48.004Z</time>
      </trkpt>
      <trkpt lat="46.91332" lon="8.66558">
        <ele>1622</ele>
        <time>2021-08-07T09:17:49.004Z</time>
      </trkpt>
      <trkpt lat="46.91332" lon="8.66558">
        <ele>1622</ele>
        <time>2021-08-07T09:17:50.004Z</time>
      </trkpt>
      <trkpt lat="46.91332" lon="8.66558">
        <ele>1621</ele>
        <time>2021-08-07T09:17:51.003Z</time>
      </trkpt>
      <trkpt lat="46.91333" lon="8.66558">
        <ele>1621</ele>
        <time>2021-08-07T09:17:52.004Z</time>
      </trkpt>
      <trkpt lat="46.91333" lon="8.66558">
        <ele>1620</ele>
        <time>2021-08-07T09:17:53.004Z</time>
      </trkpt>
      <trkpt lat="46.91334" lon="8.66559">
        <ele>1620</ele>
        <time>2021-08-07T09:17:54.005Z</time>
      </trkpt>
      <trkpt lat="46.91334" lon="8.66559">
        <ele>1625</ele>
        <time>2021-08-07T09:17:55.005Z</time>
      </trkpt>
      <trkpt lat="46.91335" lon="8.6656">
        <ele>1625</ele>
        <time>2021-08-07T09:17:56.004Z</time>
      </trkpt>
      <trkpt lat="46.91335" lon="8.6656">
        <ele>1625</ele>
        <time>2021-08-07T09:17:57.004Z</time>
      </trkpt>
      <trkpt lat="46.91335" lon="8.6656">
        <ele>1625</ele>
        <time>2021-08-07T09:17:58.005Z</time>
      </trkpt>
      <trkpt lat="46.91335" lon="8.6656">
        <ele>1624</ele>
        <time>2021-08-07T09:17:59.005Z</time>
      </trkpt>
      <trkpt lat="46.91334" lon="8.6656">
        <ele>1624</ele>
        <time>2021-08-07T09:18:00.004Z</time>
      </trkpt>
      <trkpt lat="46.91334" lon="8.6656">
        <ele>1624</ele>
        <time>2021-08-07T09:18:01.004Z</time>
      </trkpt>
      <trkpt lat="46.91334" lon="8.6656">
        <ele>1624</ele>
        <time>2021-08-07T09:18:03.000Z</time>
      </trkpt>
      <trkpt lat="46.91334" lon="8.6656">
        <ele>1623</ele>
        <time>2021-08-07T09:18:04.000Z</time>
      </trkpt>
      <trkpt lat="46.91334" lon="8.6656">
        <ele>1623</ele>
        <time>2021-08-07T09:18:04.999Z</time>
      </trkpt>
      <trkpt lat="46.91335" lon="8.66558">
        <ele>1622</ele>
        <time>2021-08-07T09:18:06.000Z</time>
      </trkpt>
      <trkpt lat="46.91336" lon="8.66557">
        <ele>1622</ele>
        <time>2021-08-07T09:18:07.000Z</time>
      </trkpt>
      <trkpt lat="46.91336" lon="8.66557">
        <ele>1621</ele>
        <time>2021-08-07T09:18:08.000Z</time>
      </trkpt>
      <trkpt lat="46.91336" lon="8.66556">
        <ele>1621</ele>
        <time>2021-08-07T09:18:09.001Z</time>
      </trkpt>
      <trkpt lat="46.91336" lon="8.66556">
        <ele>1621</ele>
        <time>2021-08-07T09:18:10.001Z</time>
      </trkpt>
      <trkpt lat="46.91337" lon="8.66555">
        <ele>1620</ele>
        <time>2021-08-07T09:18:11.000Z</time>
      </trkpt>
      <trkpt lat="46.91336" lon="8.66554">
        <ele>1620</ele>
        <time>2021-08-07T09:18:12.000Z</time>
      </trkpt>
      <trkpt lat="46.91336" lon="8.66553">
        <ele>1620</ele>
        <time>2021-08-07T09:18:13.000Z</time>
      </trkpt>
      <trkpt lat="46.91336" lon="8.66553">
        <ele>1620</ele>
        <time>2021-08-07T09:18:14.001Z</time>
      </trkpt>
      <trkpt lat="46.91335" lon="8.66552">
        <ele>1619</ele>
        <time>2021-08-07T09:18:15.001Z</time>
      </trkpt>
      <trkpt lat="46.91335" lon="8.66551">
        <ele>1619</ele>
        <time>2021-08-07T09:18:16.001Z</time>
      </trkpt>
      <trkpt lat="46.91334" lon="8.66551">
        <ele>1619</ele>
        <time>2021-08-07T09:18:17.000Z</time>
      </trkpt>
      <trkpt lat="46.91335" lon="8.66547">
        <ele>1619</ele>
        <time>2021-08-07T09:18:18.001Z</time>
      </trkpt>
      <trkpt lat="46.91336" lon="8.66546">
        <ele>1618</ele>
        <time>2021-08-07T09:18:19.001Z</time>
      </trkpt>
      <trkpt lat="46.91336" lon="8.66545">
        <ele>1618</ele>
        <time>2021-08-07T09:18:21.148Z</time>
      </trkpt>
      <trkpt lat="46.91336" lon="8.66544">
        <ele>1617</ele>
        <time>2021-08-07T09:18:22.987Z</time>
      </trkpt>
      <trkpt lat="46.91336" lon="8.66542">
        <ele>1617</ele>
        <time>2021-08-07T09:18:23.987Z</time>
      </trkpt>
      <trkpt lat="46.91337" lon="8.66541">
        <ele>1616</ele>
        <time>2021-08-07T09:18:24.987Z</time>
      </trkpt>
      <trkpt lat="46.91337" lon="8.66539">
        <ele>1616</ele>
        <time>2021-08-07T09:18:52.068Z</time>
      </trkpt>
      <trkpt lat="46.91338" lon="8.66537">
        <ele>1616</ele>
        <time>2021-08-07T09:18:53.068Z</time>
      </trkpt>
      <trkpt lat="46.91338" lon="8.66535">
        <ele>1616</ele>
        <time>2021-08-07T09:18:54.067Z</time>
      </trkpt>
      <trkpt lat="46.91338" lon="8.66534">
        <ele>1616</ele>
        <time>2021-08-07T09:18:55.068Z</time>
      </trkpt>
      <trkpt lat="46.91339" lon="8.66532">
        <ele>1616</ele>
        <time>2021-08-07T09:18:56.067Z</time>
      </trkpt>
      <trkpt lat="46.91339" lon="8.66531">
        <ele>1616</ele>
        <time>2021-08-07T09:18:57.067Z</time>
      </trkpt>
      <trkpt lat="46.91338" lon="8.66529">
        <ele>1615</ele>
        <time>2021-08-07T09:18:58.068Z</time>
      </trkpt>
      <trkpt lat="46.91338" lon="8.66527">
        <ele>1615</ele>
        <time>2021-08-07T09:18:59.067Z</time>
      </trkpt>
      <trkpt lat="46.91337" lon="8.66526">
        <ele>1614</ele>
        <time>2021-08-07T09:19:00.068Z</time>
      </trkpt>
      <trkpt lat="46.91336" lon="8.66524">
        <ele>1614</ele>
        <time>2021-08-07T09:19:01.068Z</time>
      </trkpt>
      <trkpt lat="46.91337" lon="8.66522">
        <ele>1613</ele>
        <time>2021-08-07T09:19:02.068Z</time>
      </trkpt>
      <trkpt lat="46.91337" lon="8.66521">
        <ele>1613</ele>
        <time>2021-08-07T09:19:09.146Z</time>
      </trkpt>
      <trkpt lat="46.91337" lon="8.66519">
        <ele>1613</ele>
        <time>2021-08-07T09:19:10.146Z</time>
      </trkpt>
      <trkpt lat="46.91337" lon="8.66517">
        <ele>1613</ele>
        <time>2021-08-07T09:19:24.006Z</time>
      </trkpt>
      <trkpt lat="46.91337" lon="8.66516">
        <ele>1613</ele>
        <time>2021-08-07T09:19:25.006Z</time>
      </trkpt>
      <trkpt lat="46.91337" lon="8.66516">
        <ele>1613</ele>
        <time>2021-08-07T09:19:26.007Z</time>
      </trkpt>
      <trkpt lat="46.91336" lon="8.66516">
        <ele>1613</ele>
        <time>2021-08-07T09:19:27.007Z</time>
      </trkpt>
      <trkpt lat="46.91337" lon="8.66516">
        <ele>1613</ele>
        <time>2021-08-07T09:19:28.007Z</time>
      </trkpt>
      <trkpt lat="46.91335" lon="8.66515">
        <ele>1612</ele>
        <time>2021-08-07T09:19:30.046Z</time>
      </trkpt>
      <trkpt lat="46.91335" lon="8.66515">
        <ele>1612</ele>
        <time>2021-08-07T09:19:31.046Z</time>
      </trkpt>
      <trkpt lat="46.91335" lon="8.66515">
        <ele>1612</ele>
        <time>2021-08-07T09:19:32.045Z</time>
      </trkpt>
      <trkpt lat="46.91334" lon="8.66513">
        <ele>1614</ele>
        <time>2021-08-07T09:19:33.048Z</time>
      </trkpt>
      <trkpt lat="46.91335" lon="8.66512">
        <ele>1614</ele>
        <time>2021-08-07T09:19:34.048Z</time>
      </trkpt>
      <trkpt lat="46.91335" lon="8.66511">
        <ele>1614</ele>
        <time>2021-08-07T09:19:35.047Z</time>
      </trkpt>
      <trkpt lat="46.91336" lon="8.6651">
        <ele>1613</ele>
        <time>2021-08-07T09:19:36.048Z</time>
      </trkpt>
      <trkpt lat="46.91335" lon="8.66508">
        <ele>1613</ele>
        <time>2021-08-07T09:19:37.048Z</time>
      </trkpt>
      <trkpt lat="46.91335" lon="8.66507">
        <ele>1613</ele>
        <time>2021-08-07T09:19:38.047Z</time>
      </trkpt>
      <trkpt lat="46.91334" lon="8.66506">
        <ele>1613</ele>
        <time>2021-08-07T09:19:39.047Z</time>
      </trkpt>
      <trkpt lat="46.91334" lon="8.66505">
        <ele>1613</ele>
        <time>2021-08-07T09:19:40.048Z</time>
      </trkpt>
      <trkpt lat="46.91335" lon="8.66504">
        <ele>1613</ele>
        <time>2021-08-07T09:19:41.048Z</time>
      </trkpt>
      <trkpt lat="46.91336" lon="8.66503">
        <ele>1613</ele>
        <time>2021-08-07T09:19:42.048Z</time>
      </trkpt>
      <trkpt lat="46.91336" lon="8.66503">
        <ele>1612</ele>
        <time>2021-08-07T09:19:43.048Z</time>
      </trkpt>
      <trkpt lat="46.91336" lon="8.66502">
        <ele>1612</ele>
        <time>2021-08-07T09:19:44.048Z</time>
      </trkpt>
      <trkpt lat="46.91336" lon="8.66501">
        <ele>1612</ele>
        <time>2021-08-07T09:19:45.048Z</time>
      </trkpt>
      <trkpt lat="46.91336" lon="8.66499">
        <ele>1612</ele>
        <time>2021-08-07T09:19:46.048Z</time>
      </trkpt>
      <trkpt lat="46.91336" lon="8.66498">
        <ele>1611</ele>
        <time>2021-08-07T09:19:47.048Z</time>
      </trkpt>
      <trkpt lat="46.91336" lon="8.66497">
        <ele>1611</ele>
        <time>2021-08-07T09:19:48.048Z</time>
      </trkpt>
      <trkpt lat="46.91336" lon="8.66496">
        <ele>1610</ele>
        <time>2021-08-07T09:19:49.048Z</time>
      </trkpt>
      <trkpt lat="46.91336" lon="8.66495">
        <ele>1610</ele>
        <time>2021-08-07T09:19:50.048Z</time>
      </trkpt>
      <trkpt lat="46.91336" lon="8.66495">
        <ele>1610</ele>
        <time>2021-08-07T09:19:51.047Z</time>
      </trkpt>
      <trkpt lat="46.91333" lon="8.66494">
        <ele>1611</ele>
        <time>2021-08-07T09:19:52.049Z</time>
      </trkpt>
      <trkpt lat="46.91333" lon="8.66494">
        <ele>1612</ele>
        <time>2021-08-07T09:19:53.049Z</time>
      </trkpt>
      <trkpt lat="46.91332" lon="8.66494">
        <ele>1613</ele>
        <time>2021-08-07T09:19:54.048Z</time>
      </trkpt>
      <trkpt lat="46.91331" lon="8.66494">
        <ele>1613</ele>
        <time>2021-08-07T09:19:55.049Z</time>
      </trkpt>
      <trkpt lat="46.91331" lon="8.66494">
        <ele>1614</ele>
        <time>2021-08-07T09:19:56.048Z</time>
      </trkpt>
      <trkpt lat="46.9133" lon="8.66493">
        <ele>1614</ele>
        <time>2021-08-07T09:19:57.049Z</time>
      </trkpt>
      <trkpt lat="46.91333" lon="8.6649">
        <ele>1612</ele>
        <time>2021-08-07T09:19:58.049Z</time>
      </trkpt>
      <trkpt lat="46.91334" lon="8.6649">
        <ele>1612</ele>
        <time>2021-08-07T09:19:59.048Z</time>
      </trkpt>
      <trkpt lat="46.91334" lon="8.66488">
        <ele>1614</ele>
        <time>2021-08-07T09:20:00.048Z</time>
      </trkpt>
      <trkpt lat="46.91334" lon="8.66488">
        <ele>1614</ele>
        <time>2021-08-07T09:20:01.048Z</time>
      </trkpt>
      <trkpt lat="46.91335" lon="8.66488">
        <ele>1614</ele>
        <time>2021-08-07T09:20:02.048Z</time>
      </trkpt>
      <trkpt lat="46.91335" lon="8.66488">
        <ele>1614</ele>
        <time>2021-08-07T09:20:03.048Z</time>
      </trkpt>
      <trkpt lat="46.91335" lon="8.66489">
        <ele>1614</ele>
        <time>2021-08-07T09:20:04.048Z</time>
      </trkpt>
      <trkpt lat="46.91334" lon="8.6649">
        <ele>1614</ele>
        <time>2021-08-07T09:20:05.048Z</time>
      </trkpt>
      <trkpt lat="46.91331" lon="8.66487">
        <ele>1610</ele>
        <time>2021-08-07T09:20:06.048Z</time>
      </trkpt>
      <trkpt lat="46.91329" lon="8.66487">
        <ele>1610</ele>
        <time>2021-08-07T09:20:07.049Z</time>
      </trkpt>
      <trkpt lat="46.91329" lon="8.66487">
        <ele>1610</ele>
        <time>2021-08-07T09:20:08.048Z</time>
      </trkpt>
      <trkpt lat="46.91329" lon="8.66487">
        <ele>1610</ele>
        <time>2021-08-07T09:20:09.049Z</time>
      </trkpt>
      <trkpt lat="46.9133" lon="8.66489">
        <ele>1611</ele>
        <time>2021-08-07T09:20:10.050Z</time>
      </trkpt>
      <trkpt lat="46.91329" lon="8.66489">
        <ele>1611</ele>
        <time>2021-08-07T09:20:11.050Z</time>
      </trkpt>
      <trkpt lat="46.91329" lon="8.66489">
        <ele>1611</ele>
        <time>2021-08-07T09:20:12.050Z</time>
      </trkpt>
      <trkpt lat="46.91328" lon="8.66489">
        <ele>1612</ele>
        <time>2021-08-07T09:20:13.049Z</time>
      </trkpt>
      <trkpt lat="46.91328" lon="8.66489">
        <ele>1612</ele>
        <time>2021-08-07T09:20:14.050Z</time>
      </trkpt>
      <trkpt lat="46.91327" lon="8.66491">
        <ele>1613</ele>
        <time>2021-08-07T09:20:15.051Z</time>
      </trkpt>
      <trkpt lat="46.91326" lon="8.66492">
        <ele>1613</ele>
        <time>2021-08-07T09:20:16.051Z</time>
      </trkpt>
      <trkpt lat="46.91326" lon="8.66492">
        <ele>1613</ele>
        <time>2021-08-07T09:20:17.051Z</time>
      </trkpt>
      <trkpt lat="46.91325" lon="8.66493">
        <ele>1613</ele>
        <time>2021-08-07T09:20:18.051Z</time>
      </trkpt>
      <trkpt lat="46.91324" lon="8.66493">
        <ele>1613</ele>
        <time>2021-08-07T09:20:19.051Z</time>
      </trkpt>
      <trkpt lat="46.91323" lon="8.66493">
        <ele>1613</ele>
        <time>2021-08-07T09:20:20.051Z</time>
      </trkpt>
      <trkpt lat="46.91322" lon="8.66494">
        <ele>1613</ele>
        <time>2021-08-07T09:20:21.051Z</time>
      </trkpt>
      <trkpt lat="46.91321" lon="8.66495">
        <ele>1612</ele>
        <time>2021-08-07T09:20:22.051Z</time>
      </trkpt>
      <trkpt lat="46.91319" lon="8.66495">
        <ele>1612</ele>
        <time>2021-08-07T09:20:23.051Z</time>
      </trkpt>
      <trkpt lat="46.91318" lon="8.66495">
        <ele>1612</ele>
        <time>2021-08-07T09:20:24.050Z</time>
      </trkpt>
      <trkpt lat="46.91317" lon="8.66495">
        <ele>1612</ele>
        <time>2021-08-07T09:20:25.051Z</time>
      </trkpt>
      <trkpt lat="46.91316" lon="8.66494">
        <ele>1612</ele>
        <time>2021-08-07T09:20:26.050Z</time>
      </trkpt>
      <trkpt lat="46.91314" lon="8.66493">
        <ele>1612</ele>
        <time>2021-08-07T09:20:27.050Z</time>
      </trkpt>
      <trkpt lat="46.91313" lon="8.66492">
        <ele>1612</ele>
        <time>2021-08-07T09:20:28.051Z</time>
      </trkpt>
      <trkpt lat="46.91312" lon="8.66492">
        <ele>1612</ele>
        <time>2021-08-07T09:20:29.051Z</time>
      </trkpt>
      <trkpt lat="46.91311" lon="8.66492">
        <ele>1611</ele>
        <time>2021-08-07T09:20:30.051Z</time>
      </trkpt>
      <trkpt lat="46.9131" lon="8.66493">
        <ele>1611</ele>
        <time>2021-08-07T09:20:31.050Z</time>
      </trkpt>
      <trkpt lat="46.91309" lon="8.66492">
        <ele>1611</ele>
        <time>2021-08-07T09:20:32.050Z</time>
      </trkpt>
      <trkpt lat="46.91308" lon="8.66492">
        <ele>1610</ele>
        <time>2021-08-07T09:20:33.050Z</time>
      </trkpt>
      <trkpt lat="46.91308" lon="8.66493">
        <ele>1610</ele>
        <time>2021-08-07T09:20:34.051Z</time>
      </trkpt>
      <trkpt lat="46.91309" lon="8.66493">
        <ele>1610</ele>
        <time>2021-08-07T09:20:35.050Z</time>
      </trkpt>
      <trkpt lat="46.91309" lon="8.66493">
        <ele>1610</ele>
        <time>2021-08-07T09:20:36.050Z</time>
      </trkpt>
      <trkpt lat="46.91309" lon="8.66492">
        <ele>1610</ele>
        <time>2021-08-07T09:20:37.050Z</time>
      </trkpt>
      <trkpt lat="46.91308" lon="8.66492">
        <ele>1610</ele>
        <time>2021-08-07T09:20:38.051Z</time>
      </trkpt>
      <trkpt lat="46.91308" lon="8.66492">
        <ele>1610</ele>
        <time>2021-08-07T09:20:39.050Z</time>
      </trkpt>
      <trkpt lat="46.91307" lon="8.66492">
        <ele>1610</ele>
        <time>2021-08-07T09:20:40.051Z</time>
      </trkpt>
      <trkpt lat="46.91306" lon="8.66492">
        <ele>1610</ele>
        <time>2021-08-07T09:20:41.051Z</time>
      </trkpt>
      <trkpt lat="46.91306" lon="8.66492">
        <ele>1610</ele>
        <time>2021-08-07T09:20:42.050Z</time>
      </trkpt>
      <trkpt lat="46.91306" lon="8.66492">
        <ele>1610</ele>
        <time>2021-08-07T09:20:43.051Z</time>
      </trkpt>
      <trkpt lat="46.91306" lon="8.66493">
        <ele>1609</ele>
        <time>2021-08-07T09:20:44.051Z</time>
      </trkpt>
      <trkpt lat="46.91305" lon="8.66493">
        <ele>1609</ele>
        <time>2021-08-07T09:20:45.051Z</time>
      </trkpt>
      <trkpt lat="46.91304" lon="8.66493">
        <ele>1609</ele>
        <time>2021-08-07T09:20:46.051Z</time>
      </trkpt>
      <trkpt lat="46.91304" lon="8.66493">
        <ele>1609</ele>
        <time>2021-08-07T09:20:47.050Z</time>
      </trkpt>
      <trkpt lat="46.91303" lon="8.66492">
        <ele>1609</ele>
        <time>2021-08-07T09:20:48.050Z</time>
      </trkpt>
      <trkpt lat="46.91302" lon="8.66491">
        <ele>1609</ele>
        <time>2021-08-07T09:20:49.050Z</time>
      </trkpt>
      <trkpt lat="46.913" lon="8.66491">
        <ele>1609</ele>
        <time>2021-08-07T09:20:50.050Z</time>
      </trkpt>
      <trkpt lat="46.91299" lon="8.66491">
        <ele>1609</ele>
        <time>2021-08-07T09:20:51.051Z</time>
      </trkpt>
      <trkpt lat="46.91297" lon="8.66491">
        <ele>1609</ele>
        <time>2021-08-07T09:20:52.051Z</time>
      </trkpt>
      <trkpt lat="46.91296" lon="8.66491">
        <ele>1609</ele>
        <time>2021-08-07T09:20:53.050Z</time>
      </trkpt>
      <trkpt lat="46.91295" lon="8.66491">
        <ele>1609</ele>
        <time>2021-08-07T09:20:54.050Z</time>
      </trkpt>
      <trkpt lat="46.91294" lon="8.66491">
        <ele>1609</ele>
        <time>2021-08-07T09:20:55.051Z</time>
      </trkpt>
      <trkpt lat="46.91293" lon="8.66491">
        <ele>1609</ele>
        <time>2021-08-07T09:20:56.050Z</time>
      </trkpt>
      <trkpt lat="46.91293" lon="8.66491">
        <ele>1610</ele>
        <time>2021-08-07T09:20:57.051Z</time>
      </trkpt>
      <trkpt lat="46.91293" lon="8.6649">
        <ele>1610</ele>
        <time>2021-08-07T09:20:58.050Z</time>
      </trkpt>
      <trkpt lat="46.91293" lon="8.66491">
        <ele>1611</ele>
        <time>2021-08-07T09:20:59.052Z</time>
      </trkpt>
      <trkpt lat="46.91293" lon="8.66492">
        <ele>1611</ele>
        <time>2021-08-07T09:21:00.052Z</time>
      </trkpt>
      <trkpt lat="46.91293" lon="8.66492">
        <ele>1611</ele>
        <time>2021-08-07T09:21:01.051Z</time>
      </trkpt>
      <trkpt lat="46.91292" lon="8.66492">
        <ele>1611</ele>
        <time>2021-08-07T09:21:02.051Z</time>
      </trkpt>
      <trkpt lat="46.91291" lon="8.66492">
        <ele>1612</ele>
        <time>2021-08-07T09:21:03.052Z</time>
      </trkpt>
      <trkpt lat="46.9129" lon="8.66491">
        <ele>1612</ele>
        <time>2021-08-07T09:21:04.052Z</time>
      </trkpt>
      <trkpt lat="46.9129" lon="8.66491">
        <ele>1612</ele>
        <time>2021-08-07T09:21:05.052Z</time>
      </trkpt>
      <trkpt lat="46.9129" lon="8.66491">
        <ele>1612</ele>
        <time>2021-08-07T09:21:06.051Z</time>
      </trkpt>
      <trkpt lat="46.9129" lon="8.66492">
        <ele>1612</ele>
        <time>2021-08-07T09:21:07.052Z</time>
      </trkpt>
      <trkpt lat="46.91291" lon="8.66492">
        <ele>1612</ele>
        <time>2021-08-07T09:21:08.052Z</time>
      </trkpt>
      <trkpt lat="46.91291" lon="8.66493">
        <ele>1612</ele>
        <time>2021-08-07T09:21:09.052Z</time>
      </trkpt>
      <trkpt lat="46.91292" lon="8.66494">
        <ele>1612</ele>
        <time>2021-08-07T09:21:10.051Z</time>
      </trkpt>
      <trkpt lat="46.91293" lon="8.66495">
        <ele>1613</ele>
        <time>2021-08-07T09:21:11.052Z</time>
      </trkpt>
      <trkpt lat="46.91293" lon="8.66495">
        <ele>1613</ele>
        <time>2021-08-07T09:21:12.051Z</time>
      </trkpt>
      <trkpt lat="46.91293" lon="8.66494">
        <ele>1614</ele>
        <time>2021-08-07T09:21:13.051Z</time>
      </trkpt>
      <trkpt lat="46.91293" lon="8.66494">
        <ele>1614</ele>
        <time>2021-08-07T09:21:14.051Z</time>
      </trkpt>
      <trkpt lat="46.91295" lon="8.66496">
        <ele>1614</ele>
        <time>2021-08-07T09:21:15.051Z</time>
      </trkpt>
      <trkpt lat="46.91295" lon="8.66499">
        <ele>1614</ele>
        <time>2021-08-07T09:21:16.053Z</time>
      </trkpt>
      <trkpt lat="46.91295" lon="8.66499">
        <ele>1614</ele>
        <time>2021-08-07T09:21:17.053Z</time>
      </trkpt>
      <trkpt lat="46.91295" lon="8.66499">
        <ele>1614</ele>
        <time>2021-08-07T09:21:18.053Z</time>
      </trkpt>
      <trkpt lat="46.91293" lon="8.66496">
        <ele>1615</ele>
        <time>2021-08-07T09:21:19.054Z</time>
      </trkpt>
      <trkpt lat="46.91295" lon="8.66496">
        <ele>1616</ele>
        <time>2021-08-07T09:21:20.054Z</time>
      </trkpt>
      <trkpt lat="46.91295" lon="8.66496">
        <ele>1616</ele>
        <time>2021-08-07T09:21:21.054Z</time>
      </trkpt>
      <trkpt lat="46.91295" lon="8.66496">
        <ele>1617</ele>
        <time>2021-08-07T09:21:22.053Z</time>
      </trkpt>
      <trkpt lat="46.91293" lon="8.66494">
        <ele>1617</ele>
        <time>2021-08-07T09:21:23.054Z</time>
      </trkpt>
      <trkpt lat="46.91292" lon="8.66494">
        <ele>1617</ele>
        <time>2021-08-07T09:21:24.055Z</time>
      </trkpt>
      <trkpt lat="46.91293" lon="8.66494">
        <ele>1616</ele>
        <time>2021-08-07T09:21:25.054Z</time>
      </trkpt>
      <trkpt lat="46.91293" lon="8.66494">
        <ele>1616</ele>
        <time>2021-08-07T09:21:26.055Z</time>
      </trkpt>
      <trkpt lat="46.91293" lon="8.66494">
        <ele>1617</ele>
        <time>2021-08-07T09:21:27.054Z</time>
      </trkpt>
      <trkpt lat="46.91293" lon="8.66494">
        <ele>1617</ele>
        <time>2021-08-07T09:21:28.055Z</time>
      </trkpt>
      <trkpt lat="46.91298" lon="8.66496">
        <ele>1617</ele>
        <time>2021-08-07T09:21:29.055Z</time>
      </trkpt>
      <trkpt lat="46.91298" lon="8.66496">
        <ele>1617</ele>
        <time>2021-08-07T09:21:30.056Z</time>
      </trkpt>
      <trkpt lat="46.91298" lon="8.66495">
        <ele>1617</ele>
        <time>2021-08-07T09:21:31.055Z</time>
      </trkpt>
      <trkpt lat="46.91298" lon="8.66495">
        <ele>1617</ele>
        <time>2021-08-07T09:21:40.139Z</time>
      </trkpt>
      <trkpt lat="46.91298" lon="8.66495">
        <ele>1616</ele>
        <time>2021-08-07T09:21:41.138Z</time>
      </trkpt>
      <trkpt lat="46.91299" lon="8.66496">
        <ele>1616</ele>
        <time>2021-08-07T09:22:04.015Z</time>
      </trkpt>
      <trkpt lat="46.91299" lon="8.66496">
        <ele>1616</ele>
        <time>2021-08-07T09:22:05.014Z</time>
      </trkpt>
      <trkpt lat="46.91298" lon="8.66497">
        <ele>1616</ele>
        <time>2021-08-07T09:22:06.014Z</time>
      </trkpt>
      <trkpt lat="46.91298" lon="8.66497">
        <ele>1616</ele>
        <time>2021-08-07T09:22:07.015Z</time>
      </trkpt>
      <trkpt lat="46.91297" lon="8.66498">
        <ele>1616</ele>
        <time>2021-08-07T09:22:08.015Z</time>
      </trkpt>
      <trkpt lat="46.91297" lon="8.66499">
        <ele>1616</ele>
        <time>2021-08-07T09:22:09.015Z</time>
      </trkpt>
      <trkpt lat="46.91296" lon="8.665">
        <ele>1616</ele>
        <time>2021-08-07T09:22:10.015Z</time>
      </trkpt>
      <trkpt lat="46.91296" lon="8.66501">
        <ele>1616</ele>
        <time>2021-08-07T09:22:11.015Z</time>
      </trkpt>
      <trkpt lat="46.91296" lon="8.66502">
        <ele>1617</ele>
        <time>2021-08-07T09:22:15.172Z</time>
      </trkpt>
      <trkpt lat="46.91296" lon="8.66503">
        <ele>1617</ele>
        <time>2021-08-07T09:22:16.173Z</time>
      </trkpt>
      <trkpt lat="46.91296" lon="8.66503">
        <ele>1617</ele>
        <time>2021-08-07T09:22:17.172Z</time>
      </trkpt>
      <trkpt lat="46.91295" lon="8.66504">
        <ele>1617</ele>
        <time>2021-08-07T09:22:18.172Z</time>
      </trkpt>
      <trkpt lat="46.91295" lon="8.66505">
        <ele>1616</ele>
        <time>2021-08-07T09:22:19.173Z</time>
      </trkpt>
      <trkpt lat="46.91295" lon="8.66506">
        <ele>1616</ele>
        <time>2021-08-07T09:22:20.173Z</time>
      </trkpt>
      <trkpt lat="46.91295" lon="8.66507">
        <ele>1616</ele>
        <time>2021-08-07T09:22:21.173Z</time>
      </trkpt>
      <trkpt lat="46.91295" lon="8.66508">
        <ele>1616</ele>
        <time>2021-08-07T09:22:22.173Z</time>
      </trkpt>
      <trkpt lat="46.91295" lon="8.66509">
        <ele>1616</ele>
        <time>2021-08-07T09:22:23.173Z</time>
      </trkpt>
      <trkpt lat="46.91295" lon="8.66509">
        <ele>1617</ele>
        <time>2021-08-07T09:22:25.178Z</time>
      </trkpt>
      <trkpt lat="46.91294" lon="8.6651">
        <ele>1617</ele>
        <time>2021-08-07T09:22:26.178Z</time>
      </trkpt>
      <trkpt lat="46.91294" lon="8.66511">
        <ele>1617</ele>
        <time>2021-08-07T09:22:27.178Z</time>
      </trkpt>
      <trkpt lat="46.91294" lon="8.66513">
        <ele>1617</ele>
        <time>2021-08-07T09:22:28.178Z</time>
      </trkpt>
      <trkpt lat="46.91294" lon="8.66514">
        <ele>1618</ele>
        <time>2021-08-07T09:22:29.179Z</time>
      </trkpt>
      <trkpt lat="46.91294" lon="8.66515">
        <ele>1618</ele>
        <time>2021-08-07T09:22:30.178Z</time>
      </trkpt>
      <trkpt lat="46.91294" lon="8.66515">
        <ele>1618</ele>
        <time>2021-08-07T09:22:31.178Z</time>
      </trkpt>
      <trkpt lat="46.91295" lon="8.66516">
        <ele>1619</ele>
        <time>2021-08-07T09:22:32.179Z</time>
      </trkpt>
      <trkpt lat="46.91295" lon="8.66516">
        <ele>1619</ele>
        <time>2021-08-07T09:22:33.178Z</time>
      </trkpt>
      <trkpt lat="46.91295" lon="8.66517">
        <ele>1619</ele>
        <time>2021-08-07T09:22:34.179Z</time>
      </trkpt>
      <trkpt lat="46.91295" lon="8.66517">
        <ele>1619</ele>
        <time>2021-08-07T09:22:35.178Z</time>
      </trkpt>
      <trkpt lat="46.91292" lon="8.66517">
        <ele>1618</ele>
        <time>2021-08-07T09:22:36.179Z</time>
      </trkpt>
      <trkpt lat="46.91293" lon="8.66517">
        <ele>1618</ele>
        <time>2021-08-07T09:22:37.179Z</time>
      </trkpt>
      <trkpt lat="46.91295" lon="8.66516">
        <ele>1618</ele>
        <time>2021-08-07T09:22:38.179Z</time>
      </trkpt>
      <trkpt lat="46.91295" lon="8.66516">
        <ele>1617</ele>
        <time>2021-08-07T09:22:39.179Z</time>
      </trkpt>
      <trkpt lat="46.91295" lon="8.66516">
        <ele>1617</ele>
        <time>2021-08-07T09:22:40.178Z</time>
      </trkpt>
      <trkpt lat="46.91296" lon="8.66516">
        <ele>1617</ele>
        <time>2021-08-07T09:22:41.178Z</time>
      </trkpt>
      <trkpt lat="46.91293" lon="8.66519">
        <ele>1611</ele>
        <time>2021-08-07T09:22:42.179Z</time>
      </trkpt>
      <trkpt lat="46.91292" lon="8.66519">
        <ele>1611</ele>
        <time>2021-08-07T09:22:43.178Z</time>
      </trkpt>
      <trkpt lat="46.91292" lon="8.66519">
        <ele>1611</ele>
        <time>2021-08-07T09:22:44.178Z</time>
      </trkpt>
      <trkpt lat="46.91294" lon="8.66516">
        <ele>1621</ele>
        <time>2021-08-07T09:22:45.178Z</time>
      </trkpt>
      <trkpt lat="46.91294" lon="8.66516">
        <ele>1621</ele>
        <time>2021-08-07T09:22:46.178Z</time>
      </trkpt>
      <trkpt lat="46.91294" lon="8.66516">
        <ele>1621</ele>
        <time>2021-08-07T09:22:47.180Z</time>
      </trkpt>
      <trkpt lat="46.91295" lon="8.66516">
        <ele>1622</ele>
        <time>2021-08-07T09:22:48.180Z</time>
      </trkpt>
      <trkpt lat="46.91295" lon="8.66516">
        <ele>1622</ele>
        <time>2021-08-07T09:22:49.179Z</time>
      </trkpt>
      <trkpt lat="46.91295" lon="8.66517">
        <ele>1623</ele>
        <time>2021-08-07T09:22:50.180Z</time>
      </trkpt>
      <trkpt lat="46.91294" lon="8.66517">
        <ele>1623</ele>
        <time>2021-08-07T09:22:51.180Z</time>
      </trkpt>
      <trkpt lat="46.91295" lon="8.66515">
        <ele>1621</ele>
        <time>2021-08-07T09:22:52.179Z</time>
      </trkpt>
      <trkpt lat="46.91296" lon="8.66515">
        <ele>1621</ele>
        <time>2021-08-07T09:22:53.179Z</time>
      </trkpt>
      <trkpt lat="46.91296" lon="8.66515">
        <ele>1621</ele>
        <time>2021-08-07T09:22:54.179Z</time>
      </trkpt>
      <trkpt lat="46.91296" lon="8.66515">
        <ele>1620</ele>
        <time>2021-08-07T09:22:55.179Z</time>
      </trkpt>
      <trkpt lat="46.91294" lon="8.66514">
        <ele>1618</ele>
        <time>2021-08-07T09:22:56.180Z</time>
      </trkpt>
      <trkpt lat="46.91294" lon="8.66514">
        <ele>1618</ele>
        <time>2021-08-07T09:22:57.181Z</time>
      </trkpt>
      <trkpt lat="46.91294" lon="8.66514">
        <ele>1618</ele>
        <time>2021-08-07T09:22:58.180Z</time>
      </trkpt>
      <trkpt lat="46.91295" lon="8.66514">
        <ele>1618</ele>
        <time>2021-08-07T09:22:59.180Z</time>
      </trkpt>
      <trkpt lat="46.91295" lon="8.66515">
        <ele>1618</ele>
        <time>2021-08-07T09:23:00.180Z</time>
      </trkpt>
      <trkpt lat="46.91295" lon="8.66515">
        <ele>1618</ele>
        <time>2021-08-07T09:23:01.180Z</time>
      </trkpt>
      <trkpt lat="46.91293" lon="8.66514">
        <ele>1621</ele>
        <time>2021-08-07T09:23:02.182Z</time>
      </trkpt>
      <trkpt lat="46.91293" lon="8.66514">
        <ele>1621</ele>
        <time>2021-08-07T09:23:03.181Z</time>
      </trkpt>
      <trkpt lat="46.91293" lon="8.66514">
        <ele>1622</ele>
        <time>2021-08-07T09:23:04.181Z</time>
      </trkpt>
      <trkpt lat="46.91293" lon="8.66514">
        <ele>1622</ele>
        <time>2021-08-07T09:23:05.181Z</time>
      </trkpt>
      <trkpt lat="46.91294" lon="8.66514">
        <ele>1622</ele>
        <time>2021-08-07T09:23:06.181Z</time>
      </trkpt>
      <trkpt lat="46.91295" lon="8.66515">
        <ele>1622</ele>
        <time>2021-08-07T09:23:09.280Z</time>
      </trkpt>
      <trkpt lat="46.91295" lon="8.66516">
        <ele>1621</ele>
        <time>2021-08-07T09:23:10.280Z</time>
      </trkpt>
      <trkpt lat="46.913" lon="8.66515">
        <ele>1613</ele>
        <time>2021-08-07T09:23:11.280Z</time>
      </trkpt>
      <trkpt lat="46.913" lon="8.66515">
        <ele>1613</ele>
        <time>2021-08-07T09:23:12.281Z</time>
      </trkpt>
      <trkpt lat="46.91299" lon="8.66515">
        <ele>1613</ele>
        <time>2021-08-07T09:23:13.280Z</time>
      </trkpt>
      <trkpt lat="46.91301" lon="8.66515">
        <ele>1615</ele>
        <time>2021-08-07T09:23:14.281Z</time>
      </trkpt>
      <trkpt lat="46.913" lon="8.66515">
        <ele>1615</ele>
        <time>2021-08-07T09:23:15.281Z</time>
      </trkpt>
      <trkpt lat="46.913" lon="8.66515">
        <ele>1616</ele>
        <time>2021-08-07T09:23:16.281Z</time>
      </trkpt>
      <trkpt lat="46.91299" lon="8.66515">
        <ele>1616</ele>
        <time>2021-08-07T09:23:17.281Z</time>
      </trkpt>
      <trkpt lat="46.913" lon="8.66515">
        <ele>1616</ele>
        <time>2021-08-07T09:23:18.281Z</time>
      </trkpt>
      <trkpt lat="46.913" lon="8.66515">
        <ele>1616</ele>
        <time>2021-08-07T09:23:19.280Z</time>
      </trkpt>
      <trkpt lat="46.913" lon="8.66515">
        <ele>1617</ele>
        <time>2021-08-07T09:23:20.281Z</time>
      </trkpt>
      <trkpt lat="46.913" lon="8.66515">
        <ele>1618</ele>
        <time>2021-08-07T09:23:21.281Z</time>
      </trkpt>
      <trkpt lat="46.913" lon="8.66515">
        <ele>1619</ele>
        <time>2021-08-07T09:23:22.281Z</time>
      </trkpt>
      <trkpt lat="46.91298" lon="8.66513">
        <ele>1622</ele>
        <time>2021-08-07T09:23:23.281Z</time>
      </trkpt>
      <trkpt lat="46.91299" lon="8.66512">
        <ele>1622</ele>
        <time>2021-08-07T09:23:24.280Z</time>
      </trkpt>
      <trkpt lat="46.91299" lon="8.66512">
        <ele>1622</ele>
        <time>2021-08-07T09:23:25.280Z</time>
      </trkpt>
      <trkpt lat="46.913" lon="8.66513">
        <ele>1622</ele>
        <time>2021-08-07T09:23:26.281Z</time>
      </trkpt>
      <trkpt lat="46.913" lon="8.66514">
        <ele>1623</ele>
        <time>2021-08-07T09:23:27.280Z</time>
      </trkpt>
      <trkpt lat="46.913" lon="8.66514">
        <ele>1623</ele>
        <time>2021-08-07T09:23:28.281Z</time>
      </trkpt>
      <trkpt lat="46.91299" lon="8.66515">
        <ele>1621</ele>
        <time>2021-08-07T09:23:29.280Z</time>
      </trkpt>
      <trkpt lat="46.91299" lon="8.66515">
        <ele>1621</ele>
        <time>2021-08-07T09:23:30.280Z</time>
      </trkpt>
      <trkpt lat="46.91296" lon="8.66517">
        <ele>1618</ele>
        <time>2021-08-07T09:23:31.280Z</time>
      </trkpt>
      <trkpt lat="46.91297" lon="8.66517">
        <ele>1617</ele>
        <time>2021-08-07T09:23:32.280Z</time>
      </trkpt>
      <trkpt lat="46.91296" lon="8.66517">
        <ele>1617</ele>
        <time>2021-08-07T09:23:33.280Z</time>
      </trkpt>
      <trkpt lat="46.91295" lon="8.66516">
        <ele>1617</ele>
        <time>2021-08-07T09:23:34.281Z</time>
      </trkpt>
      <trkpt lat="46.91294" lon="8.66516">
        <ele>1617</ele>
        <time>2021-08-07T09:23:35.280Z</time>
      </trkpt>
      <trkpt lat="46.91294" lon="8.66515">
        <ele>1618</ele>
        <time>2021-08-07T09:23:36.281Z</time>
      </trkpt>
      <trkpt lat="46.91294" lon="8.66515">
        <ele>1618</ele>
        <time>2021-08-07T09:23:37.281Z</time>
      </trkpt>
      <trkpt lat="46.91294" lon="8.66517">
        <ele>1616</ele>
        <time>2021-08-07T09:23:38.283Z</time>
      </trkpt>
      <trkpt lat="46.91295" lon="8.66517">
        <ele>1616</ele>
        <time>2021-08-07T09:23:39.283Z</time>
      </trkpt>
      <trkpt lat="46.91295" lon="8.66517">
        <ele>1616</ele>
        <time>2021-08-07T09:23:40.282Z</time>
      </trkpt>
      <trkpt lat="46.91295" lon="8.66517">
        <ele>1617</ele>
        <time>2021-08-07T09:23:41.284Z</time>
      </trkpt>
      <trkpt lat="46.91295" lon="8.66516">
        <ele>1617</ele>
        <time>2021-08-07T09:23:42.284Z</time>
      </trkpt>
      <trkpt lat="46.91295" lon="8.66516">
        <ele>1616</ele>
        <time>2021-08-07T09:23:43.283Z</time>
      </trkpt>
      <trkpt lat="46.91297" lon="8.66517">
        <ele>1614</ele>
        <time>2021-08-07T09:23:44.285Z</time>
      </trkpt>
      <trkpt lat="46.91297" lon="8.66517">
        <ele>1614</ele>
        <time>2021-08-07T09:23:45.285Z</time>
      </trkpt>
      <trkpt lat="46.91297" lon="8.66517">
        <ele>1614</ele>
        <time>2021-08-07T09:23:46.284Z</time>
      </trkpt>
      <trkpt lat="46.91297" lon="8.66516">
        <ele>1614</ele>
        <time>2021-08-07T09:23:47.284Z</time>
      </trkpt>
      <trkpt lat="46.91296" lon="8.66516">
        <ele>1616</ele>
        <time>2021-08-07T09:23:48.287Z</time>
      </trkpt>
      <trkpt lat="46.91296" lon="8.66516">
        <ele>1616</ele>
        <time>2021-08-07T09:23:49.287Z</time>
      </trkpt>
      <trkpt lat="46.91297" lon="8.66517">
        <ele>1616</ele>
        <time>2021-08-07T09:23:50.287Z</time>
      </trkpt>
      <trkpt lat="46.91295" lon="8.66518">
        <ele>1618</ele>
        <time>2021-08-07T09:23:51.288Z</time>
      </trkpt>
      <trkpt lat="46.91297" lon="8.66518">
        <ele>1618</ele>
        <time>2021-08-07T09:23:52.287Z</time>
      </trkpt>
      <trkpt lat="46.91298" lon="8.66518">
        <ele>1618</ele>
        <time>2021-08-07T09:23:53.287Z</time>
      </trkpt>
      <trkpt lat="46.91298" lon="8.66519">
        <ele>1619</ele>
        <time>2021-08-07T09:23:58.420Z</time>
      </trkpt>
      <trkpt lat="46.91299" lon="8.66519">
        <ele>1619</ele>
        <time>2021-08-07T09:23:59.421Z</time>
      </trkpt>
      <trkpt lat="46.913" lon="8.66519">
        <ele>1619</ele>
        <time>2021-08-07T09:24:00.421Z</time>
      </trkpt>
      <trkpt lat="46.913" lon="8.66519">
        <ele>1619</ele>
        <time>2021-08-07T09:24:01.421Z</time>
      </trkpt>
      <trkpt lat="46.91299" lon="8.66519">
        <ele>1620</ele>
        <time>2021-08-07T09:24:02.420Z</time>
      </trkpt>
      <trkpt lat="46.91299" lon="8.66519">
        <ele>1620</ele>
        <time>2021-08-07T09:24:03.421Z</time>
      </trkpt>
      <trkpt lat="46.91299" lon="8.6652">
        <ele>1620</ele>
        <time>2021-08-07T09:24:12.562Z</time>
      </trkpt>
      <trkpt lat="46.91299" lon="8.6652">
        <ele>1620</ele>
        <time>2021-08-07T09:24:13.563Z</time>
      </trkpt>
      <trkpt lat="46.91298" lon="8.6652">
        <ele>1620</ele>
        <time>2021-08-07T09:24:14.562Z</time>
      </trkpt>
      <trkpt lat="46.91298" lon="8.6652">
        <ele>1622</ele>
        <time>2021-08-07T09:24:15.562Z</time>
      </trkpt>
      <trkpt lat="46.91296" lon="8.66516">
        <ele>1618</ele>
        <time>2021-08-07T09:24:21.652Z</time>
      </trkpt>
      <trkpt lat="46.91296" lon="8.66516">
        <ele>1618</ele>
        <time>2021-08-07T09:24:22.652Z</time>
      </trkpt>
      <trkpt lat="46.91296" lon="8.66516">
        <ele>1618</ele>
        <time>2021-08-07T09:24:23.652Z</time>
      </trkpt>
      <trkpt lat="46.91296" lon="8.66515">
        <ele>1622</ele>
        <time>2021-08-07T09:24:38.671Z</time>
      </trkpt>
      <trkpt lat="46.91296" lon="8.66515">
        <ele>1622</ele>
        <time>2021-08-07T09:24:39.670Z</time>
      </trkpt>
      <trkpt lat="46.91296" lon="8.66515">
        <ele>1622</ele>
        <time>2021-08-07T09:24:40.670Z</time>
      </trkpt>
      <trkpt lat="46.91296" lon="8.66515">
        <ele>1621</ele>
        <time>2021-08-07T09:24:41.671Z</time>
      </trkpt>
      <trkpt lat="46.91296" lon="8.66515">
        <ele>1621</ele>
        <time>2021-08-07T09:24:42.671Z</time>
      </trkpt>
      <trkpt lat="46.91296" lon="8.66516">
        <ele>1619</ele>
        <time>2021-08-07T09:24:43.672Z</time>
      </trkpt>
      <trkpt lat="46.91296" lon="8.66515">
        <ele>1619</ele>
        <time>2021-08-07T09:24:44.671Z</time>
      </trkpt>
      <trkpt lat="46.91296" lon="8.66515">
        <ele>1622</ele>
        <time>2021-08-07T09:24:45.673Z</time>
      </trkpt>
      <trkpt lat="46.91296" lon="8.66515">
        <ele>1622</ele>
        <time>2021-08-07T09:24:46.672Z</time>
      </trkpt>
      <trkpt lat="46.91296" lon="8.66515">
        <ele>1622</ele>
        <time>2021-08-07T09:24:48.814Z</time>
      </trkpt>
      <trkpt lat="46.91295" lon="8.66514">
        <ele>1619</ele>
        <time>2021-08-07T09:24:49.815Z</time>
      </trkpt>
      <trkpt lat="46.91295" lon="8.66514">
        <ele>1619</ele>
        <time>2021-08-07T09:24:50.814Z</time>
      </trkpt>
      <trkpt lat="46.91296" lon="8.66514">
        <ele>1619</ele>
        <time>2021-08-07T09:24:51.814Z</time>
      </trkpt>
      <trkpt lat="46.91295" lon="8.66514">
        <ele>1618</ele>
        <time>2021-08-07T09:24:52.814Z</time>
      </trkpt>
      <trkpt lat="46.91295" lon="8.66514">
        <ele>1618</ele>
        <time>2021-08-07T09:24:53.814Z</time>
      </trkpt>
      <trkpt lat="46.91295" lon="8.66513">
        <ele>1621</ele>
        <time>2021-08-07T09:24:54.815Z</time>
      </trkpt>
      <trkpt lat="46.91295" lon="8.66513">
        <ele>1621</ele>
        <time>2021-08-07T09:24:55.815Z</time>
      </trkpt>
      <trkpt lat="46.91294" lon="8.66512">
        <ele>1621</ele>
        <time>2021-08-07T09:24:56.814Z</time>
      </trkpt>
      <trkpt lat="46.91293" lon="8.66512">
        <ele>1623</ele>
        <time>2021-08-07T09:24:57.817Z</time>
      </trkpt>
      <trkpt lat="46.91293" lon="8.66512">
        <ele>1623</ele>
        <time>2021-08-07T09:24:58.816Z</time>
      </trkpt>
      <trkpt lat="46.91295" lon="8.66512">
        <ele>1623</ele>
        <time>2021-08-07T09:24:59.817Z</time>
      </trkpt>
      <trkpt lat="46.91296" lon="8.66512">
        <ele>1623</ele>
        <time>2021-08-07T09:25:00.816Z</time>
      </trkpt>
      <trkpt lat="46.91295" lon="8.66511">
        <ele>1624</ele>
        <time>2021-08-07T09:25:01.817Z</time>
      </trkpt>
      <trkpt lat="46.91295" lon="8.66511">
        <ele>1624</ele>
        <time>2021-08-07T09:25:02.817Z</time>
      </trkpt>
      <trkpt lat="46.91295" lon="8.66511">
        <ele>1624</ele>
        <time>2021-08-07T09:25:03.817Z</time>
      </trkpt>
      <trkpt lat="46.91294" lon="8.66513">
        <ele>1622</ele>
        <time>2021-08-07T09:25:07.915Z</time>
      </trkpt>
      <trkpt lat="46.91294" lon="8.66514">
        <ele>1622</ele>
        <time>2021-08-07T09:25:08.914Z</time>
      </trkpt>
      <trkpt lat="46.91295" lon="8.66514">
        <ele>1622</ele>
        <time>2021-08-07T09:25:09.914Z</time>
      </trkpt>
      <trkpt lat="46.91295" lon="8.66514">
        <ele>1623</ele>
        <time>2021-08-07T09:25:10.915Z</time>
      </trkpt>
      <trkpt lat="46.91295" lon="8.66514">
        <ele>1623</ele>
        <time>2021-08-07T09:25:11.914Z</time>
      </trkpt>
      <trkpt lat="46.91295" lon="8.66514">
        <ele>1624</ele>
        <time>2021-08-07T09:25:12.914Z</time>
      </trkpt>
      <trkpt lat="46.91296" lon="8.66514">
        <ele>1625</ele>
        <time>2021-08-07T09:25:13.915Z</time>
      </trkpt>
      <trkpt lat="46.91296" lon="8.66514">
        <ele>1625</ele>
        <time>2021-08-07T09:25:14.914Z</time>
      </trkpt>
      <trkpt lat="46.91296" lon="8.66514">
        <ele>1626</ele>
        <time>2021-08-07T09:25:15.915Z</time>
      </trkpt>
      <trkpt lat="46.91294" lon="8.66517">
        <ele>1618</ele>
        <time>2021-08-07T09:25:16.915Z</time>
      </trkpt>
      <trkpt lat="46.91294" lon="8.66516">
        <ele>1618</ele>
        <time>2021-08-07T09:25:17.915Z</time>
      </trkpt>
      <trkpt lat="46.91294" lon="8.66516">
        <ele>1618</ele>
        <time>2021-08-07T09:25:18.915Z</time>
      </trkpt>
      <trkpt lat="46.91294" lon="8.66516">
        <ele>1621</ele>
        <time>2021-08-07T09:25:19.916Z</time>
      </trkpt>
      <trkpt lat="46.91294" lon="8.66516">
        <ele>1621</ele>
        <time>2021-08-07T09:25:20.916Z</time>
      </trkpt>
      <trkpt lat="46.91294" lon="8.66516">
        <ele>1621</ele>
        <time>2021-08-07T09:25:21.916Z</time>
      </trkpt>
      <trkpt lat="46.91294" lon="8.66515">
        <ele>1620</ele>
        <time>2021-08-07T09:25:22.916Z</time>
      </trkpt>
      <trkpt lat="46.91293" lon="8.66515">
        <ele>1620</ele>
        <time>2021-08-07T09:25:23.917Z</time>
      </trkpt>
      <trkpt lat="46.91292" lon="8.66515">
        <ele>1620</ele>
        <time>2021-08-07T09:25:24.916Z</time>
      </trkpt>
      <trkpt lat="46.91293" lon="8.66515">
        <ele>1620</ele>
        <time>2021-08-07T09:25:25.916Z</time>
      </trkpt>
      <trkpt lat="46.91293" lon="8.66516">
        <ele>1620</ele>
        <time>2021-08-07T09:25:26.916Z</time>
      </trkpt>
      <trkpt lat="46.91295" lon="8.66515">
        <ele>1623</ele>
        <time>2021-08-07T09:25:27.916Z</time>
      </trkpt>
      <trkpt lat="46.91295" lon="8.66515">
        <ele>1624</ele>
        <time>2021-08-07T09:25:28.916Z</time>
      </trkpt>
      <trkpt lat="46.91295" lon="8.66515">
        <ele>1624</ele>
        <time>2021-08-07T09:25:29.917Z</time>
      </trkpt>
      <trkpt lat="46.91294" lon="8.66516">
        <ele>1618</ele>
        <time>2021-08-07T09:25:30.917Z</time>
      </trkpt>
      <trkpt lat="46.91292" lon="8.66517">
        <ele>1617</ele>
        <time>2021-08-07T09:25:31.918Z</time>
      </trkpt>
      <trkpt lat="46.91292" lon="8.66517">
        <ele>1617</ele>
        <time>2021-08-07T09:25:32.917Z</time>
      </trkpt>
      <trkpt lat="46.91291" lon="8.66516">
        <ele>1617</ele>
        <time>2021-08-07T09:25:33.917Z</time>
      </trkpt>
      <trkpt lat="46.9129" lon="8.66516">
        <ele>1618</ele>
        <time>2021-08-07T09:25:34.918Z</time>
      </trkpt>
      <trkpt lat="46.9129" lon="8.66515">
        <ele>1618</ele>
        <time>2021-08-07T09:25:35.918Z</time>
      </trkpt>
      <trkpt lat="46.91289" lon="8.66515">
        <ele>1619</ele>
        <time>2021-08-07T09:25:36.918Z</time>
      </trkpt>
      <trkpt lat="46.91289" lon="8.66514">
        <ele>1620</ele>
        <time>2021-08-07T09:25:37.918Z</time>
      </trkpt>
      <trkpt lat="46.91289" lon="8.66514">
        <ele>1620</ele>
        <time>2021-08-07T09:25:38.917Z</time>
      </trkpt>
      <trkpt lat="46.9129" lon="8.66514">
        <ele>1621</ele>
        <time>2021-08-07T09:25:39.917Z</time>
      </trkpt>
      <trkpt lat="46.9129" lon="8.66514">
        <ele>1621</ele>
        <time>2021-08-07T09:25:49.041Z</time>
      </trkpt>
      <trkpt lat="46.91291" lon="8.66514">
        <ele>1621</ele>
        <time>2021-08-07T09:25:50.040Z</time>
      </trkpt>
      <trkpt lat="46.91291" lon="8.66513">
        <ele>1621</ele>
        <time>2021-08-07T09:25:51.041Z</time>
      </trkpt>
      <trkpt lat="46.91294" lon="8.66515">
        <ele>1620</ele>
        <time>2021-08-07T09:25:52.042Z</time>
      </trkpt>
      <trkpt lat="46.91294" lon="8.66515">
        <ele>1620</ele>
        <time>2021-08-07T09:25:53.042Z</time>
      </trkpt>
      <trkpt lat="46.91294" lon="8.66516">
        <ele>1618</ele>
        <time>2021-08-07T09:25:54.042Z</time>
      </trkpt>
      <trkpt lat="46.91295" lon="8.66515">
        <ele>1616</ele>
        <time>2021-08-07T09:25:56.171Z</time>
      </trkpt>
      <trkpt lat="46.91294" lon="8.66515">
        <ele>1620</ele>
        <time>2021-08-07T09:25:57.170Z</time>
      </trkpt>
      <trkpt lat="46.91298" lon="8.66516">
        <ele>1619</ele>
        <time>2021-08-07T09:25:58.171Z</time>
      </trkpt>
      <trkpt lat="46.91298" lon="8.66516">
        <ele>1619</ele>
        <time>2021-08-07T09:25:59.171Z</time>
      </trkpt>
      <trkpt lat="46.91298" lon="8.66516">
        <ele>1619</ele>
        <time>2021-08-07T09:26:07.289Z</time>
      </trkpt>
      <trkpt lat="46.91292" lon="8.66517">
        <ele>1618</ele>
        <time>2021-08-07T09:26:08.289Z</time>
      </trkpt>
      <trkpt lat="46.91292" lon="8.66517">
        <ele>1619</ele>
        <time>2021-08-07T09:26:09.290Z</time>
      </trkpt>
      <trkpt lat="46.91291" lon="8.66517">
        <ele>1619</ele>
        <time>2021-08-07T09:26:11.402Z</time>
      </trkpt>
      <trkpt lat="46.91291" lon="8.66517">
        <ele>1619</ele>
        <time>2021-08-07T09:26:12.402Z</time>
      </trkpt>
      <trkpt lat="46.91291" lon="8.66517">
        <ele>1619</ele>
        <time>2021-08-07T09:26:13.403Z</time>
      </trkpt>
      <trkpt lat="46.91292" lon="8.66517">
        <ele>1619</ele>
        <time>2021-08-07T09:26:14.403Z</time>
      </trkpt>
      <trkpt lat="46.91291" lon="8.66517">
        <ele>1620</ele>
        <time>2021-08-07T09:26:15.403Z</time>
      </trkpt>
      <trkpt lat="46.91291" lon="8.66517">
        <ele>1620</ele>
        <time>2021-08-07T09:26:16.402Z</time>
      </trkpt>
      <trkpt lat="46.91295" lon="8.66521">
        <ele>1615</ele>
        <time>2021-08-07T09:26:17.403Z</time>
      </trkpt>
      <trkpt lat="46.91295" lon="8.66521">
        <ele>1614</ele>
        <time>2021-08-07T09:26:18.403Z</time>
      </trkpt>
      <trkpt lat="46.91296" lon="8.66519">
        <ele>1612</ele>
        <time>2021-08-07T09:26:19.403Z</time>
      </trkpt>
      <trkpt lat="46.91296" lon="8.66518">
        <ele>1612</ele>
        <time>2021-08-07T09:26:20.403Z</time>
      </trkpt>
      <trkpt lat="46.91296" lon="8.66518">
        <ele>1613</ele>
        <time>2021-08-07T09:26:21.279Z</time>
      </trkpt>
      <trkpt lat="46.91293" lon="8.66518">
        <ele>1618</ele>
        <time>2021-08-07T09:26:22.280Z</time>
      </trkpt>
      <trkpt lat="46.91292" lon="8.66518">
        <ele>1618</ele>
        <time>2021-08-07T09:26:23.279Z</time>
      </trkpt>
      <trkpt lat="46.91292" lon="8.66518">
        <ele>1618</ele>
        <time>2021-08-07T09:26:24.279Z</time>
      </trkpt>
      <trkpt lat="46.91294" lon="8.66519">
        <ele>1617</ele>
        <time>2021-08-07T09:26:25.280Z</time>
      </trkpt>
      <trkpt lat="46.91295" lon="8.66519">
        <ele>1620</ele>
        <time>2021-08-07T09:26:26.279Z</time>
      </trkpt>
      <trkpt lat="46.91298" lon="8.66518">
        <ele>1619</ele>
        <time>2021-08-07T09:26:27.281Z</time>
      </trkpt>
      <trkpt lat="46.91297" lon="8.66519">
        <ele>1618</ele>
        <time>2021-08-07T09:26:28.282Z</time>
      </trkpt>
      <trkpt lat="46.91297" lon="8.6652">
        <ele>1618</ele>
        <time>2021-08-07T09:26:29.282Z</time>
      </trkpt>
      <trkpt lat="46.91297" lon="8.6652">
        <ele>1618</ele>
        <time>2021-08-07T09:26:30.282Z</time>
      </trkpt>
      <trkpt lat="46.91297" lon="8.6652">
        <ele>1618</ele>
        <time>2021-08-07T09:26:31.282Z</time>
      </trkpt>
      <trkpt lat="46.91296" lon="8.66519">
        <ele>1618</ele>
        <time>2021-08-07T09:26:32.282Z</time>
      </trkpt>
      <trkpt lat="46.91296" lon="8.66518">
        <ele>1621</ele>
        <time>2021-08-07T09:26:33.283Z</time>
      </trkpt>
      <trkpt lat="46.91296" lon="8.66518">
        <ele>1621</ele>
        <time>2021-08-07T09:26:34.283Z</time>
      </trkpt>
      <trkpt lat="46.91294" lon="8.66516">
        <ele>1624</ele>
        <time>2021-08-07T09:26:35.282Z</time>
      </trkpt>
      <trkpt lat="46.91294" lon="8.66515">
        <ele>1624</ele>
        <time>2021-08-07T09:26:36.282Z</time>
      </trkpt>
      <trkpt lat="46.91294" lon="8.66515">
        <ele>1625</ele>
        <time>2021-08-07T09:26:37.283Z</time>
      </trkpt>
      <trkpt lat="46.91293" lon="8.66515">
        <ele>1625</ele>
        <time>2021-08-07T09:26:38.284Z</time>
      </trkpt>
      <trkpt lat="46.91293" lon="8.66515">
        <ele>1625</ele>
        <time>2021-08-07T09:26:39.284Z</time>
      </trkpt>
      <trkpt lat="46.91293" lon="8.66515">
        <ele>1625</ele>
        <time>2021-08-07T09:26:40.283Z</time>
      </trkpt>
      <trkpt lat="46.91294" lon="8.66516">
        <ele>1625</ele>
        <time>2021-08-07T09:26:41.283Z</time>
      </trkpt>
      <trkpt lat="46.91294" lon="8.66514">
        <ele>1621</ele>
        <time>2021-08-07T09:26:42.285Z</time>
      </trkpt>
      <trkpt lat="46.91294" lon="8.66514">
        <ele>1621</ele>
        <time>2021-08-07T09:26:44.429Z</time>
      </trkpt>
      <trkpt lat="46.91294" lon="8.66514">
        <ele>1622</ele>
        <time>2021-08-07T09:26:45.428Z</time>
      </trkpt>
      <trkpt lat="46.91293" lon="8.66515">
        <ele>1622</ele>
        <time>2021-08-07T09:26:46.429Z</time>
      </trkpt>
      <trkpt lat="46.91293" lon="8.66514">
        <ele>1623</ele>
        <time>2021-08-07T09:26:47.428Z</time>
      </trkpt>
      <trkpt lat="46.91293" lon="8.66515">
        <ele>1623</ele>
        <time>2021-08-07T09:26:48.428Z</time>
      </trkpt>
      <trkpt lat="46.91293" lon="8.66515">
        <ele>1624</ele>
        <time>2021-08-07T09:26:49.429Z</time>
      </trkpt>
      <trkpt lat="46.91292" lon="8.66515">
        <ele>1624</ele>
        <time>2021-08-07T09:26:50.429Z</time>
      </trkpt>
      <trkpt lat="46.91293" lon="8.66515">
        <ele>1625</ele>
        <time>2021-08-07T09:26:51.430Z</time>
      </trkpt>
      <trkpt lat="46.91294" lon="8.66516">
        <ele>1624</ele>
        <time>2021-08-07T09:26:52.429Z</time>
      </trkpt>
      <trkpt lat="46.91295" lon="8.66516">
        <ele>1624</ele>
        <time>2021-08-07T09:26:53.430Z</time>
      </trkpt>
      <trkpt lat="46.91295" lon="8.66517">
        <ele>1623</ele>
        <time>2021-08-07T09:26:54.429Z</time>
      </trkpt>
      <trkpt lat="46.91295" lon="8.66517">
        <ele>1623</ele>
        <time>2021-08-07T09:26:55.430Z</time>
      </trkpt>
      <trkpt lat="46.91295" lon="8.66517">
        <ele>1623</ele>
        <time>2021-08-07T09:26:56.430Z</time>
      </trkpt>
      <trkpt lat="46.91295" lon="8.66518">
        <ele>1619</ele>
        <time>2021-08-07T09:26:57.429Z</time>
      </trkpt>
      <trkpt lat="46.91296" lon="8.66518">
        <ele>1619</ele>
        <time>2021-08-07T09:26:58.430Z</time>
      </trkpt>
      <trkpt lat="46.91296" lon="8.66518">
        <ele>1619</ele>
        <time>2021-08-07T09:26:59.429Z</time>
      </trkpt>
      <trkpt lat="46.91296" lon="8.66518">
        <ele>1619</ele>
        <time>2021-08-07T09:27:00.429Z</time>
      </trkpt>
      <trkpt lat="46.91295" lon="8.66516">
        <ele>1616</ele>
        <time>2021-08-07T09:27:01.431Z</time>
      </trkpt>
      <trkpt lat="46.91295" lon="8.66516">
        <ele>1616</ele>
        <time>2021-08-07T09:27:02.431Z</time>
      </trkpt>
      <trkpt lat="46.91295" lon="8.66517">
        <ele>1615</ele>
        <time>2021-08-07T09:27:03.430Z</time>
      </trkpt>
      <trkpt lat="46.91297" lon="8.66516">
        <ele>1620</ele>
        <time>2021-08-07T09:27:04.433Z</time>
      </trkpt>
      <trkpt lat="46.91297" lon="8.66517">
        <ele>1620</ele>
        <time>2021-08-07T09:27:05.434Z</time>
      </trkpt>
      <trkpt lat="46.91296" lon="8.66517">
        <ele>1620</ele>
        <time>2021-08-07T09:27:06.434Z</time>
      </trkpt>
      <trkpt lat="46.91296" lon="8.66517">
        <ele>1620</ele>
        <time>2021-08-07T09:27:07.434Z</time>
      </trkpt>
      <trkpt lat="46.91296" lon="8.66517">
        <ele>1620</ele>
        <time>2021-08-07T09:27:08.433Z</time>
      </trkpt>
      <trkpt lat="46.91296" lon="8.66517">
        <ele>1620</ele>
        <time>2021-08-07T09:27:09.433Z</time>
      </trkpt>
      <trkpt lat="46.91295" lon="8.66516">
        <ele>1620</ele>
        <time>2021-08-07T09:27:10.433Z</time>
      </trkpt>
      <trkpt lat="46.91295" lon="8.66515">
        <ele>1620</ele>
        <time>2021-08-07T09:27:11.433Z</time>
      </trkpt>
      <trkpt lat="46.91295" lon="8.66515">
        <ele>1621</ele>
        <time>2021-08-07T09:27:12.433Z</time>
      </trkpt>
      <trkpt lat="46.91295" lon="8.66515">
        <ele>1621</ele>
        <time>2021-08-07T09:27:13.433Z</time>
      </trkpt>
      <trkpt lat="46.91296" lon="8.66515">
        <ele>1620</ele>
        <time>2021-08-07T09:27:14.434Z</time>
      </trkpt>
      <trkpt lat="46.91296" lon="8.66515">
        <ele>1620</ele>
        <time>2021-08-07T09:27:15.434Z</time>
      </trkpt>
      <trkpt lat="46.91296" lon="8.66515">
        <ele>1620</ele>
        <time>2021-08-07T09:27:16.435Z</time>
      </trkpt>
      <trkpt lat="46.91295" lon="8.66516">
        <ele>1622</ele>
        <time>2021-08-07T09:27:17.436Z</time>
      </trkpt>
      <trkpt lat="46.91295" lon="8.66516">
        <ele>1622</ele>
        <time>2021-08-07T09:27:18.435Z</time>
      </trkpt>
      <trkpt lat="46.91296" lon="8.66515">
        <ele>1621</ele>
        <time>2021-08-07T09:27:19.436Z</time>
      </trkpt>
      <trkpt lat="46.91296" lon="8.66515">
        <ele>1621</ele>
        <time>2021-08-07T09:27:20.436Z</time>
      </trkpt>
      <trkpt lat="46.91297" lon="8.66514">
        <ele>1622</ele>
        <time>2021-08-07T09:27:21.435Z</time>
      </trkpt>
      <trkpt lat="46.91297" lon="8.66514">
        <ele>1622</ele>
        <time>2021-08-07T09:27:22.436Z</time>
      </trkpt>
      <trkpt lat="46.91298" lon="8.66515">
        <ele>1622</ele>
        <time>2021-08-07T09:27:23.437Z</time>
      </trkpt>
      <trkpt lat="46.91298" lon="8.66515">
        <ele>1622</ele>
        <time>2021-08-07T09:27:24.437Z</time>
      </trkpt>
      <trkpt lat="46.91298" lon="8.66516">
        <ele>1617</ele>
        <time>2021-08-07T09:27:25.438Z</time>
      </trkpt>
      <trkpt lat="46.91298" lon="8.66517">
        <ele>1617</ele>
        <time>2021-08-07T09:27:26.437Z</time>
      </trkpt>
      <trkpt lat="46.91298" lon="8.66517">
        <ele>1616</ele>
        <time>2021-08-07T09:27:27.437Z</time>
      </trkpt>
      <trkpt lat="46.91298" lon="8.66517">
        <ele>1615</ele>
        <time>2021-08-07T09:27:28.437Z</time>
      </trkpt>
      <trkpt lat="46.91297" lon="8.66517">
        <ele>1615</ele>
        <time>2021-08-07T09:27:29.439Z</time>
      </trkpt>
      <trkpt lat="46.91296" lon="8.66516">
        <ele>1616</ele>
        <time>2021-08-07T09:27:30.439Z</time>
      </trkpt>
      <trkpt lat="46.91296" lon="8.66517">
        <ele>1617</ele>
        <time>2021-08-07T09:27:31.438Z</time>
      </trkpt>
      <trkpt lat="46.91297" lon="8.66518">
        <ele>1617</ele>
        <time>2021-08-07T09:27:32.439Z</time>
      </trkpt>
      <trkpt lat="46.91297" lon="8.66518">
        <ele>1617</ele>
        <time>2021-08-07T09:27:50.562Z</time>
      </trkpt>
      <trkpt lat="46.91298" lon="8.66518">
        <ele>1616</ele>
        <time>2021-08-07T09:27:51.562Z</time>
      </trkpt>
      <trkpt lat="46.91297" lon="8.66517">
        <ele>1618</ele>
        <time>2021-08-07T09:27:52.564Z</time>
      </trkpt>
      <trkpt lat="46.91294" lon="8.66516">
        <ele>1623</ele>
        <time>2021-08-07T09:28:06.710Z</time>
      </trkpt>
      <trkpt lat="46.91294" lon="8.66516">
        <ele>1623</ele>
        <time>2021-08-07T09:28:07.710Z</time>
      </trkpt>
      <trkpt lat="46.91295" lon="8.66516">
        <ele>1623</ele>
        <time>2021-08-07T09:28:08.709Z</time>
      </trkpt>
      <trkpt lat="46.91296" lon="8.66517">
        <ele>1619</ele>
        <time>2021-08-07T09:28:09.712Z</time>
      </trkpt>
      <trkpt lat="46.91296" lon="8.66517">
        <ele>1619</ele>
        <time>2021-08-07T09:28:34.811Z</time>
      </trkpt>
      <trkpt lat="46.91296" lon="8.66516">
        <ele>1618</ele>
        <time>2021-08-07T09:28:35.811Z</time>
      </trkpt>
      <trkpt lat="46.91296" lon="8.66516">
        <ele>1618</ele>
        <time>2021-08-07T09:28:36.811Z</time>
      </trkpt>
      <trkpt lat="46.91296" lon="8.66516">
        <ele>1618</ele>
        <time>2021-08-07T09:28:37.811Z</time>
      </trkpt>
      <trkpt lat="46.91296" lon="8.66515">
        <ele>1618</ele>
        <time>2021-08-07T09:28:38.811Z</time>
      </trkpt>
      <trkpt lat="46.91296" lon="8.66515">
        <ele>1618</ele>
        <time>2021-08-07T09:28:42.937Z</time>
      </trkpt>
      <trkpt lat="46.91297" lon="8.66515">
        <ele>1618</ele>
        <time>2021-08-07T09:28:43.937Z</time>
      </trkpt>
      <trkpt lat="46.91297" lon="8.66515">
        <ele>1618</ele>
        <time>2021-08-07T09:29:06.796Z</time>
      </trkpt>
      <trkpt lat="46.91297" lon="8.66515">
        <ele>1618</ele>
        <time>2021-08-07T09:29:07.796Z</time>
      </trkpt>
      <trkpt lat="46.91297" lon="8.66515">
        <ele>1618</ele>
        <time>2021-08-07T09:29:08.796Z</time>
      </trkpt>
      <trkpt lat="46.91297" lon="8.66515">
        <ele>1618</ele>
        <time>2021-08-07T09:29:09.796Z</time>
      </trkpt>
      <trkpt lat="46.91296" lon="8.66516">
        <ele>1618</ele>
        <time>2021-08-07T09:29:10.796Z</time>
      </trkpt>
      <trkpt lat="46.91296" lon="8.66516">
        <ele>1618</ele>
        <time>2021-08-07T09:29:11.796Z</time>
      </trkpt>
      <trkpt lat="46.91296" lon="8.66516">
        <ele>1618</ele>
        <time>2021-08-07T09:29:15.949Z</time>
      </trkpt>
      <trkpt lat="46.91295" lon="8.66514">
        <ele>1618</ele>
        <time>2021-08-07T09:29:25.794Z</time>
      </trkpt>
      <trkpt lat="46.91295" lon="8.66514">
        <ele>1618</ele>
        <time>2021-08-07T09:29:26.795Z</time>
      </trkpt>
      <trkpt lat="46.91295" lon="8.66515">
        <ele>1618</ele>
        <time>2021-08-07T09:29:27.795Z</time>
      </trkpt>
      <trkpt lat="46.91294" lon="8.66517">
        <ele>1620</ele>
        <time>2021-08-07T09:29:28.795Z</time>
      </trkpt>
      <trkpt lat="46.91294" lon="8.66517">
        <ele>1619</ele>
        <time>2021-08-07T09:29:29.796Z</time>
      </trkpt>
      <trkpt lat="46.91296" lon="8.66519">
        <ele>1616</ele>
        <time>2021-08-07T09:29:30.797Z</time>
      </trkpt>
      <trkpt lat="46.91296" lon="8.66519">
        <ele>1616</ele>
        <time>2021-08-07T09:29:31.797Z</time>
      </trkpt>
      <trkpt lat="46.91296" lon="8.66519">
        <ele>1616</ele>
        <time>2021-08-07T09:29:32.796Z</time>
      </trkpt>
      <trkpt lat="46.91295" lon="8.66519">
        <ele>1616</ele>
        <time>2021-08-07T09:29:33.796Z</time>
      </trkpt>
      <trkpt lat="46.91295" lon="8.66514">
        <ele>1626</ele>
        <time>2021-08-07T09:29:34.796Z</time>
      </trkpt>
      <trkpt lat="46.91293" lon="8.66516">
        <ele>1618</ele>
        <time>2021-08-07T09:29:35.798Z</time>
      </trkpt>
      <trkpt lat="46.91294" lon="8.66516">
        <ele>1618</ele>
        <time>2021-08-07T09:29:36.797Z</time>
      </trkpt>
      <trkpt lat="46.91294" lon="8.66517">
        <ele>1622</ele>
        <time>2021-08-07T09:29:41.811Z</time>
      </trkpt>
      <trkpt lat="46.91294" lon="8.66517">
        <ele>1621</ele>
        <time>2021-08-07T09:29:42.810Z</time>
      </trkpt>
      <trkpt lat="46.91294" lon="8.66517">
        <ele>1621</ele>
        <time>2021-08-07T09:29:43.810Z</time>
      </trkpt>
      <trkpt lat="46.91292" lon="8.66516">
        <ele>1621</ele>
        <time>2021-08-07T09:29:44.812Z</time>
      </trkpt>
      <trkpt lat="46.91292" lon="8.66516">
        <ele>1621</ele>
        <time>2021-08-07T09:29:45.813Z</time>
      </trkpt>
      <trkpt lat="46.91292" lon="8.66517">
        <ele>1621</ele>
        <time>2021-08-07T09:29:46.812Z</time>
      </trkpt>
      <trkpt lat="46.91293" lon="8.66516">
        <ele>1622</ele>
        <time>2021-08-07T09:29:47.814Z</time>
      </trkpt>
      <trkpt lat="46.91293" lon="8.66515">
        <ele>1622</ele>
        <time>2021-08-07T09:29:48.814Z</time>
      </trkpt>
      <trkpt lat="46.91293" lon="8.66515">
        <ele>1622</ele>
        <time>2021-08-07T09:29:49.814Z</time>
      </trkpt>
      <trkpt lat="46.91293" lon="8.66514">
        <ele>1622</ele>
        <time>2021-08-07T09:29:50.815Z</time>
      </trkpt>
      <trkpt lat="46.91293" lon="8.66514">
        <ele>1622</ele>
        <time>2021-08-07T09:29:51.814Z</time>
      </trkpt>
      <trkpt lat="46.91293" lon="8.66513">
        <ele>1622</ele>
        <time>2021-08-07T09:29:52.814Z</time>
      </trkpt>
      <trkpt lat="46.9129" lon="8.66514">
        <ele>1620</ele>
        <time>2021-08-07T09:29:53.814Z</time>
      </trkpt>
      <trkpt lat="46.9129" lon="8.66514">
        <ele>1621</ele>
        <time>2021-08-07T09:29:54.815Z</time>
      </trkpt>
      <trkpt lat="46.91291" lon="8.66514">
        <ele>1621</ele>
        <time>2021-08-07T09:29:55.815Z</time>
      </trkpt>
      <trkpt lat="46.91291" lon="8.66515">
        <ele>1621</ele>
        <time>2021-08-07T09:29:56.814Z</time>
      </trkpt>
      <trkpt lat="46.91291" lon="8.66515">
        <ele>1621</ele>
        <time>2021-08-07T09:29:57.815Z</time>
      </trkpt>
      <trkpt lat="46.91291" lon="8.66515">
        <ele>1621</ele>
        <time>2021-08-07T09:29:58.815Z</time>
      </trkpt>
      <trkpt lat="46.91291" lon="8.66515">
        <ele>1620</ele>
        <time>2021-08-07T09:29:59.815Z</time>
      </trkpt>
      <trkpt lat="46.91291" lon="8.66515">
        <ele>1620</ele>
        <time>2021-08-07T09:30:00.815Z</time>
      </trkpt>
      <trkpt lat="46.91292" lon="8.66515">
        <ele>1620</ele>
        <time>2021-08-07T09:30:01.815Z</time>
      </trkpt>
      <trkpt lat="46.91292" lon="8.66514">
        <ele>1619</ele>
        <time>2021-08-07T09:30:02.815Z</time>
      </trkpt>
      <trkpt lat="46.91292" lon="8.66514">
        <ele>1619</ele>
        <time>2021-08-07T09:30:03.815Z</time>
      </trkpt>
      <trkpt lat="46.91292" lon="8.66514">
        <ele>1620</ele>
        <time>2021-08-07T09:30:04.815Z</time>
      </trkpt>
      <trkpt lat="46.91294" lon="8.66515">
        <ele>1620</ele>
        <time>2021-08-07T09:30:05.815Z</time>
      </trkpt>
      <trkpt lat="46.91295" lon="8.66516">
        <ele>1620</ele>
        <time>2021-08-07T09:30:06.814Z</time>
      </trkpt>
      <trkpt lat="46.91296" lon="8.66515">
        <ele>1620</ele>
        <time>2021-08-07T09:30:07.815Z</time>
      </trkpt>
      <trkpt lat="46.91296" lon="8.66514">
        <ele>1621</ele>
        <time>2021-08-07T09:30:08.815Z</time>
      </trkpt>
      <trkpt lat="46.91297" lon="8.66514">
        <ele>1621</ele>
        <time>2021-08-07T09:30:09.815Z</time>
      </trkpt>
      <trkpt lat="46.91294" lon="8.66516">
        <ele>1619</ele>
        <time>2021-08-07T09:30:10.815Z</time>
      </trkpt>
      <trkpt lat="46.91294" lon="8.66517">
        <ele>1619</ele>
        <time>2021-08-07T09:30:11.815Z</time>
      </trkpt>
      <trkpt lat="46.91294" lon="8.66517">
        <ele>1619</ele>
        <time>2021-08-07T09:30:12.815Z</time>
      </trkpt>
      <trkpt lat="46.91295" lon="8.66517">
        <ele>1620</ele>
        <time>2021-08-07T09:30:13.816Z</time>
      </trkpt>
      <trkpt lat="46.91292" lon="8.66511">
        <ele>1618</ele>
        <time>2021-08-07T09:30:14.817Z</time>
      </trkpt>
      <trkpt lat="46.91291" lon="8.66511">
        <ele>1619</ele>
        <time>2021-08-07T09:30:15.817Z</time>
      </trkpt>
      <trkpt lat="46.91291" lon="8.66511">
        <ele>1619</ele>
        <time>2021-08-07T09:30:16.817Z</time>
      </trkpt>
      <trkpt lat="46.91291" lon="8.66511">
        <ele>1619</ele>
        <time>2021-08-07T09:30:17.817Z</time>
      </trkpt>
      <trkpt lat="46.91291" lon="8.6651">
        <ele>1620</ele>
        <time>2021-08-07T09:30:18.818Z</time>
      </trkpt>
      <trkpt lat="46.91291" lon="8.66509">
        <ele>1620</ele>
        <time>2021-08-07T09:30:19.817Z</time>
      </trkpt>
      <trkpt lat="46.91291" lon="8.66509">
        <ele>1621</ele>
        <time>2021-08-07T09:30:20.817Z</time>
      </trkpt>
      <trkpt lat="46.9129" lon="8.66509">
        <ele>1621</ele>
        <time>2021-08-07T09:30:21.817Z</time>
      </trkpt>
      <trkpt lat="46.9129" lon="8.66509">
        <ele>1621</ele>
        <time>2021-08-07T09:30:22.818Z</time>
      </trkpt>
      <trkpt lat="46.91291" lon="8.66509">
        <ele>1620</ele>
        <time>2021-08-07T09:30:23.818Z</time>
      </trkpt>
      <trkpt lat="46.91294" lon="8.66511">
        <ele>1618</ele>
        <time>2021-08-07T09:30:24.818Z</time>
      </trkpt>
      <trkpt lat="46.91293" lon="8.66511">
        <ele>1619</ele>
        <time>2021-08-07T09:30:25.819Z</time>
      </trkpt>
      <trkpt lat="46.91294" lon="8.66516">
        <ele>1619</ele>
        <time>2021-08-07T09:30:26.818Z</time>
      </trkpt>
      <trkpt lat="46.91294" lon="8.66516">
        <ele>1619</ele>
        <time>2021-08-07T09:30:27.819Z</time>
      </trkpt>
      <trkpt lat="46.91293" lon="8.66516">
        <ele>1621</ele>
        <time>2021-08-07T09:30:28.818Z</time>
      </trkpt>
      <trkpt lat="46.91293" lon="8.66516">
        <ele>1621</ele>
        <time>2021-08-07T09:30:29.818Z</time>
      </trkpt>
      <trkpt lat="46.91295" lon="8.66516">
        <ele>1621</ele>
        <time>2021-08-07T09:30:30.818Z</time>
      </trkpt>
      <trkpt lat="46.913" lon="8.66517">
        <ele>1619</ele>
        <time>2021-08-07T09:30:31.819Z</time>
      </trkpt>
      <trkpt lat="46.91299" lon="8.66516">
        <ele>1616</ele>
        <time>2021-08-07T09:30:32.819Z</time>
      </trkpt>
      <trkpt lat="46.91299" lon="8.66516">
        <ele>1617</ele>
        <time>2021-08-07T09:30:33.819Z</time>
      </trkpt>
      <trkpt lat="46.913" lon="8.66516">
        <ele>1617</ele>
        <time>2021-08-07T09:30:34.818Z</time>
      </trkpt>
      <trkpt lat="46.91296" lon="8.66516">
        <ele>1620</ele>
        <time>2021-08-07T09:30:35.818Z</time>
      </trkpt>
      <trkpt lat="46.91296" lon="8.66516">
        <ele>1620</ele>
        <time>2021-08-07T09:30:36.818Z</time>
      </trkpt>
      <trkpt lat="46.91296" lon="8.66516">
        <ele>1621</ele>
        <time>2021-08-07T09:30:37.819Z</time>
      </trkpt>
      <trkpt lat="46.91296" lon="8.66516">
        <ele>1621</ele>
        <time>2021-08-07T09:30:38.819Z</time>
      </trkpt>
      <trkpt lat="46.91296" lon="8.66516">
        <ele>1621</ele>
        <time>2021-08-07T09:30:39.819Z</time>
      </trkpt>
      <trkpt lat="46.91296" lon="8.66516">
        <ele>1621</ele>
        <time>2021-08-07T09:30:40.819Z</time>
      </trkpt>
      <trkpt lat="46.91295" lon="8.66515">
        <ele>1625</ele>
        <time>2021-08-07T09:30:41.820Z</time>
      </trkpt>
      <trkpt lat="46.91295" lon="8.66514">
        <ele>1625</ele>
        <time>2021-08-07T09:30:42.819Z</time>
      </trkpt>
      <trkpt lat="46.91296" lon="8.66515">
        <ele>1620</ele>
        <time>2021-08-07T09:30:43.822Z</time>
      </trkpt>
      <trkpt lat="46.91296" lon="8.66514">
        <ele>1619</ele>
        <time>2021-08-07T09:30:44.821Z</time>
      </trkpt>
      <trkpt lat="46.91295" lon="8.66515">
        <ele>1620</ele>
        <time>2021-08-07T09:30:45.821Z</time>
      </trkpt>
      <trkpt lat="46.91295" lon="8.66516">
        <ele>1620</ele>
        <time>2021-08-07T09:30:46.822Z</time>
      </trkpt>
      <trkpt lat="46.91295" lon="8.66516">
        <ele>1621</ele>
        <time>2021-08-07T09:30:47.822Z</time>
      </trkpt>
      <trkpt lat="46.91296" lon="8.66516">
        <ele>1622</ele>
        <time>2021-08-07T09:30:48.821Z</time>
      </trkpt>
      <trkpt lat="46.91296" lon="8.66516">
        <ele>1623</ele>
        <time>2021-08-07T09:30:49.822Z</time>
      </trkpt>
      <trkpt lat="46.91296" lon="8.66515">
        <ele>1623</ele>
        <time>2021-08-07T09:30:50.822Z</time>
      </trkpt>
      <trkpt lat="46.91296" lon="8.66515">
        <ele>1624</ele>
        <time>2021-08-07T09:30:57.936Z</time>
      </trkpt>
      <trkpt lat="46.91294" lon="8.66513">
        <ele>1624</ele>
        <time>2021-08-07T09:30:58.936Z</time>
      </trkpt>
      <trkpt lat="46.91294" lon="8.66514">
        <ele>1624</ele>
        <time>2021-08-07T09:30:59.936Z</time>
      </trkpt>
      <trkpt lat="46.91294" lon="8.66514">
        <ele>1624</ele>
        <time>2021-08-07T09:31:00.936Z</time>
      </trkpt>
      <trkpt lat="46.91294" lon="8.66514">
        <ele>1624</ele>
        <time>2021-08-07T09:31:01.937Z</time>
      </trkpt>
      <trkpt lat="46.91294" lon="8.66515">
        <ele>1622</ele>
        <time>2021-08-07T09:31:02.936Z</time>
      </trkpt>
      <trkpt lat="46.91294" lon="8.66515">
        <ele>1622</ele>
        <time>2021-08-07T09:31:03.936Z</time>
      </trkpt>
      <trkpt lat="46.91294" lon="8.66514">
        <ele>1621</ele>
        <time>2021-08-07T09:31:04.936Z</time>
      </trkpt>
      <trkpt lat="46.91294" lon="8.66517">
        <ele>1619</ele>
        <time>2021-08-07T09:31:05.937Z</time>
      </trkpt>
      <trkpt lat="46.91293" lon="8.66516">
        <ele>1619</ele>
        <time>2021-08-07T09:31:10.094Z</time>
      </trkpt>
      <trkpt lat="46.91293" lon="8.66516">
        <ele>1619</ele>
        <time>2021-08-07T09:31:11.094Z</time>
      </trkpt>
      <trkpt lat="46.91293" lon="8.66516">
        <ele>1618</ele>
        <time>2021-08-07T09:31:12.095Z</time>
      </trkpt>
      <trkpt lat="46.91293" lon="8.66516">
        <ele>1618</ele>
        <time>2021-08-07T09:31:13.094Z</time>
      </trkpt>
      <trkpt lat="46.91293" lon="8.66516">
        <ele>1618</ele>
        <time>2021-08-07T09:31:14.094Z</time>
      </trkpt>
      <trkpt lat="46.91293" lon="8.66516">
        <ele>1618</ele>
        <time>2021-08-07T09:31:15.095Z</time>
      </trkpt>
      <trkpt lat="46.91294" lon="8.66516">
        <ele>1618</ele>
        <time>2021-08-07T09:31:16.095Z</time>
      </trkpt>
      <trkpt lat="46.91294" lon="8.66515">
        <ele>1617</ele>
        <time>2021-08-07T09:31:17.095Z</time>
      </trkpt>
      <trkpt lat="46.91294" lon="8.66515">
        <ele>1617</ele>
        <time>2021-08-07T09:31:18.095Z</time>
      </trkpt>
      <trkpt lat="46.91295" lon="8.66515">
        <ele>1616</ele>
        <time>2021-08-07T09:31:19.095Z</time>
      </trkpt>
      <trkpt lat="46.91295" lon="8.66516">
        <ele>1616</ele>
        <time>2021-08-07T09:31:20.094Z</time>
      </trkpt>
      <trkpt lat="46.91298" lon="8.66515">
        <ele>1612</ele>
        <time>2021-08-07T09:31:21.095Z</time>
      </trkpt>
      <trkpt lat="46.91298" lon="8.66515">
        <ele>1612</ele>
        <time>2021-08-07T09:31:22.096Z</time>
      </trkpt>
      <trkpt lat="46.91298" lon="8.66515">
        <ele>1612</ele>
        <time>2021-08-07T09:31:23.095Z</time>
      </trkpt>
      <trkpt lat="46.91299" lon="8.66515">
        <ele>1612</ele>
        <time>2021-08-07T09:31:24.096Z</time>
      </trkpt>
      <trkpt lat="46.91299" lon="8.66515">
        <ele>1612</ele>
        <time>2021-08-07T09:31:25.095Z</time>
      </trkpt>
      <trkpt lat="46.91298" lon="8.66515">
        <ele>1613</ele>
        <time>2021-08-07T09:31:26.095Z</time>
      </trkpt>
      <trkpt lat="46.91298" lon="8.66514">
        <ele>1614</ele>
        <time>2021-08-07T09:31:27.096Z</time>
      </trkpt>
      <trkpt lat="46.91297" lon="8.66513">
        <ele>1619</ele>
        <time>2021-08-07T09:31:28.096Z</time>
      </trkpt>
      <trkpt lat="46.91297" lon="8.66516">
        <ele>1617</ele>
        <time>2021-08-07T09:31:29.096Z</time>
      </trkpt>
      <trkpt lat="46.91297" lon="8.66517">
        <ele>1616</ele>
        <time>2021-08-07T09:31:30.096Z</time>
      </trkpt>
      <trkpt lat="46.91297" lon="8.66517">
        <ele>1616</ele>
        <time>2021-08-07T09:31:31.096Z</time>
      </trkpt>
      <trkpt lat="46.91296" lon="8.66517">
        <ele>1616</ele>
        <time>2021-08-07T09:31:32.095Z</time>
      </trkpt>
      <trkpt lat="46.91296" lon="8.66517">
        <ele>1616</ele>
        <time>2021-08-07T09:31:33.096Z</time>
      </trkpt>
      <trkpt lat="46.91296" lon="8.66517">
        <ele>1616</ele>
        <time>2021-08-07T09:31:34.096Z</time>
      </trkpt>
      <trkpt lat="46.91296" lon="8.66516">
        <ele>1617</ele>
        <time>2021-08-07T09:31:35.096Z</time>
      </trkpt>
      <trkpt lat="46.91296" lon="8.66516">
        <ele>1617</ele>
        <time>2021-08-07T09:31:36.095Z</time>
      </trkpt>
      <trkpt lat="46.91296" lon="8.66516">
        <ele>1617</ele>
        <time>2021-08-07T09:31:37.096Z</time>
      </trkpt>
      <trkpt lat="46.91296" lon="8.66516">
        <ele>1617</ele>
        <time>2021-08-07T09:31:38.096Z</time>
      </trkpt>
      <trkpt lat="46.91296" lon="8.66515">
        <ele>1617</ele>
        <time>2021-08-07T09:31:39.096Z</time>
      </trkpt>
      <trkpt lat="46.91296" lon="8.66516">
        <ele>1617</ele>
        <time>2021-08-07T09:31:40.095Z</time>
      </trkpt>
      <trkpt lat="46.91296" lon="8.66516">
        <ele>1617</ele>
        <time>2021-08-07T09:31:41.096Z</time>
      </trkpt>
      <trkpt lat="46.91296" lon="8.66515">
        <ele>1617</ele>
        <time>2021-08-07T09:31:42.095Z</time>
      </trkpt>
      <trkpt lat="46.91292" lon="8.66512">
        <ele>1622</ele>
        <time>2021-08-07T09:31:43.096Z</time>
      </trkpt>
      <trkpt lat="46.91292" lon="8.66512">
        <ele>1623</ele>
        <time>2021-08-07T09:31:44.096Z</time>
      </trkpt>
      <trkpt lat="46.91292" lon="8.66512">
        <ele>1624</ele>
        <time>2021-08-07T09:31:45.096Z</time>
      </trkpt>
      <trkpt lat="46.91292" lon="8.66512">
        <ele>1624</ele>
        <time>2021-08-07T09:31:46.097Z</time>
      </trkpt>
      <trkpt lat="46.91293" lon="8.66512">
        <ele>1624</ele>
        <time>2021-08-07T09:31:47.097Z</time>
      </trkpt>
      <trkpt lat="46.91293" lon="8.66512">
        <ele>1624</ele>
        <time>2021-08-07T09:31:48.096Z</time>
      </trkpt>
      <trkpt lat="46.91293" lon="8.66512">
        <ele>1623</ele>
        <time>2021-08-07T09:31:49.096Z</time>
      </trkpt>
      <trkpt lat="46.91293" lon="8.66512">
        <ele>1623</ele>
        <time>2021-08-07T09:31:50.097Z</time>
      </trkpt>
      <trkpt lat="46.91293" lon="8.66512">
        <ele>1623</ele>
        <time>2021-08-07T09:31:51.096Z</time>
      </trkpt>
      <trkpt lat="46.91294" lon="8.66511">
        <ele>1623</ele>
        <time>2021-08-07T09:31:52.097Z</time>
      </trkpt>
      <trkpt lat="46.91294" lon="8.66511">
        <ele>1624</ele>
        <time>2021-08-07T09:31:53.096Z</time>
      </trkpt>
      <trkpt lat="46.91295" lon="8.6651">
        <ele>1624</ele>
        <time>2021-08-07T09:31:54.096Z</time>
      </trkpt>
      <trkpt lat="46.91295" lon="8.66509">
        <ele>1624</ele>
        <time>2021-08-07T09:31:55.096Z</time>
      </trkpt>
      <trkpt lat="46.91295" lon="8.66508">
        <ele>1624</ele>
        <time>2021-08-07T09:31:56.097Z</time>
      </trkpt>
      <trkpt lat="46.91296" lon="8.66507">
        <ele>1623</ele>
        <time>2021-08-07T09:31:57.097Z</time>
      </trkpt>
      <trkpt lat="46.91296" lon="8.66506">
        <ele>1623</ele>
        <time>2021-08-07T09:31:58.097Z</time>
      </trkpt>
      <trkpt lat="46.91296" lon="8.66505">
        <ele>1622</ele>
        <time>2021-08-07T09:31:59.096Z</time>
      </trkpt>
      <trkpt lat="46.91297" lon="8.66504">
        <ele>1622</ele>
        <time>2021-08-07T09:32:00.097Z</time>
      </trkpt>
      <trkpt lat="46.91297" lon="8.66504">
        <ele>1621</ele>
        <time>2021-08-07T09:32:01.096Z</time>
      </trkpt>
      <trkpt lat="46.91297" lon="8.66503">
        <ele>1621</ele>
        <time>2021-08-07T09:32:02.096Z</time>
      </trkpt>
      <trkpt lat="46.91297" lon="8.66502">
        <ele>1620</ele>
        <time>2021-08-07T09:32:03.096Z</time>
      </trkpt>
      <trkpt lat="46.91297" lon="8.66501">
        <ele>1620</ele>
        <time>2021-08-07T09:32:04.097Z</time>
      </trkpt>
      <trkpt lat="46.91297" lon="8.66501">
        <ele>1620</ele>
        <time>2021-08-07T09:32:05.097Z</time>
      </trkpt>
      <trkpt lat="46.91297" lon="8.66501">
        <ele>1619</ele>
        <time>2021-08-07T09:32:06.097Z</time>
      </trkpt>
      <trkpt lat="46.91298" lon="8.66499">
        <ele>1619</ele>
        <time>2021-08-07T09:32:07.097Z</time>
      </trkpt>
      <trkpt lat="46.91298" lon="8.66499">
        <ele>1618</ele>
        <time>2021-08-07T09:32:08.096Z</time>
      </trkpt>
      <trkpt lat="46.91298" lon="8.66498">
        <ele>1618</ele>
        <time>2021-08-07T09:32:09.096Z</time>
      </trkpt>
      <trkpt lat="46.91298" lon="8.66498">
        <ele>1618</ele>
        <time>2021-08-07T09:32:10.096Z</time>
      </trkpt>
      <trkpt lat="46.91298" lon="8.66497">
        <ele>1618</ele>
        <time>2021-08-07T09:32:11.096Z</time>
      </trkpt>
      <trkpt lat="46.91298" lon="8.66497">
        <ele>1618</ele>
        <time>2021-08-07T09:32:12.097Z</time>
      </trkpt>
      <trkpt lat="46.91297" lon="8.66496">
        <ele>1617</ele>
        <time>2021-08-07T09:32:13.097Z</time>
      </trkpt>
      <trkpt lat="46.91297" lon="8.66496">
        <ele>1617</ele>
        <time>2021-08-07T09:32:14.097Z</time>
      </trkpt>
      <trkpt lat="46.91296" lon="8.66496">
        <ele>1616</ele>
        <time>2021-08-07T09:32:15.098Z</time>
      </trkpt>
      <trkpt lat="46.91296" lon="8.66496">
        <ele>1616</ele>
        <time>2021-08-07T09:32:16.097Z</time>
      </trkpt>
      <trkpt lat="46.91296" lon="8.66496">
        <ele>1617</ele>
        <time>2021-08-07T09:32:17.097Z</time>
      </trkpt>
      <trkpt lat="46.91295" lon="8.66496">
        <ele>1617</ele>
        <time>2021-08-07T09:32:18.098Z</time>
      </trkpt>
      <trkpt lat="46.91295" lon="8.66496">
        <ele>1617</ele>
        <time>2021-08-07T09:32:19.099Z</time>
      </trkpt>
      <trkpt lat="46.91295" lon="8.66496">
        <ele>1617</ele>
        <time>2021-08-07T09:32:20.099Z</time>
      </trkpt>
      <trkpt lat="46.91296" lon="8.66496">
        <ele>1617</ele>
        <time>2021-08-07T09:32:21.099Z</time>
      </trkpt>
      <trkpt lat="46.91296" lon="8.66495">
        <ele>1617</ele>
        <time>2021-08-07T09:32:22.099Z</time>
      </trkpt>
      <trkpt lat="46.91296" lon="8.66495">
        <ele>1617</ele>
        <time>2021-08-07T09:32:23.099Z</time>
      </trkpt>
      <trkpt lat="46.91297" lon="8.66494">
        <ele>1618</ele>
        <time>2021-08-07T09:32:24.099Z</time>
      </trkpt>
      <trkpt lat="46.91297" lon="8.66494">
        <ele>1618</ele>
        <time>2021-08-07T09:32:25.099Z</time>
      </trkpt>
      <trkpt lat="46.91297" lon="8.66493">
        <ele>1618</ele>
        <time>2021-08-07T09:32:26.099Z</time>
      </trkpt>
      <trkpt lat="46.91297" lon="8.66493">
        <ele>1618</ele>
        <time>2021-08-07T09:32:27.100Z</time>
      </trkpt>
      <trkpt lat="46.91296" lon="8.66492">
        <ele>1619</ele>
        <time>2021-08-07T09:32:28.100Z</time>
      </trkpt>
      <trkpt lat="46.91296" lon="8.66492">
        <ele>1619</ele>
        <time>2021-08-07T09:32:29.100Z</time>
      </trkpt>
      <trkpt lat="46.91296" lon="8.66493">
        <ele>1609</ele>
        <time>2021-08-07T09:32:30.100Z</time>
      </trkpt>
      <trkpt lat="46.91296" lon="8.66493">
        <ele>1609</ele>
        <time>2021-08-07T09:32:31.101Z</time>
      </trkpt>
      <trkpt lat="46.91296" lon="8.66493">
        <ele>1609</ele>
        <time>2021-08-07T09:32:32.100Z</time>
      </trkpt>
      <trkpt lat="46.91297" lon="8.66493">
        <ele>1611</ele>
        <time>2021-08-07T09:32:33.101Z</time>
      </trkpt>
      <trkpt lat="46.91297" lon="8.66493">
        <ele>1612</ele>
        <time>2021-08-07T09:32:34.100Z</time>
      </trkpt>
      <trkpt lat="46.91297" lon="8.66493">
        <ele>1612</ele>
        <time>2021-08-07T09:32:35.100Z</time>
      </trkpt>
      <trkpt lat="46.91297" lon="8.66493">
        <ele>1613</ele>
        <time>2021-08-07T09:32:36.101Z</time>
      </trkpt>
      <trkpt lat="46.91297" lon="8.66493">
        <ele>1614</ele>
        <time>2021-08-07T09:32:37.100Z</time>
      </trkpt>
      <trkpt lat="46.91296" lon="8.66493">
        <ele>1616</ele>
        <time>2021-08-07T09:32:38.102Z</time>
      </trkpt>
      <trkpt lat="46.91297" lon="8.66493">
        <ele>1616</ele>
        <time>2021-08-07T09:32:39.102Z</time>
      </trkpt>
      <trkpt lat="46.91297" lon="8.66494">
        <ele>1617</ele>
        <time>2021-08-07T09:32:40.102Z</time>
      </trkpt>
      <trkpt lat="46.91295" lon="8.66491">
        <ele>1623</ele>
        <time>2021-08-07T09:32:41.102Z</time>
      </trkpt>
      <trkpt lat="46.91295" lon="8.66492">
        <ele>1623</ele>
        <time>2021-08-07T09:32:42.102Z</time>
      </trkpt>
      <trkpt lat="46.91296" lon="8.66491">
        <ele>1623</ele>
        <time>2021-08-07T09:32:43.101Z</time>
      </trkpt>
      <trkpt lat="46.91296" lon="8.66491">
        <ele>1623</ele>
        <time>2021-08-07T09:32:44.102Z</time>
      </trkpt>
      <trkpt lat="46.91296" lon="8.6649">
        <ele>1623</ele>
        <time>2021-08-07T09:32:45.102Z</time>
      </trkpt>
      <trkpt lat="46.91295" lon="8.6649">
        <ele>1624</ele>
        <time>2021-08-07T09:32:46.102Z</time>
      </trkpt>
      <trkpt lat="46.91294" lon="8.66491">
        <ele>1624</ele>
        <time>2021-08-07T09:32:47.102Z</time>
      </trkpt>
      <trkpt lat="46.91294" lon="8.66491">
        <ele>1624</ele>
        <time>2021-08-07T09:32:48.102Z</time>
      </trkpt>
      <trkpt lat="46.91295" lon="8.66492">
        <ele>1623</ele>
        <time>2021-08-07T09:32:49.102Z</time>
      </trkpt>
      <trkpt lat="46.91296" lon="8.66493">
        <ele>1618</ele>
        <time>2021-08-07T09:32:50.102Z</time>
      </trkpt>
      <trkpt lat="46.91296" lon="8.66493">
        <ele>1617</ele>
        <time>2021-08-07T09:32:51.101Z</time>
      </trkpt>
      <trkpt lat="46.91296" lon="8.66493">
        <ele>1617</ele>
        <time>2021-08-07T09:32:52.101Z</time>
      </trkpt>
      <trkpt lat="46.91296" lon="8.66494">
        <ele>1617</ele>
        <time>2021-08-07T09:32:53.102Z</time>
      </trkpt>
      <trkpt lat="46.91296" lon="8.66494">
        <ele>1617</ele>
        <time>2021-08-07T09:32:54.101Z</time>
      </trkpt>
      <trkpt lat="46.91296" lon="8.66494">
        <ele>1618</ele>
        <time>2021-08-07T09:32:55.101Z</time>
      </trkpt>
      <trkpt lat="46.91295" lon="8.66496">
        <ele>1619</ele>
        <time>2021-08-07T09:32:56.102Z</time>
      </trkpt>
      <trkpt lat="46.91295" lon="8.66495">
        <ele>1619</ele>
        <time>2021-08-07T09:32:57.101Z</time>
      </trkpt>
      <trkpt lat="46.91298" lon="8.66494">
        <ele>1614</ele>
        <time>2021-08-07T09:32:58.101Z</time>
      </trkpt>
      <trkpt lat="46.91299" lon="8.66494">
        <ele>1614</ele>
        <time>2021-08-07T09:32:59.101Z</time>
      </trkpt>
      <trkpt lat="46.913" lon="8.66493">
        <ele>1614</ele>
        <time>2021-08-07T09:33:00.102Z</time>
      </trkpt>
      <trkpt lat="46.91301" lon="8.66493">
        <ele>1614</ele>
        <time>2021-08-07T09:33:01.101Z</time>
      </trkpt>
      <trkpt lat="46.91302" lon="8.66493">
        <ele>1614</ele>
        <time>2021-08-07T09:33:02.102Z</time>
      </trkpt>
      <trkpt lat="46.91302" lon="8.66493">
        <ele>1614</ele>
        <time>2021-08-07T09:33:03.101Z</time>
      </trkpt>
      <trkpt lat="46.91303" lon="8.66492">
        <ele>1614</ele>
        <time>2021-08-07T09:33:04.102Z</time>
      </trkpt>
      <trkpt lat="46.91304" lon="8.66492">
        <ele>1614</ele>
        <time>2021-08-07T09:33:05.101Z</time>
      </trkpt>
      <trkpt lat="46.91304" lon="8.66492">
        <ele>1614</ele>
        <time>2021-08-07T09:33:06.101Z</time>
      </trkpt>
      <trkpt lat="46.91304" lon="8.66491">
        <ele>1614</ele>
        <time>2021-08-07T09:33:07.102Z</time>
      </trkpt>
      <trkpt lat="46.91305" lon="8.66492">
        <ele>1614</ele>
        <time>2021-08-07T09:33:08.102Z</time>
      </trkpt>
      <trkpt lat="46.91306" lon="8.66492">
        <ele>1614</ele>
        <time>2021-08-07T09:33:09.101Z</time>
      </trkpt>
      <trkpt lat="46.91307" lon="8.66493">
        <ele>1615</ele>
        <time>2021-08-07T09:33:10.101Z</time>
      </trkpt>
      <trkpt lat="46.91307" lon="8.66493">
        <ele>1615</ele>
        <time>2021-08-07T09:33:11.101Z</time>
      </trkpt>
      <trkpt lat="46.91308" lon="8.66494">
        <ele>1616</ele>
        <time>2021-08-07T09:33:12.101Z</time>
      </trkpt>
      <trkpt lat="46.91308" lon="8.66494">
        <ele>1616</ele>
        <time>2021-08-07T09:33:13.102Z</time>
      </trkpt>
      <trkpt lat="46.91309" lon="8.66494">
        <ele>1617</ele>
        <time>2021-08-07T09:33:14.102Z</time>
      </trkpt>
      <trkpt lat="46.91309" lon="8.66494">
        <ele>1617</ele>
        <time>2021-08-07T09:33:15.101Z</time>
      </trkpt>
      <trkpt lat="46.9131" lon="8.66494">
        <ele>1617</ele>
        <time>2021-08-07T09:33:16.101Z</time>
      </trkpt>
      <trkpt lat="46.9131" lon="8.66493">
        <ele>1616</ele>
        <time>2021-08-07T09:33:17.102Z</time>
      </trkpt>
      <trkpt lat="46.91311" lon="8.66493">
        <ele>1616</ele>
        <time>2021-08-07T09:33:18.101Z</time>
      </trkpt>
      <trkpt lat="46.91312" lon="8.66492">
        <ele>1615</ele>
        <time>2021-08-07T09:33:19.102Z</time>
      </trkpt>
      <trkpt lat="46.91312" lon="8.66491">
        <ele>1614</ele>
        <time>2021-08-07T09:33:20.101Z</time>
      </trkpt>
      <trkpt lat="46.91313" lon="8.6649">
        <ele>1613</ele>
        <time>2021-08-07T09:33:21.101Z</time>
      </trkpt>
      <trkpt lat="46.91313" lon="8.66489">
        <ele>1613</ele>
        <time>2021-08-07T09:33:22.101Z</time>
      </trkpt>
      <trkpt lat="46.91313" lon="8.66487">
        <ele>1613</ele>
        <time>2021-08-07T09:33:23.102Z</time>
      </trkpt>
      <trkpt lat="46.91313" lon="8.66487">
        <ele>1613</ele>
        <time>2021-08-07T09:33:24.102Z</time>
      </trkpt>
      <trkpt lat="46.91313" lon="8.66486">
        <ele>1613</ele>
        <time>2021-08-07T09:33:25.101Z</time>
      </trkpt>
      <trkpt lat="46.91314" lon="8.66486">
        <ele>1612</ele>
        <time>2021-08-07T09:33:26.102Z</time>
      </trkpt>
      <trkpt lat="46.91314" lon="8.66485">
        <ele>1612</ele>
        <time>2021-08-07T09:33:27.101Z</time>
      </trkpt>
      <trkpt lat="46.91314" lon="8.66485">
        <ele>1612</ele>
        <time>2021-08-07T09:33:28.101Z</time>
      </trkpt>
      <trkpt lat="46.91315" lon="8.66485">
        <ele>1612</ele>
        <time>2021-08-07T09:33:29.101Z</time>
      </trkpt>
      <trkpt lat="46.91316" lon="8.66486">
        <ele>1612</ele>
        <time>2021-08-07T09:33:30.102Z</time>
      </trkpt>
      <trkpt lat="46.91317" lon="8.66486">
        <ele>1612</ele>
        <time>2021-08-07T09:33:31.102Z</time>
      </trkpt>
      <trkpt lat="46.91318" lon="8.66487">
        <ele>1612</ele>
        <time>2021-08-07T09:33:32.101Z</time>
      </trkpt>
      <trkpt lat="46.91319" lon="8.66487">
        <ele>1612</ele>
        <time>2021-08-07T09:33:33.101Z</time>
      </trkpt>
      <trkpt lat="46.9132" lon="8.66487">
        <ele>1612</ele>
        <time>2021-08-07T09:33:34.101Z</time>
      </trkpt>
      <trkpt lat="46.91321" lon="8.66487">
        <ele>1612</ele>
        <time>2021-08-07T09:33:35.101Z</time>
      </trkpt>
      <trkpt lat="46.91322" lon="8.66487">
        <ele>1613</ele>
        <time>2021-08-07T09:33:36.102Z</time>
      </trkpt>
      <trkpt lat="46.91323" lon="8.66488">
        <ele>1613</ele>
        <time>2021-08-07T09:33:37.101Z</time>
      </trkpt>
      <trkpt lat="46.91324" lon="8.66488">
        <ele>1613</ele>
        <time>2021-08-07T09:33:38.101Z</time>
      </trkpt>
      <trkpt lat="46.91325" lon="8.66487">
        <ele>1613</ele>
        <time>2021-08-07T09:33:39.101Z</time>
      </trkpt>
      <trkpt lat="46.91326" lon="8.66487">
        <ele>1612</ele>
        <time>2021-08-07T09:33:40.101Z</time>
      </trkpt>
      <trkpt lat="46.91326" lon="8.66487">
        <ele>1612</ele>
        <time>2021-08-07T09:33:41.101Z</time>
      </trkpt>
      <trkpt lat="46.91327" lon="8.66486">
        <ele>1612</ele>
        <time>2021-08-07T09:33:42.102Z</time>
      </trkpt>
      <trkpt lat="46.91328" lon="8.66485">
        <ele>1613</ele>
        <time>2021-08-07T09:33:43.101Z</time>
      </trkpt>
      <trkpt lat="46.91328" lon="8.66485">
        <ele>1613</ele>
        <time>2021-08-07T09:33:44.102Z</time>
      </trkpt>
      <trkpt lat="46.91329" lon="8.66483">
        <ele>1613</ele>
        <time>2021-08-07T09:33:45.101Z</time>
      </trkpt>
      <trkpt lat="46.9133" lon="8.66482">
        <ele>1612</ele>
        <time>2021-08-07T09:33:46.102Z</time>
      </trkpt>
      <trkpt lat="46.9133" lon="8.66482">
        <ele>1612</ele>
        <time>2021-08-07T09:33:47.101Z</time>
      </trkpt>
      <trkpt lat="46.9133" lon="8.66481">
        <ele>1612</ele>
        <time>2021-08-07T09:33:48.101Z</time>
      </trkpt>
      <trkpt lat="46.91329" lon="8.6648">
        <ele>1611</ele>
        <time>2021-08-07T09:33:49.101Z</time>
      </trkpt>
      <trkpt lat="46.9133" lon="8.6648">
        <ele>1611</ele>
        <time>2021-08-07T09:33:50.101Z</time>
      </trkpt>
      <trkpt lat="46.9133" lon="8.6648">
        <ele>1611</ele>
        <time>2021-08-07T09:33:51.101Z</time>
      </trkpt>
      <trkpt lat="46.91331" lon="8.66479">
        <ele>1611</ele>
        <time>2021-08-07T09:33:52.102Z</time>
      </trkpt>
      <trkpt lat="46.91332" lon="8.66479">
        <ele>1610</ele>
        <time>2021-08-07T09:33:53.101Z</time>
      </trkpt>
      <trkpt lat="46.91332" lon="8.66479">
        <ele>1610</ele>
        <time>2021-08-07T09:33:54.101Z</time>
      </trkpt>
      <trkpt lat="46.91333" lon="8.66479">
        <ele>1610</ele>
        <time>2021-08-07T09:33:55.101Z</time>
      </trkpt>
      <trkpt lat="46.91333" lon="8.66479">
        <ele>1609</ele>
        <time>2021-08-07T09:33:56.101Z</time>
      </trkpt>
      <trkpt lat="46.91334" lon="8.66479">
        <ele>1609</ele>
        <time>2021-08-07T09:33:57.101Z</time>
      </trkpt>
      <trkpt lat="46.91335" lon="8.66478">
        <ele>1609</ele>
        <time>2021-08-07T09:33:58.101Z</time>
      </trkpt>
      <trkpt lat="46.91336" lon="8.66478">
        <ele>1609</ele>
        <time>2021-08-07T09:33:59.102Z</time>
      </trkpt>
      <trkpt lat="46.91336" lon="8.66477">
        <ele>1609</ele>
        <time>2021-08-07T09:34:00.101Z</time>
      </trkpt>
      <trkpt lat="46.91337" lon="8.66477">
        <ele>1609</ele>
        <time>2021-08-07T09:34:01.101Z</time>
      </trkpt>
      <trkpt lat="46.91338" lon="8.66477">
        <ele>1609</ele>
        <time>2021-08-07T09:34:02.101Z</time>
      </trkpt>
      <trkpt lat="46.91338" lon="8.66476">
        <ele>1610</ele>
        <time>2021-08-07T09:34:03.101Z</time>
      </trkpt>
      <trkpt lat="46.91339" lon="8.66475">
        <ele>1609</ele>
        <time>2021-08-07T09:34:04.101Z</time>
      </trkpt>
      <trkpt lat="46.9134" lon="8.66474">
        <ele>1609</ele>
        <time>2021-08-07T09:34:05.102Z</time>
      </trkpt>
      <trkpt lat="46.9134" lon="8.66473">
        <ele>1609</ele>
        <time>2021-08-07T09:34:06.101Z</time>
      </trkpt>
      <trkpt lat="46.91341" lon="8.66472">
        <ele>1608</ele>
        <time>2021-08-07T09:34:07.101Z</time>
      </trkpt>
      <trkpt lat="46.91342" lon="8.66471">
        <ele>1607</ele>
        <time>2021-08-07T09:34:08.102Z</time>
      </trkpt>
      <trkpt lat="46.91342" lon="8.6647">
        <ele>1607</ele>
        <time>2021-08-07T09:34:09.101Z</time>
      </trkpt>
      <trkpt lat="46.91343" lon="8.66469">
        <ele>1606</ele>
        <time>2021-08-07T09:34:10.101Z</time>
      </trkpt>
      <trkpt lat="46.91344" lon="8.66469">
        <ele>1606</ele>
        <time>2021-08-07T09:34:11.101Z</time>
      </trkpt>
      <trkpt lat="46.91344" lon="8.66468">
        <ele>1605</ele>
        <time>2021-08-07T09:34:12.101Z</time>
      </trkpt>
      <trkpt lat="46.91345" lon="8.66467">
        <ele>1605</ele>
        <time>2021-08-07T09:34:13.101Z</time>
      </trkpt>
      <trkpt lat="46.91345" lon="8.66467">
        <ele>1605</ele>
        <time>2021-08-07T09:34:14.101Z</time>
      </trkpt>
      <trkpt lat="46.91345" lon="8.66466">
        <ele>1605</ele>
        <time>2021-08-07T09:34:15.101Z</time>
      </trkpt>
      <trkpt lat="46.91345" lon="8.66465">
        <ele>1605</ele>
        <time>2021-08-07T09:34:17.209Z</time>
      </trkpt>
      <trkpt lat="46.91346" lon="8.66464">
        <ele>1605</ele>
        <time>2021-08-07T09:34:18.210Z</time>
      </trkpt>
      <trkpt lat="46.91346" lon="8.66463">
        <ele>1605</ele>
        <time>2021-08-07T09:34:19.209Z</time>
      </trkpt>
      <trkpt lat="46.91347" lon="8.66462">
        <ele>1605</ele>
        <time>2021-08-07T09:34:20.210Z</time>
      </trkpt>
      <trkpt lat="46.91347" lon="8.66462">
        <ele>1605</ele>
        <time>2021-08-07T09:34:21.209Z</time>
      </trkpt>
      <trkpt lat="46.91348" lon="8.66461">
        <ele>1605</ele>
        <time>2021-08-07T09:34:22.209Z</time>
      </trkpt>
      <trkpt lat="46.91349" lon="8.6646">
        <ele>1606</ele>
        <time>2021-08-07T09:34:23.209Z</time>
      </trkpt>
      <trkpt lat="46.91349" lon="8.66459">
        <ele>1606</ele>
        <time>2021-08-07T09:34:24.209Z</time>
      </trkpt>
      <trkpt lat="46.9135" lon="8.66458">
        <ele>1606</ele>
        <time>2021-08-07T09:34:31.337Z</time>
      </trkpt>
      <trkpt lat="46.91351" lon="8.66457">
        <ele>1606</ele>
        <time>2021-08-07T09:34:32.337Z</time>
      </trkpt>
      <trkpt lat="46.91351" lon="8.66456">
        <ele>1607</ele>
        <time>2021-08-07T09:34:33.337Z</time>
      </trkpt>
      <trkpt lat="46.91352" lon="8.66455">
        <ele>1606</ele>
        <time>2021-08-07T09:34:34.337Z</time>
      </trkpt>
      <trkpt lat="46.91353" lon="8.66454">
        <ele>1606</ele>
        <time>2021-08-07T09:34:35.338Z</time>
      </trkpt>
      <trkpt lat="46.91353" lon="8.66454">
        <ele>1605</ele>
        <time>2021-08-07T09:34:36.338Z</time>
      </trkpt>
      <trkpt lat="46.91354" lon="8.66453">
        <ele>1605</ele>
        <time>2021-08-07T09:34:37.337Z</time>
      </trkpt>
      <trkpt lat="46.91354" lon="8.66452">
        <ele>1605</ele>
        <time>2021-08-07T09:34:38.337Z</time>
      </trkpt>
      <trkpt lat="46.91355" lon="8.66452">
        <ele>1605</ele>
        <time>2021-08-07T09:34:39.337Z</time>
      </trkpt>
      <trkpt lat="46.91355" lon="8.66451">
        <ele>1605</ele>
        <time>2021-08-07T09:34:40.337Z</time>
      </trkpt>
      <trkpt lat="46.91355" lon="8.6645">
        <ele>1604</ele>
        <time>2021-08-07T09:34:41.337Z</time>
      </trkpt>
      <trkpt lat="46.91356" lon="8.66449">
        <ele>1604</ele>
        <time>2021-08-07T09:34:42.337Z</time>
      </trkpt>
      <trkpt lat="46.91356" lon="8.66448">
        <ele>1604</ele>
        <time>2021-08-07T09:34:43.337Z</time>
      </trkpt>
      <trkpt lat="46.91357" lon="8.66447">
        <ele>1604</ele>
        <time>2021-08-07T09:34:44.338Z</time>
      </trkpt>
      <trkpt lat="46.91357" lon="8.66446">
        <ele>1604</ele>
        <time>2021-08-07T09:34:45.337Z</time>
      </trkpt>
      <trkpt lat="46.91357" lon="8.66445">
        <ele>1603</ele>
        <time>2021-08-07T09:34:46.337Z</time>
      </trkpt>
      <trkpt lat="46.91357" lon="8.66444">
        <ele>1603</ele>
        <time>2021-08-07T09:34:50.461Z</time>
      </trkpt>
      <trkpt lat="46.91358" lon="8.66443">
        <ele>1602</ele>
        <time>2021-08-07T09:34:51.461Z</time>
      </trkpt>
      <trkpt lat="46.91358" lon="8.66443">
        <ele>1601</ele>
        <time>2021-08-07T09:34:52.462Z</time>
      </trkpt>
      <trkpt lat="46.91359" lon="8.6644">
        <ele>1595</ele>
        <time>2021-08-07T09:34:53.462Z</time>
      </trkpt>
      <trkpt lat="46.91359" lon="8.66439">
        <ele>1595</ele>
        <time>2021-08-07T09:34:54.462Z</time>
      </trkpt>
      <trkpt lat="46.9136" lon="8.66438">
        <ele>1594</ele>
        <time>2021-08-07T09:34:55.462Z</time>
      </trkpt>
      <trkpt lat="46.91361" lon="8.66438">
        <ele>1594</ele>
        <time>2021-08-07T09:34:56.463Z</time>
      </trkpt>
      <trkpt lat="46.91361" lon="8.66436">
        <ele>1594</ele>
        <time>2021-08-07T09:34:57.462Z</time>
      </trkpt>
      <trkpt lat="46.91361" lon="8.66435">
        <ele>1593</ele>
        <time>2021-08-07T09:34:59.563Z</time>
      </trkpt>
      <trkpt lat="46.91361" lon="8.66434">
        <ele>1593</ele>
        <time>2021-08-07T09:35:00.563Z</time>
      </trkpt>
      <trkpt lat="46.91361" lon="8.66433">
        <ele>1593</ele>
        <time>2021-08-07T09:35:01.563Z</time>
      </trkpt>
      <trkpt lat="46.91362" lon="8.66432">
        <ele>1592</ele>
        <time>2021-08-07T09:35:02.564Z</time>
      </trkpt>
      <trkpt lat="46.91362" lon="8.66431">
        <ele>1592</ele>
        <time>2021-08-07T09:35:03.564Z</time>
      </trkpt>
      <trkpt lat="46.91363" lon="8.66429">
        <ele>1592</ele>
        <time>2021-08-07T09:35:04.564Z</time>
      </trkpt>
      <trkpt lat="46.91363" lon="8.66428">
        <ele>1592</ele>
        <time>2021-08-07T09:35:05.563Z</time>
      </trkpt>
      <trkpt lat="46.91364" lon="8.66427">
        <ele>1591</ele>
        <time>2021-08-07T09:35:06.563Z</time>
      </trkpt>
      <trkpt lat="46.91364" lon="8.66426">
        <ele>1591</ele>
        <time>2021-08-07T09:35:18.708Z</time>
      </trkpt>
      <trkpt lat="46.91364" lon="8.66425">
        <ele>1591</ele>
        <time>2021-08-07T09:35:19.708Z</time>
      </trkpt>
      <trkpt lat="46.91364" lon="8.66425">
        <ele>1590</ele>
        <time>2021-08-07T09:35:25.825Z</time>
      </trkpt>
      <trkpt lat="46.91364" lon="8.66424">
        <ele>1590</ele>
        <time>2021-08-07T09:35:26.824Z</time>
      </trkpt>
      <trkpt lat="46.91365" lon="8.66423">
        <ele>1588</ele>
        <time>2021-08-07T09:35:27.825Z</time>
      </trkpt>
      <trkpt lat="46.91365" lon="8.66422">
        <ele>1588</ele>
        <time>2021-08-07T09:35:28.826Z</time>
      </trkpt>
      <trkpt lat="46.91365" lon="8.66421">
        <ele>1588</ele>
        <time>2021-08-07T09:35:48.968Z</time>
      </trkpt>
      <trkpt lat="46.91366" lon="8.6642">
        <ele>1588</ele>
        <time>2021-08-07T09:35:49.969Z</time>
      </trkpt>
      <trkpt lat="46.91366" lon="8.66419">
        <ele>1589</ele>
        <time>2021-08-07T09:35:50.968Z</time>
      </trkpt>
      <trkpt lat="46.91366" lon="8.66418">
        <ele>1589</ele>
        <time>2021-08-07T09:36:04.081Z</time>
      </trkpt>
      <trkpt lat="46.91366" lon="8.66416">
        <ele>1589</ele>
        <time>2021-08-07T09:36:05.080Z</time>
      </trkpt>
      <trkpt lat="46.91366" lon="8.66415">
        <ele>1588</ele>
        <time>2021-08-07T09:36:06.081Z</time>
      </trkpt>
      <trkpt lat="46.91366" lon="8.66413">
        <ele>1588</ele>
        <time>2021-08-07T09:36:07.081Z</time>
      </trkpt>
      <trkpt lat="46.91366" lon="8.66411">
        <ele>1588</ele>
        <time>2021-08-07T09:36:08.080Z</time>
      </trkpt>
      <trkpt lat="46.91366" lon="8.6641">
        <ele>1588</ele>
        <time>2021-08-07T09:36:09.081Z</time>
      </trkpt>
      <trkpt lat="46.91366" lon="8.66408">
        <ele>1588</ele>
        <time>2021-08-07T09:36:11.172Z</time>
      </trkpt>
      <trkpt lat="46.91366" lon="8.66407">
        <ele>1587</ele>
        <time>2021-08-07T09:36:12.172Z</time>
      </trkpt>
      <trkpt lat="46.91366" lon="8.66405">
        <ele>1587</ele>
        <time>2021-08-07T09:36:13.171Z</time>
      </trkpt>
      <trkpt lat="46.91367" lon="8.66404">
        <ele>1587</ele>
        <time>2021-08-07T09:36:38.216Z</time>
      </trkpt>
      <trkpt lat="46.91367" lon="8.66402">
        <ele>1587</ele>
        <time>2021-08-07T09:36:39.216Z</time>
      </trkpt>
      <trkpt lat="46.91367" lon="8.66401">
        <ele>1587</ele>
        <time>2021-08-07T09:36:40.216Z</time>
      </trkpt>
      <trkpt lat="46.91366" lon="8.66399">
        <ele>1587</ele>
        <time>2021-08-07T09:36:41.216Z</time>
      </trkpt>
      <trkpt lat="46.91366" lon="8.66398">
        <ele>1587</ele>
        <time>2021-08-07T09:36:48.330Z</time>
      </trkpt>
      <trkpt lat="46.91366" lon="8.66396">
        <ele>1587</ele>
        <time>2021-08-07T09:36:49.330Z</time>
      </trkpt>
      <trkpt lat="46.91366" lon="8.66394">
        <ele>1587</ele>
        <time>2021-08-07T09:36:50.330Z</time>
      </trkpt>
      <trkpt lat="46.91366" lon="8.66393">
        <ele>1588</ele>
        <time>2021-08-07T09:36:51.329Z</time>
      </trkpt>
      <trkpt lat="46.91366" lon="8.66391">
        <ele>1587</ele>
        <time>2021-08-07T09:36:52.330Z</time>
      </trkpt>
      <trkpt lat="46.91366" lon="8.6639">
        <ele>1587</ele>
        <time>2021-08-07T09:36:53.330Z</time>
      </trkpt>
      <trkpt lat="46.91366" lon="8.66388">
        <ele>1587</ele>
        <time>2021-08-07T09:36:54.330Z</time>
      </trkpt>
      <trkpt lat="46.91366" lon="8.66387">
        <ele>1587</ele>
        <time>2021-08-07T09:36:55.330Z</time>
      </trkpt>
      <trkpt lat="46.91366" lon="8.66385">
        <ele>1586</ele>
        <time>2021-08-07T09:36:57.462Z</time>
      </trkpt>
      <trkpt lat="46.91365" lon="8.66384">
        <ele>1586</ele>
        <time>2021-08-07T09:36:58.462Z</time>
      </trkpt>
      <trkpt lat="46.91365" lon="8.66382">
        <ele>1585</ele>
        <time>2021-08-07T09:36:59.462Z</time>
      </trkpt>
      <trkpt lat="46.91365" lon="8.66381">
        <ele>1585</ele>
        <time>2021-08-07T09:37:00.462Z</time>
      </trkpt>
      <trkpt lat="46.91365" lon="8.6638">
        <ele>1584</ele>
        <time>2021-08-07T09:37:08.596Z</time>
      </trkpt>
      <trkpt lat="46.91365" lon="8.66378">
        <ele>1584</ele>
        <time>2021-08-07T09:37:09.596Z</time>
      </trkpt>
      <trkpt lat="46.91365" lon="8.66377">
        <ele>1583</ele>
        <time>2021-08-07T09:37:10.596Z</time>
      </trkpt>
      <trkpt lat="46.91365" lon="8.66376">
        <ele>1583</ele>
        <time>2021-08-07T09:37:11.596Z</time>
      </trkpt>
      <trkpt lat="46.91365" lon="8.66376">
        <ele>1583</ele>
        <time>2021-08-07T09:37:12.596Z</time>
      </trkpt>
      <trkpt lat="46.91365" lon="8.66375">
        <ele>1584</ele>
        <time>2021-08-07T09:37:13.596Z</time>
      </trkpt>
      <trkpt lat="46.91365" lon="8.66375">
        <ele>1585</ele>
        <time>2021-08-07T09:37:14.596Z</time>
      </trkpt>
      <trkpt lat="46.91365" lon="8.66375">
        <ele>1585</ele>
        <time>2021-08-07T09:37:15.596Z</time>
      </trkpt>
      <trkpt lat="46.91365" lon="8.66376">
        <ele>1584</ele>
        <time>2021-08-07T09:37:16.595Z</time>
      </trkpt>
      <trkpt lat="46.91366" lon="8.66375">
        <ele>1582</ele>
        <time>2021-08-07T09:37:17.596Z</time>
      </trkpt>
      <trkpt lat="46.91366" lon="8.66374">
        <ele>1582</ele>
        <time>2021-08-07T09:37:18.596Z</time>
      </trkpt>
      <trkpt lat="46.91365" lon="8.66373">
        <ele>1582</ele>
        <time>2021-08-07T09:37:19.595Z</time>
      </trkpt>
      <trkpt lat="46.91365" lon="8.66372">
        <ele>1582</ele>
        <time>2021-08-07T09:37:20.596Z</time>
      </trkpt>
      <trkpt lat="46.91365" lon="8.66371">
        <ele>1583</ele>
        <time>2021-08-07T09:37:21.596Z</time>
      </trkpt>
      <trkpt lat="46.91365" lon="8.6637">
        <ele>1583</ele>
        <time>2021-08-07T09:37:22.596Z</time>
      </trkpt>
      <trkpt lat="46.91364" lon="8.66369">
        <ele>1583</ele>
        <time>2021-08-07T09:37:23.596Z</time>
      </trkpt>
      <trkpt lat="46.91364" lon="8.66368">
        <ele>1583</ele>
        <time>2021-08-07T09:37:24.596Z</time>
      </trkpt>
      <trkpt lat="46.91364" lon="8.66367">
        <ele>1583</ele>
        <time>2021-08-07T09:37:25.595Z</time>
      </trkpt>
      <trkpt lat="46.91364" lon="8.66366">
        <ele>1583</ele>
        <time>2021-08-07T09:37:26.595Z</time>
      </trkpt>
      <trkpt lat="46.91364" lon="8.66365">
        <ele>1584</ele>
        <time>2021-08-07T09:37:27.595Z</time>
      </trkpt>
      <trkpt lat="46.91364" lon="8.66364">
        <ele>1584</ele>
        <time>2021-08-07T09:37:28.595Z</time>
      </trkpt>
      <trkpt lat="46.91364" lon="8.66364">
        <ele>1584</ele>
        <time>2021-08-07T09:37:29.595Z</time>
      </trkpt>
      <trkpt lat="46.91364" lon="8.66363">
        <ele>1584</ele>
        <time>2021-08-07T09:37:30.595Z</time>
      </trkpt>
      <trkpt lat="46.91364" lon="8.66362">
        <ele>1584</ele>
        <time>2021-08-07T09:37:31.596Z</time>
      </trkpt>
      <trkpt lat="46.91364" lon="8.66361">
        <ele>1584</ele>
        <time>2021-08-07T09:37:32.596Z</time>
      </trkpt>
      <trkpt lat="46.91363" lon="8.6636">
        <ele>1583</ele>
        <time>2021-08-07T09:37:33.596Z</time>
      </trkpt>
      <trkpt lat="46.91363" lon="8.66359">
        <ele>1583</ele>
        <time>2021-08-07T09:37:34.596Z</time>
      </trkpt>
      <trkpt lat="46.91363" lon="8.66357">
        <ele>1583</ele>
        <time>2021-08-07T09:37:35.596Z</time>
      </trkpt>
      <trkpt lat="46.91363" lon="8.66356">
        <ele>1583</ele>
        <time>2021-08-07T09:37:36.595Z</time>
      </trkpt>
      <trkpt lat="46.91363" lon="8.66355">
        <ele>1582</ele>
        <time>2021-08-07T09:37:37.596Z</time>
      </trkpt>
      <trkpt lat="46.91363" lon="8.66354">
        <ele>1582</ele>
        <time>2021-08-07T09:37:38.595Z</time>
      </trkpt>
      <trkpt lat="46.91363" lon="8.66353">
        <ele>1582</ele>
        <time>2021-08-07T09:37:39.596Z</time>
      </trkpt>
      <trkpt lat="46.91362" lon="8.66353">
        <ele>1581</ele>
        <time>2021-08-07T09:37:40.596Z</time>
      </trkpt>
      <trkpt lat="46.91362" lon="8.66352">
        <ele>1581</ele>
        <time>2021-08-07T09:37:41.595Z</time>
      </trkpt>
      <trkpt lat="46.91362" lon="8.66351">
        <ele>1581</ele>
        <time>2021-08-07T09:37:42.595Z</time>
      </trkpt>
      <trkpt lat="46.91362" lon="8.6635">
        <ele>1580</ele>
        <time>2021-08-07T09:37:43.595Z</time>
      </trkpt>
      <trkpt lat="46.91362" lon="8.66349">
        <ele>1580</ele>
        <time>2021-08-07T09:37:44.596Z</time>
      </trkpt>
      <trkpt lat="46.91361" lon="8.66348">
        <ele>1579</ele>
        <time>2021-08-07T09:37:45.596Z</time>
      </trkpt>
      <trkpt lat="46.91361" lon="8.66346">
        <ele>1579</ele>
        <time>2021-08-07T09:37:46.596Z</time>
      </trkpt>
      <trkpt lat="46.91361" lon="8.66345">
        <ele>1578</ele>
        <time>2021-08-07T09:37:47.596Z</time>
      </trkpt>
      <trkpt lat="46.91361" lon="8.66344">
        <ele>1578</ele>
        <time>2021-08-07T09:37:48.596Z</time>
      </trkpt>
      <trkpt lat="46.91361" lon="8.66343">
        <ele>1578</ele>
        <time>2021-08-07T09:37:49.596Z</time>
      </trkpt>
      <trkpt lat="46.91362" lon="8.66342">
        <ele>1578</ele>
        <time>2021-08-07T09:37:50.596Z</time>
      </trkpt>
      <trkpt lat="46.91361" lon="8.66341">
        <ele>1578</ele>
        <time>2021-08-07T09:37:51.596Z</time>
      </trkpt>
      <trkpt lat="46.91361" lon="8.6634">
        <ele>1578</ele>
        <time>2021-08-07T09:37:52.596Z</time>
      </trkpt>
      <trkpt lat="46.91361" lon="8.66339">
        <ele>1578</ele>
        <time>2021-08-07T09:37:53.596Z</time>
      </trkpt>
      <trkpt lat="46.91361" lon="8.66338">
        <ele>1577</ele>
        <time>2021-08-07T09:37:54.595Z</time>
      </trkpt>
      <trkpt lat="46.91361" lon="8.66337">
        <ele>1576</ele>
        <time>2021-08-07T09:37:55.596Z</time>
      </trkpt>
      <trkpt lat="46.91361" lon="8.66335">
        <ele>1576</ele>
        <time>2021-08-07T09:37:56.595Z</time>
      </trkpt>
      <trkpt lat="46.91361" lon="8.66334">
        <ele>1576</ele>
        <time>2021-08-07T09:37:57.595Z</time>
      </trkpt>
      <trkpt lat="46.9136" lon="8.66332">
        <ele>1576</ele>
        <time>2021-08-07T09:37:58.596Z</time>
      </trkpt>
      <trkpt lat="46.9136" lon="8.66331">
        <ele>1576</ele>
        <time>2021-08-07T09:37:59.596Z</time>
      </trkpt>
      <trkpt lat="46.9136" lon="8.66329">
        <ele>1576</ele>
        <time>2021-08-07T09:38:00.596Z</time>
      </trkpt>
      <trkpt lat="46.9136" lon="8.66327">
        <ele>1576</ele>
        <time>2021-08-07T09:38:01.596Z</time>
      </trkpt>
      <trkpt lat="46.9136" lon="8.66326">
        <ele>1576</ele>
        <time>2021-08-07T09:38:02.595Z</time>
      </trkpt>
      <trkpt lat="46.9136" lon="8.66324">
        <ele>1576</ele>
        <time>2021-08-07T09:38:03.596Z</time>
      </trkpt>
      <trkpt lat="46.91359" lon="8.66323">
        <ele>1575</ele>
        <time>2021-08-07T09:38:04.596Z</time>
      </trkpt>
      <trkpt lat="46.91359" lon="8.66322">
        <ele>1575</ele>
        <time>2021-08-07T09:38:05.595Z</time>
      </trkpt>
      <trkpt lat="46.91359" lon="8.66321">
        <ele>1575</ele>
        <time>2021-08-07T09:38:06.596Z</time>
      </trkpt>
      <trkpt lat="46.91359" lon="8.66321">
        <ele>1575</ele>
        <time>2021-08-07T09:38:07.596Z</time>
      </trkpt>
      <trkpt lat="46.91358" lon="8.66321">
        <ele>1575</ele>
        <time>2021-08-07T09:38:08.596Z</time>
      </trkpt>
      <trkpt lat="46.91358" lon="8.6632">
        <ele>1575</ele>
        <time>2021-08-07T09:38:09.596Z</time>
      </trkpt>
      <trkpt lat="46.91357" lon="8.6632">
        <ele>1575</ele>
        <time>2021-08-07T09:38:10.596Z</time>
      </trkpt>
      <trkpt lat="46.91357" lon="8.6632">
        <ele>1574</ele>
        <time>2021-08-07T09:38:11.595Z</time>
      </trkpt>
      <trkpt lat="46.91357" lon="8.66319">
        <ele>1575</ele>
        <time>2021-08-07T09:38:12.595Z</time>
      </trkpt>
      <trkpt lat="46.91357" lon="8.66319">
        <ele>1574</ele>
        <time>2021-08-07T09:38:13.595Z</time>
      </trkpt>
      <trkpt lat="46.91356" lon="8.66319">
        <ele>1574</ele>
        <time>2021-08-07T09:38:14.595Z</time>
      </trkpt>
      <trkpt lat="46.91356" lon="8.66319">
        <ele>1574</ele>
        <time>2021-08-07T09:38:15.595Z</time>
      </trkpt>
      <trkpt lat="46.91356" lon="8.66319">
        <ele>1572</ele>
        <time>2021-08-07T09:38:16.596Z</time>
      </trkpt>
      <trkpt lat="46.91355" lon="8.66319">
        <ele>1572</ele>
        <time>2021-08-07T09:38:17.596Z</time>
      </trkpt>
      <trkpt lat="46.91354" lon="8.66319">
        <ele>1572</ele>
        <time>2021-08-07T09:38:18.595Z</time>
      </trkpt>
      <trkpt lat="46.91353" lon="8.66319">
        <ele>1572</ele>
        <time>2021-08-07T09:38:19.596Z</time>
      </trkpt>
      <trkpt lat="46.91352" lon="8.66319">
        <ele>1572</ele>
        <time>2021-08-07T09:38:20.596Z</time>
      </trkpt>
      <trkpt lat="46.91351" lon="8.66319">
        <ele>1572</ele>
        <time>2021-08-07T09:38:21.596Z</time>
      </trkpt>
      <trkpt lat="46.9135" lon="8.66319">
        <ele>1572</ele>
        <time>2021-08-07T09:38:22.596Z</time>
      </trkpt>
      <trkpt lat="46.91349" lon="8.66319">
        <ele>1573</ele>
        <time>2021-08-07T09:38:23.595Z</time>
      </trkpt>
      <trkpt lat="46.91349" lon="8.66319">
        <ele>1573</ele>
        <time>2021-08-07T09:38:24.596Z</time>
      </trkpt>
      <trkpt lat="46.91348" lon="8.66319">
        <ele>1574</ele>
        <time>2021-08-07T09:38:25.595Z</time>
      </trkpt>
      <trkpt lat="46.91347" lon="8.66319">
        <ele>1574</ele>
        <time>2021-08-07T09:38:26.596Z</time>
      </trkpt>
      <trkpt lat="46.91346" lon="8.66318">
        <ele>1574</ele>
        <time>2021-08-07T09:38:27.595Z</time>
      </trkpt>
      <trkpt lat="46.91345" lon="8.66318">
        <ele>1574</ele>
        <time>2021-08-07T09:38:28.596Z</time>
      </trkpt>
      <trkpt lat="46.91344" lon="8.66318">
        <ele>1574</ele>
        <time>2021-08-07T09:38:29.596Z</time>
      </trkpt>
      <trkpt lat="46.91343" lon="8.66317">
        <ele>1574</ele>
        <time>2021-08-07T09:38:30.596Z</time>
      </trkpt>
      <trkpt lat="46.91342" lon="8.66316">
        <ele>1574</ele>
        <time>2021-08-07T09:38:31.596Z</time>
      </trkpt>
      <trkpt lat="46.91341" lon="8.66315">
        <ele>1575</ele>
        <time>2021-08-07T09:38:32.595Z</time>
      </trkpt>
      <trkpt lat="46.91341" lon="8.66315">
        <ele>1574</ele>
        <time>2021-08-07T09:38:33.596Z</time>
      </trkpt>
      <trkpt lat="46.9134" lon="8.66315">
        <ele>1574</ele>
        <time>2021-08-07T09:38:34.596Z</time>
      </trkpt>
      <trkpt lat="46.9134" lon="8.66315">
        <ele>1573</ele>
        <time>2021-08-07T09:38:35.596Z</time>
      </trkpt>
      <trkpt lat="46.91339" lon="8.66314">
        <ele>1573</ele>
        <time>2021-08-07T09:38:36.595Z</time>
      </trkpt>
      <trkpt lat="46.91338" lon="8.66314">
        <ele>1572</ele>
        <time>2021-08-07T09:38:37.595Z</time>
      </trkpt>
      <trkpt lat="46.91338" lon="8.66313">
        <ele>1572</ele>
        <time>2021-08-07T09:38:38.596Z</time>
      </trkpt>
      <trkpt lat="46.91337" lon="8.66313">
        <ele>1571</ele>
        <time>2021-08-07T09:38:39.596Z</time>
      </trkpt>
      <trkpt lat="46.91337" lon="8.66312">
        <ele>1571</ele>
        <time>2021-08-07T09:38:40.596Z</time>
      </trkpt>
      <trkpt lat="46.91336" lon="8.66312">
        <ele>1571</ele>
        <time>2021-08-07T09:38:41.595Z</time>
      </trkpt>
      <trkpt lat="46.91335" lon="8.66311">
        <ele>1570</ele>
        <time>2021-08-07T09:38:42.596Z</time>
      </trkpt>
      <trkpt lat="46.91335" lon="8.66311">
        <ele>1570</ele>
        <time>2021-08-07T09:38:43.596Z</time>
      </trkpt>
      <trkpt lat="46.91334" lon="8.66311">
        <ele>1569</ele>
        <time>2021-08-07T09:38:44.595Z</time>
      </trkpt>
      <trkpt lat="46.91333" lon="8.66311">
        <ele>1569</ele>
        <time>2021-08-07T09:38:45.596Z</time>
      </trkpt>
      <trkpt lat="46.91333" lon="8.6631">
        <ele>1568</ele>
        <time>2021-08-07T09:38:46.596Z</time>
      </trkpt>
      <trkpt lat="46.91332" lon="8.66309">
        <ele>1567</ele>
        <time>2021-08-07T09:38:47.596Z</time>
      </trkpt>
      <trkpt lat="46.91331" lon="8.66308">
        <ele>1567</ele>
        <time>2021-08-07T09:38:48.596Z</time>
      </trkpt>
      <trkpt lat="46.91331" lon="8.66307">
        <ele>1566</ele>
        <time>2021-08-07T09:38:49.595Z</time>
      </trkpt>
      <trkpt lat="46.9133" lon="8.66306">
        <ele>1565</ele>
        <time>2021-08-07T09:38:50.596Z</time>
      </trkpt>
      <trkpt lat="46.91329" lon="8.66305">
        <ele>1565</ele>
        <time>2021-08-07T09:38:51.595Z</time>
      </trkpt>
      <trkpt lat="46.91329" lon="8.66304">
        <ele>1565</ele>
        <time>2021-08-07T09:38:52.596Z</time>
      </trkpt>
      <trkpt lat="46.91328" lon="8.66303">
        <ele>1565</ele>
        <time>2021-08-07T09:38:53.596Z</time>
      </trkpt>
      <trkpt lat="46.91328" lon="8.66302">
        <ele>1565</ele>
        <time>2021-08-07T09:38:54.596Z</time>
      </trkpt>
      <trkpt lat="46.91328" lon="8.66301">
        <ele>1566</ele>
        <time>2021-08-07T09:38:55.596Z</time>
      </trkpt>
      <trkpt lat="46.91328" lon="8.663">
        <ele>1566</ele>
        <time>2021-08-07T09:38:56.595Z</time>
      </trkpt>
      <trkpt lat="46.91327" lon="8.66299">
        <ele>1566</ele>
        <time>2021-08-07T09:38:57.596Z</time>
      </trkpt>
      <trkpt lat="46.91327" lon="8.66298">
        <ele>1566</ele>
        <time>2021-08-07T09:38:58.595Z</time>
      </trkpt>
      <trkpt lat="46.91327" lon="8.66297">
        <ele>1566</ele>
        <time>2021-08-07T09:38:59.596Z</time>
      </trkpt>
      <trkpt lat="46.91326" lon="8.66296">
        <ele>1566</ele>
        <time>2021-08-07T09:39:00.595Z</time>
      </trkpt>
      <trkpt lat="46.91326" lon="8.66296">
        <ele>1565</ele>
        <time>2021-08-07T09:39:01.596Z</time>
      </trkpt>
      <trkpt lat="46.91327" lon="8.66296">
        <ele>1565</ele>
        <time>2021-08-07T09:39:02.596Z</time>
      </trkpt>
      <trkpt lat="46.91327" lon="8.66295">
        <ele>1565</ele>
        <time>2021-08-07T09:39:03.596Z</time>
      </trkpt>
      <trkpt lat="46.91327" lon="8.66295">
        <ele>1564</ele>
        <time>2021-08-07T09:39:04.596Z</time>
      </trkpt>
      <trkpt lat="46.91327" lon="8.66295">
        <ele>1564</ele>
        <time>2021-08-07T09:39:05.595Z</time>
      </trkpt>
      <trkpt lat="46.91326" lon="8.66292">
        <ele>1565</ele>
        <time>2021-08-07T09:39:06.596Z</time>
      </trkpt>
      <trkpt lat="46.91326" lon="8.66291">
        <ele>1565</ele>
        <time>2021-08-07T09:39:07.595Z</time>
      </trkpt>
      <trkpt lat="46.91327" lon="8.6629">
        <ele>1565</ele>
        <time>2021-08-07T09:39:08.595Z</time>
      </trkpt>
      <trkpt lat="46.91327" lon="8.6629">
        <ele>1564</ele>
        <time>2021-08-07T09:39:09.596Z</time>
      </trkpt>
      <trkpt lat="46.91327" lon="8.66289">
        <ele>1564</ele>
        <time>2021-08-07T09:39:10.596Z</time>
      </trkpt>
      <trkpt lat="46.91327" lon="8.66288">
        <ele>1563</ele>
        <time>2021-08-07T09:39:11.596Z</time>
      </trkpt>
      <trkpt lat="46.91327" lon="8.66287">
        <ele>1564</ele>
        <time>2021-08-07T09:39:12.595Z</time>
      </trkpt>
      <trkpt lat="46.91327" lon="8.66287">
        <ele>1564</ele>
        <time>2021-08-07T09:39:13.595Z</time>
      </trkpt>
      <trkpt lat="46.91327" lon="8.66286">
        <ele>1564</ele>
        <time>2021-08-07T09:39:14.595Z</time>
      </trkpt>
      <trkpt lat="46.91326" lon="8.66286">
        <ele>1564</ele>
        <time>2021-08-07T09:39:15.596Z</time>
      </trkpt>
      <trkpt lat="46.91326" lon="8.66285">
        <ele>1564</ele>
        <time>2021-08-07T09:39:16.596Z</time>
      </trkpt>
      <trkpt lat="46.91326" lon="8.66285">
        <ele>1564</ele>
        <time>2021-08-07T09:39:17.596Z</time>
      </trkpt>
      <trkpt lat="46.91326" lon="8.66285">
        <ele>1563</ele>
        <time>2021-08-07T09:39:18.596Z</time>
      </trkpt>
      <trkpt lat="46.91326" lon="8.66284">
        <ele>1563</ele>
        <time>2021-08-07T09:39:19.595Z</time>
      </trkpt>
      <trkpt lat="46.91326" lon="8.66284">
        <ele>1563</ele>
        <time>2021-08-07T09:39:20.596Z</time>
      </trkpt>
      <trkpt lat="46.91325" lon="8.66283">
        <ele>1563</ele>
        <time>2021-08-07T09:39:21.596Z</time>
      </trkpt>
      <trkpt lat="46.91325" lon="8.66282">
        <ele>1563</ele>
        <time>2021-08-07T09:39:22.595Z</time>
      </trkpt>
      <trkpt lat="46.91325" lon="8.66282">
        <ele>1562</ele>
        <time>2021-08-07T09:39:23.596Z</time>
      </trkpt>
      <trkpt lat="46.91325" lon="8.66282">
        <ele>1562</ele>
        <time>2021-08-07T09:39:24.595Z</time>
      </trkpt>
      <trkpt lat="46.91325" lon="8.66281">
        <ele>1562</ele>
        <time>2021-08-07T09:39:25.596Z</time>
      </trkpt>
      <trkpt lat="46.91325" lon="8.66281">
        <ele>1562</ele>
        <time>2021-08-07T09:39:29.745Z</time>
      </trkpt>
      <trkpt lat="46.91325" lon="8.6628">
        <ele>1561</ele>
        <time>2021-08-07T09:39:30.745Z</time>
      </trkpt>
      <trkpt lat="46.91325" lon="8.6628">
        <ele>1561</ele>
        <time>2021-08-07T09:39:31.745Z</time>
      </trkpt>
      <trkpt lat="46.91325" lon="8.66279">
        <ele>1561</ele>
        <time>2021-08-07T09:39:32.745Z</time>
      </trkpt>
      <trkpt lat="46.91325" lon="8.66279">
        <ele>1561</ele>
        <time>2021-08-07T09:39:33.745Z</time>
      </trkpt>
      <trkpt lat="46.91325" lon="8.66278">
        <ele>1560</ele>
        <time>2021-08-07T09:39:34.745Z</time>
      </trkpt>
      <trkpt lat="46.91325" lon="8.66277">
        <ele>1559</ele>
        <time>2021-08-07T09:39:35.745Z</time>
      </trkpt>
      <trkpt lat="46.91325" lon="8.66276">
        <ele>1559</ele>
        <time>2021-08-07T09:39:36.745Z</time>
      </trkpt>
      <trkpt lat="46.91325" lon="8.66276">
        <ele>1558</ele>
        <time>2021-08-07T09:39:37.745Z</time>
      </trkpt>
      <trkpt lat="46.91325" lon="8.66275">
        <ele>1558</ele>
        <time>2021-08-07T09:39:38.745Z</time>
      </trkpt>
      <trkpt lat="46.91325" lon="8.66275">
        <ele>1558</ele>
        <time>2021-08-07T09:39:39.745Z</time>
      </trkpt>
      <trkpt lat="46.91325" lon="8.66275">
        <ele>1558</ele>
        <time>2021-08-07T09:39:40.745Z</time>
      </trkpt>
      <trkpt lat="46.91324" lon="8.66275">
        <ele>1558</ele>
        <time>2021-08-07T09:39:41.745Z</time>
      </trkpt>
      <trkpt lat="46.91324" lon="8.66274">
        <ele>1558</ele>
        <time>2021-08-07T09:39:42.745Z</time>
      </trkpt>
      <trkpt lat="46.91324" lon="8.66274">
        <ele>1558</ele>
        <time>2021-08-07T09:39:43.745Z</time>
      </trkpt>
      <trkpt lat="46.91324" lon="8.66274">
        <ele>1558</ele>
        <time>2021-08-07T09:39:44.744Z</time>
      </trkpt>
      <trkpt lat="46.91324" lon="8.66274">
        <ele>1558</ele>
        <time>2021-08-07T09:39:45.745Z</time>
      </trkpt>
      <trkpt lat="46.91324" lon="8.66274">
        <ele>1558</ele>
        <time>2021-08-07T09:39:46.745Z</time>
      </trkpt>
      <trkpt lat="46.91325" lon="8.66273">
        <ele>1558</ele>
        <time>2021-08-07T09:39:47.744Z</time>
      </trkpt>
      <trkpt lat="46.91325" lon="8.66272">
        <ele>1558</ele>
        <time>2021-08-07T09:39:48.745Z</time>
      </trkpt>
      <trkpt lat="46.91325" lon="8.66271">
        <ele>1559</ele>
        <time>2021-08-07T09:39:49.744Z</time>
      </trkpt>
      <trkpt lat="46.91325" lon="8.6627">
        <ele>1559</ele>
        <time>2021-08-07T09:39:50.744Z</time>
      </trkpt>
      <trkpt lat="46.91325" lon="8.66269">
        <ele>1560</ele>
        <time>2021-08-07T09:39:51.745Z</time>
      </trkpt>
      <trkpt lat="46.91325" lon="8.66269">
        <ele>1560</ele>
        <time>2021-08-07T09:39:52.745Z</time>
      </trkpt>
      <trkpt lat="46.91325" lon="8.66268">
        <ele>1560</ele>
        <time>2021-08-07T09:39:53.745Z</time>
      </trkpt>
      <trkpt lat="46.91325" lon="8.66267">
        <ele>1560</ele>
        <time>2021-08-07T09:39:54.745Z</time>
      </trkpt>
      <trkpt lat="46.91325" lon="8.66266">
        <ele>1560</ele>
        <time>2021-08-07T09:39:55.744Z</time>
      </trkpt>
      <trkpt lat="46.91325" lon="8.66265">
        <ele>1560</ele>
        <time>2021-08-07T09:39:56.744Z</time>
      </trkpt>
      <trkpt lat="46.91325" lon="8.66265">
        <ele>1559</ele>
        <time>2021-08-07T09:39:57.745Z</time>
      </trkpt>
      <trkpt lat="46.91325" lon="8.66264">
        <ele>1559</ele>
        <time>2021-08-07T09:39:58.745Z</time>
      </trkpt>
      <trkpt lat="46.91325" lon="8.66262">
        <ele>1558</ele>
        <time>2021-08-07T09:39:59.745Z</time>
      </trkpt>
      <trkpt lat="46.91325" lon="8.66261">
        <ele>1557</ele>
        <time>2021-08-07T09:40:00.745Z</time>
      </trkpt>
      <trkpt lat="46.91325" lon="8.6626">
        <ele>1557</ele>
        <time>2021-08-07T09:40:01.744Z</time>
      </trkpt>
      <trkpt lat="46.91325" lon="8.6626">
        <ele>1556</ele>
        <time>2021-08-07T09:40:02.745Z</time>
      </trkpt>
      <trkpt lat="46.91324" lon="8.66259">
        <ele>1555</ele>
        <time>2021-08-07T09:40:03.745Z</time>
      </trkpt>
      <trkpt lat="46.91325" lon="8.66258">
        <ele>1554</ele>
        <time>2021-08-07T09:40:04.745Z</time>
      </trkpt>
      <trkpt lat="46.91325" lon="8.66256">
        <ele>1553</ele>
        <time>2021-08-07T09:40:05.745Z</time>
      </trkpt>
      <trkpt lat="46.91326" lon="8.66255">
        <ele>1552</ele>
        <time>2021-08-07T09:40:06.745Z</time>
      </trkpt>
      <trkpt lat="46.91326" lon="8.66253">
        <ele>1552</ele>
        <time>2021-08-07T09:40:07.745Z</time>
      </trkpt>
      <trkpt lat="46.91326" lon="8.66252">
        <ele>1551</ele>
        <time>2021-08-07T09:40:08.745Z</time>
      </trkpt>
      <trkpt lat="46.91327" lon="8.66251">
        <ele>1551</ele>
        <time>2021-08-07T09:40:09.744Z</time>
      </trkpt>
      <trkpt lat="46.91326" lon="8.66249">
        <ele>1551</ele>
        <time>2021-08-07T09:40:10.745Z</time>
      </trkpt>
      <trkpt lat="46.91326" lon="8.66248">
        <ele>1551</ele>
        <time>2021-08-07T09:40:11.744Z</time>
      </trkpt>
      <trkpt lat="46.91325" lon="8.66247">
        <ele>1551</ele>
        <time>2021-08-07T09:40:12.745Z</time>
      </trkpt>
      <trkpt lat="46.91325" lon="8.66247">
        <ele>1551</ele>
        <time>2021-08-07T09:40:13.745Z</time>
      </trkpt>
      <trkpt lat="46.91325" lon="8.66246">
        <ele>1551</ele>
        <time>2021-08-07T09:40:14.745Z</time>
      </trkpt>
      <trkpt lat="46.91324" lon="8.66246">
        <ele>1551</ele>
        <time>2021-08-07T09:40:15.745Z</time>
      </trkpt>
      <trkpt lat="46.91324" lon="8.66246">
        <ele>1551</ele>
        <time>2021-08-07T09:40:16.745Z</time>
      </trkpt>
      <trkpt lat="46.91324" lon="8.66245">
        <ele>1551</ele>
        <time>2021-08-07T09:40:17.745Z</time>
      </trkpt>
      <trkpt lat="46.91324" lon="8.66244">
        <ele>1551</ele>
        <time>2021-08-07T09:40:18.745Z</time>
      </trkpt>
      <trkpt lat="46.91324" lon="8.66243">
        <ele>1550</ele>
        <time>2021-08-07T09:40:19.744Z</time>
      </trkpt>
      <trkpt lat="46.91324" lon="8.66243">
        <ele>1550</ele>
        <time>2021-08-07T09:40:20.745Z</time>
      </trkpt>
      <trkpt lat="46.91325" lon="8.66244">
        <ele>1552</ele>
        <time>2021-08-07T09:40:21.745Z</time>
      </trkpt>
      <trkpt lat="46.91326" lon="8.66244">
        <ele>1552</ele>
        <time>2021-08-07T09:40:22.744Z</time>
      </trkpt>
      <trkpt lat="46.91326" lon="8.66243">
        <ele>1552</ele>
        <time>2021-08-07T09:40:23.745Z</time>
      </trkpt>
      <trkpt lat="46.91326" lon="8.66243">
        <ele>1552</ele>
        <time>2021-08-07T09:40:24.745Z</time>
      </trkpt>
      <trkpt lat="46.91327" lon="8.66242">
        <ele>1553</ele>
        <time>2021-08-07T09:40:25.745Z</time>
      </trkpt>
      <trkpt lat="46.91327" lon="8.66242">
        <ele>1553</ele>
        <time>2021-08-07T09:40:26.745Z</time>
      </trkpt>
      <trkpt lat="46.91328" lon="8.6624">
        <ele>1553</ele>
        <time>2021-08-07T09:40:27.744Z</time>
      </trkpt>
      <trkpt lat="46.91328" lon="8.66239">
        <ele>1553</ele>
        <time>2021-08-07T09:40:28.745Z</time>
      </trkpt>
      <trkpt lat="46.91328" lon="8.66238">
        <ele>1553</ele>
        <time>2021-08-07T09:40:29.744Z</time>
      </trkpt>
      <trkpt lat="46.91328" lon="8.66237">
        <ele>1552</ele>
        <time>2021-08-07T09:40:30.744Z</time>
      </trkpt>
      <trkpt lat="46.91328" lon="8.66236">
        <ele>1552</ele>
        <time>2021-08-07T09:40:31.745Z</time>
      </trkpt>
      <trkpt lat="46.91329" lon="8.66235">
        <ele>1552</ele>
        <time>2021-08-07T09:40:32.745Z</time>
      </trkpt>
      <trkpt lat="46.91329" lon="8.66234">
        <ele>1551</ele>
        <time>2021-08-07T09:40:33.745Z</time>
      </trkpt>
      <trkpt lat="46.91329" lon="8.66233">
        <ele>1551</ele>
        <time>2021-08-07T09:40:37.851Z</time>
      </trkpt>
      <trkpt lat="46.9133" lon="8.66232">
        <ele>1550</ele>
        <time>2021-08-07T09:40:38.851Z</time>
      </trkpt>
      <trkpt lat="46.9133" lon="8.66231">
        <ele>1550</ele>
        <time>2021-08-07T09:40:39.850Z</time>
      </trkpt>
      <trkpt lat="46.91331" lon="8.6623">
        <ele>1550</ele>
        <time>2021-08-07T09:40:40.851Z</time>
      </trkpt>
      <trkpt lat="46.91332" lon="8.6623">
        <ele>1550</ele>
        <time>2021-08-07T09:40:41.850Z</time>
      </trkpt>
      <trkpt lat="46.91332" lon="8.66229">
        <ele>1549</ele>
        <time>2021-08-07T09:40:42.850Z</time>
      </trkpt>
      <trkpt lat="46.91333" lon="8.66228">
        <ele>1549</ele>
        <time>2021-08-07T09:40:43.850Z</time>
      </trkpt>
      <trkpt lat="46.91333" lon="8.66227">
        <ele>1549</ele>
        <time>2021-08-07T09:40:44.850Z</time>
      </trkpt>
      <trkpt lat="46.91334" lon="8.66226">
        <ele>1549</ele>
        <time>2021-08-07T09:40:45.851Z</time>
      </trkpt>
      <trkpt lat="46.91334" lon="8.66225">
        <ele>1549</ele>
        <time>2021-08-07T09:40:46.850Z</time>
      </trkpt>
      <trkpt lat="46.91334" lon="8.66224">
        <ele>1548</ele>
        <time>2021-08-07T09:40:47.850Z</time>
      </trkpt>
      <trkpt lat="46.91334" lon="8.66224">
        <ele>1548</ele>
        <time>2021-08-07T09:40:50.923Z</time>
      </trkpt>
      <trkpt lat="46.91335" lon="8.66223">
        <ele>1548</ele>
        <time>2021-08-07T09:40:51.922Z</time>
      </trkpt>
      <trkpt lat="46.91335" lon="8.66223">
        <ele>1547</ele>
        <time>2021-08-07T09:40:52.922Z</time>
      </trkpt>
      <trkpt lat="46.91335" lon="8.66222">
        <ele>1547</ele>
        <time>2021-08-07T09:40:53.922Z</time>
      </trkpt>
      <trkpt lat="46.91337" lon="8.6622">
        <ele>1553</ele>
        <time>2021-08-07T09:40:54.923Z</time>
      </trkpt>
      <trkpt lat="46.91337" lon="8.66219">
        <ele>1553</ele>
        <time>2021-08-07T09:40:55.924Z</time>
      </trkpt>
      <trkpt lat="46.91337" lon="8.66217">
        <ele>1552</ele>
        <time>2021-08-07T09:40:56.924Z</time>
      </trkpt>
      <trkpt lat="46.91337" lon="8.66216">
        <ele>1552</ele>
        <time>2021-08-07T09:40:57.924Z</time>
      </trkpt>
      <trkpt lat="46.91336" lon="8.66214">
        <ele>1551</ele>
        <time>2021-08-07T09:40:58.924Z</time>
      </trkpt>
      <trkpt lat="46.91336" lon="8.66213">
        <ele>1551</ele>
        <time>2021-08-07T09:40:59.923Z</time>
      </trkpt>
      <trkpt lat="46.91336" lon="8.66211">
        <ele>1550</ele>
        <time>2021-08-07T09:41:00.924Z</time>
      </trkpt>
      <trkpt lat="46.91337" lon="8.66209">
        <ele>1550</ele>
        <time>2021-08-07T09:41:01.923Z</time>
      </trkpt>
      <trkpt lat="46.91337" lon="8.66208">
        <ele>1549</ele>
        <time>2021-08-07T09:41:02.924Z</time>
      </trkpt>
      <trkpt lat="46.91337" lon="8.66207">
        <ele>1549</ele>
        <time>2021-08-07T09:41:03.924Z</time>
      </trkpt>
      <trkpt lat="46.91337" lon="8.66206">
        <ele>1549</ele>
        <time>2021-08-07T09:41:04.923Z</time>
      </trkpt>
      <trkpt lat="46.91337" lon="8.66204">
        <ele>1549</ele>
        <time>2021-08-07T09:41:05.924Z</time>
      </trkpt>
      <trkpt lat="46.91338" lon="8.66203">
        <ele>1549</ele>
        <time>2021-08-07T09:41:06.924Z</time>
      </trkpt>
      <trkpt lat="46.91338" lon="8.66203">
        <ele>1548</ele>
        <time>2021-08-07T09:41:07.924Z</time>
      </trkpt>
      <trkpt lat="46.91338" lon="8.66202">
        <ele>1547</ele>
        <time>2021-08-07T09:41:08.923Z</time>
      </trkpt>
      <trkpt lat="46.91338" lon="8.66202">
        <ele>1546</ele>
        <time>2021-08-07T09:41:09.923Z</time>
      </trkpt>
      <trkpt lat="46.91338" lon="8.66201">
        <ele>1546</ele>
        <time>2021-08-07T09:41:10.923Z</time>
      </trkpt>
      <trkpt lat="46.91338" lon="8.662">
        <ele>1545</ele>
        <time>2021-08-07T09:41:11.923Z</time>
      </trkpt>
      <trkpt lat="46.91338" lon="8.66199">
        <ele>1544</ele>
        <time>2021-08-07T09:41:15.936Z</time>
      </trkpt>
      <trkpt lat="46.91338" lon="8.66198">
        <ele>1544</ele>
        <time>2021-08-07T09:41:16.937Z</time>
      </trkpt>
      <trkpt lat="46.91339" lon="8.66198">
        <ele>1543</ele>
        <time>2021-08-07T09:41:17.936Z</time>
      </trkpt>
      <trkpt lat="46.91339" lon="8.66197">
        <ele>1543</ele>
        <time>2021-08-07T09:41:18.937Z</time>
      </trkpt>
      <trkpt lat="46.91339" lon="8.66197">
        <ele>1543</ele>
        <time>2021-08-07T09:41:19.937Z</time>
      </trkpt>
      <trkpt lat="46.91339" lon="8.66197">
        <ele>1543</ele>
        <time>2021-08-07T09:41:20.937Z</time>
      </trkpt>
      <trkpt lat="46.91339" lon="8.66196">
        <ele>1543</ele>
        <time>2021-08-07T09:41:21.936Z</time>
      </trkpt>
      <trkpt lat="46.91339" lon="8.66196">
        <ele>1543</ele>
        <time>2021-08-07T09:41:22.936Z</time>
      </trkpt>
      <trkpt lat="46.91339" lon="8.66195">
        <ele>1543</ele>
        <time>2021-08-07T09:41:23.937Z</time>
      </trkpt>
      <trkpt lat="46.91339" lon="8.66195">
        <ele>1543</ele>
        <time>2021-08-07T09:41:24.937Z</time>
      </trkpt>
      <trkpt lat="46.9134" lon="8.66194">
        <ele>1543</ele>
        <time>2021-08-07T09:41:25.936Z</time>
      </trkpt>
      <trkpt lat="46.9134" lon="8.66194">
        <ele>1542</ele>
        <time>2021-08-07T09:41:26.937Z</time>
      </trkpt>
      <trkpt lat="46.9134" lon="8.66193">
        <ele>1542</ele>
        <time>2021-08-07T09:41:27.937Z</time>
      </trkpt>
      <trkpt lat="46.9134" lon="8.66192">
        <ele>1541</ele>
        <time>2021-08-07T09:41:28.937Z</time>
      </trkpt>
      <trkpt lat="46.91341" lon="8.6619">
        <ele>1541</ele>
        <time>2021-08-07T09:41:29.937Z</time>
      </trkpt>
      <trkpt lat="46.91341" lon="8.66189">
        <ele>1540</ele>
        <time>2021-08-07T09:41:30.936Z</time>
      </trkpt>
      <trkpt lat="46.91342" lon="8.66188">
        <ele>1540</ele>
        <time>2021-08-07T09:41:31.937Z</time>
      </trkpt>
      <trkpt lat="46.91342" lon="8.66186">
        <ele>1541</ele>
        <time>2021-08-07T09:41:32.936Z</time>
      </trkpt>
      <trkpt lat="46.91342" lon="8.66185">
        <ele>1542</ele>
        <time>2021-08-07T09:41:33.937Z</time>
      </trkpt>
      <trkpt lat="46.91342" lon="8.66184">
        <ele>1542</ele>
        <time>2021-08-07T09:41:34.937Z</time>
      </trkpt>
      <trkpt lat="46.91342" lon="8.66183">
        <ele>1542</ele>
        <time>2021-08-07T09:41:35.937Z</time>
      </trkpt>
      <trkpt lat="46.91342" lon="8.66181">
        <ele>1542</ele>
        <time>2021-08-07T09:41:36.937Z</time>
      </trkpt>
      <trkpt lat="46.91342" lon="8.6618">
        <ele>1541</ele>
        <time>2021-08-07T09:41:37.937Z</time>
      </trkpt>
      <trkpt lat="46.91343" lon="8.66178">
        <ele>1541</ele>
        <time>2021-08-07T09:41:38.937Z</time>
      </trkpt>
      <trkpt lat="46.91343" lon="8.66177">
        <ele>1541</ele>
        <time>2021-08-07T09:41:39.937Z</time>
      </trkpt>
      <trkpt lat="46.91343" lon="8.66176">
        <ele>1540</ele>
        <time>2021-08-07T09:41:40.936Z</time>
      </trkpt>
      <trkpt lat="46.91343" lon="8.66174">
        <ele>1540</ele>
        <time>2021-08-07T09:41:41.936Z</time>
      </trkpt>
      <trkpt lat="46.91343" lon="8.66173">
        <ele>1540</ele>
        <time>2021-08-07T09:41:42.937Z</time>
      </trkpt>
      <trkpt lat="46.91343" lon="8.66172">
        <ele>1539</ele>
        <time>2021-08-07T09:41:43.937Z</time>
      </trkpt>
      <trkpt lat="46.91343" lon="8.66171">
        <ele>1538</ele>
        <time>2021-08-07T09:41:44.936Z</time>
      </trkpt>
      <trkpt lat="46.91344" lon="8.66169">
        <ele>1538</ele>
        <time>2021-08-07T09:41:45.937Z</time>
      </trkpt>
      <trkpt lat="46.91344" lon="8.66168">
        <ele>1538</ele>
        <time>2021-08-07T09:41:46.937Z</time>
      </trkpt>
      <trkpt lat="46.91344" lon="8.66166">
        <ele>1538</ele>
        <time>2021-08-07T09:41:47.936Z</time>
      </trkpt>
      <trkpt lat="46.91344" lon="8.66165">
        <ele>1538</ele>
        <time>2021-08-07T09:41:48.937Z</time>
      </trkpt>
      <trkpt lat="46.91344" lon="8.66164">
        <ele>1537</ele>
        <time>2021-08-07T09:41:49.937Z</time>
      </trkpt>
      <trkpt lat="46.91344" lon="8.66163">
        <ele>1536</ele>
        <time>2021-08-07T09:41:50.936Z</time>
      </trkpt>
      <trkpt lat="46.91344" lon="8.66162">
        <ele>1535</ele>
        <time>2021-08-07T09:41:51.936Z</time>
      </trkpt>
      <trkpt lat="46.91344" lon="8.66161">
        <ele>1535</ele>
        <time>2021-08-07T09:41:52.937Z</time>
      </trkpt>
      <trkpt lat="46.91345" lon="8.6616">
        <ele>1534</ele>
        <time>2021-08-07T09:41:53.937Z</time>
      </trkpt>
      <trkpt lat="46.91346" lon="8.66158">
        <ele>1534</ele>
        <time>2021-08-07T09:41:54.937Z</time>
      </trkpt>
      <trkpt lat="46.91346" lon="8.66157">
        <ele>1534</ele>
        <time>2021-08-07T09:41:55.936Z</time>
      </trkpt>
      <trkpt lat="46.91347" lon="8.66156">
        <ele>1533</ele>
        <time>2021-08-07T09:41:56.936Z</time>
      </trkpt>
      <trkpt lat="46.91347" lon="8.66156">
        <ele>1533</ele>
        <time>2021-08-07T09:41:57.937Z</time>
      </trkpt>
      <trkpt lat="46.91348" lon="8.66155">
        <ele>1533</ele>
        <time>2021-08-07T09:41:58.937Z</time>
      </trkpt>
      <trkpt lat="46.91348" lon="8.66154">
        <ele>1532</ele>
        <time>2021-08-07T09:41:59.936Z</time>
      </trkpt>
      <trkpt lat="46.91349" lon="8.66153">
        <ele>1532</ele>
        <time>2021-08-07T09:42:00.937Z</time>
      </trkpt>
      <trkpt lat="46.91349" lon="8.66152">
        <ele>1531</ele>
        <time>2021-08-07T09:42:01.937Z</time>
      </trkpt>
      <trkpt lat="46.91349" lon="8.66151">
        <ele>1531</ele>
        <time>2021-08-07T09:42:02.936Z</time>
      </trkpt>
      <trkpt lat="46.91349" lon="8.6615">
        <ele>1531</ele>
        <time>2021-08-07T09:42:03.936Z</time>
      </trkpt>
      <trkpt lat="46.9135" lon="8.66149">
        <ele>1531</ele>
        <time>2021-08-07T09:42:04.936Z</time>
      </trkpt>
      <trkpt lat="46.9135" lon="8.66148">
        <ele>1531</ele>
        <time>2021-08-07T09:42:05.937Z</time>
      </trkpt>
      <trkpt lat="46.9135" lon="8.66146">
        <ele>1532</ele>
        <time>2021-08-07T09:42:06.936Z</time>
      </trkpt>
      <trkpt lat="46.9135" lon="8.66145">
        <ele>1532</ele>
        <time>2021-08-07T09:42:07.936Z</time>
      </trkpt>
      <trkpt lat="46.9135" lon="8.66143">
        <ele>1532</ele>
        <time>2021-08-07T09:42:08.936Z</time>
      </trkpt>
      <trkpt lat="46.9135" lon="8.66142">
        <ele>1532</ele>
        <time>2021-08-07T09:42:09.936Z</time>
      </trkpt>
      <trkpt lat="46.91351" lon="8.6614">
        <ele>1532</ele>
        <time>2021-08-07T09:42:10.936Z</time>
      </trkpt>
      <trkpt lat="46.91351" lon="8.66138">
        <ele>1531</ele>
        <time>2021-08-07T09:42:11.936Z</time>
      </trkpt>
      <trkpt lat="46.91352" lon="8.66137">
        <ele>1531</ele>
        <time>2021-08-07T09:42:12.936Z</time>
      </trkpt>
      <trkpt lat="46.91352" lon="8.66136">
        <ele>1531</ele>
        <time>2021-08-07T09:42:13.936Z</time>
      </trkpt>
      <trkpt lat="46.91352" lon="8.66135">
        <ele>1530</ele>
        <time>2021-08-07T09:42:14.936Z</time>
      </trkpt>
      <trkpt lat="46.91353" lon="8.66134">
        <ele>1529</ele>
        <time>2021-08-07T09:42:15.936Z</time>
      </trkpt>
      <trkpt lat="46.91353" lon="8.66133">
        <ele>1529</ele>
        <time>2021-08-07T09:42:16.936Z</time>
      </trkpt>
      <trkpt lat="46.91353" lon="8.66133">
        <ele>1529</ele>
        <time>2021-08-07T09:42:17.936Z</time>
      </trkpt>
      <trkpt lat="46.91354" lon="8.66133">
        <ele>1532</ele>
        <time>2021-08-07T09:42:18.936Z</time>
      </trkpt>
      <trkpt lat="46.91352" lon="8.66136">
        <ele>1531</ele>
        <time>2021-08-07T09:42:19.937Z</time>
      </trkpt>
      <trkpt lat="46.91351" lon="8.66136">
        <ele>1531</ele>
        <time>2021-08-07T09:42:20.936Z</time>
      </trkpt>
      <trkpt lat="46.91351" lon="8.66135">
        <ele>1530</ele>
        <time>2021-08-07T09:42:21.936Z</time>
      </trkpt>
      <trkpt lat="46.91351" lon="8.66135">
        <ele>1530</ele>
        <time>2021-08-07T09:42:22.936Z</time>
      </trkpt>
      <trkpt lat="46.91352" lon="8.66134">
        <ele>1530</ele>
        <time>2021-08-07T09:42:23.936Z</time>
      </trkpt>
      <trkpt lat="46.91352" lon="8.66135">
        <ele>1530</ele>
        <time>2021-08-07T09:42:24.937Z</time>
      </trkpt>
      <trkpt lat="46.91354" lon="8.66135">
        <ele>1530</ele>
        <time>2021-08-07T09:42:25.937Z</time>
      </trkpt>
      <trkpt lat="46.91353" lon="8.66135">
        <ele>1530</ele>
        <time>2021-08-07T09:42:26.938Z</time>
      </trkpt>
      <trkpt lat="46.91353" lon="8.66134">
        <ele>1531</ele>
        <time>2021-08-07T09:42:27.938Z</time>
      </trkpt>
      <trkpt lat="46.91354" lon="8.66135">
        <ele>1536</ele>
        <time>2021-08-07T09:42:28.939Z</time>
      </trkpt>
      <trkpt lat="46.91354" lon="8.66135">
        <ele>1537</ele>
        <time>2021-08-07T09:42:29.939Z</time>
      </trkpt>
      <trkpt lat="46.91353" lon="8.66134">
        <ele>1545</ele>
        <time>2021-08-07T09:42:30.940Z</time>
      </trkpt>
      <trkpt lat="46.91352" lon="8.66135">
        <ele>1545</ele>
        <time>2021-08-07T09:42:31.940Z</time>
      </trkpt>
      <trkpt lat="46.91352" lon="8.66135">
        <ele>1545</ele>
        <time>2021-08-07T09:42:34.079Z</time>
      </trkpt>
      <trkpt lat="46.91352" lon="8.66135">
        <ele>1546</ele>
        <time>2021-08-07T09:42:35.079Z</time>
      </trkpt>
      <trkpt lat="46.91351" lon="8.66135">
        <ele>1546</ele>
        <time>2021-08-07T09:42:36.079Z</time>
      </trkpt>
      <trkpt lat="46.91351" lon="8.66135">
        <ele>1545</ele>
        <time>2021-08-07T09:42:37.080Z</time>
      </trkpt>
      <trkpt lat="46.91352" lon="8.66134">
        <ele>1545</ele>
        <time>2021-08-07T09:42:38.080Z</time>
      </trkpt>
      <trkpt lat="46.91352" lon="8.66133">
        <ele>1544</ele>
        <time>2021-08-07T09:42:39.080Z</time>
      </trkpt>
      <trkpt lat="46.91353" lon="8.66131">
        <ele>1543</ele>
        <time>2021-08-07T09:42:40.080Z</time>
      </trkpt>
      <trkpt lat="46.91353" lon="8.6613">
        <ele>1543</ele>
        <time>2021-08-07T09:42:41.079Z</time>
      </trkpt>
      <trkpt lat="46.91354" lon="8.6613">
        <ele>1542</ele>
        <time>2021-08-07T09:42:42.080Z</time>
      </trkpt>
      <trkpt lat="46.91354" lon="8.66129">
        <ele>1542</ele>
        <time>2021-08-07T09:42:51.204Z</time>
      </trkpt>
      <trkpt lat="46.91354" lon="8.66129">
        <ele>1541</ele>
        <time>2021-08-07T09:42:59.061Z</time>
      </trkpt>
      <trkpt lat="46.91354" lon="8.66129">
        <ele>1541</ele>
        <time>2021-08-07T09:43:00.061Z</time>
      </trkpt>
      <trkpt lat="46.91353" lon="8.66128">
        <ele>1537</ele>
        <time>2021-08-07T09:43:01.061Z</time>
      </trkpt>
      <trkpt lat="46.91353" lon="8.66127">
        <ele>1536</ele>
        <time>2021-08-07T09:43:02.061Z</time>
      </trkpt>
      <trkpt lat="46.91353" lon="8.66126">
        <ele>1536</ele>
        <time>2021-08-07T09:43:03.062Z</time>
      </trkpt>
      <trkpt lat="46.91353" lon="8.66125">
        <ele>1535</ele>
        <time>2021-08-07T09:43:04.061Z</time>
      </trkpt>
      <trkpt lat="46.91353" lon="8.66124">
        <ele>1534</ele>
        <time>2021-08-07T09:43:05.061Z</time>
      </trkpt>
      <trkpt lat="46.91353" lon="8.66123">
        <ele>1534</ele>
        <time>2021-08-07T09:43:06.061Z</time>
      </trkpt>
      <trkpt lat="46.91354" lon="8.66122">
        <ele>1533</ele>
        <time>2021-08-07T09:43:07.062Z</time>
      </trkpt>
      <trkpt lat="46.91354" lon="8.66121">
        <ele>1532</ele>
        <time>2021-08-07T09:43:08.061Z</time>
      </trkpt>
      <trkpt lat="46.91354" lon="8.6612">
        <ele>1532</ele>
        <time>2021-08-07T09:43:09.061Z</time>
      </trkpt>
      <trkpt lat="46.91354" lon="8.66119">
        <ele>1531</ele>
        <time>2021-08-07T09:43:10.062Z</time>
      </trkpt>
      <trkpt lat="46.91353" lon="8.66119">
        <ele>1531</ele>
        <time>2021-08-07T09:43:11.062Z</time>
      </trkpt>
      <trkpt lat="46.91354" lon="8.66117">
        <ele>1529</ele>
        <time>2021-08-07T09:43:12.062Z</time>
      </trkpt>
      <trkpt lat="46.91354" lon="8.66116">
        <ele>1528</ele>
        <time>2021-08-07T09:43:13.062Z</time>
      </trkpt>
      <trkpt lat="46.91356" lon="8.66114">
        <ele>1528</ele>
        <time>2021-08-07T09:43:14.063Z</time>
      </trkpt>
      <trkpt lat="46.91357" lon="8.66112">
        <ele>1528</ele>
        <time>2021-08-07T09:43:15.063Z</time>
      </trkpt>
      <trkpt lat="46.91356" lon="8.66111">
        <ele>1528</ele>
        <time>2021-08-07T09:43:16.062Z</time>
      </trkpt>
      <trkpt lat="46.91357" lon="8.66109">
        <ele>1528</ele>
        <time>2021-08-07T09:43:17.062Z</time>
      </trkpt>
      <trkpt lat="46.91357" lon="8.66108">
        <ele>1527</ele>
        <time>2021-08-07T09:43:18.062Z</time>
      </trkpt>
      <trkpt lat="46.91357" lon="8.66107">
        <ele>1527</ele>
        <time>2021-08-07T09:43:19.062Z</time>
      </trkpt>
      <trkpt lat="46.91358" lon="8.66105">
        <ele>1527</ele>
        <time>2021-08-07T09:43:20.062Z</time>
      </trkpt>
      <trkpt lat="46.91358" lon="8.66104">
        <ele>1527</ele>
        <time>2021-08-07T09:43:21.063Z</time>
      </trkpt>
      <trkpt lat="46.91358" lon="8.66103">
        <ele>1527</ele>
        <time>2021-08-07T09:43:22.063Z</time>
      </trkpt>
      <trkpt lat="46.91359" lon="8.66102">
        <ele>1527</ele>
        <time>2021-08-07T09:43:23.063Z</time>
      </trkpt>
      <trkpt lat="46.91359" lon="8.66101">
        <ele>1527</ele>
        <time>2021-08-07T09:43:24.063Z</time>
      </trkpt>
      <trkpt lat="46.91359" lon="8.66099">
        <ele>1526</ele>
        <time>2021-08-07T09:43:25.063Z</time>
      </trkpt>
      <trkpt lat="46.91359" lon="8.66098">
        <ele>1526</ele>
        <time>2021-08-07T09:43:26.063Z</time>
      </trkpt>
      <trkpt lat="46.9136" lon="8.66096">
        <ele>1526</ele>
        <time>2021-08-07T09:43:27.063Z</time>
      </trkpt>
      <trkpt lat="46.9136" lon="8.66095">
        <ele>1525</ele>
        <time>2021-08-07T09:43:28.063Z</time>
      </trkpt>
      <trkpt lat="46.9136" lon="8.66094">
        <ele>1525</ele>
        <time>2021-08-07T09:43:29.063Z</time>
      </trkpt>
      <trkpt lat="46.9136" lon="8.66093">
        <ele>1525</ele>
        <time>2021-08-07T09:43:30.062Z</time>
      </trkpt>
      <trkpt lat="46.91361" lon="8.66091">
        <ele>1524</ele>
        <time>2021-08-07T09:43:31.063Z</time>
      </trkpt>
      <trkpt lat="46.91361" lon="8.6609">
        <ele>1524</ele>
        <time>2021-08-07T09:43:32.063Z</time>
      </trkpt>
      <trkpt lat="46.91361" lon="8.66088">
        <ele>1523</ele>
        <time>2021-08-07T09:43:33.063Z</time>
      </trkpt>
      <trkpt lat="46.91361" lon="8.66087">
        <ele>1523</ele>
        <time>2021-08-07T09:43:34.063Z</time>
      </trkpt>
      <trkpt lat="46.91361" lon="8.66086">
        <ele>1523</ele>
        <time>2021-08-07T09:43:35.063Z</time>
      </trkpt>
      <trkpt lat="46.91361" lon="8.66085">
        <ele>1523</ele>
        <time>2021-08-07T09:43:36.063Z</time>
      </trkpt>
      <trkpt lat="46.91362" lon="8.66085">
        <ele>1523</ele>
        <time>2021-08-07T09:43:37.062Z</time>
      </trkpt>
      <trkpt lat="46.91362" lon="8.66084">
        <ele>1522</ele>
        <time>2021-08-07T09:43:38.062Z</time>
      </trkpt>
      <trkpt lat="46.91362" lon="8.66083">
        <ele>1521</ele>
        <time>2021-08-07T09:43:39.063Z</time>
      </trkpt>
      <trkpt lat="46.91362" lon="8.66081">
        <ele>1521</ele>
        <time>2021-08-07T09:43:40.063Z</time>
      </trkpt>
      <trkpt lat="46.91362" lon="8.6608">
        <ele>1521</ele>
        <time>2021-08-07T09:43:41.063Z</time>
      </trkpt>
      <trkpt lat="46.91362" lon="8.66079">
        <ele>1520</ele>
        <time>2021-08-07T09:43:42.062Z</time>
      </trkpt>
      <trkpt lat="46.91362" lon="8.66078">
        <ele>1520</ele>
        <time>2021-08-07T09:43:43.063Z</time>
      </trkpt>
      <trkpt lat="46.91363" lon="8.66076">
        <ele>1519</ele>
        <time>2021-08-07T09:43:44.063Z</time>
      </trkpt>
      <trkpt lat="46.91363" lon="8.66075">
        <ele>1518</ele>
        <time>2021-08-07T09:43:45.063Z</time>
      </trkpt>
      <trkpt lat="46.91363" lon="8.66074">
        <ele>1517</ele>
        <time>2021-08-07T09:43:46.063Z</time>
      </trkpt>
      <trkpt lat="46.91364" lon="8.66073">
        <ele>1517</ele>
        <time>2021-08-07T09:43:47.063Z</time>
      </trkpt>
      <trkpt lat="46.91364" lon="8.66072">
        <ele>1517</ele>
        <time>2021-08-07T09:43:48.063Z</time>
      </trkpt>
      <trkpt lat="46.91364" lon="8.66071">
        <ele>1516</ele>
        <time>2021-08-07T09:43:49.063Z</time>
      </trkpt>
      <trkpt lat="46.91364" lon="8.6607">
        <ele>1516</ele>
        <time>2021-08-07T09:43:50.062Z</time>
      </trkpt>
      <trkpt lat="46.91364" lon="8.66069">
        <ele>1516</ele>
        <time>2021-08-07T09:43:51.062Z</time>
      </trkpt>
      <trkpt lat="46.91364" lon="8.66068">
        <ele>1515</ele>
        <time>2021-08-07T09:43:52.063Z</time>
      </trkpt>
      <trkpt lat="46.91365" lon="8.66067">
        <ele>1515</ele>
        <time>2021-08-07T09:43:53.063Z</time>
      </trkpt>
      <trkpt lat="46.91365" lon="8.66066">
        <ele>1515</ele>
        <time>2021-08-07T09:43:54.062Z</time>
      </trkpt>
      <trkpt lat="46.91365" lon="8.66064">
        <ele>1515</ele>
        <time>2021-08-07T09:43:55.063Z</time>
      </trkpt>
      <trkpt lat="46.91364" lon="8.66063">
        <ele>1514</ele>
        <time>2021-08-07T09:43:56.063Z</time>
      </trkpt>
      <trkpt lat="46.91364" lon="8.66061">
        <ele>1514</ele>
        <time>2021-08-07T09:43:57.063Z</time>
      </trkpt>
      <trkpt lat="46.91364" lon="8.6606">
        <ele>1514</ele>
        <time>2021-08-07T09:43:58.063Z</time>
      </trkpt>
      <trkpt lat="46.91364" lon="8.66059">
        <ele>1514</ele>
        <time>2021-08-07T09:43:59.062Z</time>
      </trkpt>
      <trkpt lat="46.91364" lon="8.66058">
        <ele>1514</ele>
        <time>2021-08-07T09:44:00.063Z</time>
      </trkpt>
      <trkpt lat="46.91364" lon="8.66056">
        <ele>1514</ele>
        <time>2021-08-07T09:44:01.062Z</time>
      </trkpt>
      <trkpt lat="46.91363" lon="8.66055">
        <ele>1514</ele>
        <time>2021-08-07T09:44:02.063Z</time>
      </trkpt>
      <trkpt lat="46.91363" lon="8.66054">
        <ele>1515</ele>
        <time>2021-08-07T09:44:03.063Z</time>
      </trkpt>
      <trkpt lat="46.91363" lon="8.66052">
        <ele>1515</ele>
        <time>2021-08-07T09:44:04.063Z</time>
      </trkpt>
      <trkpt lat="46.91362" lon="8.66051">
        <ele>1515</ele>
        <time>2021-08-07T09:44:05.063Z</time>
      </trkpt>
      <trkpt lat="46.91362" lon="8.66051">
        <ele>1515</ele>
        <time>2021-08-07T09:44:06.063Z</time>
      </trkpt>
      <trkpt lat="46.91362" lon="8.6605">
        <ele>1515</ele>
        <time>2021-08-07T09:44:07.063Z</time>
      </trkpt>
      <trkpt lat="46.91363" lon="8.6605">
        <ele>1515</ele>
        <time>2021-08-07T09:44:08.062Z</time>
      </trkpt>
      <trkpt lat="46.91364" lon="8.66051">
        <ele>1517</ele>
        <time>2021-08-07T09:44:09.062Z</time>
      </trkpt>
      <trkpt lat="46.91364" lon="8.6605">
        <ele>1518</ele>
        <time>2021-08-07T09:44:10.063Z</time>
      </trkpt>
      <trkpt lat="46.91364" lon="8.66049">
        <ele>1518</ele>
        <time>2021-08-07T09:44:11.062Z</time>
      </trkpt>
      <trkpt lat="46.91365" lon="8.66048">
        <ele>1518</ele>
        <time>2021-08-07T09:44:12.062Z</time>
      </trkpt>
      <trkpt lat="46.91365" lon="8.66047">
        <ele>1518</ele>
        <time>2021-08-07T09:44:13.063Z</time>
      </trkpt>
      <trkpt lat="46.91366" lon="8.66046">
        <ele>1517</ele>
        <time>2021-08-07T09:44:14.062Z</time>
      </trkpt>
      <trkpt lat="46.91366" lon="8.66046">
        <ele>1517</ele>
        <time>2021-08-07T09:44:15.063Z</time>
      </trkpt>
      <trkpt lat="46.91366" lon="8.66045">
        <ele>1517</ele>
        <time>2021-08-07T09:44:16.062Z</time>
      </trkpt>
      <trkpt lat="46.91366" lon="8.66045">
        <ele>1516</ele>
        <time>2021-08-07T09:44:17.062Z</time>
      </trkpt>
      <trkpt lat="46.91367" lon="8.66043">
        <ele>1517</ele>
        <time>2021-08-07T09:44:18.063Z</time>
      </trkpt>
      <trkpt lat="46.91367" lon="8.66041">
        <ele>1516</ele>
        <time>2021-08-07T09:44:19.063Z</time>
      </trkpt>
      <trkpt lat="46.91368" lon="8.66041">
        <ele>1516</ele>
        <time>2021-08-07T09:44:20.063Z</time>
      </trkpt>
      <trkpt lat="46.91368" lon="8.6604">
        <ele>1516</ele>
        <time>2021-08-07T09:44:21.063Z</time>
      </trkpt>
      <trkpt lat="46.91368" lon="8.66039">
        <ele>1515</ele>
        <time>2021-08-07T09:44:22.062Z</time>
      </trkpt>
      <trkpt lat="46.91369" lon="8.66038">
        <ele>1515</ele>
        <time>2021-08-07T09:44:23.063Z</time>
      </trkpt>
      <trkpt lat="46.91369" lon="8.66037">
        <ele>1515</ele>
        <time>2021-08-07T09:44:24.063Z</time>
      </trkpt>
      <trkpt lat="46.9137" lon="8.66036">
        <ele>1514</ele>
        <time>2021-08-07T09:44:25.063Z</time>
      </trkpt>
      <trkpt lat="46.91371" lon="8.66035">
        <ele>1514</ele>
        <time>2021-08-07T09:44:26.062Z</time>
      </trkpt>
      <trkpt lat="46.91372" lon="8.66034">
        <ele>1514</ele>
        <time>2021-08-07T09:44:27.062Z</time>
      </trkpt>
      <trkpt lat="46.91372" lon="8.66033">
        <ele>1514</ele>
        <time>2021-08-07T09:44:28.063Z</time>
      </trkpt>
      <trkpt lat="46.91373" lon="8.66032">
        <ele>1514</ele>
        <time>2021-08-07T09:44:29.063Z</time>
      </trkpt>
      <trkpt lat="46.91374" lon="8.66032">
        <ele>1514</ele>
        <time>2021-08-07T09:44:30.063Z</time>
      </trkpt>
      <trkpt lat="46.91375" lon="8.66032">
        <ele>1514</ele>
        <time>2021-08-07T09:44:31.063Z</time>
      </trkpt>
      <trkpt lat="46.91375" lon="8.66032">
        <ele>1514</ele>
        <time>2021-08-07T09:44:32.062Z</time>
      </trkpt>
      <trkpt lat="46.91376" lon="8.66032">
        <ele>1514</ele>
        <time>2021-08-07T09:44:39.074Z</time>
      </trkpt>
      <trkpt lat="46.91377" lon="8.66032">
        <ele>1513</ele>
        <time>2021-08-07T09:44:40.073Z</time>
      </trkpt>
      <trkpt lat="46.91378" lon="8.66032">
        <ele>1513</ele>
        <time>2021-08-07T09:44:41.074Z</time>
      </trkpt>
      <trkpt lat="46.9138" lon="8.66032">
        <ele>1513</ele>
        <time>2021-08-07T09:44:42.073Z</time>
      </trkpt>
      <trkpt lat="46.91381" lon="8.66032">
        <ele>1513</ele>
        <time>2021-08-07T09:44:43.074Z</time>
      </trkpt>
      <trkpt lat="46.91382" lon="8.66032">
        <ele>1513</ele>
        <time>2021-08-07T09:44:44.073Z</time>
      </trkpt>
      <trkpt lat="46.91383" lon="8.66032">
        <ele>1513</ele>
        <time>2021-08-07T09:44:45.074Z</time>
      </trkpt>
      <trkpt lat="46.91384" lon="8.66031">
        <ele>1513</ele>
        <time>2021-08-07T09:44:46.074Z</time>
      </trkpt>
      <trkpt lat="46.91385" lon="8.66031">
        <ele>1512</ele>
        <time>2021-08-07T09:44:47.074Z</time>
      </trkpt>
      <trkpt lat="46.91386" lon="8.66031">
        <ele>1512</ele>
        <time>2021-08-07T09:44:48.073Z</time>
      </trkpt>
      <trkpt lat="46.91387" lon="8.66032">
        <ele>1512</ele>
        <time>2021-08-07T09:44:49.074Z</time>
      </trkpt>
      <trkpt lat="46.91388" lon="8.66032">
        <ele>1511</ele>
        <time>2021-08-07T09:44:50.074Z</time>
      </trkpt>
      <trkpt lat="46.9139" lon="8.66031">
        <ele>1511</ele>
        <time>2021-08-07T09:44:51.073Z</time>
      </trkpt>
      <trkpt lat="46.91391" lon="8.66031">
        <ele>1510</ele>
        <time>2021-08-07T09:44:52.074Z</time>
      </trkpt>
      <trkpt lat="46.91392" lon="8.66031">
        <ele>1510</ele>
        <time>2021-08-07T09:44:53.074Z</time>
      </trkpt>
      <trkpt lat="46.91393" lon="8.66031">
        <ele>1510</ele>
        <time>2021-08-07T09:44:54.074Z</time>
      </trkpt>
      <trkpt lat="46.91394" lon="8.66031">
        <ele>1509</ele>
        <time>2021-08-07T09:44:55.074Z</time>
      </trkpt>
      <trkpt lat="46.91396" lon="8.66031">
        <ele>1509</ele>
        <time>2021-08-07T09:44:56.074Z</time>
      </trkpt>
      <trkpt lat="46.91397" lon="8.66031">
        <ele>1509</ele>
        <time>2021-08-07T09:44:57.074Z</time>
      </trkpt>
      <trkpt lat="46.91398" lon="8.6603">
        <ele>1509</ele>
        <time>2021-08-07T09:44:58.074Z</time>
      </trkpt>
      <trkpt lat="46.91399" lon="8.6603">
        <ele>1509</ele>
        <time>2021-08-07T09:44:59.074Z</time>
      </trkpt>
      <trkpt lat="46.914" lon="8.6603">
        <ele>1508</ele>
        <time>2021-08-07T09:45:00.074Z</time>
      </trkpt>
      <trkpt lat="46.914" lon="8.6603">
        <ele>1508</ele>
        <time>2021-08-07T09:45:01.074Z</time>
      </trkpt>
      <trkpt lat="46.91401" lon="8.6603">
        <ele>1508</ele>
        <time>2021-08-07T09:45:02.074Z</time>
      </trkpt>
      <trkpt lat="46.91402" lon="8.66031">
        <ele>1509</ele>
        <time>2021-08-07T09:45:03.074Z</time>
      </trkpt>
      <trkpt lat="46.91403" lon="8.66031">
        <ele>1509</ele>
        <time>2021-08-07T09:45:04.073Z</time>
      </trkpt>
      <trkpt lat="46.91404" lon="8.66031">
        <ele>1509</ele>
        <time>2021-08-07T09:45:05.073Z</time>
      </trkpt>
      <trkpt lat="46.91405" lon="8.6603">
        <ele>1509</ele>
        <time>2021-08-07T09:45:06.074Z</time>
      </trkpt>
      <trkpt lat="46.91406" lon="8.66029">
        <ele>1509</ele>
        <time>2021-08-07T09:45:07.073Z</time>
      </trkpt>
      <trkpt lat="46.91407" lon="8.66029">
        <ele>1509</ele>
        <time>2021-08-07T09:45:08.074Z</time>
      </trkpt>
      <trkpt lat="46.91409" lon="8.66029">
        <ele>1509</ele>
        <time>2021-08-07T09:45:09.074Z</time>
      </trkpt>
      <trkpt lat="46.9141" lon="8.66029">
        <ele>1508</ele>
        <time>2021-08-07T09:45:10.074Z</time>
      </trkpt>
      <trkpt lat="46.91411" lon="8.66029">
        <ele>1509</ele>
        <time>2021-08-07T09:45:11.074Z</time>
      </trkpt>
      <trkpt lat="46.91412" lon="8.66028">
        <ele>1509</ele>
        <time>2021-08-07T09:45:12.074Z</time>
      </trkpt>
      <trkpt lat="46.91413" lon="8.66028">
        <ele>1510</ele>
        <time>2021-08-07T09:45:13.074Z</time>
      </trkpt>
      <trkpt lat="46.91414" lon="8.66028">
        <ele>1510</ele>
        <time>2021-08-07T09:45:25.194Z</time>
      </trkpt>
      <trkpt lat="46.91415" lon="8.66028">
        <ele>1510</ele>
        <time>2021-08-07T09:45:26.194Z</time>
      </trkpt>
      <trkpt lat="46.91416" lon="8.66027">
        <ele>1510</ele>
        <time>2021-08-07T09:45:27.194Z</time>
      </trkpt>
      <trkpt lat="46.91417" lon="8.66027">
        <ele>1510</ele>
        <time>2021-08-07T09:45:28.194Z</time>
      </trkpt>
      <trkpt lat="46.91417" lon="8.66026">
        <ele>1509</ele>
        <time>2021-08-07T09:45:29.194Z</time>
      </trkpt>
      <trkpt lat="46.91418" lon="8.66026">
        <ele>1508</ele>
        <time>2021-08-07T09:45:30.194Z</time>
      </trkpt>
      <trkpt lat="46.91419" lon="8.66026">
        <ele>1508</ele>
        <time>2021-08-07T09:45:31.194Z</time>
      </trkpt>
      <trkpt lat="46.9142" lon="8.66026">
        <ele>1508</ele>
        <time>2021-08-07T09:45:32.193Z</time>
      </trkpt>
      <trkpt lat="46.9142" lon="8.66026">
        <ele>1508</ele>
        <time>2021-08-07T09:45:33.193Z</time>
      </trkpt>
      <trkpt lat="46.9142" lon="8.66025">
        <ele>1508</ele>
        <time>2021-08-07T09:45:34.194Z</time>
      </trkpt>
      <trkpt lat="46.91421" lon="8.66025">
        <ele>1508</ele>
        <time>2021-08-07T09:45:35.194Z</time>
      </trkpt>
      <trkpt lat="46.9142" lon="8.6603">
        <ele>1506</ele>
        <time>2021-08-07T09:45:36.195Z</time>
      </trkpt>
      <trkpt lat="46.9142" lon="8.6603">
        <ele>1507</ele>
        <time>2021-08-07T09:45:37.195Z</time>
      </trkpt>
      <trkpt lat="46.91419" lon="8.6603">
        <ele>1508</ele>
        <time>2021-08-07T09:45:38.194Z</time>
      </trkpt>
      <trkpt lat="46.91419" lon="8.6603">
        <ele>1508</ele>
        <time>2021-08-07T09:45:39.195Z</time>
      </trkpt>
      <trkpt lat="46.91419" lon="8.6603">
        <ele>1509</ele>
        <time>2021-08-07T09:45:40.194Z</time>
      </trkpt>
      <trkpt lat="46.9142" lon="8.66029">
        <ele>1509</ele>
        <time>2021-08-07T09:45:41.195Z</time>
      </trkpt>
      <trkpt lat="46.9142" lon="8.66029">
        <ele>1510</ele>
        <time>2021-08-07T09:45:42.195Z</time>
      </trkpt>
      <trkpt lat="46.91419" lon="8.6603">
        <ele>1510</ele>
        <time>2021-08-07T09:45:43.195Z</time>
      </trkpt>
      <trkpt lat="46.91419" lon="8.66031">
        <ele>1510</ele>
        <time>2021-08-07T09:45:44.195Z</time>
      </trkpt>
      <trkpt lat="46.91419" lon="8.66031">
        <ele>1510</ele>
        <time>2021-08-07T09:45:53.369Z</time>
      </trkpt>
      <trkpt lat="46.9142" lon="8.66032">
        <ele>1510</ele>
        <time>2021-08-07T09:45:54.369Z</time>
      </trkpt>
      <trkpt lat="46.91421" lon="8.66032">
        <ele>1510</ele>
        <time>2021-08-07T09:45:55.369Z</time>
      </trkpt>
      <trkpt lat="46.91422" lon="8.66031">
        <ele>1510</ele>
        <time>2021-08-07T09:45:56.369Z</time>
      </trkpt>
      <trkpt lat="46.91422" lon="8.66031">
        <ele>1510</ele>
        <time>2021-08-07T09:45:57.368Z</time>
      </trkpt>
      <trkpt lat="46.91423" lon="8.66032">
        <ele>1511</ele>
        <time>2021-08-07T09:45:58.368Z</time>
      </trkpt>
      <trkpt lat="46.91424" lon="8.66032">
        <ele>1511</ele>
        <time>2021-08-07T09:46:22.445Z</time>
      </trkpt>
      <trkpt lat="46.91425" lon="8.66032">
        <ele>1511</ele>
        <time>2021-08-07T09:46:23.445Z</time>
      </trkpt>
      <trkpt lat="46.91425" lon="8.66032">
        <ele>1511</ele>
        <time>2021-08-07T09:46:24.445Z</time>
      </trkpt>
      <trkpt lat="46.91426" lon="8.66032">
        <ele>1511</ele>
        <time>2021-08-07T09:46:25.444Z</time>
      </trkpt>
      <trkpt lat="46.91427" lon="8.66032">
        <ele>1511</ele>
        <time>2021-08-07T09:46:26.445Z</time>
      </trkpt>
      <trkpt lat="46.91429" lon="8.66032">
        <ele>1511</ele>
        <time>2021-08-07T09:46:27.445Z</time>
      </trkpt>
      <trkpt lat="46.91429" lon="8.66032">
        <ele>1511</ele>
        <time>2021-08-07T09:46:28.445Z</time>
      </trkpt>
      <trkpt lat="46.9143" lon="8.66032">
        <ele>1511</ele>
        <time>2021-08-07T09:46:29.444Z</time>
      </trkpt>
      <trkpt lat="46.91431" lon="8.66032">
        <ele>1511</ele>
        <time>2021-08-07T09:46:30.444Z</time>
      </trkpt>
      <trkpt lat="46.91432" lon="8.66033">
        <ele>1511</ele>
        <time>2021-08-07T09:46:31.445Z</time>
      </trkpt>
      <trkpt lat="46.91433" lon="8.66033">
        <ele>1510</ele>
        <time>2021-08-07T09:46:32.444Z</time>
      </trkpt>
      <trkpt lat="46.91433" lon="8.66033">
        <ele>1510</ele>
        <time>2021-08-07T09:46:33.445Z</time>
      </trkpt>
      <trkpt lat="46.91434" lon="8.66034">
        <ele>1510</ele>
        <time>2021-08-07T09:46:34.445Z</time>
      </trkpt>
      <trkpt lat="46.91436" lon="8.66034">
        <ele>1510</ele>
        <time>2021-08-07T09:46:35.445Z</time>
      </trkpt>
      <trkpt lat="46.91437" lon="8.66034">
        <ele>1510</ele>
        <time>2021-08-07T09:46:36.444Z</time>
      </trkpt>
      <trkpt lat="46.91438" lon="8.66034">
        <ele>1510</ele>
        <time>2021-08-07T09:46:37.445Z</time>
      </trkpt>
      <trkpt lat="46.91439" lon="8.66034">
        <ele>1509</ele>
        <time>2021-08-07T09:46:38.445Z</time>
      </trkpt>
      <trkpt lat="46.9144" lon="8.66034">
        <ele>1509</ele>
        <time>2021-08-07T09:46:39.445Z</time>
      </trkpt>
      <trkpt lat="46.91441" lon="8.66034">
        <ele>1509</ele>
        <time>2021-08-07T09:46:40.445Z</time>
      </trkpt>
      <trkpt lat="46.91442" lon="8.66034">
        <ele>1509</ele>
        <time>2021-08-07T09:46:55.574Z</time>
      </trkpt>
      <trkpt lat="46.91444" lon="8.66034">
        <ele>1510</ele>
        <time>2021-08-07T09:46:56.574Z</time>
      </trkpt>
      <trkpt lat="46.91445" lon="8.66035">
        <ele>1510</ele>
        <time>2021-08-07T09:46:57.574Z</time>
      </trkpt>
      <trkpt lat="46.91445" lon="8.66035">
        <ele>1510</ele>
        <time>2021-08-07T09:46:58.573Z</time>
      </trkpt>
      <trkpt lat="46.91446" lon="8.66035">
        <ele>1510</ele>
        <time>2021-08-07T09:46:59.573Z</time>
      </trkpt>
      <trkpt lat="46.91447" lon="8.66035">
        <ele>1510</ele>
        <time>2021-08-07T09:47:00.573Z</time>
      </trkpt>
      <trkpt lat="46.91448" lon="8.66035">
        <ele>1510</ele>
        <time>2021-08-07T09:47:01.573Z</time>
      </trkpt>
      <trkpt lat="46.91449" lon="8.66035">
        <ele>1509</ele>
        <time>2021-08-07T09:47:02.573Z</time>
      </trkpt>
      <trkpt lat="46.9145" lon="8.66035">
        <ele>1509</ele>
        <time>2021-08-07T09:47:03.574Z</time>
      </trkpt>
      <trkpt lat="46.91451" lon="8.66035">
        <ele>1509</ele>
        <time>2021-08-07T09:47:04.574Z</time>
      </trkpt>
      <trkpt lat="46.91451" lon="8.66035">
        <ele>1508</ele>
        <time>2021-08-07T09:47:05.574Z</time>
      </trkpt>
      <trkpt lat="46.91453" lon="8.66035">
        <ele>1508</ele>
        <time>2021-08-07T09:47:06.574Z</time>
      </trkpt>
      <trkpt lat="46.91454" lon="8.66034">
        <ele>1508</ele>
        <time>2021-08-07T09:47:07.574Z</time>
      </trkpt>
      <trkpt lat="46.91455" lon="8.66034">
        <ele>1508</ele>
        <time>2021-08-07T09:47:08.573Z</time>
      </trkpt>
      <trkpt lat="46.91456" lon="8.66034">
        <ele>1508</ele>
        <time>2021-08-07T09:47:09.574Z</time>
      </trkpt>
      <trkpt lat="46.91457" lon="8.66034">
        <ele>1507</ele>
        <time>2021-08-07T09:47:10.574Z</time>
      </trkpt>
      <trkpt lat="46.91458" lon="8.66034">
        <ele>1507</ele>
        <time>2021-08-07T09:47:11.574Z</time>
      </trkpt>
      <trkpt lat="46.91459" lon="8.66034">
        <ele>1507</ele>
        <time>2021-08-07T09:47:12.574Z</time>
      </trkpt>
      <trkpt lat="46.9146" lon="8.66034">
        <ele>1507</ele>
        <time>2021-08-07T09:47:13.574Z</time>
      </trkpt>
      <trkpt lat="46.91461" lon="8.66034">
        <ele>1507</ele>
        <time>2021-08-07T09:47:14.573Z</time>
      </trkpt>
      <trkpt lat="46.91463" lon="8.66033">
        <ele>1506</ele>
        <time>2021-08-07T09:47:15.574Z</time>
      </trkpt>
      <trkpt lat="46.91464" lon="8.66032">
        <ele>1506</ele>
        <time>2021-08-07T09:47:16.574Z</time>
      </trkpt>
      <trkpt lat="46.91465" lon="8.66032">
        <ele>1505</ele>
        <time>2021-08-07T09:47:17.573Z</time>
      </trkpt>
      <trkpt lat="46.91466" lon="8.66031">
        <ele>1505</ele>
        <time>2021-08-07T09:47:18.573Z</time>
      </trkpt>
      <trkpt lat="46.91467" lon="8.66031">
        <ele>1505</ele>
        <time>2021-08-07T09:47:19.574Z</time>
      </trkpt>
      <trkpt lat="46.91469" lon="8.6603">
        <ele>1506</ele>
        <time>2021-08-07T09:47:20.574Z</time>
      </trkpt>
      <trkpt lat="46.9147" lon="8.6603">
        <ele>1506</ele>
        <time>2021-08-07T09:47:21.574Z</time>
      </trkpt>
      <trkpt lat="46.91472" lon="8.66029">
        <ele>1506</ele>
        <time>2021-08-07T09:47:22.574Z</time>
      </trkpt>
      <trkpt lat="46.91473" lon="8.66029">
        <ele>1507</ele>
        <time>2021-08-07T09:47:23.574Z</time>
      </trkpt>
      <trkpt lat="46.91474" lon="8.66028">
        <ele>1507</ele>
        <time>2021-08-07T09:47:24.574Z</time>
      </trkpt>
      <trkpt lat="46.91475" lon="8.66028">
        <ele>1507</ele>
        <time>2021-08-07T09:47:25.574Z</time>
      </trkpt>
      <trkpt lat="46.91475" lon="8.66028">
        <ele>1507</ele>
        <time>2021-08-07T09:47:26.574Z</time>
      </trkpt>
      <trkpt lat="46.91477" lon="8.66027">
        <ele>1507</ele>
        <time>2021-08-07T09:47:27.574Z</time>
      </trkpt>
      <trkpt lat="46.91477" lon="8.66026">
        <ele>1508</ele>
        <time>2021-08-07T09:47:28.574Z</time>
      </trkpt>
      <trkpt lat="46.91478" lon="8.66025">
        <ele>1508</ele>
        <time>2021-08-07T09:47:29.574Z</time>
      </trkpt>
      <trkpt lat="46.91479" lon="8.66024">
        <ele>1508</ele>
        <time>2021-08-07T09:47:30.573Z</time>
      </trkpt>
      <trkpt lat="46.9148" lon="8.66024">
        <ele>1507</ele>
        <time>2021-08-07T09:47:31.574Z</time>
      </trkpt>
      <trkpt lat="46.9148" lon="8.66023">
        <ele>1507</ele>
        <time>2021-08-07T09:47:32.573Z</time>
      </trkpt>
      <trkpt lat="46.91482" lon="8.66022">
        <ele>1507</ele>
        <time>2021-08-07T09:47:33.574Z</time>
      </trkpt>
      <trkpt lat="46.91483" lon="8.66021">
        <ele>1507</ele>
        <time>2021-08-07T09:47:34.574Z</time>
      </trkpt>
      <trkpt lat="46.91484" lon="8.66021">
        <ele>1507</ele>
        <time>2021-08-07T09:47:35.573Z</time>
      </trkpt>
      <trkpt lat="46.91485" lon="8.6602">
        <ele>1507</ele>
        <time>2021-08-07T09:47:36.573Z</time>
      </trkpt>
      <trkpt lat="46.91486" lon="8.6602">
        <ele>1508</ele>
        <time>2021-08-07T09:47:37.574Z</time>
      </trkpt>
      <trkpt lat="46.91488" lon="8.6602">
        <ele>1508</ele>
        <time>2021-08-07T09:47:38.574Z</time>
      </trkpt>
      <trkpt lat="46.91488" lon="8.66019">
        <ele>1508</ele>
        <time>2021-08-07T09:47:39.574Z</time>
      </trkpt>
      <trkpt lat="46.91489" lon="8.66019">
        <ele>1507</ele>
        <time>2021-08-07T09:47:40.574Z</time>
      </trkpt>
      <trkpt lat="46.9149" lon="8.66018">
        <ele>1507</ele>
        <time>2021-08-07T09:47:41.574Z</time>
      </trkpt>
      <trkpt lat="46.91491" lon="8.66018">
        <ele>1507</ele>
        <time>2021-08-07T09:47:42.573Z</time>
      </trkpt>
      <trkpt lat="46.91492" lon="8.66018">
        <ele>1506</ele>
        <time>2021-08-07T09:47:43.573Z</time>
      </trkpt>
      <trkpt lat="46.91493" lon="8.66017">
        <ele>1505</ele>
        <time>2021-08-07T09:47:44.574Z</time>
      </trkpt>
      <trkpt lat="46.91494" lon="8.66016">
        <ele>1505</ele>
        <time>2021-08-07T09:47:45.573Z</time>
      </trkpt>
      <trkpt lat="46.91495" lon="8.66016">
        <ele>1505</ele>
        <time>2021-08-07T09:47:46.573Z</time>
      </trkpt>
      <trkpt lat="46.91496" lon="8.66016">
        <ele>1505</ele>
        <time>2021-08-07T09:47:47.573Z</time>
      </trkpt>
      <trkpt lat="46.91497" lon="8.66016">
        <ele>1505</ele>
        <time>2021-08-07T09:47:48.573Z</time>
      </trkpt>
      <trkpt lat="46.91498" lon="8.66016">
        <ele>1505</ele>
        <time>2021-08-07T09:47:49.574Z</time>
      </trkpt>
      <trkpt lat="46.91499" lon="8.66016">
        <ele>1505</ele>
        <time>2021-08-07T09:47:50.574Z</time>
      </trkpt>
      <trkpt lat="46.915" lon="8.66016">
        <ele>1505</ele>
        <time>2021-08-07T09:47:51.574Z</time>
      </trkpt>
      <trkpt lat="46.91501" lon="8.66016">
        <ele>1505</ele>
        <time>2021-08-07T09:47:52.573Z</time>
      </trkpt>
      <trkpt lat="46.91502" lon="8.66016">
        <ele>1505</ele>
        <time>2021-08-07T09:47:53.574Z</time>
      </trkpt>
      <trkpt lat="46.91502" lon="8.66016">
        <ele>1506</ele>
        <time>2021-08-07T09:47:54.574Z</time>
      </trkpt>
      <trkpt lat="46.91503" lon="8.66016">
        <ele>1506</ele>
        <time>2021-08-07T09:47:55.574Z</time>
      </trkpt>
      <trkpt lat="46.91503" lon="8.66016">
        <ele>1506</ele>
        <time>2021-08-07T09:47:56.573Z</time>
      </trkpt>
      <trkpt lat="46.91503" lon="8.66017">
        <ele>1506</ele>
        <time>2021-08-07T09:47:57.574Z</time>
      </trkpt>
      <trkpt lat="46.91505" lon="8.66017">
        <ele>1506</ele>
        <time>2021-08-07T09:47:58.574Z</time>
      </trkpt>
      <trkpt lat="46.91506" lon="8.66016">
        <ele>1506</ele>
        <time>2021-08-07T09:47:59.573Z</time>
      </trkpt>
      <trkpt lat="46.91506" lon="8.66016">
        <ele>1506</ele>
        <time>2021-08-07T09:48:00.573Z</time>
      </trkpt>
      <trkpt lat="46.91507" lon="8.66015">
        <ele>1505</ele>
        <time>2021-08-07T09:48:01.573Z</time>
      </trkpt>
      <trkpt lat="46.91507" lon="8.66014">
        <ele>1504</ele>
        <time>2021-08-07T09:48:02.574Z</time>
      </trkpt>
      <trkpt lat="46.91508" lon="8.66013">
        <ele>1504</ele>
        <time>2021-08-07T09:48:03.573Z</time>
      </trkpt>
      <trkpt lat="46.91508" lon="8.66012">
        <ele>1504</ele>
        <time>2021-08-07T09:48:04.574Z</time>
      </trkpt>
      <trkpt lat="46.91508" lon="8.66012">
        <ele>1503</ele>
        <time>2021-08-07T09:48:05.574Z</time>
      </trkpt>
      <trkpt lat="46.91508" lon="8.66011">
        <ele>1503</ele>
        <time>2021-08-07T09:48:06.573Z</time>
      </trkpt>
      <trkpt lat="46.91509" lon="8.66011">
        <ele>1502</ele>
        <time>2021-08-07T09:48:07.574Z</time>
      </trkpt>
      <trkpt lat="46.91509" lon="8.6601">
        <ele>1502</ele>
        <time>2021-08-07T09:48:08.574Z</time>
      </trkpt>
      <trkpt lat="46.9151" lon="8.6601">
        <ele>1502</ele>
        <time>2021-08-07T09:48:09.574Z</time>
      </trkpt>
      <trkpt lat="46.9151" lon="8.66008">
        <ele>1502</ele>
        <time>2021-08-07T09:48:10.573Z</time>
      </trkpt>
      <trkpt lat="46.91511" lon="8.66007">
        <ele>1502</ele>
        <time>2021-08-07T09:48:11.574Z</time>
      </trkpt>
      <trkpt lat="46.91511" lon="8.66006">
        <ele>1502</ele>
        <time>2021-08-07T09:48:12.574Z</time>
      </trkpt>
      <trkpt lat="46.91511" lon="8.66005">
        <ele>1502</ele>
        <time>2021-08-07T09:48:13.574Z</time>
      </trkpt>
      <trkpt lat="46.91512" lon="8.66004">
        <ele>1502</ele>
        <time>2021-08-07T09:48:14.574Z</time>
      </trkpt>
      <trkpt lat="46.91513" lon="8.66003">
        <ele>1501</ele>
        <time>2021-08-07T09:48:15.574Z</time>
      </trkpt>
      <trkpt lat="46.91513" lon="8.66001">
        <ele>1500</ele>
        <time>2021-08-07T09:48:16.574Z</time>
      </trkpt>
      <trkpt lat="46.91512" lon="8.65999">
        <ele>1500</ele>
        <time>2021-08-07T09:48:17.574Z</time>
      </trkpt>
      <trkpt lat="46.91512" lon="8.65997">
        <ele>1500</ele>
        <time>2021-08-07T09:48:18.574Z</time>
      </trkpt>
      <trkpt lat="46.91513" lon="8.65996">
        <ele>1500</ele>
        <time>2021-08-07T09:48:19.574Z</time>
      </trkpt>
      <trkpt lat="46.91513" lon="8.65994">
        <ele>1500</ele>
        <time>2021-08-07T09:48:20.574Z</time>
      </trkpt>
      <trkpt lat="46.91513" lon="8.65993">
        <ele>1500</ele>
        <time>2021-08-07T09:48:21.574Z</time>
      </trkpt>
      <trkpt lat="46.91513" lon="8.65991">
        <ele>1500</ele>
        <time>2021-08-07T09:48:22.573Z</time>
      </trkpt>
      <trkpt lat="46.91513" lon="8.6599">
        <ele>1500</ele>
        <time>2021-08-07T09:48:23.573Z</time>
      </trkpt>
      <trkpt lat="46.91514" lon="8.65989">
        <ele>1500</ele>
        <time>2021-08-07T09:48:24.573Z</time>
      </trkpt>
      <trkpt lat="46.91513" lon="8.65987">
        <ele>1500</ele>
        <time>2021-08-07T09:48:25.574Z</time>
      </trkpt>
      <trkpt lat="46.91513" lon="8.65986">
        <ele>1500</ele>
        <time>2021-08-07T09:48:26.573Z</time>
      </trkpt>
      <trkpt lat="46.91513" lon="8.65986">
        <ele>1500</ele>
        <time>2021-08-07T09:48:27.574Z</time>
      </trkpt>
      <trkpt lat="46.91513" lon="8.65986">
        <ele>1501</ele>
        <time>2021-08-07T09:48:28.573Z</time>
      </trkpt>
      <trkpt lat="46.91512" lon="8.65986">
        <ele>1503</ele>
        <time>2021-08-07T09:48:29.575Z</time>
      </trkpt>
      <trkpt lat="46.91511" lon="8.65987">
        <ele>1503</ele>
        <time>2021-08-07T09:48:30.574Z</time>
      </trkpt>
      <trkpt lat="46.91511" lon="8.65988">
        <ele>1503</ele>
        <time>2021-08-07T09:48:31.574Z</time>
      </trkpt>
      <trkpt lat="46.9151" lon="8.6599">
        <ele>1504</ele>
        <time>2021-08-07T09:48:32.574Z</time>
      </trkpt>
      <trkpt lat="46.9151" lon="8.65991">
        <ele>1504</ele>
        <time>2021-08-07T09:48:33.575Z</time>
      </trkpt>
      <trkpt lat="46.91509" lon="8.65992">
        <ele>1504</ele>
        <time>2021-08-07T09:48:34.575Z</time>
      </trkpt>
      <trkpt lat="46.91508" lon="8.65994">
        <ele>1504</ele>
        <time>2021-08-07T09:48:35.575Z</time>
      </trkpt>
      <trkpt lat="46.91508" lon="8.65995">
        <ele>1504</ele>
        <time>2021-08-07T09:48:36.574Z</time>
      </trkpt>
      <trkpt lat="46.91508" lon="8.65996">
        <ele>1505</ele>
        <time>2021-08-07T09:48:37.575Z</time>
      </trkpt>
      <trkpt lat="46.91507" lon="8.65997">
        <ele>1505</ele>
        <time>2021-08-07T09:48:38.575Z</time>
      </trkpt>
      <trkpt lat="46.91507" lon="8.65999">
        <ele>1505</ele>
        <time>2021-08-07T09:48:39.574Z</time>
      </trkpt>
      <trkpt lat="46.91506" lon="8.66">
        <ele>1505</ele>
        <time>2021-08-07T09:48:40.574Z</time>
      </trkpt>
      <trkpt lat="46.91506" lon="8.66001">
        <ele>1505</ele>
        <time>2021-08-07T09:48:41.575Z</time>
      </trkpt>
      <trkpt lat="46.91506" lon="8.66002">
        <ele>1505</ele>
        <time>2021-08-07T09:48:42.575Z</time>
      </trkpt>
      <trkpt lat="46.91506" lon="8.66003">
        <ele>1505</ele>
        <time>2021-08-07T09:48:43.575Z</time>
      </trkpt>
      <trkpt lat="46.91506" lon="8.66005">
        <ele>1505</ele>
        <time>2021-08-07T09:48:44.575Z</time>
      </trkpt>
      <trkpt lat="46.91506" lon="8.66006">
        <ele>1506</ele>
        <time>2021-08-07T09:48:45.575Z</time>
      </trkpt>
      <trkpt lat="46.91506" lon="8.66007">
        <ele>1506</ele>
        <time>2021-08-07T09:48:46.575Z</time>
      </trkpt>
      <trkpt lat="46.91506" lon="8.66008">
        <ele>1506</ele>
        <time>2021-08-07T09:48:47.575Z</time>
      </trkpt>
      <trkpt lat="46.91506" lon="8.66009">
        <ele>1506</ele>
        <time>2021-08-07T09:48:48.575Z</time>
      </trkpt>
      <trkpt lat="46.91506" lon="8.6601">
        <ele>1506</ele>
        <time>2021-08-07T09:48:49.575Z</time>
      </trkpt>
      <trkpt lat="46.91505" lon="8.66012">
        <ele>1507</ele>
        <time>2021-08-07T09:48:50.575Z</time>
      </trkpt>
      <trkpt lat="46.91505" lon="8.66013">
        <ele>1507</ele>
        <time>2021-08-07T09:48:51.574Z</time>
      </trkpt>
      <trkpt lat="46.91504" lon="8.66013">
        <ele>1507</ele>
        <time>2021-08-07T09:48:52.575Z</time>
      </trkpt>
      <trkpt lat="46.91504" lon="8.66013">
        <ele>1507</ele>
        <time>2021-08-07T09:48:53.575Z</time>
      </trkpt>
      <trkpt lat="46.91503" lon="8.66013">
        <ele>1508</ele>
        <time>2021-08-07T09:48:54.574Z</time>
      </trkpt>
      <trkpt lat="46.91502" lon="8.66013">
        <ele>1509</ele>
        <time>2021-08-07T09:48:55.575Z</time>
      </trkpt>
      <trkpt lat="46.91502" lon="8.66013">
        <ele>1509</ele>
        <time>2021-08-07T09:48:56.574Z</time>
      </trkpt>
      <trkpt lat="46.91502" lon="8.66013">
        <ele>1509</ele>
        <time>2021-08-07T09:48:57.575Z</time>
      </trkpt>
      <trkpt lat="46.91502" lon="8.66012">
        <ele>1509</ele>
        <time>2021-08-07T09:48:58.575Z</time>
      </trkpt>
      <trkpt lat="46.91501" lon="8.66012">
        <ele>1508</ele>
        <time>2021-08-07T09:48:59.575Z</time>
      </trkpt>
      <trkpt lat="46.915" lon="8.66012">
        <ele>1507</ele>
        <time>2021-08-07T09:49:00.575Z</time>
      </trkpt>
      <trkpt lat="46.91499" lon="8.66011">
        <ele>1507</ele>
        <time>2021-08-07T09:49:01.575Z</time>
      </trkpt>
      <trkpt lat="46.91498" lon="8.66011">
        <ele>1506</ele>
        <time>2021-08-07T09:49:02.574Z</time>
      </trkpt>
      <trkpt lat="46.91497" lon="8.6601">
        <ele>1506</ele>
        <time>2021-08-07T09:49:03.575Z</time>
      </trkpt>
      <trkpt lat="46.91496" lon="8.6601">
        <ele>1506</ele>
        <time>2021-08-07T09:49:04.574Z</time>
      </trkpt>
      <trkpt lat="46.91496" lon="8.6601">
        <ele>1506</ele>
        <time>2021-08-07T09:49:05.575Z</time>
      </trkpt>
      <trkpt lat="46.91496" lon="8.6601">
        <ele>1506</ele>
        <time>2021-08-07T09:49:06.575Z</time>
      </trkpt>
      <trkpt lat="46.91496" lon="8.6601">
        <ele>1507</ele>
        <time>2021-08-07T09:49:07.575Z</time>
      </trkpt>
      <trkpt lat="46.91498" lon="8.66009">
        <ele>1505</ele>
        <time>2021-08-07T09:49:08.576Z</time>
      </trkpt>
      <trkpt lat="46.91498" lon="8.66009">
        <ele>1504</ele>
        <time>2021-08-07T09:49:09.575Z</time>
      </trkpt>
      <trkpt lat="46.91498" lon="8.66008">
        <ele>1504</ele>
        <time>2021-08-07T09:49:10.575Z</time>
      </trkpt>
      <trkpt lat="46.91499" lon="8.66007">
        <ele>1503</ele>
        <time>2021-08-07T09:49:11.576Z</time>
      </trkpt>
      <trkpt lat="46.91499" lon="8.66005">
        <ele>1503</ele>
        <time>2021-08-07T09:49:12.576Z</time>
      </trkpt>
      <trkpt lat="46.91499" lon="8.66003">
        <ele>1502</ele>
        <time>2021-08-07T09:49:13.576Z</time>
      </trkpt>
      <trkpt lat="46.91499" lon="8.66001">
        <ele>1501</ele>
        <time>2021-08-07T09:49:14.576Z</time>
      </trkpt>
      <trkpt lat="46.91499" lon="8.65999">
        <ele>1500</ele>
        <time>2021-08-07T09:49:15.576Z</time>
      </trkpt>
      <trkpt lat="46.91499" lon="8.65997">
        <ele>1500</ele>
        <time>2021-08-07T09:49:16.576Z</time>
      </trkpt>
      <trkpt lat="46.91499" lon="8.65995">
        <ele>1499</ele>
        <time>2021-08-07T09:49:17.576Z</time>
      </trkpt>
      <trkpt lat="46.91499" lon="8.65993">
        <ele>1499</ele>
        <time>2021-08-07T09:49:18.575Z</time>
      </trkpt>
      <trkpt lat="46.91499" lon="8.65991">
        <ele>1499</ele>
        <time>2021-08-07T09:49:19.575Z</time>
      </trkpt>
      <trkpt lat="46.915" lon="8.65989">
        <ele>1499</ele>
        <time>2021-08-07T09:49:20.576Z</time>
      </trkpt>
      <trkpt lat="46.915" lon="8.65988">
        <ele>1499</ele>
        <time>2021-08-07T09:49:21.576Z</time>
      </trkpt>
      <trkpt lat="46.915" lon="8.65985">
        <ele>1499</ele>
        <time>2021-08-07T09:49:22.576Z</time>
      </trkpt>
      <trkpt lat="46.915" lon="8.65982">
        <ele>1498</ele>
        <time>2021-08-07T09:49:23.576Z</time>
      </trkpt>
      <trkpt lat="46.915" lon="8.6598">
        <ele>1498</ele>
        <time>2021-08-07T09:49:24.576Z</time>
      </trkpt>
      <trkpt lat="46.915" lon="8.65979">
        <ele>1498</ele>
        <time>2021-08-07T09:49:25.576Z</time>
      </trkpt>
      <trkpt lat="46.915" lon="8.65977">
        <ele>1499</ele>
        <time>2021-08-07T09:49:26.576Z</time>
      </trkpt>
      <trkpt lat="46.915" lon="8.65975">
        <ele>1499</ele>
        <time>2021-08-07T09:49:27.576Z</time>
      </trkpt>
      <trkpt lat="46.91501" lon="8.65973">
        <ele>1499</ele>
        <time>2021-08-07T09:49:28.576Z</time>
      </trkpt>
      <trkpt lat="46.91501" lon="8.65971">
        <ele>1499</ele>
        <time>2021-08-07T09:49:29.576Z</time>
      </trkpt>
      <trkpt lat="46.91501" lon="8.6597">
        <ele>1498</ele>
        <time>2021-08-07T09:49:30.575Z</time>
      </trkpt>
      <trkpt lat="46.91501" lon="8.65968">
        <ele>1498</ele>
        <time>2021-08-07T09:49:31.576Z</time>
      </trkpt>
      <trkpt lat="46.91501" lon="8.65965">
        <ele>1498</ele>
        <time>2021-08-07T09:49:32.576Z</time>
      </trkpt>
      <trkpt lat="46.91501" lon="8.65963">
        <ele>1498</ele>
        <time>2021-08-07T09:49:33.576Z</time>
      </trkpt>
      <trkpt lat="46.91501" lon="8.65961">
        <ele>1498</ele>
        <time>2021-08-07T09:49:34.575Z</time>
      </trkpt>
      <trkpt lat="46.91501" lon="8.6596">
        <ele>1498</ele>
        <time>2021-08-07T09:49:35.576Z</time>
      </trkpt>
      <trkpt lat="46.91501" lon="8.65959">
        <ele>1498</ele>
        <time>2021-08-07T09:49:36.576Z</time>
      </trkpt>
      <trkpt lat="46.91501" lon="8.65958">
        <ele>1498</ele>
        <time>2021-08-07T09:49:37.576Z</time>
      </trkpt>
      <trkpt lat="46.91501" lon="8.65957">
        <ele>1498</ele>
        <time>2021-08-07T09:49:40.706Z</time>
      </trkpt>
      <trkpt lat="46.91502" lon="8.65955">
        <ele>1498</ele>
        <time>2021-08-07T09:49:41.705Z</time>
      </trkpt>
      <trkpt lat="46.91502" lon="8.65955">
        <ele>1497</ele>
        <time>2021-08-07T09:49:50.845Z</time>
      </trkpt>
      <trkpt lat="46.91502" lon="8.65954">
        <ele>1497</ele>
        <time>2021-08-07T09:49:51.846Z</time>
      </trkpt>
      <trkpt lat="46.91502" lon="8.65953">
        <ele>1496</ele>
        <time>2021-08-07T09:49:52.845Z</time>
      </trkpt>
      <trkpt lat="46.91502" lon="8.65952">
        <ele>1496</ele>
        <time>2021-08-07T09:49:58.971Z</time>
      </trkpt>
      <trkpt lat="46.91502" lon="8.65951">
        <ele>1496</ele>
        <time>2021-08-07T09:49:59.971Z</time>
      </trkpt>
      <trkpt lat="46.91502" lon="8.65949">
        <ele>1496</ele>
        <time>2021-08-07T09:50:00.971Z</time>
      </trkpt>
      <trkpt lat="46.91502" lon="8.65947">
        <ele>1495</ele>
        <time>2021-08-07T09:50:01.970Z</time>
      </trkpt>
      <trkpt lat="46.91503" lon="8.65945">
        <ele>1495</ele>
        <time>2021-08-07T09:50:02.971Z</time>
      </trkpt>
      <trkpt lat="46.91503" lon="8.65943">
        <ele>1496</ele>
        <time>2021-08-07T09:50:03.971Z</time>
      </trkpt>
      <trkpt lat="46.91504" lon="8.65942">
        <ele>1496</ele>
        <time>2021-08-07T09:50:04.970Z</time>
      </trkpt>
      <trkpt lat="46.91504" lon="8.65943">
        <ele>1496</ele>
        <time>2021-08-07T09:50:05.970Z</time>
      </trkpt>
      <trkpt lat="46.91504" lon="8.65943">
        <ele>1495</ele>
        <time>2021-08-07T09:50:06.971Z</time>
      </trkpt>
      <trkpt lat="46.91503" lon="8.65944">
        <ele>1490</ele>
        <time>2021-08-07T09:50:07.972Z</time>
      </trkpt>
      <trkpt lat="46.91503" lon="8.65944">
        <ele>1490</ele>
        <time>2021-08-07T09:50:08.972Z</time>
      </trkpt>
      <trkpt lat="46.91503" lon="8.65943">
        <ele>1489</ele>
        <time>2021-08-07T09:50:09.971Z</time>
      </trkpt>
      <trkpt lat="46.91503" lon="8.65943">
        <ele>1489</ele>
        <time>2021-08-07T09:50:10.971Z</time>
      </trkpt>
      <trkpt lat="46.91503" lon="8.65942">
        <ele>1488</ele>
        <time>2021-08-07T09:50:11.972Z</time>
      </trkpt>
      <trkpt lat="46.91503" lon="8.65941">
        <ele>1488</ele>
        <time>2021-08-07T09:50:12.971Z</time>
      </trkpt>
      <trkpt lat="46.91504" lon="8.6594">
        <ele>1487</ele>
        <time>2021-08-07T09:50:13.971Z</time>
      </trkpt>
      <trkpt lat="46.91504" lon="8.65938">
        <ele>1487</ele>
        <time>2021-08-07T09:50:14.971Z</time>
      </trkpt>
      <trkpt lat="46.91504" lon="8.65936">
        <ele>1487</ele>
        <time>2021-08-07T09:50:15.972Z</time>
      </trkpt>
      <trkpt lat="46.91505" lon="8.65934">
        <ele>1487</ele>
        <time>2021-08-07T09:50:16.972Z</time>
      </trkpt>
      <trkpt lat="46.91506" lon="8.65932">
        <ele>1487</ele>
        <time>2021-08-07T09:50:27.057Z</time>
      </trkpt>
      <trkpt lat="46.91507" lon="8.6593">
        <ele>1486</ele>
        <time>2021-08-07T09:50:28.057Z</time>
      </trkpt>
      <trkpt lat="46.91507" lon="8.65928">
        <ele>1486</ele>
        <time>2021-08-07T09:50:29.057Z</time>
      </trkpt>
      <trkpt lat="46.91508" lon="8.65926">
        <ele>1486</ele>
        <time>2021-08-07T09:50:30.057Z</time>
      </trkpt>
      <trkpt lat="46.91507" lon="8.65923">
        <ele>1486</ele>
        <time>2021-08-07T09:50:31.057Z</time>
      </trkpt>
      <trkpt lat="46.91507" lon="8.65921">
        <ele>1485</ele>
        <time>2021-08-07T09:50:32.057Z</time>
      </trkpt>
      <trkpt lat="46.91507" lon="8.65918">
        <ele>1485</ele>
        <time>2021-08-07T09:50:33.057Z</time>
      </trkpt>
      <trkpt lat="46.91507" lon="8.65917">
        <ele>1485</ele>
        <time>2021-08-07T09:50:38.182Z</time>
      </trkpt>
      <trkpt lat="46.91508" lon="8.65915">
        <ele>1485</ele>
        <time>2021-08-07T09:50:46.119Z</time>
      </trkpt>
      <trkpt lat="46.91507" lon="8.65914">
        <ele>1484</ele>
        <time>2021-08-07T09:50:47.119Z</time>
      </trkpt>
      <trkpt lat="46.91507" lon="8.65913">
        <ele>1484</ele>
        <time>2021-08-07T09:50:48.119Z</time>
      </trkpt>
      <trkpt lat="46.91507" lon="8.65911">
        <ele>1484</ele>
        <time>2021-08-07T09:50:49.120Z</time>
      </trkpt>
      <trkpt lat="46.91507" lon="8.6591">
        <ele>1484</ele>
        <time>2021-08-07T09:50:50.119Z</time>
      </trkpt>
      <trkpt lat="46.91507" lon="8.6591">
        <ele>1484</ele>
        <time>2021-08-07T09:50:51.119Z</time>
      </trkpt>
      <trkpt lat="46.91508" lon="8.65909">
        <ele>1485</ele>
        <time>2021-08-07T09:50:59.219Z</time>
      </trkpt>
      <trkpt lat="46.91507" lon="8.65908">
        <ele>1485</ele>
        <time>2021-08-07T09:51:00.220Z</time>
      </trkpt>
      <trkpt lat="46.91507" lon="8.65907">
        <ele>1485</ele>
        <time>2021-08-07T09:51:01.219Z</time>
      </trkpt>
      <trkpt lat="46.91507" lon="8.65906">
        <ele>1486</ele>
        <time>2021-08-07T09:51:07.343Z</time>
      </trkpt>
      <trkpt lat="46.91507" lon="8.65905">
        <ele>1486</ele>
        <time>2021-08-07T09:51:23.180Z</time>
      </trkpt>
      <trkpt lat="46.91507" lon="8.65905">
        <ele>1487</ele>
        <time>2021-08-07T09:51:30.072Z</time>
      </trkpt>
      <trkpt lat="46.91508" lon="8.65905">
        <ele>1487</ele>
        <time>2021-08-07T09:51:31.073Z</time>
      </trkpt>
      <trkpt lat="46.91508" lon="8.65904">
        <ele>1487</ele>
        <time>2021-08-07T09:51:32.073Z</time>
      </trkpt>
      <trkpt lat="46.91508" lon="8.65903">
        <ele>1487</ele>
        <time>2021-08-07T09:51:33.073Z</time>
      </trkpt>
      <trkpt lat="46.91508" lon="8.65903">
        <ele>1487</ele>
        <time>2021-08-07T09:51:34.073Z</time>
      </trkpt>
      <trkpt lat="46.91507" lon="8.65902">
        <ele>1487</ele>
        <time>2021-08-07T09:51:35.072Z</time>
      </trkpt>
      <trkpt lat="46.91507" lon="8.65901">
        <ele>1488</ele>
        <time>2021-08-07T09:51:36.073Z</time>
      </trkpt>
      <trkpt lat="46.91506" lon="8.659">
        <ele>1488</ele>
        <time>2021-08-07T09:51:37.073Z</time>
      </trkpt>
      <trkpt lat="46.91505" lon="8.659">
        <ele>1488</ele>
        <time>2021-08-07T09:51:38.073Z</time>
      </trkpt>
      <trkpt lat="46.91505" lon="8.65898">
        <ele>1488</ele>
        <time>2021-08-07T09:51:39.073Z</time>
      </trkpt>
      <trkpt lat="46.91505" lon="8.65897">
        <ele>1487</ele>
        <time>2021-08-07T09:51:40.073Z</time>
      </trkpt>
      <trkpt lat="46.91504" lon="8.65896">
        <ele>1487</ele>
        <time>2021-08-07T09:51:41.073Z</time>
      </trkpt>
      <trkpt lat="46.91504" lon="8.65895">
        <ele>1487</ele>
        <time>2021-08-07T09:51:42.073Z</time>
      </trkpt>
      <trkpt lat="46.91505" lon="8.65893">
        <ele>1486</ele>
        <time>2021-08-07T09:51:43.073Z</time>
      </trkpt>
      <trkpt lat="46.91506" lon="8.65891">
        <ele>1485</ele>
        <time>2021-08-07T09:51:44.072Z</time>
      </trkpt>
      <trkpt lat="46.91506" lon="8.6589">
        <ele>1485</ele>
        <time>2021-08-07T09:51:45.073Z</time>
      </trkpt>
      <trkpt lat="46.91507" lon="8.65889">
        <ele>1485</ele>
        <time>2021-08-07T09:51:46.073Z</time>
      </trkpt>
      <trkpt lat="46.91507" lon="8.65888">
        <ele>1484</ele>
        <time>2021-08-07T09:51:47.073Z</time>
      </trkpt>
      <trkpt lat="46.91507" lon="8.65887">
        <ele>1484</ele>
        <time>2021-08-07T09:51:48.072Z</time>
      </trkpt>
      <trkpt lat="46.91508" lon="8.65887">
        <ele>1485</ele>
        <time>2021-08-07T09:51:49.073Z</time>
      </trkpt>
      <trkpt lat="46.91508" lon="8.65886">
        <ele>1485</ele>
        <time>2021-08-07T09:51:50.073Z</time>
      </trkpt>
      <trkpt lat="46.91508" lon="8.65885">
        <ele>1485</ele>
        <time>2021-08-07T09:51:51.072Z</time>
      </trkpt>
      <trkpt lat="46.91508" lon="8.65885">
        <ele>1486</ele>
        <time>2021-08-07T09:51:52.072Z</time>
      </trkpt>
      <trkpt lat="46.91508" lon="8.65884">
        <ele>1486</ele>
        <time>2021-08-07T09:51:53.072Z</time>
      </trkpt>
      <trkpt lat="46.91508" lon="8.65883">
        <ele>1487</ele>
        <time>2021-08-07T09:51:54.073Z</time>
      </trkpt>
      <trkpt lat="46.91508" lon="8.65882">
        <ele>1488</ele>
        <time>2021-08-07T09:51:55.073Z</time>
      </trkpt>
      <trkpt lat="46.91508" lon="8.6588">
        <ele>1488</ele>
        <time>2021-08-07T09:51:56.073Z</time>
      </trkpt>
      <trkpt lat="46.91508" lon="8.65879">
        <ele>1488</ele>
        <time>2021-08-07T09:51:57.072Z</time>
      </trkpt>
      <trkpt lat="46.91509" lon="8.65877">
        <ele>1489</ele>
        <time>2021-08-07T09:51:58.073Z</time>
      </trkpt>
      <trkpt lat="46.91509" lon="8.65875">
        <ele>1489</ele>
        <time>2021-08-07T09:51:59.072Z</time>
      </trkpt>
      <trkpt lat="46.91509" lon="8.65874">
        <ele>1489</ele>
        <time>2021-08-07T09:52:00.073Z</time>
      </trkpt>
      <trkpt lat="46.91509" lon="8.65873">
        <ele>1489</ele>
        <time>2021-08-07T09:52:01.073Z</time>
      </trkpt>
      <trkpt lat="46.91509" lon="8.65872">
        <ele>1489</ele>
        <time>2021-08-07T09:52:02.072Z</time>
      </trkpt>
      <trkpt lat="46.91509" lon="8.65871">
        <ele>1488</ele>
        <time>2021-08-07T09:52:03.072Z</time>
      </trkpt>
      <trkpt lat="46.91509" lon="8.65871">
        <ele>1488</ele>
        <time>2021-08-07T09:52:04.073Z</time>
      </trkpt>
      <trkpt lat="46.91509" lon="8.65873">
        <ele>1485</ele>
        <time>2021-08-07T09:52:05.073Z</time>
      </trkpt>
      <trkpt lat="46.9151" lon="8.65873">
        <ele>1485</ele>
        <time>2021-08-07T09:52:06.074Z</time>
      </trkpt>
      <trkpt lat="46.9151" lon="8.65873">
        <ele>1486</ele>
        <time>2021-08-07T09:52:07.073Z</time>
      </trkpt>
      <trkpt lat="46.91508" lon="8.65871">
        <ele>1487</ele>
        <time>2021-08-07T09:52:08.074Z</time>
      </trkpt>
      <trkpt lat="46.91509" lon="8.65869">
        <ele>1487</ele>
        <time>2021-08-07T09:52:09.076Z</time>
      </trkpt>
      <trkpt lat="46.9151" lon="8.65868">
        <ele>1488</ele>
        <time>2021-08-07T09:52:12.169Z</time>
      </trkpt>
      <trkpt lat="46.9151" lon="8.65867">
        <ele>1488</ele>
        <time>2021-08-07T09:52:13.169Z</time>
      </trkpt>
      <trkpt lat="46.9151" lon="8.65867">
        <ele>1488</ele>
        <time>2021-08-07T09:52:14.168Z</time>
      </trkpt>
      <trkpt lat="46.9151" lon="8.65866">
        <ele>1488</ele>
        <time>2021-08-07T09:52:15.169Z</time>
      </trkpt>
      <trkpt lat="46.91511" lon="8.65866">
        <ele>1488</ele>
        <time>2021-08-07T09:52:16.169Z</time>
      </trkpt>
      <trkpt lat="46.91512" lon="8.65865">
        <ele>1488</ele>
        <time>2021-08-07T09:52:17.168Z</time>
      </trkpt>
      <trkpt lat="46.91513" lon="8.65864">
        <ele>1487</ele>
        <time>2021-08-07T09:52:18.168Z</time>
      </trkpt>
      <trkpt lat="46.91514" lon="8.65864">
        <ele>1487</ele>
        <time>2021-08-07T09:52:19.168Z</time>
      </trkpt>
      <trkpt lat="46.91514" lon="8.65863">
        <ele>1486</ele>
        <time>2021-08-07T09:52:20.169Z</time>
      </trkpt>
      <trkpt lat="46.91514" lon="8.65862">
        <ele>1486</ele>
        <time>2021-08-07T09:52:21.169Z</time>
      </trkpt>
      <trkpt lat="46.91513" lon="8.65862">
        <ele>1487</ele>
        <time>2021-08-07T09:52:22.168Z</time>
      </trkpt>
      <trkpt lat="46.91512" lon="8.65863">
        <ele>1488</ele>
        <time>2021-08-07T09:52:23.168Z</time>
      </trkpt>
      <trkpt lat="46.91512" lon="8.65864">
        <ele>1488</ele>
        <time>2021-08-07T09:52:24.168Z</time>
      </trkpt>
      <trkpt lat="46.91513" lon="8.65862">
        <ele>1488</ele>
        <time>2021-08-07T09:52:25.169Z</time>
      </trkpt>
      <trkpt lat="46.91512" lon="8.65862">
        <ele>1488</ele>
        <time>2021-08-07T09:52:26.168Z</time>
      </trkpt>
      <trkpt lat="46.91511" lon="8.65863">
        <ele>1488</ele>
        <time>2021-08-07T09:52:27.168Z</time>
      </trkpt>
      <trkpt lat="46.9151" lon="8.65863">
        <ele>1488</ele>
        <time>2021-08-07T09:52:28.168Z</time>
      </trkpt>
      <trkpt lat="46.9151" lon="8.65865">
        <ele>1488</ele>
        <time>2021-08-07T09:52:29.168Z</time>
      </trkpt>
      <trkpt lat="46.9151" lon="8.65865">
        <ele>1487</ele>
        <time>2021-08-07T09:52:30.168Z</time>
      </trkpt>
      <trkpt lat="46.9151" lon="8.65866">
        <ele>1487</ele>
        <time>2021-08-07T09:52:31.168Z</time>
      </trkpt>
      <trkpt lat="46.91509" lon="8.65866">
        <ele>1487</ele>
        <time>2021-08-07T09:52:32.168Z</time>
      </trkpt>
      <trkpt lat="46.91509" lon="8.65867">
        <ele>1486</ele>
        <time>2021-08-07T09:52:33.168Z</time>
      </trkpt>
      <trkpt lat="46.91508" lon="8.65867">
        <ele>1486</ele>
        <time>2021-08-07T09:52:34.169Z</time>
      </trkpt>
      <trkpt lat="46.91508" lon="8.65868">
        <ele>1487</ele>
        <time>2021-08-07T09:52:35.168Z</time>
      </trkpt>
      <trkpt lat="46.91508" lon="8.65869">
        <ele>1487</ele>
        <time>2021-08-07T09:52:36.168Z</time>
      </trkpt>
      <trkpt lat="46.91507" lon="8.65869">
        <ele>1487</ele>
        <time>2021-08-07T09:52:37.168Z</time>
      </trkpt>
      <trkpt lat="46.91507" lon="8.6587">
        <ele>1487</ele>
        <time>2021-08-07T09:52:38.168Z</time>
      </trkpt>
      <trkpt lat="46.91506" lon="8.6587">
        <ele>1488</ele>
        <time>2021-08-07T09:52:39.168Z</time>
      </trkpt>
      <trkpt lat="46.91506" lon="8.65871">
        <ele>1488</ele>
        <time>2021-08-07T09:52:40.168Z</time>
      </trkpt>
      <trkpt lat="46.91506" lon="8.65871">
        <ele>1488</ele>
        <time>2021-08-07T09:52:41.168Z</time>
      </trkpt>
      <trkpt lat="46.91506" lon="8.65872">
        <ele>1488</ele>
        <time>2021-08-07T09:52:42.168Z</time>
      </trkpt>
      <trkpt lat="46.91506" lon="8.65872">
        <ele>1488</ele>
        <time>2021-08-07T09:52:43.169Z</time>
      </trkpt>
      <trkpt lat="46.91507" lon="8.65872">
        <ele>1488</ele>
        <time>2021-08-07T09:52:44.168Z</time>
      </trkpt>
      <trkpt lat="46.91511" lon="8.65872">
        <ele>1489</ele>
        <time>2021-08-07T09:52:45.169Z</time>
      </trkpt>
      <trkpt lat="46.91511" lon="8.65872">
        <ele>1489</ele>
        <time>2021-08-07T09:52:46.169Z</time>
      </trkpt>
      <trkpt lat="46.91511" lon="8.65873">
        <ele>1490</ele>
        <time>2021-08-07T09:52:47.169Z</time>
      </trkpt>
      <trkpt lat="46.91512" lon="8.65873">
        <ele>1490</ele>
        <time>2021-08-07T09:52:48.169Z</time>
      </trkpt>
      <trkpt lat="46.91512" lon="8.65873">
        <ele>1491</ele>
        <time>2021-08-07T09:52:49.169Z</time>
      </trkpt>
      <trkpt lat="46.91512" lon="8.65874">
        <ele>1491</ele>
        <time>2021-08-07T09:52:50.168Z</time>
      </trkpt>
      <trkpt lat="46.91512" lon="8.65874">
        <ele>1492</ele>
        <time>2021-08-07T09:52:51.169Z</time>
      </trkpt>
      <trkpt lat="46.91513" lon="8.65875">
        <ele>1492</ele>
        <time>2021-08-07T09:52:52.168Z</time>
      </trkpt>
      <trkpt lat="46.91513" lon="8.65876">
        <ele>1492</ele>
        <time>2021-08-07T09:52:53.168Z</time>
      </trkpt>
      <trkpt lat="46.91511" lon="8.65874">
        <ele>1499</ele>
        <time>2021-08-07T09:52:57.190Z</time>
      </trkpt>
      <trkpt lat="46.91511" lon="8.65874">
        <ele>1500</ele>
        <time>2021-08-07T09:52:58.189Z</time>
      </trkpt>
      <trkpt lat="46.91511" lon="8.65873">
        <ele>1500</ele>
        <time>2021-08-07T09:52:59.190Z</time>
      </trkpt>
      <trkpt lat="46.91512" lon="8.65873">
        <ele>1500</ele>
        <time>2021-08-07T09:53:00.190Z</time>
      </trkpt>
      <trkpt lat="46.91512" lon="8.65873">
        <ele>1500</ele>
        <time>2021-08-07T09:53:01.190Z</time>
      </trkpt>
      <trkpt lat="46.91514" lon="8.65873">
        <ele>1500</ele>
        <time>2021-08-07T09:53:04.307Z</time>
      </trkpt>
      <trkpt lat="46.91514" lon="8.65876">
        <ele>1500</ele>
        <time>2021-08-07T09:53:05.308Z</time>
      </trkpt>
      <trkpt lat="46.91515" lon="8.65875">
        <ele>1507</ele>
        <time>2021-08-07T09:53:06.308Z</time>
      </trkpt>
      <trkpt lat="46.91514" lon="8.65874">
        <ele>1507</ele>
        <time>2021-08-07T09:53:07.308Z</time>
      </trkpt>
      <trkpt lat="46.91507" lon="8.65866">
        <ele>1509</ele>
        <time>2021-08-07T09:53:08.309Z</time>
      </trkpt>
      <trkpt lat="46.91507" lon="8.65865">
        <ele>1509</ele>
        <time>2021-08-07T09:53:09.308Z</time>
      </trkpt>
      <trkpt lat="46.91507" lon="8.65863">
        <ele>1508</ele>
        <time>2021-08-07T09:53:10.308Z</time>
      </trkpt>
      <trkpt lat="46.91506" lon="8.65865">
        <ele>1501</ele>
        <time>2021-08-07T09:53:11.309Z</time>
      </trkpt>
      <trkpt lat="46.91506" lon="8.65866">
        <ele>1500</ele>
        <time>2021-08-07T09:53:12.309Z</time>
      </trkpt>
      <trkpt lat="46.91506" lon="8.65867">
        <ele>1500</ele>
        <time>2021-08-07T09:53:13.309Z</time>
      </trkpt>
      <trkpt lat="46.91507" lon="8.65867">
        <ele>1499</ele>
        <time>2021-08-07T09:53:14.308Z</time>
      </trkpt>
      <trkpt lat="46.91508" lon="8.65866">
        <ele>1498</ele>
        <time>2021-08-07T09:53:15.309Z</time>
      </trkpt>
      <trkpt lat="46.91506" lon="8.65863">
        <ele>1494</ele>
        <time>2021-08-07T09:53:16.309Z</time>
      </trkpt>
      <trkpt lat="46.91509" lon="8.65865">
        <ele>1486</ele>
        <time>2021-08-07T09:53:17.309Z</time>
      </trkpt>
      <trkpt lat="46.9151" lon="8.65864">
        <ele>1486</ele>
        <time>2021-08-07T09:53:18.310Z</time>
      </trkpt>
      <trkpt lat="46.9151" lon="8.65863">
        <ele>1486</ele>
        <time>2021-08-07T09:53:19.310Z</time>
      </trkpt>
      <trkpt lat="46.9151" lon="8.65862">
        <ele>1486</ele>
        <time>2021-08-07T09:53:20.309Z</time>
      </trkpt>
      <trkpt lat="46.91509" lon="8.65861">
        <ele>1487</ele>
        <time>2021-08-07T09:53:21.309Z</time>
      </trkpt>
      <trkpt lat="46.91509" lon="8.65861">
        <ele>1488</ele>
        <time>2021-08-07T09:53:22.309Z</time>
      </trkpt>
      <trkpt lat="46.91509" lon="8.65861">
        <ele>1488</ele>
        <time>2021-08-07T09:53:23.309Z</time>
      </trkpt>
      <trkpt lat="46.91509" lon="8.65861">
        <ele>1489</ele>
        <time>2021-08-07T09:53:24.311Z</time>
      </trkpt>
      <trkpt lat="46.91512" lon="8.65862">
        <ele>1490</ele>
        <time>2021-08-07T09:53:25.311Z</time>
      </trkpt>
      <trkpt lat="46.91513" lon="8.65864">
        <ele>1490</ele>
        <time>2021-08-07T09:53:26.311Z</time>
      </trkpt>
      <trkpt lat="46.91514" lon="8.65865">
        <ele>1490</ele>
        <time>2021-08-07T09:53:27.311Z</time>
      </trkpt>
      <trkpt lat="46.91515" lon="8.65866">
        <ele>1490</ele>
        <time>2021-08-07T09:53:28.310Z</time>
      </trkpt>
      <trkpt lat="46.91515" lon="8.65865">
        <ele>1490</ele>
        <time>2021-08-07T09:53:29.310Z</time>
      </trkpt>
      <trkpt lat="46.91515" lon="8.65863">
        <ele>1489</ele>
        <time>2021-08-07T09:53:30.311Z</time>
      </trkpt>
      <trkpt lat="46.91514" lon="8.65861">
        <ele>1489</ele>
        <time>2021-08-07T09:53:31.310Z</time>
      </trkpt>
      <trkpt lat="46.91515" lon="8.65861">
        <ele>1488</ele>
        <time>2021-08-07T09:53:32.310Z</time>
      </trkpt>
      <trkpt lat="46.91516" lon="8.65861">
        <ele>1488</ele>
        <time>2021-08-07T09:53:33.311Z</time>
      </trkpt>
      <trkpt lat="46.91517" lon="8.65861">
        <ele>1487</ele>
        <time>2021-08-07T09:53:34.311Z</time>
      </trkpt>
      <trkpt lat="46.91517" lon="8.6586">
        <ele>1487</ele>
        <time>2021-08-07T09:53:35.311Z</time>
      </trkpt>
      <trkpt lat="46.91517" lon="8.65859">
        <ele>1486</ele>
        <time>2021-08-07T09:53:36.311Z</time>
      </trkpt>
      <trkpt lat="46.91517" lon="8.65858">
        <ele>1486</ele>
        <time>2021-08-07T09:53:37.311Z</time>
      </trkpt>
      <trkpt lat="46.91516" lon="8.65857">
        <ele>1486</ele>
        <time>2021-08-07T09:53:38.311Z</time>
      </trkpt>
      <trkpt lat="46.91516" lon="8.65855">
        <ele>1486</ele>
        <time>2021-08-07T09:53:39.310Z</time>
      </trkpt>
      <trkpt lat="46.91516" lon="8.65854">
        <ele>1486</ele>
        <time>2021-08-07T09:53:40.311Z</time>
      </trkpt>
      <trkpt lat="46.91516" lon="8.65853">
        <ele>1486</ele>
        <time>2021-08-07T09:53:41.311Z</time>
      </trkpt>
      <trkpt lat="46.91517" lon="8.65853">
        <ele>1485</ele>
        <time>2021-08-07T09:53:42.310Z</time>
      </trkpt>
      <trkpt lat="46.91517" lon="8.65852">
        <ele>1485</ele>
        <time>2021-08-07T09:53:43.311Z</time>
      </trkpt>
      <trkpt lat="46.91517" lon="8.65851">
        <ele>1485</ele>
        <time>2021-08-07T09:53:44.310Z</time>
      </trkpt>
      <trkpt lat="46.91518" lon="8.6585">
        <ele>1485</ele>
        <time>2021-08-07T09:53:45.310Z</time>
      </trkpt>
      <trkpt lat="46.91518" lon="8.65849">
        <ele>1485</ele>
        <time>2021-08-07T09:53:46.311Z</time>
      </trkpt>
      <trkpt lat="46.91519" lon="8.65847">
        <ele>1485</ele>
        <time>2021-08-07T09:53:47.311Z</time>
      </trkpt>
      <trkpt lat="46.9152" lon="8.65846">
        <ele>1485</ele>
        <time>2021-08-07T09:53:48.310Z</time>
      </trkpt>
      <trkpt lat="46.9152" lon="8.65845">
        <ele>1484</ele>
        <time>2021-08-07T09:53:49.310Z</time>
      </trkpt>
      <trkpt lat="46.9152" lon="8.65844">
        <ele>1484</ele>
        <time>2021-08-07T09:53:50.310Z</time>
      </trkpt>
      <trkpt lat="46.9152" lon="8.65843">
        <ele>1484</ele>
        <time>2021-08-07T09:53:51.311Z</time>
      </trkpt>
      <trkpt lat="46.91521" lon="8.65842">
        <ele>1483</ele>
        <time>2021-08-07T09:53:52.310Z</time>
      </trkpt>
      <trkpt lat="46.91522" lon="8.65841">
        <ele>1483</ele>
        <time>2021-08-07T09:53:53.311Z</time>
      </trkpt>
      <trkpt lat="46.91524" lon="8.65841">
        <ele>1483</ele>
        <time>2021-08-07T09:53:54.311Z</time>
      </trkpt>
      <trkpt lat="46.91525" lon="8.6584">
        <ele>1483</ele>
        <time>2021-08-07T09:53:55.311Z</time>
      </trkpt>
      <trkpt lat="46.91526" lon="8.6584">
        <ele>1482</ele>
        <time>2021-08-07T09:53:56.311Z</time>
      </trkpt>
      <trkpt lat="46.91528" lon="8.65839">
        <ele>1482</ele>
        <time>2021-08-07T09:53:57.311Z</time>
      </trkpt>
      <trkpt lat="46.91529" lon="8.65838">
        <ele>1481</ele>
        <time>2021-08-07T09:53:58.311Z</time>
      </trkpt>
      <trkpt lat="46.91531" lon="8.65836">
        <ele>1481</ele>
        <time>2021-08-07T09:53:59.311Z</time>
      </trkpt>
      <trkpt lat="46.91532" lon="8.65835">
        <ele>1480</ele>
        <time>2021-08-07T09:54:00.311Z</time>
      </trkpt>
      <trkpt lat="46.91535" lon="8.65834">
        <ele>1479</ele>
        <time>2021-08-07T09:54:01.310Z</time>
      </trkpt>
      <trkpt lat="46.91537" lon="8.65833">
        <ele>1478</ele>
        <time>2021-08-07T09:54:02.310Z</time>
      </trkpt>
      <trkpt lat="46.91539" lon="8.65832">
        <ele>1478</ele>
        <time>2021-08-07T09:54:03.310Z</time>
      </trkpt>
      <trkpt lat="46.9154" lon="8.65831">
        <ele>1477</ele>
        <time>2021-08-07T09:54:04.310Z</time>
      </trkpt>
      <trkpt lat="46.91541" lon="8.6583">
        <ele>1476</ele>
        <time>2021-08-07T09:54:05.310Z</time>
      </trkpt>
      <trkpt lat="46.91542" lon="8.65829">
        <ele>1476</ele>
        <time>2021-08-07T09:54:07.436Z</time>
      </trkpt>
      <trkpt lat="46.91543" lon="8.65827">
        <ele>1475</ele>
        <time>2021-08-07T09:54:08.436Z</time>
      </trkpt>
      <trkpt lat="46.91543" lon="8.65826">
        <ele>1475</ele>
        <time>2021-08-07T09:54:09.436Z</time>
      </trkpt>
      <trkpt lat="46.91543" lon="8.65824">
        <ele>1475</ele>
        <time>2021-08-07T09:54:10.436Z</time>
      </trkpt>
      <trkpt lat="46.91543" lon="8.65822">
        <ele>1475</ele>
        <time>2021-08-07T09:54:11.436Z</time>
      </trkpt>
      <trkpt lat="46.91543" lon="8.65821">
        <ele>1475</ele>
        <time>2021-08-07T09:54:12.436Z</time>
      </trkpt>
      <trkpt lat="46.91543" lon="8.65819">
        <ele>1475</ele>
        <time>2021-08-07T09:54:20.449Z</time>
      </trkpt>
      <trkpt lat="46.91543" lon="8.65818">
        <ele>1474</ele>
        <time>2021-08-07T09:54:21.449Z</time>
      </trkpt>
      <trkpt lat="46.91543" lon="8.65816">
        <ele>1473</ele>
        <time>2021-08-07T09:54:22.449Z</time>
      </trkpt>
      <trkpt lat="46.91543" lon="8.65815">
        <ele>1473</ele>
        <time>2021-08-07T09:54:23.449Z</time>
      </trkpt>
      <trkpt lat="46.91543" lon="8.65814">
        <ele>1472</ele>
        <time>2021-08-07T09:54:24.449Z</time>
      </trkpt>
      <trkpt lat="46.91543" lon="8.65812">
        <ele>1472</ele>
        <time>2021-08-07T09:54:25.449Z</time>
      </trkpt>
      <trkpt lat="46.91544" lon="8.65811">
        <ele>1471</ele>
        <time>2021-08-07T09:54:26.449Z</time>
      </trkpt>
      <trkpt lat="46.91545" lon="8.65811">
        <ele>1470</ele>
        <time>2021-08-07T09:54:27.449Z</time>
      </trkpt>
      <trkpt lat="46.91546" lon="8.65809">
        <ele>1470</ele>
        <time>2021-08-07T09:54:28.449Z</time>
      </trkpt>
      <trkpt lat="46.91546" lon="8.65807">
        <ele>1470</ele>
        <time>2021-08-07T09:54:29.448Z</time>
      </trkpt>
      <trkpt lat="46.91546" lon="8.65805">
        <ele>1470</ele>
        <time>2021-08-07T09:54:30.449Z</time>
      </trkpt>
      <trkpt lat="46.91546" lon="8.65804">
        <ele>1470</ele>
        <time>2021-08-07T09:54:31.449Z</time>
      </trkpt>
      <trkpt lat="46.91546" lon="8.65802">
        <ele>1469</ele>
        <time>2021-08-07T09:54:32.449Z</time>
      </trkpt>
      <trkpt lat="46.91546" lon="8.658">
        <ele>1468</ele>
        <time>2021-08-07T09:54:33.449Z</time>
      </trkpt>
      <trkpt lat="46.91546" lon="8.658">
        <ele>1468</ele>
        <time>2021-08-07T09:54:34.449Z</time>
      </trkpt>
      <trkpt lat="46.91547" lon="8.65798">
        <ele>1468</ele>
        <time>2021-08-07T09:54:35.449Z</time>
      </trkpt>
      <trkpt lat="46.91547" lon="8.65797">
        <ele>1468</ele>
        <time>2021-08-07T09:54:36.449Z</time>
      </trkpt>
      <trkpt lat="46.91548" lon="8.65796">
        <ele>1467</ele>
        <time>2021-08-07T09:54:37.449Z</time>
      </trkpt>
      <trkpt lat="46.91547" lon="8.65796">
        <ele>1467</ele>
        <time>2021-08-07T09:54:38.449Z</time>
      </trkpt>
      <trkpt lat="46.91547" lon="8.65795">
        <ele>1467</ele>
        <time>2021-08-07T09:54:39.448Z</time>
      </trkpt>
      <trkpt lat="46.91546" lon="8.65794">
        <ele>1468</ele>
        <time>2021-08-07T09:54:40.448Z</time>
      </trkpt>
      <trkpt lat="46.91546" lon="8.65793">
        <ele>1468</ele>
        <time>2021-08-07T09:54:41.449Z</time>
      </trkpt>
      <trkpt lat="46.91546" lon="8.65792">
        <ele>1468</ele>
        <time>2021-08-07T09:54:42.449Z</time>
      </trkpt>
      <trkpt lat="46.91546" lon="8.65791">
        <ele>1469</ele>
        <time>2021-08-07T09:54:43.448Z</time>
      </trkpt>
      <trkpt lat="46.91546" lon="8.6579">
        <ele>1469</ele>
        <time>2021-08-07T09:54:44.449Z</time>
      </trkpt>
      <trkpt lat="46.91546" lon="8.65789">
        <ele>1470</ele>
        <time>2021-08-07T09:54:48.588Z</time>
      </trkpt>
      <trkpt lat="46.91546" lon="8.65789">
        <ele>1470</ele>
        <time>2021-08-07T09:54:49.589Z</time>
      </trkpt>
      <trkpt lat="46.91547" lon="8.65788">
        <ele>1471</ele>
        <time>2021-08-07T09:54:50.589Z</time>
      </trkpt>
      <trkpt lat="46.91547" lon="8.65788">
        <ele>1471</ele>
        <time>2021-08-07T09:54:51.589Z</time>
      </trkpt>
      <trkpt lat="46.91547" lon="8.65787">
        <ele>1472</ele>
        <time>2021-08-07T09:54:52.589Z</time>
      </trkpt>
      <trkpt lat="46.91548" lon="8.65785">
        <ele>1472</ele>
        <time>2021-08-07T09:54:53.588Z</time>
      </trkpt>
      <trkpt lat="46.91548" lon="8.65784">
        <ele>1472</ele>
        <time>2021-08-07T09:54:56.691Z</time>
      </trkpt>
      <trkpt lat="46.91549" lon="8.65783">
        <ele>1472</ele>
        <time>2021-08-07T09:54:57.691Z</time>
      </trkpt>
      <trkpt lat="46.91548" lon="8.65782">
        <ele>1472</ele>
        <time>2021-08-07T09:54:58.691Z</time>
      </trkpt>
      <trkpt lat="46.91547" lon="8.6578">
        <ele>1472</ele>
        <time>2021-08-07T09:54:59.691Z</time>
      </trkpt>
      <trkpt lat="46.91547" lon="8.65779">
        <ele>1472</ele>
        <time>2021-08-07T09:55:00.691Z</time>
      </trkpt>
      <trkpt lat="46.91547" lon="8.65778">
        <ele>1472</ele>
        <time>2021-08-07T09:55:01.691Z</time>
      </trkpt>
      <trkpt lat="46.91548" lon="8.65776">
        <ele>1471</ele>
        <time>2021-08-07T09:55:02.691Z</time>
      </trkpt>
      <trkpt lat="46.91548" lon="8.65774">
        <ele>1471</ele>
        <time>2021-08-07T09:55:03.691Z</time>
      </trkpt>
      <trkpt lat="46.91547" lon="8.65772">
        <ele>1470</ele>
        <time>2021-08-07T09:55:04.691Z</time>
      </trkpt>
      <trkpt lat="46.91547" lon="8.65771">
        <ele>1470</ele>
        <time>2021-08-07T09:55:05.691Z</time>
      </trkpt>
      <trkpt lat="46.91547" lon="8.6577">
        <ele>1469</ele>
        <time>2021-08-07T09:55:06.691Z</time>
      </trkpt>
      <trkpt lat="46.91546" lon="8.65769">
        <ele>1468</ele>
        <time>2021-08-07T09:55:07.691Z</time>
      </trkpt>
      <trkpt lat="46.91546" lon="8.65769">
        <ele>1467</ele>
        <time>2021-08-07T09:55:08.691Z</time>
      </trkpt>
      <trkpt lat="46.91546" lon="8.65768">
        <ele>1466</ele>
        <time>2021-08-07T09:55:09.691Z</time>
      </trkpt>
      <trkpt lat="46.91546" lon="8.65767">
        <ele>1465</ele>
        <time>2021-08-07T09:55:10.691Z</time>
      </trkpt>
      <trkpt lat="46.91547" lon="8.65766">
        <ele>1464</ele>
        <time>2021-08-07T09:55:11.691Z</time>
      </trkpt>
      <trkpt lat="46.91547" lon="8.65765">
        <ele>1463</ele>
        <time>2021-08-07T09:55:12.690Z</time>
      </trkpt>
      <trkpt lat="46.91547" lon="8.65763">
        <ele>1463</ele>
        <time>2021-08-07T09:55:13.691Z</time>
      </trkpt>
      <trkpt lat="46.91546" lon="8.65761">
        <ele>1463</ele>
        <time>2021-08-07T09:55:14.691Z</time>
      </trkpt>
      <trkpt lat="46.91546" lon="8.6576">
        <ele>1463</ele>
        <time>2021-08-07T09:55:15.691Z</time>
      </trkpt>
      <trkpt lat="46.91545" lon="8.65759">
        <ele>1463</ele>
        <time>2021-08-07T09:55:16.692Z</time>
      </trkpt>
      <trkpt lat="46.91542" lon="8.65757">
        <ele>1464</ele>
        <time>2021-08-07T09:55:17.691Z</time>
      </trkpt>
      <trkpt lat="46.91542" lon="8.65757">
        <ele>1464</ele>
        <time>2021-08-07T09:55:18.692Z</time>
      </trkpt>
      <trkpt lat="46.91541" lon="8.65757">
        <ele>1464</ele>
        <time>2021-08-07T09:55:19.691Z</time>
      </trkpt>
      <trkpt lat="46.9154" lon="8.65757">
        <ele>1465</ele>
        <time>2021-08-07T09:55:20.691Z</time>
      </trkpt>
      <trkpt lat="46.9154" lon="8.65757">
        <ele>1465</ele>
        <time>2021-08-07T09:55:21.692Z</time>
      </trkpt>
      <trkpt lat="46.91541" lon="8.65756">
        <ele>1463</ele>
        <time>2021-08-07T09:55:22.692Z</time>
      </trkpt>
      <trkpt lat="46.9154" lon="8.65755">
        <ele>1462</ele>
        <time>2021-08-07T09:55:23.691Z</time>
      </trkpt>
      <trkpt lat="46.91539" lon="8.65755">
        <ele>1461</ele>
        <time>2021-08-07T09:55:24.692Z</time>
      </trkpt>
      <trkpt lat="46.91538" lon="8.65754">
        <ele>1461</ele>
        <time>2021-08-07T09:55:25.691Z</time>
      </trkpt>
      <trkpt lat="46.91538" lon="8.65754">
        <ele>1460</ele>
        <time>2021-08-07T09:55:26.692Z</time>
      </trkpt>
      <trkpt lat="46.91538" lon="8.65754">
        <ele>1460</ele>
        <time>2021-08-07T09:55:27.691Z</time>
      </trkpt>
      <trkpt lat="46.91537" lon="8.65752">
        <ele>1460</ele>
        <time>2021-08-07T09:55:28.692Z</time>
      </trkpt>
      <trkpt lat="46.91538" lon="8.65753">
        <ele>1460</ele>
        <time>2021-08-07T09:55:29.691Z</time>
      </trkpt>
      <trkpt lat="46.91541" lon="8.65757">
        <ele>1458</ele>
        <time>2021-08-07T09:55:30.692Z</time>
      </trkpt>
      <trkpt lat="46.91542" lon="8.65756">
        <ele>1458</ele>
        <time>2021-08-07T09:55:31.691Z</time>
      </trkpt>
      <trkpt lat="46.9154" lon="8.65753">
        <ele>1458</ele>
        <time>2021-08-07T09:55:32.692Z</time>
      </trkpt>
      <trkpt lat="46.91539" lon="8.65753">
        <ele>1457</ele>
        <time>2021-08-07T09:55:33.691Z</time>
      </trkpt>
      <trkpt lat="46.91539" lon="8.65753">
        <ele>1457</ele>
        <time>2021-08-07T09:55:34.692Z</time>
      </trkpt>
      <trkpt lat="46.91538" lon="8.65752">
        <ele>1457</ele>
        <time>2021-08-07T09:55:35.691Z</time>
      </trkpt>
      <trkpt lat="46.91538" lon="8.65751">
        <ele>1456</ele>
        <time>2021-08-07T09:55:36.691Z</time>
      </trkpt>
      <trkpt lat="46.91538" lon="8.6575">
        <ele>1456</ele>
        <time>2021-08-07T09:55:37.691Z</time>
      </trkpt>
      <trkpt lat="46.91537" lon="8.6575">
        <ele>1456</ele>
        <time>2021-08-07T09:55:38.691Z</time>
      </trkpt>
      <trkpt lat="46.91537" lon="8.6575">
        <ele>1456</ele>
        <time>2021-08-07T09:55:39.691Z</time>
      </trkpt>
      <trkpt lat="46.91537" lon="8.65749">
        <ele>1456</ele>
        <time>2021-08-07T09:55:40.691Z</time>
      </trkpt>
      <trkpt lat="46.91536" lon="8.65748">
        <ele>1456</ele>
        <time>2021-08-07T09:55:41.691Z</time>
      </trkpt>
      <trkpt lat="46.91535" lon="8.65747">
        <ele>1456</ele>
        <time>2021-08-07T09:55:42.692Z</time>
      </trkpt>
      <trkpt lat="46.91534" lon="8.65746">
        <ele>1457</ele>
        <time>2021-08-07T09:55:43.692Z</time>
      </trkpt>
      <trkpt lat="46.91534" lon="8.65745">
        <ele>1457</ele>
        <time>2021-08-07T09:55:44.691Z</time>
      </trkpt>
      <trkpt lat="46.91535" lon="8.65745">
        <ele>1457</ele>
        <time>2021-08-07T09:55:45.691Z</time>
      </trkpt>
      <trkpt lat="46.91535" lon="8.65744">
        <ele>1458</ele>
        <time>2021-08-07T09:55:46.691Z</time>
      </trkpt>
      <trkpt lat="46.91536" lon="8.65744">
        <ele>1458</ele>
        <time>2021-08-07T09:55:47.691Z</time>
      </trkpt>
      <trkpt lat="46.91536" lon="8.65743">
        <ele>1458</ele>
        <time>2021-08-07T09:55:48.691Z</time>
      </trkpt>
      <trkpt lat="46.91536" lon="8.65743">
        <ele>1459</ele>
        <time>2021-08-07T09:55:49.691Z</time>
      </trkpt>
      <trkpt lat="46.91536" lon="8.65742">
        <ele>1459</ele>
        <time>2021-08-07T09:55:50.691Z</time>
      </trkpt>
      <trkpt lat="46.91536" lon="8.65741">
        <ele>1459</ele>
        <time>2021-08-07T09:55:51.691Z</time>
      </trkpt>
      <trkpt lat="46.91537" lon="8.65741">
        <ele>1458</ele>
        <time>2021-08-07T09:55:52.691Z</time>
      </trkpt>
      <trkpt lat="46.91537" lon="8.6574">
        <ele>1458</ele>
        <time>2021-08-07T09:55:53.691Z</time>
      </trkpt>
      <trkpt lat="46.91536" lon="8.65739">
        <ele>1457</ele>
        <time>2021-08-07T09:55:54.691Z</time>
      </trkpt>
      <trkpt lat="46.91537" lon="8.65738">
        <ele>1457</ele>
        <time>2021-08-07T09:55:55.691Z</time>
      </trkpt>
      <trkpt lat="46.91537" lon="8.65737">
        <ele>1457</ele>
        <time>2021-08-07T09:55:56.691Z</time>
      </trkpt>
      <trkpt lat="46.91537" lon="8.65736">
        <ele>1457</ele>
        <time>2021-08-07T09:55:57.691Z</time>
      </trkpt>
      <trkpt lat="46.91537" lon="8.65735">
        <ele>1457</ele>
        <time>2021-08-07T09:55:58.691Z</time>
      </trkpt>
      <trkpt lat="46.91537" lon="8.65735">
        <ele>1457</ele>
        <time>2021-08-07T09:55:59.691Z</time>
      </trkpt>
      <trkpt lat="46.91536" lon="8.65736">
        <ele>1457</ele>
        <time>2021-08-07T09:56:00.691Z</time>
      </trkpt>
      <trkpt lat="46.91536" lon="8.65735">
        <ele>1457</ele>
        <time>2021-08-07T09:56:01.691Z</time>
      </trkpt>
      <trkpt lat="46.91535" lon="8.65733">
        <ele>1457</ele>
        <time>2021-08-07T09:56:02.691Z</time>
      </trkpt>
      <trkpt lat="46.91534" lon="8.65732">
        <ele>1457</ele>
        <time>2021-08-07T09:56:03.692Z</time>
      </trkpt>
      <trkpt lat="46.91533" lon="8.6573">
        <ele>1458</ele>
        <time>2021-08-07T09:56:04.691Z</time>
      </trkpt>
      <trkpt lat="46.91532" lon="8.65729">
        <ele>1458</ele>
        <time>2021-08-07T09:56:05.692Z</time>
      </trkpt>
      <trkpt lat="46.91532" lon="8.65728">
        <ele>1458</ele>
        <time>2021-08-07T09:56:06.691Z</time>
      </trkpt>
      <trkpt lat="46.91533" lon="8.65728">
        <ele>1458</ele>
        <time>2021-08-07T09:56:07.691Z</time>
      </trkpt>
      <trkpt lat="46.91533" lon="8.65728">
        <ele>1459</ele>
        <time>2021-08-07T09:56:08.692Z</time>
      </trkpt>
      <trkpt lat="46.91533" lon="8.65728">
        <ele>1459</ele>
        <time>2021-08-07T09:56:09.691Z</time>
      </trkpt>
      <trkpt lat="46.91533" lon="8.65728">
        <ele>1458</ele>
        <time>2021-08-07T09:56:10.692Z</time>
      </trkpt>
      <trkpt lat="46.91533" lon="8.65729">
        <ele>1458</ele>
        <time>2021-08-07T09:56:11.692Z</time>
      </trkpt>
      <trkpt lat="46.91533" lon="8.6573">
        <ele>1458</ele>
        <time>2021-08-07T09:56:12.692Z</time>
      </trkpt>
      <trkpt lat="46.91534" lon="8.65731">
        <ele>1458</ele>
        <time>2021-08-07T09:56:13.692Z</time>
      </trkpt>
      <trkpt lat="46.91534" lon="8.65732">
        <ele>1458</ele>
        <time>2021-08-07T09:56:14.692Z</time>
      </trkpt>
      <trkpt lat="46.91535" lon="8.65732">
        <ele>1458</ele>
        <time>2021-08-07T09:56:15.692Z</time>
      </trkpt>
      <trkpt lat="46.91536" lon="8.65732">
        <ele>1458</ele>
        <time>2021-08-07T09:56:16.692Z</time>
      </trkpt>
      <trkpt lat="46.91536" lon="8.65733">
        <ele>1458</ele>
        <time>2021-08-07T09:56:17.692Z</time>
      </trkpt>
      <trkpt lat="46.91537" lon="8.65736">
        <ele>1458</ele>
        <time>2021-08-07T09:56:18.693Z</time>
      </trkpt>
      <trkpt lat="46.91537" lon="8.65737">
        <ele>1458</ele>
        <time>2021-08-07T09:56:19.692Z</time>
      </trkpt>
      <trkpt lat="46.91538" lon="8.65737">
        <ele>1458</ele>
        <time>2021-08-07T09:56:20.693Z</time>
      </trkpt>
      <trkpt lat="46.91538" lon="8.65737">
        <ele>1458</ele>
        <time>2021-08-07T09:56:21.692Z</time>
      </trkpt>
      <trkpt lat="46.91538" lon="8.65737">
        <ele>1458</ele>
        <time>2021-08-07T09:56:22.692Z</time>
      </trkpt>
      <trkpt lat="46.91539" lon="8.65743">
        <ele>1456</ele>
        <time>2021-08-07T09:56:25.688Z</time>
      </trkpt>
      <trkpt lat="46.91539" lon="8.65743">
        <ele>1456</ele>
        <time>2021-08-07T09:56:26.688Z</time>
      </trkpt>
      <trkpt lat="46.91539" lon="8.65743">
        <ele>1456</ele>
        <time>2021-08-07T09:56:27.689Z</time>
      </trkpt>
      <trkpt lat="46.91541" lon="8.65742">
        <ele>1457</ele>
        <time>2021-08-07T09:56:28.689Z</time>
      </trkpt>
      <trkpt lat="46.91542" lon="8.65742">
        <ele>1457</ele>
        <time>2021-08-07T09:56:29.689Z</time>
      </trkpt>
      <trkpt lat="46.91544" lon="8.65743">
        <ele>1457</ele>
        <time>2021-08-07T09:56:30.689Z</time>
      </trkpt>
      <trkpt lat="46.91545" lon="8.65744">
        <ele>1457</ele>
        <time>2021-08-07T09:56:31.688Z</time>
      </trkpt>
      <trkpt lat="46.91546" lon="8.65745">
        <ele>1458</ele>
        <time>2021-08-07T09:56:32.688Z</time>
      </trkpt>
      <trkpt lat="46.91546" lon="8.65745">
        <ele>1458</ele>
        <time>2021-08-07T09:56:34.809Z</time>
      </trkpt>
      <trkpt lat="46.91547" lon="8.65745">
        <ele>1458</ele>
        <time>2021-08-07T09:56:35.810Z</time>
      </trkpt>
      <trkpt lat="46.91548" lon="8.65746">
        <ele>1459</ele>
        <time>2021-08-07T09:56:36.810Z</time>
      </trkpt>
      <trkpt lat="46.91549" lon="8.65746">
        <ele>1459</ele>
        <time>2021-08-07T09:56:37.809Z</time>
      </trkpt>
      <trkpt lat="46.9155" lon="8.65746">
        <ele>1459</ele>
        <time>2021-08-07T09:56:38.810Z</time>
      </trkpt>
      <trkpt lat="46.91551" lon="8.65746">
        <ele>1460</ele>
        <time>2021-08-07T09:56:39.809Z</time>
      </trkpt>
      <trkpt lat="46.91551" lon="8.65746">
        <ele>1460</ele>
        <time>2021-08-07T09:56:40.809Z</time>
      </trkpt>
      <trkpt lat="46.91552" lon="8.65746">
        <ele>1461</ele>
        <time>2021-08-07T09:56:41.809Z</time>
      </trkpt>
      <trkpt lat="46.91553" lon="8.65746">
        <ele>1461</ele>
        <time>2021-08-07T09:56:42.810Z</time>
      </trkpt>
      <trkpt lat="46.91553" lon="8.65745">
        <ele>1462</ele>
        <time>2021-08-07T09:56:46.840Z</time>
      </trkpt>
      <trkpt lat="46.91554" lon="8.65745">
        <ele>1462</ele>
        <time>2021-08-07T09:56:47.840Z</time>
      </trkpt>
      <trkpt lat="46.91553" lon="8.65744">
        <ele>1462</ele>
        <time>2021-08-07T09:56:48.840Z</time>
      </trkpt>
      <trkpt lat="46.91554" lon="8.65741">
        <ele>1463</ele>
        <time>2021-08-07T09:56:49.841Z</time>
      </trkpt>
      <trkpt lat="46.91553" lon="8.65741">
        <ele>1463</ele>
        <time>2021-08-07T09:56:50.840Z</time>
      </trkpt>
      <trkpt lat="46.91553" lon="8.6574">
        <ele>1462</ele>
        <time>2021-08-07T09:56:51.840Z</time>
      </trkpt>
      <trkpt lat="46.91553" lon="8.65739">
        <ele>1462</ele>
        <time>2021-08-07T09:56:52.841Z</time>
      </trkpt>
      <trkpt lat="46.91553" lon="8.65738">
        <ele>1462</ele>
        <time>2021-08-07T09:56:53.841Z</time>
      </trkpt>
      <trkpt lat="46.91553" lon="8.65737">
        <ele>1461</ele>
        <time>2021-08-07T09:56:54.841Z</time>
      </trkpt>
      <trkpt lat="46.91554" lon="8.65736">
        <ele>1461</ele>
        <time>2021-08-07T09:56:55.840Z</time>
      </trkpt>
      <trkpt lat="46.91554" lon="8.65735">
        <ele>1461</ele>
        <time>2021-08-07T09:56:56.841Z</time>
      </trkpt>
      <trkpt lat="46.91555" lon="8.65732">
        <ele>1460</ele>
        <time>2021-08-07T09:56:57.841Z</time>
      </trkpt>
      <trkpt lat="46.91555" lon="8.6573">
        <ele>1459</ele>
        <time>2021-08-07T09:56:58.840Z</time>
      </trkpt>
      <trkpt lat="46.91554" lon="8.65728">
        <ele>1459</ele>
        <time>2021-08-07T09:56:59.841Z</time>
      </trkpt>
      <trkpt lat="46.91554" lon="8.65726">
        <ele>1459</ele>
        <time>2021-08-07T09:57:00.841Z</time>
      </trkpt>
      <trkpt lat="46.91553" lon="8.65725">
        <ele>1458</ele>
        <time>2021-08-07T09:57:01.841Z</time>
      </trkpt>
      <trkpt lat="46.91552" lon="8.65724">
        <ele>1458</ele>
        <time>2021-08-07T09:57:02.841Z</time>
      </trkpt>
      <trkpt lat="46.91551" lon="8.65723">
        <ele>1457</ele>
        <time>2021-08-07T09:57:03.841Z</time>
      </trkpt>
      <trkpt lat="46.91551" lon="8.65721">
        <ele>1457</ele>
        <time>2021-08-07T09:57:04.840Z</time>
      </trkpt>
      <trkpt lat="46.91551" lon="8.6572">
        <ele>1456</ele>
        <time>2021-08-07T09:57:05.840Z</time>
      </trkpt>
      <trkpt lat="46.91551" lon="8.65719">
        <ele>1456</ele>
        <time>2021-08-07T09:57:06.841Z</time>
      </trkpt>
      <trkpt lat="46.91551" lon="8.65717">
        <ele>1456</ele>
        <time>2021-08-07T09:57:07.840Z</time>
      </trkpt>
      <trkpt lat="46.91552" lon="8.65716">
        <ele>1456</ele>
        <time>2021-08-07T09:57:08.841Z</time>
      </trkpt>
      <trkpt lat="46.91552" lon="8.65715">
        <ele>1455</ele>
        <time>2021-08-07T09:57:09.841Z</time>
      </trkpt>
      <trkpt lat="46.91553" lon="8.65714">
        <ele>1455</ele>
        <time>2021-08-07T09:57:10.841Z</time>
      </trkpt>
      <trkpt lat="46.91552" lon="8.65713">
        <ele>1455</ele>
        <time>2021-08-07T09:57:11.840Z</time>
      </trkpt>
      <trkpt lat="46.91552" lon="8.65712">
        <ele>1455</ele>
        <time>2021-08-07T09:57:12.841Z</time>
      </trkpt>
      <trkpt lat="46.91551" lon="8.65711">
        <ele>1455</ele>
        <time>2021-08-07T09:57:13.840Z</time>
      </trkpt>
      <trkpt lat="46.9155" lon="8.6571">
        <ele>1455</ele>
        <time>2021-08-07T09:57:14.841Z</time>
      </trkpt>
      <trkpt lat="46.9155" lon="8.65709">
        <ele>1455</ele>
        <time>2021-08-07T09:57:15.841Z</time>
      </trkpt>
      <trkpt lat="46.9155" lon="8.65708">
        <ele>1455</ele>
        <time>2021-08-07T09:57:16.841Z</time>
      </trkpt>
      <trkpt lat="46.91549" lon="8.65707">
        <ele>1455</ele>
        <time>2021-08-07T09:57:17.841Z</time>
      </trkpt>
      <trkpt lat="46.91549" lon="8.65707">
        <ele>1455</ele>
        <time>2021-08-07T09:57:23.948Z</time>
      </trkpt>
      <trkpt lat="46.9155" lon="8.65707">
        <ele>1455</ele>
        <time>2021-08-07T09:57:24.947Z</time>
      </trkpt>
      <trkpt lat="46.9155" lon="8.65707">
        <ele>1455</ele>
        <time>2021-08-07T09:57:25.948Z</time>
      </trkpt>
      <trkpt lat="46.9155" lon="8.65707">
        <ele>1455</ele>
        <time>2021-08-07T09:57:26.947Z</time>
      </trkpt>
      <trkpt lat="46.91551" lon="8.65706">
        <ele>1456</ele>
        <time>2021-08-07T09:57:27.950Z</time>
      </trkpt>
      <trkpt lat="46.91551" lon="8.65706">
        <ele>1455</ele>
        <time>2021-08-07T09:57:28.949Z</time>
      </trkpt>
      <trkpt lat="46.91551" lon="8.65706">
        <ele>1455</ele>
        <time>2021-08-07T09:57:29.949Z</time>
      </trkpt>
      <trkpt lat="46.91553" lon="8.65707">
        <ele>1455</ele>
        <time>2021-08-07T09:57:31.800Z</time>
      </trkpt>
      <trkpt lat="46.91553" lon="8.65707">
        <ele>1455</ele>
        <time>2021-08-07T09:57:32.800Z</time>
      </trkpt>
      <trkpt lat="46.91554" lon="8.65707">
        <ele>1454</ele>
        <time>2021-08-07T09:57:33.799Z</time>
      </trkpt>
      <trkpt lat="46.91553" lon="8.65707">
        <ele>1454</ele>
        <time>2021-08-07T09:57:34.799Z</time>
      </trkpt>
      <trkpt lat="46.91553" lon="8.65706">
        <ele>1453</ele>
        <time>2021-08-07T09:57:35.800Z</time>
      </trkpt>
      <trkpt lat="46.91552" lon="8.65704">
        <ele>1453</ele>
        <time>2021-08-07T09:57:36.799Z</time>
      </trkpt>
      <trkpt lat="46.91552" lon="8.65703">
        <ele>1453</ele>
        <time>2021-08-07T09:57:37.800Z</time>
      </trkpt>
      <trkpt lat="46.91551" lon="8.65702">
        <ele>1452</ele>
        <time>2021-08-07T09:57:38.800Z</time>
      </trkpt>
      <trkpt lat="46.91551" lon="8.65701">
        <ele>1452</ele>
        <time>2021-08-07T09:57:39.799Z</time>
      </trkpt>
      <trkpt lat="46.91552" lon="8.65701">
        <ele>1451</ele>
        <time>2021-08-07T09:57:40.800Z</time>
      </trkpt>
      <trkpt lat="46.91553" lon="8.65702">
        <ele>1451</ele>
        <time>2021-08-07T09:57:41.799Z</time>
      </trkpt>
      <trkpt lat="46.91554" lon="8.65703">
        <ele>1450</ele>
        <time>2021-08-07T09:57:42.799Z</time>
      </trkpt>
      <trkpt lat="46.91556" lon="8.65704">
        <ele>1450</ele>
        <time>2021-08-07T09:57:43.800Z</time>
      </trkpt>
      <trkpt lat="46.91557" lon="8.65705">
        <ele>1449</ele>
        <time>2021-08-07T09:57:44.800Z</time>
      </trkpt>
      <trkpt lat="46.91557" lon="8.65705">
        <ele>1449</ele>
        <time>2021-08-07T09:57:45.800Z</time>
      </trkpt>
      <trkpt lat="46.91557" lon="8.65705">
        <ele>1449</ele>
        <time>2021-08-07T09:57:46.799Z</time>
      </trkpt>
      <trkpt lat="46.91558" lon="8.65705">
        <ele>1448</ele>
        <time>2021-08-07T09:57:47.800Z</time>
      </trkpt>
      <trkpt lat="46.91558" lon="8.65705">
        <ele>1448</ele>
        <time>2021-08-07T09:57:48.800Z</time>
      </trkpt>
      <trkpt lat="46.91559" lon="8.65704">
        <ele>1447</ele>
        <time>2021-08-07T09:57:49.799Z</time>
      </trkpt>
      <trkpt lat="46.91559" lon="8.65702">
        <ele>1446</ele>
        <time>2021-08-07T09:57:50.799Z</time>
      </trkpt>
      <trkpt lat="46.91558" lon="8.657">
        <ele>1446</ele>
        <time>2021-08-07T09:57:51.800Z</time>
      </trkpt>
      <trkpt lat="46.91558" lon="8.65699">
        <ele>1445</ele>
        <time>2021-08-07T09:57:52.800Z</time>
      </trkpt>
      <trkpt lat="46.91557" lon="8.65698">
        <ele>1445</ele>
        <time>2021-08-07T09:57:53.799Z</time>
      </trkpt>
      <trkpt lat="46.91557" lon="8.65697">
        <ele>1445</ele>
        <time>2021-08-07T09:57:54.800Z</time>
      </trkpt>
      <trkpt lat="46.91556" lon="8.65697">
        <ele>1444</ele>
        <time>2021-08-07T09:57:57.799Z</time>
      </trkpt>
      <trkpt lat="46.91556" lon="8.65695">
        <ele>1444</ele>
        <time>2021-08-07T09:57:58.800Z</time>
      </trkpt>
      <trkpt lat="46.91556" lon="8.65694">
        <ele>1444</ele>
        <time>2021-08-07T09:57:59.800Z</time>
      </trkpt>
      <trkpt lat="46.91556" lon="8.65693">
        <ele>1444</ele>
        <time>2021-08-07T09:58:00.800Z</time>
      </trkpt>
      <trkpt lat="46.91556" lon="8.65692">
        <ele>1443</ele>
        <time>2021-08-07T09:58:01.800Z</time>
      </trkpt>
      <trkpt lat="46.91556" lon="8.65691">
        <ele>1443</ele>
        <time>2021-08-07T09:58:02.799Z</time>
      </trkpt>
      <trkpt lat="46.91556" lon="8.6569">
        <ele>1443</ele>
        <time>2021-08-07T09:58:03.800Z</time>
      </trkpt>
      <trkpt lat="46.91556" lon="8.6569">
        <ele>1443</ele>
        <time>2021-08-07T09:58:04.800Z</time>
      </trkpt>
      <trkpt lat="46.91555" lon="8.65689">
        <ele>1442</ele>
        <time>2021-08-07T09:58:05.800Z</time>
      </trkpt>
      <trkpt lat="46.91555" lon="8.65688">
        <ele>1442</ele>
        <time>2021-08-07T09:58:06.800Z</time>
      </trkpt>
      <trkpt lat="46.91555" lon="8.65686">
        <ele>1442</ele>
        <time>2021-08-07T09:58:07.800Z</time>
      </trkpt>
      <trkpt lat="46.91554" lon="8.65686">
        <ele>1441</ele>
        <time>2021-08-07T09:58:08.800Z</time>
      </trkpt>
      <trkpt lat="46.91553" lon="8.65685">
        <ele>1440</ele>
        <time>2021-08-07T09:58:09.800Z</time>
      </trkpt>
      <trkpt lat="46.91553" lon="8.65685">
        <ele>1439</ele>
        <time>2021-08-07T09:58:10.799Z</time>
      </trkpt>
      <trkpt lat="46.91552" lon="8.65684">
        <ele>1439</ele>
        <time>2021-08-07T09:58:11.800Z</time>
      </trkpt>
      <trkpt lat="46.91551" lon="8.65683">
        <ele>1438</ele>
        <time>2021-08-07T09:58:12.800Z</time>
      </trkpt>
      <trkpt lat="46.91552" lon="8.65682">
        <ele>1438</ele>
        <time>2021-08-07T09:58:13.800Z</time>
      </trkpt>
      <trkpt lat="46.91551" lon="8.6568">
        <ele>1437</ele>
        <time>2021-08-07T09:58:21.820Z</time>
      </trkpt>
      <trkpt lat="46.9155" lon="8.65679">
        <ele>1437</ele>
        <time>2021-08-07T09:58:22.820Z</time>
      </trkpt>
      <trkpt lat="46.91548" lon="8.65677">
        <ele>1437</ele>
        <time>2021-08-07T09:58:23.820Z</time>
      </trkpt>
      <trkpt lat="46.91547" lon="8.65676">
        <ele>1436</ele>
        <time>2021-08-07T09:58:30.734Z</time>
      </trkpt>
      <trkpt lat="46.91548" lon="8.65676">
        <ele>1436</ele>
        <time>2021-08-07T09:58:31.735Z</time>
      </trkpt>
      <trkpt lat="46.91549" lon="8.65675">
        <ele>1435</ele>
        <time>2021-08-07T09:58:32.735Z</time>
      </trkpt>
      <trkpt lat="46.91549" lon="8.65675">
        <ele>1435</ele>
        <time>2021-08-07T09:58:33.734Z</time>
      </trkpt>
      <trkpt lat="46.91549" lon="8.65674">
        <ele>1434</ele>
        <time>2021-08-07T09:58:34.734Z</time>
      </trkpt>
      <trkpt lat="46.9155" lon="8.65673">
        <ele>1429</ele>
        <time>2021-08-07T09:58:35.735Z</time>
      </trkpt>
      <trkpt lat="46.91551" lon="8.65673">
        <ele>1429</ele>
        <time>2021-08-07T09:58:36.735Z</time>
      </trkpt>
      <trkpt lat="46.91551" lon="8.65672">
        <ele>1428</ele>
        <time>2021-08-07T09:58:39.811Z</time>
      </trkpt>
      <trkpt lat="46.91551" lon="8.65672">
        <ele>1428</ele>
        <time>2021-08-07T09:58:40.812Z</time>
      </trkpt>
      <trkpt lat="46.91551" lon="8.65671">
        <ele>1428</ele>
        <time>2021-08-07T09:58:41.812Z</time>
      </trkpt>
      <trkpt lat="46.9155" lon="8.65669">
        <ele>1428</ele>
        <time>2021-08-07T09:58:42.811Z</time>
      </trkpt>
      <trkpt lat="46.91549" lon="8.65667">
        <ele>1427</ele>
        <time>2021-08-07T09:58:43.812Z</time>
      </trkpt>
      <trkpt lat="46.91549" lon="8.65667">
        <ele>1427</ele>
        <time>2021-08-07T09:58:44.811Z</time>
      </trkpt>
      <trkpt lat="46.91548" lon="8.65665">
        <ele>1427</ele>
        <time>2021-08-07T09:58:45.812Z</time>
      </trkpt>
      <trkpt lat="46.91547" lon="8.65664">
        <ele>1426</ele>
        <time>2021-08-07T09:58:46.812Z</time>
      </trkpt>
      <trkpt lat="46.91546" lon="8.65663">
        <ele>1426</ele>
        <time>2021-08-07T09:58:47.811Z</time>
      </trkpt>
      <trkpt lat="46.91546" lon="8.65661">
        <ele>1425</ele>
        <time>2021-08-07T09:58:48.812Z</time>
      </trkpt>
      <trkpt lat="46.91545" lon="8.65659">
        <ele>1424</ele>
        <time>2021-08-07T09:58:49.812Z</time>
      </trkpt>
      <trkpt lat="46.91545" lon="8.65657">
        <ele>1424</ele>
        <time>2021-08-07T09:58:50.812Z</time>
      </trkpt>
      <trkpt lat="46.91544" lon="8.65655">
        <ele>1424</ele>
        <time>2021-08-07T09:58:51.812Z</time>
      </trkpt>
      <trkpt lat="46.91544" lon="8.65653">
        <ele>1424</ele>
        <time>2021-08-07T09:58:52.812Z</time>
      </trkpt>
      <trkpt lat="46.91544" lon="8.65651">
        <ele>1424</ele>
        <time>2021-08-07T09:58:53.812Z</time>
      </trkpt>
      <trkpt lat="46.91544" lon="8.65649">
        <ele>1424</ele>
        <time>2021-08-07T09:58:54.811Z</time>
      </trkpt>
      <trkpt lat="46.91543" lon="8.65649">
        <ele>1424</ele>
        <time>2021-08-07T09:58:55.812Z</time>
      </trkpt>
      <trkpt lat="46.91543" lon="8.65648">
        <ele>1424</ele>
        <time>2021-08-07T09:58:56.811Z</time>
      </trkpt>
      <trkpt lat="46.91542" lon="8.65648">
        <ele>1424</ele>
        <time>2021-08-07T09:58:57.812Z</time>
      </trkpt>
      <trkpt lat="46.91541" lon="8.65647">
        <ele>1425</ele>
        <time>2021-08-07T09:58:58.811Z</time>
      </trkpt>
      <trkpt lat="46.9154" lon="8.65646">
        <ele>1425</ele>
        <time>2021-08-07T09:58:59.812Z</time>
      </trkpt>
      <trkpt lat="46.91539" lon="8.65645">
        <ele>1424</ele>
        <time>2021-08-07T09:59:06.960Z</time>
      </trkpt>
      <trkpt lat="46.91537" lon="8.65645">
        <ele>1424</ele>
        <time>2021-08-07T09:59:07.960Z</time>
      </trkpt>
      <trkpt lat="46.91536" lon="8.65645">
        <ele>1424</ele>
        <time>2021-08-07T09:59:08.959Z</time>
      </trkpt>
      <trkpt lat="46.91535" lon="8.65645">
        <ele>1424</ele>
        <time>2021-08-07T09:59:14.982Z</time>
      </trkpt>
      <trkpt lat="46.91535" lon="8.65644">
        <ele>1423</ele>
        <time>2021-08-07T09:59:15.983Z</time>
      </trkpt>
      <trkpt lat="46.91534" lon="8.65643">
        <ele>1423</ele>
        <time>2021-08-07T09:59:16.983Z</time>
      </trkpt>
      <trkpt lat="46.91533" lon="8.65643">
        <ele>1422</ele>
        <time>2021-08-07T09:59:17.983Z</time>
      </trkpt>
      <trkpt lat="46.91533" lon="8.65643">
        <ele>1422</ele>
        <time>2021-08-07T09:59:18.983Z</time>
      </trkpt>
      <trkpt lat="46.91533" lon="8.65642">
        <ele>1421</ele>
        <time>2021-08-07T09:59:23.077Z</time>
      </trkpt>
      <trkpt lat="46.91533" lon="8.65642">
        <ele>1420</ele>
        <time>2021-08-07T09:59:24.078Z</time>
      </trkpt>
      <trkpt lat="46.91535" lon="8.65643">
        <ele>1419</ele>
        <time>2021-08-07T09:59:25.079Z</time>
      </trkpt>
      <trkpt lat="46.91535" lon="8.65641">
        <ele>1419</ele>
        <time>2021-08-07T09:59:29.225Z</time>
      </trkpt>
      <trkpt lat="46.91535" lon="8.6564">
        <ele>1418</ele>
        <time>2021-08-07T09:59:33.063Z</time>
      </trkpt>
      <trkpt lat="46.91534" lon="8.65639">
        <ele>1418</ele>
        <time>2021-08-07T09:59:34.064Z</time>
      </trkpt>
      <trkpt lat="46.91534" lon="8.65638">
        <ele>1418</ele>
        <time>2021-08-07T09:59:35.064Z</time>
      </trkpt>
      <trkpt lat="46.91534" lon="8.65637">
        <ele>1418</ele>
        <time>2021-08-07T09:59:36.063Z</time>
      </trkpt>
      <trkpt lat="46.91535" lon="8.65634">
        <ele>1419</ele>
        <time>2021-08-07T09:59:37.065Z</time>
      </trkpt>
      <trkpt lat="46.91536" lon="8.65634">
        <ele>1419</ele>
        <time>2021-08-07T09:59:38.065Z</time>
      </trkpt>
      <trkpt lat="46.91536" lon="8.65635">
        <ele>1419</ele>
        <time>2021-08-07T09:59:39.064Z</time>
      </trkpt>
      <trkpt lat="46.91537" lon="8.65635">
        <ele>1419</ele>
        <time>2021-08-07T09:59:59.205Z</time>
      </trkpt>
      <trkpt lat="46.91537" lon="8.65635">
        <ele>1419</ele>
        <time>2021-08-07T10:00:00.206Z</time>
      </trkpt>
      <trkpt lat="46.91538" lon="8.65635">
        <ele>1420</ele>
        <time>2021-08-07T10:00:01.205Z</time>
      </trkpt>
      <trkpt lat="46.91538" lon="8.65635">
        <ele>1420</ele>
        <time>2021-08-07T10:00:02.206Z</time>
      </trkpt>
      <trkpt lat="46.91539" lon="8.65634">
        <ele>1420</ele>
        <time>2021-08-07T10:00:03.206Z</time>
      </trkpt>
      <trkpt lat="46.9154" lon="8.65633">
        <ele>1420</ele>
        <time>2021-08-07T10:00:04.205Z</time>
      </trkpt>
      <trkpt lat="46.91539" lon="8.65631">
        <ele>1420</ele>
        <time>2021-08-07T10:00:05.206Z</time>
      </trkpt>
      <trkpt lat="46.91539" lon="8.65629">
        <ele>1420</ele>
        <time>2021-08-07T10:00:06.206Z</time>
      </trkpt>
      <trkpt lat="46.91539" lon="8.65628">
        <ele>1420</ele>
        <time>2021-08-07T10:00:07.206Z</time>
      </trkpt>
      <trkpt lat="46.91539" lon="8.65626">
        <ele>1420</ele>
        <time>2021-08-07T10:00:08.206Z</time>
      </trkpt>
      <trkpt lat="46.91538" lon="8.65625">
        <ele>1420</ele>
        <time>2021-08-07T10:00:09.206Z</time>
      </trkpt>
      <trkpt lat="46.91538" lon="8.65623">
        <ele>1420</ele>
        <time>2021-08-07T10:00:10.205Z</time>
      </trkpt>
      <trkpt lat="46.91538" lon="8.65622">
        <ele>1420</ele>
        <time>2021-08-07T10:00:11.206Z</time>
      </trkpt>
      <trkpt lat="46.91537" lon="8.65622">
        <ele>1420</ele>
        <time>2021-08-07T10:00:12.206Z</time>
      </trkpt>
      <trkpt lat="46.91536" lon="8.6562">
        <ele>1419</ele>
        <time>2021-08-07T10:00:13.205Z</time>
      </trkpt>
      <trkpt lat="46.91535" lon="8.65619">
        <ele>1419</ele>
        <time>2021-08-07T10:00:14.205Z</time>
      </trkpt>
      <trkpt lat="46.91535" lon="8.65618">
        <ele>1419</ele>
        <time>2021-08-07T10:00:15.206Z</time>
      </trkpt>
      <trkpt lat="46.91535" lon="8.65617">
        <ele>1419</ele>
        <time>2021-08-07T10:00:16.206Z</time>
      </trkpt>
      <trkpt lat="46.91535" lon="8.65616">
        <ele>1418</ele>
        <time>2021-08-07T10:00:17.206Z</time>
      </trkpt>
      <trkpt lat="46.91535" lon="8.65616">
        <ele>1418</ele>
        <time>2021-08-07T10:00:18.207Z</time>
      </trkpt>
      <trkpt lat="46.91536" lon="8.65617">
        <ele>1418</ele>
        <time>2021-08-07T10:00:19.206Z</time>
      </trkpt>
      <trkpt lat="46.91536" lon="8.65617">
        <ele>1418</ele>
        <time>2021-08-07T10:00:20.206Z</time>
      </trkpt>
      <trkpt lat="46.91537" lon="8.65617">
        <ele>1419</ele>
        <time>2021-08-07T10:00:21.206Z</time>
      </trkpt>
      <trkpt lat="46.91537" lon="8.65616">
        <ele>1419</ele>
        <time>2021-08-07T10:00:22.206Z</time>
      </trkpt>
      <trkpt lat="46.91537" lon="8.65615">
        <ele>1419</ele>
        <time>2021-08-07T10:00:23.206Z</time>
      </trkpt>
      <trkpt lat="46.91537" lon="8.65614">
        <ele>1419</ele>
        <time>2021-08-07T10:00:24.206Z</time>
      </trkpt>
      <trkpt lat="46.91537" lon="8.65614">
        <ele>1419</ele>
        <time>2021-08-07T10:00:25.206Z</time>
      </trkpt>
      <trkpt lat="46.91538" lon="8.65614">
        <ele>1419</ele>
        <time>2021-08-07T10:00:26.206Z</time>
      </trkpt>
      <trkpt lat="46.91538" lon="8.65614">
        <ele>1419</ele>
        <time>2021-08-07T10:00:27.207Z</time>
      </trkpt>
      <trkpt lat="46.91539" lon="8.65613">
        <ele>1418</ele>
        <time>2021-08-07T10:00:28.207Z</time>
      </trkpt>
      <trkpt lat="46.9154" lon="8.65613">
        <ele>1418</ele>
        <time>2021-08-07T10:00:29.206Z</time>
      </trkpt>
      <trkpt lat="46.9154" lon="8.65613">
        <ele>1418</ele>
        <time>2021-08-07T10:00:30.206Z</time>
      </trkpt>
      <trkpt lat="46.91539" lon="8.65613">
        <ele>1417</ele>
        <time>2021-08-07T10:00:31.206Z</time>
      </trkpt>
      <trkpt lat="46.9154" lon="8.65613">
        <ele>1417</ele>
        <time>2021-08-07T10:00:32.206Z</time>
      </trkpt>
      <trkpt lat="46.9154" lon="8.65612">
        <ele>1416</ele>
        <time>2021-08-07T10:00:33.207Z</time>
      </trkpt>
      <trkpt lat="46.91541" lon="8.65612">
        <ele>1416</ele>
        <time>2021-08-07T10:00:34.206Z</time>
      </trkpt>
      <trkpt lat="46.91542" lon="8.65611">
        <ele>1415</ele>
        <time>2021-08-07T10:00:35.206Z</time>
      </trkpt>
      <trkpt lat="46.91543" lon="8.65611">
        <ele>1414</ele>
        <time>2021-08-07T10:00:36.206Z</time>
      </trkpt>
      <trkpt lat="46.91544" lon="8.6561">
        <ele>1414</ele>
        <time>2021-08-07T10:00:37.206Z</time>
      </trkpt>
      <trkpt lat="46.91545" lon="8.6561">
        <ele>1414</ele>
        <time>2021-08-07T10:00:38.207Z</time>
      </trkpt>
      <trkpt lat="46.91546" lon="8.6561">
        <ele>1413</ele>
        <time>2021-08-07T10:00:39.206Z</time>
      </trkpt>
      <trkpt lat="46.91547" lon="8.65609">
        <ele>1413</ele>
        <time>2021-08-07T10:00:40.206Z</time>
      </trkpt>
      <trkpt lat="46.91547" lon="8.65609">
        <ele>1413</ele>
        <time>2021-08-07T10:00:41.206Z</time>
      </trkpt>
      <trkpt lat="46.91548" lon="8.65609">
        <ele>1413</ele>
        <time>2021-08-07T10:00:42.206Z</time>
      </trkpt>
      <trkpt lat="46.91549" lon="8.65609">
        <ele>1412</ele>
        <time>2021-08-07T10:00:43.207Z</time>
      </trkpt>
      <trkpt lat="46.91549" lon="8.65609">
        <ele>1412</ele>
        <time>2021-08-07T10:00:44.207Z</time>
      </trkpt>
      <trkpt lat="46.91548" lon="8.6561">
        <ele>1413</ele>
        <time>2021-08-07T10:00:45.207Z</time>
      </trkpt>
      <trkpt lat="46.91548" lon="8.65611">
        <ele>1413</ele>
        <time>2021-08-07T10:00:46.206Z</time>
      </trkpt>
      <trkpt lat="46.91549" lon="8.65611">
        <ele>1413</ele>
        <time>2021-08-07T10:00:47.207Z</time>
      </trkpt>
      <trkpt lat="46.91551" lon="8.65611">
        <ele>1413</ele>
        <time>2021-08-07T10:00:48.206Z</time>
      </trkpt>
      <trkpt lat="46.91552" lon="8.6561">
        <ele>1413</ele>
        <time>2021-08-07T10:00:49.206Z</time>
      </trkpt>
      <trkpt lat="46.91553" lon="8.65608">
        <ele>1413</ele>
        <time>2021-08-07T10:00:50.206Z</time>
      </trkpt>
      <trkpt lat="46.91553" lon="8.65606">
        <ele>1413</ele>
        <time>2021-08-07T10:00:51.206Z</time>
      </trkpt>
      <trkpt lat="46.91553" lon="8.65605">
        <ele>1413</ele>
        <time>2021-08-07T10:00:52.206Z</time>
      </trkpt>
      <trkpt lat="46.91553" lon="8.65603">
        <ele>1413</ele>
        <time>2021-08-07T10:00:53.206Z</time>
      </trkpt>
      <trkpt lat="46.91553" lon="8.65602">
        <ele>1413</ele>
        <time>2021-08-07T10:00:54.206Z</time>
      </trkpt>
      <trkpt lat="46.91553" lon="8.65601">
        <ele>1413</ele>
        <time>2021-08-07T10:00:55.206Z</time>
      </trkpt>
      <trkpt lat="46.91553" lon="8.656">
        <ele>1413</ele>
        <time>2021-08-07T10:00:56.206Z</time>
      </trkpt>
      <trkpt lat="46.91553" lon="8.65599">
        <ele>1413</ele>
        <time>2021-08-07T10:00:57.207Z</time>
      </trkpt>
      <trkpt lat="46.91553" lon="8.65599">
        <ele>1413</ele>
        <time>2021-08-07T10:00:58.207Z</time>
      </trkpt>
      <trkpt lat="46.91553" lon="8.65598">
        <ele>1412</ele>
        <time>2021-08-07T10:00:59.206Z</time>
      </trkpt>
      <trkpt lat="46.91553" lon="8.65596">
        <ele>1412</ele>
        <time>2021-08-07T10:01:00.206Z</time>
      </trkpt>
      <trkpt lat="46.91553" lon="8.65595">
        <ele>1412</ele>
        <time>2021-08-07T10:01:01.206Z</time>
      </trkpt>
      <trkpt lat="46.91554" lon="8.65594">
        <ele>1411</ele>
        <time>2021-08-07T10:01:02.206Z</time>
      </trkpt>
      <trkpt lat="46.91554" lon="8.65593">
        <ele>1411</ele>
        <time>2021-08-07T10:01:03.207Z</time>
      </trkpt>
      <trkpt lat="46.91554" lon="8.65592">
        <ele>1411</ele>
        <time>2021-08-07T10:01:04.206Z</time>
      </trkpt>
      <trkpt lat="46.91555" lon="8.65591">
        <ele>1411</ele>
        <time>2021-08-07T10:01:05.206Z</time>
      </trkpt>
      <trkpt lat="46.91555" lon="8.6559">
        <ele>1410</ele>
        <time>2021-08-07T10:01:06.206Z</time>
      </trkpt>
      <trkpt lat="46.91556" lon="8.65589">
        <ele>1410</ele>
        <time>2021-08-07T10:01:07.206Z</time>
      </trkpt>
      <trkpt lat="46.91556" lon="8.65588">
        <ele>1409</ele>
        <time>2021-08-07T10:01:08.207Z</time>
      </trkpt>
      <trkpt lat="46.91556" lon="8.65587">
        <ele>1408</ele>
        <time>2021-08-07T10:01:09.206Z</time>
      </trkpt>
      <trkpt lat="46.91556" lon="8.65587">
        <ele>1408</ele>
        <time>2021-08-07T10:01:10.206Z</time>
      </trkpt>
      <trkpt lat="46.91556" lon="8.65586">
        <ele>1407</ele>
        <time>2021-08-07T10:01:11.206Z</time>
      </trkpt>
      <trkpt lat="46.91555" lon="8.65577">
        <ele>1406</ele>
        <time>2021-08-07T10:01:12.208Z</time>
      </trkpt>
      <trkpt lat="46.91555" lon="8.65577">
        <ele>1406</ele>
        <time>2021-08-07T10:01:13.207Z</time>
      </trkpt>
      <trkpt lat="46.91555" lon="8.65577">
        <ele>1406</ele>
        <time>2021-08-07T10:01:14.208Z</time>
      </trkpt>
      <trkpt lat="46.91555" lon="8.65578">
        <ele>1406</ele>
        <time>2021-08-07T10:01:15.207Z</time>
      </trkpt>
      <trkpt lat="46.91555" lon="8.65579">
        <ele>1406</ele>
        <time>2021-08-07T10:01:16.207Z</time>
      </trkpt>
      <trkpt lat="46.91555" lon="8.65579">
        <ele>1406</ele>
        <time>2021-08-07T10:01:17.207Z</time>
      </trkpt>
      <trkpt lat="46.91555" lon="8.6558">
        <ele>1405</ele>
        <time>2021-08-07T10:01:18.208Z</time>
      </trkpt>
      <trkpt lat="46.91555" lon="8.65581">
        <ele>1405</ele>
        <time>2021-08-07T10:01:19.207Z</time>
      </trkpt>
      <trkpt lat="46.91555" lon="8.65581">
        <ele>1404</ele>
        <time>2021-08-07T10:01:20.208Z</time>
      </trkpt>
      <trkpt lat="46.91555" lon="8.65581">
        <ele>1404</ele>
        <time>2021-08-07T10:01:21.208Z</time>
      </trkpt>
      <trkpt lat="46.91555" lon="8.6558">
        <ele>1403</ele>
        <time>2021-08-07T10:01:22.208Z</time>
      </trkpt>
      <trkpt lat="46.91554" lon="8.65581">
        <ele>1403</ele>
        <time>2021-08-07T10:01:23.208Z</time>
      </trkpt>
      <trkpt lat="46.91553" lon="8.65579">
        <ele>1399</ele>
        <time>2021-08-07T10:01:24.208Z</time>
      </trkpt>
      <trkpt lat="46.91553" lon="8.65579">
        <ele>1399</ele>
        <time>2021-08-07T10:01:25.208Z</time>
      </trkpt>
      <trkpt lat="46.91553" lon="8.65579">
        <ele>1398</ele>
        <time>2021-08-07T10:01:26.208Z</time>
      </trkpt>
      <trkpt lat="46.91553" lon="8.65578">
        <ele>1398</ele>
        <time>2021-08-07T10:01:27.208Z</time>
      </trkpt>
      <trkpt lat="46.91553" lon="8.65578">
        <ele>1397</ele>
        <time>2021-08-07T10:01:28.208Z</time>
      </trkpt>
      <trkpt lat="46.91553" lon="8.65576">
        <ele>1397</ele>
        <time>2021-08-07T10:01:29.208Z</time>
      </trkpt>
      <trkpt lat="46.91554" lon="8.65576">
        <ele>1397</ele>
        <time>2021-08-07T10:01:30.208Z</time>
      </trkpt>
      <trkpt lat="46.91554" lon="8.65573">
        <ele>1396</ele>
        <time>2021-08-07T10:01:31.208Z</time>
      </trkpt>
      <trkpt lat="46.91553" lon="8.65572">
        <ele>1396</ele>
        <time>2021-08-07T10:01:32.208Z</time>
      </trkpt>
      <trkpt lat="46.91552" lon="8.65572">
        <ele>1396</ele>
        <time>2021-08-07T10:01:33.208Z</time>
      </trkpt>
      <trkpt lat="46.91551" lon="8.65571">
        <ele>1397</ele>
        <time>2021-08-07T10:01:34.208Z</time>
      </trkpt>
      <trkpt lat="46.91549" lon="8.65572">
        <ele>1397</ele>
        <time>2021-08-07T10:01:35.208Z</time>
      </trkpt>
      <trkpt lat="46.91548" lon="8.65572">
        <ele>1397</ele>
        <time>2021-08-07T10:01:36.208Z</time>
      </trkpt>
      <trkpt lat="46.91546" lon="8.65573">
        <ele>1398</ele>
        <time>2021-08-07T10:01:37.208Z</time>
      </trkpt>
      <trkpt lat="46.91545" lon="8.65573">
        <ele>1398</ele>
        <time>2021-08-07T10:01:38.208Z</time>
      </trkpt>
      <trkpt lat="46.91544" lon="8.65572">
        <ele>1398</ele>
        <time>2021-08-07T10:01:39.208Z</time>
      </trkpt>
      <trkpt lat="46.91545" lon="8.65571">
        <ele>1398</ele>
        <time>2021-08-07T10:01:40.208Z</time>
      </trkpt>
      <trkpt lat="46.91546" lon="8.65571">
        <ele>1398</ele>
        <time>2021-08-07T10:01:41.208Z</time>
      </trkpt>
      <trkpt lat="46.91547" lon="8.65571">
        <ele>1399</ele>
        <time>2021-08-07T10:01:42.208Z</time>
      </trkpt>
      <trkpt lat="46.91548" lon="8.65571">
        <ele>1399</ele>
        <time>2021-08-07T10:01:43.208Z</time>
      </trkpt>
      <trkpt lat="46.91547" lon="8.65571">
        <ele>1399</ele>
        <time>2021-08-07T10:01:44.208Z</time>
      </trkpt>
      <trkpt lat="46.91547" lon="8.6557">
        <ele>1399</ele>
        <time>2021-08-07T10:01:45.208Z</time>
      </trkpt>
      <trkpt lat="46.91547" lon="8.6557">
        <ele>1399</ele>
        <time>2021-08-07T10:01:46.208Z</time>
      </trkpt>
      <trkpt lat="46.91547" lon="8.6557">
        <ele>1398</ele>
        <time>2021-08-07T10:01:47.208Z</time>
      </trkpt>
      <trkpt lat="46.91549" lon="8.65569">
        <ele>1399</ele>
        <time>2021-08-07T10:01:48.208Z</time>
      </trkpt>
      <trkpt lat="46.91549" lon="8.65569">
        <ele>1399</ele>
        <time>2021-08-07T10:01:49.208Z</time>
      </trkpt>
      <trkpt lat="46.9155" lon="8.6557">
        <ele>1399</ele>
        <time>2021-08-07T10:01:50.208Z</time>
      </trkpt>
      <trkpt lat="46.9155" lon="8.6557">
        <ele>1399</ele>
        <time>2021-08-07T10:01:51.209Z</time>
      </trkpt>
      <trkpt lat="46.91549" lon="8.65571">
        <ele>1399</ele>
        <time>2021-08-07T10:01:52.208Z</time>
      </trkpt>
      <trkpt lat="46.91549" lon="8.65571">
        <ele>1399</ele>
        <time>2021-08-07T10:01:53.208Z</time>
      </trkpt>
      <trkpt lat="46.91548" lon="8.65571">
        <ele>1399</ele>
        <time>2021-08-07T10:01:54.209Z</time>
      </trkpt>
      <trkpt lat="46.91547" lon="8.65571">
        <ele>1399</ele>
        <time>2021-08-07T10:01:55.209Z</time>
      </trkpt>
      <trkpt lat="46.91547" lon="8.65572">
        <ele>1398</ele>
        <time>2021-08-07T10:01:56.208Z</time>
      </trkpt>
      <trkpt lat="46.91546" lon="8.65572">
        <ele>1398</ele>
        <time>2021-08-07T10:01:57.208Z</time>
      </trkpt>
      <trkpt lat="46.91546" lon="8.65573">
        <ele>1398</ele>
        <time>2021-08-07T10:01:58.209Z</time>
      </trkpt>
      <trkpt lat="46.91547" lon="8.65573">
        <ele>1397</ele>
        <time>2021-08-07T10:01:59.209Z</time>
      </trkpt>
      <trkpt lat="46.91547" lon="8.65574">
        <ele>1397</ele>
        <time>2021-08-07T10:02:00.209Z</time>
      </trkpt>
      <trkpt lat="46.91547" lon="8.65573">
        <ele>1397</ele>
        <time>2021-08-07T10:02:01.208Z</time>
      </trkpt>
      <trkpt lat="46.91546" lon="8.65574">
        <ele>1396</ele>
        <time>2021-08-07T10:02:02.208Z</time>
      </trkpt>
      <trkpt lat="46.91546" lon="8.65574">
        <ele>1396</ele>
        <time>2021-08-07T10:02:03.209Z</time>
      </trkpt>
      <trkpt lat="46.91547" lon="8.65574">
        <ele>1396</ele>
        <time>2021-08-07T10:02:04.208Z</time>
      </trkpt>
      <trkpt lat="46.91547" lon="8.65574">
        <ele>1396</ele>
        <time>2021-08-07T10:02:05.208Z</time>
      </trkpt>
      <trkpt lat="46.91548" lon="8.65575">
        <ele>1395</ele>
        <time>2021-08-07T10:02:06.208Z</time>
      </trkpt>
      <trkpt lat="46.91548" lon="8.65575">
        <ele>1395</ele>
        <time>2021-08-07T10:02:07.209Z</time>
      </trkpt>
      <trkpt lat="46.91548" lon="8.65575">
        <ele>1395</ele>
        <time>2021-08-07T10:02:08.208Z</time>
      </trkpt>
      <trkpt lat="46.91548" lon="8.65576">
        <ele>1395</ele>
        <time>2021-08-07T10:02:09.209Z</time>
      </trkpt>
      <trkpt lat="46.91548" lon="8.65576">
        <ele>1394</ele>
        <time>2021-08-07T10:02:10.208Z</time>
      </trkpt>
      <trkpt lat="46.91549" lon="8.65576">
        <ele>1394</ele>
        <time>2021-08-07T10:02:11.208Z</time>
      </trkpt>
      <trkpt lat="46.91549" lon="8.65575">
        <ele>1394</ele>
        <time>2021-08-07T10:02:12.208Z</time>
      </trkpt>
      <trkpt lat="46.91549" lon="8.65581">
        <ele>1398</ele>
        <time>2021-08-07T10:02:13.209Z</time>
      </trkpt>
      <trkpt lat="46.91548" lon="8.65581">
        <ele>1399</ele>
        <time>2021-08-07T10:02:14.209Z</time>
      </trkpt>
      <trkpt lat="46.91548" lon="8.65581">
        <ele>1399</ele>
        <time>2021-08-07T10:02:15.208Z</time>
      </trkpt>
      <trkpt lat="46.91548" lon="8.65581">
        <ele>1399</ele>
        <time>2021-08-07T10:02:16.208Z</time>
      </trkpt>
      <trkpt lat="46.91547" lon="8.65581">
        <ele>1400</ele>
        <time>2021-08-07T10:02:17.209Z</time>
      </trkpt>
      <trkpt lat="46.91547" lon="8.65583">
        <ele>1398</ele>
        <time>2021-08-07T10:02:18.208Z</time>
      </trkpt>
      <trkpt lat="46.91547" lon="8.65583">
        <ele>1397</ele>
        <time>2021-08-07T10:02:19.208Z</time>
      </trkpt>
      <trkpt lat="46.91547" lon="8.65583">
        <ele>1396</ele>
        <time>2021-08-07T10:02:20.209Z</time>
      </trkpt>
      <trkpt lat="46.91547" lon="8.65583">
        <ele>1395</ele>
        <time>2021-08-07T10:02:21.209Z</time>
      </trkpt>
      <trkpt lat="46.91548" lon="8.65581">
        <ele>1396</ele>
        <time>2021-08-07T10:02:22.210Z</time>
      </trkpt>
      <trkpt lat="46.91548" lon="8.6558">
        <ele>1396</ele>
        <time>2021-08-07T10:02:23.210Z</time>
      </trkpt>
      <trkpt lat="46.9155" lon="8.65577">
        <ele>1399</ele>
        <time>2021-08-07T10:02:24.211Z</time>
      </trkpt>
      <trkpt lat="46.9155" lon="8.65576">
        <ele>1400</ele>
        <time>2021-08-07T10:02:25.210Z</time>
      </trkpt>
      <trkpt lat="46.9155" lon="8.65575">
        <ele>1400</ele>
        <time>2021-08-07T10:02:49.201Z</time>
      </trkpt>
      <trkpt lat="46.91546" lon="8.6557">
        <ele>1402</ele>
        <time>2021-08-07T10:02:50.202Z</time>
      </trkpt>
      <trkpt lat="46.91545" lon="8.6557">
        <ele>1403</ele>
        <time>2021-08-07T10:02:51.201Z</time>
      </trkpt>
      <trkpt lat="46.91544" lon="8.65569">
        <ele>1403</ele>
        <time>2021-08-07T10:03:08.198Z</time>
      </trkpt>
      <trkpt lat="46.91543" lon="8.6557">
        <ele>1403</ele>
        <time>2021-08-07T10:03:15.092Z</time>
      </trkpt>
      <trkpt lat="46.91543" lon="8.6557">
        <ele>1403</ele>
        <time>2021-08-07T10:03:16.092Z</time>
      </trkpt>
      <trkpt lat="46.91542" lon="8.6557">
        <ele>1403</ele>
        <time>2021-08-07T10:03:17.092Z</time>
      </trkpt>
      <trkpt lat="46.91542" lon="8.6557">
        <ele>1403</ele>
        <time>2021-08-07T10:03:18.091Z</time>
      </trkpt>
      <trkpt lat="46.91542" lon="8.65571">
        <ele>1403</ele>
        <time>2021-08-07T10:03:19.091Z</time>
      </trkpt>
      <trkpt lat="46.91541" lon="8.65571">
        <ele>1402</ele>
        <time>2021-08-07T10:03:20.091Z</time>
      </trkpt>
      <trkpt lat="46.9154" lon="8.65571">
        <ele>1402</ele>
        <time>2021-08-07T10:03:21.091Z</time>
      </trkpt>
      <trkpt lat="46.9154" lon="8.6557">
        <ele>1402</ele>
        <time>2021-08-07T10:03:22.091Z</time>
      </trkpt>
      <trkpt lat="46.9154" lon="8.6557">
        <ele>1402</ele>
        <time>2021-08-07T10:03:23.092Z</time>
      </trkpt>
      <trkpt lat="46.9154" lon="8.65569">
        <ele>1401</ele>
        <time>2021-08-07T10:03:24.091Z</time>
      </trkpt>
      <trkpt lat="46.91539" lon="8.65568">
        <ele>1401</ele>
        <time>2021-08-07T10:03:25.091Z</time>
      </trkpt>
      <trkpt lat="46.91539" lon="8.65568">
        <ele>1401</ele>
        <time>2021-08-07T10:03:26.091Z</time>
      </trkpt>
      <trkpt lat="46.9154" lon="8.65567">
        <ele>1401</ele>
        <time>2021-08-07T10:03:27.091Z</time>
      </trkpt>
      <trkpt lat="46.9154" lon="8.65566">
        <ele>1400</ele>
        <time>2021-08-07T10:03:28.091Z</time>
      </trkpt>
      <trkpt lat="46.91541" lon="8.65564">
        <ele>1400</ele>
        <time>2021-08-07T10:03:29.091Z</time>
      </trkpt>
      <trkpt lat="46.91543" lon="8.65563">
        <ele>1400</ele>
        <time>2021-08-07T10:03:30.091Z</time>
      </trkpt>
      <trkpt lat="46.91543" lon="8.65563">
        <ele>1400</ele>
        <time>2021-08-07T10:03:31.091Z</time>
      </trkpt>
      <trkpt lat="46.91544" lon="8.65562">
        <ele>1400</ele>
        <time>2021-08-07T10:03:32.092Z</time>
      </trkpt>
      <trkpt lat="46.91544" lon="8.65562">
        <ele>1399</ele>
        <time>2021-08-07T10:03:33.091Z</time>
      </trkpt>
      <trkpt lat="46.91545" lon="8.65562">
        <ele>1399</ele>
        <time>2021-08-07T10:03:34.091Z</time>
      </trkpt>
      <trkpt lat="46.91545" lon="8.65561">
        <ele>1398</ele>
        <time>2021-08-07T10:03:35.091Z</time>
      </trkpt>
      <trkpt lat="46.91546" lon="8.65561">
        <ele>1398</ele>
        <time>2021-08-07T10:03:36.091Z</time>
      </trkpt>
      <trkpt lat="46.91547" lon="8.6556">
        <ele>1398</ele>
        <time>2021-08-07T10:03:37.091Z</time>
      </trkpt>
      <trkpt lat="46.91548" lon="8.6556">
        <ele>1397</ele>
        <time>2021-08-07T10:03:38.091Z</time>
      </trkpt>
      <trkpt lat="46.91548" lon="8.65558">
        <ele>1397</ele>
        <time>2021-08-07T10:03:39.092Z</time>
      </trkpt>
      <trkpt lat="46.91548" lon="8.65557">
        <ele>1397</ele>
        <time>2021-08-07T10:03:40.091Z</time>
      </trkpt>
      <trkpt lat="46.91548" lon="8.65556">
        <ele>1396</ele>
        <time>2021-08-07T10:03:41.091Z</time>
      </trkpt>
      <trkpt lat="46.91547" lon="8.65554">
        <ele>1396</ele>
        <time>2021-08-07T10:03:42.091Z</time>
      </trkpt>
      <trkpt lat="46.91548" lon="8.65553">
        <ele>1396</ele>
        <time>2021-08-07T10:03:43.091Z</time>
      </trkpt>
      <trkpt lat="46.91548" lon="8.65552">
        <ele>1396</ele>
        <time>2021-08-07T10:03:44.091Z</time>
      </trkpt>
      <trkpt lat="46.91549" lon="8.65551">
        <ele>1396</ele>
        <time>2021-08-07T10:03:45.091Z</time>
      </trkpt>
      <trkpt lat="46.9155" lon="8.65552">
        <ele>1396</ele>
        <time>2021-08-07T10:03:46.091Z</time>
      </trkpt>
      <trkpt lat="46.91551" lon="8.65552">
        <ele>1396</ele>
        <time>2021-08-07T10:03:47.091Z</time>
      </trkpt>
      <trkpt lat="46.91552" lon="8.65553">
        <ele>1396</ele>
        <time>2021-08-07T10:03:48.092Z</time>
      </trkpt>
      <trkpt lat="46.91552" lon="8.65552">
        <ele>1396</ele>
        <time>2021-08-07T10:03:49.092Z</time>
      </trkpt>
      <trkpt lat="46.91552" lon="8.65551">
        <ele>1395</ele>
        <time>2021-08-07T10:03:50.091Z</time>
      </trkpt>
      <trkpt lat="46.91553" lon="8.6555">
        <ele>1395</ele>
        <time>2021-08-07T10:03:51.092Z</time>
      </trkpt>
      <trkpt lat="46.91554" lon="8.65549">
        <ele>1394</ele>
        <time>2021-08-07T10:03:52.092Z</time>
      </trkpt>
      <trkpt lat="46.91554" lon="8.65548">
        <ele>1394</ele>
        <time>2021-08-07T10:03:53.091Z</time>
      </trkpt>
      <trkpt lat="46.91555" lon="8.65547">
        <ele>1394</ele>
        <time>2021-08-07T10:03:54.092Z</time>
      </trkpt>
      <trkpt lat="46.91555" lon="8.65546">
        <ele>1394</ele>
        <time>2021-08-07T10:03:55.092Z</time>
      </trkpt>
      <trkpt lat="46.91556" lon="8.65546">
        <ele>1394</ele>
        <time>2021-08-07T10:03:56.092Z</time>
      </trkpt>
      <trkpt lat="46.91557" lon="8.65545">
        <ele>1394</ele>
        <time>2021-08-07T10:03:57.091Z</time>
      </trkpt>
      <trkpt lat="46.91557" lon="8.65544">
        <ele>1394</ele>
        <time>2021-08-07T10:03:58.092Z</time>
      </trkpt>
      <trkpt lat="46.91558" lon="8.65543">
        <ele>1394</ele>
        <time>2021-08-07T10:03:59.092Z</time>
      </trkpt>
      <trkpt lat="46.91559" lon="8.65542">
        <ele>1394</ele>
        <time>2021-08-07T10:04:00.091Z</time>
      </trkpt>
      <trkpt lat="46.9156" lon="8.65541">
        <ele>1394</ele>
        <time>2021-08-07T10:04:01.091Z</time>
      </trkpt>
      <trkpt lat="46.9156" lon="8.65541">
        <ele>1395</ele>
        <time>2021-08-07T10:04:02.092Z</time>
      </trkpt>
      <trkpt lat="46.91561" lon="8.65541">
        <ele>1395</ele>
        <time>2021-08-07T10:04:03.091Z</time>
      </trkpt>
      <trkpt lat="46.91563" lon="8.65542">
        <ele>1395</ele>
        <time>2021-08-07T10:04:04.092Z</time>
      </trkpt>
      <trkpt lat="46.91564" lon="8.65542">
        <ele>1396</ele>
        <time>2021-08-07T10:04:05.092Z</time>
      </trkpt>
      <trkpt lat="46.91565" lon="8.65543">
        <ele>1397</ele>
        <time>2021-08-07T10:04:06.092Z</time>
      </trkpt>
      <trkpt lat="46.91566" lon="8.65545">
        <ele>1398</ele>
        <time>2021-08-07T10:04:07.091Z</time>
      </trkpt>
      <trkpt lat="46.91567" lon="8.65545">
        <ele>1398</ele>
        <time>2021-08-07T10:04:08.092Z</time>
      </trkpt>
      <trkpt lat="46.91568" lon="8.65543">
        <ele>1399</ele>
        <time>2021-08-07T10:04:09.092Z</time>
      </trkpt>
      <trkpt lat="46.91567" lon="8.65542">
        <ele>1399</ele>
        <time>2021-08-07T10:04:10.092Z</time>
      </trkpt>
      <trkpt lat="46.91567" lon="8.65541">
        <ele>1399</ele>
        <time>2021-08-07T10:04:11.092Z</time>
      </trkpt>
      <trkpt lat="46.91566" lon="8.65539">
        <ele>1399</ele>
        <time>2021-08-07T10:04:12.091Z</time>
      </trkpt>
      <trkpt lat="46.91565" lon="8.65538">
        <ele>1399</ele>
        <time>2021-08-07T10:04:13.092Z</time>
      </trkpt>
      <trkpt lat="46.91565" lon="8.65538">
        <ele>1398</ele>
        <time>2021-08-07T10:04:14.092Z</time>
      </trkpt>
      <trkpt lat="46.91564" lon="8.65537">
        <ele>1398</ele>
        <time>2021-08-07T10:04:15.092Z</time>
      </trkpt>
      <trkpt lat="46.91564" lon="8.65537">
        <ele>1398</ele>
        <time>2021-08-07T10:04:16.092Z</time>
      </trkpt>
      <trkpt lat="46.91563" lon="8.65536">
        <ele>1397</ele>
        <time>2021-08-07T10:04:17.092Z</time>
      </trkpt>
      <trkpt lat="46.91563" lon="8.65536">
        <ele>1397</ele>
        <time>2021-08-07T10:04:18.092Z</time>
      </trkpt>
      <trkpt lat="46.91563" lon="8.65536">
        <ele>1397</ele>
        <time>2021-08-07T10:04:19.091Z</time>
      </trkpt>
      <trkpt lat="46.91563" lon="8.65535">
        <ele>1397</ele>
        <time>2021-08-07T10:04:20.092Z</time>
      </trkpt>
      <trkpt lat="46.91563" lon="8.65535">
        <ele>1396</ele>
        <time>2021-08-07T10:04:21.092Z</time>
      </trkpt>
      <trkpt lat="46.91564" lon="8.65534">
        <ele>1394</ele>
        <time>2021-08-07T10:04:22.093Z</time>
      </trkpt>
      <trkpt lat="46.91566" lon="8.65522">
        <ele>1381</ele>
        <time>2021-08-07T10:04:23.092Z</time>
      </trkpt>
      <trkpt lat="46.91566" lon="8.65521">
        <ele>1381</ele>
        <time>2021-08-07T10:04:24.093Z</time>
      </trkpt>
      <trkpt lat="46.91565" lon="8.65519">
        <ele>1380</ele>
        <time>2021-08-07T10:04:25.092Z</time>
      </trkpt>
      <trkpt lat="46.91564" lon="8.65518">
        <ele>1380</ele>
        <time>2021-08-07T10:04:26.092Z</time>
      </trkpt>
      <trkpt lat="46.91563" lon="8.65517">
        <ele>1380</ele>
        <time>2021-08-07T10:04:27.092Z</time>
      </trkpt>
      <trkpt lat="46.91562" lon="8.65517">
        <ele>1380</ele>
        <time>2021-08-07T10:04:28.092Z</time>
      </trkpt>
      <trkpt lat="46.91561" lon="8.65516">
        <ele>1379</ele>
        <time>2021-08-07T10:04:29.092Z</time>
      </trkpt>
      <trkpt lat="46.9156" lon="8.65516">
        <ele>1379</ele>
        <time>2021-08-07T10:04:30.092Z</time>
      </trkpt>
      <trkpt lat="46.9156" lon="8.65516">
        <ele>1379</ele>
        <time>2021-08-07T10:04:31.093Z</time>
      </trkpt>
      <trkpt lat="46.91559" lon="8.65516">
        <ele>1378</ele>
        <time>2021-08-07T10:04:32.092Z</time>
      </trkpt>
      <trkpt lat="46.91559" lon="8.65516">
        <ele>1378</ele>
        <time>2021-08-07T10:04:36.109Z</time>
      </trkpt>
      <trkpt lat="46.91559" lon="8.65516">
        <ele>1378</ele>
        <time>2021-08-07T10:04:37.109Z</time>
      </trkpt>
      <trkpt lat="46.91557" lon="8.65516">
        <ele>1378</ele>
        <time>2021-08-07T10:04:38.109Z</time>
      </trkpt>
      <trkpt lat="46.91556" lon="8.65516">
        <ele>1378</ele>
        <time>2021-08-07T10:04:39.109Z</time>
      </trkpt>
      <trkpt lat="46.91555" lon="8.65516">
        <ele>1377</ele>
        <time>2021-08-07T10:04:58.088Z</time>
      </trkpt>
      <trkpt lat="46.91555" lon="8.65516">
        <ele>1377</ele>
        <time>2021-08-07T10:04:59.088Z</time>
      </trkpt>
      <trkpt lat="46.91555" lon="8.65516">
        <ele>1377</ele>
        <time>2021-08-07T10:05:01.957Z</time>
      </trkpt>
      <trkpt lat="46.91555" lon="8.65515">
        <ele>1377</ele>
        <time>2021-08-07T10:05:02.957Z</time>
      </trkpt>
      <trkpt lat="46.91555" lon="8.65515">
        <ele>1377</ele>
        <time>2021-08-07T10:05:03.957Z</time>
      </trkpt>
      <trkpt lat="46.91555" lon="8.65515">
        <ele>1377</ele>
        <time>2021-08-07T10:05:04.957Z</time>
      </trkpt>
      <trkpt lat="46.91555" lon="8.65514">
        <ele>1378</ele>
        <time>2021-08-07T10:05:13.096Z</time>
      </trkpt>
      <trkpt lat="46.91554" lon="8.65515">
        <ele>1378</ele>
        <time>2021-08-07T10:05:14.967Z</time>
      </trkpt>
      <trkpt lat="46.91554" lon="8.65515">
        <ele>1377</ele>
        <time>2021-08-07T10:05:15.967Z</time>
      </trkpt>
      <trkpt lat="46.91553" lon="8.65516">
        <ele>1377</ele>
        <time>2021-08-07T10:05:16.967Z</time>
      </trkpt>
      <trkpt lat="46.91553" lon="8.65515">
        <ele>1377</ele>
        <time>2021-08-07T10:05:31.089Z</time>
      </trkpt>
      <trkpt lat="46.91552" lon="8.65514">
        <ele>1377</ele>
        <time>2021-08-07T10:05:32.088Z</time>
      </trkpt>
      <trkpt lat="46.9155" lon="8.6551">
        <ele>1377</ele>
        <time>2021-08-07T10:05:37.970Z</time>
      </trkpt>
      <trkpt lat="46.91549" lon="8.6551">
        <ele>1377</ele>
        <time>2021-08-07T10:05:38.969Z</time>
      </trkpt>
      <trkpt lat="46.91549" lon="8.65509">
        <ele>1377</ele>
        <time>2021-08-07T10:05:48.839Z</time>
      </trkpt>
      <trkpt lat="46.91549" lon="8.65509">
        <ele>1377</ele>
        <time>2021-08-07T10:05:49.839Z</time>
      </trkpt>
      <trkpt lat="46.9155" lon="8.65509">
        <ele>1377</ele>
        <time>2021-08-07T10:05:58.616Z</time>
      </trkpt>
      <trkpt lat="46.9155" lon="8.65508">
        <ele>1378</ele>
        <time>2021-08-07T10:05:59.616Z</time>
      </trkpt>
      <trkpt lat="46.9155" lon="8.65507">
        <ele>1377</ele>
        <time>2021-08-07T10:06:35.505Z</time>
      </trkpt>
      <trkpt lat="46.91549" lon="8.65506">
        <ele>1377</ele>
        <time>2021-08-07T10:06:36.506Z</time>
      </trkpt>
      <trkpt lat="46.91549" lon="8.65504">
        <ele>1377</ele>
        <time>2021-08-07T10:06:37.506Z</time>
      </trkpt>
      <trkpt lat="46.91548" lon="8.65503">
        <ele>1377</ele>
        <time>2021-08-07T10:06:38.505Z</time>
      </trkpt>
      <trkpt lat="46.91548" lon="8.65503">
        <ele>1376</ele>
        <time>2021-08-07T10:06:39.505Z</time>
      </trkpt>
      <trkpt lat="46.91547" lon="8.65502">
        <ele>1376</ele>
        <time>2021-08-07T10:06:40.505Z</time>
      </trkpt>
      <trkpt lat="46.91546" lon="8.65502">
        <ele>1376</ele>
        <time>2021-08-07T10:06:41.506Z</time>
      </trkpt>
      <trkpt lat="46.91546" lon="8.65503">
        <ele>1375</ele>
        <time>2021-08-07T10:06:42.505Z</time>
      </trkpt>
      <trkpt lat="46.91546" lon="8.65505">
        <ele>1375</ele>
        <time>2021-08-07T10:07:05.621Z</time>
      </trkpt>
      <trkpt lat="46.91546" lon="8.65505">
        <ele>1375</ele>
        <time>2021-08-07T10:07:06.621Z</time>
      </trkpt>
      <trkpt lat="46.91543" lon="8.65511">
        <ele>1372</ele>
        <time>2021-08-07T10:07:31.749Z</time>
      </trkpt>
      <trkpt lat="46.91543" lon="8.65511">
        <ele>1372</ele>
        <time>2021-08-07T10:07:32.750Z</time>
      </trkpt>
      <trkpt lat="46.91542" lon="8.65509">
        <ele>1364</ele>
        <time>2021-08-07T10:07:33.750Z</time>
      </trkpt>
      <trkpt lat="46.91541" lon="8.65509">
        <ele>1364</ele>
        <time>2021-08-07T10:07:43.876Z</time>
      </trkpt>
      <trkpt lat="46.91541" lon="8.65509">
        <ele>1364</ele>
        <time>2021-08-07T10:07:44.876Z</time>
      </trkpt>
      <trkpt lat="46.91541" lon="8.65509">
        <ele>1364</ele>
        <time>2021-08-07T10:07:45.876Z</time>
      </trkpt>
      <trkpt lat="46.9154" lon="8.6551">
        <ele>1363</ele>
        <time>2021-08-07T10:07:46.876Z</time>
      </trkpt>
      <trkpt lat="46.9154" lon="8.6551">
        <ele>1364</ele>
        <time>2021-08-07T10:07:47.876Z</time>
      </trkpt>
      <trkpt lat="46.91534" lon="8.65508">
        <ele>1374</ele>
        <time>2021-08-07T10:07:49.994Z</time>
      </trkpt>
      <trkpt lat="46.91534" lon="8.65509">
        <ele>1375</ele>
        <time>2021-08-07T10:07:50.993Z</time>
      </trkpt>
      <trkpt lat="46.91534" lon="8.65509">
        <ele>1376</ele>
        <time>2021-08-07T10:07:58.849Z</time>
      </trkpt>
      <trkpt lat="46.91534" lon="8.65509">
        <ele>1376</ele>
        <time>2021-08-07T10:07:59.849Z</time>
      </trkpt>
      <trkpt lat="46.91533" lon="8.65494">
        <ele>1376</ele>
        <time>2021-08-07T10:08:00.850Z</time>
      </trkpt>
      <trkpt lat="46.91534" lon="8.65494">
        <ele>1376</ele>
        <time>2021-08-07T10:08:15.952Z</time>
      </trkpt>
      <trkpt lat="46.91535" lon="8.65494">
        <ele>1375</ele>
        <time>2021-08-07T10:08:16.953Z</time>
      </trkpt>
      <trkpt lat="46.91536" lon="8.65492">
        <ele>1372</ele>
        <time>2021-08-07T10:08:22.875Z</time>
      </trkpt>
      <trkpt lat="46.91536" lon="8.65493">
        <ele>1372</ele>
        <time>2021-08-07T10:08:23.874Z</time>
      </trkpt>
      <trkpt lat="46.91535" lon="8.65496">
        <ele>1364</ele>
        <time>2021-08-07T10:08:24.875Z</time>
      </trkpt>
      <trkpt lat="46.91535" lon="8.65497">
        <ele>1364</ele>
        <time>2021-08-07T10:08:25.875Z</time>
      </trkpt>
      <trkpt lat="46.91535" lon="8.65496">
        <ele>1364</ele>
        <time>2021-08-07T10:08:26.874Z</time>
      </trkpt>
      <trkpt lat="46.91535" lon="8.65496">
        <ele>1364</ele>
        <time>2021-08-07T10:08:50.951Z</time>
      </trkpt>
      <trkpt lat="46.91535" lon="8.65496">
        <ele>1364</ele>
        <time>2021-08-07T10:08:51.951Z</time>
      </trkpt>
      <trkpt lat="46.91535" lon="8.65497">
        <ele>1364</ele>
        <time>2021-08-07T10:08:52.951Z</time>
      </trkpt>
      <trkpt lat="46.91535" lon="8.65498">
        <ele>1364</ele>
        <time>2021-08-07T10:09:02.141Z</time>
      </trkpt>
      <trkpt lat="46.91535" lon="8.65498">
        <ele>1364</ele>
        <time>2021-08-07T10:09:03.140Z</time>
      </trkpt>
      <trkpt lat="46.91528" lon="8.65502">
        <ele>1373</ele>
        <time>2021-08-07T10:09:04.140Z</time>
      </trkpt>
      <trkpt lat="46.91528" lon="8.65502">
        <ele>1374</ele>
        <time>2021-08-07T10:09:05.141Z</time>
      </trkpt>
      <trkpt lat="46.91528" lon="8.65501">
        <ele>1375</ele>
        <time>2021-08-07T10:09:09.228Z</time>
      </trkpt>
      <trkpt lat="46.91528" lon="8.65501">
        <ele>1375</ele>
        <time>2021-08-07T10:09:10.229Z</time>
      </trkpt>
      <trkpt lat="46.91527" lon="8.655">
        <ele>1377</ele>
        <time>2021-08-07T10:09:11.228Z</time>
      </trkpt>
      <trkpt lat="46.91527" lon="8.65499">
        <ele>1377</ele>
        <time>2021-08-07T10:09:12.228Z</time>
      </trkpt>
      <trkpt lat="46.91529" lon="8.65497">
        <ele>1376</ele>
        <time>2021-08-07T10:09:13.228Z</time>
      </trkpt>
      <trkpt lat="46.9153" lon="8.65497">
        <ele>1375</ele>
        <time>2021-08-07T10:09:14.228Z</time>
      </trkpt>
      <trkpt lat="46.9153" lon="8.65491">
        <ele>1369</ele>
        <time>2021-08-07T10:09:15.228Z</time>
      </trkpt>
      <trkpt lat="46.9153" lon="8.6549">
        <ele>1370</ele>
        <time>2021-08-07T10:09:16.228Z</time>
      </trkpt>
      <trkpt lat="46.91535" lon="8.65499">
        <ele>1348</ele>
        <time>2021-08-07T10:09:17.228Z</time>
      </trkpt>
      <trkpt lat="46.91536" lon="8.65499">
        <ele>1348</ele>
        <time>2021-08-07T10:09:18.229Z</time>
      </trkpt>
      <trkpt lat="46.91536" lon="8.655">
        <ele>1348</ele>
        <time>2021-08-07T10:09:19.229Z</time>
      </trkpt>
      <trkpt lat="46.91536" lon="8.655">
        <ele>1348</ele>
        <time>2021-08-07T10:09:20.229Z</time>
      </trkpt>
      <trkpt lat="46.91536" lon="8.655">
        <ele>1348</ele>
        <time>2021-08-07T10:09:21.229Z</time>
      </trkpt>
      <trkpt lat="46.91536" lon="8.655">
        <ele>1365</ele>
        <time>2021-08-07T10:09:22.229Z</time>
      </trkpt>
      <trkpt lat="46.91536" lon="8.65499">
        <ele>1366</ele>
        <time>2021-08-07T10:09:23.229Z</time>
      </trkpt>
      <trkpt lat="46.91538" lon="8.65496">
        <ele>1369</ele>
        <time>2021-08-07T10:09:24.230Z</time>
      </trkpt>
      <trkpt lat="46.91538" lon="8.65496">
        <ele>1369</ele>
        <time>2021-08-07T10:09:25.230Z</time>
      </trkpt>
      <trkpt lat="46.91538" lon="8.65495">
        <ele>1370</ele>
        <time>2021-08-07T10:09:26.229Z</time>
      </trkpt>
      <trkpt lat="46.91537" lon="8.65494">
        <ele>1370</ele>
        <time>2021-08-07T10:09:27.230Z</time>
      </trkpt>
      <trkpt lat="46.91537" lon="8.65493">
        <ele>1370</ele>
        <time>2021-08-07T10:09:28.230Z</time>
      </trkpt>
      <trkpt lat="46.91536" lon="8.65493">
        <ele>1370</ele>
        <time>2021-08-07T10:09:29.229Z</time>
      </trkpt>
      <trkpt lat="46.91536" lon="8.65493">
        <ele>1371</ele>
        <time>2021-08-07T10:09:30.229Z</time>
      </trkpt>
      <trkpt lat="46.91536" lon="8.65493">
        <ele>1371</ele>
        <time>2021-08-07T10:09:31.230Z</time>
      </trkpt>
      <trkpt lat="46.91536" lon="8.65494">
        <ele>1371</ele>
        <time>2021-08-07T10:09:32.230Z</time>
      </trkpt>
      <trkpt lat="46.91535" lon="8.65495">
        <ele>1371</ele>
        <time>2021-08-07T10:09:33.230Z</time>
      </trkpt>
      <trkpt lat="46.91535" lon="8.65495">
        <ele>1372</ele>
        <time>2021-08-07T10:09:34.230Z</time>
      </trkpt>
      <trkpt lat="46.91535" lon="8.65495">
        <ele>1372</ele>
        <time>2021-08-07T10:09:35.230Z</time>
      </trkpt>
      <trkpt lat="46.91535" lon="8.65496">
        <ele>1372</ele>
        <time>2021-08-07T10:09:36.231Z</time>
      </trkpt>
      <trkpt lat="46.91534" lon="8.65496">
        <ele>1373</ele>
        <time>2021-08-07T10:09:37.231Z</time>
      </trkpt>
      <trkpt lat="46.91534" lon="8.65496">
        <ele>1373</ele>
        <time>2021-08-07T10:09:38.230Z</time>
      </trkpt>
      <trkpt lat="46.91533" lon="8.65497">
        <ele>1373</ele>
        <time>2021-08-07T10:09:39.230Z</time>
      </trkpt>
      <trkpt lat="46.91533" lon="8.65498">
        <ele>1374</ele>
        <time>2021-08-07T10:09:40.231Z</time>
      </trkpt>
      <trkpt lat="46.91532" lon="8.65499">
        <ele>1374</ele>
        <time>2021-08-07T10:09:41.231Z</time>
      </trkpt>
      <trkpt lat="46.91532" lon="8.65499">
        <ele>1374</ele>
        <time>2021-08-07T10:09:42.231Z</time>
      </trkpt>
      <trkpt lat="46.91533" lon="8.65499">
        <ele>1374</ele>
        <time>2021-08-07T10:09:43.231Z</time>
      </trkpt>
      <trkpt lat="46.91533" lon="8.655">
        <ele>1374</ele>
        <time>2021-08-07T10:09:44.230Z</time>
      </trkpt>
      <trkpt lat="46.91534" lon="8.655">
        <ele>1375</ele>
        <time>2021-08-07T10:09:45.230Z</time>
      </trkpt>
      <trkpt lat="46.91534" lon="8.655">
        <ele>1375</ele>
        <time>2021-08-07T10:09:46.231Z</time>
      </trkpt>
      <trkpt lat="46.91535" lon="8.65501">
        <ele>1375</ele>
        <time>2021-08-07T10:09:47.231Z</time>
      </trkpt>
      <trkpt lat="46.91534" lon="8.655">
        <ele>1375</ele>
        <time>2021-08-07T10:09:48.230Z</time>
      </trkpt>
      <trkpt lat="46.91534" lon="8.65498">
        <ele>1376</ele>
        <time>2021-08-07T10:09:49.230Z</time>
      </trkpt>
      <trkpt lat="46.91535" lon="8.65495">
        <ele>1376</ele>
        <time>2021-08-07T10:09:50.231Z</time>
      </trkpt>
      <trkpt lat="46.91535" lon="8.65495">
        <ele>1376</ele>
        <time>2021-08-07T10:09:51.230Z</time>
      </trkpt>
      <trkpt lat="46.91536" lon="8.65494">
        <ele>1376</ele>
        <time>2021-08-07T10:09:52.230Z</time>
      </trkpt>
      <trkpt lat="46.91536" lon="8.65494">
        <ele>1377</ele>
        <time>2021-08-07T10:09:53.230Z</time>
      </trkpt>
      <trkpt lat="46.91537" lon="8.65494">
        <ele>1377</ele>
        <time>2021-08-07T10:09:54.231Z</time>
      </trkpt>
      <trkpt lat="46.91538" lon="8.65493">
        <ele>1377</ele>
        <time>2021-08-07T10:09:55.230Z</time>
      </trkpt>
      <trkpt lat="46.91538" lon="8.65492">
        <ele>1377</ele>
        <time>2021-08-07T10:09:56.231Z</time>
      </trkpt>
      <trkpt lat="46.91539" lon="8.65492">
        <ele>1377</ele>
        <time>2021-08-07T10:09:57.231Z</time>
      </trkpt>
      <trkpt lat="46.91539" lon="8.65491">
        <ele>1377</ele>
        <time>2021-08-07T10:09:58.231Z</time>
      </trkpt>
      <trkpt lat="46.91538" lon="8.65491">
        <ele>1377</ele>
        <time>2021-08-07T10:09:59.230Z</time>
      </trkpt>
      <trkpt lat="46.91538" lon="8.6549">
        <ele>1377</ele>
        <time>2021-08-07T10:10:00.231Z</time>
      </trkpt>
      <trkpt lat="46.91537" lon="8.6549">
        <ele>1377</ele>
        <time>2021-08-07T10:10:01.230Z</time>
      </trkpt>
      <trkpt lat="46.91538" lon="8.6549">
        <ele>1377</ele>
        <time>2021-08-07T10:10:02.231Z</time>
      </trkpt>
      <trkpt lat="46.91538" lon="8.65489">
        <ele>1377</ele>
        <time>2021-08-07T10:10:03.230Z</time>
      </trkpt>
      <trkpt lat="46.91539" lon="8.65488">
        <ele>1377</ele>
        <time>2021-08-07T10:10:04.231Z</time>
      </trkpt>
      <trkpt lat="46.91539" lon="8.65487">
        <ele>1377</ele>
        <time>2021-08-07T10:10:05.231Z</time>
      </trkpt>
      <trkpt lat="46.91539" lon="8.65486">
        <ele>1376</ele>
        <time>2021-08-07T10:10:06.231Z</time>
      </trkpt>
      <trkpt lat="46.91538" lon="8.65486">
        <ele>1376</ele>
        <time>2021-08-07T10:10:07.230Z</time>
      </trkpt>
      <trkpt lat="46.91538" lon="8.65487">
        <ele>1375</ele>
        <time>2021-08-07T10:10:08.231Z</time>
      </trkpt>
      <trkpt lat="46.91537" lon="8.65488">
        <ele>1375</ele>
        <time>2021-08-07T10:10:09.231Z</time>
      </trkpt>
      <trkpt lat="46.91537" lon="8.65489">
        <ele>1374</ele>
        <time>2021-08-07T10:10:10.231Z</time>
      </trkpt>
      <trkpt lat="46.91536" lon="8.6549">
        <ele>1374</ele>
        <time>2021-08-07T10:10:11.230Z</time>
      </trkpt>
      <trkpt lat="46.91536" lon="8.6549">
        <ele>1373</ele>
        <time>2021-08-07T10:10:12.231Z</time>
      </trkpt>
      <trkpt lat="46.91534" lon="8.6549">
        <ele>1370</ele>
        <time>2021-08-07T10:10:13.230Z</time>
      </trkpt>
      <trkpt lat="46.91533" lon="8.65489">
        <ele>1370</ele>
        <time>2021-08-07T10:10:14.231Z</time>
      </trkpt>
      <trkpt lat="46.91532" lon="8.6549">
        <ele>1369</ele>
        <time>2021-08-07T10:10:15.230Z</time>
      </trkpt>
      <trkpt lat="46.91531" lon="8.6549">
        <ele>1369</ele>
        <time>2021-08-07T10:10:16.231Z</time>
      </trkpt>
      <trkpt lat="46.91531" lon="8.6549">
        <ele>1368</ele>
        <time>2021-08-07T10:10:17.230Z</time>
      </trkpt>
      <trkpt lat="46.91531" lon="8.65491">
        <ele>1367</ele>
        <time>2021-08-07T10:10:18.230Z</time>
      </trkpt>
      <trkpt lat="46.9153" lon="8.65491">
        <ele>1366</ele>
        <time>2021-08-07T10:10:19.230Z</time>
      </trkpt>
      <trkpt lat="46.9153" lon="8.65492">
        <ele>1365</ele>
        <time>2021-08-07T10:10:20.231Z</time>
      </trkpt>
      <trkpt lat="46.91529" lon="8.65492">
        <ele>1364</ele>
        <time>2021-08-07T10:10:21.231Z</time>
      </trkpt>
      <trkpt lat="46.91528" lon="8.65492">
        <ele>1364</ele>
        <time>2021-08-07T10:10:22.230Z</time>
      </trkpt>
      <trkpt lat="46.91527" lon="8.65493">
        <ele>1363</ele>
        <time>2021-08-07T10:10:23.231Z</time>
      </trkpt>
      <trkpt lat="46.91527" lon="8.65494">
        <ele>1363</ele>
        <time>2021-08-07T10:10:24.231Z</time>
      </trkpt>
      <trkpt lat="46.91527" lon="8.65494">
        <ele>1362</ele>
        <time>2021-08-07T10:10:25.230Z</time>
      </trkpt>
      <trkpt lat="46.91526" lon="8.65495">
        <ele>1362</ele>
        <time>2021-08-07T10:10:26.231Z</time>
      </trkpt>
      <trkpt lat="46.91525" lon="8.65496">
        <ele>1361</ele>
        <time>2021-08-07T10:10:27.231Z</time>
      </trkpt>
      <trkpt lat="46.91524" lon="8.65495">
        <ele>1361</ele>
        <time>2021-08-07T10:10:28.231Z</time>
      </trkpt>
      <trkpt lat="46.91524" lon="8.65495">
        <ele>1360</ele>
        <time>2021-08-07T10:10:29.230Z</time>
      </trkpt>
      <trkpt lat="46.91523" lon="8.65495">
        <ele>1360</ele>
        <time>2021-08-07T10:10:30.231Z</time>
      </trkpt>
      <trkpt lat="46.91522" lon="8.65495">
        <ele>1359</ele>
        <time>2021-08-07T10:10:31.231Z</time>
      </trkpt>
      <trkpt lat="46.91523" lon="8.65495">
        <ele>1358</ele>
        <time>2021-08-07T10:10:32.230Z</time>
      </trkpt>
      <trkpt lat="46.91523" lon="8.65494">
        <ele>1357</ele>
        <time>2021-08-07T10:10:33.231Z</time>
      </trkpt>
      <trkpt lat="46.91524" lon="8.65494">
        <ele>1357</ele>
        <time>2021-08-07T10:10:34.231Z</time>
      </trkpt>
      <trkpt lat="46.91525" lon="8.65494">
        <ele>1356</ele>
        <time>2021-08-07T10:10:35.231Z</time>
      </trkpt>
      <trkpt lat="46.91525" lon="8.65493">
        <ele>1356</ele>
        <time>2021-08-07T10:10:36.230Z</time>
      </trkpt>
      <trkpt lat="46.91525" lon="8.65492">
        <ele>1355</ele>
        <time>2021-08-07T10:10:37.230Z</time>
      </trkpt>
      <trkpt lat="46.91525" lon="8.6549">
        <ele>1355</ele>
        <time>2021-08-07T10:10:38.231Z</time>
      </trkpt>
      <trkpt lat="46.91525" lon="8.6549">
        <ele>1354</ele>
        <time>2021-08-07T10:10:39.230Z</time>
      </trkpt>
      <trkpt lat="46.91526" lon="8.65488">
        <ele>1354</ele>
        <time>2021-08-07T10:10:40.232Z</time>
      </trkpt>
      <trkpt lat="46.91526" lon="8.65487">
        <ele>1354</ele>
        <time>2021-08-07T10:10:41.232Z</time>
      </trkpt>
      <trkpt lat="46.91526" lon="8.65486">
        <ele>1354</ele>
        <time>2021-08-07T10:10:42.231Z</time>
      </trkpt>
      <trkpt lat="46.91526" lon="8.65485">
        <ele>1354</ele>
        <time>2021-08-07T10:10:43.232Z</time>
      </trkpt>
      <trkpt lat="46.91528" lon="8.65482">
        <ele>1354</ele>
        <time>2021-08-07T10:10:44.232Z</time>
      </trkpt>
      <trkpt lat="46.91528" lon="8.65481">
        <ele>1354</ele>
        <time>2021-08-07T10:10:45.232Z</time>
      </trkpt>
      <trkpt lat="46.91528" lon="8.6548">
        <ele>1354</ele>
        <time>2021-08-07T10:10:46.232Z</time>
      </trkpt>
      <trkpt lat="46.91527" lon="8.6547">
        <ele>1351</ele>
        <time>2021-08-07T10:10:47.232Z</time>
      </trkpt>
      <trkpt lat="46.91527" lon="8.6547">
        <ele>1350</ele>
        <time>2021-08-07T10:10:48.232Z</time>
      </trkpt>
      <trkpt lat="46.91527" lon="8.65469">
        <ele>1349</ele>
        <time>2021-08-07T10:10:49.231Z</time>
      </trkpt>
      <trkpt lat="46.91527" lon="8.65468">
        <ele>1348</ele>
        <time>2021-08-07T10:10:50.232Z</time>
      </trkpt>
      <trkpt lat="46.91527" lon="8.65466">
        <ele>1348</ele>
        <time>2021-08-07T10:10:51.232Z</time>
      </trkpt>
      <trkpt lat="46.91527" lon="8.65465">
        <ele>1347</ele>
        <time>2021-08-07T10:10:52.232Z</time>
      </trkpt>
      <trkpt lat="46.91526" lon="8.65464">
        <ele>1347</ele>
        <time>2021-08-07T10:10:53.232Z</time>
      </trkpt>
      <trkpt lat="46.91526" lon="8.65463">
        <ele>1347</ele>
        <time>2021-08-07T10:10:54.231Z</time>
      </trkpt>
      <trkpt lat="46.91527" lon="8.65461">
        <ele>1347</ele>
        <time>2021-08-07T10:10:55.231Z</time>
      </trkpt>
      <trkpt lat="46.91527" lon="8.65459">
        <ele>1348</ele>
        <time>2021-08-07T10:10:56.232Z</time>
      </trkpt>
      <trkpt lat="46.91527" lon="8.65457">
        <ele>1348</ele>
        <time>2021-08-07T10:10:57.232Z</time>
      </trkpt>
      <trkpt lat="46.91526" lon="8.65457">
        <ele>1348</ele>
        <time>2021-08-07T10:10:58.232Z</time>
      </trkpt>
      <trkpt lat="46.91526" lon="8.65456">
        <ele>1347</ele>
        <time>2021-08-07T10:10:59.232Z</time>
      </trkpt>
      <trkpt lat="46.91526" lon="8.65456">
        <ele>1347</ele>
        <time>2021-08-07T10:11:00.232Z</time>
      </trkpt>
      <trkpt lat="46.91526" lon="8.65456">
        <ele>1346</ele>
        <time>2021-08-07T10:11:01.232Z</time>
      </trkpt>
      <trkpt lat="46.91526" lon="8.65454">
        <ele>1346</ele>
        <time>2021-08-07T10:11:02.232Z</time>
      </trkpt>
      <trkpt lat="46.91526" lon="8.65452">
        <ele>1345</ele>
        <time>2021-08-07T10:11:03.231Z</time>
      </trkpt>
      <trkpt lat="46.91526" lon="8.6545">
        <ele>1344</ele>
        <time>2021-08-07T10:11:04.231Z</time>
      </trkpt>
      <trkpt lat="46.91527" lon="8.6545">
        <ele>1344</ele>
        <time>2021-08-07T10:11:05.232Z</time>
      </trkpt>
      <trkpt lat="46.91527" lon="8.6545">
        <ele>1343</ele>
        <time>2021-08-07T10:11:06.232Z</time>
      </trkpt>
      <trkpt lat="46.91528" lon="8.6545">
        <ele>1343</ele>
        <time>2021-08-07T10:11:07.231Z</time>
      </trkpt>
      <trkpt lat="46.91528" lon="8.65449">
        <ele>1342</ele>
        <time>2021-08-07T10:11:08.232Z</time>
      </trkpt>
      <trkpt lat="46.91528" lon="8.65448">
        <ele>1342</ele>
        <time>2021-08-07T10:11:09.232Z</time>
      </trkpt>
      <trkpt lat="46.91528" lon="8.65446">
        <ele>1342</ele>
        <time>2021-08-07T10:11:10.231Z</time>
      </trkpt>
      <trkpt lat="46.91529" lon="8.65444">
        <ele>1342</ele>
        <time>2021-08-07T10:11:11.232Z</time>
      </trkpt>
      <trkpt lat="46.91529" lon="8.65443">
        <ele>1342</ele>
        <time>2021-08-07T10:11:12.231Z</time>
      </trkpt>
      <trkpt lat="46.9153" lon="8.65442">
        <ele>1342</ele>
        <time>2021-08-07T10:11:13.232Z</time>
      </trkpt>
      <trkpt lat="46.91531" lon="8.65441">
        <ele>1342</ele>
        <time>2021-08-07T10:11:14.232Z</time>
      </trkpt>
      <trkpt lat="46.91531" lon="8.65441">
        <ele>1342</ele>
        <time>2021-08-07T10:11:15.231Z</time>
      </trkpt>
      <trkpt lat="46.91532" lon="8.6544">
        <ele>1342</ele>
        <time>2021-08-07T10:11:16.232Z</time>
      </trkpt>
      <trkpt lat="46.91533" lon="8.65439">
        <ele>1342</ele>
        <time>2021-08-07T10:11:17.232Z</time>
      </trkpt>
      <trkpt lat="46.91534" lon="8.65438">
        <ele>1342</ele>
        <time>2021-08-07T10:11:18.232Z</time>
      </trkpt>
      <trkpt lat="46.91535" lon="8.65438">
        <ele>1342</ele>
        <time>2021-08-07T10:11:19.232Z</time>
      </trkpt>
      <trkpt lat="46.91535" lon="8.65437">
        <ele>1342</ele>
        <time>2021-08-07T10:11:20.231Z</time>
      </trkpt>
      <trkpt lat="46.91536" lon="8.65436">
        <ele>1342</ele>
        <time>2021-08-07T10:11:21.232Z</time>
      </trkpt>
      <trkpt lat="46.91536" lon="8.65436">
        <ele>1342</ele>
        <time>2021-08-07T10:11:22.232Z</time>
      </trkpt>
      <trkpt lat="46.91536" lon="8.65436">
        <ele>1342</ele>
        <time>2021-08-07T10:11:23.231Z</time>
      </trkpt>
      <trkpt lat="46.91537" lon="8.65435">
        <ele>1342</ele>
        <time>2021-08-07T10:11:24.232Z</time>
      </trkpt>
      <trkpt lat="46.91539" lon="8.65432">
        <ele>1342</ele>
        <time>2021-08-07T10:11:25.231Z</time>
      </trkpt>
      <trkpt lat="46.9154" lon="8.65431">
        <ele>1341</ele>
        <time>2021-08-07T10:11:26.231Z</time>
      </trkpt>
      <trkpt lat="46.91541" lon="8.65429">
        <ele>1341</ele>
        <time>2021-08-07T10:11:27.231Z</time>
      </trkpt>
      <trkpt lat="46.91541" lon="8.65427">
        <ele>1341</ele>
        <time>2021-08-07T10:11:28.231Z</time>
      </trkpt>
      <trkpt lat="46.91542" lon="8.65426">
        <ele>1341</ele>
        <time>2021-08-07T10:11:29.231Z</time>
      </trkpt>
      <trkpt lat="46.91542" lon="8.65426">
        <ele>1341</ele>
        <time>2021-08-07T10:11:30.231Z</time>
      </trkpt>
      <trkpt lat="46.91543" lon="8.65425">
        <ele>1341</ele>
        <time>2021-08-07T10:11:31.231Z</time>
      </trkpt>
      <trkpt lat="46.91543" lon="8.65424">
        <ele>1341</ele>
        <time>2021-08-07T10:11:32.231Z</time>
      </trkpt>
      <trkpt lat="46.91542" lon="8.65423">
        <ele>1340</ele>
        <time>2021-08-07T10:11:33.231Z</time>
      </trkpt>
      <trkpt lat="46.91542" lon="8.65423">
        <ele>1340</ele>
        <time>2021-08-07T10:11:34.231Z</time>
      </trkpt>
      <trkpt lat="46.91542" lon="8.65422">
        <ele>1340</ele>
        <time>2021-08-07T10:11:35.231Z</time>
      </trkpt>
      <trkpt lat="46.91544" lon="8.65424">
        <ele>1339</ele>
        <time>2021-08-07T10:11:36.233Z</time>
      </trkpt>
      <trkpt lat="46.91545" lon="8.65424">
        <ele>1339</ele>
        <time>2021-08-07T10:11:37.232Z</time>
      </trkpt>
      <trkpt lat="46.91545" lon="8.65423">
        <ele>1338</ele>
        <time>2021-08-07T10:11:38.232Z</time>
      </trkpt>
      <trkpt lat="46.91546" lon="8.65423">
        <ele>1338</ele>
        <time>2021-08-07T10:11:39.232Z</time>
      </trkpt>
      <trkpt lat="46.91548" lon="8.65423">
        <ele>1338</ele>
        <time>2021-08-07T10:11:40.233Z</time>
      </trkpt>
      <trkpt lat="46.91549" lon="8.65422">
        <ele>1338</ele>
        <time>2021-08-07T10:11:41.233Z</time>
      </trkpt>
      <trkpt lat="46.9155" lon="8.65422">
        <ele>1338</ele>
        <time>2021-08-07T10:11:42.232Z</time>
      </trkpt>
      <trkpt lat="46.91551" lon="8.65421">
        <ele>1338</ele>
        <time>2021-08-07T10:11:43.232Z</time>
      </trkpt>
      <trkpt lat="46.91552" lon="8.6542">
        <ele>1338</ele>
        <time>2021-08-07T10:11:44.233Z</time>
      </trkpt>
      <trkpt lat="46.91553" lon="8.65419">
        <ele>1338</ele>
        <time>2021-08-07T10:11:45.233Z</time>
      </trkpt>
      <trkpt lat="46.91554" lon="8.65417">
        <ele>1338</ele>
        <time>2021-08-07T10:11:46.232Z</time>
      </trkpt>
      <trkpt lat="46.91554" lon="8.65416">
        <ele>1338</ele>
        <time>2021-08-07T10:11:47.232Z</time>
      </trkpt>
      <trkpt lat="46.91555" lon="8.65414">
        <ele>1339</ele>
        <time>2021-08-07T10:11:48.232Z</time>
      </trkpt>
      <trkpt lat="46.91557" lon="8.65412">
        <ele>1339</ele>
        <time>2021-08-07T10:11:49.233Z</time>
      </trkpt>
      <trkpt lat="46.91557" lon="8.65411">
        <ele>1340</ele>
        <time>2021-08-07T10:11:50.233Z</time>
      </trkpt>
      <trkpt lat="46.91558" lon="8.6541">
        <ele>1340</ele>
        <time>2021-08-07T10:11:51.232Z</time>
      </trkpt>
      <trkpt lat="46.91558" lon="8.65408">
        <ele>1340</ele>
        <time>2021-08-07T10:11:52.232Z</time>
      </trkpt>
      <trkpt lat="46.91558" lon="8.65406">
        <ele>1340</ele>
        <time>2021-08-07T10:11:53.233Z</time>
      </trkpt>
      <trkpt lat="46.91558" lon="8.65406">
        <ele>1340</ele>
        <time>2021-08-07T10:11:54.233Z</time>
      </trkpt>
      <trkpt lat="46.91558" lon="8.65405">
        <ele>1340</ele>
        <time>2021-08-07T10:11:55.233Z</time>
      </trkpt>
      <trkpt lat="46.91559" lon="8.65403">
        <ele>1340</ele>
        <time>2021-08-07T10:11:56.232Z</time>
      </trkpt>
      <trkpt lat="46.91559" lon="8.65402">
        <ele>1340</ele>
        <time>2021-08-07T10:11:57.233Z</time>
      </trkpt>
      <trkpt lat="46.91559" lon="8.65402">
        <ele>1340</ele>
        <time>2021-08-07T10:11:58.233Z</time>
      </trkpt>
      <trkpt lat="46.9156" lon="8.65402">
        <ele>1340</ele>
        <time>2021-08-07T10:11:59.232Z</time>
      </trkpt>
      <trkpt lat="46.9156" lon="8.65402">
        <ele>1340</ele>
        <time>2021-08-07T10:12:00.233Z</time>
      </trkpt>
      <trkpt lat="46.91561" lon="8.65402">
        <ele>1340</ele>
        <time>2021-08-07T10:12:01.233Z</time>
      </trkpt>
      <trkpt lat="46.91561" lon="8.65401">
        <ele>1340</ele>
        <time>2021-08-07T10:12:02.232Z</time>
      </trkpt>
      <trkpt lat="46.91561" lon="8.654">
        <ele>1340</ele>
        <time>2021-08-07T10:12:03.233Z</time>
      </trkpt>
      <trkpt lat="46.91562" lon="8.65399">
        <ele>1340</ele>
        <time>2021-08-07T10:12:04.233Z</time>
      </trkpt>
      <trkpt lat="46.91562" lon="8.65398">
        <ele>1339</ele>
        <time>2021-08-07T10:12:05.233Z</time>
      </trkpt>
      <trkpt lat="46.91563" lon="8.65397">
        <ele>1338</ele>
        <time>2021-08-07T10:12:06.232Z</time>
      </trkpt>
      <trkpt lat="46.91564" lon="8.65395">
        <ele>1338</ele>
        <time>2021-08-07T10:12:07.233Z</time>
      </trkpt>
      <trkpt lat="46.91564" lon="8.65394">
        <ele>1337</ele>
        <time>2021-08-07T10:12:08.233Z</time>
      </trkpt>
      <trkpt lat="46.91565" lon="8.65394">
        <ele>1336</ele>
        <time>2021-08-07T10:12:09.232Z</time>
      </trkpt>
      <trkpt lat="46.91565" lon="8.65394">
        <ele>1336</ele>
        <time>2021-08-07T10:12:10.233Z</time>
      </trkpt>
      <trkpt lat="46.91565" lon="8.65393">
        <ele>1335</ele>
        <time>2021-08-07T10:12:11.232Z</time>
      </trkpt>
      <trkpt lat="46.91565" lon="8.65393">
        <ele>1335</ele>
        <time>2021-08-07T10:12:12.233Z</time>
      </trkpt>
      <trkpt lat="46.91566" lon="8.65392">
        <ele>1334</ele>
        <time>2021-08-07T10:12:13.233Z</time>
      </trkpt>
      <trkpt lat="46.91567" lon="8.65391">
        <ele>1334</ele>
        <time>2021-08-07T10:12:14.233Z</time>
      </trkpt>
      <trkpt lat="46.91567" lon="8.65389">
        <ele>1333</ele>
        <time>2021-08-07T10:12:15.233Z</time>
      </trkpt>
      <trkpt lat="46.91567" lon="8.65388">
        <ele>1333</ele>
        <time>2021-08-07T10:12:16.232Z</time>
      </trkpt>
      <trkpt lat="46.91567" lon="8.65387">
        <ele>1332</ele>
        <time>2021-08-07T10:12:17.232Z</time>
      </trkpt>
      <trkpt lat="46.91567" lon="8.65386">
        <ele>1331</ele>
        <time>2021-08-07T10:12:18.232Z</time>
      </trkpt>
      <trkpt lat="46.91568" lon="8.65386">
        <ele>1331</ele>
        <time>2021-08-07T10:12:19.233Z</time>
      </trkpt>
      <trkpt lat="46.91568" lon="8.65385">
        <ele>1331</ele>
        <time>2021-08-07T10:12:20.232Z</time>
      </trkpt>
      <trkpt lat="46.91568" lon="8.65385">
        <ele>1331</ele>
        <time>2021-08-07T10:12:21.233Z</time>
      </trkpt>
      <trkpt lat="46.91568" lon="8.65385">
        <ele>1331</ele>
        <time>2021-08-07T10:12:22.232Z</time>
      </trkpt>
      <trkpt lat="46.91568" lon="8.65384">
        <ele>1331</ele>
        <time>2021-08-07T10:12:23.233Z</time>
      </trkpt>
      <trkpt lat="46.91569" lon="8.65384">
        <ele>1331</ele>
        <time>2021-08-07T10:12:24.232Z</time>
      </trkpt>
      <trkpt lat="46.91569" lon="8.65384">
        <ele>1331</ele>
        <time>2021-08-07T10:12:25.233Z</time>
      </trkpt>
      <trkpt lat="46.9157" lon="8.65384">
        <ele>1331</ele>
        <time>2021-08-07T10:12:26.233Z</time>
      </trkpt>
      <trkpt lat="46.9157" lon="8.65383">
        <ele>1330</ele>
        <time>2021-08-07T10:12:27.233Z</time>
      </trkpt>
      <trkpt lat="46.91571" lon="8.65383">
        <ele>1330</ele>
        <time>2021-08-07T10:12:28.232Z</time>
      </trkpt>
      <trkpt lat="46.91571" lon="8.65383">
        <ele>1330</ele>
        <time>2021-08-07T10:12:29.233Z</time>
      </trkpt>
      <trkpt lat="46.91571" lon="8.65383">
        <ele>1330</ele>
        <time>2021-08-07T10:12:30.232Z</time>
      </trkpt>
      <trkpt lat="46.91571" lon="8.65383">
        <ele>1330</ele>
        <time>2021-08-07T10:12:31.232Z</time>
      </trkpt>
      <trkpt lat="46.91571" lon="8.65383">
        <ele>1330</ele>
        <time>2021-08-07T10:12:32.232Z</time>
      </trkpt>
      <trkpt lat="46.91572" lon="8.65382">
        <ele>1329</ele>
        <time>2021-08-07T10:12:33.233Z</time>
      </trkpt>
      <trkpt lat="46.91572" lon="8.65382">
        <ele>1329</ele>
        <time>2021-08-07T10:12:34.232Z</time>
      </trkpt>
      <trkpt lat="46.91572" lon="8.65383">
        <ele>1330</ele>
        <time>2021-08-07T10:12:35.232Z</time>
      </trkpt>
      <trkpt lat="46.91572" lon="8.65383">
        <ele>1330</ele>
        <time>2021-08-07T10:12:36.232Z</time>
      </trkpt>
      <trkpt lat="46.91572" lon="8.65383">
        <ele>1330</ele>
        <time>2021-08-07T10:12:37.233Z</time>
      </trkpt>
      <trkpt lat="46.91573" lon="8.65384">
        <ele>1330</ele>
        <time>2021-08-07T10:12:38.233Z</time>
      </trkpt>
      <trkpt lat="46.91574" lon="8.65384">
        <ele>1330</ele>
        <time>2021-08-07T10:12:39.232Z</time>
      </trkpt>
      <trkpt lat="46.91574" lon="8.65384">
        <ele>1330</ele>
        <time>2021-08-07T10:12:40.233Z</time>
      </trkpt>
      <trkpt lat="46.91574" lon="8.65384">
        <ele>1330</ele>
        <time>2021-08-07T10:12:41.232Z</time>
      </trkpt>
      <trkpt lat="46.91573" lon="8.65383">
        <ele>1330</ele>
        <time>2021-08-07T10:12:42.233Z</time>
      </trkpt>
      <trkpt lat="46.91574" lon="8.65383">
        <ele>1329</ele>
        <time>2021-08-07T10:12:43.233Z</time>
      </trkpt>
      <trkpt lat="46.91574" lon="8.65384">
        <ele>1330</ele>
        <time>2021-08-07T10:12:45.365Z</time>
      </trkpt>
      <trkpt lat="46.91575" lon="8.65384">
        <ele>1330</ele>
        <time>2021-08-07T10:12:46.366Z</time>
      </trkpt>
      <trkpt lat="46.91575" lon="8.65384">
        <ele>1331</ele>
        <time>2021-08-07T10:12:47.365Z</time>
      </trkpt>
      <trkpt lat="46.91575" lon="8.65385">
        <ele>1331</ele>
        <time>2021-08-07T10:12:48.366Z</time>
      </trkpt>
      <trkpt lat="46.91575" lon="8.65385">
        <ele>1332</ele>
        <time>2021-08-07T10:12:49.365Z</time>
      </trkpt>
      <trkpt lat="46.91576" lon="8.65384">
        <ele>1332</ele>
        <time>2021-08-07T10:12:50.366Z</time>
      </trkpt>
      <trkpt lat="46.91577" lon="8.65382">
        <ele>1331</ele>
        <time>2021-08-07T10:12:51.365Z</time>
      </trkpt>
      <trkpt lat="46.91578" lon="8.65382">
        <ele>1331</ele>
        <time>2021-08-07T10:12:52.366Z</time>
      </trkpt>
      <trkpt lat="46.91579" lon="8.65382">
        <ele>1331</ele>
        <time>2021-08-07T10:12:53.365Z</time>
      </trkpt>
      <trkpt lat="46.91579" lon="8.65382">
        <ele>1331</ele>
        <time>2021-08-07T10:12:54.366Z</time>
      </trkpt>
      <trkpt lat="46.9158" lon="8.65381">
        <ele>1331</ele>
        <time>2021-08-07T10:12:55.366Z</time>
      </trkpt>
      <trkpt lat="46.91579" lon="8.65381">
        <ele>1331</ele>
        <time>2021-08-07T10:12:56.365Z</time>
      </trkpt>
      <trkpt lat="46.9158" lon="8.65381">
        <ele>1331</ele>
        <time>2021-08-07T10:12:57.366Z</time>
      </trkpt>
      <trkpt lat="46.9158" lon="8.65381">
        <ele>1331</ele>
        <time>2021-08-07T10:12:58.366Z</time>
      </trkpt>
      <trkpt lat="46.91581" lon="8.65381">
        <ele>1331</ele>
        <time>2021-08-07T10:12:59.365Z</time>
      </trkpt>
      <trkpt lat="46.91581" lon="8.65381">
        <ele>1331</ele>
        <time>2021-08-07T10:13:00.366Z</time>
      </trkpt>
      <trkpt lat="46.91581" lon="8.6538">
        <ele>1330</ele>
        <time>2021-08-07T10:13:01.365Z</time>
      </trkpt>
      <trkpt lat="46.91582" lon="8.65379">
        <ele>1329</ele>
        <time>2021-08-07T10:13:02.366Z</time>
      </trkpt>
      <trkpt lat="46.91583" lon="8.65378">
        <ele>1328</ele>
        <time>2021-08-07T10:13:03.366Z</time>
      </trkpt>
      <trkpt lat="46.91583" lon="8.65377">
        <ele>1327</ele>
        <time>2021-08-07T10:13:04.366Z</time>
      </trkpt>
      <trkpt lat="46.91584" lon="8.65376">
        <ele>1326</ele>
        <time>2021-08-07T10:13:05.366Z</time>
      </trkpt>
      <trkpt lat="46.91585" lon="8.65376">
        <ele>1325</ele>
        <time>2021-08-07T10:13:06.366Z</time>
      </trkpt>
      <trkpt lat="46.91585" lon="8.65376">
        <ele>1325</ele>
        <time>2021-08-07T10:13:07.366Z</time>
      </trkpt>
      <trkpt lat="46.91586" lon="8.65376">
        <ele>1324</ele>
        <time>2021-08-07T10:13:08.366Z</time>
      </trkpt>
      <trkpt lat="46.91585" lon="8.65375">
        <ele>1323</ele>
        <time>2021-08-07T10:13:09.365Z</time>
      </trkpt>
      <trkpt lat="46.91585" lon="8.65374">
        <ele>1323</ele>
        <time>2021-08-07T10:13:10.366Z</time>
      </trkpt>
      <trkpt lat="46.91585" lon="8.65369">
        <ele>1321</ele>
        <time>2021-08-07T10:13:11.366Z</time>
      </trkpt>
      <trkpt lat="46.91585" lon="8.65369">
        <ele>1320</ele>
        <time>2021-08-07T10:13:12.365Z</time>
      </trkpt>
      <trkpt lat="46.91584" lon="8.65362">
        <ele>1304</ele>
        <time>2021-08-07T10:13:13.365Z</time>
      </trkpt>
      <trkpt lat="46.91583" lon="8.65362">
        <ele>1303</ele>
        <time>2021-08-07T10:13:14.365Z</time>
      </trkpt>
      <trkpt lat="46.91581" lon="8.65362">
        <ele>1307</ele>
        <time>2021-08-07T10:13:15.366Z</time>
      </trkpt>
      <trkpt lat="46.9158" lon="8.65361">
        <ele>1307</ele>
        <time>2021-08-07T10:13:16.365Z</time>
      </trkpt>
      <trkpt lat="46.9158" lon="8.65362">
        <ele>1307</ele>
        <time>2021-08-07T10:13:17.365Z</time>
      </trkpt>
      <trkpt lat="46.91581" lon="8.65362">
        <ele>1307</ele>
        <time>2021-08-07T10:13:18.366Z</time>
      </trkpt>
      <trkpt lat="46.91579" lon="8.65354">
        <ele>1326</ele>
        <time>2021-08-07T10:13:19.365Z</time>
      </trkpt>
      <trkpt lat="46.91579" lon="8.65354">
        <ele>1327</ele>
        <time>2021-08-07T10:13:20.365Z</time>
      </trkpt>
      <trkpt lat="46.91579" lon="8.65354">
        <ele>1328</ele>
        <time>2021-08-07T10:13:21.366Z</time>
      </trkpt>
      <trkpt lat="46.91579" lon="8.65351">
        <ele>1321</ele>
        <time>2021-08-07T10:13:22.366Z</time>
      </trkpt>
      <trkpt lat="46.91579" lon="8.65351">
        <ele>1320</ele>
        <time>2021-08-07T10:13:23.366Z</time>
      </trkpt>
      <trkpt lat="46.91581" lon="8.65351">
        <ele>1318</ele>
        <time>2021-08-07T10:13:24.365Z</time>
      </trkpt>
      <trkpt lat="46.91581" lon="8.65351">
        <ele>1318</ele>
        <time>2021-08-07T10:13:25.365Z</time>
      </trkpt>
      <trkpt lat="46.91582" lon="8.65351">
        <ele>1318</ele>
        <time>2021-08-07T10:13:26.365Z</time>
      </trkpt>
      <trkpt lat="46.91583" lon="8.65351">
        <ele>1318</ele>
        <time>2021-08-07T10:13:27.366Z</time>
      </trkpt>
      <trkpt lat="46.91584" lon="8.65351">
        <ele>1317</ele>
        <time>2021-08-07T10:13:28.366Z</time>
      </trkpt>
      <trkpt lat="46.91585" lon="8.65352">
        <ele>1317</ele>
        <time>2021-08-07T10:13:29.366Z</time>
      </trkpt>
      <trkpt lat="46.91586" lon="8.65353">
        <ele>1317</ele>
        <time>2021-08-07T10:13:30.365Z</time>
      </trkpt>
      <trkpt lat="46.91591" lon="8.65359">
        <ele>1318</ele>
        <time>2021-08-07T10:13:31.366Z</time>
      </trkpt>
      <trkpt lat="46.91591" lon="8.6536">
        <ele>1318</ele>
        <time>2021-08-07T10:13:32.366Z</time>
      </trkpt>
      <trkpt lat="46.91592" lon="8.65361">
        <ele>1317</ele>
        <time>2021-08-07T10:13:33.365Z</time>
      </trkpt>
      <trkpt lat="46.91593" lon="8.65362">
        <ele>1317</ele>
        <time>2021-08-07T10:13:34.365Z</time>
      </trkpt>
      <trkpt lat="46.91594" lon="8.65363">
        <ele>1317</ele>
        <time>2021-08-07T10:13:35.366Z</time>
      </trkpt>
      <trkpt lat="46.91595" lon="8.65364">
        <ele>1317</ele>
        <time>2021-08-07T10:13:36.365Z</time>
      </trkpt>
      <trkpt lat="46.91605" lon="8.65369">
        <ele>1316</ele>
        <time>2021-08-07T10:13:37.367Z</time>
      </trkpt>
      <trkpt lat="46.91606" lon="8.65368">
        <ele>1315</ele>
        <time>2021-08-07T10:13:38.367Z</time>
      </trkpt>
      <trkpt lat="46.91606" lon="8.65367">
        <ele>1315</ele>
        <time>2021-08-07T10:13:39.367Z</time>
      </trkpt>
      <trkpt lat="46.91607" lon="8.65367">
        <ele>1314</ele>
        <time>2021-08-07T10:13:40.367Z</time>
      </trkpt>
      <trkpt lat="46.91608" lon="8.65367">
        <ele>1313</ele>
        <time>2021-08-07T10:13:41.367Z</time>
      </trkpt>
      <trkpt lat="46.91608" lon="8.65367">
        <ele>1313</ele>
        <time>2021-08-07T10:13:42.367Z</time>
      </trkpt>
      <trkpt lat="46.91608" lon="8.6537">
        <ele>1311</ele>
        <time>2021-08-07T10:13:43.367Z</time>
      </trkpt>
      <trkpt lat="46.91608" lon="8.65371">
        <ele>1311</ele>
        <time>2021-08-07T10:13:44.368Z</time>
      </trkpt>
      <trkpt lat="46.91609" lon="8.65371">
        <ele>1310</ele>
        <time>2021-08-07T10:13:45.368Z</time>
      </trkpt>
      <trkpt lat="46.91609" lon="8.65371">
        <ele>1310</ele>
        <time>2021-08-07T10:13:46.367Z</time>
      </trkpt>
      <trkpt lat="46.91609" lon="8.65371">
        <ele>1310</ele>
        <time>2021-08-07T10:13:47.367Z</time>
      </trkpt>
      <trkpt lat="46.91609" lon="8.6537">
        <ele>1309</ele>
        <time>2021-08-07T10:13:48.368Z</time>
      </trkpt>
      <trkpt lat="46.91609" lon="8.65369">
        <ele>1309</ele>
        <time>2021-08-07T10:13:49.368Z</time>
      </trkpt>
      <trkpt lat="46.91608" lon="8.65367">
        <ele>1309</ele>
        <time>2021-08-07T10:13:50.368Z</time>
      </trkpt>
      <trkpt lat="46.91608" lon="8.65366">
        <ele>1309</ele>
        <time>2021-08-07T10:13:51.367Z</time>
      </trkpt>
      <trkpt lat="46.91608" lon="8.65365">
        <ele>1309</ele>
        <time>2021-08-07T10:13:52.367Z</time>
      </trkpt>
      <trkpt lat="46.91607" lon="8.65364">
        <ele>1309</ele>
        <time>2021-08-07T10:13:53.367Z</time>
      </trkpt>
      <trkpt lat="46.91607" lon="8.65362">
        <ele>1310</ele>
        <time>2021-08-07T10:13:54.368Z</time>
      </trkpt>
      <trkpt lat="46.91606" lon="8.65362">
        <ele>1310</ele>
        <time>2021-08-07T10:13:55.367Z</time>
      </trkpt>
      <trkpt lat="46.91605" lon="8.65361">
        <ele>1311</ele>
        <time>2021-08-07T10:13:56.367Z</time>
      </trkpt>
      <trkpt lat="46.91604" lon="8.6536">
        <ele>1310</ele>
        <time>2021-08-07T10:13:57.367Z</time>
      </trkpt>
      <trkpt lat="46.91604" lon="8.65358">
        <ele>1310</ele>
        <time>2021-08-07T10:13:58.367Z</time>
      </trkpt>
      <trkpt lat="46.91603" lon="8.65358">
        <ele>1310</ele>
        <time>2021-08-07T10:13:59.368Z</time>
      </trkpt>
      <trkpt lat="46.91603" lon="8.65358">
        <ele>1310</ele>
        <time>2021-08-07T10:14:00.367Z</time>
      </trkpt>
      <trkpt lat="46.91603" lon="8.65359">
        <ele>1310</ele>
        <time>2021-08-07T10:14:01.368Z</time>
      </trkpt>
      <trkpt lat="46.91604" lon="8.65361">
        <ele>1310</ele>
        <time>2021-08-07T10:14:02.369Z</time>
      </trkpt>
      <trkpt lat="46.91603" lon="8.65362">
        <ele>1310</ele>
        <time>2021-08-07T10:14:03.369Z</time>
      </trkpt>
      <trkpt lat="46.91603" lon="8.65362">
        <ele>1310</ele>
        <time>2021-08-07T10:14:04.368Z</time>
      </trkpt>
      <trkpt lat="46.91604" lon="8.65361">
        <ele>1309</ele>
        <time>2021-08-07T10:14:05.369Z</time>
      </trkpt>
      <trkpt lat="46.91604" lon="8.65361">
        <ele>1309</ele>
        <time>2021-08-07T10:14:06.369Z</time>
      </trkpt>
      <trkpt lat="46.91605" lon="8.65362">
        <ele>1309</ele>
        <time>2021-08-07T10:14:07.368Z</time>
      </trkpt>
      <trkpt lat="46.91606" lon="8.65362">
        <ele>1309</ele>
        <time>2021-08-07T10:14:08.368Z</time>
      </trkpt>
      <trkpt lat="46.91606" lon="8.65362">
        <ele>1309</ele>
        <time>2021-08-07T10:14:09.369Z</time>
      </trkpt>
      <trkpt lat="46.91606" lon="8.65362">
        <ele>1309</ele>
        <time>2021-08-07T10:14:10.369Z</time>
      </trkpt>
      <trkpt lat="46.91607" lon="8.65362">
        <ele>1308</ele>
        <time>2021-08-07T10:14:11.369Z</time>
      </trkpt>
      <trkpt lat="46.91607" lon="8.65362">
        <ele>1308</ele>
        <time>2021-08-07T10:14:12.369Z</time>
      </trkpt>
      <trkpt lat="46.91607" lon="8.65362">
        <ele>1308</ele>
        <time>2021-08-07T10:14:13.369Z</time>
      </trkpt>
      <trkpt lat="46.91608" lon="8.65363">
        <ele>1309</ele>
        <time>2021-08-07T10:14:14.369Z</time>
      </trkpt>
      <trkpt lat="46.91609" lon="8.65364">
        <ele>1309</ele>
        <time>2021-08-07T10:14:15.369Z</time>
      </trkpt>
      <trkpt lat="46.9161" lon="8.65363">
        <ele>1309</ele>
        <time>2021-08-07T10:14:16.369Z</time>
      </trkpt>
      <trkpt lat="46.9161" lon="8.65364">
        <ele>1309</ele>
        <time>2021-08-07T10:14:17.369Z</time>
      </trkpt>
      <trkpt lat="46.9161" lon="8.65364">
        <ele>1309</ele>
        <time>2021-08-07T10:14:18.369Z</time>
      </trkpt>
      <trkpt lat="46.9161" lon="8.65365">
        <ele>1309</ele>
        <time>2021-08-07T10:14:19.369Z</time>
      </trkpt>
      <trkpt lat="46.9161" lon="8.65365">
        <ele>1309</ele>
        <time>2021-08-07T10:14:20.369Z</time>
      </trkpt>
      <trkpt lat="46.9161" lon="8.65365">
        <ele>1308</ele>
        <time>2021-08-07T10:14:21.369Z</time>
      </trkpt>
      <trkpt lat="46.9161" lon="8.65366">
        <ele>1307</ele>
        <time>2021-08-07T10:14:22.370Z</time>
      </trkpt>
      <trkpt lat="46.9161" lon="8.65366">
        <ele>1307</ele>
        <time>2021-08-07T10:14:23.369Z</time>
      </trkpt>
      <trkpt lat="46.9161" lon="8.65367">
        <ele>1306</ele>
        <time>2021-08-07T10:14:24.369Z</time>
      </trkpt>
      <trkpt lat="46.9161" lon="8.65368">
        <ele>1306</ele>
        <time>2021-08-07T10:14:25.369Z</time>
      </trkpt>
      <trkpt lat="46.91611" lon="8.65368">
        <ele>1305</ele>
        <time>2021-08-07T10:14:26.369Z</time>
      </trkpt>
      <trkpt lat="46.91612" lon="8.65369">
        <ele>1305</ele>
        <time>2021-08-07T10:14:27.369Z</time>
      </trkpt>
      <trkpt lat="46.91613" lon="8.65371">
        <ele>1304</ele>
        <time>2021-08-07T10:14:28.370Z</time>
      </trkpt>
      <trkpt lat="46.91614" lon="8.65371">
        <ele>1304</ele>
        <time>2021-08-07T10:14:29.369Z</time>
      </trkpt>
      <trkpt lat="46.91614" lon="8.65372">
        <ele>1303</ele>
        <time>2021-08-07T10:14:30.369Z</time>
      </trkpt>
      <trkpt lat="46.91615" lon="8.65373">
        <ele>1303</ele>
        <time>2021-08-07T10:14:31.370Z</time>
      </trkpt>
      <trkpt lat="46.91617" lon="8.65373">
        <ele>1303</ele>
        <time>2021-08-07T10:14:34.459Z</time>
      </trkpt>
      <trkpt lat="46.91618" lon="8.65374">
        <ele>1302</ele>
        <time>2021-08-07T10:14:35.460Z</time>
      </trkpt>
      <trkpt lat="46.9162" lon="8.65374">
        <ele>1302</ele>
        <time>2021-08-07T10:14:36.459Z</time>
      </trkpt>
      <trkpt lat="46.9162" lon="8.65374">
        <ele>1302</ele>
        <time>2021-08-07T10:14:37.460Z</time>
      </trkpt>
      <trkpt lat="46.9162" lon="8.65374">
        <ele>1302</ele>
        <time>2021-08-07T10:14:38.460Z</time>
      </trkpt>
      <trkpt lat="46.91619" lon="8.65373">
        <ele>1301</ele>
        <time>2021-08-07T10:14:43.580Z</time>
      </trkpt>
      <trkpt lat="46.91617" lon="8.65374">
        <ele>1301</ele>
        <time>2021-08-07T10:14:44.581Z</time>
      </trkpt>
      <trkpt lat="46.91617" lon="8.65374">
        <ele>1301</ele>
        <time>2021-08-07T10:14:45.580Z</time>
      </trkpt>
      <trkpt lat="46.91617" lon="8.65374">
        <ele>1301</ele>
        <time>2021-08-07T10:14:46.580Z</time>
      </trkpt>
      <trkpt lat="46.91618" lon="8.65373">
        <ele>1301</ele>
        <time>2021-08-07T10:14:47.581Z</time>
      </trkpt>
      <trkpt lat="46.91619" lon="8.65373">
        <ele>1301</ele>
        <time>2021-08-07T10:14:48.580Z</time>
      </trkpt>
      <trkpt lat="46.91619" lon="8.65373">
        <ele>1300</ele>
        <time>2021-08-07T10:14:49.580Z</time>
      </trkpt>
      <trkpt lat="46.91618" lon="8.65374">
        <ele>1300</ele>
        <time>2021-08-07T10:14:50.580Z</time>
      </trkpt>
      <trkpt lat="46.91617" lon="8.65374">
        <ele>1300</ele>
        <time>2021-08-07T10:14:51.581Z</time>
      </trkpt>
      <trkpt lat="46.91617" lon="8.65374">
        <ele>1300</ele>
        <time>2021-08-07T10:14:52.581Z</time>
      </trkpt>
      <trkpt lat="46.91618" lon="8.65373">
        <ele>1300</ele>
        <time>2021-08-07T10:14:53.581Z</time>
      </trkpt>
      <trkpt lat="46.91621" lon="8.65372">
        <ele>1300</ele>
        <time>2021-08-07T10:14:54.580Z</time>
      </trkpt>
      <trkpt lat="46.91621" lon="8.65372">
        <ele>1300</ele>
        <time>2021-08-07T10:14:55.581Z</time>
      </trkpt>
      <trkpt lat="46.9162" lon="8.65374">
        <ele>1300</ele>
        <time>2021-08-07T10:14:56.580Z</time>
      </trkpt>
      <trkpt lat="46.91621" lon="8.65374">
        <ele>1300</ele>
        <time>2021-08-07T10:14:57.580Z</time>
      </trkpt>
      <trkpt lat="46.9162" lon="8.65373">
        <ele>1300</ele>
        <time>2021-08-07T10:14:58.580Z</time>
      </trkpt>
      <trkpt lat="46.91619" lon="8.65372">
        <ele>1300</ele>
        <time>2021-08-07T10:14:59.580Z</time>
      </trkpt>
      <trkpt lat="46.91619" lon="8.65372">
        <ele>1300</ele>
        <time>2021-08-07T10:15:00.581Z</time>
      </trkpt>
      <trkpt lat="46.91618" lon="8.65371">
        <ele>1300</ele>
        <time>2021-08-07T10:15:01.581Z</time>
      </trkpt>
      <trkpt lat="46.91618" lon="8.65371">
        <ele>1300</ele>
        <time>2021-08-07T10:15:02.580Z</time>
      </trkpt>
      <trkpt lat="46.91617" lon="8.65372">
        <ele>1300</ele>
        <time>2021-08-07T10:15:03.580Z</time>
      </trkpt>
      <trkpt lat="46.91616" lon="8.65374">
        <ele>1299</ele>
        <time>2021-08-07T10:15:04.581Z</time>
      </trkpt>
      <trkpt lat="46.91616" lon="8.65375">
        <ele>1299</ele>
        <time>2021-08-07T10:15:05.581Z</time>
      </trkpt>
      <trkpt lat="46.91616" lon="8.65377">
        <ele>1299</ele>
        <time>2021-08-07T10:15:06.581Z</time>
      </trkpt>
      <trkpt lat="46.91616" lon="8.65377">
        <ele>1298</ele>
        <time>2021-08-07T10:15:07.580Z</time>
      </trkpt>
      <trkpt lat="46.91615" lon="8.65378">
        <ele>1298</ele>
        <time>2021-08-07T10:15:08.580Z</time>
      </trkpt>
      <trkpt lat="46.91616" lon="8.65378">
        <ele>1298</ele>
        <time>2021-08-07T10:15:09.581Z</time>
      </trkpt>
      <trkpt lat="46.91616" lon="8.65377">
        <ele>1297</ele>
        <time>2021-08-07T10:15:10.582Z</time>
      </trkpt>
      <trkpt lat="46.91617" lon="8.65377">
        <ele>1297</ele>
        <time>2021-08-07T10:15:11.581Z</time>
      </trkpt>
      <trkpt lat="46.91616" lon="8.65377">
        <ele>1297</ele>
        <time>2021-08-07T10:15:12.582Z</time>
      </trkpt>
      <trkpt lat="46.91614" lon="8.65377">
        <ele>1297</ele>
        <time>2021-08-07T10:15:13.582Z</time>
      </trkpt>
      <trkpt lat="46.91613" lon="8.65377">
        <ele>1297</ele>
        <time>2021-08-07T10:15:14.581Z</time>
      </trkpt>
      <trkpt lat="46.91611" lon="8.65377">
        <ele>1297</ele>
        <time>2021-08-07T10:15:15.581Z</time>
      </trkpt>
      <trkpt lat="46.91611" lon="8.65376">
        <ele>1297</ele>
        <time>2021-08-07T10:15:16.582Z</time>
      </trkpt>
      <trkpt lat="46.9161" lon="8.65377">
        <ele>1297</ele>
        <time>2021-08-07T10:15:17.582Z</time>
      </trkpt>
      <trkpt lat="46.91611" lon="8.65376">
        <ele>1297</ele>
        <time>2021-08-07T10:15:18.582Z</time>
      </trkpt>
      <trkpt lat="46.91612" lon="8.65376">
        <ele>1298</ele>
        <time>2021-08-07T10:15:19.582Z</time>
      </trkpt>
      <trkpt lat="46.91612" lon="8.65376">
        <ele>1298</ele>
        <time>2021-08-07T10:15:20.582Z</time>
      </trkpt>
      <trkpt lat="46.91613" lon="8.65376">
        <ele>1299</ele>
        <time>2021-08-07T10:15:21.581Z</time>
      </trkpt>
      <trkpt lat="46.91613" lon="8.65377">
        <ele>1299</ele>
        <time>2021-08-07T10:15:22.581Z</time>
      </trkpt>
      <trkpt lat="46.91614" lon="8.65377">
        <ele>1299</ele>
        <time>2021-08-07T10:15:23.582Z</time>
      </trkpt>
      <trkpt lat="46.91616" lon="8.65379">
        <ele>1300</ele>
        <time>2021-08-07T10:15:24.582Z</time>
      </trkpt>
      <trkpt lat="46.91618" lon="8.65379">
        <ele>1300</ele>
        <time>2021-08-07T10:15:25.582Z</time>
      </trkpt>
      <trkpt lat="46.91618" lon="8.65379">
        <ele>1301</ele>
        <time>2021-08-07T10:15:26.581Z</time>
      </trkpt>
      <trkpt lat="46.91618" lon="8.65379">
        <ele>1301</ele>
        <time>2021-08-07T10:15:27.581Z</time>
      </trkpt>
      <trkpt lat="46.91618" lon="8.6538">
        <ele>1301</ele>
        <time>2021-08-07T10:15:28.582Z</time>
      </trkpt>
      <trkpt lat="46.91619" lon="8.65382">
        <ele>1301</ele>
        <time>2021-08-07T10:15:29.582Z</time>
      </trkpt>
      <trkpt lat="46.91618" lon="8.65382">
        <ele>1301</ele>
        <time>2021-08-07T10:15:30.582Z</time>
      </trkpt>
      <trkpt lat="46.91617" lon="8.65383">
        <ele>1301</ele>
        <time>2021-08-07T10:15:31.582Z</time>
      </trkpt>
      <trkpt lat="46.91617" lon="8.65386">
        <ele>1301</ele>
        <time>2021-08-07T10:15:32.581Z</time>
      </trkpt>
      <trkpt lat="46.91616" lon="8.65388">
        <ele>1301</ele>
        <time>2021-08-07T10:15:33.582Z</time>
      </trkpt>
      <trkpt lat="46.91614" lon="8.6539">
        <ele>1301</ele>
        <time>2021-08-07T10:15:34.582Z</time>
      </trkpt>
      <trkpt lat="46.91614" lon="8.65392">
        <ele>1301</ele>
        <time>2021-08-07T10:15:35.582Z</time>
      </trkpt>
      <trkpt lat="46.91615" lon="8.65394">
        <ele>1302</ele>
        <time>2021-08-07T10:15:36.582Z</time>
      </trkpt>
      <trkpt lat="46.91614" lon="8.65394">
        <ele>1302</ele>
        <time>2021-08-07T10:15:37.581Z</time>
      </trkpt>
      <trkpt lat="46.91615" lon="8.65395">
        <ele>1302</ele>
        <time>2021-08-07T10:15:38.582Z</time>
      </trkpt>
      <trkpt lat="46.91615" lon="8.65396">
        <ele>1302</ele>
        <time>2021-08-07T10:15:39.581Z</time>
      </trkpt>
      <trkpt lat="46.91617" lon="8.65396">
        <ele>1302</ele>
        <time>2021-08-07T10:15:40.582Z</time>
      </trkpt>
      <trkpt lat="46.91619" lon="8.65396">
        <ele>1302</ele>
        <time>2021-08-07T10:15:41.582Z</time>
      </trkpt>
      <trkpt lat="46.91621" lon="8.65396">
        <ele>1303</ele>
        <time>2021-08-07T10:15:42.581Z</time>
      </trkpt>
      <trkpt lat="46.91622" lon="8.65396">
        <ele>1303</ele>
        <time>2021-08-07T10:15:43.582Z</time>
      </trkpt>
      <trkpt lat="46.91624" lon="8.65395">
        <ele>1303</ele>
        <time>2021-08-07T10:15:44.582Z</time>
      </trkpt>
      <trkpt lat="46.91624" lon="8.65394">
        <ele>1303</ele>
        <time>2021-08-07T10:15:45.582Z</time>
      </trkpt>
      <trkpt lat="46.91626" lon="8.65394">
        <ele>1303</ele>
        <time>2021-08-07T10:15:46.582Z</time>
      </trkpt>
      <trkpt lat="46.91626" lon="8.65397">
        <ele>1303</ele>
        <time>2021-08-07T10:15:47.582Z</time>
      </trkpt>
      <trkpt lat="46.91625" lon="8.654">
        <ele>1303</ele>
        <time>2021-08-07T10:15:48.582Z</time>
      </trkpt>
      <trkpt lat="46.91626" lon="8.65401">
        <ele>1303</ele>
        <time>2021-08-07T10:15:49.582Z</time>
      </trkpt>
      <trkpt lat="46.91626" lon="8.65401">
        <ele>1303</ele>
        <time>2021-08-07T10:15:50.582Z</time>
      </trkpt>
      <trkpt lat="46.91627" lon="8.654">
        <ele>1303</ele>
        <time>2021-08-07T10:15:51.582Z</time>
      </trkpt>
      <trkpt lat="46.91627" lon="8.65399">
        <ele>1303</ele>
        <time>2021-08-07T10:15:52.582Z</time>
      </trkpt>
      <trkpt lat="46.91627" lon="8.65398">
        <ele>1303</ele>
        <time>2021-08-07T10:15:53.582Z</time>
      </trkpt>
      <trkpt lat="46.91628" lon="8.65398">
        <ele>1303</ele>
        <time>2021-08-07T10:15:54.582Z</time>
      </trkpt>
      <trkpt lat="46.91629" lon="8.65397">
        <ele>1303</ele>
        <time>2021-08-07T10:15:55.581Z</time>
      </trkpt>
      <trkpt lat="46.9163" lon="8.65398">
        <ele>1303</ele>
        <time>2021-08-07T10:15:56.581Z</time>
      </trkpt>
      <trkpt lat="46.9163" lon="8.65397">
        <ele>1303</ele>
        <time>2021-08-07T10:15:57.581Z</time>
      </trkpt>
      <trkpt lat="46.91631" lon="8.65396">
        <ele>1303</ele>
        <time>2021-08-07T10:15:58.582Z</time>
      </trkpt>
      <trkpt lat="46.91631" lon="8.65395">
        <ele>1303</ele>
        <time>2021-08-07T10:15:59.582Z</time>
      </trkpt>
      <trkpt lat="46.91633" lon="8.65393">
        <ele>1304</ele>
        <time>2021-08-07T10:16:00.581Z</time>
      </trkpt>
      <trkpt lat="46.91635" lon="8.65392">
        <ele>1304</ele>
        <time>2021-08-07T10:16:03.693Z</time>
      </trkpt>
      <trkpt lat="46.91635" lon="8.65393">
        <ele>1304</ele>
        <time>2021-08-07T10:16:04.693Z</time>
      </trkpt>
      <trkpt lat="46.91636" lon="8.65395">
        <ele>1304</ele>
        <time>2021-08-07T10:16:05.692Z</time>
      </trkpt>
      <trkpt lat="46.91637" lon="8.65398">
        <ele>1304</ele>
        <time>2021-08-07T10:16:06.693Z</time>
      </trkpt>
      <trkpt lat="46.91637" lon="8.65399">
        <ele>1304</ele>
        <time>2021-08-07T10:16:07.692Z</time>
      </trkpt>
      <trkpt lat="46.91637" lon="8.65401">
        <ele>1304</ele>
        <time>2021-08-07T10:16:08.692Z</time>
      </trkpt>
      <trkpt lat="46.91637" lon="8.65402">
        <ele>1304</ele>
        <time>2021-08-07T10:16:09.693Z</time>
      </trkpt>
      <trkpt lat="46.91637" lon="8.65402">
        <ele>1305</ele>
        <time>2021-08-07T10:16:10.692Z</time>
      </trkpt>
      <trkpt lat="46.91636" lon="8.65403">
        <ele>1306</ele>
        <time>2021-08-07T10:16:11.693Z</time>
      </trkpt>
      <trkpt lat="46.91636" lon="8.65403">
        <ele>1306</ele>
        <time>2021-08-07T10:16:12.693Z</time>
      </trkpt>
      <trkpt lat="46.91636" lon="8.65403">
        <ele>1306</ele>
        <time>2021-08-07T10:16:13.693Z</time>
      </trkpt>
      <trkpt lat="46.91636" lon="8.65404">
        <ele>1306</ele>
        <time>2021-08-07T10:16:14.696Z</time>
      </trkpt>
      <trkpt lat="46.91636" lon="8.65405">
        <ele>1306</ele>
        <time>2021-08-07T10:16:15.696Z</time>
      </trkpt>
      <trkpt lat="46.91636" lon="8.65406">
        <ele>1305</ele>
        <time>2021-08-07T10:16:16.695Z</time>
      </trkpt>
      <trkpt lat="46.91636" lon="8.65407">
        <ele>1305</ele>
        <time>2021-08-07T10:16:17.696Z</time>
      </trkpt>
      <trkpt lat="46.91637" lon="8.65408">
        <ele>1305</ele>
        <time>2021-08-07T10:16:18.695Z</time>
      </trkpt>
      <trkpt lat="46.91636" lon="8.65409">
        <ele>1305</ele>
        <time>2021-08-07T10:16:19.695Z</time>
      </trkpt>
      <trkpt lat="46.91636" lon="8.65409">
        <ele>1305</ele>
        <time>2021-08-07T10:16:20.696Z</time>
      </trkpt>
      <trkpt lat="46.91635" lon="8.6541">
        <ele>1304</ele>
        <time>2021-08-07T10:16:21.696Z</time>
      </trkpt>
      <trkpt lat="46.91634" lon="8.6541">
        <ele>1304</ele>
        <time>2021-08-07T10:16:22.695Z</time>
      </trkpt>
      <trkpt lat="46.91634" lon="8.65411">
        <ele>1304</ele>
        <time>2021-08-07T10:16:23.696Z</time>
      </trkpt>
      <trkpt lat="46.91634" lon="8.65412">
        <ele>1304</ele>
        <time>2021-08-07T10:16:24.696Z</time>
      </trkpt>
      <trkpt lat="46.91635" lon="8.65413">
        <ele>1303</ele>
        <time>2021-08-07T10:16:25.696Z</time>
      </trkpt>
      <trkpt lat="46.91636" lon="8.65414">
        <ele>1303</ele>
        <time>2021-08-07T10:16:26.695Z</time>
      </trkpt>
      <trkpt lat="46.91638" lon="8.65415">
        <ele>1303</ele>
        <time>2021-08-07T10:16:27.695Z</time>
      </trkpt>
      <trkpt lat="46.91639" lon="8.65415">
        <ele>1303</ele>
        <time>2021-08-07T10:16:28.695Z</time>
      </trkpt>
      <trkpt lat="46.9164" lon="8.65415">
        <ele>1303</ele>
        <time>2021-08-07T10:16:29.695Z</time>
      </trkpt>
      <trkpt lat="46.91641" lon="8.65415">
        <ele>1303</ele>
        <time>2021-08-07T10:16:30.696Z</time>
      </trkpt>
      <trkpt lat="46.9164" lon="8.65415">
        <ele>1303</ele>
        <time>2021-08-07T10:16:31.696Z</time>
      </trkpt>
      <trkpt lat="46.9164" lon="8.65416">
        <ele>1303</ele>
        <time>2021-08-07T10:16:32.696Z</time>
      </trkpt>
      <trkpt lat="46.9164" lon="8.65416">
        <ele>1303</ele>
        <time>2021-08-07T10:16:33.695Z</time>
      </trkpt>
      <trkpt lat="46.91639" lon="8.65416">
        <ele>1303</ele>
        <time>2021-08-07T10:16:34.696Z</time>
      </trkpt>
      <trkpt lat="46.91639" lon="8.65416">
        <ele>1304</ele>
        <time>2021-08-07T10:16:35.696Z</time>
      </trkpt>
      <trkpt lat="46.91639" lon="8.65416">
        <ele>1304</ele>
        <time>2021-08-07T10:16:36.696Z</time>
      </trkpt>
      <trkpt lat="46.9164" lon="8.65415">
        <ele>1304</ele>
        <time>2021-08-07T10:16:37.695Z</time>
      </trkpt>
      <trkpt lat="46.91641" lon="8.65415">
        <ele>1304</ele>
        <time>2021-08-07T10:16:38.696Z</time>
      </trkpt>
      <trkpt lat="46.91641" lon="8.65416">
        <ele>1304</ele>
        <time>2021-08-07T10:16:39.696Z</time>
      </trkpt>
      <trkpt lat="46.91641" lon="8.65416">
        <ele>1304</ele>
        <time>2021-08-07T10:16:40.695Z</time>
      </trkpt>
      <trkpt lat="46.91642" lon="8.65416">
        <ele>1304</ele>
        <time>2021-08-07T10:16:41.696Z</time>
      </trkpt>
      <trkpt lat="46.91642" lon="8.65416">
        <ele>1304</ele>
        <time>2021-08-07T10:16:42.695Z</time>
      </trkpt>
      <trkpt lat="46.91641" lon="8.65416">
        <ele>1305</ele>
        <time>2021-08-07T10:16:43.696Z</time>
      </trkpt>
      <trkpt lat="46.91643" lon="8.65416">
        <ele>1305</ele>
        <time>2021-08-07T10:16:44.695Z</time>
      </trkpt>
      <trkpt lat="46.91645" lon="8.65415">
        <ele>1305</ele>
        <time>2021-08-07T10:16:45.696Z</time>
      </trkpt>
      <trkpt lat="46.91648" lon="8.65416">
        <ele>1305</ele>
        <time>2021-08-07T10:16:46.696Z</time>
      </trkpt>
      <trkpt lat="46.9165" lon="8.65416">
        <ele>1306</ele>
        <time>2021-08-07T10:16:47.695Z</time>
      </trkpt>
      <trkpt lat="46.91651" lon="8.65416">
        <ele>1306</ele>
        <time>2021-08-07T10:16:48.696Z</time>
      </trkpt>
      <trkpt lat="46.91651" lon="8.65416">
        <ele>1307</ele>
        <time>2021-08-07T10:16:49.696Z</time>
      </trkpt>
      <trkpt lat="46.91651" lon="8.65416">
        <ele>1307</ele>
        <time>2021-08-07T10:16:50.695Z</time>
      </trkpt>
      <trkpt lat="46.9165" lon="8.65416">
        <ele>1307</ele>
        <time>2021-08-07T10:16:51.696Z</time>
      </trkpt>
      <trkpt lat="46.91651" lon="8.65417">
        <ele>1308</ele>
        <time>2021-08-07T10:16:55.722Z</time>
      </trkpt>
      <trkpt lat="46.91651" lon="8.65416">
        <ele>1308</ele>
        <time>2021-08-07T10:16:56.722Z</time>
      </trkpt>
      <trkpt lat="46.91651" lon="8.65416">
        <ele>1308</ele>
        <time>2021-08-07T10:16:57.722Z</time>
      </trkpt>
      <trkpt lat="46.91651" lon="8.65415">
        <ele>1308</ele>
        <time>2021-08-07T10:16:58.721Z</time>
      </trkpt>
      <trkpt lat="46.91651" lon="8.65415">
        <ele>1308</ele>
        <time>2021-08-07T10:17:11.846Z</time>
      </trkpt>
      <trkpt lat="46.91651" lon="8.65415">
        <ele>1308</ele>
        <time>2021-08-07T10:17:21.723Z</time>
      </trkpt>
      <trkpt lat="46.91651" lon="8.65415">
        <ele>1308</ele>
        <time>2021-08-07T10:17:22.723Z</time>
      </trkpt>
      <trkpt lat="46.91651" lon="8.65416">
        <ele>1308</ele>
        <time>2021-08-07T10:17:23.723Z</time>
      </trkpt>
      <trkpt lat="46.9165" lon="8.65417">
        <ele>1308</ele>
        <time>2021-08-07T10:17:33.582Z</time>
      </trkpt>
      <trkpt lat="46.9165" lon="8.65417">
        <ele>1308</ele>
        <time>2021-08-07T10:17:41.490Z</time>
      </trkpt>
      <trkpt lat="46.91649" lon="8.65418">
        <ele>1308</ele>
        <time>2021-08-07T10:17:42.491Z</time>
      </trkpt>
      <trkpt lat="46.91649" lon="8.65419">
        <ele>1309</ele>
        <time>2021-08-07T10:17:43.491Z</time>
      </trkpt>
      <trkpt lat="46.91649" lon="8.6542">
        <ele>1309</ele>
        <time>2021-08-07T10:17:44.491Z</time>
      </trkpt>
      <trkpt lat="46.91649" lon="8.6542">
        <ele>1309</ele>
        <time>2021-08-07T10:17:45.490Z</time>
      </trkpt>
      <trkpt lat="46.91649" lon="8.65421">
        <ele>1309</ele>
        <time>2021-08-07T10:17:46.491Z</time>
      </trkpt>
      <trkpt lat="46.9165" lon="8.65422">
        <ele>1309</ele>
        <time>2021-08-07T10:18:09.604Z</time>
      </trkpt>
      <trkpt lat="46.9165" lon="8.65422">
        <ele>1309</ele>
        <time>2021-08-07T10:18:10.604Z</time>
      </trkpt>
      <trkpt lat="46.9165" lon="8.65423">
        <ele>1309</ele>
        <time>2021-08-07T10:18:29.465Z</time>
      </trkpt>
      <trkpt lat="46.91651" lon="8.65424">
        <ele>1310</ele>
        <time>2021-08-07T10:18:30.466Z</time>
      </trkpt>
      <trkpt lat="46.91652" lon="8.65424">
        <ele>1310</ele>
        <time>2021-08-07T10:18:37.365Z</time>
      </trkpt>
      <trkpt lat="46.91654" lon="8.65424">
        <ele>1310</ele>
        <time>2021-08-07T10:18:38.366Z</time>
      </trkpt>
      <trkpt lat="46.91655" lon="8.65423">
        <ele>1310</ele>
        <time>2021-08-07T10:18:39.365Z</time>
      </trkpt>
      <trkpt lat="46.91655" lon="8.65424">
        <ele>1309</ele>
        <time>2021-08-07T10:18:45.492Z</time>
      </trkpt>
      <trkpt lat="46.91658" lon="8.65424">
        <ele>1304</ele>
        <time>2021-08-07T10:18:46.492Z</time>
      </trkpt>
      <trkpt lat="46.91658" lon="8.65424">
        <ele>1303</ele>
        <time>2021-08-07T10:19:08.331Z</time>
      </trkpt>
      <trkpt lat="46.91658" lon="8.65425">
        <ele>1302</ele>
        <time>2021-08-07T10:19:10.212Z</time>
      </trkpt>
      <trkpt lat="46.91658" lon="8.65425">
        <ele>1301</ele>
        <time>2021-08-07T10:19:11.213Z</time>
      </trkpt>
      <trkpt lat="46.91656" lon="8.65426">
        <ele>1300</ele>
        <time>2021-08-07T10:19:12.212Z</time>
      </trkpt>
      <trkpt lat="46.91655" lon="8.65426">
        <ele>1300</ele>
        <time>2021-08-07T10:19:13.212Z</time>
      </trkpt>
      <trkpt lat="46.91655" lon="8.65426">
        <ele>1299</ele>
        <time>2021-08-07T10:19:28.341Z</time>
      </trkpt>
      <trkpt lat="46.91655" lon="8.65426">
        <ele>1299</ele>
        <time>2021-08-07T10:19:29.341Z</time>
      </trkpt>
      <trkpt lat="46.91655" lon="8.65427">
        <ele>1298</ele>
        <time>2021-08-07T10:19:30.341Z</time>
      </trkpt>
      <trkpt lat="46.91656" lon="8.65428">
        <ele>1298</ele>
        <time>2021-08-07T10:19:31.341Z</time>
      </trkpt>
      <trkpt lat="46.91655" lon="8.65429">
        <ele>1297</ele>
        <time>2021-08-07T10:19:41.328Z</time>
      </trkpt>
      <trkpt lat="46.91655" lon="8.6543">
        <ele>1297</ele>
        <time>2021-08-07T10:19:42.328Z</time>
      </trkpt>
      <trkpt lat="46.91654" lon="8.65432">
        <ele>1297</ele>
        <time>2021-08-07T10:19:43.328Z</time>
      </trkpt>
      <trkpt lat="46.91654" lon="8.65432">
        <ele>1296</ele>
        <time>2021-08-07T10:19:44.328Z</time>
      </trkpt>
      <trkpt lat="46.91654" lon="8.65432">
        <ele>1296</ele>
        <time>2021-08-07T10:19:45.328Z</time>
      </trkpt>
      <trkpt lat="46.91655" lon="8.65431">
        <ele>1296</ele>
        <time>2021-08-07T10:19:46.329Z</time>
      </trkpt>
      <trkpt lat="46.91655" lon="8.6543">
        <ele>1296</ele>
        <time>2021-08-07T10:19:47.328Z</time>
      </trkpt>
      <trkpt lat="46.91656" lon="8.6543">
        <ele>1296</ele>
        <time>2021-08-07T10:19:48.328Z</time>
      </trkpt>
      <trkpt lat="46.91657" lon="8.65431">
        <ele>1296</ele>
        <time>2021-08-07T10:20:07.460Z</time>
      </trkpt>
      <trkpt lat="46.91657" lon="8.65432">
        <ele>1296</ele>
        <time>2021-08-07T10:20:08.460Z</time>
      </trkpt>
      <trkpt lat="46.91658" lon="8.65432">
        <ele>1296</ele>
        <time>2021-08-07T10:20:10.323Z</time>
      </trkpt>
      <trkpt lat="46.91658" lon="8.65433">
        <ele>1296</ele>
        <time>2021-08-07T10:20:11.323Z</time>
      </trkpt>
      <trkpt lat="46.91658" lon="8.65433">
        <ele>1296</ele>
        <time>2021-08-07T10:20:12.324Z</time>
      </trkpt>
      <trkpt lat="46.91658" lon="8.65433">
        <ele>1296</ele>
        <time>2021-08-07T10:20:13.324Z</time>
      </trkpt>
      <trkpt lat="46.91659" lon="8.65433">
        <ele>1296</ele>
        <time>2021-08-07T10:20:21.457Z</time>
      </trkpt>
      <trkpt lat="46.91658" lon="8.65434">
        <ele>1295</ele>
        <time>2021-08-07T10:20:22.457Z</time>
      </trkpt>
      <trkpt lat="46.91658" lon="8.65436">
        <ele>1295</ele>
        <time>2021-08-07T10:20:23.457Z</time>
      </trkpt>
      <trkpt lat="46.91658" lon="8.65437">
        <ele>1295</ele>
        <time>2021-08-07T10:20:24.457Z</time>
      </trkpt>
      <trkpt lat="46.91658" lon="8.65437">
        <ele>1295</ele>
        <time>2021-08-07T10:20:25.457Z</time>
      </trkpt>
      <trkpt lat="46.91658" lon="8.65438">
        <ele>1294</ele>
        <time>2021-08-07T10:20:26.457Z</time>
      </trkpt>
      <trkpt lat="46.91658" lon="8.65439">
        <ele>1294</ele>
        <time>2021-08-07T10:20:27.457Z</time>
      </trkpt>
      <trkpt lat="46.91658" lon="8.65439">
        <ele>1294</ele>
        <time>2021-08-07T10:20:53.590Z</time>
      </trkpt>
      <trkpt lat="46.91658" lon="8.6544">
        <ele>1293</ele>
        <time>2021-08-07T10:20:54.590Z</time>
      </trkpt>
      <trkpt lat="46.91657" lon="8.6544">
        <ele>1293</ele>
        <time>2021-08-07T10:21:00.486Z</time>
      </trkpt>
      <trkpt lat="46.91657" lon="8.6544">
        <ele>1292</ele>
        <time>2021-08-07T10:21:01.486Z</time>
      </trkpt>
      <trkpt lat="46.91657" lon="8.65441">
        <ele>1292</ele>
        <time>2021-08-07T10:21:02.486Z</time>
      </trkpt>
      <trkpt lat="46.91658" lon="8.65442">
        <ele>1291</ele>
        <time>2021-08-07T10:21:03.486Z</time>
      </trkpt>
      <trkpt lat="46.91658" lon="8.65443">
        <ele>1291</ele>
        <time>2021-08-07T10:21:04.486Z</time>
      </trkpt>
      <trkpt lat="46.91659" lon="8.65444">
        <ele>1290</ele>
        <time>2021-08-07T10:21:05.486Z</time>
      </trkpt>
      <trkpt lat="46.9166" lon="8.65444">
        <ele>1290</ele>
        <time>2021-08-07T10:21:06.486Z</time>
      </trkpt>
      <trkpt lat="46.91662" lon="8.65444">
        <ele>1289</ele>
        <time>2021-08-07T10:21:24.611Z</time>
      </trkpt>
      <trkpt lat="46.91664" lon="8.65445">
        <ele>1289</ele>
        <time>2021-08-07T10:21:42.465Z</time>
      </trkpt>
      <trkpt lat="46.91666" lon="8.65445">
        <ele>1288</ele>
        <time>2021-08-07T10:21:43.465Z</time>
      </trkpt>
      <trkpt lat="46.91667" lon="8.65445">
        <ele>1288</ele>
        <time>2021-08-07T10:22:05.323Z</time>
      </trkpt>
      <trkpt lat="46.91667" lon="8.65446">
        <ele>1287</ele>
        <time>2021-08-07T10:22:06.323Z</time>
      </trkpt>
      <trkpt lat="46.91667" lon="8.65446">
        <ele>1287</ele>
        <time>2021-08-07T10:22:07.323Z</time>
      </trkpt>
      <trkpt lat="46.91668" lon="8.65446">
        <ele>1286</ele>
        <time>2021-08-07T10:22:08.323Z</time>
      </trkpt>
      <trkpt lat="46.91668" lon="8.65447">
        <ele>1286</ele>
        <time>2021-08-07T10:22:09.323Z</time>
      </trkpt>
      <trkpt lat="46.91669" lon="8.65446">
        <ele>1286</ele>
        <time>2021-08-07T10:22:10.323Z</time>
      </trkpt>
      <trkpt lat="46.91669" lon="8.65446">
        <ele>1286</ele>
        <time>2021-08-07T10:22:11.323Z</time>
      </trkpt>
      <trkpt lat="46.91671" lon="8.65445">
        <ele>1286</ele>
        <time>2021-08-07T10:22:31.363Z</time>
      </trkpt>
      <trkpt lat="46.91671" lon="8.65445">
        <ele>1286</ele>
        <time>2021-08-07T10:22:32.363Z</time>
      </trkpt>
      <trkpt lat="46.91671" lon="8.65446">
        <ele>1286</ele>
        <time>2021-08-07T10:22:41.198Z</time>
      </trkpt>
      <trkpt lat="46.91672" lon="8.65446">
        <ele>1286</ele>
        <time>2021-08-07T10:22:48.008Z</time>
      </trkpt>
      <trkpt lat="46.91672" lon="8.65446">
        <ele>1286</ele>
        <time>2021-08-07T10:23:01.838Z</time>
      </trkpt>
      <trkpt lat="46.91673" lon="8.65446">
        <ele>1286</ele>
        <time>2021-08-07T10:23:02.838Z</time>
      </trkpt>
      <trkpt lat="46.91673" lon="8.65445">
        <ele>1285</ele>
        <time>2021-08-07T10:23:03.838Z</time>
      </trkpt>
      <trkpt lat="46.91672" lon="8.65445">
        <ele>1285</ele>
        <time>2021-08-07T10:23:28.734Z</time>
      </trkpt>
      <trkpt lat="46.91673" lon="8.65444">
        <ele>1285</ele>
        <time>2021-08-07T10:23:37.593Z</time>
      </trkpt>
      <trkpt lat="46.91673" lon="8.65444">
        <ele>1285</ele>
        <time>2021-08-07T10:23:38.593Z</time>
      </trkpt>
      <trkpt lat="46.91672" lon="8.65445">
        <ele>1284</ele>
        <time>2021-08-07T10:23:51.323Z</time>
      </trkpt>
      <trkpt lat="46.91672" lon="8.65445">
        <ele>1284</ele>
        <time>2021-08-07T10:23:52.322Z</time>
      </trkpt>
      <trkpt lat="46.91672" lon="8.65445">
        <ele>1284</ele>
        <time>2021-08-07T10:23:53.322Z</time>
      </trkpt>
      <trkpt lat="46.91673" lon="8.65444">
        <ele>1283</ele>
        <time>2021-08-07T10:23:54.323Z</time>
      </trkpt>
      <trkpt lat="46.91674" lon="8.65443">
        <ele>1283</ele>
        <time>2021-08-07T10:23:55.322Z</time>
      </trkpt>
      <trkpt lat="46.91674" lon="8.65443">
        <ele>1282</ele>
        <time>2021-08-07T10:23:56.323Z</time>
      </trkpt>
      <trkpt lat="46.91674" lon="8.65443">
        <ele>1282</ele>
        <time>2021-08-07T10:24:20.446Z</time>
      </trkpt>
      <trkpt lat="46.91673" lon="8.65442">
        <ele>1281</ele>
        <time>2021-08-07T10:24:21.446Z</time>
      </trkpt>
      <trkpt lat="46.91673" lon="8.65442">
        <ele>1280</ele>
        <time>2021-08-07T10:24:22.445Z</time>
      </trkpt>
      <trkpt lat="46.91674" lon="8.65442">
        <ele>1280</ele>
        <time>2021-08-07T10:24:37.598Z</time>
      </trkpt>
      <trkpt lat="46.91674" lon="8.65441">
        <ele>1279</ele>
        <time>2021-08-07T10:24:38.598Z</time>
      </trkpt>
      <trkpt lat="46.91675" lon="8.65441">
        <ele>1279</ele>
        <time>2021-08-07T10:24:39.598Z</time>
      </trkpt>
      <trkpt lat="46.91675" lon="8.6544">
        <ele>1278</ele>
        <time>2021-08-07T10:24:40.597Z</time>
      </trkpt>
      <trkpt lat="46.91674" lon="8.6544">
        <ele>1278</ele>
        <time>2021-08-07T10:24:41.598Z</time>
      </trkpt>
      <trkpt lat="46.91674" lon="8.65439">
        <ele>1277</ele>
        <time>2021-08-07T10:24:42.598Z</time>
      </trkpt>
      <trkpt lat="46.91673" lon="8.65439">
        <ele>1277</ele>
        <time>2021-08-07T10:24:43.597Z</time>
      </trkpt>
      <trkpt lat="46.91673" lon="8.65438">
        <ele>1277</ele>
        <time>2021-08-07T10:24:44.597Z</time>
      </trkpt>
      <trkpt lat="46.91673" lon="8.65438">
        <ele>1277</ele>
        <time>2021-08-07T10:24:45.597Z</time>
      </trkpt>
      <trkpt lat="46.91673" lon="8.65438">
        <ele>1277</ele>
        <time>2021-08-07T10:24:49.711Z</time>
      </trkpt>
      <trkpt lat="46.91674" lon="8.65438">
        <ele>1276</ele>
        <time>2021-08-07T10:24:50.712Z</time>
      </trkpt>
      <trkpt lat="46.91674" lon="8.65438">
        <ele>1276</ele>
        <time>2021-08-07T10:24:51.712Z</time>
      </trkpt>
      <trkpt lat="46.91674" lon="8.65438">
        <ele>1276</ele>
        <time>2021-08-07T10:24:52.712Z</time>
      </trkpt>
      <trkpt lat="46.91677" lon="8.65438">
        <ele>1276</ele>
        <time>2021-08-07T10:24:53.712Z</time>
      </trkpt>
      <trkpt lat="46.91678" lon="8.65438">
        <ele>1276</ele>
        <time>2021-08-07T10:24:54.712Z</time>
      </trkpt>
      <trkpt lat="46.91679" lon="8.65437">
        <ele>1276</ele>
        <time>2021-08-07T10:24:55.711Z</time>
      </trkpt>
      <trkpt lat="46.91681" lon="8.65436">
        <ele>1276</ele>
        <time>2021-08-07T10:24:56.712Z</time>
      </trkpt>
      <trkpt lat="46.91682" lon="8.65436">
        <ele>1276</ele>
        <time>2021-08-07T10:24:57.712Z</time>
      </trkpt>
      <trkpt lat="46.9168" lon="8.65435">
        <ele>1276</ele>
        <time>2021-08-07T10:24:58.711Z</time>
      </trkpt>
      <trkpt lat="46.91681" lon="8.65434">
        <ele>1276</ele>
        <time>2021-08-07T10:24:59.712Z</time>
      </trkpt>
      <trkpt lat="46.91681" lon="8.65434">
        <ele>1276</ele>
        <time>2021-08-07T10:25:00.711Z</time>
      </trkpt>
      <trkpt lat="46.9168" lon="8.65434">
        <ele>1277</ele>
        <time>2021-08-07T10:25:01.712Z</time>
      </trkpt>
      <trkpt lat="46.9168" lon="8.65434">
        <ele>1277</ele>
        <time>2021-08-07T10:25:02.711Z</time>
      </trkpt>
      <trkpt lat="46.91679" lon="8.65434">
        <ele>1277</ele>
        <time>2021-08-07T10:25:05.805Z</time>
      </trkpt>
      <trkpt lat="46.91679" lon="8.65435">
        <ele>1278</ele>
        <time>2021-08-07T10:25:06.804Z</time>
      </trkpt>
      <trkpt lat="46.91679" lon="8.65436">
        <ele>1278</ele>
        <time>2021-08-07T10:25:13.587Z</time>
      </trkpt>
      <trkpt lat="46.9168" lon="8.65437">
        <ele>1278</ele>
        <time>2021-08-07T10:25:14.586Z</time>
      </trkpt>
      <trkpt lat="46.91681" lon="8.65437">
        <ele>1279</ele>
        <time>2021-08-07T10:25:15.587Z</time>
      </trkpt>
      <trkpt lat="46.91683" lon="8.65438">
        <ele>1279</ele>
        <time>2021-08-07T10:25:29.732Z</time>
      </trkpt>
      <trkpt lat="46.91685" lon="8.65438">
        <ele>1279</ele>
        <time>2021-08-07T10:25:30.732Z</time>
      </trkpt>
      <trkpt lat="46.91686" lon="8.65438">
        <ele>1279</ele>
        <time>2021-08-07T10:26:16.588Z</time>
      </trkpt>
      <trkpt lat="46.91687" lon="8.65438">
        <ele>1279</ele>
        <time>2021-08-07T10:26:17.588Z</time>
      </trkpt>
      <trkpt lat="46.9169" lon="8.65437">
        <ele>1278</ele>
        <time>2021-08-07T10:26:18.587Z</time>
      </trkpt>
      <trkpt lat="46.91695" lon="8.65439">
        <ele>1278</ele>
        <time>2021-08-07T10:26:19.588Z</time>
      </trkpt>
      <trkpt lat="46.91698" lon="8.65439">
        <ele>1277</ele>
        <time>2021-08-07T10:26:49.694Z</time>
      </trkpt>
      <trkpt lat="46.917" lon="8.65438">
        <ele>1276</ele>
        <time>2021-08-07T10:26:50.693Z</time>
      </trkpt>
      <trkpt lat="46.91702" lon="8.65436">
        <ele>1276</ele>
        <time>2021-08-07T10:26:51.693Z</time>
      </trkpt>
      <trkpt lat="46.91703" lon="8.65435">
        <ele>1275</ele>
        <time>2021-08-07T10:28:02.826Z</time>
      </trkpt>
      <trkpt lat="46.91702" lon="8.65432">
        <ele>1274</ele>
        <time>2021-08-07T10:28:03.825Z</time>
      </trkpt>
      <trkpt lat="46.91701" lon="8.6543">
        <ele>1273</ele>
        <time>2021-08-07T10:28:05.695Z</time>
      </trkpt>
      <trkpt lat="46.91701" lon="8.65429">
        <ele>1273</ele>
        <time>2021-08-07T10:28:49.444Z</time>
      </trkpt>
      <trkpt lat="46.91701" lon="8.65429">
        <ele>1272</ele>
        <time>2021-08-07T10:28:50.444Z</time>
      </trkpt>
      <trkpt lat="46.91701" lon="8.6543">
        <ele>1272</ele>
        <time>2021-08-07T10:29:19.237Z</time>
      </trkpt>
      <trkpt lat="46.91701" lon="8.6543">
        <ele>1272</ele>
        <time>2021-08-07T10:29:20.236Z</time>
      </trkpt>
      <trkpt lat="46.91701" lon="8.65431">
        <ele>1271</ele>
        <time>2021-08-07T10:29:21.237Z</time>
      </trkpt>
      <trkpt lat="46.91701" lon="8.65432">
        <ele>1271</ele>
        <time>2021-08-07T10:30:26.336Z</time>
      </trkpt>
      <trkpt lat="46.917" lon="8.65432">
        <ele>1271</ele>
        <time>2021-08-07T10:30:27.336Z</time>
      </trkpt>
      <trkpt lat="46.91699" lon="8.65433">
        <ele>1271</ele>
        <time>2021-08-07T10:31:00.210Z</time>
      </trkpt>
      <trkpt lat="46.91696" lon="8.65433">
        <ele>1271</ele>
        <time>2021-08-07T10:31:01.211Z</time>
      </trkpt>
      <trkpt lat="46.91699" lon="8.65434">
        <ele>1270</ele>
        <time>2021-08-07T10:31:31.121Z</time>
      </trkpt>
      <trkpt lat="46.91695" lon="8.65434">
        <ele>1270</ele>
        <time>2021-08-07T10:31:59.964Z</time>
      </trkpt>
      <trkpt lat="46.91697" lon="8.65435">
        <ele>1270</ele>
        <time>2021-08-07T10:32:00.963Z</time>
      </trkpt>
      <trkpt lat="46.91698" lon="8.65435">
        <ele>1270</ele>
        <time>2021-08-07T10:32:03.833Z</time>
      </trkpt>
      <trkpt lat="46.91702" lon="8.65434">
        <ele>1271</ele>
        <time>2021-08-07T10:32:04.832Z</time>
      </trkpt>
      <trkpt lat="46.91706" lon="8.65433">
        <ele>1271</ele>
        <time>2021-08-07T10:32:05.832Z</time>
      </trkpt>
      <trkpt lat="46.91708" lon="8.65433">
        <ele>1271</ele>
        <time>2021-08-07T10:32:07.556Z</time>
      </trkpt>
      <trkpt lat="46.91709" lon="8.65432">
        <ele>1271</ele>
        <time>2021-08-07T10:32:08.555Z</time>
      </trkpt>
      <trkpt lat="46.91711" lon="8.65431">
        <ele>1271</ele>
        <time>2021-08-07T10:32:09.555Z</time>
      </trkpt>
      <trkpt lat="46.91712" lon="8.65431">
        <ele>1271</ele>
        <time>2021-08-07T10:32:52.609Z</time>
      </trkpt>
      <trkpt lat="46.91712" lon="8.65431">
        <ele>1271</ele>
        <time>2021-08-07T10:32:53.610Z</time>
      </trkpt>
      <trkpt lat="46.91713" lon="8.6543">
        <ele>1272</ele>
        <time>2021-08-07T10:35:01.508Z</time>
      </trkpt>
      <trkpt lat="46.91712" lon="8.6543">
        <ele>1272</ele>
        <time>2021-08-07T10:35:02.508Z</time>
      </trkpt>
      <trkpt lat="46.91714" lon="8.65429">
        <ele>1272</ele>
        <time>2021-08-07T10:35:30.374Z</time>
      </trkpt>
      <trkpt lat="46.91715" lon="8.65429">
        <ele>1272</ele>
        <time>2021-08-07T10:35:31.373Z</time>
      </trkpt>
      <trkpt lat="46.91715" lon="8.65429">
        <ele>1271</ele>
        <time>2021-08-07T10:35:32.373Z</time>
      </trkpt>
      <trkpt lat="46.91715" lon="8.65429">
        <ele>1271</ele>
        <time>2021-08-07T10:35:33.373Z</time>
      </trkpt>
      <trkpt lat="46.91716" lon="8.65429">
        <ele>1271</ele>
        <time>2021-08-07T10:35:34.373Z</time>
      </trkpt>
      <trkpt lat="46.91716" lon="8.65429">
        <ele>1270</ele>
        <time>2021-08-07T10:35:35.373Z</time>
      </trkpt>
      <trkpt lat="46.91716" lon="8.65429">
        <ele>1270</ele>
        <time>2021-08-07T10:35:36.373Z</time>
      </trkpt>
      <trkpt lat="46.91717" lon="8.6543">
        <ele>1270</ele>
        <time>2021-08-07T10:35:37.373Z</time>
      </trkpt>
      <trkpt lat="46.91716" lon="8.6543">
        <ele>1270</ele>
        <time>2021-08-07T10:35:38.373Z</time>
      </trkpt>
      <trkpt lat="46.91717" lon="8.6543">
        <ele>1270</ele>
        <time>2021-08-07T10:35:39.373Z</time>
      </trkpt>
      <trkpt lat="46.91716" lon="8.65429">
        <ele>1270</ele>
        <time>2021-08-07T10:35:40.373Z</time>
      </trkpt>
      <trkpt lat="46.91714" lon="8.65429">
        <ele>1270</ele>
        <time>2021-08-07T10:35:41.373Z</time>
      </trkpt>
      <trkpt lat="46.91713" lon="8.6543">
        <ele>1270</ele>
        <time>2021-08-07T10:35:42.373Z</time>
      </trkpt>
      <trkpt lat="46.91711" lon="8.6543">
        <ele>1270</ele>
        <time>2021-08-07T10:35:43.373Z</time>
      </trkpt>
      <trkpt lat="46.91712" lon="8.65432">
        <ele>1270</ele>
        <time>2021-08-07T10:35:44.373Z</time>
      </trkpt>
      <trkpt lat="46.9171" lon="8.65433">
        <ele>1270</ele>
        <time>2021-08-07T10:35:45.373Z</time>
      </trkpt>
      <trkpt lat="46.91713" lon="8.65432">
        <ele>1270</ele>
        <time>2021-08-07T10:35:46.373Z</time>
      </trkpt>
      <trkpt lat="46.91714" lon="8.6543">
        <ele>1270</ele>
        <time>2021-08-07T10:35:47.373Z</time>
      </trkpt>
      <trkpt lat="46.91714" lon="8.65428">
        <ele>1270</ele>
        <time>2021-08-07T10:35:48.373Z</time>
      </trkpt>
      <trkpt lat="46.91712" lon="8.65426">
        <ele>1270</ele>
        <time>2021-08-07T10:35:49.374Z</time>
      </trkpt>
      <trkpt lat="46.91712" lon="8.65424">
        <ele>1270</ele>
        <time>2021-08-07T10:35:50.373Z</time>
      </trkpt>
      <trkpt lat="46.9171" lon="8.65422">
        <ele>1270</ele>
        <time>2021-08-07T10:35:51.373Z</time>
      </trkpt>
      <trkpt lat="46.91709" lon="8.6542">
        <ele>1269</ele>
        <time>2021-08-07T10:35:52.374Z</time>
      </trkpt>
      <trkpt lat="46.91709" lon="8.65419">
        <ele>1269</ele>
        <time>2021-08-07T10:35:53.373Z</time>
      </trkpt>
      <trkpt lat="46.91709" lon="8.65419">
        <ele>1269</ele>
        <time>2021-08-07T10:35:54.373Z</time>
      </trkpt>
      <trkpt lat="46.91709" lon="8.65419">
        <ele>1268</ele>
        <time>2021-08-07T10:35:55.373Z</time>
      </trkpt>
      <trkpt lat="46.91709" lon="8.65419">
        <ele>1268</ele>
        <time>2021-08-07T10:35:56.373Z</time>
      </trkpt>
      <trkpt lat="46.91709" lon="8.6542">
        <ele>1267</ele>
        <time>2021-08-07T10:35:57.374Z</time>
      </trkpt>
      <trkpt lat="46.91708" lon="8.6542">
        <ele>1267</ele>
        <time>2021-08-07T10:35:58.374Z</time>
      </trkpt>
      <trkpt lat="46.91708" lon="8.6542">
        <ele>1267</ele>
        <time>2021-08-07T10:35:59.374Z</time>
      </trkpt>
      <trkpt lat="46.91708" lon="8.6542">
        <ele>1266</ele>
        <time>2021-08-07T10:36:00.373Z</time>
      </trkpt>
      <trkpt lat="46.91708" lon="8.65419">
        <ele>1266</ele>
        <time>2021-08-07T10:36:01.374Z</time>
      </trkpt>
      <trkpt lat="46.91708" lon="8.65417">
        <ele>1266</ele>
        <time>2021-08-07T10:36:02.373Z</time>
      </trkpt>
      <trkpt lat="46.91708" lon="8.65415">
        <ele>1266</ele>
        <time>2021-08-07T10:36:03.374Z</time>
      </trkpt>
      <trkpt lat="46.91707" lon="8.65414">
        <ele>1266</ele>
        <time>2021-08-07T10:36:04.374Z</time>
      </trkpt>
      <trkpt lat="46.91706" lon="8.65411">
        <ele>1266</ele>
        <time>2021-08-07T10:36:05.374Z</time>
      </trkpt>
      <trkpt lat="46.91705" lon="8.65409">
        <ele>1266</ele>
        <time>2021-08-07T10:36:06.374Z</time>
      </trkpt>
      <trkpt lat="46.91705" lon="8.65409">
        <ele>1266</ele>
        <time>2021-08-07T10:36:07.374Z</time>
      </trkpt>
      <trkpt lat="46.91704" lon="8.65407">
        <ele>1266</ele>
        <time>2021-08-07T10:36:08.374Z</time>
      </trkpt>
      <trkpt lat="46.91703" lon="8.65407">
        <ele>1266</ele>
        <time>2021-08-07T10:36:09.373Z</time>
      </trkpt>
      <trkpt lat="46.91703" lon="8.65407">
        <ele>1266</ele>
        <time>2021-08-07T10:36:10.374Z</time>
      </trkpt>
      <trkpt lat="46.91704" lon="8.65407">
        <ele>1267</ele>
        <time>2021-08-07T10:36:11.373Z</time>
      </trkpt>
      <trkpt lat="46.91704" lon="8.65407">
        <ele>1267</ele>
        <time>2021-08-07T10:36:12.374Z</time>
      </trkpt>
      <trkpt lat="46.91704" lon="8.65406">
        <ele>1267</ele>
        <time>2021-08-07T10:36:13.374Z</time>
      </trkpt>
      <trkpt lat="46.91704" lon="8.65404">
        <ele>1267</ele>
        <time>2021-08-07T10:36:14.374Z</time>
      </trkpt>
      <trkpt lat="46.91704" lon="8.65403">
        <ele>1268</ele>
        <time>2021-08-07T10:36:15.373Z</time>
      </trkpt>
      <trkpt lat="46.91704" lon="8.65402">
        <ele>1268</ele>
        <time>2021-08-07T10:36:16.374Z</time>
      </trkpt>
      <trkpt lat="46.91703" lon="8.654">
        <ele>1268</ele>
        <time>2021-08-07T10:36:17.374Z</time>
      </trkpt>
      <trkpt lat="46.91702" lon="8.65399">
        <ele>1269</ele>
        <time>2021-08-07T10:36:18.374Z</time>
      </trkpt>
      <trkpt lat="46.91702" lon="8.65398">
        <ele>1269</ele>
        <time>2021-08-07T10:36:19.374Z</time>
      </trkpt>
      <trkpt lat="46.91701" lon="8.65398">
        <ele>1269</ele>
        <time>2021-08-07T10:36:20.374Z</time>
      </trkpt>
      <trkpt lat="46.91701" lon="8.65396">
        <ele>1269</ele>
        <time>2021-08-07T10:36:33.470Z</time>
      </trkpt>
      <trkpt lat="46.91702" lon="8.65395">
        <ele>1269</ele>
        <time>2021-08-07T10:36:34.470Z</time>
      </trkpt>
      <trkpt lat="46.91703" lon="8.65394">
        <ele>1269</ele>
        <time>2021-08-07T10:36:35.470Z</time>
      </trkpt>
      <trkpt lat="46.91703" lon="8.65393">
        <ele>1270</ele>
        <time>2021-08-07T10:36:36.471Z</time>
      </trkpt>
      <trkpt lat="46.91704" lon="8.65393">
        <ele>1270</ele>
        <time>2021-08-07T10:36:37.471Z</time>
      </trkpt>
      <trkpt lat="46.91705" lon="8.65393">
        <ele>1270</ele>
        <time>2021-08-07T10:36:38.471Z</time>
      </trkpt>
      <trkpt lat="46.91706" lon="8.65393">
        <ele>1270</ele>
        <time>2021-08-07T10:36:39.470Z</time>
      </trkpt>
      <trkpt lat="46.91707" lon="8.65392">
        <ele>1271</ele>
        <time>2021-08-07T10:36:45.592Z</time>
      </trkpt>
      <trkpt lat="46.91709" lon="8.65392">
        <ele>1271</ele>
        <time>2021-08-07T10:36:46.592Z</time>
      </trkpt>
      <trkpt lat="46.91709" lon="8.65392">
        <ele>1271</ele>
        <time>2021-08-07T10:36:47.592Z</time>
      </trkpt>
      <trkpt lat="46.91708" lon="8.65392">
        <ele>1271</ele>
        <time>2021-08-07T10:37:19.692Z</time>
      </trkpt>
      <trkpt lat="46.91707" lon="8.65392">
        <ele>1271</ele>
        <time>2021-08-07T10:37:20.692Z</time>
      </trkpt>
      <trkpt lat="46.91706" lon="8.65393">
        <ele>1271</ele>
        <time>2021-08-07T10:37:21.691Z</time>
      </trkpt>
      <trkpt lat="46.91705" lon="8.65393">
        <ele>1270</ele>
        <time>2021-08-07T10:37:22.691Z</time>
      </trkpt>
      <trkpt lat="46.91705" lon="8.65392">
        <ele>1270</ele>
        <time>2021-08-07T10:37:23.692Z</time>
      </trkpt>
      <trkpt lat="46.91704" lon="8.65391">
        <ele>1270</ele>
        <time>2021-08-07T10:37:24.691Z</time>
      </trkpt>
      <trkpt lat="46.91704" lon="8.6539">
        <ele>1270</ele>
        <time>2021-08-07T10:37:25.691Z</time>
      </trkpt>
      <trkpt lat="46.91704" lon="8.65388">
        <ele>1269</ele>
        <time>2021-08-07T10:37:26.691Z</time>
      </trkpt>
      <trkpt lat="46.91704" lon="8.65385">
        <ele>1269</ele>
        <time>2021-08-07T10:37:27.692Z</time>
      </trkpt>
      <trkpt lat="46.91703" lon="8.65384">
        <ele>1269</ele>
        <time>2021-08-07T10:37:28.692Z</time>
      </trkpt>
      <trkpt lat="46.91703" lon="8.65382">
        <ele>1268</ele>
        <time>2021-08-07T10:38:45.711Z</time>
      </trkpt>
      <trkpt lat="46.91702" lon="8.65381">
        <ele>1268</ele>
        <time>2021-08-07T10:38:46.710Z</time>
      </trkpt>
      <trkpt lat="46.91702" lon="8.65382">
        <ele>1268</ele>
        <time>2021-08-07T10:38:56.462Z</time>
      </trkpt>
      <trkpt lat="46.91701" lon="8.65383">
        <ele>1268</ele>
        <time>2021-08-07T10:38:57.462Z</time>
      </trkpt>
      <trkpt lat="46.91701" lon="8.65384">
        <ele>1268</ele>
        <time>2021-08-07T10:39:08.206Z</time>
      </trkpt>
      <trkpt lat="46.917" lon="8.65384">
        <ele>1268</ele>
        <time>2021-08-07T10:39:09.205Z</time>
      </trkpt>
      <trkpt lat="46.91699" lon="8.65385">
        <ele>1268</ele>
        <time>2021-08-07T10:39:23.958Z</time>
      </trkpt>
      <trkpt lat="46.91698" lon="8.65385">
        <ele>1268</ele>
        <time>2021-08-07T10:39:24.958Z</time>
      </trkpt>
      <trkpt lat="46.91698" lon="8.65386">
        <ele>1268</ele>
        <time>2021-08-07T10:39:25.957Z</time>
      </trkpt>
      <trkpt lat="46.91698" lon="8.65387">
        <ele>1268</ele>
        <time>2021-08-07T10:39:33.063Z</time>
      </trkpt>
      <trkpt lat="46.91698" lon="8.65389">
        <ele>1267</ele>
        <time>2021-08-07T10:39:34.064Z</time>
      </trkpt>
      <trkpt lat="46.91698" lon="8.6539">
        <ele>1267</ele>
        <time>2021-08-07T10:39:35.063Z</time>
      </trkpt>
      <trkpt lat="46.91698" lon="8.65391">
        <ele>1267</ele>
        <time>2021-08-07T10:39:36.064Z</time>
      </trkpt>
      <trkpt lat="46.91698" lon="8.65392">
        <ele>1267</ele>
        <time>2021-08-07T10:39:37.064Z</time>
      </trkpt>
      <trkpt lat="46.91698" lon="8.65393">
        <ele>1266</ele>
        <time>2021-08-07T10:39:54.193Z</time>
      </trkpt>
      <trkpt lat="46.91697" lon="8.65392">
        <ele>1266</ele>
        <time>2021-08-07T10:39:55.193Z</time>
      </trkpt>
      <trkpt lat="46.91696" lon="8.65392">
        <ele>1266</ele>
        <time>2021-08-07T10:40:41.993Z</time>
      </trkpt>
      <trkpt lat="46.91694" lon="8.65392">
        <ele>1265</ele>
        <time>2021-08-07T10:40:42.992Z</time>
      </trkpt>
      <trkpt lat="46.91694" lon="8.65394">
        <ele>1265</ele>
        <time>2021-08-07T10:40:48.831Z</time>
      </trkpt>
      <trkpt lat="46.91693" lon="8.65395">
        <ele>1265</ele>
        <time>2021-08-07T10:40:49.831Z</time>
      </trkpt>
      <trkpt lat="46.91693" lon="8.65395">
        <ele>1265</ele>
        <time>2021-08-07T10:40:50.831Z</time>
      </trkpt>
      <trkpt lat="46.91693" lon="8.65395">
        <ele>1264</ele>
        <time>2021-08-07T10:40:51.831Z</time>
      </trkpt>
      <trkpt lat="46.91692" lon="8.65395">
        <ele>1264</ele>
        <time>2021-08-07T10:40:52.830Z</time>
      </trkpt>
      <trkpt lat="46.91692" lon="8.65397">
        <ele>1264</ele>
        <time>2021-08-07T10:40:53.830Z</time>
      </trkpt>
      <trkpt lat="46.91691" lon="8.65398">
        <ele>1263</ele>
        <time>2021-08-07T10:40:54.831Z</time>
      </trkpt>
      <trkpt lat="46.91691" lon="8.65397">
        <ele>1263</ele>
        <time>2021-08-07T10:40:55.831Z</time>
      </trkpt>
      <trkpt lat="46.9169" lon="8.65396">
        <ele>1263</ele>
        <time>2021-08-07T10:40:56.830Z</time>
      </trkpt>
      <trkpt lat="46.91689" lon="8.65396">
        <ele>1262</ele>
        <time>2021-08-07T10:40:57.830Z</time>
      </trkpt>
      <trkpt lat="46.91688" lon="8.65396">
        <ele>1262</ele>
        <time>2021-08-07T10:41:25.953Z</time>
      </trkpt>
      <trkpt lat="46.91687" lon="8.65396">
        <ele>1262</ele>
        <time>2021-08-07T10:41:26.953Z</time>
      </trkpt>
      <trkpt lat="46.91687" lon="8.65396">
        <ele>1261</ele>
        <time>2021-08-07T10:41:55.838Z</time>
      </trkpt>
      <trkpt lat="46.91686" lon="8.65397">
        <ele>1261</ele>
        <time>2021-08-07T10:41:56.837Z</time>
      </trkpt>
      <trkpt lat="46.91686" lon="8.65398">
        <ele>1261</ele>
        <time>2021-08-07T10:42:04.696Z</time>
      </trkpt>
      <trkpt lat="46.91686" lon="8.654">
        <ele>1260</ele>
        <time>2021-08-07T10:42:05.695Z</time>
      </trkpt>
      <trkpt lat="46.91687" lon="8.65402">
        <ele>1260</ele>
        <time>2021-08-07T10:42:06.696Z</time>
      </trkpt>
      <trkpt lat="46.91687" lon="8.65403">
        <ele>1260</ele>
        <time>2021-08-07T10:42:07.695Z</time>
      </trkpt>
      <trkpt lat="46.91687" lon="8.65404">
        <ele>1260</ele>
        <time>2021-08-07T10:42:18.713Z</time>
      </trkpt>
      <trkpt lat="46.91688" lon="8.65404">
        <ele>1260</ele>
        <time>2021-08-07T10:42:19.713Z</time>
      </trkpt>
      <trkpt lat="46.91688" lon="8.65404">
        <ele>1260</ele>
        <time>2021-08-07T10:42:20.714Z</time>
      </trkpt>
      <trkpt lat="46.91688" lon="8.65403">
        <ele>1259</ele>
        <time>2021-08-07T10:42:21.714Z</time>
      </trkpt>
      <trkpt lat="46.91689" lon="8.65403">
        <ele>1259</ele>
        <time>2021-08-07T10:42:22.713Z</time>
      </trkpt>
      <trkpt lat="46.9169" lon="8.65403">
        <ele>1259</ele>
        <time>2021-08-07T10:42:30.818Z</time>
      </trkpt>
      <trkpt lat="46.9169" lon="8.65403">
        <ele>1259</ele>
        <time>2021-08-07T10:42:31.819Z</time>
      </trkpt>
      <trkpt lat="46.9169" lon="8.65404">
        <ele>1259</ele>
        <time>2021-08-07T10:42:33.718Z</time>
      </trkpt>
      <trkpt lat="46.9169" lon="8.65404">
        <ele>1259</ele>
        <time>2021-08-07T10:42:34.718Z</time>
      </trkpt>
      <trkpt lat="46.9169" lon="8.65404">
        <ele>1259</ele>
        <time>2021-08-07T10:42:35.718Z</time>
      </trkpt>
      <trkpt lat="46.91691" lon="8.65404">
        <ele>1259</ele>
        <time>2021-08-07T10:42:39.850Z</time>
      </trkpt>
      <trkpt lat="46.91691" lon="8.65404">
        <ele>1260</ele>
        <time>2021-08-07T10:42:40.849Z</time>
      </trkpt>
      <trkpt lat="46.91691" lon="8.65405">
        <ele>1262</ele>
        <time>2021-08-07T10:42:41.850Z</time>
      </trkpt>
      <trkpt lat="46.91691" lon="8.65405">
        <ele>1262</ele>
        <time>2021-08-07T10:42:42.850Z</time>
      </trkpt>
      <trkpt lat="46.91691" lon="8.65405">
        <ele>1262</ele>
        <time>2021-08-07T10:42:43.850Z</time>
      </trkpt>
      <trkpt lat="46.91692" lon="8.65404">
        <ele>1262</ele>
        <time>2021-08-07T10:42:44.850Z</time>
      </trkpt>
      <trkpt lat="46.91692" lon="8.65404">
        <ele>1263</ele>
        <time>2021-08-07T10:42:45.850Z</time>
      </trkpt>
      <trkpt lat="46.91692" lon="8.65403">
        <ele>1263</ele>
        <time>2021-08-07T10:42:46.850Z</time>
      </trkpt>
      <trkpt lat="46.91691" lon="8.65403">
        <ele>1263</ele>
        <time>2021-08-07T10:42:47.850Z</time>
      </trkpt>
      <trkpt lat="46.91691" lon="8.65403">
        <ele>1264</ele>
        <time>2021-08-07T10:42:48.850Z</time>
      </trkpt>
      <trkpt lat="46.9169" lon="8.65403">
        <ele>1264</ele>
        <time>2021-08-07T10:42:49.850Z</time>
      </trkpt>
      <trkpt lat="46.91691" lon="8.65404">
        <ele>1263</ele>
        <time>2021-08-07T10:42:50.850Z</time>
      </trkpt>
      <trkpt lat="46.91689" lon="8.65404">
        <ele>1263</ele>
        <time>2021-08-07T10:42:51.850Z</time>
      </trkpt>
      <trkpt lat="46.91686" lon="8.65405">
        <ele>1262</ele>
        <time>2021-08-07T10:42:52.850Z</time>
      </trkpt>
      <trkpt lat="46.91684" lon="8.65404">
        <ele>1262</ele>
        <time>2021-08-07T10:42:53.851Z</time>
      </trkpt>
      <trkpt lat="46.91683" lon="8.65404">
        <ele>1262</ele>
        <time>2021-08-07T10:42:54.850Z</time>
      </trkpt>
      <trkpt lat="46.91684" lon="8.65404">
        <ele>1262</ele>
        <time>2021-08-07T10:42:55.851Z</time>
      </trkpt>
      <trkpt lat="46.91685" lon="8.65402">
        <ele>1261</ele>
        <time>2021-08-07T10:42:56.851Z</time>
      </trkpt>
      <trkpt lat="46.91686" lon="8.654">
        <ele>1261</ele>
        <time>2021-08-07T10:42:57.851Z</time>
      </trkpt>
      <trkpt lat="46.91687" lon="8.65401">
        <ele>1261</ele>
        <time>2021-08-07T10:42:58.851Z</time>
      </trkpt>
      <trkpt lat="46.91688" lon="8.65401">
        <ele>1261</ele>
        <time>2021-08-07T10:42:59.851Z</time>
      </trkpt>
      <trkpt lat="46.9169" lon="8.65401">
        <ele>1260</ele>
        <time>2021-08-07T10:43:00.850Z</time>
      </trkpt>
      <trkpt lat="46.91692" lon="8.65401">
        <ele>1260</ele>
        <time>2021-08-07T10:43:01.851Z</time>
      </trkpt>
      <trkpt lat="46.91693" lon="8.65401">
        <ele>1260</ele>
        <time>2021-08-07T10:43:02.850Z</time>
      </trkpt>
      <trkpt lat="46.91695" lon="8.65401">
        <ele>1260</ele>
        <time>2021-08-07T10:43:03.850Z</time>
      </trkpt>
      <trkpt lat="46.91695" lon="8.65401">
        <ele>1260</ele>
        <time>2021-08-07T10:43:04.851Z</time>
      </trkpt>
      <trkpt lat="46.91696" lon="8.65401">
        <ele>1260</ele>
        <time>2021-08-07T10:43:05.851Z</time>
      </trkpt>
      <trkpt lat="46.91696" lon="8.65401">
        <ele>1260</ele>
        <time>2021-08-07T10:43:06.850Z</time>
      </trkpt>
      <trkpt lat="46.91697" lon="8.65402">
        <ele>1260</ele>
        <time>2021-08-07T10:43:07.851Z</time>
      </trkpt>
      <trkpt lat="46.91697" lon="8.65403">
        <ele>1260</ele>
        <time>2021-08-07T10:43:08.851Z</time>
      </trkpt>
      <trkpt lat="46.91697" lon="8.65404">
        <ele>1260</ele>
        <time>2021-08-07T10:43:09.851Z</time>
      </trkpt>
      <trkpt lat="46.91699" lon="8.65404">
        <ele>1260</ele>
        <time>2021-08-07T10:43:10.850Z</time>
      </trkpt>
      <trkpt lat="46.91699" lon="8.65404">
        <ele>1260</ele>
        <time>2021-08-07T10:43:11.851Z</time>
      </trkpt>
      <trkpt lat="46.91699" lon="8.65402">
        <ele>1260</ele>
        <time>2021-08-07T10:43:12.851Z</time>
      </trkpt>
      <trkpt lat="46.917" lon="8.65402">
        <ele>1260</ele>
        <time>2021-08-07T10:43:13.850Z</time>
      </trkpt>
      <trkpt lat="46.91701" lon="8.65402">
        <ele>1261</ele>
        <time>2021-08-07T10:43:14.851Z</time>
      </trkpt>
      <trkpt lat="46.91701" lon="8.65402">
        <ele>1261</ele>
        <time>2021-08-07T10:43:15.850Z</time>
      </trkpt>
      <trkpt lat="46.91701" lon="8.65401">
        <ele>1261</ele>
        <time>2021-08-07T10:43:16.850Z</time>
      </trkpt>
      <trkpt lat="46.91702" lon="8.65401">
        <ele>1261</ele>
        <time>2021-08-07T10:43:17.851Z</time>
      </trkpt>
      <trkpt lat="46.91703" lon="8.654">
        <ele>1261</ele>
        <time>2021-08-07T10:43:18.851Z</time>
      </trkpt>
      <trkpt lat="46.91705" lon="8.65399">
        <ele>1261</ele>
        <time>2021-08-07T10:43:19.850Z</time>
      </trkpt>
      <trkpt lat="46.91705" lon="8.65399">
        <ele>1260</ele>
        <time>2021-08-07T10:43:20.850Z</time>
      </trkpt>
      <trkpt lat="46.91703" lon="8.65399">
        <ele>1260</ele>
        <time>2021-08-07T10:43:21.850Z</time>
      </trkpt>
      <trkpt lat="46.91703" lon="8.65399">
        <ele>1260</ele>
        <time>2021-08-07T10:43:22.851Z</time>
      </trkpt>
      <trkpt lat="46.91704" lon="8.65399">
        <ele>1260</ele>
        <time>2021-08-07T10:43:23.851Z</time>
      </trkpt>
      <trkpt lat="46.91706" lon="8.65398">
        <ele>1260</ele>
        <time>2021-08-07T10:43:24.851Z</time>
      </trkpt>
      <trkpt lat="46.91706" lon="8.65394">
        <ele>1259</ele>
        <time>2021-08-07T10:43:25.851Z</time>
      </trkpt>
      <trkpt lat="46.91706" lon="8.6539">
        <ele>1259</ele>
        <time>2021-08-07T10:43:26.850Z</time>
      </trkpt>
      <trkpt lat="46.91705" lon="8.65388">
        <ele>1259</ele>
        <time>2021-08-07T10:43:27.851Z</time>
      </trkpt>
      <trkpt lat="46.91702" lon="8.65384">
        <ele>1259</ele>
        <time>2021-08-07T10:43:28.851Z</time>
      </trkpt>
      <trkpt lat="46.917" lon="8.6538">
        <ele>1259</ele>
        <time>2021-08-07T10:43:29.850Z</time>
      </trkpt>
      <trkpt lat="46.91698" lon="8.65379">
        <ele>1259</ele>
        <time>2021-08-07T10:43:30.850Z</time>
      </trkpt>
      <trkpt lat="46.91698" lon="8.65378">
        <ele>1259</ele>
        <time>2021-08-07T10:43:31.851Z</time>
      </trkpt>
      <trkpt lat="46.91699" lon="8.65379">
        <ele>1259</ele>
        <time>2021-08-07T10:43:32.851Z</time>
      </trkpt>
      <trkpt lat="46.91699" lon="8.65378">
        <ele>1259</ele>
        <time>2021-08-07T10:43:33.851Z</time>
      </trkpt>
      <trkpt lat="46.917" lon="8.65378">
        <ele>1259</ele>
        <time>2021-08-07T10:43:34.851Z</time>
      </trkpt>
      <trkpt lat="46.91699" lon="8.6538">
        <ele>1260</ele>
        <time>2021-08-07T10:43:35.850Z</time>
      </trkpt>
      <trkpt lat="46.91699" lon="8.65379">
        <ele>1260</ele>
        <time>2021-08-07T10:43:36.850Z</time>
      </trkpt>
      <trkpt lat="46.91699" lon="8.65377">
        <ele>1260</ele>
        <time>2021-08-07T10:43:37.851Z</time>
      </trkpt>
      <trkpt lat="46.91699" lon="8.65377">
        <ele>1260</ele>
        <time>2021-08-07T10:43:38.850Z</time>
      </trkpt>
      <trkpt lat="46.91699" lon="8.65375">
        <ele>1260</ele>
        <time>2021-08-07T10:43:39.850Z</time>
      </trkpt>
      <trkpt lat="46.91699" lon="8.65374">
        <ele>1260</ele>
        <time>2021-08-07T10:43:40.850Z</time>
      </trkpt>
      <trkpt lat="46.91698" lon="8.65374">
        <ele>1260</ele>
        <time>2021-08-07T10:43:41.850Z</time>
      </trkpt>
      <trkpt lat="46.91696" lon="8.65374">
        <ele>1260</ele>
        <time>2021-08-07T10:43:42.850Z</time>
      </trkpt>
      <trkpt lat="46.91696" lon="8.65374">
        <ele>1260</ele>
        <time>2021-08-07T10:43:43.851Z</time>
      </trkpt>
      <trkpt lat="46.91695" lon="8.65375">
        <ele>1261</ele>
        <time>2021-08-07T10:43:44.850Z</time>
      </trkpt>
      <trkpt lat="46.91696" lon="8.65375">
        <ele>1261</ele>
        <time>2021-08-07T10:43:45.851Z</time>
      </trkpt>
      <trkpt lat="46.91696" lon="8.65376">
        <ele>1261</ele>
        <time>2021-08-07T10:43:46.850Z</time>
      </trkpt>
      <trkpt lat="46.91697" lon="8.65375">
        <ele>1261</ele>
        <time>2021-08-07T10:43:47.850Z</time>
      </trkpt>
      <trkpt lat="46.91698" lon="8.65373">
        <ele>1261</ele>
        <time>2021-08-07T10:43:48.850Z</time>
      </trkpt>
      <trkpt lat="46.917" lon="8.65372">
        <ele>1260</ele>
        <time>2021-08-07T10:43:49.850Z</time>
      </trkpt>
      <trkpt lat="46.91702" lon="8.65371">
        <ele>1260</ele>
        <time>2021-08-07T10:43:50.850Z</time>
      </trkpt>
      <trkpt lat="46.91704" lon="8.65371">
        <ele>1260</ele>
        <time>2021-08-07T10:43:51.850Z</time>
      </trkpt>
      <trkpt lat="46.91706" lon="8.65372">
        <ele>1260</ele>
        <time>2021-08-07T10:43:52.850Z</time>
      </trkpt>
      <trkpt lat="46.91707" lon="8.65372">
        <ele>1260</ele>
        <time>2021-08-07T10:43:53.850Z</time>
      </trkpt>
      <trkpt lat="46.91706" lon="8.65371">
        <ele>1260</ele>
        <time>2021-08-07T10:43:54.851Z</time>
      </trkpt>
      <trkpt lat="46.91705" lon="8.65369">
        <ele>1260</ele>
        <time>2021-08-07T10:43:55.851Z</time>
      </trkpt>
      <trkpt lat="46.91702" lon="8.6537">
        <ele>1260</ele>
        <time>2021-08-07T10:43:56.851Z</time>
      </trkpt>
      <trkpt lat="46.91699" lon="8.65371">
        <ele>1260</ele>
        <time>2021-08-07T10:43:57.850Z</time>
      </trkpt>
      <trkpt lat="46.91695" lon="8.6537">
        <ele>1260</ele>
        <time>2021-08-07T10:43:58.850Z</time>
      </trkpt>
      <trkpt lat="46.91692" lon="8.6537">
        <ele>1260</ele>
        <time>2021-08-07T10:43:59.850Z</time>
      </trkpt>
      <trkpt lat="46.91691" lon="8.65372">
        <ele>1260</ele>
        <time>2021-08-07T10:44:00.850Z</time>
      </trkpt>
      <trkpt lat="46.91691" lon="8.65373">
        <ele>1260</ele>
        <time>2021-08-07T10:44:01.851Z</time>
      </trkpt>
      <trkpt lat="46.91691" lon="8.65374">
        <ele>1261</ele>
        <time>2021-08-07T10:44:02.850Z</time>
      </trkpt>
      <trkpt lat="46.91692" lon="8.65375">
        <ele>1261</ele>
        <time>2021-08-07T10:44:03.851Z</time>
      </trkpt>
      <trkpt lat="46.91692" lon="8.65375">
        <ele>1261</ele>
        <time>2021-08-07T10:44:04.851Z</time>
      </trkpt>
      <trkpt lat="46.91692" lon="8.65377">
        <ele>1261</ele>
        <time>2021-08-07T10:44:05.851Z</time>
      </trkpt>
      <trkpt lat="46.91692" lon="8.65378">
        <ele>1261</ele>
        <time>2021-08-07T10:44:06.851Z</time>
      </trkpt>
      <trkpt lat="46.91692" lon="8.6538">
        <ele>1261</ele>
        <time>2021-08-07T10:44:07.850Z</time>
      </trkpt>
      <trkpt lat="46.91691" lon="8.65381">
        <ele>1261</ele>
        <time>2021-08-07T10:44:08.850Z</time>
      </trkpt>
      <trkpt lat="46.91692" lon="8.65381">
        <ele>1262</ele>
        <time>2021-08-07T10:44:09.851Z</time>
      </trkpt>
      <trkpt lat="46.91693" lon="8.65381">
        <ele>1262</ele>
        <time>2021-08-07T10:44:10.851Z</time>
      </trkpt>
      <trkpt lat="46.91698" lon="8.65378">
        <ele>1262</ele>
        <time>2021-08-07T10:44:11.851Z</time>
      </trkpt>
      <trkpt lat="46.91701" lon="8.65375">
        <ele>1262</ele>
        <time>2021-08-07T10:44:12.850Z</time>
      </trkpt>
      <trkpt lat="46.91703" lon="8.65373">
        <ele>1262</ele>
        <time>2021-08-07T10:44:13.851Z</time>
      </trkpt>
      <trkpt lat="46.91704" lon="8.65372">
        <ele>1262</ele>
        <time>2021-08-07T10:44:14.851Z</time>
      </trkpt>
      <trkpt lat="46.91707" lon="8.65378">
        <ele>1262</ele>
        <time>2021-08-07T10:44:15.851Z</time>
      </trkpt>
      <trkpt lat="46.91711" lon="8.65384">
        <ele>1262</ele>
        <time>2021-08-07T10:44:16.850Z</time>
      </trkpt>
      <trkpt lat="46.91716" lon="8.65394">
        <ele>1262</ele>
        <time>2021-08-07T10:44:17.850Z</time>
      </trkpt>
      <trkpt lat="46.91719" lon="8.65402">
        <ele>1263</ele>
        <time>2021-08-07T10:44:18.850Z</time>
      </trkpt>
      <trkpt lat="46.91722" lon="8.65408">
        <ele>1263</ele>
        <time>2021-08-07T10:44:19.851Z</time>
      </trkpt>
      <trkpt lat="46.91727" lon="8.65418">
        <ele>1263</ele>
        <time>2021-08-07T10:44:20.851Z</time>
      </trkpt>
      <trkpt lat="46.9173" lon="8.65425">
        <ele>1263</ele>
        <time>2021-08-07T10:44:21.851Z</time>
      </trkpt>
      <trkpt lat="46.91734" lon="8.65432">
        <ele>1262</ele>
        <time>2021-08-07T10:44:22.850Z</time>
      </trkpt>
      <trkpt lat="46.91731" lon="8.65432">
        <ele>1262</ele>
        <time>2021-08-07T10:44:23.850Z</time>
      </trkpt>
      <trkpt lat="46.91727" lon="8.6543">
        <ele>1262</ele>
        <time>2021-08-07T10:44:24.851Z</time>
      </trkpt>
      <trkpt lat="46.91724" lon="8.65428">
        <ele>1262</ele>
        <time>2021-08-07T10:44:25.851Z</time>
      </trkpt>
      <trkpt lat="46.9172" lon="8.65424">
        <ele>1262</ele>
        <time>2021-08-07T10:44:26.850Z</time>
      </trkpt>
      <trkpt lat="46.91717" lon="8.65422">
        <ele>1262</ele>
        <time>2021-08-07T10:44:27.850Z</time>
      </trkpt>
      <trkpt lat="46.91713" lon="8.65419">
        <ele>1262</ele>
        <time>2021-08-07T10:44:28.850Z</time>
      </trkpt>
      <trkpt lat="46.91712" lon="8.65416">
        <ele>1262</ele>
        <time>2021-08-07T10:44:29.850Z</time>
      </trkpt>
      <trkpt lat="46.91712" lon="8.65411">
        <ele>1262</ele>
        <time>2021-08-07T10:44:30.850Z</time>
      </trkpt>
      <trkpt lat="46.91715" lon="8.65407">
        <ele>1262</ele>
        <time>2021-08-07T10:44:31.850Z</time>
      </trkpt>
      <trkpt lat="46.91719" lon="8.65402">
        <ele>1263</ele>
        <time>2021-08-07T10:44:32.850Z</time>
      </trkpt>
      <trkpt lat="46.91721" lon="8.65398">
        <ele>1263</ele>
        <time>2021-08-07T10:44:33.850Z</time>
      </trkpt>
      <trkpt lat="46.91722" lon="8.65394">
        <ele>1263</ele>
        <time>2021-08-07T10:44:34.850Z</time>
      </trkpt>
      <trkpt lat="46.91725" lon="8.6539">
        <ele>1263</ele>
        <time>2021-08-07T10:44:35.851Z</time>
      </trkpt>
      <trkpt lat="46.91725" lon="8.65388">
        <ele>1263</ele>
        <time>2021-08-07T10:44:36.850Z</time>
      </trkpt>
      <trkpt lat="46.91726" lon="8.65385">
        <ele>1263</ele>
        <time>2021-08-07T10:44:37.850Z</time>
      </trkpt>
      <trkpt lat="46.91726" lon="8.65383">
        <ele>1263</ele>
        <time>2021-08-07T10:44:38.851Z</time>
      </trkpt>
      <trkpt lat="46.91727" lon="8.65381">
        <ele>1262</ele>
        <time>2021-08-07T10:44:39.850Z</time>
      </trkpt>
      <trkpt lat="46.91728" lon="8.6538">
        <ele>1262</ele>
        <time>2021-08-07T10:44:40.851Z</time>
      </trkpt>
      <trkpt lat="46.9173" lon="8.65379">
        <ele>1262</ele>
        <time>2021-08-07T10:44:41.851Z</time>
      </trkpt>
      <trkpt lat="46.91733" lon="8.65379">
        <ele>1262</ele>
        <time>2021-08-07T10:44:42.850Z</time>
      </trkpt>
      <trkpt lat="46.91735" lon="8.65378">
        <ele>1261</ele>
        <time>2021-08-07T10:44:43.851Z</time>
      </trkpt>
      <trkpt lat="46.91736" lon="8.65377">
        <ele>1261</ele>
        <time>2021-08-07T10:44:44.850Z</time>
      </trkpt>
      <trkpt lat="46.91738" lon="8.65376">
        <ele>1261</ele>
        <time>2021-08-07T10:44:45.850Z</time>
      </trkpt>
      <trkpt lat="46.91738" lon="8.65375">
        <ele>1260</ele>
        <time>2021-08-07T10:44:46.850Z</time>
      </trkpt>
      <trkpt lat="46.91737" lon="8.65374">
        <ele>1260</ele>
        <time>2021-08-07T10:44:47.851Z</time>
      </trkpt>
      <trkpt lat="46.91736" lon="8.65374">
        <ele>1260</ele>
        <time>2021-08-07T10:44:48.851Z</time>
      </trkpt>
      <trkpt lat="46.91734" lon="8.65374">
        <ele>1260</ele>
        <time>2021-08-07T10:44:49.850Z</time>
      </trkpt>
      <trkpt lat="46.91734" lon="8.65373">
        <ele>1260</ele>
        <time>2021-08-07T10:44:50.851Z</time>
      </trkpt>
      <trkpt lat="46.91733" lon="8.65373">
        <ele>1260</ele>
        <time>2021-08-07T10:44:51.851Z</time>
      </trkpt>
      <trkpt lat="46.91732" lon="8.65372">
        <ele>1259</ele>
        <time>2021-08-07T10:44:52.851Z</time>
      </trkpt>
      <trkpt lat="46.91732" lon="8.65371">
        <ele>1259</ele>
        <time>2021-08-07T10:44:53.850Z</time>
      </trkpt>
      <trkpt lat="46.91731" lon="8.6537">
        <ele>1258</ele>
        <time>2021-08-07T10:44:54.850Z</time>
      </trkpt>
      <trkpt lat="46.91731" lon="8.6537">
        <ele>1258</ele>
        <time>2021-08-07T10:44:55.850Z</time>
      </trkpt>
      <trkpt lat="46.91729" lon="8.6537">
        <ele>1257</ele>
        <time>2021-08-07T10:44:56.850Z</time>
      </trkpt>
      <trkpt lat="46.91729" lon="8.6537">
        <ele>1256</ele>
        <time>2021-08-07T10:44:57.850Z</time>
      </trkpt>
      <trkpt lat="46.91729" lon="8.6537">
        <ele>1255</ele>
        <time>2021-08-07T10:44:58.850Z</time>
      </trkpt>
      <trkpt lat="46.91729" lon="8.6537">
        <ele>1254</ele>
        <time>2021-08-07T10:44:59.850Z</time>
      </trkpt>
      <trkpt lat="46.91729" lon="8.65371">
        <ele>1254</ele>
        <time>2021-08-07T10:45:00.851Z</time>
      </trkpt>
      <trkpt lat="46.91729" lon="8.65372">
        <ele>1253</ele>
        <time>2021-08-07T10:45:01.850Z</time>
      </trkpt>
      <trkpt lat="46.9173" lon="8.65372">
        <ele>1252</ele>
        <time>2021-08-07T10:45:02.851Z</time>
      </trkpt>
      <trkpt lat="46.9173" lon="8.65373">
        <ele>1252</ele>
        <time>2021-08-07T10:45:03.850Z</time>
      </trkpt>
      <trkpt lat="46.91731" lon="8.65373">
        <ele>1251</ele>
        <time>2021-08-07T10:45:04.850Z</time>
      </trkpt>
      <trkpt lat="46.91732" lon="8.65373">
        <ele>1251</ele>
        <time>2021-08-07T10:45:05.850Z</time>
      </trkpt>
      <trkpt lat="46.91733" lon="8.65373">
        <ele>1250</ele>
        <time>2021-08-07T10:45:06.850Z</time>
      </trkpt>
      <trkpt lat="46.91735" lon="8.65372">
        <ele>1249</ele>
        <time>2021-08-07T10:45:07.850Z</time>
      </trkpt>
      <trkpt lat="46.91736" lon="8.65372">
        <ele>1249</ele>
        <time>2021-08-07T10:45:08.850Z</time>
      </trkpt>
      <trkpt lat="46.91737" lon="8.65372">
        <ele>1248</ele>
        <time>2021-08-07T10:45:09.850Z</time>
      </trkpt>
      <trkpt lat="46.91738" lon="8.65372">
        <ele>1248</ele>
        <time>2021-08-07T10:45:10.850Z</time>
      </trkpt>
      <trkpt lat="46.91739" lon="8.65372">
        <ele>1247</ele>
        <time>2021-08-07T10:45:11.851Z</time>
      </trkpt>
      <trkpt lat="46.9174" lon="8.65372">
        <ele>1247</ele>
        <time>2021-08-07T10:45:12.850Z</time>
      </trkpt>
      <trkpt lat="46.91741" lon="8.65371">
        <ele>1247</ele>
        <time>2021-08-07T10:45:13.850Z</time>
      </trkpt>
      <trkpt lat="46.91741" lon="8.65371">
        <ele>1246</ele>
        <time>2021-08-07T10:45:14.850Z</time>
      </trkpt>
      <trkpt lat="46.91742" lon="8.65371">
        <ele>1246</ele>
        <time>2021-08-07T10:45:15.850Z</time>
      </trkpt>
      <trkpt lat="46.91747" lon="8.65372">
        <ele>1246</ele>
        <time>2021-08-07T10:45:16.850Z</time>
      </trkpt>
      <trkpt lat="46.91752" lon="8.65372">
        <ele>1246</ele>
        <time>2021-08-07T10:45:17.850Z</time>
      </trkpt>
      <trkpt lat="46.91757" lon="8.65371">
        <ele>1245</ele>
        <time>2021-08-07T10:45:18.850Z</time>
      </trkpt>
      <trkpt lat="46.91762" lon="8.65371">
        <ele>1245</ele>
        <time>2021-08-07T10:45:19.850Z</time>
      </trkpt>
      <trkpt lat="46.91767" lon="8.65371">
        <ele>1245</ele>
        <time>2021-08-07T10:45:20.850Z</time>
      </trkpt>
      <trkpt lat="46.91771" lon="8.65371">
        <ele>1245</ele>
        <time>2021-08-07T10:45:21.850Z</time>
      </trkpt>
      <trkpt lat="46.91776" lon="8.65371">
        <ele>1245</ele>
        <time>2021-08-07T10:45:22.850Z</time>
      </trkpt>
      <trkpt lat="46.9178" lon="8.6537">
        <ele>1245</ele>
        <time>2021-08-07T10:45:23.850Z</time>
      </trkpt>
      <trkpt lat="46.91785" lon="8.6537">
        <ele>1244</ele>
        <time>2021-08-07T10:45:24.850Z</time>
      </trkpt>
      <trkpt lat="46.91787" lon="8.65369">
        <ele>1244</ele>
        <time>2021-08-07T10:45:25.850Z</time>
      </trkpt>
      <trkpt lat="46.91788" lon="8.65368">
        <ele>1244</ele>
        <time>2021-08-07T10:45:26.850Z</time>
      </trkpt>
      <trkpt lat="46.91785" lon="8.65368">
        <ele>1245</ele>
        <time>2021-08-07T10:45:27.850Z</time>
      </trkpt>
      <trkpt lat="46.91784" lon="8.65368">
        <ele>1245</ele>
        <time>2021-08-07T10:45:28.851Z</time>
      </trkpt>
      <trkpt lat="46.91782" lon="8.65368">
        <ele>1245</ele>
        <time>2021-08-07T10:45:29.850Z</time>
      </trkpt>
      <trkpt lat="46.9178" lon="8.65369">
        <ele>1245</ele>
        <time>2021-08-07T10:45:30.850Z</time>
      </trkpt>
      <trkpt lat="46.91776" lon="8.6537">
        <ele>1245</ele>
        <time>2021-08-07T10:45:31.850Z</time>
      </trkpt>
      <trkpt lat="46.91772" lon="8.6537">
        <ele>1246</ele>
        <time>2021-08-07T10:45:32.851Z</time>
      </trkpt>
      <trkpt lat="46.9177" lon="8.65369">
        <ele>1246</ele>
        <time>2021-08-07T10:45:33.851Z</time>
      </trkpt>
      <trkpt lat="46.91767" lon="8.65369">
        <ele>1246</ele>
        <time>2021-08-07T10:45:34.851Z</time>
      </trkpt>
      <trkpt lat="46.91765" lon="8.65369">
        <ele>1246</ele>
        <time>2021-08-07T10:45:35.851Z</time>
      </trkpt>
      <trkpt lat="46.91763" lon="8.65369">
        <ele>1246</ele>
        <time>2021-08-07T10:45:36.850Z</time>
      </trkpt>
      <trkpt lat="46.91759" lon="8.6537">
        <ele>1246</ele>
        <time>2021-08-07T10:45:37.850Z</time>
      </trkpt>
      <trkpt lat="46.91754" lon="8.6537">
        <ele>1247</ele>
        <time>2021-08-07T10:45:38.851Z</time>
      </trkpt>
      <trkpt lat="46.91753" lon="8.6537">
        <ele>1247</ele>
        <time>2021-08-07T10:45:49.960Z</time>
      </trkpt>
      <trkpt lat="46.91751" lon="8.6537">
        <ele>1247</ele>
        <time>2021-08-07T10:45:50.960Z</time>
      </trkpt>
      <trkpt lat="46.91749" lon="8.6537">
        <ele>1248</ele>
        <time>2021-08-07T10:45:51.961Z</time>
      </trkpt>
      <trkpt lat="46.91747" lon="8.6537">
        <ele>1248</ele>
        <time>2021-08-07T10:45:52.960Z</time>
      </trkpt>
      <trkpt lat="46.91745" lon="8.65371">
        <ele>1248</ele>
        <time>2021-08-07T10:46:02.074Z</time>
      </trkpt>
      <trkpt lat="46.91744" lon="8.65371">
        <ele>1248</ele>
        <time>2021-08-07T10:46:13.968Z</time>
      </trkpt>
      <trkpt lat="46.91744" lon="8.65371">
        <ele>1248</ele>
        <time>2021-08-07T10:46:14.968Z</time>
      </trkpt>
      <trkpt lat="46.91746" lon="8.65372">
        <ele>1247</ele>
        <time>2021-08-07T10:46:15.967Z</time>
      </trkpt>
      <trkpt lat="46.91747" lon="8.65372">
        <ele>1247</ele>
        <time>2021-08-07T10:46:16.967Z</time>
      </trkpt>
      <trkpt lat="46.91748" lon="8.65372">
        <ele>1247</ele>
        <time>2021-08-07T10:46:17.968Z</time>
      </trkpt>
      <trkpt lat="46.91748" lon="8.65372">
        <ele>1247</ele>
        <time>2021-08-07T10:46:18.967Z</time>
      </trkpt>
      <trkpt lat="46.91748" lon="8.65373">
        <ele>1246</ele>
        <time>2021-08-07T10:46:19.968Z</time>
      </trkpt>
      <trkpt lat="46.91748" lon="8.65374">
        <ele>1246</ele>
        <time>2021-08-07T10:46:20.967Z</time>
      </trkpt>
      <trkpt lat="46.9175" lon="8.65374">
        <ele>1246</ele>
        <time>2021-08-07T10:46:21.968Z</time>
      </trkpt>
      <trkpt lat="46.91748" lon="8.65374">
        <ele>1245</ele>
        <time>2021-08-07T10:46:22.968Z</time>
      </trkpt>
      <trkpt lat="46.91746" lon="8.65375">
        <ele>1245</ele>
        <time>2021-08-07T10:46:23.967Z</time>
      </trkpt>
      <trkpt lat="46.91745" lon="8.65376">
        <ele>1245</ele>
        <time>2021-08-07T10:46:24.967Z</time>
      </trkpt>
      <trkpt lat="46.91744" lon="8.65376">
        <ele>1245</ele>
        <time>2021-08-07T10:46:25.967Z</time>
      </trkpt>
      <trkpt lat="46.91743" lon="8.65376">
        <ele>1245</ele>
        <time>2021-08-07T10:46:26.967Z</time>
      </trkpt>
      <trkpt lat="46.91744" lon="8.65376">
        <ele>1244</ele>
        <time>2021-08-07T10:46:27.967Z</time>
      </trkpt>
      <trkpt lat="46.91743" lon="8.65376">
        <ele>1244</ele>
        <time>2021-08-07T10:46:28.968Z</time>
      </trkpt>
      <trkpt lat="46.91742" lon="8.65376">
        <ele>1244</ele>
        <time>2021-08-07T10:46:29.968Z</time>
      </trkpt>
      <trkpt lat="46.91742" lon="8.65378">
        <ele>1243</ele>
        <time>2021-08-07T10:46:30.967Z</time>
      </trkpt>
      <trkpt lat="46.91742" lon="8.65379">
        <ele>1243</ele>
        <time>2021-08-07T10:46:31.967Z</time>
      </trkpt>
      <trkpt lat="46.91742" lon="8.6538">
        <ele>1243</ele>
        <time>2021-08-07T10:46:32.967Z</time>
      </trkpt>
      <trkpt lat="46.91742" lon="8.65382">
        <ele>1242</ele>
        <time>2021-08-07T10:46:33.967Z</time>
      </trkpt>
      <trkpt lat="46.91742" lon="8.65382">
        <ele>1242</ele>
        <time>2021-08-07T10:46:34.967Z</time>
      </trkpt>
      <trkpt lat="46.91742" lon="8.65383">
        <ele>1241</ele>
        <time>2021-08-07T10:46:35.968Z</time>
      </trkpt>
      <trkpt lat="46.91742" lon="8.65383">
        <ele>1241</ele>
        <time>2021-08-07T10:46:36.968Z</time>
      </trkpt>
      <trkpt lat="46.91743" lon="8.65384">
        <ele>1241</ele>
        <time>2021-08-07T10:46:37.967Z</time>
      </trkpt>
      <trkpt lat="46.91744" lon="8.65384">
        <ele>1240</ele>
        <time>2021-08-07T10:46:38.968Z</time>
      </trkpt>
      <trkpt lat="46.91746" lon="8.65384">
        <ele>1240</ele>
        <time>2021-08-07T10:46:39.967Z</time>
      </trkpt>
      <trkpt lat="46.91747" lon="8.65384">
        <ele>1240</ele>
        <time>2021-08-07T10:46:40.968Z</time>
      </trkpt>
      <trkpt lat="46.91748" lon="8.65384">
        <ele>1240</ele>
        <time>2021-08-07T10:46:41.967Z</time>
      </trkpt>
      <trkpt lat="46.91748" lon="8.65384">
        <ele>1240</ele>
        <time>2021-08-07T10:46:42.967Z</time>
      </trkpt>
      <trkpt lat="46.91746" lon="8.65386">
        <ele>1239</ele>
        <time>2021-08-07T10:46:43.968Z</time>
      </trkpt>
      <trkpt lat="46.91744" lon="8.65387">
        <ele>1239</ele>
        <time>2021-08-07T10:46:44.968Z</time>
      </trkpt>
      <trkpt lat="46.91742" lon="8.65387">
        <ele>1239</ele>
        <time>2021-08-07T10:46:45.967Z</time>
      </trkpt>
      <trkpt lat="46.9174" lon="8.65387">
        <ele>1239</ele>
        <time>2021-08-07T10:46:46.967Z</time>
      </trkpt>
      <trkpt lat="46.91738" lon="8.65389">
        <ele>1238</ele>
        <time>2021-08-07T10:46:47.967Z</time>
      </trkpt>
      <trkpt lat="46.91737" lon="8.6539">
        <ele>1238</ele>
        <time>2021-08-07T10:46:48.968Z</time>
      </trkpt>
      <trkpt lat="46.91736" lon="8.65391">
        <ele>1238</ele>
        <time>2021-08-07T10:46:49.967Z</time>
      </trkpt>
      <trkpt lat="46.91734" lon="8.65392">
        <ele>1238</ele>
        <time>2021-08-07T10:46:55.100Z</time>
      </trkpt>
      <trkpt lat="46.91734" lon="8.65393">
        <ele>1238</ele>
        <time>2021-08-07T10:46:56.100Z</time>
      </trkpt>
      <trkpt lat="46.91734" lon="8.65394">
        <ele>1238</ele>
        <time>2021-08-07T10:46:57.099Z</time>
      </trkpt>
      <trkpt lat="46.91735" lon="8.65395">
        <ele>1237</ele>
        <time>2021-08-07T10:46:58.099Z</time>
      </trkpt>
      <trkpt lat="46.91735" lon="8.65396">
        <ele>1237</ele>
        <time>2021-08-07T10:46:59.099Z</time>
      </trkpt>
      <trkpt lat="46.91736" lon="8.65396">
        <ele>1237</ele>
        <time>2021-08-07T10:47:00.099Z</time>
      </trkpt>
      <trkpt lat="46.91738" lon="8.65396">
        <ele>1237</ele>
        <time>2021-08-07T10:47:01.100Z</time>
      </trkpt>
      <trkpt lat="46.9174" lon="8.65396">
        <ele>1237</ele>
        <time>2021-08-07T10:47:02.100Z</time>
      </trkpt>
      <trkpt lat="46.91742" lon="8.65397">
        <ele>1237</ele>
        <time>2021-08-07T10:47:03.099Z</time>
      </trkpt>
      <trkpt lat="46.91744" lon="8.65397">
        <ele>1236</ele>
        <time>2021-08-07T10:47:04.099Z</time>
      </trkpt>
      <trkpt lat="46.91746" lon="8.65398">
        <ele>1236</ele>
        <time>2021-08-07T10:47:05.099Z</time>
      </trkpt>
      <trkpt lat="46.91747" lon="8.65399">
        <ele>1236</ele>
        <time>2021-08-07T10:47:06.099Z</time>
      </trkpt>
      <trkpt lat="46.91749" lon="8.654">
        <ele>1236</ele>
        <time>2021-08-07T10:47:07.099Z</time>
      </trkpt>
      <trkpt lat="46.91752" lon="8.654">
        <ele>1236</ele>
        <time>2021-08-07T10:47:08.099Z</time>
      </trkpt>
      <trkpt lat="46.91754" lon="8.65399">
        <ele>1236</ele>
        <time>2021-08-07T10:47:09.100Z</time>
      </trkpt>
      <trkpt lat="46.91754" lon="8.65397">
        <ele>1236</ele>
        <time>2021-08-07T10:47:10.100Z</time>
      </trkpt>
      <trkpt lat="46.91754" lon="8.65395">
        <ele>1236</ele>
        <time>2021-08-07T10:47:11.099Z</time>
      </trkpt>
      <trkpt lat="46.91754" lon="8.65394">
        <ele>1236</ele>
        <time>2021-08-07T10:47:12.100Z</time>
      </trkpt>
      <trkpt lat="46.91755" lon="8.65392">
        <ele>1235</ele>
        <time>2021-08-07T10:47:13.100Z</time>
      </trkpt>
      <trkpt lat="46.91757" lon="8.65391">
        <ele>1235</ele>
        <time>2021-08-07T10:47:14.099Z</time>
      </trkpt>
      <trkpt lat="46.91758" lon="8.65391">
        <ele>1235</ele>
        <time>2021-08-07T10:47:15.099Z</time>
      </trkpt>
      <trkpt lat="46.9176" lon="8.65391">
        <ele>1235</ele>
        <time>2021-08-07T10:47:16.099Z</time>
      </trkpt>
      <trkpt lat="46.9176" lon="8.65392">
        <ele>1234</ele>
        <time>2021-08-07T10:47:17.099Z</time>
      </trkpt>
      <trkpt lat="46.9176" lon="8.65393">
        <ele>1234</ele>
        <time>2021-08-07T10:47:18.099Z</time>
      </trkpt>
      <trkpt lat="46.91761" lon="8.65393">
        <ele>1234</ele>
        <time>2021-08-07T10:47:19.099Z</time>
      </trkpt>
      <trkpt lat="46.91761" lon="8.65392">
        <ele>1234</ele>
        <time>2021-08-07T10:47:20.100Z</time>
      </trkpt>
      <trkpt lat="46.91761" lon="8.65391">
        <ele>1234</ele>
        <time>2021-08-07T10:47:21.100Z</time>
      </trkpt>
      <trkpt lat="46.91762" lon="8.65391">
        <ele>1233</ele>
        <time>2021-08-07T10:47:22.099Z</time>
      </trkpt>
      <trkpt lat="46.91763" lon="8.65391">
        <ele>1233</ele>
        <time>2021-08-07T10:47:23.099Z</time>
      </trkpt>
      <trkpt lat="46.91763" lon="8.65391">
        <ele>1233</ele>
        <time>2021-08-07T10:47:24.100Z</time>
      </trkpt>
      <trkpt lat="46.91766" lon="8.65391">
        <ele>1233</ele>
        <time>2021-08-07T10:47:25.099Z</time>
      </trkpt>
      <trkpt lat="46.91768" lon="8.65391">
        <ele>1233</ele>
        <time>2021-08-07T10:47:26.100Z</time>
      </trkpt>
      <trkpt lat="46.91768" lon="8.65393">
        <ele>1233</ele>
        <time>2021-08-07T10:47:27.099Z</time>
      </trkpt>
      <trkpt lat="46.91768" lon="8.65394">
        <ele>1233</ele>
        <time>2021-08-07T10:47:28.099Z</time>
      </trkpt>
      <trkpt lat="46.9177" lon="8.65395">
        <ele>1233</ele>
        <time>2021-08-07T10:47:29.099Z</time>
      </trkpt>
      <trkpt lat="46.9177" lon="8.65395">
        <ele>1233</ele>
        <time>2021-08-07T10:47:30.100Z</time>
      </trkpt>
      <trkpt lat="46.91769" lon="8.65395">
        <ele>1233</ele>
        <time>2021-08-07T10:47:31.099Z</time>
      </trkpt>
      <trkpt lat="46.91768" lon="8.65396">
        <ele>1233</ele>
        <time>2021-08-07T10:47:32.099Z</time>
      </trkpt>
      <trkpt lat="46.91768" lon="8.65396">
        <ele>1233</ele>
        <time>2021-08-07T10:47:33.100Z</time>
      </trkpt>
      <trkpt lat="46.91768" lon="8.65396">
        <ele>1233</ele>
        <time>2021-08-07T10:47:34.100Z</time>
      </trkpt>
      <trkpt lat="46.91769" lon="8.65396">
        <ele>1233</ele>
        <time>2021-08-07T10:47:35.100Z</time>
      </trkpt>
      <trkpt lat="46.9177" lon="8.65396">
        <ele>1233</ele>
        <time>2021-08-07T10:47:36.099Z</time>
      </trkpt>
      <trkpt lat="46.91769" lon="8.65397">
        <ele>1233</ele>
        <time>2021-08-07T10:47:37.099Z</time>
      </trkpt>
      <trkpt lat="46.91767" lon="8.65397">
        <ele>1233</ele>
        <time>2021-08-07T10:47:38.099Z</time>
      </trkpt>
      <trkpt lat="46.91766" lon="8.65397">
        <ele>1233</ele>
        <time>2021-08-07T10:47:39.100Z</time>
      </trkpt>
      <trkpt lat="46.91765" lon="8.65396">
        <ele>1233</ele>
        <time>2021-08-07T10:47:40.099Z</time>
      </trkpt>
      <trkpt lat="46.91764" lon="8.65396">
        <ele>1233</ele>
        <time>2021-08-07T10:47:41.099Z</time>
      </trkpt>
      <trkpt lat="46.91763" lon="8.65396">
        <ele>1233</ele>
        <time>2021-08-07T10:47:42.100Z</time>
      </trkpt>
      <trkpt lat="46.91764" lon="8.65396">
        <ele>1234</ele>
        <time>2021-08-07T10:47:43.100Z</time>
      </trkpt>
      <trkpt lat="46.91765" lon="8.65396">
        <ele>1234</ele>
        <time>2021-08-07T10:47:44.099Z</time>
      </trkpt>
      <trkpt lat="46.91765" lon="8.65397">
        <ele>1234</ele>
        <time>2021-08-07T10:47:45.099Z</time>
      </trkpt>
      <trkpt lat="46.91766" lon="8.65398">
        <ele>1234</ele>
        <time>2021-08-07T10:47:46.099Z</time>
      </trkpt>
      <trkpt lat="46.91766" lon="8.65398">
        <ele>1234</ele>
        <time>2021-08-07T10:47:47.099Z</time>
      </trkpt>
      <trkpt lat="46.91766" lon="8.65398">
        <ele>1234</ele>
        <time>2021-08-07T10:47:48.100Z</time>
      </trkpt>
      <trkpt lat="46.91767" lon="8.65398">
        <ele>1234</ele>
        <time>2021-08-07T10:47:49.099Z</time>
      </trkpt>
      <trkpt lat="46.91767" lon="8.65397">
        <ele>1233</ele>
        <time>2021-08-07T10:47:50.099Z</time>
      </trkpt>
      <trkpt lat="46.91768" lon="8.65395">
        <ele>1233</ele>
        <time>2021-08-07T10:47:51.099Z</time>
      </trkpt>
      <trkpt lat="46.91768" lon="8.65394">
        <ele>1232</ele>
        <time>2021-08-07T10:47:52.099Z</time>
      </trkpt>
      <trkpt lat="46.91768" lon="8.65395">
        <ele>1232</ele>
        <time>2021-08-07T10:47:53.099Z</time>
      </trkpt>
      <trkpt lat="46.91768" lon="8.65395">
        <ele>1231</ele>
        <time>2021-08-07T10:47:54.100Z</time>
      </trkpt>
      <trkpt lat="46.91767" lon="8.65395">
        <ele>1230</ele>
        <time>2021-08-07T10:47:55.099Z</time>
      </trkpt>
      <trkpt lat="46.91766" lon="8.65394">
        <ele>1229</ele>
        <time>2021-08-07T10:47:56.099Z</time>
      </trkpt>
      <trkpt lat="46.91765" lon="8.65394">
        <ele>1228</ele>
        <time>2021-08-07T10:47:57.100Z</time>
      </trkpt>
      <trkpt lat="46.91765" lon="8.65394">
        <ele>1226</ele>
        <time>2021-08-07T10:47:58.099Z</time>
      </trkpt>
      <trkpt lat="46.91765" lon="8.65394">
        <ele>1225</ele>
        <time>2021-08-07T10:47:59.100Z</time>
      </trkpt>
      <trkpt lat="46.91764" lon="8.65394">
        <ele>1224</ele>
        <time>2021-08-07T10:48:00.100Z</time>
      </trkpt>
      <trkpt lat="46.91764" lon="8.65394">
        <ele>1224</ele>
        <time>2021-08-07T10:48:01.099Z</time>
      </trkpt>
      <trkpt lat="46.91765" lon="8.65393">
        <ele>1220</ele>
        <time>2021-08-07T10:48:02.101Z</time>
      </trkpt>
      <trkpt lat="46.91765" lon="8.65393">
        <ele>1220</ele>
        <time>2021-08-07T10:48:03.100Z</time>
      </trkpt>
      <trkpt lat="46.91765" lon="8.65393">
        <ele>1219</ele>
        <time>2021-08-07T10:48:04.100Z</time>
      </trkpt>
      <trkpt lat="46.91765" lon="8.65392">
        <ele>1219</ele>
        <time>2021-08-07T10:48:05.101Z</time>
      </trkpt>
      <trkpt lat="46.91764" lon="8.65392">
        <ele>1218</ele>
        <time>2021-08-07T10:48:06.101Z</time>
      </trkpt>
      <trkpt lat="46.91763" lon="8.65392">
        <ele>1218</ele>
        <time>2021-08-07T10:48:07.100Z</time>
      </trkpt>
      <trkpt lat="46.91765" lon="8.6539">
        <ele>1215</ele>
        <time>2021-08-07T10:48:08.101Z</time>
      </trkpt>
      <trkpt lat="46.91765" lon="8.65389">
        <ele>1215</ele>
        <time>2021-08-07T10:48:09.101Z</time>
      </trkpt>
      <trkpt lat="46.91765" lon="8.65389">
        <ele>1215</ele>
        <time>2021-08-07T10:48:10.101Z</time>
      </trkpt>
      <trkpt lat="46.91764" lon="8.65388">
        <ele>1215</ele>
        <time>2021-08-07T10:48:11.101Z</time>
      </trkpt>
      <trkpt lat="46.91764" lon="8.65388">
        <ele>1215</ele>
        <time>2021-08-07T10:48:12.101Z</time>
      </trkpt>
      <trkpt lat="46.91763" lon="8.65387">
        <ele>1214</ele>
        <time>2021-08-07T10:48:13.102Z</time>
      </trkpt>
      <trkpt lat="46.91763" lon="8.65387">
        <ele>1213</ele>
        <time>2021-08-07T10:48:14.102Z</time>
      </trkpt>
      <trkpt lat="46.91763" lon="8.65387">
        <ele>1213</ele>
        <time>2021-08-07T10:48:15.102Z</time>
      </trkpt>
      <trkpt lat="46.91763" lon="8.65386">
        <ele>1213</ele>
        <time>2021-08-07T10:48:16.102Z</time>
      </trkpt>
      <trkpt lat="46.91763" lon="8.65386">
        <ele>1213</ele>
        <time>2021-08-07T10:48:17.103Z</time>
      </trkpt>
      <trkpt lat="46.91764" lon="8.65386">
        <ele>1213</ele>
        <time>2021-08-07T10:48:18.103Z</time>
      </trkpt>
      <trkpt lat="46.91765" lon="8.65386">
        <ele>1213</ele>
        <time>2021-08-07T10:48:19.102Z</time>
      </trkpt>
      <trkpt lat="46.91766" lon="8.65386">
        <ele>1213</ele>
        <time>2021-08-07T10:48:20.103Z</time>
      </trkpt>
      <trkpt lat="46.91766" lon="8.65386">
        <ele>1213</ele>
        <time>2021-08-07T10:48:21.103Z</time>
      </trkpt>
      <trkpt lat="46.91767" lon="8.65385">
        <ele>1213</ele>
        <time>2021-08-07T10:48:22.103Z</time>
      </trkpt>
      <trkpt lat="46.91768" lon="8.65384">
        <ele>1213</ele>
        <time>2021-08-07T10:48:23.102Z</time>
      </trkpt>
      <trkpt lat="46.91769" lon="8.65384">
        <ele>1213</ele>
        <time>2021-08-07T10:48:24.102Z</time>
      </trkpt>
      <trkpt lat="46.9177" lon="8.65384">
        <ele>1213</ele>
        <time>2021-08-07T10:48:25.103Z</time>
      </trkpt>
      <trkpt lat="46.91769" lon="8.65384">
        <ele>1213</ele>
        <time>2021-08-07T10:48:26.103Z</time>
      </trkpt>
      <trkpt lat="46.91769" lon="8.65384">
        <ele>1213</ele>
        <time>2021-08-07T10:48:27.103Z</time>
      </trkpt>
      <trkpt lat="46.91769" lon="8.65384">
        <ele>1213</ele>
        <time>2021-08-07T10:48:28.103Z</time>
      </trkpt>
      <trkpt lat="46.91773" lon="8.65381">
        <ele>1214</ele>
        <time>2021-08-07T10:48:29.103Z</time>
      </trkpt>
      <trkpt lat="46.91775" lon="8.65381">
        <ele>1214</ele>
        <time>2021-08-07T10:48:30.103Z</time>
      </trkpt>
      <trkpt lat="46.91773" lon="8.65381">
        <ele>1214</ele>
        <time>2021-08-07T10:48:31.103Z</time>
      </trkpt>
      <trkpt lat="46.91774" lon="8.65381">
        <ele>1215</ele>
        <time>2021-08-07T10:48:32.103Z</time>
      </trkpt>
      <trkpt lat="46.91775" lon="8.65381">
        <ele>1215</ele>
        <time>2021-08-07T10:48:33.103Z</time>
      </trkpt>
      <trkpt lat="46.91776" lon="8.6538">
        <ele>1215</ele>
        <time>2021-08-07T10:48:34.103Z</time>
      </trkpt>
      <trkpt lat="46.91776" lon="8.6538">
        <ele>1215</ele>
        <time>2021-08-07T10:48:35.103Z</time>
      </trkpt>
      <trkpt lat="46.91776" lon="8.65379">
        <ele>1215</ele>
        <time>2021-08-07T10:48:36.102Z</time>
      </trkpt>
      <trkpt lat="46.91776" lon="8.65378">
        <ele>1216</ele>
        <time>2021-08-07T10:48:37.102Z</time>
      </trkpt>
      <trkpt lat="46.91776" lon="8.65377">
        <ele>1216</ele>
        <time>2021-08-07T10:48:38.102Z</time>
      </trkpt>
      <trkpt lat="46.91775" lon="8.65377">
        <ele>1216</ele>
        <time>2021-08-07T10:48:39.103Z</time>
      </trkpt>
      <trkpt lat="46.91773" lon="8.65376">
        <ele>1217</ele>
        <time>2021-08-07T10:48:40.103Z</time>
      </trkpt>
      <trkpt lat="46.91772" lon="8.65376">
        <ele>1217</ele>
        <time>2021-08-07T10:48:41.103Z</time>
      </trkpt>
      <trkpt lat="46.91771" lon="8.65375">
        <ele>1217</ele>
        <time>2021-08-07T10:48:42.103Z</time>
      </trkpt>
      <trkpt lat="46.91771" lon="8.65375">
        <ele>1217</ele>
        <time>2021-08-07T10:48:43.102Z</time>
      </trkpt>
      <trkpt lat="46.91771" lon="8.65375">
        <ele>1217</ele>
        <time>2021-08-07T10:48:44.102Z</time>
      </trkpt>
      <trkpt lat="46.9177" lon="8.65374">
        <ele>1217</ele>
        <time>2021-08-07T10:48:45.103Z</time>
      </trkpt>
      <trkpt lat="46.9177" lon="8.65374">
        <ele>1217</ele>
        <time>2021-08-07T10:48:46.103Z</time>
      </trkpt>
      <trkpt lat="46.91769" lon="8.65373">
        <ele>1217</ele>
        <time>2021-08-07T10:48:47.103Z</time>
      </trkpt>
      <trkpt lat="46.91769" lon="8.65373">
        <ele>1216</ele>
        <time>2021-08-07T10:48:48.102Z</time>
      </trkpt>
      <trkpt lat="46.91768" lon="8.65373">
        <ele>1216</ele>
        <time>2021-08-07T10:48:49.103Z</time>
      </trkpt>
      <trkpt lat="46.91768" lon="8.65372">
        <ele>1216</ele>
        <time>2021-08-07T10:48:50.103Z</time>
      </trkpt>
      <trkpt lat="46.91769" lon="8.65373">
        <ele>1218</ele>
        <time>2021-08-07T10:48:51.105Z</time>
      </trkpt>
      <trkpt lat="46.91769" lon="8.65373">
        <ele>1218</ele>
        <time>2021-08-07T10:48:52.105Z</time>
      </trkpt>
      <trkpt lat="46.91769" lon="8.65372">
        <ele>1218</ele>
        <time>2021-08-07T10:48:53.104Z</time>
      </trkpt>
      <trkpt lat="46.91768" lon="8.65372">
        <ele>1218</ele>
        <time>2021-08-07T10:48:54.105Z</time>
      </trkpt>
      <trkpt lat="46.91768" lon="8.65371">
        <ele>1218</ele>
        <time>2021-08-07T10:48:55.105Z</time>
      </trkpt>
      <trkpt lat="46.91768" lon="8.65371">
        <ele>1219</ele>
        <time>2021-08-07T10:48:56.105Z</time>
      </trkpt>
      <trkpt lat="46.91769" lon="8.6537">
        <ele>1219</ele>
        <time>2021-08-07T10:48:57.105Z</time>
      </trkpt>
      <trkpt lat="46.91771" lon="8.6537">
        <ele>1219</ele>
        <time>2021-08-07T10:48:58.105Z</time>
      </trkpt>
      <trkpt lat="46.91772" lon="8.65369">
        <ele>1219</ele>
        <time>2021-08-07T10:48:59.104Z</time>
      </trkpt>
      <trkpt lat="46.91781" lon="8.65368">
        <ele>1221</ele>
        <time>2021-08-07T10:49:00.105Z</time>
      </trkpt>
      <trkpt lat="46.91782" lon="8.65367">
        <ele>1222</ele>
        <time>2021-08-07T10:49:01.104Z</time>
      </trkpt>
      <trkpt lat="46.91781" lon="8.65366">
        <ele>1222</ele>
        <time>2021-08-07T10:49:02.104Z</time>
      </trkpt>
      <trkpt lat="46.91782" lon="8.65365">
        <ele>1222</ele>
        <time>2021-08-07T10:49:03.105Z</time>
      </trkpt>
      <trkpt lat="46.91784" lon="8.65363">
        <ele>1223</ele>
        <time>2021-08-07T10:49:04.105Z</time>
      </trkpt>
      <trkpt lat="46.91786" lon="8.65362">
        <ele>1223</ele>
        <time>2021-08-07T10:49:05.104Z</time>
      </trkpt>
      <trkpt lat="46.91788" lon="8.65361">
        <ele>1224</ele>
        <time>2021-08-07T10:49:06.105Z</time>
      </trkpt>
      <trkpt lat="46.91787" lon="8.65359">
        <ele>1224</ele>
        <time>2021-08-07T10:49:07.105Z</time>
      </trkpt>
      <trkpt lat="46.91783" lon="8.65357">
        <ele>1224</ele>
        <time>2021-08-07T10:49:08.105Z</time>
      </trkpt>
      <trkpt lat="46.9178" lon="8.65355">
        <ele>1223</ele>
        <time>2021-08-07T10:49:09.104Z</time>
      </trkpt>
      <trkpt lat="46.91777" lon="8.65353">
        <ele>1222</ele>
        <time>2021-08-07T10:49:10.104Z</time>
      </trkpt>
      <trkpt lat="46.91776" lon="8.65352">
        <ele>1221</ele>
        <time>2021-08-07T10:49:11.105Z</time>
      </trkpt>
      <trkpt lat="46.91776" lon="8.6535">
        <ele>1220</ele>
        <time>2021-08-07T10:49:12.105Z</time>
      </trkpt>
      <trkpt lat="46.91775" lon="8.65349">
        <ele>1219</ele>
        <time>2021-08-07T10:49:13.104Z</time>
      </trkpt>
      <trkpt lat="46.91775" lon="8.65347">
        <ele>1219</ele>
        <time>2021-08-07T10:49:14.105Z</time>
      </trkpt>
      <trkpt lat="46.91775" lon="8.65345">
        <ele>1219</ele>
        <time>2021-08-07T10:49:15.105Z</time>
      </trkpt>
      <trkpt lat="46.91775" lon="8.65344">
        <ele>1218</ele>
        <time>2021-08-07T10:49:16.105Z</time>
      </trkpt>
      <trkpt lat="46.91774" lon="8.65342">
        <ele>1218</ele>
        <time>2021-08-07T10:49:17.104Z</time>
      </trkpt>
      <trkpt lat="46.91774" lon="8.6534">
        <ele>1217</ele>
        <time>2021-08-07T10:49:18.105Z</time>
      </trkpt>
      <trkpt lat="46.91774" lon="8.65339">
        <ele>1217</ele>
        <time>2021-08-07T10:49:22.205Z</time>
      </trkpt>
      <trkpt lat="46.91775" lon="8.65338">
        <ele>1217</ele>
        <time>2021-08-07T10:49:23.205Z</time>
      </trkpt>
      <trkpt lat="46.91775" lon="8.65336">
        <ele>1216</ele>
        <time>2021-08-07T10:49:24.204Z</time>
      </trkpt>
      <trkpt lat="46.91774" lon="8.65335">
        <ele>1216</ele>
        <time>2021-08-07T10:49:25.204Z</time>
      </trkpt>
      <trkpt lat="46.91773" lon="8.65332">
        <ele>1216</ele>
        <time>2021-08-07T10:49:26.204Z</time>
      </trkpt>
      <trkpt lat="46.91773" lon="8.65329">
        <ele>1215</ele>
        <time>2021-08-07T10:49:34.230Z</time>
      </trkpt>
      <trkpt lat="46.91772" lon="8.65327">
        <ele>1215</ele>
        <time>2021-08-07T10:49:35.230Z</time>
      </trkpt>
      <trkpt lat="46.91772" lon="8.65325">
        <ele>1215</ele>
        <time>2021-08-07T10:49:36.230Z</time>
      </trkpt>
      <trkpt lat="46.91771" lon="8.65323">
        <ele>1214</ele>
        <time>2021-08-07T10:49:37.229Z</time>
      </trkpt>
      <trkpt lat="46.91771" lon="8.65321">
        <ele>1214</ele>
        <time>2021-08-07T10:49:38.230Z</time>
      </trkpt>
      <trkpt lat="46.91769" lon="8.6532">
        <ele>1213</ele>
        <time>2021-08-07T10:49:45.354Z</time>
      </trkpt>
      <trkpt lat="46.91769" lon="8.6532">
        <ele>1213</ele>
        <time>2021-08-07T10:49:46.354Z</time>
      </trkpt>
      <trkpt lat="46.9177" lon="8.65318">
        <ele>1211</ele>
        <time>2021-08-07T10:49:49.178Z</time>
      </trkpt>
      <trkpt lat="46.91769" lon="8.65317">
        <ele>1211</ele>
        <time>2021-08-07T10:49:50.178Z</time>
      </trkpt>
      <trkpt lat="46.91769" lon="8.65315">
        <ele>1211</ele>
        <time>2021-08-07T10:49:51.177Z</time>
      </trkpt>
      <trkpt lat="46.91771" lon="8.65312">
        <ele>1212</ele>
        <time>2021-08-07T10:49:52.178Z</time>
      </trkpt>
      <trkpt lat="46.91772" lon="8.65312">
        <ele>1212</ele>
        <time>2021-08-07T10:49:53.178Z</time>
      </trkpt>
      <trkpt lat="46.91773" lon="8.65311">
        <ele>1213</ele>
        <time>2021-08-07T10:50:03.331Z</time>
      </trkpt>
      <trkpt lat="46.91774" lon="8.6531">
        <ele>1213</ele>
        <time>2021-08-07T10:50:04.331Z</time>
      </trkpt>
      <trkpt lat="46.91774" lon="8.65308">
        <ele>1213</ele>
        <time>2021-08-07T10:50:05.331Z</time>
      </trkpt>
      <trkpt lat="46.91775" lon="8.65307">
        <ele>1212</ele>
        <time>2021-08-07T10:50:12.470Z</time>
      </trkpt>
      <trkpt lat="46.91775" lon="8.65306">
        <ele>1212</ele>
        <time>2021-08-07T10:50:13.470Z</time>
      </trkpt>
      <trkpt lat="46.91776" lon="8.65305">
        <ele>1211</ele>
        <time>2021-08-07T10:50:14.469Z</time>
      </trkpt>
      <trkpt lat="46.91776" lon="8.65304">
        <ele>1211</ele>
        <time>2021-08-07T10:50:15.469Z</time>
      </trkpt>
      <trkpt lat="46.91776" lon="8.65303">
        <ele>1210</ele>
        <time>2021-08-07T10:50:16.469Z</time>
      </trkpt>
      <trkpt lat="46.91776" lon="8.65302">
        <ele>1210</ele>
        <time>2021-08-07T10:50:17.470Z</time>
      </trkpt>
      <trkpt lat="46.91776" lon="8.65301">
        <ele>1210</ele>
        <time>2021-08-07T10:50:18.470Z</time>
      </trkpt>
      <trkpt lat="46.91776" lon="8.653">
        <ele>1210</ele>
        <time>2021-08-07T10:50:19.469Z</time>
      </trkpt>
      <trkpt lat="46.91777" lon="8.65299">
        <ele>1210</ele>
        <time>2021-08-07T10:50:20.470Z</time>
      </trkpt>
      <trkpt lat="46.91777" lon="8.65297">
        <ele>1210</ele>
        <time>2021-08-07T10:50:21.469Z</time>
      </trkpt>
      <trkpt lat="46.91777" lon="8.65295">
        <ele>1210</ele>
        <time>2021-08-07T10:50:22.469Z</time>
      </trkpt>
      <trkpt lat="46.91777" lon="8.65293">
        <ele>1210</ele>
        <time>2021-08-07T10:50:23.469Z</time>
      </trkpt>
      <trkpt lat="46.91776" lon="8.65292">
        <ele>1209</ele>
        <time>2021-08-07T10:50:24.469Z</time>
      </trkpt>
      <trkpt lat="46.91776" lon="8.6529">
        <ele>1209</ele>
        <time>2021-08-07T10:50:25.469Z</time>
      </trkpt>
      <trkpt lat="46.91775" lon="8.65288">
        <ele>1208</ele>
        <time>2021-08-07T10:50:26.469Z</time>
      </trkpt>
      <trkpt lat="46.91774" lon="8.65286">
        <ele>1208</ele>
        <time>2021-08-07T10:50:27.469Z</time>
      </trkpt>
      <trkpt lat="46.91773" lon="8.65285">
        <ele>1207</ele>
        <time>2021-08-07T10:50:28.469Z</time>
      </trkpt>
      <trkpt lat="46.91772" lon="8.65283">
        <ele>1207</ele>
        <time>2021-08-07T10:50:29.469Z</time>
      </trkpt>
      <trkpt lat="46.91772" lon="8.65281">
        <ele>1207</ele>
        <time>2021-08-07T10:50:30.470Z</time>
      </trkpt>
      <trkpt lat="46.91771" lon="8.65279">
        <ele>1208</ele>
        <time>2021-08-07T10:50:31.469Z</time>
      </trkpt>
      <trkpt lat="46.9177" lon="8.65278">
        <ele>1208</ele>
        <time>2021-08-07T10:50:32.469Z</time>
      </trkpt>
      <trkpt lat="46.9177" lon="8.65277">
        <ele>1208</ele>
        <time>2021-08-07T10:50:33.469Z</time>
      </trkpt>
      <trkpt lat="46.91769" lon="8.65276">
        <ele>1208</ele>
        <time>2021-08-07T10:50:34.469Z</time>
      </trkpt>
      <trkpt lat="46.91768" lon="8.65274">
        <ele>1208</ele>
        <time>2021-08-07T10:50:35.469Z</time>
      </trkpt>
      <trkpt lat="46.91767" lon="8.65273">
        <ele>1208</ele>
        <time>2021-08-07T10:50:36.469Z</time>
      </trkpt>
      <trkpt lat="46.91766" lon="8.65272">
        <ele>1208</ele>
        <time>2021-08-07T10:50:37.469Z</time>
      </trkpt>
      <trkpt lat="46.91765" lon="8.65271">
        <ele>1208</ele>
        <time>2021-08-07T10:50:38.469Z</time>
      </trkpt>
      <trkpt lat="46.91763" lon="8.65269">
        <ele>1208</ele>
        <time>2021-08-07T10:50:39.469Z</time>
      </trkpt>
      <trkpt lat="46.91762" lon="8.65268">
        <ele>1208</ele>
        <time>2021-08-07T10:50:40.469Z</time>
      </trkpt>
      <trkpt lat="46.91761" lon="8.65267">
        <ele>1208</ele>
        <time>2021-08-07T10:50:41.469Z</time>
      </trkpt>
      <trkpt lat="46.9176" lon="8.65266">
        <ele>1209</ele>
        <time>2021-08-07T10:50:42.469Z</time>
      </trkpt>
      <trkpt lat="46.91759" lon="8.65265">
        <ele>1209</ele>
        <time>2021-08-07T10:50:45.437Z</time>
      </trkpt>
      <trkpt lat="46.91758" lon="8.65264">
        <ele>1209</ele>
        <time>2021-08-07T10:50:46.437Z</time>
      </trkpt>
      <trkpt lat="46.91757" lon="8.65263">
        <ele>1209</ele>
        <time>2021-08-07T10:50:47.438Z</time>
      </trkpt>
      <trkpt lat="46.91756" lon="8.65262">
        <ele>1208</ele>
        <time>2021-08-07T10:50:48.437Z</time>
      </trkpt>
      <trkpt lat="46.91755" lon="8.65261">
        <ele>1208</ele>
        <time>2021-08-07T10:50:49.437Z</time>
      </trkpt>
      <trkpt lat="46.91755" lon="8.6526">
        <ele>1208</ele>
        <time>2021-08-07T10:50:50.437Z</time>
      </trkpt>
      <trkpt lat="46.91754" lon="8.65259">
        <ele>1208</ele>
        <time>2021-08-07T10:50:51.437Z</time>
      </trkpt>
      <trkpt lat="46.91754" lon="8.65258">
        <ele>1208</ele>
        <time>2021-08-07T10:50:52.438Z</time>
      </trkpt>
      <trkpt lat="46.91753" lon="8.65256">
        <ele>1208</ele>
        <time>2021-08-07T10:50:53.437Z</time>
      </trkpt>
      <trkpt lat="46.91753" lon="8.65255">
        <ele>1208</ele>
        <time>2021-08-07T10:50:54.438Z</time>
      </trkpt>
      <trkpt lat="46.91752" lon="8.65254">
        <ele>1208</ele>
        <time>2021-08-07T10:50:55.437Z</time>
      </trkpt>
      <trkpt lat="46.91752" lon="8.65252">
        <ele>1208</ele>
        <time>2021-08-07T10:50:56.438Z</time>
      </trkpt>
      <trkpt lat="46.91752" lon="8.6525">
        <ele>1208</ele>
        <time>2021-08-07T10:50:57.437Z</time>
      </trkpt>
      <trkpt lat="46.91752" lon="8.65248">
        <ele>1207</ele>
        <time>2021-08-07T10:50:58.438Z</time>
      </trkpt>
      <trkpt lat="46.91752" lon="8.65246">
        <ele>1206</ele>
        <time>2021-08-07T10:50:59.438Z</time>
      </trkpt>
      <trkpt lat="46.91752" lon="8.65244">
        <ele>1206</ele>
        <time>2021-08-07T10:51:00.438Z</time>
      </trkpt>
      <trkpt lat="46.91752" lon="8.65243">
        <ele>1205</ele>
        <time>2021-08-07T10:51:01.437Z</time>
      </trkpt>
      <trkpt lat="46.91752" lon="8.65241">
        <ele>1205</ele>
        <time>2021-08-07T10:51:02.438Z</time>
      </trkpt>
      <trkpt lat="46.91752" lon="8.65238">
        <ele>1204</ele>
        <time>2021-08-07T10:51:03.437Z</time>
      </trkpt>
      <trkpt lat="46.91752" lon="8.65237">
        <ele>1204</ele>
        <time>2021-08-07T10:51:04.437Z</time>
      </trkpt>
      <trkpt lat="46.91752" lon="8.65235">
        <ele>1203</ele>
        <time>2021-08-07T10:51:05.438Z</time>
      </trkpt>
      <trkpt lat="46.91753" lon="8.65233">
        <ele>1203</ele>
        <time>2021-08-07T10:51:06.438Z</time>
      </trkpt>
      <trkpt lat="46.91753" lon="8.65231">
        <ele>1203</ele>
        <time>2021-08-07T10:51:07.437Z</time>
      </trkpt>
      <trkpt lat="46.91752" lon="8.65229">
        <ele>1202</ele>
        <time>2021-08-07T10:51:08.437Z</time>
      </trkpt>
      <trkpt lat="46.91752" lon="8.65228">
        <ele>1202</ele>
        <time>2021-08-07T10:51:09.437Z</time>
      </trkpt>
      <trkpt lat="46.91752" lon="8.65226">
        <ele>1201</ele>
        <time>2021-08-07T10:51:10.437Z</time>
      </trkpt>
      <trkpt lat="46.91751" lon="8.65225">
        <ele>1201</ele>
        <time>2021-08-07T10:51:11.437Z</time>
      </trkpt>
      <trkpt lat="46.9175" lon="8.65223">
        <ele>1200</ele>
        <time>2021-08-07T10:51:12.437Z</time>
      </trkpt>
      <trkpt lat="46.91749" lon="8.65221">
        <ele>1199</ele>
        <time>2021-08-07T10:51:13.437Z</time>
      </trkpt>
      <trkpt lat="46.91748" lon="8.6522">
        <ele>1199</ele>
        <time>2021-08-07T10:51:14.437Z</time>
      </trkpt>
      <trkpt lat="46.91748" lon="8.65218">
        <ele>1198</ele>
        <time>2021-08-07T10:51:15.437Z</time>
      </trkpt>
      <trkpt lat="46.91747" lon="8.65217">
        <ele>1198</ele>
        <time>2021-08-07T10:51:16.437Z</time>
      </trkpt>
      <trkpt lat="46.91746" lon="8.65216">
        <ele>1198</ele>
        <time>2021-08-07T10:51:17.437Z</time>
      </trkpt>
      <trkpt lat="46.91745" lon="8.65215">
        <ele>1198</ele>
        <time>2021-08-07T10:51:18.437Z</time>
      </trkpt>
      <trkpt lat="46.91744" lon="8.65214">
        <ele>1198</ele>
        <time>2021-08-07T10:51:19.438Z</time>
      </trkpt>
      <trkpt lat="46.91743" lon="8.65213">
        <ele>1198</ele>
        <time>2021-08-07T10:51:20.437Z</time>
      </trkpt>
      <trkpt lat="46.91742" lon="8.65212">
        <ele>1198</ele>
        <time>2021-08-07T10:51:21.437Z</time>
      </trkpt>
      <trkpt lat="46.91741" lon="8.65211">
        <ele>1198</ele>
        <time>2021-08-07T10:51:22.437Z</time>
      </trkpt>
      <trkpt lat="46.9174" lon="8.65211">
        <ele>1198</ele>
        <time>2021-08-07T10:51:23.437Z</time>
      </trkpt>
      <trkpt lat="46.91739" lon="8.6521">
        <ele>1198</ele>
        <time>2021-08-07T10:51:24.437Z</time>
      </trkpt>
      <trkpt lat="46.91738" lon="8.6521">
        <ele>1197</ele>
        <time>2021-08-07T10:51:25.438Z</time>
      </trkpt>
      <trkpt lat="46.91737" lon="8.6521">
        <ele>1197</ele>
        <time>2021-08-07T10:51:26.437Z</time>
      </trkpt>
      <trkpt lat="46.91736" lon="8.65209">
        <ele>1197</ele>
        <time>2021-08-07T10:51:27.437Z</time>
      </trkpt>
      <trkpt lat="46.91735" lon="8.65208">
        <ele>1198</ele>
        <time>2021-08-07T10:51:28.437Z</time>
      </trkpt>
      <trkpt lat="46.91734" lon="8.65207">
        <ele>1199</ele>
        <time>2021-08-07T10:51:29.438Z</time>
      </trkpt>
      <trkpt lat="46.91733" lon="8.65206">
        <ele>1199</ele>
        <time>2021-08-07T10:51:30.438Z</time>
      </trkpt>
      <trkpt lat="46.91732" lon="8.65205">
        <ele>1199</ele>
        <time>2021-08-07T10:51:31.437Z</time>
      </trkpt>
      <trkpt lat="46.91731" lon="8.65202">
        <ele>1199</ele>
        <time>2021-08-07T10:51:32.437Z</time>
      </trkpt>
      <trkpt lat="46.91731" lon="8.652">
        <ele>1199</ele>
        <time>2021-08-07T10:51:33.437Z</time>
      </trkpt>
      <trkpt lat="46.91731" lon="8.65199">
        <ele>1199</ele>
        <time>2021-08-07T10:51:34.438Z</time>
      </trkpt>
      <trkpt lat="46.91731" lon="8.65199">
        <ele>1199</ele>
        <time>2021-08-07T10:51:35.438Z</time>
      </trkpt>
      <trkpt lat="46.91731" lon="8.65198">
        <ele>1199</ele>
        <time>2021-08-07T10:51:36.437Z</time>
      </trkpt>
      <trkpt lat="46.9173" lon="8.65196">
        <ele>1199</ele>
        <time>2021-08-07T10:51:37.437Z</time>
      </trkpt>
      <trkpt lat="46.9173" lon="8.65194">
        <ele>1199</ele>
        <time>2021-08-07T10:51:38.437Z</time>
      </trkpt>
      <trkpt lat="46.9173" lon="8.65194">
        <ele>1199</ele>
        <time>2021-08-07T10:51:39.438Z</time>
      </trkpt>
      <trkpt lat="46.91731" lon="8.65194">
        <ele>1199</ele>
        <time>2021-08-07T10:51:40.437Z</time>
      </trkpt>
      <trkpt lat="46.91728" lon="8.65193">
        <ele>1198</ele>
        <time>2021-08-07T10:51:41.438Z</time>
      </trkpt>
      <trkpt lat="46.91728" lon="8.65192">
        <ele>1198</ele>
        <time>2021-08-07T10:51:42.438Z</time>
      </trkpt>
      <trkpt lat="46.91727" lon="8.65191">
        <ele>1197</ele>
        <time>2021-08-07T10:51:43.438Z</time>
      </trkpt>
      <trkpt lat="46.91726" lon="8.6519">
        <ele>1197</ele>
        <time>2021-08-07T10:51:44.438Z</time>
      </trkpt>
      <trkpt lat="46.91725" lon="8.65188">
        <ele>1197</ele>
        <time>2021-08-07T10:51:45.437Z</time>
      </trkpt>
      <trkpt lat="46.91725" lon="8.65186">
        <ele>1197</ele>
        <time>2021-08-07T10:51:46.438Z</time>
      </trkpt>
      <trkpt lat="46.91724" lon="8.65184">
        <ele>1197</ele>
        <time>2021-08-07T10:51:47.438Z</time>
      </trkpt>
      <trkpt lat="46.91724" lon="8.65183">
        <ele>1197</ele>
        <time>2021-08-07T10:51:48.437Z</time>
      </trkpt>
      <trkpt lat="46.91723" lon="8.65181">
        <ele>1196</ele>
        <time>2021-08-07T10:51:49.437Z</time>
      </trkpt>
      <trkpt lat="46.91722" lon="8.6518">
        <ele>1196</ele>
        <time>2021-08-07T10:51:58.469Z</time>
      </trkpt>
      <trkpt lat="46.91722" lon="8.6518">
        <ele>1196</ele>
        <time>2021-08-07T10:51:59.469Z</time>
      </trkpt>
      <trkpt lat="46.91725" lon="8.6518">
        <ele>1194</ele>
        <time>2021-08-07T10:52:00.469Z</time>
      </trkpt>
      <trkpt lat="46.91725" lon="8.6518">
        <ele>1194</ele>
        <time>2021-08-07T10:52:01.470Z</time>
      </trkpt>
      <trkpt lat="46.91726" lon="8.6518">
        <ele>1194</ele>
        <time>2021-08-07T10:52:02.470Z</time>
      </trkpt>
      <trkpt lat="46.91725" lon="8.6518">
        <ele>1194</ele>
        <time>2021-08-07T10:52:03.471Z</time>
      </trkpt>
      <trkpt lat="46.91725" lon="8.65179">
        <ele>1194</ele>
        <time>2021-08-07T10:52:04.472Z</time>
      </trkpt>
      <trkpt lat="46.91724" lon="8.65177">
        <ele>1194</ele>
        <time>2021-08-07T10:52:05.472Z</time>
      </trkpt>
      <trkpt lat="46.91723" lon="8.65176">
        <ele>1195</ele>
        <time>2021-08-07T10:52:06.471Z</time>
      </trkpt>
      <trkpt lat="46.91723" lon="8.65174">
        <ele>1195</ele>
        <time>2021-08-07T10:52:07.471Z</time>
      </trkpt>
      <trkpt lat="46.91722" lon="8.65172">
        <ele>1195</ele>
        <time>2021-08-07T10:52:08.471Z</time>
      </trkpt>
      <trkpt lat="46.91721" lon="8.6517">
        <ele>1195</ele>
        <time>2021-08-07T10:52:09.472Z</time>
      </trkpt>
      <trkpt lat="46.91721" lon="8.65169">
        <ele>1195</ele>
        <time>2021-08-07T10:52:10.471Z</time>
      </trkpt>
      <trkpt lat="46.9172" lon="8.65167">
        <ele>1195</ele>
        <time>2021-08-07T10:52:11.471Z</time>
      </trkpt>
      <trkpt lat="46.9172" lon="8.65165">
        <ele>1196</ele>
        <time>2021-08-07T10:52:12.471Z</time>
      </trkpt>
      <trkpt lat="46.91719" lon="8.65164">
        <ele>1196</ele>
        <time>2021-08-07T10:52:13.471Z</time>
      </trkpt>
      <trkpt lat="46.91718" lon="8.65162">
        <ele>1196</ele>
        <time>2021-08-07T10:52:14.471Z</time>
      </trkpt>
      <trkpt lat="46.91717" lon="8.6516">
        <ele>1196</ele>
        <time>2021-08-07T10:52:15.471Z</time>
      </trkpt>
      <trkpt lat="46.91717" lon="8.65158">
        <ele>1197</ele>
        <time>2021-08-07T10:52:16.471Z</time>
      </trkpt>
      <trkpt lat="46.91716" lon="8.65157">
        <ele>1197</ele>
        <time>2021-08-07T10:52:17.471Z</time>
      </trkpt>
      <trkpt lat="46.91715" lon="8.65154">
        <ele>1197</ele>
        <time>2021-08-07T10:52:18.472Z</time>
      </trkpt>
      <trkpt lat="46.91715" lon="8.65153">
        <ele>1197</ele>
        <time>2021-08-07T10:52:19.471Z</time>
      </trkpt>
      <trkpt lat="46.91714" lon="8.65152">
        <ele>1197</ele>
        <time>2021-08-07T10:52:20.471Z</time>
      </trkpt>
      <trkpt lat="46.91713" lon="8.65151">
        <ele>1196</ele>
        <time>2021-08-07T10:52:21.472Z</time>
      </trkpt>
      <trkpt lat="46.91713" lon="8.65151">
        <ele>1196</ele>
        <time>2021-08-07T10:52:22.471Z</time>
      </trkpt>
      <trkpt lat="46.91712" lon="8.6515">
        <ele>1196</ele>
        <time>2021-08-07T10:52:23.471Z</time>
      </trkpt>
      <trkpt lat="46.91712" lon="8.65149">
        <ele>1196</ele>
        <time>2021-08-07T10:52:24.471Z</time>
      </trkpt>
      <trkpt lat="46.91711" lon="8.65148">
        <ele>1195</ele>
        <time>2021-08-07T10:52:25.471Z</time>
      </trkpt>
      <trkpt lat="46.9171" lon="8.65147">
        <ele>1195</ele>
        <time>2021-08-07T10:52:26.471Z</time>
      </trkpt>
      <trkpt lat="46.91709" lon="8.65146">
        <ele>1195</ele>
        <time>2021-08-07T10:52:27.471Z</time>
      </trkpt>
      <trkpt lat="46.91709" lon="8.65144">
        <ele>1194</ele>
        <time>2021-08-07T10:52:28.471Z</time>
      </trkpt>
      <trkpt lat="46.91708" lon="8.65143">
        <ele>1194</ele>
        <time>2021-08-07T10:52:29.471Z</time>
      </trkpt>
      <trkpt lat="46.91707" lon="8.65142">
        <ele>1194</ele>
        <time>2021-08-07T10:52:30.471Z</time>
      </trkpt>
      <trkpt lat="46.91706" lon="8.65141">
        <ele>1194</ele>
        <time>2021-08-07T10:52:31.471Z</time>
      </trkpt>
      <trkpt lat="46.91705" lon="8.6514">
        <ele>1194</ele>
        <time>2021-08-07T10:52:32.471Z</time>
      </trkpt>
      <trkpt lat="46.91704" lon="8.65138">
        <ele>1194</ele>
        <time>2021-08-07T10:52:33.471Z</time>
      </trkpt>
      <trkpt lat="46.91704" lon="8.65137">
        <ele>1194</ele>
        <time>2021-08-07T10:52:34.471Z</time>
      </trkpt>
      <trkpt lat="46.91703" lon="8.65136">
        <ele>1194</ele>
        <time>2021-08-07T10:52:35.471Z</time>
      </trkpt>
      <trkpt lat="46.91702" lon="8.65134">
        <ele>1194</ele>
        <time>2021-08-07T10:52:36.471Z</time>
      </trkpt>
      <trkpt lat="46.91701" lon="8.65132">
        <ele>1194</ele>
        <time>2021-08-07T10:52:37.471Z</time>
      </trkpt>
      <trkpt lat="46.91701" lon="8.65131">
        <ele>1195</ele>
        <time>2021-08-07T10:52:38.471Z</time>
      </trkpt>
      <trkpt lat="46.917" lon="8.6513">
        <ele>1195</ele>
        <time>2021-08-07T10:52:39.471Z</time>
      </trkpt>
      <trkpt lat="46.917" lon="8.65129">
        <ele>1195</ele>
        <time>2021-08-07T10:52:40.472Z</time>
      </trkpt>
      <trkpt lat="46.917" lon="8.65129">
        <ele>1195</ele>
        <time>2021-08-07T10:52:41.471Z</time>
      </trkpt>
      <trkpt lat="46.91699" lon="8.65129">
        <ele>1194</ele>
        <time>2021-08-07T10:52:42.471Z</time>
      </trkpt>
      <trkpt lat="46.91699" lon="8.65126">
        <ele>1193</ele>
        <time>2021-08-07T10:52:43.471Z</time>
      </trkpt>
      <trkpt lat="46.91698" lon="8.65125">
        <ele>1193</ele>
        <time>2021-08-07T10:52:44.472Z</time>
      </trkpt>
      <trkpt lat="46.91697" lon="8.65124">
        <ele>1193</ele>
        <time>2021-08-07T10:52:45.471Z</time>
      </trkpt>
      <trkpt lat="46.91697" lon="8.65122">
        <ele>1194</ele>
        <time>2021-08-07T10:52:46.471Z</time>
      </trkpt>
      <trkpt lat="46.91696" lon="8.6512">
        <ele>1194</ele>
        <time>2021-08-07T10:52:48.552Z</time>
      </trkpt>
      <trkpt lat="46.91695" lon="8.65118">
        <ele>1194</ele>
        <time>2021-08-07T10:52:49.552Z</time>
      </trkpt>
      <trkpt lat="46.91694" lon="8.65116">
        <ele>1194</ele>
        <time>2021-08-07T10:52:50.553Z</time>
      </trkpt>
      <trkpt lat="46.91693" lon="8.65115">
        <ele>1194</ele>
        <time>2021-08-07T10:52:51.553Z</time>
      </trkpt>
      <trkpt lat="46.91692" lon="8.65113">
        <ele>1193</ele>
        <time>2021-08-07T10:52:52.552Z</time>
      </trkpt>
      <trkpt lat="46.91692" lon="8.65112">
        <ele>1193</ele>
        <time>2021-08-07T10:52:53.552Z</time>
      </trkpt>
      <trkpt lat="46.91691" lon="8.65111">
        <ele>1193</ele>
        <time>2021-08-07T10:52:54.552Z</time>
      </trkpt>
      <trkpt lat="46.91691" lon="8.6511">
        <ele>1192</ele>
        <time>2021-08-07T10:52:55.552Z</time>
      </trkpt>
      <trkpt lat="46.91692" lon="8.65111">
        <ele>1192</ele>
        <time>2021-08-07T10:52:56.552Z</time>
      </trkpt>
      <trkpt lat="46.91692" lon="8.65111">
        <ele>1192</ele>
        <time>2021-08-07T10:52:57.553Z</time>
      </trkpt>
      <trkpt lat="46.91692" lon="8.65111">
        <ele>1192</ele>
        <time>2021-08-07T10:52:58.552Z</time>
      </trkpt>
      <trkpt lat="46.91692" lon="8.65111">
        <ele>1192</ele>
        <time>2021-08-07T10:52:59.552Z</time>
      </trkpt>
      <trkpt lat="46.91692" lon="8.65109">
        <ele>1192</ele>
        <time>2021-08-07T10:53:00.552Z</time>
      </trkpt>
      <trkpt lat="46.91691" lon="8.65108">
        <ele>1192</ele>
        <time>2021-08-07T10:53:01.552Z</time>
      </trkpt>
      <trkpt lat="46.91691" lon="8.65107">
        <ele>1191</ele>
        <time>2021-08-07T10:53:02.552Z</time>
      </trkpt>
      <trkpt lat="46.9169" lon="8.65106">
        <ele>1190</ele>
        <time>2021-08-07T10:53:03.552Z</time>
      </trkpt>
      <trkpt lat="46.91689" lon="8.65105">
        <ele>1189</ele>
        <time>2021-08-07T10:53:04.552Z</time>
      </trkpt>
      <trkpt lat="46.91689" lon="8.65104">
        <ele>1189</ele>
        <time>2021-08-07T10:53:05.552Z</time>
      </trkpt>
      <trkpt lat="46.91689" lon="8.65102">
        <ele>1189</ele>
        <time>2021-08-07T10:53:06.552Z</time>
      </trkpt>
      <trkpt lat="46.91688" lon="8.65101">
        <ele>1188</ele>
        <time>2021-08-07T10:53:07.552Z</time>
      </trkpt>
      <trkpt lat="46.91687" lon="8.651">
        <ele>1188</ele>
        <time>2021-08-07T10:53:08.552Z</time>
      </trkpt>
      <trkpt lat="46.91687" lon="8.651">
        <ele>1188</ele>
        <time>2021-08-07T10:53:09.552Z</time>
      </trkpt>
      <trkpt lat="46.91686" lon="8.651">
        <ele>1188</ele>
        <time>2021-08-07T10:53:10.552Z</time>
      </trkpt>
      <trkpt lat="46.91687" lon="8.65099">
        <ele>1188</ele>
        <time>2021-08-07T10:53:11.552Z</time>
      </trkpt>
      <trkpt lat="46.91686" lon="8.651">
        <ele>1187</ele>
        <time>2021-08-07T10:53:12.552Z</time>
      </trkpt>
      <trkpt lat="46.91687" lon="8.65102">
        <ele>1186</ele>
        <time>2021-08-07T10:53:13.552Z</time>
      </trkpt>
      <trkpt lat="46.91686" lon="8.65102">
        <ele>1186</ele>
        <time>2021-08-07T10:53:14.552Z</time>
      </trkpt>
      <trkpt lat="46.91687" lon="8.65103">
        <ele>1186</ele>
        <time>2021-08-07T10:53:15.552Z</time>
      </trkpt>
      <trkpt lat="46.91688" lon="8.65102">
        <ele>1186</ele>
        <time>2021-08-07T10:53:16.552Z</time>
      </trkpt>
      <trkpt lat="46.91689" lon="8.65102">
        <ele>1186</ele>
        <time>2021-08-07T10:53:17.552Z</time>
      </trkpt>
      <trkpt lat="46.9169" lon="8.65102">
        <ele>1185</ele>
        <time>2021-08-07T10:53:18.552Z</time>
      </trkpt>
      <trkpt lat="46.9169" lon="8.65101">
        <ele>1185</ele>
        <time>2021-08-07T10:53:19.552Z</time>
      </trkpt>
      <trkpt lat="46.91691" lon="8.65102">
        <ele>1186</ele>
        <time>2021-08-07T10:53:20.553Z</time>
      </trkpt>
      <trkpt lat="46.91692" lon="8.65101">
        <ele>1186</ele>
        <time>2021-08-07T10:53:21.552Z</time>
      </trkpt>
      <trkpt lat="46.91693" lon="8.65101">
        <ele>1186</ele>
        <time>2021-08-07T10:53:22.552Z</time>
      </trkpt>
      <trkpt lat="46.91692" lon="8.65102">
        <ele>1186</ele>
        <time>2021-08-07T10:53:23.552Z</time>
      </trkpt>
      <trkpt lat="46.91692" lon="8.65102">
        <ele>1186</ele>
        <time>2021-08-07T10:53:24.552Z</time>
      </trkpt>
      <trkpt lat="46.91691" lon="8.65101">
        <ele>1185</ele>
        <time>2021-08-07T10:53:25.553Z</time>
      </trkpt>
      <trkpt lat="46.9169" lon="8.651">
        <ele>1185</ele>
        <time>2021-08-07T10:53:26.552Z</time>
      </trkpt>
      <trkpt lat="46.91689" lon="8.65099">
        <ele>1185</ele>
        <time>2021-08-07T10:53:27.553Z</time>
      </trkpt>
      <trkpt lat="46.91689" lon="8.65098">
        <ele>1185</ele>
        <time>2021-08-07T10:53:28.552Z</time>
      </trkpt>
      <trkpt lat="46.91688" lon="8.65097">
        <ele>1185</ele>
        <time>2021-08-07T10:53:29.553Z</time>
      </trkpt>
      <trkpt lat="46.91688" lon="8.65097">
        <ele>1185</ele>
        <time>2021-08-07T10:53:30.553Z</time>
      </trkpt>
      <trkpt lat="46.91688" lon="8.65097">
        <ele>1185</ele>
        <time>2021-08-07T10:53:31.553Z</time>
      </trkpt>
      <trkpt lat="46.91688" lon="8.65098">
        <ele>1185</ele>
        <time>2021-08-07T10:53:32.553Z</time>
      </trkpt>
      <trkpt lat="46.91687" lon="8.65098">
        <ele>1185</ele>
        <time>2021-08-07T10:53:33.553Z</time>
      </trkpt>
      <trkpt lat="46.91687" lon="8.65098">
        <ele>1185</ele>
        <time>2021-08-07T10:53:34.553Z</time>
      </trkpt>
      <trkpt lat="46.91686" lon="8.65098">
        <ele>1185</ele>
        <time>2021-08-07T10:53:35.553Z</time>
      </trkpt>
      <trkpt lat="46.91686" lon="8.65098">
        <ele>1184</ele>
        <time>2021-08-07T10:53:36.552Z</time>
      </trkpt>
      <trkpt lat="46.91686" lon="8.65098">
        <ele>1184</ele>
        <time>2021-08-07T10:53:37.553Z</time>
      </trkpt>
      <trkpt lat="46.91685" lon="8.65098">
        <ele>1183</ele>
        <time>2021-08-07T10:53:38.553Z</time>
      </trkpt>
      <trkpt lat="46.91684" lon="8.65097">
        <ele>1183</ele>
        <time>2021-08-07T10:53:39.553Z</time>
      </trkpt>
      <trkpt lat="46.91684" lon="8.65096">
        <ele>1183</ele>
        <time>2021-08-07T10:53:40.553Z</time>
      </trkpt>
      <trkpt lat="46.91683" lon="8.65095">
        <ele>1183</ele>
        <time>2021-08-07T10:53:41.552Z</time>
      </trkpt>
      <trkpt lat="46.91683" lon="8.65095">
        <ele>1183</ele>
        <time>2021-08-07T10:53:42.553Z</time>
      </trkpt>
      <trkpt lat="46.9168" lon="8.65093">
        <ele>1183</ele>
        <time>2021-08-07T10:53:43.553Z</time>
      </trkpt>
      <trkpt lat="46.91678" lon="8.65092">
        <ele>1183</ele>
        <time>2021-08-07T10:53:44.553Z</time>
      </trkpt>
      <trkpt lat="46.91677" lon="8.65091">
        <ele>1183</ele>
        <time>2021-08-07T10:53:45.552Z</time>
      </trkpt>
      <trkpt lat="46.91676" lon="8.6509">
        <ele>1183</ele>
        <time>2021-08-07T10:53:46.552Z</time>
      </trkpt>
      <trkpt lat="46.91675" lon="8.65089">
        <ele>1183</ele>
        <time>2021-08-07T10:53:47.553Z</time>
      </trkpt>
      <trkpt lat="46.91673" lon="8.65089">
        <ele>1182</ele>
        <time>2021-08-07T10:53:48.553Z</time>
      </trkpt>
      <trkpt lat="46.91672" lon="8.65088">
        <ele>1182</ele>
        <time>2021-08-07T10:53:49.553Z</time>
      </trkpt>
      <trkpt lat="46.9167" lon="8.65088">
        <ele>1182</ele>
        <time>2021-08-07T10:53:50.553Z</time>
      </trkpt>
      <trkpt lat="46.91669" lon="8.65088">
        <ele>1182</ele>
        <time>2021-08-07T10:53:51.553Z</time>
      </trkpt>
      <trkpt lat="46.91668" lon="8.65087">
        <ele>1182</ele>
        <time>2021-08-07T10:53:52.552Z</time>
      </trkpt>
      <trkpt lat="46.91668" lon="8.65086">
        <ele>1182</ele>
        <time>2021-08-07T10:53:53.553Z</time>
      </trkpt>
      <trkpt lat="46.91668" lon="8.65086">
        <ele>1182</ele>
        <time>2021-08-07T10:53:54.553Z</time>
      </trkpt>
      <trkpt lat="46.91668" lon="8.65085">
        <ele>1182</ele>
        <time>2021-08-07T10:53:55.552Z</time>
      </trkpt>
      <trkpt lat="46.91667" lon="8.65085">
        <ele>1182</ele>
        <time>2021-08-07T10:53:56.553Z</time>
      </trkpt>
      <trkpt lat="46.91666" lon="8.65085">
        <ele>1182</ele>
        <time>2021-08-07T10:53:57.553Z</time>
      </trkpt>
      <trkpt lat="46.91665" lon="8.65085">
        <ele>1182</ele>
        <time>2021-08-07T10:53:58.553Z</time>
      </trkpt>
      <trkpt lat="46.91663" lon="8.65084">
        <ele>1182</ele>
        <time>2021-08-07T10:53:59.552Z</time>
      </trkpt>
      <trkpt lat="46.91662" lon="8.65083">
        <ele>1181</ele>
        <time>2021-08-07T10:54:00.553Z</time>
      </trkpt>
      <trkpt lat="46.91661" lon="8.65084">
        <ele>1181</ele>
        <time>2021-08-07T10:54:01.553Z</time>
      </trkpt>
      <trkpt lat="46.9166" lon="8.65084">
        <ele>1181</ele>
        <time>2021-08-07T10:54:02.553Z</time>
      </trkpt>
      <trkpt lat="46.91659" lon="8.65085">
        <ele>1180</ele>
        <time>2021-08-07T10:54:03.553Z</time>
      </trkpt>
      <trkpt lat="46.91658" lon="8.65085">
        <ele>1180</ele>
        <time>2021-08-07T10:54:04.552Z</time>
      </trkpt>
      <trkpt lat="46.91658" lon="8.65085">
        <ele>1179</ele>
        <time>2021-08-07T10:54:05.552Z</time>
      </trkpt>
      <trkpt lat="46.91658" lon="8.65085">
        <ele>1179</ele>
        <time>2021-08-07T10:54:06.552Z</time>
      </trkpt>
      <trkpt lat="46.91658" lon="8.65085">
        <ele>1179</ele>
        <time>2021-08-07T10:54:07.552Z</time>
      </trkpt>
      <trkpt lat="46.91658" lon="8.65084">
        <ele>1179</ele>
        <time>2021-08-07T10:54:08.552Z</time>
      </trkpt>
      <trkpt lat="46.91657" lon="8.65085">
        <ele>1179</ele>
        <time>2021-08-07T10:54:09.553Z</time>
      </trkpt>
      <trkpt lat="46.91657" lon="8.65085">
        <ele>1178</ele>
        <time>2021-08-07T10:54:10.552Z</time>
      </trkpt>
      <trkpt lat="46.91656" lon="8.65085">
        <ele>1178</ele>
        <time>2021-08-07T10:54:11.552Z</time>
      </trkpt>
      <trkpt lat="46.91655" lon="8.65085">
        <ele>1177</ele>
        <time>2021-08-07T10:54:12.552Z</time>
      </trkpt>
      <trkpt lat="46.91653" lon="8.65086">
        <ele>1177</ele>
        <time>2021-08-07T10:54:13.552Z</time>
      </trkpt>
      <trkpt lat="46.91652" lon="8.65086">
        <ele>1177</ele>
        <time>2021-08-07T10:54:14.552Z</time>
      </trkpt>
      <trkpt lat="46.91651" lon="8.65086">
        <ele>1177</ele>
        <time>2021-08-07T10:54:15.553Z</time>
      </trkpt>
      <trkpt lat="46.9165" lon="8.65086">
        <ele>1177</ele>
        <time>2021-08-07T10:54:16.553Z</time>
      </trkpt>
      <trkpt lat="46.91649" lon="8.65086">
        <ele>1177</ele>
        <time>2021-08-07T10:54:17.553Z</time>
      </trkpt>
      <trkpt lat="46.91648" lon="8.65086">
        <ele>1177</ele>
        <time>2021-08-07T10:54:18.552Z</time>
      </trkpt>
      <trkpt lat="46.91648" lon="8.65086">
        <ele>1176</ele>
        <time>2021-08-07T10:54:19.553Z</time>
      </trkpt>
      <trkpt lat="46.91647" lon="8.65085">
        <ele>1177</ele>
        <time>2021-08-07T10:54:20.553Z</time>
      </trkpt>
      <trkpt lat="46.91646" lon="8.65085">
        <ele>1176</ele>
        <time>2021-08-07T10:54:21.553Z</time>
      </trkpt>
      <trkpt lat="46.91645" lon="8.65086">
        <ele>1176</ele>
        <time>2021-08-07T10:54:32.755Z</time>
      </trkpt>
      <trkpt lat="46.91644" lon="8.65086">
        <ele>1176</ele>
        <time>2021-08-07T10:54:33.755Z</time>
      </trkpt>
      <trkpt lat="46.91643" lon="8.65086">
        <ele>1176</ele>
        <time>2021-08-07T10:54:34.756Z</time>
      </trkpt>
      <trkpt lat="46.91643" lon="8.65086">
        <ele>1176</ele>
        <time>2021-08-07T10:54:35.756Z</time>
      </trkpt>
      <trkpt lat="46.91642" lon="8.65086">
        <ele>1176</ele>
        <time>2021-08-07T10:54:36.755Z</time>
      </trkpt>
      <trkpt lat="46.91642" lon="8.65086">
        <ele>1176</ele>
        <time>2021-08-07T10:54:37.756Z</time>
      </trkpt>
      <trkpt lat="46.91641" lon="8.65086">
        <ele>1177</ele>
        <time>2021-08-07T10:54:38.756Z</time>
      </trkpt>
      <trkpt lat="46.9164" lon="8.65087">
        <ele>1177</ele>
        <time>2021-08-07T10:54:39.756Z</time>
      </trkpt>
      <trkpt lat="46.91639" lon="8.65088">
        <ele>1177</ele>
        <time>2021-08-07T10:54:40.755Z</time>
      </trkpt>
      <trkpt lat="46.91637" lon="8.65088">
        <ele>1177</ele>
        <time>2021-08-07T10:54:41.755Z</time>
      </trkpt>
      <trkpt lat="46.91636" lon="8.65088">
        <ele>1177</ele>
        <time>2021-08-07T10:54:42.755Z</time>
      </trkpt>
      <trkpt lat="46.91635" lon="8.65087">
        <ele>1177</ele>
        <time>2021-08-07T10:54:43.756Z</time>
      </trkpt>
      <trkpt lat="46.91634" lon="8.65087">
        <ele>1178</ele>
        <time>2021-08-07T10:54:44.756Z</time>
      </trkpt>
      <trkpt lat="46.91633" lon="8.65086">
        <ele>1178</ele>
        <time>2021-08-07T10:54:45.755Z</time>
      </trkpt>
      <trkpt lat="46.91631" lon="8.65086">
        <ele>1178</ele>
        <time>2021-08-07T10:54:46.755Z</time>
      </trkpt>
      <trkpt lat="46.9163" lon="8.65087">
        <ele>1178</ele>
        <time>2021-08-07T10:54:47.755Z</time>
      </trkpt>
      <trkpt lat="46.91628" lon="8.65087">
        <ele>1178</ele>
        <time>2021-08-07T10:54:48.756Z</time>
      </trkpt>
      <trkpt lat="46.91627" lon="8.65087">
        <ele>1177</ele>
        <time>2021-08-07T10:54:49.755Z</time>
      </trkpt>
      <trkpt lat="46.91626" lon="8.65086">
        <ele>1177</ele>
        <time>2021-08-07T10:54:50.756Z</time>
      </trkpt>
      <trkpt lat="46.91625" lon="8.65085">
        <ele>1177</ele>
        <time>2021-08-07T10:54:51.756Z</time>
      </trkpt>
      <trkpt lat="46.91624" lon="8.65084">
        <ele>1177</ele>
        <time>2021-08-07T10:54:52.756Z</time>
      </trkpt>
      <trkpt lat="46.91623" lon="8.65084">
        <ele>1176</ele>
        <time>2021-08-07T10:54:53.756Z</time>
      </trkpt>
      <trkpt lat="46.91622" lon="8.65084">
        <ele>1176</ele>
        <time>2021-08-07T10:54:54.756Z</time>
      </trkpt>
      <trkpt lat="46.91621" lon="8.65084">
        <ele>1175</ele>
        <time>2021-08-07T10:54:55.756Z</time>
      </trkpt>
      <trkpt lat="46.91621" lon="8.65085">
        <ele>1175</ele>
        <time>2021-08-07T10:54:56.756Z</time>
      </trkpt>
      <trkpt lat="46.9162" lon="8.65085">
        <ele>1174</ele>
        <time>2021-08-07T10:54:57.755Z</time>
      </trkpt>
      <trkpt lat="46.91619" lon="8.65085">
        <ele>1174</ele>
        <time>2021-08-07T10:54:58.756Z</time>
      </trkpt>
      <trkpt lat="46.91619" lon="8.65085">
        <ele>1173</ele>
        <time>2021-08-07T10:54:59.755Z</time>
      </trkpt>
      <trkpt lat="46.91618" lon="8.65085">
        <ele>1173</ele>
        <time>2021-08-07T10:55:00.756Z</time>
      </trkpt>
      <trkpt lat="46.91616" lon="8.65084">
        <ele>1173</ele>
        <time>2021-08-07T10:55:01.755Z</time>
      </trkpt>
      <trkpt lat="46.91615" lon="8.65083">
        <ele>1173</ele>
        <time>2021-08-07T10:55:02.756Z</time>
      </trkpt>
      <trkpt lat="46.91614" lon="8.65083">
        <ele>1174</ele>
        <time>2021-08-07T10:55:03.755Z</time>
      </trkpt>
      <trkpt lat="46.91612" lon="8.65083">
        <ele>1174</ele>
        <time>2021-08-07T10:55:04.755Z</time>
      </trkpt>
      <trkpt lat="46.91612" lon="8.65083">
        <ele>1174</ele>
        <time>2021-08-07T10:55:05.756Z</time>
      </trkpt>
      <trkpt lat="46.91611" lon="8.65084">
        <ele>1173</ele>
        <time>2021-08-07T10:55:06.756Z</time>
      </trkpt>
      <trkpt lat="46.9161" lon="8.65084">
        <ele>1173</ele>
        <time>2021-08-07T10:55:07.756Z</time>
      </trkpt>
      <trkpt lat="46.91609" lon="8.65084">
        <ele>1173</ele>
        <time>2021-08-07T10:55:08.755Z</time>
      </trkpt>
      <trkpt lat="46.91608" lon="8.65084">
        <ele>1173</ele>
        <time>2021-08-07T10:55:09.756Z</time>
      </trkpt>
      <trkpt lat="46.91606" lon="8.65083">
        <ele>1173</ele>
        <time>2021-08-07T10:55:10.756Z</time>
      </trkpt>
      <trkpt lat="46.91605" lon="8.65083">
        <ele>1173</ele>
        <time>2021-08-07T10:55:11.755Z</time>
      </trkpt>
      <trkpt lat="46.91603" lon="8.65083">
        <ele>1173</ele>
        <time>2021-08-07T10:55:12.755Z</time>
      </trkpt>
      <trkpt lat="46.91601" lon="8.65083">
        <ele>1173</ele>
        <time>2021-08-07T10:55:13.756Z</time>
      </trkpt>
      <trkpt lat="46.916" lon="8.65084">
        <ele>1172</ele>
        <time>2021-08-07T10:55:14.756Z</time>
      </trkpt>
      <trkpt lat="46.91599" lon="8.65084">
        <ele>1172</ele>
        <time>2021-08-07T10:55:15.756Z</time>
      </trkpt>
      <trkpt lat="46.91597" lon="8.65085">
        <ele>1172</ele>
        <time>2021-08-07T10:55:16.756Z</time>
      </trkpt>
      <trkpt lat="46.91596" lon="8.65085">
        <ele>1172</ele>
        <time>2021-08-07T10:55:17.756Z</time>
      </trkpt>
      <trkpt lat="46.91595" lon="8.65086">
        <ele>1172</ele>
        <time>2021-08-07T10:55:18.756Z</time>
      </trkpt>
      <trkpt lat="46.91594" lon="8.65087">
        <ele>1172</ele>
        <time>2021-08-07T10:55:19.756Z</time>
      </trkpt>
      <trkpt lat="46.91593" lon="8.65087">
        <ele>1172</ele>
        <time>2021-08-07T10:55:20.755Z</time>
      </trkpt>
      <trkpt lat="46.91592" lon="8.65086">
        <ele>1172</ele>
        <time>2021-08-07T10:55:21.756Z</time>
      </trkpt>
      <trkpt lat="46.91591" lon="8.65086">
        <ele>1172</ele>
        <time>2021-08-07T10:55:22.756Z</time>
      </trkpt>
      <trkpt lat="46.9159" lon="8.65086">
        <ele>1172</ele>
        <time>2021-08-07T10:55:23.755Z</time>
      </trkpt>
      <trkpt lat="46.91589" lon="8.65087">
        <ele>1172</ele>
        <time>2021-08-07T10:55:24.755Z</time>
      </trkpt>
      <trkpt lat="46.91588" lon="8.65087">
        <ele>1172</ele>
        <time>2021-08-07T10:55:25.755Z</time>
      </trkpt>
      <trkpt lat="46.91586" lon="8.65088">
        <ele>1172</ele>
        <time>2021-08-07T10:55:26.756Z</time>
      </trkpt>
      <trkpt lat="46.91585" lon="8.65088">
        <ele>1171</ele>
        <time>2021-08-07T10:55:27.756Z</time>
      </trkpt>
      <trkpt lat="46.91584" lon="8.65089">
        <ele>1170</ele>
        <time>2021-08-07T10:55:28.755Z</time>
      </trkpt>
      <trkpt lat="46.91584" lon="8.65089">
        <ele>1170</ele>
        <time>2021-08-07T10:55:29.756Z</time>
      </trkpt>
      <trkpt lat="46.91582" lon="8.6509">
        <ele>1169</ele>
        <time>2021-08-07T10:55:30.755Z</time>
      </trkpt>
      <trkpt lat="46.91581" lon="8.6509">
        <ele>1169</ele>
        <time>2021-08-07T10:55:31.756Z</time>
      </trkpt>
      <trkpt lat="46.9158" lon="8.65091">
        <ele>1168</ele>
        <time>2021-08-07T10:55:32.756Z</time>
      </trkpt>
      <trkpt lat="46.91579" lon="8.65092">
        <ele>1168</ele>
        <time>2021-08-07T10:55:33.756Z</time>
      </trkpt>
      <trkpt lat="46.91578" lon="8.65092">
        <ele>1168</ele>
        <time>2021-08-07T10:55:34.756Z</time>
      </trkpt>
      <trkpt lat="46.91577" lon="8.65093">
        <ele>1167</ele>
        <time>2021-08-07T10:55:35.756Z</time>
      </trkpt>
      <trkpt lat="46.91576" lon="8.65094">
        <ele>1167</ele>
        <time>2021-08-07T10:55:36.756Z</time>
      </trkpt>
      <trkpt lat="46.91575" lon="8.65094">
        <ele>1167</ele>
        <time>2021-08-07T10:55:37.755Z</time>
      </trkpt>
      <trkpt lat="46.91574" lon="8.65095">
        <ele>1167</ele>
        <time>2021-08-07T10:55:38.756Z</time>
      </trkpt>
      <trkpt lat="46.91573" lon="8.65095">
        <ele>1167</ele>
        <time>2021-08-07T10:55:39.756Z</time>
      </trkpt>
      <trkpt lat="46.91572" lon="8.65096">
        <ele>1166</ele>
        <time>2021-08-07T10:55:40.756Z</time>
      </trkpt>
      <trkpt lat="46.91572" lon="8.65095">
        <ele>1166</ele>
        <time>2021-08-07T10:55:41.756Z</time>
      </trkpt>
      <trkpt lat="46.91571" lon="8.65095">
        <ele>1166</ele>
        <time>2021-08-07T10:55:42.756Z</time>
      </trkpt>
      <trkpt lat="46.91569" lon="8.65094">
        <ele>1167</ele>
        <time>2021-08-07T10:55:43.755Z</time>
      </trkpt>
      <trkpt lat="46.91568" lon="8.65094">
        <ele>1167</ele>
        <time>2021-08-07T10:55:44.756Z</time>
      </trkpt>
      <trkpt lat="46.91567" lon="8.65094">
        <ele>1167</ele>
        <time>2021-08-07T10:55:45.755Z</time>
      </trkpt>
      <trkpt lat="46.91566" lon="8.65095">
        <ele>1167</ele>
        <time>2021-08-07T10:55:46.755Z</time>
      </trkpt>
      <trkpt lat="46.91565" lon="8.65096">
        <ele>1167</ele>
        <time>2021-08-07T10:55:47.755Z</time>
      </trkpt>
      <trkpt lat="46.91564" lon="8.65096">
        <ele>1167</ele>
        <time>2021-08-07T10:55:48.755Z</time>
      </trkpt>
      <trkpt lat="46.91563" lon="8.65096">
        <ele>1167</ele>
        <time>2021-08-07T10:55:49.756Z</time>
      </trkpt>
      <trkpt lat="46.91562" lon="8.65097">
        <ele>1166</ele>
        <time>2021-08-07T10:55:50.755Z</time>
      </trkpt>
      <trkpt lat="46.91561" lon="8.65097">
        <ele>1165</ele>
        <time>2021-08-07T10:55:51.756Z</time>
      </trkpt>
      <trkpt lat="46.91559" lon="8.65097">
        <ele>1165</ele>
        <time>2021-08-07T10:55:52.756Z</time>
      </trkpt>
      <trkpt lat="46.91558" lon="8.65097">
        <ele>1165</ele>
        <time>2021-08-07T10:55:53.756Z</time>
      </trkpt>
      <trkpt lat="46.91557" lon="8.65097">
        <ele>1164</ele>
        <time>2021-08-07T10:55:54.756Z</time>
      </trkpt>
      <trkpt lat="46.91556" lon="8.65096">
        <ele>1164</ele>
        <time>2021-08-07T10:55:55.755Z</time>
      </trkpt>
      <trkpt lat="46.91555" lon="8.65097">
        <ele>1164</ele>
        <time>2021-08-07T10:55:56.755Z</time>
      </trkpt>
      <trkpt lat="46.91554" lon="8.65097">
        <ele>1164</ele>
        <time>2021-08-07T10:55:57.755Z</time>
      </trkpt>
      <trkpt lat="46.91552" lon="8.65096">
        <ele>1164</ele>
        <time>2021-08-07T10:55:58.756Z</time>
      </trkpt>
      <trkpt lat="46.91551" lon="8.65096">
        <ele>1164</ele>
        <time>2021-08-07T10:55:59.756Z</time>
      </trkpt>
      <trkpt lat="46.9155" lon="8.65097">
        <ele>1164</ele>
        <time>2021-08-07T10:56:00.755Z</time>
      </trkpt>
      <trkpt lat="46.9155" lon="8.65098">
        <ele>1164</ele>
        <time>2021-08-07T10:56:01.756Z</time>
      </trkpt>
      <trkpt lat="46.91549" lon="8.65099">
        <ele>1164</ele>
        <time>2021-08-07T10:56:02.756Z</time>
      </trkpt>
      <trkpt lat="46.91549" lon="8.65101">
        <ele>1164</ele>
        <time>2021-08-07T10:56:03.755Z</time>
      </trkpt>
      <trkpt lat="46.91548" lon="8.65101">
        <ele>1163</ele>
        <time>2021-08-07T10:56:04.756Z</time>
      </trkpt>
      <trkpt lat="46.91547" lon="8.65102">
        <ele>1163</ele>
        <time>2021-08-07T10:56:05.756Z</time>
      </trkpt>
      <trkpt lat="46.91545" lon="8.65102">
        <ele>1163</ele>
        <time>2021-08-07T10:56:06.755Z</time>
      </trkpt>
      <trkpt lat="46.91544" lon="8.65103">
        <ele>1163</ele>
        <time>2021-08-07T10:56:07.755Z</time>
      </trkpt>
      <trkpt lat="46.91543" lon="8.65103">
        <ele>1163</ele>
        <time>2021-08-07T10:56:08.756Z</time>
      </trkpt>
      <trkpt lat="46.91542" lon="8.65103">
        <ele>1162</ele>
        <time>2021-08-07T10:56:09.756Z</time>
      </trkpt>
      <trkpt lat="46.91541" lon="8.65104">
        <ele>1162</ele>
        <time>2021-08-07T10:56:10.755Z</time>
      </trkpt>
      <trkpt lat="46.91539" lon="8.65104">
        <ele>1161</ele>
        <time>2021-08-07T10:56:11.756Z</time>
      </trkpt>
      <trkpt lat="46.91538" lon="8.65103">
        <ele>1160</ele>
        <time>2021-08-07T10:56:12.756Z</time>
      </trkpt>
      <trkpt lat="46.91537" lon="8.65104">
        <ele>1160</ele>
        <time>2021-08-07T10:56:13.755Z</time>
      </trkpt>
      <trkpt lat="46.91536" lon="8.65104">
        <ele>1159</ele>
        <time>2021-08-07T10:56:14.756Z</time>
      </trkpt>
      <trkpt lat="46.91535" lon="8.65104">
        <ele>1159</ele>
        <time>2021-08-07T10:56:15.756Z</time>
      </trkpt>
      <trkpt lat="46.91533" lon="8.65104">
        <ele>1159</ele>
        <time>2021-08-07T10:56:16.755Z</time>
      </trkpt>
      <trkpt lat="46.91532" lon="8.65104">
        <ele>1159</ele>
        <time>2021-08-07T10:56:17.755Z</time>
      </trkpt>
      <trkpt lat="46.91531" lon="8.65104">
        <ele>1158</ele>
        <time>2021-08-07T10:56:18.755Z</time>
      </trkpt>
      <trkpt lat="46.9153" lon="8.65105">
        <ele>1158</ele>
        <time>2021-08-07T10:56:19.755Z</time>
      </trkpt>
      <trkpt lat="46.91529" lon="8.65105">
        <ele>1157</ele>
        <time>2021-08-07T10:56:20.755Z</time>
      </trkpt>
      <trkpt lat="46.91528" lon="8.65104">
        <ele>1157</ele>
        <time>2021-08-07T10:56:21.755Z</time>
      </trkpt>
      <trkpt lat="46.91527" lon="8.65105">
        <ele>1157</ele>
        <time>2021-08-07T10:56:22.755Z</time>
      </trkpt>
      <trkpt lat="46.91526" lon="8.65106">
        <ele>1156</ele>
        <time>2021-08-07T10:56:23.756Z</time>
      </trkpt>
      <trkpt lat="46.91525" lon="8.65106">
        <ele>1156</ele>
        <time>2021-08-07T10:56:24.755Z</time>
      </trkpt>
      <trkpt lat="46.91524" lon="8.65106">
        <ele>1157</ele>
        <time>2021-08-07T10:56:25.755Z</time>
      </trkpt>
      <trkpt lat="46.91523" lon="8.65107">
        <ele>1157</ele>
        <time>2021-08-07T10:56:26.755Z</time>
      </trkpt>
      <trkpt lat="46.91521" lon="8.65107">
        <ele>1157</ele>
        <time>2021-08-07T10:56:27.756Z</time>
      </trkpt>
      <trkpt lat="46.9152" lon="8.65107">
        <ele>1157</ele>
        <time>2021-08-07T10:56:28.755Z</time>
      </trkpt>
      <trkpt lat="46.91519" lon="8.65107">
        <ele>1157</ele>
        <time>2021-08-07T10:56:29.755Z</time>
      </trkpt>
      <trkpt lat="46.91518" lon="8.65107">
        <ele>1157</ele>
        <time>2021-08-07T10:56:30.755Z</time>
      </trkpt>
      <trkpt lat="46.91517" lon="8.65107">
        <ele>1157</ele>
        <time>2021-08-07T10:56:31.756Z</time>
      </trkpt>
      <trkpt lat="46.91515" lon="8.65107">
        <ele>1157</ele>
        <time>2021-08-07T10:56:32.756Z</time>
      </trkpt>
      <trkpt lat="46.91514" lon="8.65107">
        <ele>1156</ele>
        <time>2021-08-07T10:56:33.755Z</time>
      </trkpt>
      <trkpt lat="46.91513" lon="8.65106">
        <ele>1156</ele>
        <time>2021-08-07T10:56:34.756Z</time>
      </trkpt>
      <trkpt lat="46.91512" lon="8.65106">
        <ele>1156</ele>
        <time>2021-08-07T10:56:35.755Z</time>
      </trkpt>
      <trkpt lat="46.91511" lon="8.65106">
        <ele>1156</ele>
        <time>2021-08-07T10:56:36.755Z</time>
      </trkpt>
      <trkpt lat="46.9151" lon="8.65106">
        <ele>1155</ele>
        <time>2021-08-07T10:56:37.755Z</time>
      </trkpt>
      <trkpt lat="46.91509" lon="8.65105">
        <ele>1155</ele>
        <time>2021-08-07T10:56:38.755Z</time>
      </trkpt>
      <trkpt lat="46.91508" lon="8.65104">
        <ele>1155</ele>
        <time>2021-08-07T10:56:39.755Z</time>
      </trkpt>
      <trkpt lat="46.91507" lon="8.65104">
        <ele>1155</ele>
        <time>2021-08-07T10:56:40.756Z</time>
      </trkpt>
      <trkpt lat="46.91506" lon="8.65104">
        <ele>1154</ele>
        <time>2021-08-07T10:56:41.756Z</time>
      </trkpt>
      <trkpt lat="46.91505" lon="8.65103">
        <ele>1154</ele>
        <time>2021-08-07T10:56:42.756Z</time>
      </trkpt>
      <trkpt lat="46.91503" lon="8.65103">
        <ele>1154</ele>
        <time>2021-08-07T10:56:43.756Z</time>
      </trkpt>
      <trkpt lat="46.91502" lon="8.65102">
        <ele>1155</ele>
        <time>2021-08-07T10:56:44.756Z</time>
      </trkpt>
      <trkpt lat="46.91501" lon="8.65102">
        <ele>1154</ele>
        <time>2021-08-07T10:56:45.755Z</time>
      </trkpt>
      <trkpt lat="46.91499" lon="8.65102">
        <ele>1154</ele>
        <time>2021-08-07T10:56:46.755Z</time>
      </trkpt>
      <trkpt lat="46.91498" lon="8.65102">
        <ele>1154</ele>
        <time>2021-08-07T10:56:47.755Z</time>
      </trkpt>
      <trkpt lat="46.91497" lon="8.65101">
        <ele>1153</ele>
        <time>2021-08-07T10:56:48.755Z</time>
      </trkpt>
      <trkpt lat="46.91495" lon="8.651">
        <ele>1153</ele>
        <time>2021-08-07T10:56:53.820Z</time>
      </trkpt>
      <trkpt lat="46.91494" lon="8.651">
        <ele>1153</ele>
        <time>2021-08-07T10:56:54.819Z</time>
      </trkpt>
      <trkpt lat="46.91493" lon="8.651">
        <ele>1152</ele>
        <time>2021-08-07T10:56:55.819Z</time>
      </trkpt>
      <trkpt lat="46.91492" lon="8.651">
        <ele>1152</ele>
        <time>2021-08-07T10:56:56.819Z</time>
      </trkpt>
      <trkpt lat="46.9149" lon="8.65101">
        <ele>1152</ele>
        <time>2021-08-07T10:56:57.820Z</time>
      </trkpt>
      <trkpt lat="46.91489" lon="8.65101">
        <ele>1152</ele>
        <time>2021-08-07T10:56:58.820Z</time>
      </trkpt>
      <trkpt lat="46.91487" lon="8.651">
        <ele>1152</ele>
        <time>2021-08-07T10:56:59.820Z</time>
      </trkpt>
      <trkpt lat="46.91486" lon="8.65099">
        <ele>1152</ele>
        <time>2021-08-07T10:57:00.819Z</time>
      </trkpt>
      <trkpt lat="46.91484" lon="8.65099">
        <ele>1152</ele>
        <time>2021-08-07T10:57:01.820Z</time>
      </trkpt>
      <trkpt lat="46.91483" lon="8.65098">
        <ele>1152</ele>
        <time>2021-08-07T10:57:03.962Z</time>
      </trkpt>
      <trkpt lat="46.91481" lon="8.65097">
        <ele>1152</ele>
        <time>2021-08-07T10:57:04.962Z</time>
      </trkpt>
      <trkpt lat="46.9148" lon="8.65096">
        <ele>1153</ele>
        <time>2021-08-07T10:57:05.962Z</time>
      </trkpt>
      <trkpt lat="46.91479" lon="8.65095">
        <ele>1152</ele>
        <time>2021-08-07T10:57:06.962Z</time>
      </trkpt>
      <trkpt lat="46.91478" lon="8.65094">
        <ele>1152</ele>
        <time>2021-08-07T10:57:07.962Z</time>
      </trkpt>
      <trkpt lat="46.91477" lon="8.65094">
        <ele>1152</ele>
        <time>2021-08-07T10:57:08.962Z</time>
      </trkpt>
      <trkpt lat="46.91476" lon="8.65092">
        <ele>1152</ele>
        <time>2021-08-07T10:57:09.962Z</time>
      </trkpt>
      <trkpt lat="46.91474" lon="8.65091">
        <ele>1153</ele>
        <time>2021-08-07T10:57:10.962Z</time>
      </trkpt>
      <trkpt lat="46.91473" lon="8.65091">
        <ele>1153</ele>
        <time>2021-08-07T10:57:11.962Z</time>
      </trkpt>
      <trkpt lat="46.91472" lon="8.65091">
        <ele>1153</ele>
        <time>2021-08-07T10:57:12.962Z</time>
      </trkpt>
      <trkpt lat="46.9147" lon="8.6509">
        <ele>1154</ele>
        <time>2021-08-07T10:57:13.962Z</time>
      </trkpt>
      <trkpt lat="46.91469" lon="8.6509">
        <ele>1155</ele>
        <time>2021-08-07T10:57:14.962Z</time>
      </trkpt>
      <trkpt lat="46.91467" lon="8.6509">
        <ele>1156</ele>
        <time>2021-08-07T10:57:15.962Z</time>
      </trkpt>
      <trkpt lat="46.91466" lon="8.65088">
        <ele>1156</ele>
        <time>2021-08-07T10:57:23.234Z</time>
      </trkpt>
      <trkpt lat="46.91464" lon="8.65088">
        <ele>1157</ele>
        <time>2021-08-07T10:57:25.078Z</time>
      </trkpt>
      <trkpt lat="46.91462" lon="8.65088">
        <ele>1157</ele>
        <time>2021-08-07T10:57:26.079Z</time>
      </trkpt>
      <trkpt lat="46.91461" lon="8.65088">
        <ele>1157</ele>
        <time>2021-08-07T10:57:27.078Z</time>
      </trkpt>
      <trkpt lat="46.9146" lon="8.65088">
        <ele>1158</ele>
        <time>2021-08-07T10:57:33.199Z</time>
      </trkpt>
      <trkpt lat="46.91458" lon="8.65088">
        <ele>1157</ele>
        <time>2021-08-07T10:57:35.049Z</time>
      </trkpt>
      <trkpt lat="46.91457" lon="8.65087">
        <ele>1157</ele>
        <time>2021-08-07T10:58:09.840Z</time>
      </trkpt>
      <trkpt lat="46.91455" lon="8.65087">
        <ele>1157</ele>
        <time>2021-08-07T10:58:10.841Z</time>
      </trkpt>
      <trkpt lat="46.91453" lon="8.65086">
        <ele>1157</ele>
        <time>2021-08-07T10:58:37.712Z</time>
      </trkpt>
      <trkpt lat="46.91452" lon="8.65087">
        <ele>1158</ele>
        <time>2021-08-07T10:58:38.713Z</time>
      </trkpt>
      <trkpt lat="46.91451" lon="8.65087">
        <ele>1158</ele>
        <time>2021-08-07T10:58:39.712Z</time>
      </trkpt>
      <trkpt lat="46.9145" lon="8.65087">
        <ele>1158</ele>
        <time>2021-08-07T10:58:40.713Z</time>
      </trkpt>
      <trkpt lat="46.91449" lon="8.65088">
        <ele>1158</ele>
        <time>2021-08-07T10:58:41.713Z</time>
      </trkpt>
      <trkpt lat="46.91447" lon="8.65089">
        <ele>1158</ele>
        <time>2021-08-07T10:58:42.713Z</time>
      </trkpt>
      <trkpt lat="46.91446" lon="8.65088">
        <ele>1158</ele>
        <time>2021-08-07T10:58:43.712Z</time>
      </trkpt>
      <trkpt lat="46.91444" lon="8.65088">
        <ele>1158</ele>
        <time>2021-08-07T10:58:54.710Z</time>
      </trkpt>
      <trkpt lat="46.91442" lon="8.65089">
        <ele>1158</ele>
        <time>2021-08-07T10:58:55.710Z</time>
      </trkpt>
      <trkpt lat="46.91441" lon="8.6509">
        <ele>1158</ele>
        <time>2021-08-07T10:59:11.463Z</time>
      </trkpt>
      <trkpt lat="46.91439" lon="8.6509">
        <ele>1158</ele>
        <time>2021-08-07T10:59:12.463Z</time>
      </trkpt>
      <trkpt lat="46.91438" lon="8.6509">
        <ele>1158</ele>
        <time>2021-08-07T10:59:13.463Z</time>
      </trkpt>
      <trkpt lat="46.91436" lon="8.6509">
        <ele>1159</ele>
        <time>2021-08-07T10:59:15.553Z</time>
      </trkpt>
      <trkpt lat="46.91435" lon="8.6509">
        <ele>1159</ele>
        <time>2021-08-07T10:59:28.335Z</time>
      </trkpt>
      <trkpt lat="46.91433" lon="8.65091">
        <ele>1159</ele>
        <time>2021-08-07T10:59:29.335Z</time>
      </trkpt>
      <trkpt lat="46.91432" lon="8.65091">
        <ele>1160</ele>
        <time>2021-08-07T10:59:35.215Z</time>
      </trkpt>
      <trkpt lat="46.9143" lon="8.65091">
        <ele>1160</ele>
        <time>2021-08-07T10:59:46.086Z</time>
      </trkpt>
      <trkpt lat="46.91428" lon="8.65091">
        <ele>1161</ele>
        <time>2021-08-07T11:00:32.857Z</time>
      </trkpt>
      <trkpt lat="46.91427" lon="8.6509">
        <ele>1162</ele>
        <time>2021-08-07T11:00:33.857Z</time>
      </trkpt>
      <trkpt lat="46.91425" lon="8.65089">
        <ele>1162</ele>
        <time>2021-08-07T11:00:34.857Z</time>
      </trkpt>
      <trkpt lat="46.91423" lon="8.65088">
        <ele>1163</ele>
        <time>2021-08-07T11:00:38.977Z</time>
      </trkpt>
      <trkpt lat="46.91422" lon="8.65087">
        <ele>1163</ele>
        <time>2021-08-07T11:00:39.976Z</time>
      </trkpt>
      <trkpt lat="46.9142" lon="8.65085">
        <ele>1163</ele>
        <time>2021-08-07T11:00:40.977Z</time>
      </trkpt>
      <trkpt lat="46.91418" lon="8.65084">
        <ele>1163</ele>
        <time>2021-08-07T11:00:57.099Z</time>
      </trkpt>
      <trkpt lat="46.91417" lon="8.65084">
        <ele>1163</ele>
        <time>2021-08-07T11:00:58.100Z</time>
      </trkpt>
      <trkpt lat="46.91416" lon="8.65083">
        <ele>1163</ele>
        <time>2021-08-07T11:01:08.830Z</time>
      </trkpt>
      <trkpt lat="46.91415" lon="8.65082">
        <ele>1163</ele>
        <time>2021-08-07T11:01:09.830Z</time>
      </trkpt>
      <trkpt lat="46.91414" lon="8.65082">
        <ele>1162</ele>
        <time>2021-08-07T11:01:10.829Z</time>
      </trkpt>
      <trkpt lat="46.91413" lon="8.65082">
        <ele>1162</ele>
        <time>2021-08-07T11:01:23.861Z</time>
      </trkpt>
      <trkpt lat="46.91412" lon="8.65081">
        <ele>1162</ele>
        <time>2021-08-07T11:01:24.861Z</time>
      </trkpt>
      <trkpt lat="46.9141" lon="8.65081">
        <ele>1161</ele>
        <time>2021-08-07T11:01:25.861Z</time>
      </trkpt>
      <trkpt lat="46.91409" lon="8.6508">
        <ele>1161</ele>
        <time>2021-08-07T11:01:30.587Z</time>
      </trkpt>
      <trkpt lat="46.91408" lon="8.65079">
        <ele>1160</ele>
        <time>2021-08-07T11:01:31.587Z</time>
      </trkpt>
      <trkpt lat="46.91407" lon="8.65079">
        <ele>1160</ele>
        <time>2021-08-07T11:01:32.587Z</time>
      </trkpt>
      <trkpt lat="46.91406" lon="8.65078">
        <ele>1159</ele>
        <time>2021-08-07T11:01:33.586Z</time>
      </trkpt>
      <trkpt lat="46.91405" lon="8.65078">
        <ele>1158</ele>
        <time>2021-08-07T11:01:46.714Z</time>
      </trkpt>
      <trkpt lat="46.91404" lon="8.65077">
        <ele>1158</ele>
        <time>2021-08-07T11:02:43.451Z</time>
      </trkpt>
      <trkpt lat="46.91403" lon="8.65077">
        <ele>1157</ele>
        <time>2021-08-07T11:02:45.212Z</time>
      </trkpt>
      <trkpt lat="46.91402" lon="8.65077">
        <ele>1157</ele>
        <time>2021-08-07T11:02:46.213Z</time>
      </trkpt>
      <trkpt lat="46.91401" lon="8.65076">
        <ele>1156</ele>
        <time>2021-08-07T11:02:47.213Z</time>
      </trkpt>
      <trkpt lat="46.914" lon="8.65076">
        <ele>1155</ele>
        <time>2021-08-07T11:02:58.359Z</time>
      </trkpt>
      <trkpt lat="46.91399" lon="8.65076">
        <ele>1155</ele>
        <time>2021-08-07T11:02:59.358Z</time>
      </trkpt>
      <trkpt lat="46.91398" lon="8.65076">
        <ele>1155</ele>
        <time>2021-08-07T11:03:00.358Z</time>
      </trkpt>
      <trkpt lat="46.91396" lon="8.65076">
        <ele>1154</ele>
        <time>2021-08-07T11:03:01.358Z</time>
      </trkpt>
      <trkpt lat="46.91395" lon="8.65075">
        <ele>1154</ele>
        <time>2021-08-07T11:03:02.358Z</time>
      </trkpt>
      <trkpt lat="46.91393" lon="8.65074">
        <ele>1154</ele>
        <time>2021-08-07T11:03:03.358Z</time>
      </trkpt>
      <trkpt lat="46.91392" lon="8.65073">
        <ele>1154</ele>
        <time>2021-08-07T11:03:04.358Z</time>
      </trkpt>
      <trkpt lat="46.9139" lon="8.65072">
        <ele>1153</ele>
        <time>2021-08-07T11:03:05.359Z</time>
      </trkpt>
      <trkpt lat="46.91389" lon="8.65072">
        <ele>1153</ele>
        <time>2021-08-07T11:03:11.494Z</time>
      </trkpt>
      <trkpt lat="46.91388" lon="8.65072">
        <ele>1153</ele>
        <time>2021-08-07T11:03:12.493Z</time>
      </trkpt>
      <trkpt lat="46.91387" lon="8.65071">
        <ele>1152</ele>
        <time>2021-08-07T11:03:13.494Z</time>
      </trkpt>
      <trkpt lat="46.91386" lon="8.6507">
        <ele>1152</ele>
        <time>2021-08-07T11:03:19.572Z</time>
      </trkpt>
      <trkpt lat="46.91384" lon="8.65071">
        <ele>1152</ele>
        <time>2021-08-07T11:03:20.571Z</time>
      </trkpt>
      <trkpt lat="46.91383" lon="8.65072">
        <ele>1152</ele>
        <time>2021-08-07T11:03:21.572Z</time>
      </trkpt>
      <trkpt lat="46.91381" lon="8.65073">
        <ele>1152</ele>
        <time>2021-08-07T11:03:22.572Z</time>
      </trkpt>
      <trkpt lat="46.91379" lon="8.65073">
        <ele>1152</ele>
        <time>2021-08-07T11:03:23.572Z</time>
      </trkpt>
      <trkpt lat="46.91376" lon="8.65075">
        <ele>1152</ele>
        <time>2021-08-07T11:03:24.572Z</time>
      </trkpt>
      <trkpt lat="46.91375" lon="8.65074">
        <ele>1152</ele>
        <time>2021-08-07T11:03:25.571Z</time>
      </trkpt>
      <trkpt lat="46.91374" lon="8.65073">
        <ele>1152</ele>
        <time>2021-08-07T11:03:26.572Z</time>
      </trkpt>
      <trkpt lat="46.91373" lon="8.65073">
        <ele>1151</ele>
        <time>2021-08-07T11:03:27.572Z</time>
      </trkpt>
      <trkpt lat="46.91372" lon="8.65072">
        <ele>1151</ele>
        <time>2021-08-07T11:03:50.681Z</time>
      </trkpt>
      <trkpt lat="46.91371" lon="8.65071">
        <ele>1151</ele>
        <time>2021-08-07T11:03:51.681Z</time>
      </trkpt>
      <trkpt lat="46.9137" lon="8.65071">
        <ele>1151</ele>
        <time>2021-08-07T11:04:15.443Z</time>
      </trkpt>
      <trkpt lat="46.91369" lon="8.65071">
        <ele>1150</ele>
        <time>2021-08-07T11:04:16.443Z</time>
      </trkpt>
      <trkpt lat="46.91367" lon="8.65071">
        <ele>1150</ele>
        <time>2021-08-07T11:04:22.188Z</time>
      </trkpt>
      <trkpt lat="46.91366" lon="8.65071">
        <ele>1150</ele>
        <time>2021-08-07T11:04:23.187Z</time>
      </trkpt>
      <trkpt lat="46.91365" lon="8.65071">
        <ele>1150</ele>
        <time>2021-08-07T11:04:24.188Z</time>
      </trkpt>
      <trkpt lat="46.91363" lon="8.65071">
        <ele>1150</ele>
        <time>2021-08-07T11:04:54.343Z</time>
      </trkpt>
      <trkpt lat="46.91362" lon="8.65071">
        <ele>1150</ele>
        <time>2021-08-07T11:04:55.342Z</time>
      </trkpt>
      <trkpt lat="46.9136" lon="8.65071">
        <ele>1150</ele>
        <time>2021-08-07T11:04:58.042Z</time>
      </trkpt>
      <trkpt lat="46.91359" lon="8.65071">
        <ele>1151</ele>
        <time>2021-08-07T11:04:59.826Z</time>
      </trkpt>
      <trkpt lat="46.91357" lon="8.65071">
        <ele>1151</ele>
        <time>2021-08-07T11:05:00.826Z</time>
      </trkpt>
      <trkpt lat="46.91355" lon="8.65071">
        <ele>1152</ele>
        <time>2021-08-07T11:05:09.561Z</time>
      </trkpt>
      <trkpt lat="46.91354" lon="8.65071">
        <ele>1152</ele>
        <time>2021-08-07T11:05:10.561Z</time>
      </trkpt>
      <trkpt lat="46.91353" lon="8.65071">
        <ele>1152</ele>
        <time>2021-08-07T11:05:11.561Z</time>
      </trkpt>
      <trkpt lat="46.91353" lon="8.65071">
        <ele>1152</ele>
        <time>2021-08-07T11:05:12.561Z</time>
      </trkpt>
      <trkpt lat="46.91353" lon="8.65071">
        <ele>1152</ele>
        <time>2021-08-07T11:05:13.561Z</time>
      </trkpt>
      <trkpt lat="46.91352" lon="8.65071">
        <ele>1152</ele>
        <time>2021-08-07T11:05:14.561Z</time>
      </trkpt>
      <trkpt lat="46.91352" lon="8.65072">
        <ele>1154</ele>
        <time>2021-08-07T11:05:15.562Z</time>
      </trkpt>
      <trkpt lat="46.91349" lon="8.65069">
        <ele>1155</ele>
        <time>2021-08-07T11:05:16.562Z</time>
      </trkpt>
      <trkpt lat="46.91349" lon="8.6507">
        <ele>1155</ele>
        <time>2021-08-07T11:05:17.562Z</time>
      </trkpt>
      <trkpt lat="46.91348" lon="8.6507">
        <ele>1155</ele>
        <time>2021-08-07T11:05:18.562Z</time>
      </trkpt>
      <trkpt lat="46.91348" lon="8.6507">
        <ele>1156</ele>
        <time>2021-08-07T11:05:19.563Z</time>
      </trkpt>
      <trkpt lat="46.91346" lon="8.6507">
        <ele>1156</ele>
        <time>2021-08-07T11:05:20.562Z</time>
      </trkpt>
      <trkpt lat="46.91345" lon="8.65071">
        <ele>1157</ele>
        <time>2021-08-07T11:05:21.563Z</time>
      </trkpt>
      <trkpt lat="46.91345" lon="8.65071">
        <ele>1158</ele>
        <time>2021-08-07T11:05:22.562Z</time>
      </trkpt>
      <trkpt lat="46.91344" lon="8.65071">
        <ele>1158</ele>
        <time>2021-08-07T11:05:23.563Z</time>
      </trkpt>
      <trkpt lat="46.91343" lon="8.65072">
        <ele>1159</ele>
        <time>2021-08-07T11:05:31.682Z</time>
      </trkpt>
      <trkpt lat="46.91342" lon="8.65072">
        <ele>1159</ele>
        <time>2021-08-07T11:05:32.681Z</time>
      </trkpt>
      <trkpt lat="46.91341" lon="8.65074">
        <ele>1160</ele>
        <time>2021-08-07T11:05:33.682Z</time>
      </trkpt>
      <trkpt lat="46.9134" lon="8.65074">
        <ele>1160</ele>
        <time>2021-08-07T11:05:34.682Z</time>
      </trkpt>
      <trkpt lat="46.91339" lon="8.65073">
        <ele>1161</ele>
        <time>2021-08-07T11:05:35.681Z</time>
      </trkpt>
      <trkpt lat="46.91339" lon="8.65073">
        <ele>1162</ele>
        <time>2021-08-07T11:05:36.682Z</time>
      </trkpt>
      <trkpt lat="46.91338" lon="8.65072">
        <ele>1162</ele>
        <time>2021-08-07T11:05:37.682Z</time>
      </trkpt>
      <trkpt lat="46.91338" lon="8.65071">
        <ele>1162</ele>
        <time>2021-08-07T11:05:38.681Z</time>
      </trkpt>
      <trkpt lat="46.91337" lon="8.6507">
        <ele>1162</ele>
        <time>2021-08-07T11:05:39.681Z</time>
      </trkpt>
      <trkpt lat="46.91336" lon="8.6507">
        <ele>1162</ele>
        <time>2021-08-07T11:05:40.682Z</time>
      </trkpt>
      <trkpt lat="46.91335" lon="8.6507">
        <ele>1162</ele>
        <time>2021-08-07T11:05:41.682Z</time>
      </trkpt>
      <trkpt lat="46.91335" lon="8.6507">
        <ele>1162</ele>
        <time>2021-08-07T11:05:42.682Z</time>
      </trkpt>
      <trkpt lat="46.91334" lon="8.65069">
        <ele>1162</ele>
        <time>2021-08-07T11:05:43.681Z</time>
      </trkpt>
      <trkpt lat="46.91334" lon="8.65067">
        <ele>1162</ele>
        <time>2021-08-07T11:05:44.682Z</time>
      </trkpt>
      <trkpt lat="46.91333" lon="8.65066">
        <ele>1162</ele>
        <time>2021-08-07T11:05:45.682Z</time>
      </trkpt>
      <trkpt lat="46.91332" lon="8.65065">
        <ele>1163</ele>
        <time>2021-08-07T11:05:46.682Z</time>
      </trkpt>
      <trkpt lat="46.91332" lon="8.65063">
        <ele>1163</ele>
        <time>2021-08-07T11:05:47.681Z</time>
      </trkpt>
      <trkpt lat="46.91331" lon="8.65062">
        <ele>1163</ele>
        <time>2021-08-07T11:05:48.681Z</time>
      </trkpt>
      <trkpt lat="46.91331" lon="8.6506">
        <ele>1164</ele>
        <time>2021-08-07T11:05:49.682Z</time>
      </trkpt>
      <trkpt lat="46.9133" lon="8.65059">
        <ele>1164</ele>
        <time>2021-08-07T11:05:50.682Z</time>
      </trkpt>
      <trkpt lat="46.91329" lon="8.65058">
        <ele>1164</ele>
        <time>2021-08-07T11:05:51.682Z</time>
      </trkpt>
      <trkpt lat="46.91328" lon="8.65057">
        <ele>1164</ele>
        <time>2021-08-07T11:05:52.681Z</time>
      </trkpt>
      <trkpt lat="46.91327" lon="8.65057">
        <ele>1164</ele>
        <time>2021-08-07T11:05:53.682Z</time>
      </trkpt>
      <trkpt lat="46.91326" lon="8.65054">
        <ele>1164</ele>
        <time>2021-08-07T11:05:54.681Z</time>
      </trkpt>
      <trkpt lat="46.91325" lon="8.65053">
        <ele>1164</ele>
        <time>2021-08-07T11:05:55.681Z</time>
      </trkpt>
      <trkpt lat="46.91324" lon="8.65052">
        <ele>1163</ele>
        <time>2021-08-07T11:05:56.682Z</time>
      </trkpt>
      <trkpt lat="46.91323" lon="8.6505">
        <ele>1162</ele>
        <time>2021-08-07T11:05:57.682Z</time>
      </trkpt>
      <trkpt lat="46.91322" lon="8.65049">
        <ele>1162</ele>
        <time>2021-08-07T11:05:58.681Z</time>
      </trkpt>
      <trkpt lat="46.91321" lon="8.65049">
        <ele>1161</ele>
        <time>2021-08-07T11:05:59.681Z</time>
      </trkpt>
      <trkpt lat="46.9132" lon="8.65047">
        <ele>1161</ele>
        <time>2021-08-07T11:06:00.682Z</time>
      </trkpt>
      <trkpt lat="46.9132" lon="8.65046">
        <ele>1160</ele>
        <time>2021-08-07T11:06:01.682Z</time>
      </trkpt>
      <trkpt lat="46.9132" lon="8.65045">
        <ele>1160</ele>
        <time>2021-08-07T11:06:02.682Z</time>
      </trkpt>
      <trkpt lat="46.91319" lon="8.65043">
        <ele>1159</ele>
        <time>2021-08-07T11:06:03.681Z</time>
      </trkpt>
      <trkpt lat="46.91319" lon="8.65042">
        <ele>1158</ele>
        <time>2021-08-07T11:06:04.682Z</time>
      </trkpt>
      <trkpt lat="46.91319" lon="8.6504">
        <ele>1157</ele>
        <time>2021-08-07T11:06:05.682Z</time>
      </trkpt>
      <trkpt lat="46.9132" lon="8.65038">
        <ele>1157</ele>
        <time>2021-08-07T11:06:06.682Z</time>
      </trkpt>
      <trkpt lat="46.9132" lon="8.65036">
        <ele>1156</ele>
        <time>2021-08-07T11:06:07.681Z</time>
      </trkpt>
      <trkpt lat="46.9132" lon="8.65035">
        <ele>1156</ele>
        <time>2021-08-07T11:06:08.682Z</time>
      </trkpt>
      <trkpt lat="46.91319" lon="8.65034">
        <ele>1155</ele>
        <time>2021-08-07T11:06:09.682Z</time>
      </trkpt>
      <trkpt lat="46.91318" lon="8.65033">
        <ele>1154</ele>
        <time>2021-08-07T11:06:10.682Z</time>
      </trkpt>
      <trkpt lat="46.91318" lon="8.65032">
        <ele>1154</ele>
        <time>2021-08-07T11:06:11.681Z</time>
      </trkpt>
      <trkpt lat="46.91317" lon="8.6503">
        <ele>1153</ele>
        <time>2021-08-07T11:06:12.682Z</time>
      </trkpt>
      <trkpt lat="46.91317" lon="8.65029">
        <ele>1153</ele>
        <time>2021-08-07T11:06:13.681Z</time>
      </trkpt>
      <trkpt lat="46.91317" lon="8.65028">
        <ele>1152</ele>
        <time>2021-08-07T11:06:14.682Z</time>
      </trkpt>
      <trkpt lat="46.91317" lon="8.65026">
        <ele>1152</ele>
        <time>2021-08-07T11:06:15.681Z</time>
      </trkpt>
      <trkpt lat="46.91317" lon="8.65025">
        <ele>1152</ele>
        <time>2021-08-07T11:06:16.682Z</time>
      </trkpt>
      <trkpt lat="46.91316" lon="8.65023">
        <ele>1152</ele>
        <time>2021-08-07T11:06:17.682Z</time>
      </trkpt>
      <trkpt lat="46.91316" lon="8.65022">
        <ele>1151</ele>
        <time>2021-08-07T11:06:18.682Z</time>
      </trkpt>
      <trkpt lat="46.91316" lon="8.65021">
        <ele>1151</ele>
        <time>2021-08-07T11:06:19.682Z</time>
      </trkpt>
      <trkpt lat="46.91315" lon="8.6502">
        <ele>1151</ele>
        <time>2021-08-07T11:06:20.682Z</time>
      </trkpt>
      <trkpt lat="46.91315" lon="8.65019">
        <ele>1150</ele>
        <time>2021-08-07T11:06:21.682Z</time>
      </trkpt>
      <trkpt lat="46.91315" lon="8.65017">
        <ele>1150</ele>
        <time>2021-08-07T11:06:22.682Z</time>
      </trkpt>
      <trkpt lat="46.91315" lon="8.65016">
        <ele>1150</ele>
        <time>2021-08-07T11:06:23.681Z</time>
      </trkpt>
      <trkpt lat="46.91315" lon="8.65014">
        <ele>1149</ele>
        <time>2021-08-07T11:06:24.682Z</time>
      </trkpt>
      <trkpt lat="46.91315" lon="8.65012">
        <ele>1148</ele>
        <time>2021-08-07T11:06:25.682Z</time>
      </trkpt>
      <trkpt lat="46.91315" lon="8.65009">
        <ele>1148</ele>
        <time>2021-08-07T11:06:26.682Z</time>
      </trkpt>
      <trkpt lat="46.91314" lon="8.65008">
        <ele>1147</ele>
        <time>2021-08-07T11:06:27.682Z</time>
      </trkpt>
      <trkpt lat="46.91312" lon="8.65006">
        <ele>1147</ele>
        <time>2021-08-07T11:06:28.681Z</time>
      </trkpt>
      <trkpt lat="46.91312" lon="8.65005">
        <ele>1147</ele>
        <time>2021-08-07T11:06:29.682Z</time>
      </trkpt>
      <trkpt lat="46.91311" lon="8.65002">
        <ele>1147</ele>
        <time>2021-08-07T11:06:30.681Z</time>
      </trkpt>
      <trkpt lat="46.91311" lon="8.65">
        <ele>1147</ele>
        <time>2021-08-07T11:06:31.682Z</time>
      </trkpt>
      <trkpt lat="46.91311" lon="8.64998">
        <ele>1147</ele>
        <time>2021-08-07T11:06:32.682Z</time>
      </trkpt>
      <trkpt lat="46.9131" lon="8.64996">
        <ele>1147</ele>
        <time>2021-08-07T11:06:33.682Z</time>
      </trkpt>
      <trkpt lat="46.91309" lon="8.64994">
        <ele>1147</ele>
        <time>2021-08-07T11:06:34.682Z</time>
      </trkpt>
      <trkpt lat="46.91309" lon="8.64993">
        <ele>1148</ele>
        <time>2021-08-07T11:06:35.682Z</time>
      </trkpt>
      <trkpt lat="46.91308" lon="8.64991">
        <ele>1148</ele>
        <time>2021-08-07T11:06:36.682Z</time>
      </trkpt>
      <trkpt lat="46.91308" lon="8.6499">
        <ele>1148</ele>
        <time>2021-08-07T11:06:37.682Z</time>
      </trkpt>
      <trkpt lat="46.91307" lon="8.64989">
        <ele>1148</ele>
        <time>2021-08-07T11:06:38.681Z</time>
      </trkpt>
      <trkpt lat="46.91307" lon="8.64987">
        <ele>1148</ele>
        <time>2021-08-07T11:06:39.682Z</time>
      </trkpt>
      <trkpt lat="46.91307" lon="8.64986">
        <ele>1149</ele>
        <time>2021-08-07T11:06:40.682Z</time>
      </trkpt>
      <trkpt lat="46.91307" lon="8.64985">
        <ele>1149</ele>
        <time>2021-08-07T11:06:41.682Z</time>
      </trkpt>
      <trkpt lat="46.91307" lon="8.64983">
        <ele>1150</ele>
        <time>2021-08-07T11:06:42.681Z</time>
      </trkpt>
      <trkpt lat="46.91308" lon="8.64981">
        <ele>1151</ele>
        <time>2021-08-07T11:06:43.681Z</time>
      </trkpt>
      <trkpt lat="46.91307" lon="8.64979">
        <ele>1151</ele>
        <time>2021-08-07T11:06:44.682Z</time>
      </trkpt>
      <trkpt lat="46.91307" lon="8.64977">
        <ele>1152</ele>
        <time>2021-08-07T11:06:45.682Z</time>
      </trkpt>
      <trkpt lat="46.91306" lon="8.64976">
        <ele>1152</ele>
        <time>2021-08-07T11:06:46.681Z</time>
      </trkpt>
      <trkpt lat="46.91304" lon="8.64975">
        <ele>1151</ele>
        <time>2021-08-07T11:06:47.682Z</time>
      </trkpt>
      <trkpt lat="46.91304" lon="8.64973">
        <ele>1151</ele>
        <time>2021-08-07T11:06:48.681Z</time>
      </trkpt>
      <trkpt lat="46.91303" lon="8.64972">
        <ele>1150</ele>
        <time>2021-08-07T11:06:49.681Z</time>
      </trkpt>
      <trkpt lat="46.91303" lon="8.6497">
        <ele>1149</ele>
        <time>2021-08-07T11:06:50.682Z</time>
      </trkpt>
      <trkpt lat="46.91302" lon="8.64969">
        <ele>1148</ele>
        <time>2021-08-07T11:06:51.681Z</time>
      </trkpt>
      <trkpt lat="46.91302" lon="8.64967">
        <ele>1148</ele>
        <time>2021-08-07T11:06:52.681Z</time>
      </trkpt>
      <trkpt lat="46.91302" lon="8.64965">
        <ele>1147</ele>
        <time>2021-08-07T11:06:53.682Z</time>
      </trkpt>
      <trkpt lat="46.91302" lon="8.64964">
        <ele>1146</ele>
        <time>2021-08-07T11:06:54.682Z</time>
      </trkpt>
      <trkpt lat="46.91303" lon="8.64963">
        <ele>1146</ele>
        <time>2021-08-07T11:06:55.682Z</time>
      </trkpt>
      <trkpt lat="46.91304" lon="8.64962">
        <ele>1146</ele>
        <time>2021-08-07T11:06:56.681Z</time>
      </trkpt>
      <trkpt lat="46.91304" lon="8.64961">
        <ele>1145</ele>
        <time>2021-08-07T11:06:57.682Z</time>
      </trkpt>
      <trkpt lat="46.91304" lon="8.64961">
        <ele>1145</ele>
        <time>2021-08-07T11:06:58.681Z</time>
      </trkpt>
      <trkpt lat="46.91303" lon="8.64962">
        <ele>1144</ele>
        <time>2021-08-07T11:06:59.681Z</time>
      </trkpt>
      <trkpt lat="46.91301" lon="8.64963">
        <ele>1144</ele>
        <time>2021-08-07T11:07:00.682Z</time>
      </trkpt>
      <trkpt lat="46.91298" lon="8.64964">
        <ele>1144</ele>
        <time>2021-08-07T11:07:01.681Z</time>
      </trkpt>
      <trkpt lat="46.91296" lon="8.64966">
        <ele>1143</ele>
        <time>2021-08-07T11:07:02.682Z</time>
      </trkpt>
      <trkpt lat="46.91297" lon="8.64966">
        <ele>1143</ele>
        <time>2021-08-07T11:07:03.682Z</time>
      </trkpt>
      <trkpt lat="46.91298" lon="8.64966">
        <ele>1143</ele>
        <time>2021-08-07T11:07:04.682Z</time>
      </trkpt>
      <trkpt lat="46.91299" lon="8.64965">
        <ele>1142</ele>
        <time>2021-08-07T11:07:05.681Z</time>
      </trkpt>
      <trkpt lat="46.91299" lon="8.64965">
        <ele>1142</ele>
        <time>2021-08-07T11:07:06.681Z</time>
      </trkpt>
      <trkpt lat="46.91299" lon="8.64965">
        <ele>1142</ele>
        <time>2021-08-07T11:07:07.682Z</time>
      </trkpt>
      <trkpt lat="46.913" lon="8.64965">
        <ele>1143</ele>
        <time>2021-08-07T11:07:08.682Z</time>
      </trkpt>
      <trkpt lat="46.913" lon="8.64965">
        <ele>1143</ele>
        <time>2021-08-07T11:07:09.683Z</time>
      </trkpt>
      <trkpt lat="46.913" lon="8.64965">
        <ele>1143</ele>
        <time>2021-08-07T11:07:10.682Z</time>
      </trkpt>
      <trkpt lat="46.913" lon="8.64964">
        <ele>1143</ele>
        <time>2021-08-07T11:07:11.685Z</time>
      </trkpt>
      <trkpt lat="46.91299" lon="8.64964">
        <ele>1143</ele>
        <time>2021-08-07T11:07:12.685Z</time>
      </trkpt>
      <trkpt lat="46.913" lon="8.64963">
        <ele>1143</ele>
        <time>2021-08-07T11:07:13.684Z</time>
      </trkpt>
      <trkpt lat="46.91299" lon="8.64962">
        <ele>1142</ele>
        <time>2021-08-07T11:07:14.684Z</time>
      </trkpt>
      <trkpt lat="46.91299" lon="8.64963">
        <ele>1142</ele>
        <time>2021-08-07T11:07:15.684Z</time>
      </trkpt>
      <trkpt lat="46.91298" lon="8.64968">
        <ele>1141</ele>
        <time>2021-08-07T11:07:16.685Z</time>
      </trkpt>
      <trkpt lat="46.91301" lon="8.64971">
        <ele>1144</ele>
        <time>2021-08-07T11:07:17.684Z</time>
      </trkpt>
      <trkpt lat="46.91301" lon="8.64971">
        <ele>1144</ele>
        <time>2021-08-07T11:07:24.787Z</time>
      </trkpt>
      <trkpt lat="46.91302" lon="8.64971">
        <ele>1144</ele>
        <time>2021-08-07T11:07:25.786Z</time>
      </trkpt>
      <trkpt lat="46.91303" lon="8.64971">
        <ele>1144</ele>
        <time>2021-08-07T11:07:37.848Z</time>
      </trkpt>
      <trkpt lat="46.91303" lon="8.64971">
        <ele>1144</ele>
        <time>2021-08-07T11:07:38.848Z</time>
      </trkpt>
      <trkpt lat="46.91304" lon="8.64971">
        <ele>1144</ele>
        <time>2021-08-07T11:07:39.848Z</time>
      </trkpt>
      <trkpt lat="46.91304" lon="8.64972">
        <ele>1144</ele>
        <time>2021-08-07T11:07:40.848Z</time>
      </trkpt>
      <trkpt lat="46.91304" lon="8.64972">
        <ele>1144</ele>
        <time>2021-08-07T11:07:41.847Z</time>
      </trkpt>
      <trkpt lat="46.91304" lon="8.64973">
        <ele>1144</ele>
        <time>2021-08-07T11:07:42.848Z</time>
      </trkpt>
      <trkpt lat="46.91304" lon="8.64974">
        <ele>1144</ele>
        <time>2021-08-07T11:07:43.848Z</time>
      </trkpt>
      <trkpt lat="46.91305" lon="8.64975">
        <ele>1145</ele>
        <time>2021-08-07T11:07:44.848Z</time>
      </trkpt>
      <trkpt lat="46.91306" lon="8.64975">
        <ele>1145</ele>
        <time>2021-08-07T11:07:45.847Z</time>
      </trkpt>
      <trkpt lat="46.91307" lon="8.64976">
        <ele>1145</ele>
        <time>2021-08-07T11:07:46.847Z</time>
      </trkpt>
      <trkpt lat="46.91308" lon="8.64977">
        <ele>1145</ele>
        <time>2021-08-07T11:07:47.848Z</time>
      </trkpt>
      <trkpt lat="46.91309" lon="8.64978">
        <ele>1145</ele>
        <time>2021-08-07T11:07:48.848Z</time>
      </trkpt>
      <trkpt lat="46.91309" lon="8.64978">
        <ele>1145</ele>
        <time>2021-08-07T11:07:49.847Z</time>
      </trkpt>
      <trkpt lat="46.9131" lon="8.64978">
        <ele>1146</ele>
        <time>2021-08-07T11:07:50.847Z</time>
      </trkpt>
      <trkpt lat="46.91311" lon="8.64979">
        <ele>1146</ele>
        <time>2021-08-07T11:07:51.848Z</time>
      </trkpt>
      <trkpt lat="46.91312" lon="8.64979">
        <ele>1145</ele>
        <time>2021-08-07T11:07:52.848Z</time>
      </trkpt>
      <trkpt lat="46.91312" lon="8.6498">
        <ele>1145</ele>
        <time>2021-08-07T11:07:53.848Z</time>
      </trkpt>
      <trkpt lat="46.91312" lon="8.6498">
        <ele>1145</ele>
        <time>2021-08-07T11:07:54.847Z</time>
      </trkpt>
      <trkpt lat="46.91313" lon="8.64982">
        <ele>1145</ele>
        <time>2021-08-07T11:07:56.919Z</time>
      </trkpt>
      <trkpt lat="46.91314" lon="8.64983">
        <ele>1146</ele>
        <time>2021-08-07T11:07:57.918Z</time>
      </trkpt>
      <trkpt lat="46.91314" lon="8.64984">
        <ele>1146</ele>
        <time>2021-08-07T11:07:58.918Z</time>
      </trkpt>
      <trkpt lat="46.91315" lon="8.64984">
        <ele>1147</ele>
        <time>2021-08-07T11:07:59.919Z</time>
      </trkpt>
      <trkpt lat="46.91315" lon="8.64984">
        <ele>1147</ele>
        <time>2021-08-07T11:08:00.919Z</time>
      </trkpt>
      <trkpt lat="46.91315" lon="8.64985">
        <ele>1148</ele>
        <time>2021-08-07T11:08:01.919Z</time>
      </trkpt>
      <trkpt lat="46.91316" lon="8.64986">
        <ele>1148</ele>
        <time>2021-08-07T11:08:02.918Z</time>
      </trkpt>
      <trkpt lat="46.91316" lon="8.64987">
        <ele>1149</ele>
        <time>2021-08-07T11:08:03.919Z</time>
      </trkpt>
      <trkpt lat="46.91317" lon="8.64988">
        <ele>1150</ele>
        <time>2021-08-07T11:08:04.918Z</time>
      </trkpt>
      <trkpt lat="46.91317" lon="8.6499">
        <ele>1150</ele>
        <time>2021-08-07T11:08:05.919Z</time>
      </trkpt>
      <trkpt lat="46.91317" lon="8.64992">
        <ele>1151</ele>
        <time>2021-08-07T11:08:06.919Z</time>
      </trkpt>
      <trkpt lat="46.91318" lon="8.64993">
        <ele>1151</ele>
        <time>2021-08-07T11:08:07.919Z</time>
      </trkpt>
      <trkpt lat="46.91319" lon="8.64994">
        <ele>1151</ele>
        <time>2021-08-07T11:08:08.919Z</time>
      </trkpt>
      <trkpt lat="46.9132" lon="8.64995">
        <ele>1152</ele>
        <time>2021-08-07T11:08:09.918Z</time>
      </trkpt>
      <trkpt lat="46.91321" lon="8.64996">
        <ele>1152</ele>
        <time>2021-08-07T11:08:10.919Z</time>
      </trkpt>
      <trkpt lat="46.91322" lon="8.64997">
        <ele>1152</ele>
        <time>2021-08-07T11:08:11.919Z</time>
      </trkpt>
      <trkpt lat="46.91323" lon="8.64999">
        <ele>1153</ele>
        <time>2021-08-07T11:08:12.919Z</time>
      </trkpt>
      <trkpt lat="46.91324" lon="8.64999">
        <ele>1153</ele>
        <time>2021-08-07T11:08:13.918Z</time>
      </trkpt>
      <trkpt lat="46.91325" lon="8.65001">
        <ele>1153</ele>
        <time>2021-08-07T11:08:14.919Z</time>
      </trkpt>
      <trkpt lat="46.91325" lon="8.65002">
        <ele>1152</ele>
        <time>2021-08-07T11:08:15.919Z</time>
      </trkpt>
      <trkpt lat="46.91326" lon="8.65004">
        <ele>1152</ele>
        <time>2021-08-07T11:08:16.919Z</time>
      </trkpt>
      <trkpt lat="46.91328" lon="8.65006">
        <ele>1152</ele>
        <time>2021-08-07T11:08:17.918Z</time>
      </trkpt>
      <trkpt lat="46.91329" lon="8.65007">
        <ele>1152</ele>
        <time>2021-08-07T11:08:18.919Z</time>
      </trkpt>
      <trkpt lat="46.91329" lon="8.65008">
        <ele>1151</ele>
        <time>2021-08-07T11:08:19.919Z</time>
      </trkpt>
      <trkpt lat="46.91331" lon="8.65009">
        <ele>1151</ele>
        <time>2021-08-07T11:08:25.955Z</time>
      </trkpt>
      <trkpt lat="46.91332" lon="8.65009">
        <ele>1150</ele>
        <time>2021-08-07T11:08:26.956Z</time>
      </trkpt>
      <trkpt lat="46.91333" lon="8.6501">
        <ele>1150</ele>
        <time>2021-08-07T11:08:27.955Z</time>
      </trkpt>
      <trkpt lat="46.91334" lon="8.6501">
        <ele>1150</ele>
        <time>2021-08-07T11:08:28.955Z</time>
      </trkpt>
      <trkpt lat="46.91335" lon="8.6501">
        <ele>1150</ele>
        <time>2021-08-07T11:08:29.956Z</time>
      </trkpt>
      <trkpt lat="46.91336" lon="8.6501">
        <ele>1150</ele>
        <time>2021-08-07T11:08:30.956Z</time>
      </trkpt>
      <trkpt lat="46.91337" lon="8.6501">
        <ele>1149</ele>
        <time>2021-08-07T11:08:31.956Z</time>
      </trkpt>
      <trkpt lat="46.91338" lon="8.65011">
        <ele>1149</ele>
        <time>2021-08-07T11:08:32.955Z</time>
      </trkpt>
      <trkpt lat="46.9134" lon="8.6501">
        <ele>1149</ele>
        <time>2021-08-07T11:08:33.955Z</time>
      </trkpt>
      <trkpt lat="46.91341" lon="8.6501">
        <ele>1148</ele>
        <time>2021-08-07T11:08:34.956Z</time>
      </trkpt>
      <trkpt lat="46.91339" lon="8.65008">
        <ele>1147</ele>
        <time>2021-08-07T11:08:35.956Z</time>
      </trkpt>
      <trkpt lat="46.91339" lon="8.65008">
        <ele>1146</ele>
        <time>2021-08-07T11:08:36.955Z</time>
      </trkpt>
      <trkpt lat="46.91339" lon="8.65008">
        <ele>1146</ele>
        <time>2021-08-07T11:08:37.956Z</time>
      </trkpt>
      <trkpt lat="46.9134" lon="8.65007">
        <ele>1145</ele>
        <time>2021-08-07T11:08:38.957Z</time>
      </trkpt>
      <trkpt lat="46.91341" lon="8.65008">
        <ele>1145</ele>
        <time>2021-08-07T11:08:39.957Z</time>
      </trkpt>
      <trkpt lat="46.91341" lon="8.65008">
        <ele>1146</ele>
        <time>2021-08-07T11:08:40.956Z</time>
      </trkpt>
      <trkpt lat="46.91341" lon="8.65008">
        <ele>1146</ele>
        <time>2021-08-07T11:08:41.957Z</time>
      </trkpt>
      <trkpt lat="46.9134" lon="8.65007">
        <ele>1148</ele>
        <time>2021-08-07T11:08:42.958Z</time>
      </trkpt>
      <trkpt lat="46.91339" lon="8.65007">
        <ele>1149</ele>
        <time>2021-08-07T11:08:43.957Z</time>
      </trkpt>
      <trkpt lat="46.91339" lon="8.65007">
        <ele>1146</ele>
        <time>2021-08-07T11:08:44.959Z</time>
      </trkpt>
      <trkpt lat="46.91339" lon="8.65007">
        <ele>1145</ele>
        <time>2021-08-07T11:08:45.958Z</time>
      </trkpt>
      <trkpt lat="46.91339" lon="8.65007">
        <ele>1145</ele>
        <time>2021-08-07T11:08:46.958Z</time>
      </trkpt>
      <trkpt lat="46.91341" lon="8.65009">
        <ele>1154</ele>
        <time>2021-08-07T11:08:47.959Z</time>
      </trkpt>
      <trkpt lat="46.91341" lon="8.65009">
        <ele>1154</ele>
        <time>2021-08-07T11:08:48.959Z</time>
      </trkpt>
      <trkpt lat="46.9134" lon="8.65008">
        <ele>1154</ele>
        <time>2021-08-07T11:08:49.958Z</time>
      </trkpt>
      <trkpt lat="46.91342" lon="8.65004">
        <ele>1136</ele>
        <time>2021-08-07T11:08:50.960Z</time>
      </trkpt>
      <trkpt lat="46.91342" lon="8.65005">
        <ele>1134</ele>
        <time>2021-08-07T11:08:51.960Z</time>
      </trkpt>
      <trkpt lat="46.91343" lon="8.65008">
        <ele>1130</ele>
        <time>2021-08-07T11:08:52.959Z</time>
      </trkpt>
      <trkpt lat="46.91344" lon="8.65008">
        <ele>1130</ele>
        <time>2021-08-07T11:08:53.960Z</time>
      </trkpt>
      <trkpt lat="46.91345" lon="8.65008">
        <ele>1131</ele>
        <time>2021-08-07T11:08:54.959Z</time>
      </trkpt>
      <trkpt lat="46.91346" lon="8.65007">
        <ele>1131</ele>
        <time>2021-08-07T11:08:55.960Z</time>
      </trkpt>
      <trkpt lat="46.91347" lon="8.65007">
        <ele>1131</ele>
        <time>2021-08-07T11:08:56.959Z</time>
      </trkpt>
      <trkpt lat="46.91347" lon="8.65006">
        <ele>1132</ele>
        <time>2021-08-07T11:08:57.959Z</time>
      </trkpt>
      <trkpt lat="46.91348" lon="8.65005">
        <ele>1132</ele>
        <time>2021-08-07T11:08:58.960Z</time>
      </trkpt>
      <trkpt lat="46.91349" lon="8.65004">
        <ele>1133</ele>
        <time>2021-08-07T11:08:59.959Z</time>
      </trkpt>
      <trkpt lat="46.91351" lon="8.65003">
        <ele>1134</ele>
        <time>2021-08-07T11:09:00.960Z</time>
      </trkpt>
      <trkpt lat="46.91352" lon="8.65003">
        <ele>1135</ele>
        <time>2021-08-07T11:09:01.960Z</time>
      </trkpt>
      <trkpt lat="46.91353" lon="8.65002">
        <ele>1136</ele>
        <time>2021-08-07T11:09:02.959Z</time>
      </trkpt>
      <trkpt lat="46.91354" lon="8.65001">
        <ele>1137</ele>
        <time>2021-08-07T11:09:03.959Z</time>
      </trkpt>
      <trkpt lat="46.91355" lon="8.65002">
        <ele>1138</ele>
        <time>2021-08-07T11:09:04.960Z</time>
      </trkpt>
      <trkpt lat="46.91356" lon="8.65003">
        <ele>1139</ele>
        <time>2021-08-07T11:09:05.960Z</time>
      </trkpt>
      <trkpt lat="46.91357" lon="8.65004">
        <ele>1140</ele>
        <time>2021-08-07T11:09:06.960Z</time>
      </trkpt>
      <trkpt lat="46.91358" lon="8.65004">
        <ele>1141</ele>
        <time>2021-08-07T11:09:07.959Z</time>
      </trkpt>
      <trkpt lat="46.9136" lon="8.65003">
        <ele>1141</ele>
        <time>2021-08-07T11:09:08.959Z</time>
      </trkpt>
      <trkpt lat="46.91361" lon="8.65003">
        <ele>1141</ele>
        <time>2021-08-07T11:09:09.960Z</time>
      </trkpt>
      <trkpt lat="46.91362" lon="8.65002">
        <ele>1142</ele>
        <time>2021-08-07T11:09:10.960Z</time>
      </trkpt>
      <trkpt lat="46.91364" lon="8.65001">
        <ele>1142</ele>
        <time>2021-08-07T11:09:11.960Z</time>
      </trkpt>
      <trkpt lat="46.91365" lon="8.64999">
        <ele>1143</ele>
        <time>2021-08-07T11:09:12.959Z</time>
      </trkpt>
      <trkpt lat="46.91365" lon="8.64997">
        <ele>1143</ele>
        <time>2021-08-07T11:09:13.960Z</time>
      </trkpt>
      <trkpt lat="46.91366" lon="8.64996">
        <ele>1143</ele>
        <time>2021-08-07T11:09:14.960Z</time>
      </trkpt>
      <trkpt lat="46.91368" lon="8.64995">
        <ele>1144</ele>
        <time>2021-08-07T11:09:15.960Z</time>
      </trkpt>
      <trkpt lat="46.91369" lon="8.64994">
        <ele>1144</ele>
        <time>2021-08-07T11:09:16.960Z</time>
      </trkpt>
      <trkpt lat="46.91369" lon="8.64993">
        <ele>1145</ele>
        <time>2021-08-07T11:09:17.960Z</time>
      </trkpt>
      <trkpt lat="46.9137" lon="8.64993">
        <ele>1145</ele>
        <time>2021-08-07T11:09:18.960Z</time>
      </trkpt>
      <trkpt lat="46.91371" lon="8.64992">
        <ele>1146</ele>
        <time>2021-08-07T11:09:19.960Z</time>
      </trkpt>
      <trkpt lat="46.91371" lon="8.64991">
        <ele>1146</ele>
        <time>2021-08-07T11:09:20.960Z</time>
      </trkpt>
      <trkpt lat="46.91371" lon="8.64991">
        <ele>1146</ele>
        <time>2021-08-07T11:09:21.960Z</time>
      </trkpt>
      <trkpt lat="46.91372" lon="8.6499">
        <ele>1147</ele>
        <time>2021-08-07T11:09:22.960Z</time>
      </trkpt>
      <trkpt lat="46.91374" lon="8.6499">
        <ele>1147</ele>
        <time>2021-08-07T11:09:25.041Z</time>
      </trkpt>
      <trkpt lat="46.91375" lon="8.6499">
        <ele>1147</ele>
        <time>2021-08-07T11:09:26.042Z</time>
      </trkpt>
      <trkpt lat="46.91375" lon="8.6499">
        <ele>1147</ele>
        <time>2021-08-07T11:09:27.042Z</time>
      </trkpt>
      <trkpt lat="46.91375" lon="8.6499">
        <ele>1147</ele>
        <time>2021-08-07T11:09:28.042Z</time>
      </trkpt>
      <trkpt lat="46.91376" lon="8.6499">
        <ele>1147</ele>
        <time>2021-08-07T11:09:29.042Z</time>
      </trkpt>
      <trkpt lat="46.91377" lon="8.64989">
        <ele>1147</ele>
        <time>2021-08-07T11:09:30.041Z</time>
      </trkpt>
      <trkpt lat="46.91378" lon="8.64988">
        <ele>1147</ele>
        <time>2021-08-07T11:09:31.042Z</time>
      </trkpt>
      <trkpt lat="46.91379" lon="8.64987">
        <ele>1147</ele>
        <time>2021-08-07T11:09:32.042Z</time>
      </trkpt>
      <trkpt lat="46.9138" lon="8.64987">
        <ele>1147</ele>
        <time>2021-08-07T11:09:33.041Z</time>
      </trkpt>
      <trkpt lat="46.91381" lon="8.64986">
        <ele>1147</ele>
        <time>2021-08-07T11:09:34.042Z</time>
      </trkpt>
      <trkpt lat="46.91382" lon="8.64985">
        <ele>1148</ele>
        <time>2021-08-07T11:09:35.042Z</time>
      </trkpt>
      <trkpt lat="46.91383" lon="8.64984">
        <ele>1148</ele>
        <time>2021-08-07T11:09:36.041Z</time>
      </trkpt>
      <trkpt lat="46.91384" lon="8.64983">
        <ele>1148</ele>
        <time>2021-08-07T11:09:37.042Z</time>
      </trkpt>
      <trkpt lat="46.91385" lon="8.64982">
        <ele>1148</ele>
        <time>2021-08-07T11:09:38.041Z</time>
      </trkpt>
      <trkpt lat="46.91386" lon="8.6498">
        <ele>1148</ele>
        <time>2021-08-07T11:09:39.042Z</time>
      </trkpt>
      <trkpt lat="46.91387" lon="8.64979">
        <ele>1148</ele>
        <time>2021-08-07T11:09:40.042Z</time>
      </trkpt>
      <trkpt lat="46.91387" lon="8.64979">
        <ele>1148</ele>
        <time>2021-08-07T11:09:41.042Z</time>
      </trkpt>
      <trkpt lat="46.91392" lon="8.64967">
        <ele>1148</ele>
        <time>2021-08-07T11:09:42.042Z</time>
      </trkpt>
      <trkpt lat="46.91392" lon="8.64967">
        <ele>1147</ele>
        <time>2021-08-07T11:09:43.042Z</time>
      </trkpt>
      <trkpt lat="46.91393" lon="8.64965">
        <ele>1146</ele>
        <time>2021-08-07T11:09:44.041Z</time>
      </trkpt>
      <trkpt lat="46.91394" lon="8.64964">
        <ele>1146</ele>
        <time>2021-08-07T11:09:52.186Z</time>
      </trkpt>
      <trkpt lat="46.91395" lon="8.64963">
        <ele>1145</ele>
        <time>2021-08-07T11:09:53.187Z</time>
      </trkpt>
      <trkpt lat="46.91395" lon="8.64963">
        <ele>1145</ele>
        <time>2021-08-07T11:09:54.186Z</time>
      </trkpt>
      <trkpt lat="46.91397" lon="8.64962">
        <ele>1145</ele>
        <time>2021-08-07T11:09:55.187Z</time>
      </trkpt>
      <trkpt lat="46.91398" lon="8.64963">
        <ele>1145</ele>
        <time>2021-08-07T11:09:56.187Z</time>
      </trkpt>
      <trkpt lat="46.914" lon="8.64963">
        <ele>1144</ele>
        <time>2021-08-07T11:09:57.187Z</time>
      </trkpt>
      <trkpt lat="46.91401" lon="8.64964">
        <ele>1144</ele>
        <time>2021-08-07T11:09:58.187Z</time>
      </trkpt>
      <trkpt lat="46.91402" lon="8.64965">
        <ele>1143</ele>
        <time>2021-08-07T11:09:59.187Z</time>
      </trkpt>
      <trkpt lat="46.91404" lon="8.64966">
        <ele>1143</ele>
        <time>2021-08-07T11:10:00.187Z</time>
      </trkpt>
      <trkpt lat="46.91406" lon="8.64966">
        <ele>1143</ele>
        <time>2021-08-07T11:10:01.187Z</time>
      </trkpt>
      <trkpt lat="46.91408" lon="8.64967">
        <ele>1142</ele>
        <time>2021-08-07T11:10:02.186Z</time>
      </trkpt>
      <trkpt lat="46.9141" lon="8.64968">
        <ele>1142</ele>
        <time>2021-08-07T11:10:08.313Z</time>
      </trkpt>
      <trkpt lat="46.91411" lon="8.6497">
        <ele>1142</ele>
        <time>2021-08-07T11:10:09.313Z</time>
      </trkpt>
      <trkpt lat="46.91412" lon="8.64971">
        <ele>1142</ele>
        <time>2021-08-07T11:10:10.313Z</time>
      </trkpt>
      <trkpt lat="46.91411" lon="8.64972">
        <ele>1142</ele>
        <time>2021-08-07T11:10:11.313Z</time>
      </trkpt>
      <trkpt lat="46.9141" lon="8.64974">
        <ele>1142</ele>
        <time>2021-08-07T11:10:12.313Z</time>
      </trkpt>
      <trkpt lat="46.9141" lon="8.64974">
        <ele>1141</ele>
        <time>2021-08-07T11:10:13.313Z</time>
      </trkpt>
      <trkpt lat="46.9141" lon="8.64974">
        <ele>1141</ele>
        <time>2021-08-07T11:10:14.313Z</time>
      </trkpt>
      <trkpt lat="46.9141" lon="8.64974">
        <ele>1141</ele>
        <time>2021-08-07T11:10:15.312Z</time>
      </trkpt>
      <trkpt lat="46.9141" lon="8.64973">
        <ele>1140</ele>
        <time>2021-08-07T11:10:17.475Z</time>
      </trkpt>
      <trkpt lat="46.91411" lon="8.64972">
        <ele>1139</ele>
        <time>2021-08-07T11:10:18.475Z</time>
      </trkpt>
      <trkpt lat="46.9141" lon="8.64972">
        <ele>1139</ele>
        <time>2021-08-07T11:10:19.475Z</time>
      </trkpt>
      <trkpt lat="46.9141" lon="8.64972">
        <ele>1138</ele>
        <time>2021-08-07T11:10:20.474Z</time>
      </trkpt>
      <trkpt lat="46.91412" lon="8.64974">
        <ele>1136</ele>
        <time>2021-08-07T11:10:21.475Z</time>
      </trkpt>
      <trkpt lat="46.91412" lon="8.64974">
        <ele>1136</ele>
        <time>2021-08-07T11:10:22.474Z</time>
      </trkpt>
      <trkpt lat="46.91413" lon="8.64975">
        <ele>1136</ele>
        <time>2021-08-07T11:10:23.475Z</time>
      </trkpt>
      <trkpt lat="46.91414" lon="8.64976">
        <ele>1136</ele>
        <time>2021-08-07T11:10:24.475Z</time>
      </trkpt>
      <trkpt lat="46.91414" lon="8.64977">
        <ele>1136</ele>
        <time>2021-08-07T11:10:25.474Z</time>
      </trkpt>
      <trkpt lat="46.91415" lon="8.64978">
        <ele>1136</ele>
        <time>2021-08-07T11:10:26.474Z</time>
      </trkpt>
      <trkpt lat="46.91417" lon="8.64978">
        <ele>1136</ele>
        <time>2021-08-07T11:10:27.475Z</time>
      </trkpt>
      <trkpt lat="46.91418" lon="8.64978">
        <ele>1136</ele>
        <time>2021-08-07T11:10:28.474Z</time>
      </trkpt>
      <trkpt lat="46.91418" lon="8.64978">
        <ele>1136</ele>
        <time>2021-08-07T11:10:29.475Z</time>
      </trkpt>
      <trkpt lat="46.91419" lon="8.64978">
        <ele>1136</ele>
        <time>2021-08-07T11:10:30.475Z</time>
      </trkpt>
      <trkpt lat="46.91419" lon="8.64978">
        <ele>1136</ele>
        <time>2021-08-07T11:10:31.474Z</time>
      </trkpt>
      <trkpt lat="46.91419" lon="8.64977">
        <ele>1137</ele>
        <time>2021-08-07T11:10:32.474Z</time>
      </trkpt>
      <trkpt lat="46.91418" lon="8.64976">
        <ele>1136</ele>
        <time>2021-08-07T11:10:33.475Z</time>
      </trkpt>
      <trkpt lat="46.91418" lon="8.64976">
        <ele>1136</ele>
        <time>2021-08-07T11:10:34.474Z</time>
      </trkpt>
      <trkpt lat="46.91418" lon="8.64977">
        <ele>1135</ele>
        <time>2021-08-07T11:10:35.476Z</time>
      </trkpt>
      <trkpt lat="46.91418" lon="8.64977">
        <ele>1135</ele>
        <time>2021-08-07T11:10:36.476Z</time>
      </trkpt>
      <trkpt lat="46.91418" lon="8.64978">
        <ele>1135</ele>
        <time>2021-08-07T11:10:37.476Z</time>
      </trkpt>
      <trkpt lat="46.91421" lon="8.6498">
        <ele>1135</ele>
        <time>2021-08-07T11:10:41.476Z</time>
      </trkpt>
      <trkpt lat="46.91422" lon="8.64979">
        <ele>1135</ele>
        <time>2021-08-07T11:10:42.477Z</time>
      </trkpt>
      <trkpt lat="46.91421" lon="8.64978">
        <ele>1135</ele>
        <time>2021-08-07T11:10:43.476Z</time>
      </trkpt>
      <trkpt lat="46.91421" lon="8.64978">
        <ele>1136</ele>
        <time>2021-08-07T11:10:44.476Z</time>
      </trkpt>
      <trkpt lat="46.91422" lon="8.64977">
        <ele>1136</ele>
        <time>2021-08-07T11:10:45.476Z</time>
      </trkpt>
      <trkpt lat="46.91422" lon="8.64975">
        <ele>1136</ele>
        <time>2021-08-07T11:10:46.476Z</time>
      </trkpt>
      <trkpt lat="46.91421" lon="8.64974">
        <ele>1135</ele>
        <time>2021-08-07T11:10:47.476Z</time>
      </trkpt>
      <trkpt lat="46.9142" lon="8.64975">
        <ele>1135</ele>
        <time>2021-08-07T11:10:48.476Z</time>
      </trkpt>
      <trkpt lat="46.91419" lon="8.64975">
        <ele>1135</ele>
        <time>2021-08-07T11:10:49.476Z</time>
      </trkpt>
      <trkpt lat="46.91419" lon="8.64975">
        <ele>1135</ele>
        <time>2021-08-07T11:10:50.476Z</time>
      </trkpt>
      <trkpt lat="46.91417" lon="8.64976">
        <ele>1134</ele>
        <time>2021-08-07T11:10:51.476Z</time>
      </trkpt>
      <trkpt lat="46.91417" lon="8.64976">
        <ele>1134</ele>
        <time>2021-08-07T11:10:52.476Z</time>
      </trkpt>
      <trkpt lat="46.91417" lon="8.64976">
        <ele>1133</ele>
        <time>2021-08-07T11:10:53.477Z</time>
      </trkpt>
      <trkpt lat="46.91418" lon="8.64976">
        <ele>1133</ele>
        <time>2021-08-07T11:10:54.476Z</time>
      </trkpt>
      <trkpt lat="46.91419" lon="8.64977">
        <ele>1132</ele>
        <time>2021-08-07T11:10:55.476Z</time>
      </trkpt>
      <trkpt lat="46.9142" lon="8.64977">
        <ele>1132</ele>
        <time>2021-08-07T11:10:56.476Z</time>
      </trkpt>
      <trkpt lat="46.91419" lon="8.64979">
        <ele>1132</ele>
        <time>2021-08-07T11:10:57.476Z</time>
      </trkpt>
      <trkpt lat="46.91419" lon="8.64979">
        <ele>1132</ele>
        <time>2021-08-07T11:10:58.476Z</time>
      </trkpt>
      <trkpt lat="46.91419" lon="8.64979">
        <ele>1131</ele>
        <time>2021-08-07T11:10:59.477Z</time>
      </trkpt>
      <trkpt lat="46.91419" lon="8.6498">
        <ele>1131</ele>
        <time>2021-08-07T11:11:00.476Z</time>
      </trkpt>
      <trkpt lat="46.91418" lon="8.6498">
        <ele>1131</ele>
        <time>2021-08-07T11:11:01.477Z</time>
      </trkpt>
      <trkpt lat="46.91418" lon="8.64979">
        <ele>1130</ele>
        <time>2021-08-07T11:11:02.476Z</time>
      </trkpt>
      <trkpt lat="46.91417" lon="8.6498">
        <ele>1130</ele>
        <time>2021-08-07T11:11:03.477Z</time>
      </trkpt>
      <trkpt lat="46.91417" lon="8.6498">
        <ele>1130</ele>
        <time>2021-08-07T11:11:04.477Z</time>
      </trkpt>
      <trkpt lat="46.91417" lon="8.64981">
        <ele>1130</ele>
        <time>2021-08-07T11:11:05.477Z</time>
      </trkpt>
      <trkpt lat="46.91417" lon="8.64981">
        <ele>1129</ele>
        <time>2021-08-07T11:11:08.543Z</time>
      </trkpt>
      <trkpt lat="46.91418" lon="8.64981">
        <ele>1129</ele>
        <time>2021-08-07T11:11:13.308Z</time>
      </trkpt>
      <trkpt lat="46.91417" lon="8.64982">
        <ele>1129</ele>
        <time>2021-08-07T11:11:14.308Z</time>
      </trkpt>
      <trkpt lat="46.91417" lon="8.64982">
        <ele>1128</ele>
        <time>2021-08-07T11:11:15.308Z</time>
      </trkpt>
      <trkpt lat="46.91416" lon="8.64982">
        <ele>1128</ele>
        <time>2021-08-07T11:11:16.308Z</time>
      </trkpt>
      <trkpt lat="46.91416" lon="8.64983">
        <ele>1128</ele>
        <time>2021-08-07T11:11:17.307Z</time>
      </trkpt>
      <trkpt lat="46.91415" lon="8.64985">
        <ele>1127</ele>
        <time>2021-08-07T11:11:18.308Z</time>
      </trkpt>
      <trkpt lat="46.91415" lon="8.64985">
        <ele>1127</ele>
        <time>2021-08-07T11:11:19.308Z</time>
      </trkpt>
      <trkpt lat="46.91414" lon="8.64986">
        <ele>1127</ele>
        <time>2021-08-07T11:11:20.308Z</time>
      </trkpt>
      <trkpt lat="46.91413" lon="8.64986">
        <ele>1126</ele>
        <time>2021-08-07T11:11:21.307Z</time>
      </trkpt>
      <trkpt lat="46.91413" lon="8.64986">
        <ele>1126</ele>
        <time>2021-08-07T11:11:22.308Z</time>
      </trkpt>
      <trkpt lat="46.91413" lon="8.64986">
        <ele>1126</ele>
        <time>2021-08-07T11:11:23.307Z</time>
      </trkpt>
      <trkpt lat="46.91416" lon="8.64982">
        <ele>1126</ele>
        <time>2021-08-07T11:11:24.308Z</time>
      </trkpt>
      <trkpt lat="46.91417" lon="8.6498">
        <ele>1127</ele>
        <time>2021-08-07T11:11:25.309Z</time>
      </trkpt>
      <trkpt lat="46.91419" lon="8.64977">
        <ele>1127</ele>
        <time>2021-08-07T11:11:26.309Z</time>
      </trkpt>
      <trkpt lat="46.9142" lon="8.64975">
        <ele>1127</ele>
        <time>2021-08-07T11:11:27.308Z</time>
      </trkpt>
      <trkpt lat="46.91421" lon="8.64972">
        <ele>1127</ele>
        <time>2021-08-07T11:11:28.309Z</time>
      </trkpt>
      <trkpt lat="46.91422" lon="8.64971">
        <ele>1127</ele>
        <time>2021-08-07T11:11:29.308Z</time>
      </trkpt>
      <trkpt lat="46.91423" lon="8.64971">
        <ele>1127</ele>
        <time>2021-08-07T11:11:30.308Z</time>
      </trkpt>
      <trkpt lat="46.91423" lon="8.64971">
        <ele>1128</ele>
        <time>2021-08-07T11:11:31.308Z</time>
      </trkpt>
      <trkpt lat="46.91424" lon="8.64972">
        <ele>1128</ele>
        <time>2021-08-07T11:11:32.309Z</time>
      </trkpt>
      <trkpt lat="46.91424" lon="8.64972">
        <ele>1129</ele>
        <time>2021-08-07T11:11:33.309Z</time>
      </trkpt>
      <trkpt lat="46.91426" lon="8.64971">
        <ele>1129</ele>
        <time>2021-08-07T11:11:34.309Z</time>
      </trkpt>
      <trkpt lat="46.91427" lon="8.64971">
        <ele>1130</ele>
        <time>2021-08-07T11:11:35.308Z</time>
      </trkpt>
      <trkpt lat="46.91428" lon="8.64971">
        <ele>1130</ele>
        <time>2021-08-07T11:11:36.309Z</time>
      </trkpt>
      <trkpt lat="46.91429" lon="8.6497">
        <ele>1131</ele>
        <time>2021-08-07T11:11:37.308Z</time>
      </trkpt>
      <trkpt lat="46.9143" lon="8.6497">
        <ele>1132</ele>
        <time>2021-08-07T11:11:38.309Z</time>
      </trkpt>
      <trkpt lat="46.91431" lon="8.64971">
        <ele>1133</ele>
        <time>2021-08-07T11:11:39.309Z</time>
      </trkpt>
      <trkpt lat="46.91431" lon="8.64971">
        <ele>1133</ele>
        <time>2021-08-07T11:11:40.309Z</time>
      </trkpt>
      <trkpt lat="46.91432" lon="8.64971">
        <ele>1134</ele>
        <time>2021-08-07T11:11:41.309Z</time>
      </trkpt>
      <trkpt lat="46.91432" lon="8.64972">
        <ele>1135</ele>
        <time>2021-08-07T11:11:42.308Z</time>
      </trkpt>
      <trkpt lat="46.91433" lon="8.64972">
        <ele>1135</ele>
        <time>2021-08-07T11:11:43.308Z</time>
      </trkpt>
      <trkpt lat="46.91433" lon="8.64973">
        <ele>1135</ele>
        <time>2021-08-07T11:11:44.308Z</time>
      </trkpt>
      <trkpt lat="46.91433" lon="8.64973">
        <ele>1136</ele>
        <time>2021-08-07T11:11:45.309Z</time>
      </trkpt>
      <trkpt lat="46.91434" lon="8.64974">
        <ele>1136</ele>
        <time>2021-08-07T11:11:46.309Z</time>
      </trkpt>
      <trkpt lat="46.91434" lon="8.64974">
        <ele>1136</ele>
        <time>2021-08-07T11:11:47.309Z</time>
      </trkpt>
      <trkpt lat="46.91435" lon="8.64974">
        <ele>1136</ele>
        <time>2021-08-07T11:11:48.309Z</time>
      </trkpt>
      <trkpt lat="46.91436" lon="8.64974">
        <ele>1136</ele>
        <time>2021-08-07T11:11:49.309Z</time>
      </trkpt>
      <trkpt lat="46.91437" lon="8.64975">
        <ele>1136</ele>
        <time>2021-08-07T11:11:50.308Z</time>
      </trkpt>
      <trkpt lat="46.91437" lon="8.64975">
        <ele>1136</ele>
        <time>2021-08-07T11:11:51.309Z</time>
      </trkpt>
      <trkpt lat="46.91438" lon="8.64976">
        <ele>1135</ele>
        <time>2021-08-07T11:11:52.309Z</time>
      </trkpt>
      <trkpt lat="46.91439" lon="8.64976">
        <ele>1135</ele>
        <time>2021-08-07T11:11:53.308Z</time>
      </trkpt>
      <trkpt lat="46.9144" lon="8.64976">
        <ele>1135</ele>
        <time>2021-08-07T11:11:54.309Z</time>
      </trkpt>
      <trkpt lat="46.91441" lon="8.64977">
        <ele>1135</ele>
        <time>2021-08-07T11:11:55.309Z</time>
      </trkpt>
      <trkpt lat="46.91442" lon="8.64976">
        <ele>1135</ele>
        <time>2021-08-07T11:11:56.309Z</time>
      </trkpt>
      <trkpt lat="46.91444" lon="8.64976">
        <ele>1135</ele>
        <time>2021-08-07T11:11:57.309Z</time>
      </trkpt>
      <trkpt lat="46.91445" lon="8.64977">
        <ele>1135</ele>
        <time>2021-08-07T11:11:58.308Z</time>
      </trkpt>
      <trkpt lat="46.91447" lon="8.64977">
        <ele>1135</ele>
        <time>2021-08-07T11:11:59.308Z</time>
      </trkpt>
      <trkpt lat="46.91448" lon="8.64977">
        <ele>1135</ele>
        <time>2021-08-07T11:12:00.309Z</time>
      </trkpt>
      <trkpt lat="46.91449" lon="8.64978">
        <ele>1135</ele>
        <time>2021-08-07T11:12:01.308Z</time>
      </trkpt>
      <trkpt lat="46.9145" lon="8.64979">
        <ele>1135</ele>
        <time>2021-08-07T11:12:02.308Z</time>
      </trkpt>
      <trkpt lat="46.91452" lon="8.64979">
        <ele>1135</ele>
        <time>2021-08-07T11:12:03.309Z</time>
      </trkpt>
      <trkpt lat="46.91453" lon="8.6498">
        <ele>1134</ele>
        <time>2021-08-07T11:12:04.309Z</time>
      </trkpt>
      <trkpt lat="46.91455" lon="8.6498">
        <ele>1134</ele>
        <time>2021-08-07T11:12:05.309Z</time>
      </trkpt>
      <trkpt lat="46.91456" lon="8.64982">
        <ele>1134</ele>
        <time>2021-08-07T11:12:06.308Z</time>
      </trkpt>
      <trkpt lat="46.91464" lon="8.64984">
        <ele>1135</ele>
        <time>2021-08-07T11:12:07.310Z</time>
      </trkpt>
      <trkpt lat="46.91466" lon="8.64985">
        <ele>1135</ele>
        <time>2021-08-07T11:12:08.310Z</time>
      </trkpt>
      <trkpt lat="46.91467" lon="8.64986">
        <ele>1134</ele>
        <time>2021-08-07T11:12:09.310Z</time>
      </trkpt>
      <trkpt lat="46.91468" lon="8.64987">
        <ele>1134</ele>
        <time>2021-08-07T11:12:10.310Z</time>
      </trkpt>
      <trkpt lat="46.9147" lon="8.64988">
        <ele>1133</ele>
        <time>2021-08-07T11:12:11.310Z</time>
      </trkpt>
      <trkpt lat="46.91472" lon="8.64987">
        <ele>1133</ele>
        <time>2021-08-07T11:12:12.310Z</time>
      </trkpt>
      <trkpt lat="46.91474" lon="8.64986">
        <ele>1133</ele>
        <time>2021-08-07T11:12:13.310Z</time>
      </trkpt>
      <trkpt lat="46.91476" lon="8.64986">
        <ele>1133</ele>
        <time>2021-08-07T11:12:14.309Z</time>
      </trkpt>
      <trkpt lat="46.91477" lon="8.64987">
        <ele>1132</ele>
        <time>2021-08-07T11:12:15.310Z</time>
      </trkpt>
      <trkpt lat="46.91479" lon="8.64988">
        <ele>1132</ele>
        <time>2021-08-07T11:12:16.310Z</time>
      </trkpt>
      <trkpt lat="46.91481" lon="8.64989">
        <ele>1132</ele>
        <time>2021-08-07T11:12:17.309Z</time>
      </trkpt>
      <trkpt lat="46.91483" lon="8.64989">
        <ele>1132</ele>
        <time>2021-08-07T11:12:18.309Z</time>
      </trkpt>
      <trkpt lat="46.91484" lon="8.64989">
        <ele>1132</ele>
        <time>2021-08-07T11:12:19.310Z</time>
      </trkpt>
      <trkpt lat="46.91485" lon="8.64989">
        <ele>1132</ele>
        <time>2021-08-07T11:12:20.309Z</time>
      </trkpt>
      <trkpt lat="46.91487" lon="8.64989">
        <ele>1132</ele>
        <time>2021-08-07T11:12:21.310Z</time>
      </trkpt>
      <trkpt lat="46.91488" lon="8.64988">
        <ele>1132</ele>
        <time>2021-08-07T11:12:22.309Z</time>
      </trkpt>
      <trkpt lat="46.91489" lon="8.64988">
        <ele>1132</ele>
        <time>2021-08-07T11:12:23.310Z</time>
      </trkpt>
      <trkpt lat="46.91489" lon="8.64988">
        <ele>1132</ele>
        <time>2021-08-07T11:12:24.310Z</time>
      </trkpt>
      <trkpt lat="46.91489" lon="8.64988">
        <ele>1132</ele>
        <time>2021-08-07T11:12:25.310Z</time>
      </trkpt>
      <trkpt lat="46.9149" lon="8.64988">
        <ele>1132</ele>
        <time>2021-08-07T11:12:26.310Z</time>
      </trkpt>
      <trkpt lat="46.91491" lon="8.64989">
        <ele>1132</ele>
        <time>2021-08-07T11:12:27.310Z</time>
      </trkpt>
      <trkpt lat="46.91492" lon="8.64989">
        <ele>1131</ele>
        <time>2021-08-07T11:12:28.310Z</time>
      </trkpt>
      <trkpt lat="46.91493" lon="8.64987">
        <ele>1131</ele>
        <time>2021-08-07T11:12:29.310Z</time>
      </trkpt>
      <trkpt lat="46.91494" lon="8.64987">
        <ele>1131</ele>
        <time>2021-08-07T11:12:30.310Z</time>
      </trkpt>
      <trkpt lat="46.91495" lon="8.64986">
        <ele>1131</ele>
        <time>2021-08-07T11:12:31.309Z</time>
      </trkpt>
      <trkpt lat="46.91496" lon="8.64984">
        <ele>1131</ele>
        <time>2021-08-07T11:12:32.309Z</time>
      </trkpt>
      <trkpt lat="46.91497" lon="8.64984">
        <ele>1131</ele>
        <time>2021-08-07T11:12:33.309Z</time>
      </trkpt>
      <trkpt lat="46.91498" lon="8.64984">
        <ele>1131</ele>
        <time>2021-08-07T11:12:34.310Z</time>
      </trkpt>
      <trkpt lat="46.91499" lon="8.64984">
        <ele>1131</ele>
        <time>2021-08-07T11:12:35.309Z</time>
      </trkpt>
      <trkpt lat="46.915" lon="8.64984">
        <ele>1131</ele>
        <time>2021-08-07T11:12:36.310Z</time>
      </trkpt>
      <trkpt lat="46.91501" lon="8.64983">
        <ele>1131</ele>
        <time>2021-08-07T11:12:37.310Z</time>
      </trkpt>
      <trkpt lat="46.91502" lon="8.64982">
        <ele>1131</ele>
        <time>2021-08-07T11:12:38.310Z</time>
      </trkpt>
      <trkpt lat="46.91503" lon="8.64981">
        <ele>1131</ele>
        <time>2021-08-07T11:12:39.310Z</time>
      </trkpt>
      <trkpt lat="46.91503" lon="8.64981">
        <ele>1131</ele>
        <time>2021-08-07T11:12:40.310Z</time>
      </trkpt>
      <trkpt lat="46.91504" lon="8.6498">
        <ele>1131</ele>
        <time>2021-08-07T11:12:41.310Z</time>
      </trkpt>
      <trkpt lat="46.91504" lon="8.64979">
        <ele>1132</ele>
        <time>2021-08-07T11:12:42.309Z</time>
      </trkpt>
      <trkpt lat="46.91505" lon="8.64978">
        <ele>1132</ele>
        <time>2021-08-07T11:12:43.309Z</time>
      </trkpt>
      <trkpt lat="46.91507" lon="8.64976">
        <ele>1132</ele>
        <time>2021-08-07T11:12:44.310Z</time>
      </trkpt>
      <trkpt lat="46.91508" lon="8.64975">
        <ele>1132</ele>
        <time>2021-08-07T11:12:45.309Z</time>
      </trkpt>
      <trkpt lat="46.91509" lon="8.64973">
        <ele>1131</ele>
        <time>2021-08-07T11:12:46.310Z</time>
      </trkpt>
      <trkpt lat="46.9151" lon="8.64972">
        <ele>1131</ele>
        <time>2021-08-07T11:12:47.309Z</time>
      </trkpt>
      <trkpt lat="46.91511" lon="8.64971">
        <ele>1130</ele>
        <time>2021-08-07T11:12:48.309Z</time>
      </trkpt>
      <trkpt lat="46.91512" lon="8.64969">
        <ele>1130</ele>
        <time>2021-08-07T11:12:49.310Z</time>
      </trkpt>
      <trkpt lat="46.91513" lon="8.64969">
        <ele>1130</ele>
        <time>2021-08-07T11:12:50.310Z</time>
      </trkpt>
      <trkpt lat="46.91514" lon="8.64967">
        <ele>1129</ele>
        <time>2021-08-07T11:12:51.309Z</time>
      </trkpt>
      <trkpt lat="46.91514" lon="8.64966">
        <ele>1129</ele>
        <time>2021-08-07T11:12:52.309Z</time>
      </trkpt>
      <trkpt lat="46.91514" lon="8.64965">
        <ele>1129</ele>
        <time>2021-08-07T11:12:53.309Z</time>
      </trkpt>
      <trkpt lat="46.91515" lon="8.64965">
        <ele>1129</ele>
        <time>2021-08-07T11:12:54.309Z</time>
      </trkpt>
      <trkpt lat="46.91516" lon="8.64965">
        <ele>1128</ele>
        <time>2021-08-07T11:12:55.309Z</time>
      </trkpt>
      <trkpt lat="46.91516" lon="8.64965">
        <ele>1128</ele>
        <time>2021-08-07T11:12:56.310Z</time>
      </trkpt>
      <trkpt lat="46.91518" lon="8.64966">
        <ele>1128</ele>
        <time>2021-08-07T11:12:57.309Z</time>
      </trkpt>
      <trkpt lat="46.91519" lon="8.64967">
        <ele>1128</ele>
        <time>2021-08-07T11:12:58.309Z</time>
      </trkpt>
      <trkpt lat="46.91519" lon="8.64968">
        <ele>1127</ele>
        <time>2021-08-07T11:12:59.309Z</time>
      </trkpt>
      <trkpt lat="46.9152" lon="8.64969">
        <ele>1127</ele>
        <time>2021-08-07T11:13:00.309Z</time>
      </trkpt>
      <trkpt lat="46.91521" lon="8.6497">
        <ele>1127</ele>
        <time>2021-08-07T11:13:01.310Z</time>
      </trkpt>
      <trkpt lat="46.91522" lon="8.64971">
        <ele>1127</ele>
        <time>2021-08-07T11:13:02.309Z</time>
      </trkpt>
      <trkpt lat="46.91522" lon="8.64972">
        <ele>1127</ele>
        <time>2021-08-07T11:13:03.309Z</time>
      </trkpt>
      <trkpt lat="46.91523" lon="8.64973">
        <ele>1126</ele>
        <time>2021-08-07T11:13:04.309Z</time>
      </trkpt>
      <trkpt lat="46.91524" lon="8.64973">
        <ele>1126</ele>
        <time>2021-08-07T11:13:05.310Z</time>
      </trkpt>
      <trkpt lat="46.91524" lon="8.64973">
        <ele>1125</ele>
        <time>2021-08-07T11:13:06.310Z</time>
      </trkpt>
      <trkpt lat="46.91525" lon="8.64973">
        <ele>1125</ele>
        <time>2021-08-07T11:13:07.309Z</time>
      </trkpt>
      <trkpt lat="46.91525" lon="8.64973">
        <ele>1124</ele>
        <time>2021-08-07T11:13:08.309Z</time>
      </trkpt>
      <trkpt lat="46.91526" lon="8.64973">
        <ele>1123</ele>
        <time>2021-08-07T11:13:09.310Z</time>
      </trkpt>
      <trkpt lat="46.91527" lon="8.64977">
        <ele>1120</ele>
        <time>2021-08-07T11:13:10.310Z</time>
      </trkpt>
      <trkpt lat="46.91527" lon="8.64977">
        <ele>1119</ele>
        <time>2021-08-07T11:13:11.310Z</time>
      </trkpt>
      <trkpt lat="46.91527" lon="8.64977">
        <ele>1119</ele>
        <time>2021-08-07T11:13:12.311Z</time>
      </trkpt>
      <trkpt lat="46.91526" lon="8.64978">
        <ele>1119</ele>
        <time>2021-08-07T11:13:13.311Z</time>
      </trkpt>
      <trkpt lat="46.91526" lon="8.6498">
        <ele>1118</ele>
        <time>2021-08-07T11:13:14.310Z</time>
      </trkpt>
      <trkpt lat="46.91527" lon="8.64979">
        <ele>1118</ele>
        <time>2021-08-07T11:13:15.311Z</time>
      </trkpt>
      <trkpt lat="46.91527" lon="8.64979">
        <ele>1118</ele>
        <time>2021-08-07T11:13:16.311Z</time>
      </trkpt>
      <trkpt lat="46.91528" lon="8.6498">
        <ele>1117</ele>
        <time>2021-08-07T11:13:17.310Z</time>
      </trkpt>
      <trkpt lat="46.91529" lon="8.64979">
        <ele>1117</ele>
        <time>2021-08-07T11:13:18.311Z</time>
      </trkpt>
      <trkpt lat="46.91529" lon="8.64979">
        <ele>1117</ele>
        <time>2021-08-07T11:13:19.310Z</time>
      </trkpt>
      <trkpt lat="46.9153" lon="8.64978">
        <ele>1117</ele>
        <time>2021-08-07T11:13:20.310Z</time>
      </trkpt>
      <trkpt lat="46.9153" lon="8.64977">
        <ele>1116</ele>
        <time>2021-08-07T11:13:21.310Z</time>
      </trkpt>
      <trkpt lat="46.9153" lon="8.64976">
        <ele>1116</ele>
        <time>2021-08-07T11:13:22.311Z</time>
      </trkpt>
      <trkpt lat="46.9153" lon="8.64975">
        <ele>1116</ele>
        <time>2021-08-07T11:13:23.310Z</time>
      </trkpt>
      <trkpt lat="46.9153" lon="8.64975">
        <ele>1116</ele>
        <time>2021-08-07T11:13:24.311Z</time>
      </trkpt>
      <trkpt lat="46.91531" lon="8.64974">
        <ele>1115</ele>
        <time>2021-08-07T11:13:25.311Z</time>
      </trkpt>
      <trkpt lat="46.91531" lon="8.64973">
        <ele>1115</ele>
        <time>2021-08-07T11:13:26.311Z</time>
      </trkpt>
      <trkpt lat="46.91532" lon="8.64973">
        <ele>1115</ele>
        <time>2021-08-07T11:13:27.310Z</time>
      </trkpt>
      <trkpt lat="46.91533" lon="8.64972">
        <ele>1115</ele>
        <time>2021-08-07T11:13:28.310Z</time>
      </trkpt>
      <trkpt lat="46.91533" lon="8.64972">
        <ele>1115</ele>
        <time>2021-08-07T11:13:29.311Z</time>
      </trkpt>
      <trkpt lat="46.91534" lon="8.64972">
        <ele>1115</ele>
        <time>2021-08-07T11:13:30.310Z</time>
      </trkpt>
      <trkpt lat="46.91534" lon="8.64971">
        <ele>1115</ele>
        <time>2021-08-07T11:13:31.311Z</time>
      </trkpt>
      <trkpt lat="46.91534" lon="8.64971">
        <ele>1114</ele>
        <time>2021-08-07T11:13:32.310Z</time>
      </trkpt>
      <trkpt lat="46.91535" lon="8.6497">
        <ele>1114</ele>
        <time>2021-08-07T11:13:33.311Z</time>
      </trkpt>
      <trkpt lat="46.91536" lon="8.64969">
        <ele>1114</ele>
        <time>2021-08-07T11:13:34.310Z</time>
      </trkpt>
      <trkpt lat="46.91536" lon="8.64968">
        <ele>1114</ele>
        <time>2021-08-07T11:13:35.311Z</time>
      </trkpt>
      <trkpt lat="46.91537" lon="8.64967">
        <ele>1114</ele>
        <time>2021-08-07T11:13:36.310Z</time>
      </trkpt>
      <trkpt lat="46.91538" lon="8.64966">
        <ele>1114</ele>
        <time>2021-08-07T11:13:37.311Z</time>
      </trkpt>
      <trkpt lat="46.91539" lon="8.64966">
        <ele>1113</ele>
        <time>2021-08-07T11:13:38.311Z</time>
      </trkpt>
      <trkpt lat="46.9154" lon="8.64966">
        <ele>1113</ele>
        <time>2021-08-07T11:13:39.310Z</time>
      </trkpt>
      <trkpt lat="46.91541" lon="8.64965">
        <ele>1113</ele>
        <time>2021-08-07T11:13:40.310Z</time>
      </trkpt>
      <trkpt lat="46.91543" lon="8.64965">
        <ele>1112</ele>
        <time>2021-08-07T11:13:41.310Z</time>
      </trkpt>
      <trkpt lat="46.91544" lon="8.64963">
        <ele>1112</ele>
        <time>2021-08-07T11:13:42.311Z</time>
      </trkpt>
      <trkpt lat="46.91544" lon="8.64961">
        <ele>1111</ele>
        <time>2021-08-07T11:13:43.310Z</time>
      </trkpt>
      <trkpt lat="46.91544" lon="8.6496">
        <ele>1111</ele>
        <time>2021-08-07T11:13:44.311Z</time>
      </trkpt>
      <trkpt lat="46.91546" lon="8.64958">
        <ele>1111</ele>
        <time>2021-08-07T11:13:45.311Z</time>
      </trkpt>
      <trkpt lat="46.91546" lon="8.64957">
        <ele>1110</ele>
        <time>2021-08-07T11:13:46.310Z</time>
      </trkpt>
      <trkpt lat="46.91548" lon="8.64957">
        <ele>1110</ele>
        <time>2021-08-07T11:13:47.311Z</time>
      </trkpt>
      <trkpt lat="46.91548" lon="8.64957">
        <ele>1110</ele>
        <time>2021-08-07T11:13:48.311Z</time>
      </trkpt>
      <trkpt lat="46.91549" lon="8.64957">
        <ele>1110</ele>
        <time>2021-08-07T11:13:49.310Z</time>
      </trkpt>
      <trkpt lat="46.91551" lon="8.64955">
        <ele>1110</ele>
        <time>2021-08-07T11:13:50.310Z</time>
      </trkpt>
      <trkpt lat="46.91554" lon="8.64953">
        <ele>1110</ele>
        <time>2021-08-07T11:13:51.311Z</time>
      </trkpt>
      <trkpt lat="46.91556" lon="8.64953">
        <ele>1110</ele>
        <time>2021-08-07T11:13:52.311Z</time>
      </trkpt>
      <trkpt lat="46.91557" lon="8.64952">
        <ele>1110</ele>
        <time>2021-08-07T11:13:53.310Z</time>
      </trkpt>
      <trkpt lat="46.91559" lon="8.64951">
        <ele>1110</ele>
        <time>2021-08-07T11:13:54.310Z</time>
      </trkpt>
      <trkpt lat="46.91561" lon="8.6495">
        <ele>1110</ele>
        <time>2021-08-07T11:13:55.310Z</time>
      </trkpt>
      <trkpt lat="46.91561" lon="8.64948">
        <ele>1110</ele>
        <time>2021-08-07T11:13:56.311Z</time>
      </trkpt>
      <trkpt lat="46.91562" lon="8.64947">
        <ele>1110</ele>
        <time>2021-08-07T11:13:57.310Z</time>
      </trkpt>
      <trkpt lat="46.91562" lon="8.64946">
        <ele>1109</ele>
        <time>2021-08-07T11:13:58.311Z</time>
      </trkpt>
      <trkpt lat="46.91562" lon="8.64945">
        <ele>1109</ele>
        <time>2021-08-07T11:13:59.311Z</time>
      </trkpt>
      <trkpt lat="46.91563" lon="8.64944">
        <ele>1109</ele>
        <time>2021-08-07T11:14:00.311Z</time>
      </trkpt>
      <trkpt lat="46.91564" lon="8.64943">
        <ele>1108</ele>
        <time>2021-08-07T11:14:01.311Z</time>
      </trkpt>
      <trkpt lat="46.91564" lon="8.64943">
        <ele>1108</ele>
        <time>2021-08-07T11:14:02.310Z</time>
      </trkpt>
      <trkpt lat="46.91564" lon="8.64942">
        <ele>1107</ele>
        <time>2021-08-07T11:14:03.310Z</time>
      </trkpt>
      <trkpt lat="46.91565" lon="8.64942">
        <ele>1107</ele>
        <time>2021-08-07T11:14:04.311Z</time>
      </trkpt>
      <trkpt lat="46.91566" lon="8.64941">
        <ele>1107</ele>
        <time>2021-08-07T11:14:05.311Z</time>
      </trkpt>
      <trkpt lat="46.91567" lon="8.6494">
        <ele>1106</ele>
        <time>2021-08-07T11:14:06.310Z</time>
      </trkpt>
      <trkpt lat="46.91568" lon="8.6494">
        <ele>1106</ele>
        <time>2021-08-07T11:14:07.311Z</time>
      </trkpt>
      <trkpt lat="46.91569" lon="8.64939">
        <ele>1106</ele>
        <time>2021-08-07T11:14:08.310Z</time>
      </trkpt>
      <trkpt lat="46.9157" lon="8.64937">
        <ele>1105</ele>
        <time>2021-08-07T11:14:09.311Z</time>
      </trkpt>
      <trkpt lat="46.9157" lon="8.64937">
        <ele>1105</ele>
        <time>2021-08-07T11:14:10.310Z</time>
      </trkpt>
      <trkpt lat="46.91571" lon="8.64937">
        <ele>1105</ele>
        <time>2021-08-07T11:14:11.311Z</time>
      </trkpt>
      <trkpt lat="46.91572" lon="8.64936">
        <ele>1105</ele>
        <time>2021-08-07T11:14:12.311Z</time>
      </trkpt>
      <trkpt lat="46.91574" lon="8.64934">
        <ele>1105</ele>
        <time>2021-08-07T11:14:13.311Z</time>
      </trkpt>
      <trkpt lat="46.91575" lon="8.64932">
        <ele>1104</ele>
        <time>2021-08-07T11:14:14.311Z</time>
      </trkpt>
      <trkpt lat="46.91576" lon="8.64929">
        <ele>1104</ele>
        <time>2021-08-07T11:14:15.311Z</time>
      </trkpt>
      <trkpt lat="46.91577" lon="8.64926">
        <ele>1104</ele>
        <time>2021-08-07T11:14:16.311Z</time>
      </trkpt>
      <trkpt lat="46.91578" lon="8.64925">
        <ele>1103</ele>
        <time>2021-08-07T11:14:17.311Z</time>
      </trkpt>
      <trkpt lat="46.91579" lon="8.64924">
        <ele>1103</ele>
        <time>2021-08-07T11:14:18.310Z</time>
      </trkpt>
      <trkpt lat="46.91579" lon="8.64923">
        <ele>1103</ele>
        <time>2021-08-07T11:14:19.311Z</time>
      </trkpt>
      <trkpt lat="46.91581" lon="8.64922">
        <ele>1102</ele>
        <time>2021-08-07T11:14:20.311Z</time>
      </trkpt>
      <trkpt lat="46.91582" lon="8.6492">
        <ele>1102</ele>
        <time>2021-08-07T11:14:21.311Z</time>
      </trkpt>
      <trkpt lat="46.91583" lon="8.64918">
        <ele>1101</ele>
        <time>2021-08-07T11:14:22.311Z</time>
      </trkpt>
      <trkpt lat="46.91584" lon="8.64917">
        <ele>1101</ele>
        <time>2021-08-07T11:14:23.311Z</time>
      </trkpt>
      <trkpt lat="46.91585" lon="8.64916">
        <ele>1100</ele>
        <time>2021-08-07T11:14:24.311Z</time>
      </trkpt>
      <trkpt lat="46.91585" lon="8.64914">
        <ele>1100</ele>
        <time>2021-08-07T11:14:25.310Z</time>
      </trkpt>
      <trkpt lat="46.91585" lon="8.64912">
        <ele>1099</ele>
        <time>2021-08-07T11:14:26.311Z</time>
      </trkpt>
      <trkpt lat="46.91586" lon="8.6491">
        <ele>1099</ele>
        <time>2021-08-07T11:14:27.311Z</time>
      </trkpt>
      <trkpt lat="46.91588" lon="8.64909">
        <ele>1099</ele>
        <time>2021-08-07T11:14:28.310Z</time>
      </trkpt>
      <trkpt lat="46.91589" lon="8.64908">
        <ele>1098</ele>
        <time>2021-08-07T11:14:29.310Z</time>
      </trkpt>
      <trkpt lat="46.9159" lon="8.64907">
        <ele>1098</ele>
        <time>2021-08-07T11:14:30.311Z</time>
      </trkpt>
      <trkpt lat="46.91591" lon="8.64907">
        <ele>1098</ele>
        <time>2021-08-07T11:14:31.311Z</time>
      </trkpt>
      <trkpt lat="46.91592" lon="8.64906">
        <ele>1098</ele>
        <time>2021-08-07T11:14:32.311Z</time>
      </trkpt>
      <trkpt lat="46.91593" lon="8.64905">
        <ele>1098</ele>
        <time>2021-08-07T11:14:33.310Z</time>
      </trkpt>
      <trkpt lat="46.91594" lon="8.64904">
        <ele>1098</ele>
        <time>2021-08-07T11:14:34.310Z</time>
      </trkpt>
      <trkpt lat="46.91595" lon="8.64902">
        <ele>1098</ele>
        <time>2021-08-07T11:14:35.311Z</time>
      </trkpt>
      <trkpt lat="46.91595" lon="8.64901">
        <ele>1098</ele>
        <time>2021-08-07T11:14:36.310Z</time>
      </trkpt>
      <trkpt lat="46.91596" lon="8.64898">
        <ele>1098</ele>
        <time>2021-08-07T11:14:37.311Z</time>
      </trkpt>
      <trkpt lat="46.91597" lon="8.64897">
        <ele>1098</ele>
        <time>2021-08-07T11:14:38.310Z</time>
      </trkpt>
      <trkpt lat="46.91598" lon="8.64895">
        <ele>1098</ele>
        <time>2021-08-07T11:14:39.311Z</time>
      </trkpt>
      <trkpt lat="46.91598" lon="8.64893">
        <ele>1098</ele>
        <time>2021-08-07T11:14:40.311Z</time>
      </trkpt>
      <trkpt lat="46.91598" lon="8.64892">
        <ele>1098</ele>
        <time>2021-08-07T11:14:41.311Z</time>
      </trkpt>
      <trkpt lat="46.91598" lon="8.64891">
        <ele>1098</ele>
        <time>2021-08-07T11:14:42.311Z</time>
      </trkpt>
      <trkpt lat="46.91599" lon="8.64889">
        <ele>1097</ele>
        <time>2021-08-07T11:14:49.321Z</time>
      </trkpt>
      <trkpt lat="46.91599" lon="8.64888">
        <ele>1097</ele>
        <time>2021-08-07T11:14:50.322Z</time>
      </trkpt>
      <trkpt lat="46.91601" lon="8.64888">
        <ele>1097</ele>
        <time>2021-08-07T11:14:51.322Z</time>
      </trkpt>
      <trkpt lat="46.91602" lon="8.64888">
        <ele>1097</ele>
        <time>2021-08-07T11:14:52.322Z</time>
      </trkpt>
      <trkpt lat="46.91603" lon="8.64888">
        <ele>1097</ele>
        <time>2021-08-07T11:14:53.322Z</time>
      </trkpt>
      <trkpt lat="46.91604" lon="8.64888">
        <ele>1097</ele>
        <time>2021-08-07T11:14:54.322Z</time>
      </trkpt>
      <trkpt lat="46.91605" lon="8.64887">
        <ele>1097</ele>
        <time>2021-08-07T11:14:55.321Z</time>
      </trkpt>
      <trkpt lat="46.91606" lon="8.64887">
        <ele>1096</ele>
        <time>2021-08-07T11:14:56.322Z</time>
      </trkpt>
      <trkpt lat="46.91607" lon="8.64887">
        <ele>1096</ele>
        <time>2021-08-07T11:14:57.322Z</time>
      </trkpt>
      <trkpt lat="46.91608" lon="8.64886">
        <ele>1096</ele>
        <time>2021-08-07T11:14:58.321Z</time>
      </trkpt>
      <trkpt lat="46.91609" lon="8.64884">
        <ele>1096</ele>
        <time>2021-08-07T11:14:59.321Z</time>
      </trkpt>
      <trkpt lat="46.91611" lon="8.64883">
        <ele>1096</ele>
        <time>2021-08-07T11:15:00.322Z</time>
      </trkpt>
      <trkpt lat="46.91612" lon="8.64882">
        <ele>1096</ele>
        <time>2021-08-07T11:15:01.322Z</time>
      </trkpt>
      <trkpt lat="46.91613" lon="8.6488">
        <ele>1096</ele>
        <time>2021-08-07T11:15:02.322Z</time>
      </trkpt>
      <trkpt lat="46.91614" lon="8.6488">
        <ele>1096</ele>
        <time>2021-08-07T11:15:03.322Z</time>
      </trkpt>
      <trkpt lat="46.91615" lon="8.64879">
        <ele>1096</ele>
        <time>2021-08-07T11:15:04.321Z</time>
      </trkpt>
      <trkpt lat="46.91617" lon="8.64879">
        <ele>1096</ele>
        <time>2021-08-07T11:15:05.321Z</time>
      </trkpt>
      <trkpt lat="46.91619" lon="8.64878">
        <ele>1095</ele>
        <time>2021-08-07T11:15:06.321Z</time>
      </trkpt>
      <trkpt lat="46.9162" lon="8.64878">
        <ele>1095</ele>
        <time>2021-08-07T11:15:07.321Z</time>
      </trkpt>
      <trkpt lat="46.91621" lon="8.64876">
        <ele>1094</ele>
        <time>2021-08-07T11:15:08.321Z</time>
      </trkpt>
      <trkpt lat="46.91622" lon="8.64875">
        <ele>1094</ele>
        <time>2021-08-07T11:15:09.322Z</time>
      </trkpt>
      <trkpt lat="46.91623" lon="8.64874">
        <ele>1093</ele>
        <time>2021-08-07T11:15:10.322Z</time>
      </trkpt>
      <trkpt lat="46.91625" lon="8.64872">
        <ele>1093</ele>
        <time>2021-08-07T11:15:11.321Z</time>
      </trkpt>
      <trkpt lat="46.91626" lon="8.64871">
        <ele>1092</ele>
        <time>2021-08-07T11:15:12.322Z</time>
      </trkpt>
      <trkpt lat="46.91628" lon="8.6487">
        <ele>1092</ele>
        <time>2021-08-07T11:15:13.322Z</time>
      </trkpt>
      <trkpt lat="46.9163" lon="8.64869">
        <ele>1091</ele>
        <time>2021-08-07T11:15:14.322Z</time>
      </trkpt>
      <trkpt lat="46.91631" lon="8.64868">
        <ele>1091</ele>
        <time>2021-08-07T11:15:15.321Z</time>
      </trkpt>
      <trkpt lat="46.91632" lon="8.64867">
        <ele>1091</ele>
        <time>2021-08-07T11:15:16.322Z</time>
      </trkpt>
      <trkpt lat="46.91633" lon="8.64866">
        <ele>1090</ele>
        <time>2021-08-07T11:15:17.322Z</time>
      </trkpt>
      <trkpt lat="46.91634" lon="8.64866">
        <ele>1090</ele>
        <time>2021-08-07T11:15:18.321Z</time>
      </trkpt>
      <trkpt lat="46.91635" lon="8.64865">
        <ele>1090</ele>
        <time>2021-08-07T11:15:19.321Z</time>
      </trkpt>
      <trkpt lat="46.91635" lon="8.64864">
        <ele>1089</ele>
        <time>2021-08-07T11:15:24.454Z</time>
      </trkpt>
      <trkpt lat="46.91635" lon="8.64862">
        <ele>1088</ele>
        <time>2021-08-07T11:15:25.455Z</time>
      </trkpt>
      <trkpt lat="46.91636" lon="8.6486">
        <ele>1088</ele>
        <time>2021-08-07T11:15:26.455Z</time>
      </trkpt>
      <trkpt lat="46.91637" lon="8.64859">
        <ele>1087</ele>
        <time>2021-08-07T11:15:27.455Z</time>
      </trkpt>
      <trkpt lat="46.91638" lon="8.64858">
        <ele>1087</ele>
        <time>2021-08-07T11:15:28.454Z</time>
      </trkpt>
      <trkpt lat="46.91638" lon="8.64857">
        <ele>1087</ele>
        <time>2021-08-07T11:15:29.455Z</time>
      </trkpt>
      <trkpt lat="46.91639" lon="8.64856">
        <ele>1087</ele>
        <time>2021-08-07T11:15:30.455Z</time>
      </trkpt>
      <trkpt lat="46.9164" lon="8.64855">
        <ele>1087</ele>
        <time>2021-08-07T11:15:31.454Z</time>
      </trkpt>
      <trkpt lat="46.9164" lon="8.64855">
        <ele>1087</ele>
        <time>2021-08-07T11:15:32.455Z</time>
      </trkpt>
      <trkpt lat="46.91641" lon="8.64854">
        <ele>1086</ele>
        <time>2021-08-07T11:15:33.455Z</time>
      </trkpt>
      <trkpt lat="46.91641" lon="8.64855">
        <ele>1086</ele>
        <time>2021-08-07T11:15:34.455Z</time>
      </trkpt>
      <trkpt lat="46.91642" lon="8.64855">
        <ele>1086</ele>
        <time>2021-08-07T11:15:35.455Z</time>
      </trkpt>
      <trkpt lat="46.91641" lon="8.64855">
        <ele>1086</ele>
        <time>2021-08-07T11:15:36.455Z</time>
      </trkpt>
      <trkpt lat="46.91641" lon="8.64856">
        <ele>1086</ele>
        <time>2021-08-07T11:15:37.455Z</time>
      </trkpt>
      <trkpt lat="46.91641" lon="8.64851">
        <ele>1084</ele>
        <time>2021-08-07T11:15:38.455Z</time>
      </trkpt>
      <trkpt lat="46.91642" lon="8.6485">
        <ele>1083</ele>
        <time>2021-08-07T11:15:39.456Z</time>
      </trkpt>
      <trkpt lat="46.91643" lon="8.6485">
        <ele>1083</ele>
        <time>2021-08-07T11:15:40.455Z</time>
      </trkpt>
      <trkpt lat="46.91644" lon="8.6485">
        <ele>1083</ele>
        <time>2021-08-07T11:15:41.456Z</time>
      </trkpt>
      <trkpt lat="46.91644" lon="8.6485">
        <ele>1083</ele>
        <time>2021-08-07T11:15:42.456Z</time>
      </trkpt>
      <trkpt lat="46.91645" lon="8.64849">
        <ele>1083</ele>
        <time>2021-08-07T11:15:43.456Z</time>
      </trkpt>
      <trkpt lat="46.91645" lon="8.64849">
        <ele>1082</ele>
        <time>2021-08-07T11:15:44.455Z</time>
      </trkpt>
      <trkpt lat="46.91645" lon="8.64849">
        <ele>1082</ele>
        <time>2021-08-07T11:15:45.455Z</time>
      </trkpt>
      <trkpt lat="46.91646" lon="8.64848">
        <ele>1082</ele>
        <time>2021-08-07T11:15:46.455Z</time>
      </trkpt>
      <trkpt lat="46.91648" lon="8.64847">
        <ele>1083</ele>
        <time>2021-08-07T11:15:47.456Z</time>
      </trkpt>
      <trkpt lat="46.91648" lon="8.64845">
        <ele>1083</ele>
        <time>2021-08-07T11:15:48.456Z</time>
      </trkpt>
      <trkpt lat="46.91649" lon="8.64844">
        <ele>1083</ele>
        <time>2021-08-07T11:15:49.456Z</time>
      </trkpt>
      <trkpt lat="46.91649" lon="8.64843">
        <ele>1083</ele>
        <time>2021-08-07T11:15:50.455Z</time>
      </trkpt>
      <trkpt lat="46.9165" lon="8.64842">
        <ele>1083</ele>
        <time>2021-08-07T11:15:51.456Z</time>
      </trkpt>
      <trkpt lat="46.9165" lon="8.64841">
        <ele>1084</ele>
        <time>2021-08-07T11:15:52.456Z</time>
      </trkpt>
      <trkpt lat="46.91651" lon="8.64841">
        <ele>1084</ele>
        <time>2021-08-07T11:15:53.456Z</time>
      </trkpt>
      <trkpt lat="46.91653" lon="8.64842">
        <ele>1084</ele>
        <time>2021-08-07T11:15:54.456Z</time>
      </trkpt>
      <trkpt lat="46.91655" lon="8.64841">
        <ele>1084</ele>
        <time>2021-08-07T11:15:55.456Z</time>
      </trkpt>
      <trkpt lat="46.91656" lon="8.64841">
        <ele>1084</ele>
        <time>2021-08-07T11:15:56.456Z</time>
      </trkpt>
      <trkpt lat="46.91657" lon="8.6484">
        <ele>1084</ele>
        <time>2021-08-07T11:15:57.455Z</time>
      </trkpt>
      <trkpt lat="46.91657" lon="8.64839">
        <ele>1084</ele>
        <time>2021-08-07T11:15:58.455Z</time>
      </trkpt>
      <trkpt lat="46.91658" lon="8.64837">
        <ele>1084</ele>
        <time>2021-08-07T11:15:59.455Z</time>
      </trkpt>
      <trkpt lat="46.91658" lon="8.64836">
        <ele>1084</ele>
        <time>2021-08-07T11:16:00.456Z</time>
      </trkpt>
      <trkpt lat="46.91657" lon="8.64834">
        <ele>1084</ele>
        <time>2021-08-07T11:16:01.456Z</time>
      </trkpt>
      <trkpt lat="46.91657" lon="8.64832">
        <ele>1083</ele>
        <time>2021-08-07T11:16:02.456Z</time>
      </trkpt>
      <trkpt lat="46.91655" lon="8.64832">
        <ele>1082</ele>
        <time>2021-08-07T11:16:03.455Z</time>
      </trkpt>
      <trkpt lat="46.91655" lon="8.64831">
        <ele>1082</ele>
        <time>2021-08-07T11:16:04.456Z</time>
      </trkpt>
      <trkpt lat="46.91654" lon="8.64831">
        <ele>1081</ele>
        <time>2021-08-07T11:16:05.456Z</time>
      </trkpt>
      <trkpt lat="46.91652" lon="8.6483">
        <ele>1081</ele>
        <time>2021-08-07T11:16:06.456Z</time>
      </trkpt>
      <trkpt lat="46.91652" lon="8.64829">
        <ele>1080</ele>
        <time>2021-08-07T11:16:07.456Z</time>
      </trkpt>
      <trkpt lat="46.91651" lon="8.64828">
        <ele>1080</ele>
        <time>2021-08-07T11:16:08.456Z</time>
      </trkpt>
      <trkpt lat="46.91651" lon="8.64828">
        <ele>1080</ele>
        <time>2021-08-07T11:16:09.456Z</time>
      </trkpt>
      <trkpt lat="46.9165" lon="8.64828">
        <ele>1079</ele>
        <time>2021-08-07T11:16:10.455Z</time>
      </trkpt>
      <trkpt lat="46.91649" lon="8.64828">
        <ele>1079</ele>
        <time>2021-08-07T11:16:11.455Z</time>
      </trkpt>
      <trkpt lat="46.91648" lon="8.64828">
        <ele>1079</ele>
        <time>2021-08-07T11:16:12.456Z</time>
      </trkpt>
      <trkpt lat="46.91647" lon="8.64828">
        <ele>1079</ele>
        <time>2021-08-07T11:16:13.456Z</time>
      </trkpt>
      <trkpt lat="46.91646" lon="8.64829">
        <ele>1079</ele>
        <time>2021-08-07T11:16:14.456Z</time>
      </trkpt>
      <trkpt lat="46.91645" lon="8.64829">
        <ele>1079</ele>
        <time>2021-08-07T11:16:15.456Z</time>
      </trkpt>
      <trkpt lat="46.91644" lon="8.64829">
        <ele>1079</ele>
        <time>2021-08-07T11:16:16.455Z</time>
      </trkpt>
      <trkpt lat="46.91643" lon="8.6483">
        <ele>1078</ele>
        <time>2021-08-07T11:16:17.456Z</time>
      </trkpt>
      <trkpt lat="46.91642" lon="8.64831">
        <ele>1078</ele>
        <time>2021-08-07T11:16:18.456Z</time>
      </trkpt>
      <trkpt lat="46.91641" lon="8.64832">
        <ele>1078</ele>
        <time>2021-08-07T11:16:19.456Z</time>
      </trkpt>
      <trkpt lat="46.9164" lon="8.64831">
        <ele>1078</ele>
        <time>2021-08-07T11:16:20.455Z</time>
      </trkpt>
      <trkpt lat="46.91638" lon="8.64832">
        <ele>1078</ele>
        <time>2021-08-07T11:16:21.456Z</time>
      </trkpt>
      <trkpt lat="46.91636" lon="8.64833">
        <ele>1077</ele>
        <time>2021-08-07T11:16:22.456Z</time>
      </trkpt>
      <trkpt lat="46.91634" lon="8.64833">
        <ele>1077</ele>
        <time>2021-08-07T11:16:23.456Z</time>
      </trkpt>
      <trkpt lat="46.91633" lon="8.64834">
        <ele>1077</ele>
        <time>2021-08-07T11:16:24.455Z</time>
      </trkpt>
      <trkpt lat="46.91631" lon="8.64834">
        <ele>1077</ele>
        <time>2021-08-07T11:16:25.456Z</time>
      </trkpt>
      <trkpt lat="46.91629" lon="8.64835">
        <ele>1077</ele>
        <time>2021-08-07T11:16:26.456Z</time>
      </trkpt>
      <trkpt lat="46.91628" lon="8.64836">
        <ele>1077</ele>
        <time>2021-08-07T11:16:27.456Z</time>
      </trkpt>
      <trkpt lat="46.91627" lon="8.64837">
        <ele>1076</ele>
        <time>2021-08-07T11:16:28.455Z</time>
      </trkpt>
      <trkpt lat="46.91626" lon="8.64838">
        <ele>1076</ele>
        <time>2021-08-07T11:16:29.456Z</time>
      </trkpt>
      <trkpt lat="46.91625" lon="8.64839">
        <ele>1076</ele>
        <time>2021-08-07T11:16:30.455Z</time>
      </trkpt>
      <trkpt lat="46.91624" lon="8.64839">
        <ele>1075</ele>
        <time>2021-08-07T11:16:31.455Z</time>
      </trkpt>
      <trkpt lat="46.91623" lon="8.6484">
        <ele>1075</ele>
        <time>2021-08-07T11:16:32.456Z</time>
      </trkpt>
      <trkpt lat="46.91623" lon="8.64841">
        <ele>1075</ele>
        <time>2021-08-07T11:16:33.456Z</time>
      </trkpt>
      <trkpt lat="46.91622" lon="8.64842">
        <ele>1074</ele>
        <time>2021-08-07T11:16:34.456Z</time>
      </trkpt>
      <trkpt lat="46.91621" lon="8.64843">
        <ele>1074</ele>
        <time>2021-08-07T11:16:35.455Z</time>
      </trkpt>
      <trkpt lat="46.91621" lon="8.64844">
        <ele>1073</ele>
        <time>2021-08-07T11:16:36.456Z</time>
      </trkpt>
      <trkpt lat="46.9162" lon="8.64846">
        <ele>1073</ele>
        <time>2021-08-07T11:16:37.455Z</time>
      </trkpt>
      <trkpt lat="46.91619" lon="8.64847">
        <ele>1072</ele>
        <time>2021-08-07T11:16:38.456Z</time>
      </trkpt>
      <trkpt lat="46.91618" lon="8.64847">
        <ele>1072</ele>
        <time>2021-08-07T11:16:39.455Z</time>
      </trkpt>
      <trkpt lat="46.91617" lon="8.64848">
        <ele>1071</ele>
        <time>2021-08-07T11:16:40.455Z</time>
      </trkpt>
      <trkpt lat="46.91615" lon="8.64848">
        <ele>1071</ele>
        <time>2021-08-07T11:16:41.455Z</time>
      </trkpt>
      <trkpt lat="46.91614" lon="8.64848">
        <ele>1071</ele>
        <time>2021-08-07T11:16:42.456Z</time>
      </trkpt>
      <trkpt lat="46.91612" lon="8.64848">
        <ele>1071</ele>
        <time>2021-08-07T11:16:43.456Z</time>
      </trkpt>
      <trkpt lat="46.9161" lon="8.64849">
        <ele>1071</ele>
        <time>2021-08-07T11:16:44.456Z</time>
      </trkpt>
      <trkpt lat="46.91609" lon="8.64848">
        <ele>1071</ele>
        <time>2021-08-07T11:16:45.456Z</time>
      </trkpt>
      <trkpt lat="46.91608" lon="8.64846">
        <ele>1071</ele>
        <time>2021-08-07T11:16:46.456Z</time>
      </trkpt>
      <trkpt lat="46.91607" lon="8.64845">
        <ele>1071</ele>
        <time>2021-08-07T11:16:47.456Z</time>
      </trkpt>
      <trkpt lat="46.91605" lon="8.64845">
        <ele>1071</ele>
        <time>2021-08-07T11:16:48.455Z</time>
      </trkpt>
      <trkpt lat="46.91604" lon="8.64845">
        <ele>1071</ele>
        <time>2021-08-07T11:16:49.456Z</time>
      </trkpt>
      <trkpt lat="46.91603" lon="8.64844">
        <ele>1071</ele>
        <time>2021-08-07T11:16:50.455Z</time>
      </trkpt>
      <trkpt lat="46.91602" lon="8.64843">
        <ele>1071</ele>
        <time>2021-08-07T11:16:51.456Z</time>
      </trkpt>
      <trkpt lat="46.91601" lon="8.64842">
        <ele>1071</ele>
        <time>2021-08-07T11:16:52.455Z</time>
      </trkpt>
      <trkpt lat="46.916" lon="8.64841">
        <ele>1071</ele>
        <time>2021-08-07T11:16:53.456Z</time>
      </trkpt>
      <trkpt lat="46.916" lon="8.6484">
        <ele>1071</ele>
        <time>2021-08-07T11:16:54.455Z</time>
      </trkpt>
      <trkpt lat="46.91599" lon="8.64839">
        <ele>1071</ele>
        <time>2021-08-07T11:16:55.456Z</time>
      </trkpt>
      <trkpt lat="46.91598" lon="8.64838">
        <ele>1071</ele>
        <time>2021-08-07T11:16:56.456Z</time>
      </trkpt>
      <trkpt lat="46.91597" lon="8.64838">
        <ele>1071</ele>
        <time>2021-08-07T11:16:57.455Z</time>
      </trkpt>
      <trkpt lat="46.91596" lon="8.64837">
        <ele>1071</ele>
        <time>2021-08-07T11:16:58.456Z</time>
      </trkpt>
      <trkpt lat="46.91595" lon="8.64835">
        <ele>1071</ele>
        <time>2021-08-07T11:16:59.455Z</time>
      </trkpt>
      <trkpt lat="46.91595" lon="8.64833">
        <ele>1071</ele>
        <time>2021-08-07T11:17:00.456Z</time>
      </trkpt>
      <trkpt lat="46.91594" lon="8.64832">
        <ele>1071</ele>
        <time>2021-08-07T11:17:01.456Z</time>
      </trkpt>
      <trkpt lat="46.91592" lon="8.64831">
        <ele>1070</ele>
        <time>2021-08-07T11:17:02.456Z</time>
      </trkpt>
      <trkpt lat="46.91591" lon="8.6483">
        <ele>1070</ele>
        <time>2021-08-07T11:17:03.456Z</time>
      </trkpt>
      <trkpt lat="46.9159" lon="8.64829">
        <ele>1070</ele>
        <time>2021-08-07T11:17:04.455Z</time>
      </trkpt>
      <trkpt lat="46.91589" lon="8.64827">
        <ele>1070</ele>
        <time>2021-08-07T11:17:05.456Z</time>
      </trkpt>
      <trkpt lat="46.91588" lon="8.64827">
        <ele>1071</ele>
        <time>2021-08-07T11:17:06.456Z</time>
      </trkpt>
      <trkpt lat="46.91588" lon="8.64825">
        <ele>1071</ele>
        <time>2021-08-07T11:17:07.455Z</time>
      </trkpt>
      <trkpt lat="46.91587" lon="8.64825">
        <ele>1071</ele>
        <time>2021-08-07T11:17:08.456Z</time>
      </trkpt>
      <trkpt lat="46.91586" lon="8.64824">
        <ele>1071</ele>
        <time>2021-08-07T11:17:09.455Z</time>
      </trkpt>
      <trkpt lat="46.91585" lon="8.64824">
        <ele>1071</ele>
        <time>2021-08-07T11:17:10.455Z</time>
      </trkpt>
      <trkpt lat="46.91584" lon="8.64823">
        <ele>1071</ele>
        <time>2021-08-07T11:17:11.456Z</time>
      </trkpt>
      <trkpt lat="46.91583" lon="8.64823">
        <ele>1071</ele>
        <time>2021-08-07T11:17:12.456Z</time>
      </trkpt>
      <trkpt lat="46.91581" lon="8.64822">
        <ele>1071</ele>
        <time>2021-08-07T11:17:13.455Z</time>
      </trkpt>
      <trkpt lat="46.9158" lon="8.6482">
        <ele>1071</ele>
        <time>2021-08-07T11:17:14.455Z</time>
      </trkpt>
      <trkpt lat="46.91579" lon="8.6482">
        <ele>1070</ele>
        <time>2021-08-07T11:17:15.455Z</time>
      </trkpt>
      <trkpt lat="46.91578" lon="8.6482">
        <ele>1070</ele>
        <time>2021-08-07T11:17:16.456Z</time>
      </trkpt>
      <trkpt lat="46.91576" lon="8.6482">
        <ele>1069</ele>
        <time>2021-08-07T11:17:17.456Z</time>
      </trkpt>
      <trkpt lat="46.91574" lon="8.64819">
        <ele>1068</ele>
        <time>2021-08-07T11:17:18.456Z</time>
      </trkpt>
      <trkpt lat="46.91573" lon="8.64819">
        <ele>1068</ele>
        <time>2021-08-07T11:17:19.456Z</time>
      </trkpt>
      <trkpt lat="46.91572" lon="8.64818">
        <ele>1068</ele>
        <time>2021-08-07T11:17:20.456Z</time>
      </trkpt>
      <trkpt lat="46.91571" lon="8.64818">
        <ele>1067</ele>
        <time>2021-08-07T11:17:21.456Z</time>
      </trkpt>
      <trkpt lat="46.9157" lon="8.64818">
        <ele>1067</ele>
        <time>2021-08-07T11:17:22.456Z</time>
      </trkpt>
      <trkpt lat="46.91569" lon="8.64818">
        <ele>1067</ele>
        <time>2021-08-07T11:17:23.456Z</time>
      </trkpt>
      <trkpt lat="46.91568" lon="8.64817">
        <ele>1067</ele>
        <time>2021-08-07T11:17:24.455Z</time>
      </trkpt>
      <trkpt lat="46.91568" lon="8.64817">
        <ele>1066</ele>
        <time>2021-08-07T11:17:25.455Z</time>
      </trkpt>
      <trkpt lat="46.91567" lon="8.64816">
        <ele>1066</ele>
        <time>2021-08-07T11:17:26.455Z</time>
      </trkpt>
      <trkpt lat="46.91566" lon="8.64815">
        <ele>1065</ele>
        <time>2021-08-07T11:17:27.455Z</time>
      </trkpt>
      <trkpt lat="46.91565" lon="8.64815">
        <ele>1064</ele>
        <time>2021-08-07T11:17:28.456Z</time>
      </trkpt>
      <trkpt lat="46.91564" lon="8.64813">
        <ele>1064</ele>
        <time>2021-08-07T11:17:29.455Z</time>
      </trkpt>
      <trkpt lat="46.91563" lon="8.64813">
        <ele>1063</ele>
        <time>2021-08-07T11:17:30.455Z</time>
      </trkpt>
      <trkpt lat="46.91562" lon="8.64813">
        <ele>1063</ele>
        <time>2021-08-07T11:17:34.606Z</time>
      </trkpt>
      <trkpt lat="46.91561" lon="8.64813">
        <ele>1063</ele>
        <time>2021-08-07T11:17:35.606Z</time>
      </trkpt>
      <trkpt lat="46.91559" lon="8.64811">
        <ele>1063</ele>
        <time>2021-08-07T11:17:36.605Z</time>
      </trkpt>
      <trkpt lat="46.91558" lon="8.6481">
        <ele>1063</ele>
        <time>2021-08-07T11:17:37.606Z</time>
      </trkpt>
      <trkpt lat="46.91557" lon="8.64809">
        <ele>1064</ele>
        <time>2021-08-07T11:17:38.605Z</time>
      </trkpt>
      <trkpt lat="46.91556" lon="8.64808">
        <ele>1064</ele>
        <time>2021-08-07T11:17:39.605Z</time>
      </trkpt>
      <trkpt lat="46.91554" lon="8.64808">
        <ele>1064</ele>
        <time>2021-08-07T11:17:40.606Z</time>
      </trkpt>
      <trkpt lat="46.91553" lon="8.64809">
        <ele>1064</ele>
        <time>2021-08-07T11:17:41.605Z</time>
      </trkpt>
      <trkpt lat="46.91552" lon="8.64809">
        <ele>1064</ele>
        <time>2021-08-07T11:17:42.606Z</time>
      </trkpt>
      <trkpt lat="46.91551" lon="8.6481">
        <ele>1064</ele>
        <time>2021-08-07T11:17:43.606Z</time>
      </trkpt>
      <trkpt lat="46.9155" lon="8.6481">
        <ele>1064</ele>
        <time>2021-08-07T11:17:44.606Z</time>
      </trkpt>
      <trkpt lat="46.91549" lon="8.64809">
        <ele>1064</ele>
        <time>2021-08-07T11:17:45.606Z</time>
      </trkpt>
      <trkpt lat="46.91548" lon="8.64808">
        <ele>1064</ele>
        <time>2021-08-07T11:17:50.705Z</time>
      </trkpt>
      <trkpt lat="46.91547" lon="8.64808">
        <ele>1064</ele>
        <time>2021-08-07T11:17:51.705Z</time>
      </trkpt>
      <trkpt lat="46.91546" lon="8.64808">
        <ele>1063</ele>
        <time>2021-08-07T11:17:53.447Z</time>
      </trkpt>
      <trkpt lat="46.91545" lon="8.64807">
        <ele>1063</ele>
        <time>2021-08-07T11:17:54.448Z</time>
      </trkpt>
      <trkpt lat="46.91543" lon="8.64806">
        <ele>1063</ele>
        <time>2021-08-07T11:17:55.448Z</time>
      </trkpt>
      <trkpt lat="46.91542" lon="8.64805">
        <ele>1063</ele>
        <time>2021-08-07T11:17:56.447Z</time>
      </trkpt>
      <trkpt lat="46.91542" lon="8.64804">
        <ele>1063</ele>
        <time>2021-08-07T11:17:57.448Z</time>
      </trkpt>
      <trkpt lat="46.91541" lon="8.64803">
        <ele>1063</ele>
        <time>2021-08-07T11:17:58.447Z</time>
      </trkpt>
      <trkpt lat="46.9154" lon="8.64802">
        <ele>1063</ele>
        <time>2021-08-07T11:17:59.447Z</time>
      </trkpt>
      <trkpt lat="46.91539" lon="8.64801">
        <ele>1063</ele>
        <time>2021-08-07T11:18:00.448Z</time>
      </trkpt>
      <trkpt lat="46.91538" lon="8.64801">
        <ele>1062</ele>
        <time>2021-08-07T11:18:01.448Z</time>
      </trkpt>
      <trkpt lat="46.91537" lon="8.64801">
        <ele>1062</ele>
        <time>2021-08-07T11:18:02.447Z</time>
      </trkpt>
      <trkpt lat="46.91536" lon="8.64801">
        <ele>1062</ele>
        <time>2021-08-07T11:18:03.447Z</time>
      </trkpt>
      <trkpt lat="46.91535" lon="8.648">
        <ele>1062</ele>
        <time>2021-08-07T11:18:04.448Z</time>
      </trkpt>
      <trkpt lat="46.91534" lon="8.64798">
        <ele>1062</ele>
        <time>2021-08-07T11:18:05.447Z</time>
      </trkpt>
      <trkpt lat="46.91533" lon="8.64798">
        <ele>1062</ele>
        <time>2021-08-07T11:18:06.448Z</time>
      </trkpt>
      <trkpt lat="46.91533" lon="8.64797">
        <ele>1061</ele>
        <time>2021-08-07T11:18:07.448Z</time>
      </trkpt>
      <trkpt lat="46.91533" lon="8.64796">
        <ele>1061</ele>
        <time>2021-08-07T11:18:08.448Z</time>
      </trkpt>
      <trkpt lat="46.91532" lon="8.64795">
        <ele>1061</ele>
        <time>2021-08-07T11:18:09.448Z</time>
      </trkpt>
      <trkpt lat="46.91531" lon="8.64794">
        <ele>1061</ele>
        <time>2021-08-07T11:18:10.448Z</time>
      </trkpt>
      <trkpt lat="46.91529" lon="8.64793">
        <ele>1060</ele>
        <time>2021-08-07T11:18:11.448Z</time>
      </trkpt>
      <trkpt lat="46.91527" lon="8.64792">
        <ele>1060</ele>
        <time>2021-08-07T11:18:12.447Z</time>
      </trkpt>
      <trkpt lat="46.91526" lon="8.64791">
        <ele>1060</ele>
        <time>2021-08-07T11:18:13.448Z</time>
      </trkpt>
      <trkpt lat="46.91525" lon="8.6479">
        <ele>1059</ele>
        <time>2021-08-07T11:18:14.448Z</time>
      </trkpt>
      <trkpt lat="46.91524" lon="8.64789">
        <ele>1059</ele>
        <time>2021-08-07T11:18:15.447Z</time>
      </trkpt>
      <trkpt lat="46.91524" lon="8.64788">
        <ele>1058</ele>
        <time>2021-08-07T11:18:16.447Z</time>
      </trkpt>
      <trkpt lat="46.91523" lon="8.64787">
        <ele>1058</ele>
        <time>2021-08-07T11:18:17.447Z</time>
      </trkpt>
      <trkpt lat="46.91522" lon="8.64786">
        <ele>1057</ele>
        <time>2021-08-07T11:18:18.448Z</time>
      </trkpt>
      <trkpt lat="46.91521" lon="8.64785">
        <ele>1057</ele>
        <time>2021-08-07T11:18:19.447Z</time>
      </trkpt>
      <trkpt lat="46.9152" lon="8.64784">
        <ele>1057</ele>
        <time>2021-08-07T11:18:20.448Z</time>
      </trkpt>
      <trkpt lat="46.91519" lon="8.64782">
        <ele>1057</ele>
        <time>2021-08-07T11:18:21.447Z</time>
      </trkpt>
      <trkpt lat="46.91518" lon="8.6478">
        <ele>1056</ele>
        <time>2021-08-07T11:18:22.447Z</time>
      </trkpt>
      <trkpt lat="46.91516" lon="8.64779">
        <ele>1056</ele>
        <time>2021-08-07T11:18:23.448Z</time>
      </trkpt>
      <trkpt lat="46.91515" lon="8.64778">
        <ele>1056</ele>
        <time>2021-08-07T11:18:24.447Z</time>
      </trkpt>
      <trkpt lat="46.91513" lon="8.64777">
        <ele>1055</ele>
        <time>2021-08-07T11:18:25.447Z</time>
      </trkpt>
      <trkpt lat="46.91513" lon="8.64775">
        <ele>1055</ele>
        <time>2021-08-07T11:18:26.447Z</time>
      </trkpt>
      <trkpt lat="46.91512" lon="8.64774">
        <ele>1055</ele>
        <time>2021-08-07T11:18:27.447Z</time>
      </trkpt>
      <trkpt lat="46.91511" lon="8.64772">
        <ele>1055</ele>
        <time>2021-08-07T11:18:28.447Z</time>
      </trkpt>
      <trkpt lat="46.91511" lon="8.64769">
        <ele>1055</ele>
        <time>2021-08-07T11:18:29.447Z</time>
      </trkpt>
      <trkpt lat="46.91511" lon="8.64767">
        <ele>1055</ele>
        <time>2021-08-07T11:18:30.447Z</time>
      </trkpt>
      <trkpt lat="46.9151" lon="8.64765">
        <ele>1054</ele>
        <time>2021-08-07T11:18:31.448Z</time>
      </trkpt>
      <trkpt lat="46.91509" lon="8.64763">
        <ele>1054</ele>
        <time>2021-08-07T11:18:32.448Z</time>
      </trkpt>
      <trkpt lat="46.91508" lon="8.6476">
        <ele>1054</ele>
        <time>2021-08-07T11:18:33.447Z</time>
      </trkpt>
      <trkpt lat="46.91507" lon="8.64758">
        <ele>1054</ele>
        <time>2021-08-07T11:18:34.447Z</time>
      </trkpt>
      <trkpt lat="46.91506" lon="8.64757">
        <ele>1054</ele>
        <time>2021-08-07T11:18:35.447Z</time>
      </trkpt>
      <trkpt lat="46.91505" lon="8.64757">
        <ele>1053</ele>
        <time>2021-08-07T11:18:36.447Z</time>
      </trkpt>
      <trkpt lat="46.91504" lon="8.64756">
        <ele>1053</ele>
        <time>2021-08-07T11:18:37.447Z</time>
      </trkpt>
      <trkpt lat="46.91502" lon="8.64756">
        <ele>1053</ele>
        <time>2021-08-07T11:18:38.447Z</time>
      </trkpt>
      <trkpt lat="46.91501" lon="8.64755">
        <ele>1053</ele>
        <time>2021-08-07T11:18:39.447Z</time>
      </trkpt>
      <trkpt lat="46.91501" lon="8.64755">
        <ele>1053</ele>
        <time>2021-08-07T11:18:40.447Z</time>
      </trkpt>
      <trkpt lat="46.915" lon="8.64753">
        <ele>1053</ele>
        <time>2021-08-07T11:18:41.447Z</time>
      </trkpt>
      <trkpt lat="46.915" lon="8.64752">
        <ele>1052</ele>
        <time>2021-08-07T11:18:42.447Z</time>
      </trkpt>
      <trkpt lat="46.91499" lon="8.64751">
        <ele>1052</ele>
        <time>2021-08-07T11:18:43.447Z</time>
      </trkpt>
      <trkpt lat="46.91499" lon="8.6475">
        <ele>1053</ele>
        <time>2021-08-07T11:18:44.447Z</time>
      </trkpt>
      <trkpt lat="46.91498" lon="8.64749">
        <ele>1053</ele>
        <time>2021-08-07T11:18:45.447Z</time>
      </trkpt>
      <trkpt lat="46.91498" lon="8.64748">
        <ele>1053</ele>
        <time>2021-08-07T11:18:46.447Z</time>
      </trkpt>
      <trkpt lat="46.91497" lon="8.64748">
        <ele>1053</ele>
        <time>2021-08-07T11:18:47.447Z</time>
      </trkpt>
      <trkpt lat="46.91497" lon="8.64747">
        <ele>1053</ele>
        <time>2021-08-07T11:18:48.447Z</time>
      </trkpt>
      <trkpt lat="46.91496" lon="8.64746">
        <ele>1054</ele>
        <time>2021-08-07T11:18:49.447Z</time>
      </trkpt>
      <trkpt lat="46.91496" lon="8.64746">
        <ele>1054</ele>
        <time>2021-08-07T11:18:50.448Z</time>
      </trkpt>
      <trkpt lat="46.91496" lon="8.64744">
        <ele>1054</ele>
        <time>2021-08-07T11:18:51.447Z</time>
      </trkpt>
      <trkpt lat="46.91496" lon="8.64742">
        <ele>1054</ele>
        <time>2021-08-07T11:18:52.448Z</time>
      </trkpt>
      <trkpt lat="46.91496" lon="8.6474">
        <ele>1053</ele>
        <time>2021-08-07T11:18:53.448Z</time>
      </trkpt>
      <trkpt lat="46.91495" lon="8.64738">
        <ele>1053</ele>
        <time>2021-08-07T11:18:54.447Z</time>
      </trkpt>
      <trkpt lat="46.91495" lon="8.64737">
        <ele>1052</ele>
        <time>2021-08-07T11:18:55.447Z</time>
      </trkpt>
      <trkpt lat="46.91495" lon="8.64735">
        <ele>1052</ele>
        <time>2021-08-07T11:18:56.447Z</time>
      </trkpt>
      <trkpt lat="46.91495" lon="8.64733">
        <ele>1051</ele>
        <time>2021-08-07T11:18:57.447Z</time>
      </trkpt>
      <trkpt lat="46.91495" lon="8.64731">
        <ele>1051</ele>
        <time>2021-08-07T11:18:58.448Z</time>
      </trkpt>
      <trkpt lat="46.91495" lon="8.64728">
        <ele>1050</ele>
        <time>2021-08-07T11:18:59.447Z</time>
      </trkpt>
      <trkpt lat="46.91494" lon="8.64726">
        <ele>1049</ele>
        <time>2021-08-07T11:19:00.448Z</time>
      </trkpt>
      <trkpt lat="46.91494" lon="8.64724">
        <ele>1048</ele>
        <time>2021-08-07T11:19:01.448Z</time>
      </trkpt>
      <trkpt lat="46.91494" lon="8.64722">
        <ele>1048</ele>
        <time>2021-08-07T11:19:02.448Z</time>
      </trkpt>
      <trkpt lat="46.91494" lon="8.6472">
        <ele>1047</ele>
        <time>2021-08-07T11:19:03.448Z</time>
      </trkpt>
      <trkpt lat="46.91494" lon="8.64718">
        <ele>1046</ele>
        <time>2021-08-07T11:19:04.447Z</time>
      </trkpt>
      <trkpt lat="46.91493" lon="8.64716">
        <ele>1046</ele>
        <time>2021-08-07T11:19:05.448Z</time>
      </trkpt>
      <trkpt lat="46.91492" lon="8.64713">
        <ele>1045</ele>
        <time>2021-08-07T11:19:06.448Z</time>
      </trkpt>
      <trkpt lat="46.91491" lon="8.64712">
        <ele>1045</ele>
        <time>2021-08-07T11:19:07.448Z</time>
      </trkpt>
      <trkpt lat="46.91491" lon="8.6471">
        <ele>1044</ele>
        <time>2021-08-07T11:19:08.447Z</time>
      </trkpt>
      <trkpt lat="46.91491" lon="8.64708">
        <ele>1043</ele>
        <time>2021-08-07T11:19:09.448Z</time>
      </trkpt>
      <trkpt lat="46.9149" lon="8.64707">
        <ele>1042</ele>
        <time>2021-08-07T11:19:10.448Z</time>
      </trkpt>
      <trkpt lat="46.9149" lon="8.64706">
        <ele>1041</ele>
        <time>2021-08-07T11:19:11.448Z</time>
      </trkpt>
      <trkpt lat="46.9149" lon="8.64704">
        <ele>1041</ele>
        <time>2021-08-07T11:19:12.448Z</time>
      </trkpt>
      <trkpt lat="46.9149" lon="8.64703">
        <ele>1040</ele>
        <time>2021-08-07T11:19:13.447Z</time>
      </trkpt>
      <trkpt lat="46.91489" lon="8.64702">
        <ele>1038</ele>
        <time>2021-08-07T11:19:14.447Z</time>
      </trkpt>
      <trkpt lat="46.91489" lon="8.64702">
        <ele>1037</ele>
        <time>2021-08-07T11:19:15.448Z</time>
      </trkpt>
      <trkpt lat="46.91489" lon="8.647">
        <ele>1036</ele>
        <time>2021-08-07T11:19:16.447Z</time>
      </trkpt>
      <trkpt lat="46.9149" lon="8.647">
        <ele>1035</ele>
        <time>2021-08-07T11:19:17.448Z</time>
      </trkpt>
      <trkpt lat="46.91491" lon="8.647">
        <ele>1034</ele>
        <time>2021-08-07T11:19:18.448Z</time>
      </trkpt>
      <trkpt lat="46.91491" lon="8.647">
        <ele>1034</ele>
        <time>2021-08-07T11:19:19.448Z</time>
      </trkpt>
      <trkpt lat="46.91491" lon="8.64701">
        <ele>1033</ele>
        <time>2021-08-07T11:19:20.448Z</time>
      </trkpt>
      <trkpt lat="46.91491" lon="8.64702">
        <ele>1033</ele>
        <time>2021-08-07T11:19:21.448Z</time>
      </trkpt>
      <trkpt lat="46.91492" lon="8.64704">
        <ele>1032</ele>
        <time>2021-08-07T11:19:22.448Z</time>
      </trkpt>
      <trkpt lat="46.91493" lon="8.64705">
        <ele>1032</ele>
        <time>2021-08-07T11:19:23.448Z</time>
      </trkpt>
      <trkpt lat="46.91494" lon="8.64707">
        <ele>1033</ele>
        <time>2021-08-07T11:19:24.448Z</time>
      </trkpt>
      <trkpt lat="46.91495" lon="8.64707">
        <ele>1033</ele>
        <time>2021-08-07T11:19:25.447Z</time>
      </trkpt>
      <trkpt lat="46.91496" lon="8.64708">
        <ele>1033</ele>
        <time>2021-08-07T11:19:26.448Z</time>
      </trkpt>
      <trkpt lat="46.91496" lon="8.64709">
        <ele>1033</ele>
        <time>2021-08-07T11:19:27.448Z</time>
      </trkpt>
      <trkpt lat="46.91497" lon="8.64709">
        <ele>1033</ele>
        <time>2021-08-07T11:19:28.447Z</time>
      </trkpt>
      <trkpt lat="46.91497" lon="8.6471">
        <ele>1033</ele>
        <time>2021-08-07T11:19:29.447Z</time>
      </trkpt>
      <trkpt lat="46.91498" lon="8.6471">
        <ele>1033</ele>
        <time>2021-08-07T11:19:30.448Z</time>
      </trkpt>
      <trkpt lat="46.91499" lon="8.6471">
        <ele>1033</ele>
        <time>2021-08-07T11:19:31.448Z</time>
      </trkpt>
      <trkpt lat="46.915" lon="8.6471">
        <ele>1032</ele>
        <time>2021-08-07T11:19:32.448Z</time>
      </trkpt>
      <trkpt lat="46.91502" lon="8.64711">
        <ele>1032</ele>
        <time>2021-08-07T11:19:33.448Z</time>
      </trkpt>
      <trkpt lat="46.91503" lon="8.64712">
        <ele>1032</ele>
        <time>2021-08-07T11:19:34.448Z</time>
      </trkpt>
      <trkpt lat="46.91503" lon="8.64713">
        <ele>1031</ele>
        <time>2021-08-07T11:19:35.448Z</time>
      </trkpt>
      <trkpt lat="46.91504" lon="8.64713">
        <ele>1031</ele>
        <time>2021-08-07T11:19:36.448Z</time>
      </trkpt>
      <trkpt lat="46.91505" lon="8.64714">
        <ele>1031</ele>
        <time>2021-08-07T11:19:37.448Z</time>
      </trkpt>
      <trkpt lat="46.91505" lon="8.64714">
        <ele>1031</ele>
        <time>2021-08-07T11:19:38.448Z</time>
      </trkpt>
      <trkpt lat="46.91506" lon="8.64715">
        <ele>1032</ele>
        <time>2021-08-07T11:19:39.448Z</time>
      </trkpt>
      <trkpt lat="46.91507" lon="8.64715">
        <ele>1032</ele>
        <time>2021-08-07T11:19:40.447Z</time>
      </trkpt>
      <trkpt lat="46.91508" lon="8.64716">
        <ele>1032</ele>
        <time>2021-08-07T11:19:41.447Z</time>
      </trkpt>
      <trkpt lat="46.91508" lon="8.64717">
        <ele>1031</ele>
        <time>2021-08-07T11:19:42.447Z</time>
      </trkpt>
      <trkpt lat="46.91509" lon="8.64717">
        <ele>1031</ele>
        <time>2021-08-07T11:19:43.448Z</time>
      </trkpt>
      <trkpt lat="46.91509" lon="8.64718">
        <ele>1032</ele>
        <time>2021-08-07T11:19:44.447Z</time>
      </trkpt>
      <trkpt lat="46.91509" lon="8.64719">
        <ele>1032</ele>
        <time>2021-08-07T11:19:45.448Z</time>
      </trkpt>
      <trkpt lat="46.9151" lon="8.64719">
        <ele>1032</ele>
        <time>2021-08-07T11:19:46.447Z</time>
      </trkpt>
      <trkpt lat="46.91512" lon="8.64719">
        <ele>1032</ele>
        <time>2021-08-07T11:19:47.448Z</time>
      </trkpt>
      <trkpt lat="46.91514" lon="8.64719">
        <ele>1032</ele>
        <time>2021-08-07T11:19:48.447Z</time>
      </trkpt>
      <trkpt lat="46.91518" lon="8.64717">
        <ele>1034</ele>
        <time>2021-08-07T11:19:49.449Z</time>
      </trkpt>
      <trkpt lat="46.91518" lon="8.64716">
        <ele>1034</ele>
        <time>2021-08-07T11:19:50.448Z</time>
      </trkpt>
      <trkpt lat="46.91519" lon="8.64718">
        <ele>1036</ele>
        <time>2021-08-07T11:19:51.448Z</time>
      </trkpt>
      <trkpt lat="46.9152" lon="8.64718">
        <ele>1037</ele>
        <time>2021-08-07T11:19:52.448Z</time>
      </trkpt>
      <trkpt lat="46.9152" lon="8.64719">
        <ele>1037</ele>
        <time>2021-08-07T11:19:53.448Z</time>
      </trkpt>
      <trkpt lat="46.91521" lon="8.64719">
        <ele>1038</ele>
        <time>2021-08-07T11:19:54.448Z</time>
      </trkpt>
      <trkpt lat="46.91521" lon="8.64719">
        <ele>1038</ele>
        <time>2021-08-07T11:19:55.449Z</time>
      </trkpt>
      <trkpt lat="46.91522" lon="8.64719">
        <ele>1038</ele>
        <time>2021-08-07T11:19:56.449Z</time>
      </trkpt>
      <trkpt lat="46.91523" lon="8.64718">
        <ele>1038</ele>
        <time>2021-08-07T11:19:57.449Z</time>
      </trkpt>
      <trkpt lat="46.91524" lon="8.64717">
        <ele>1038</ele>
        <time>2021-08-07T11:19:58.448Z</time>
      </trkpt>
      <trkpt lat="46.91524" lon="8.64717">
        <ele>1038</ele>
        <time>2021-08-07T11:19:59.449Z</time>
      </trkpt>
      <trkpt lat="46.91525" lon="8.64716">
        <ele>1038</ele>
        <time>2021-08-07T11:20:00.448Z</time>
      </trkpt>
      <trkpt lat="46.91526" lon="8.64716">
        <ele>1039</ele>
        <time>2021-08-07T11:20:01.449Z</time>
      </trkpt>
      <trkpt lat="46.91527" lon="8.64715">
        <ele>1039</ele>
        <time>2021-08-07T11:20:02.448Z</time>
      </trkpt>
      <trkpt lat="46.91528" lon="8.64715">
        <ele>1040</ele>
        <time>2021-08-07T11:20:03.449Z</time>
      </trkpt>
      <trkpt lat="46.91528" lon="8.64714">
        <ele>1040</ele>
        <time>2021-08-07T11:20:04.448Z</time>
      </trkpt>
      <trkpt lat="46.91529" lon="8.64713">
        <ele>1041</ele>
        <time>2021-08-07T11:20:05.448Z</time>
      </trkpt>
      <trkpt lat="46.91529" lon="8.64712">
        <ele>1041</ele>
        <time>2021-08-07T11:20:06.449Z</time>
      </trkpt>
      <trkpt lat="46.9153" lon="8.64711">
        <ele>1041</ele>
        <time>2021-08-07T11:20:07.448Z</time>
      </trkpt>
      <trkpt lat="46.9153" lon="8.6471">
        <ele>1042</ele>
        <time>2021-08-07T11:20:08.449Z</time>
      </trkpt>
      <trkpt lat="46.91531" lon="8.64709">
        <ele>1041</ele>
        <time>2021-08-07T11:20:09.448Z</time>
      </trkpt>
      <trkpt lat="46.91531" lon="8.64708">
        <ele>1041</ele>
        <time>2021-08-07T11:20:10.449Z</time>
      </trkpt>
      <trkpt lat="46.91531" lon="8.64707">
        <ele>1041</ele>
        <time>2021-08-07T11:20:11.448Z</time>
      </trkpt>
      <trkpt lat="46.91531" lon="8.64707">
        <ele>1041</ele>
        <time>2021-08-07T11:20:12.448Z</time>
      </trkpt>
      <trkpt lat="46.91531" lon="8.64706">
        <ele>1041</ele>
        <time>2021-08-07T11:20:13.448Z</time>
      </trkpt>
      <trkpt lat="46.91531" lon="8.64705">
        <ele>1042</ele>
        <time>2021-08-07T11:20:14.449Z</time>
      </trkpt>
      <trkpt lat="46.91531" lon="8.64704">
        <ele>1042</ele>
        <time>2021-08-07T11:20:15.449Z</time>
      </trkpt>
      <trkpt lat="46.91531" lon="8.64703">
        <ele>1042</ele>
        <time>2021-08-07T11:20:16.449Z</time>
      </trkpt>
      <trkpt lat="46.91531" lon="8.64703">
        <ele>1041</ele>
        <time>2021-08-07T11:20:17.449Z</time>
      </trkpt>
      <trkpt lat="46.91531" lon="8.64702">
        <ele>1040</ele>
        <time>2021-08-07T11:20:18.449Z</time>
      </trkpt>
      <trkpt lat="46.9153" lon="8.64701">
        <ele>1040</ele>
        <time>2021-08-07T11:20:19.448Z</time>
      </trkpt>
      <trkpt lat="46.9153" lon="8.647">
        <ele>1039</ele>
        <time>2021-08-07T11:20:20.449Z</time>
      </trkpt>
      <trkpt lat="46.91529" lon="8.64699">
        <ele>1039</ele>
        <time>2021-08-07T11:20:21.448Z</time>
      </trkpt>
      <trkpt lat="46.91529" lon="8.64698">
        <ele>1039</ele>
        <time>2021-08-07T11:20:22.448Z</time>
      </trkpt>
      <trkpt lat="46.91529" lon="8.64697">
        <ele>1039</ele>
        <time>2021-08-07T11:20:23.448Z</time>
      </trkpt>
      <trkpt lat="46.91529" lon="8.64696">
        <ele>1038</ele>
        <time>2021-08-07T11:20:24.448Z</time>
      </trkpt>
      <trkpt lat="46.91528" lon="8.64695">
        <ele>1037</ele>
        <time>2021-08-07T11:20:25.448Z</time>
      </trkpt>
      <trkpt lat="46.91528" lon="8.64693">
        <ele>1037</ele>
        <time>2021-08-07T11:20:26.448Z</time>
      </trkpt>
      <trkpt lat="46.91528" lon="8.64691">
        <ele>1036</ele>
        <time>2021-08-07T11:20:27.449Z</time>
      </trkpt>
      <trkpt lat="46.91528" lon="8.64689">
        <ele>1036</ele>
        <time>2021-08-07T11:20:28.448Z</time>
      </trkpt>
      <trkpt lat="46.91528" lon="8.64689">
        <ele>1035</ele>
        <time>2021-08-07T11:20:29.449Z</time>
      </trkpt>
      <trkpt lat="46.91528" lon="8.64689">
        <ele>1034</ele>
        <time>2021-08-07T11:20:30.448Z</time>
      </trkpt>
      <trkpt lat="46.91528" lon="8.64687">
        <ele>1033</ele>
        <time>2021-08-07T11:20:31.448Z</time>
      </trkpt>
      <trkpt lat="46.91528" lon="8.64686">
        <ele>1033</ele>
        <time>2021-08-07T11:20:32.448Z</time>
      </trkpt>
      <trkpt lat="46.91527" lon="8.64685">
        <ele>1032</ele>
        <time>2021-08-07T11:20:33.448Z</time>
      </trkpt>
      <trkpt lat="46.91527" lon="8.64683">
        <ele>1031</ele>
        <time>2021-08-07T11:20:36.549Z</time>
      </trkpt>
      <trkpt lat="46.91526" lon="8.64682">
        <ele>1031</ele>
        <time>2021-08-07T11:20:37.549Z</time>
      </trkpt>
      <trkpt lat="46.91526" lon="8.64681">
        <ele>1030</ele>
        <time>2021-08-07T11:20:38.549Z</time>
      </trkpt>
      <trkpt lat="46.91525" lon="8.6468">
        <ele>1029</ele>
        <time>2021-08-07T11:20:39.549Z</time>
      </trkpt>
      <trkpt lat="46.91524" lon="8.64678">
        <ele>1029</ele>
        <time>2021-08-07T11:20:49.571Z</time>
      </trkpt>
      <trkpt lat="46.91523" lon="8.64677">
        <ele>1028</ele>
        <time>2021-08-07T11:20:55.445Z</time>
      </trkpt>
      <trkpt lat="46.91523" lon="8.64675">
        <ele>1027</ele>
        <time>2021-08-07T11:20:58.335Z</time>
      </trkpt>
      <trkpt lat="46.91522" lon="8.64673">
        <ele>1026</ele>
        <time>2021-08-07T11:20:59.336Z</time>
      </trkpt>
      <trkpt lat="46.91522" lon="8.64671">
        <ele>1025</ele>
        <time>2021-08-07T11:21:00.335Z</time>
      </trkpt>
      <trkpt lat="46.91521" lon="8.64668">
        <ele>1024</ele>
        <time>2021-08-07T11:21:01.335Z</time>
      </trkpt>
      <trkpt lat="46.91521" lon="8.64666">
        <ele>1023</ele>
        <time>2021-08-07T11:21:02.336Z</time>
      </trkpt>
      <trkpt lat="46.91521" lon="8.64665">
        <ele>1022</ele>
        <time>2021-08-07T11:21:03.336Z</time>
      </trkpt>
      <trkpt lat="46.91521" lon="8.64663">
        <ele>1021</ele>
        <time>2021-08-07T11:21:04.335Z</time>
      </trkpt>
      <trkpt lat="46.91521" lon="8.64662">
        <ele>1020</ele>
        <time>2021-08-07T11:21:05.336Z</time>
      </trkpt>
      <trkpt lat="46.91522" lon="8.64662">
        <ele>1019</ele>
        <time>2021-08-07T11:21:06.336Z</time>
      </trkpt>
      <trkpt lat="46.91523" lon="8.64663">
        <ele>1019</ele>
        <time>2021-08-07T11:21:07.336Z</time>
      </trkpt>
      <trkpt lat="46.91523" lon="8.64663">
        <ele>1019</ele>
        <time>2021-08-07T11:21:08.335Z</time>
      </trkpt>
      <trkpt lat="46.91524" lon="8.64664">
        <ele>1020</ele>
        <time>2021-08-07T11:21:15.482Z</time>
      </trkpt>
      <trkpt lat="46.91524" lon="8.64664">
        <ele>1020</ele>
        <time>2021-08-07T11:21:16.483Z</time>
      </trkpt>
      <trkpt lat="46.91525" lon="8.64664">
        <ele>1021</ele>
        <time>2021-08-07T11:21:17.483Z</time>
      </trkpt>
      <trkpt lat="46.91525" lon="8.64665">
        <ele>1021</ele>
        <time>2021-08-07T11:21:18.483Z</time>
      </trkpt>
      <trkpt lat="46.91526" lon="8.64666">
        <ele>1022</ele>
        <time>2021-08-07T11:21:19.483Z</time>
      </trkpt>
      <trkpt lat="46.91526" lon="8.64666">
        <ele>1022</ele>
        <time>2021-08-07T11:21:20.483Z</time>
      </trkpt>
      <trkpt lat="46.91527" lon="8.64667">
        <ele>1023</ele>
        <time>2021-08-07T11:21:21.482Z</time>
      </trkpt>
      <trkpt lat="46.91528" lon="8.64667">
        <ele>1023</ele>
        <time>2021-08-07T11:21:22.482Z</time>
      </trkpt>
      <trkpt lat="46.91528" lon="8.64667">
        <ele>1024</ele>
        <time>2021-08-07T11:21:23.483Z</time>
      </trkpt>
      <trkpt lat="46.91529" lon="8.64666">
        <ele>1024</ele>
        <time>2021-08-07T11:21:24.482Z</time>
      </trkpt>
      <trkpt lat="46.9153" lon="8.64666">
        <ele>1025</ele>
        <time>2021-08-07T11:21:25.482Z</time>
      </trkpt>
      <trkpt lat="46.91532" lon="8.64665">
        <ele>1025</ele>
        <time>2021-08-07T11:21:29.582Z</time>
      </trkpt>
      <trkpt lat="46.91532" lon="8.64665">
        <ele>1025</ele>
        <time>2021-08-07T11:21:42.502Z</time>
      </trkpt>
      <trkpt lat="46.91533" lon="8.64664">
        <ele>1025</ele>
        <time>2021-08-07T11:21:43.503Z</time>
      </trkpt>
      <trkpt lat="46.91534" lon="8.64664">
        <ele>1025</ele>
        <time>2021-08-07T11:21:44.503Z</time>
      </trkpt>
      <trkpt lat="46.91535" lon="8.64664">
        <ele>1025</ele>
        <time>2021-08-07T11:21:58.597Z</time>
      </trkpt>
      <trkpt lat="46.91536" lon="8.64665">
        <ele>1024</ele>
        <time>2021-08-07T11:21:59.598Z</time>
      </trkpt>
      <trkpt lat="46.91537" lon="8.64666">
        <ele>1024</ele>
        <time>2021-08-07T11:22:01.428Z</time>
      </trkpt>
      <trkpt lat="46.91538" lon="8.64666">
        <ele>1024</ele>
        <time>2021-08-07T11:22:16.213Z</time>
      </trkpt>
      <trkpt lat="46.91539" lon="8.64666">
        <ele>1023</ele>
        <time>2021-08-07T11:22:22.074Z</time>
      </trkpt>
      <trkpt lat="46.9154" lon="8.64666">
        <ele>1023</ele>
        <time>2021-08-07T11:22:23.074Z</time>
      </trkpt>
      <trkpt lat="46.91541" lon="8.64667">
        <ele>1023</ele>
        <time>2021-08-07T11:22:28.967Z</time>
      </trkpt>
      <trkpt lat="46.91542" lon="8.64668">
        <ele>1023</ele>
        <time>2021-08-07T11:22:29.966Z</time>
      </trkpt>
      <trkpt lat="46.91544" lon="8.64668">
        <ele>1022</ele>
        <time>2021-08-07T11:22:30.966Z</time>
      </trkpt>
      <trkpt lat="46.91545" lon="8.64667">
        <ele>1022</ele>
        <time>2021-08-07T11:22:31.967Z</time>
      </trkpt>
      <trkpt lat="46.91546" lon="8.64668">
        <ele>1022</ele>
        <time>2021-08-07T11:22:32.966Z</time>
      </trkpt>
      <trkpt lat="46.91547" lon="8.64669">
        <ele>1022</ele>
        <time>2021-08-07T11:22:33.966Z</time>
      </trkpt>
      <trkpt lat="46.91547" lon="8.6467">
        <ele>1022</ele>
        <time>2021-08-07T11:22:40.096Z</time>
      </trkpt>
      <trkpt lat="46.91548" lon="8.64672">
        <ele>1022</ele>
        <time>2021-08-07T11:22:41.095Z</time>
      </trkpt>
      <trkpt lat="46.91548" lon="8.64673">
        <ele>1023</ele>
        <time>2021-08-07T11:22:42.095Z</time>
      </trkpt>
      <trkpt lat="46.91549" lon="8.64674">
        <ele>1023</ele>
        <time>2021-08-07T11:22:43.095Z</time>
      </trkpt>
      <trkpt lat="46.9155" lon="8.64674">
        <ele>1023</ele>
        <time>2021-08-07T11:22:44.096Z</time>
      </trkpt>
      <trkpt lat="46.9155" lon="8.64674">
        <ele>1023</ele>
        <time>2021-08-07T11:22:45.096Z</time>
      </trkpt>
      <trkpt lat="46.91551" lon="8.64673">
        <ele>1023</ele>
        <time>2021-08-07T11:22:46.095Z</time>
      </trkpt>
      <trkpt lat="46.91551" lon="8.64674">
        <ele>1023</ele>
        <time>2021-08-07T11:22:47.095Z</time>
      </trkpt>
      <trkpt lat="46.91552" lon="8.64674">
        <ele>1023</ele>
        <time>2021-08-07T11:22:48.096Z</time>
      </trkpt>
      <trkpt lat="46.91553" lon="8.64674">
        <ele>1024</ele>
        <time>2021-08-07T11:22:49.095Z</time>
      </trkpt>
      <trkpt lat="46.91554" lon="8.64674">
        <ele>1024</ele>
        <time>2021-08-07T11:22:50.095Z</time>
      </trkpt>
      <trkpt lat="46.91555" lon="8.64674">
        <ele>1024</ele>
        <time>2021-08-07T11:23:19.190Z</time>
      </trkpt>
      <trkpt lat="46.91556" lon="8.64674">
        <ele>1024</ele>
        <time>2021-08-07T11:23:33.993Z</time>
      </trkpt>
      <trkpt lat="46.91557" lon="8.64674">
        <ele>1025</ele>
        <time>2021-08-07T11:23:34.993Z</time>
      </trkpt>
      <trkpt lat="46.91558" lon="8.64675">
        <ele>1025</ele>
        <time>2021-08-07T11:23:35.993Z</time>
      </trkpt>
      <trkpt lat="46.91559" lon="8.64675">
        <ele>1025</ele>
        <time>2021-08-07T11:23:36.993Z</time>
      </trkpt>
      <trkpt lat="46.91559" lon="8.64676">
        <ele>1026</ele>
        <time>2021-08-07T11:23:37.993Z</time>
      </trkpt>
      <trkpt lat="46.9156" lon="8.64676">
        <ele>1026</ele>
        <time>2021-08-07T11:23:38.992Z</time>
      </trkpt>
      <trkpt lat="46.91561" lon="8.64677">
        <ele>1026</ele>
        <time>2021-08-07T11:23:39.992Z</time>
      </trkpt>
      <trkpt lat="46.91562" lon="8.64679">
        <ele>1027</ele>
        <time>2021-08-07T11:23:40.992Z</time>
      </trkpt>
      <trkpt lat="46.91562" lon="8.6468">
        <ele>1028</ele>
        <time>2021-08-07T11:23:41.993Z</time>
      </trkpt>
      <trkpt lat="46.91563" lon="8.6468">
        <ele>1028</ele>
        <time>2021-08-07T11:23:42.993Z</time>
      </trkpt>
      <trkpt lat="46.91563" lon="8.6468">
        <ele>1029</ele>
        <time>2021-08-07T11:23:47.106Z</time>
      </trkpt>
      <trkpt lat="46.91564" lon="8.6468">
        <ele>1030</ele>
        <time>2021-08-07T11:23:48.106Z</time>
      </trkpt>
      <trkpt lat="46.91564" lon="8.64681">
        <ele>1030</ele>
        <time>2021-08-07T11:23:49.107Z</time>
      </trkpt>
      <trkpt lat="46.91566" lon="8.64684">
        <ele>1031</ele>
        <time>2021-08-07T11:23:53.231Z</time>
      </trkpt>
      <trkpt lat="46.91569" lon="8.64686">
        <ele>1031</ele>
        <time>2021-08-07T11:23:54.231Z</time>
      </trkpt>
      <trkpt lat="46.91571" lon="8.64688">
        <ele>1031</ele>
        <time>2021-08-07T11:24:00.103Z</time>
      </trkpt>
      <trkpt lat="46.91573" lon="8.64689">
        <ele>1031</ele>
        <time>2021-08-07T11:24:05.979Z</time>
      </trkpt>
      <trkpt lat="46.91574" lon="8.6469">
        <ele>1031</ele>
        <time>2021-08-07T11:24:06.979Z</time>
      </trkpt>
      <trkpt lat="46.91575" lon="8.64691">
        <ele>1031</ele>
        <time>2021-08-07T11:24:07.979Z</time>
      </trkpt>
      <trkpt lat="46.91577" lon="8.64692">
        <ele>1031</ele>
        <time>2021-08-07T11:24:08.978Z</time>
      </trkpt>
      <trkpt lat="46.91578" lon="8.64693">
        <ele>1031</ele>
        <time>2021-08-07T11:24:09.978Z</time>
      </trkpt>
      <trkpt lat="46.91579" lon="8.64693">
        <ele>1032</ele>
        <time>2021-08-07T11:24:10.978Z</time>
      </trkpt>
      <trkpt lat="46.9158" lon="8.64694">
        <ele>1032</ele>
        <time>2021-08-07T11:24:17.075Z</time>
      </trkpt>
      <trkpt lat="46.91581" lon="8.64695">
        <ele>1032</ele>
        <time>2021-08-07T11:24:18.075Z</time>
      </trkpt>
      <trkpt lat="46.91582" lon="8.64695">
        <ele>1032</ele>
        <time>2021-08-07T11:24:19.075Z</time>
      </trkpt>
      <trkpt lat="46.91583" lon="8.64697">
        <ele>1032</ele>
        <time>2021-08-07T11:24:26.182Z</time>
      </trkpt>
      <trkpt lat="46.91584" lon="8.64697">
        <ele>1032</ele>
        <time>2021-08-07T11:24:45.096Z</time>
      </trkpt>
      <trkpt lat="46.91586" lon="8.64696">
        <ele>1032</ele>
        <time>2021-08-07T11:24:46.096Z</time>
      </trkpt>
      <trkpt lat="46.91588" lon="8.64696">
        <ele>1032</ele>
        <time>2021-08-07T11:24:47.097Z</time>
      </trkpt>
      <trkpt lat="46.91589" lon="8.64695">
        <ele>1032</ele>
        <time>2021-08-07T11:24:48.097Z</time>
      </trkpt>
      <trkpt lat="46.9159" lon="8.64695">
        <ele>1032</ele>
        <time>2021-08-07T11:24:49.097Z</time>
      </trkpt>
      <trkpt lat="46.91591" lon="8.64696">
        <ele>1031</ele>
        <time>2021-08-07T11:24:50.097Z</time>
      </trkpt>
      <trkpt lat="46.91592" lon="8.64696">
        <ele>1031</ele>
        <time>2021-08-07T11:24:51.096Z</time>
      </trkpt>
      <trkpt lat="46.91593" lon="8.64695">
        <ele>1031</ele>
        <time>2021-08-07T11:24:52.096Z</time>
      </trkpt>
      <trkpt lat="46.91594" lon="8.64695">
        <ele>1031</ele>
        <time>2021-08-07T11:24:53.097Z</time>
      </trkpt>
      <trkpt lat="46.91595" lon="8.64695">
        <ele>1031</ele>
        <time>2021-08-07T11:24:54.097Z</time>
      </trkpt>
      <trkpt lat="46.91597" lon="8.64695">
        <ele>1031</ele>
        <time>2021-08-07T11:24:58.229Z</time>
      </trkpt>
      <trkpt lat="46.91598" lon="8.64695">
        <ele>1031</ele>
        <time>2021-08-07T11:24:59.228Z</time>
      </trkpt>
      <trkpt lat="46.916" lon="8.64695">
        <ele>1031</ele>
        <time>2021-08-07T11:25:07.116Z</time>
      </trkpt>
      <trkpt lat="46.91601" lon="8.64694">
        <ele>1031</ele>
        <time>2021-08-07T11:25:08.116Z</time>
      </trkpt>
      <trkpt lat="46.91602" lon="8.64694">
        <ele>1031</ele>
        <time>2021-08-07T11:25:09.116Z</time>
      </trkpt>
      <trkpt lat="46.91603" lon="8.64693">
        <ele>1030</ele>
        <time>2021-08-07T11:25:10.116Z</time>
      </trkpt>
      <trkpt lat="46.91604" lon="8.64693">
        <ele>1030</ele>
        <time>2021-08-07T11:25:11.116Z</time>
      </trkpt>
      <trkpt lat="46.91605" lon="8.64694">
        <ele>1030</ele>
        <time>2021-08-07T11:25:12.115Z</time>
      </trkpt>
      <trkpt lat="46.91606" lon="8.64694">
        <ele>1030</ele>
        <time>2021-08-07T11:25:13.116Z</time>
      </trkpt>
      <trkpt lat="46.91608" lon="8.64694">
        <ele>1030</ele>
        <time>2021-08-07T11:25:14.116Z</time>
      </trkpt>
      <trkpt lat="46.91609" lon="8.64694">
        <ele>1029</ele>
        <time>2021-08-07T11:25:15.115Z</time>
      </trkpt>
      <trkpt lat="46.9161" lon="8.64693">
        <ele>1029</ele>
        <time>2021-08-07T11:25:16.116Z</time>
      </trkpt>
      <trkpt lat="46.91611" lon="8.64693">
        <ele>1028</ele>
        <time>2021-08-07T11:25:17.116Z</time>
      </trkpt>
      <trkpt lat="46.91612" lon="8.64691">
        <ele>1028</ele>
        <time>2021-08-07T11:25:18.115Z</time>
      </trkpt>
      <trkpt lat="46.91613" lon="8.64689">
        <ele>1027</ele>
        <time>2021-08-07T11:25:19.116Z</time>
      </trkpt>
      <trkpt lat="46.91613" lon="8.64688">
        <ele>1027</ele>
        <time>2021-08-07T11:25:20.116Z</time>
      </trkpt>
      <trkpt lat="46.91613" lon="8.64687">
        <ele>1026</ele>
        <time>2021-08-07T11:25:21.115Z</time>
      </trkpt>
      <trkpt lat="46.91614" lon="8.64691">
        <ele>1020</ele>
        <time>2021-08-07T11:25:22.116Z</time>
      </trkpt>
      <trkpt lat="46.91615" lon="8.64691">
        <ele>1020</ele>
        <time>2021-08-07T11:25:23.115Z</time>
      </trkpt>
      <trkpt lat="46.91616" lon="8.6469">
        <ele>1019</ele>
        <time>2021-08-07T11:25:27.248Z</time>
      </trkpt>
      <trkpt lat="46.91621" lon="8.64686">
        <ele>1017</ele>
        <time>2021-08-07T11:25:28.249Z</time>
      </trkpt>
      <trkpt lat="46.91621" lon="8.64685">
        <ele>1017</ele>
        <time>2021-08-07T11:25:29.248Z</time>
      </trkpt>
      <trkpt lat="46.91621" lon="8.64682">
        <ele>1017</ele>
        <time>2021-08-07T11:25:30.249Z</time>
      </trkpt>
      <trkpt lat="46.9162" lon="8.64681">
        <ele>1017</ele>
        <time>2021-08-07T11:25:31.249Z</time>
      </trkpt>
      <trkpt lat="46.91621" lon="8.64678">
        <ele>1018</ele>
        <time>2021-08-07T11:25:42.339Z</time>
      </trkpt>
      <trkpt lat="46.91621" lon="8.64678">
        <ele>1018</ele>
        <time>2021-08-07T11:25:43.338Z</time>
      </trkpt>
      <trkpt lat="46.91621" lon="8.64678">
        <ele>1018</ele>
        <time>2021-08-07T11:25:53.220Z</time>
      </trkpt>
      <trkpt lat="46.91622" lon="8.64677">
        <ele>1018</ele>
        <time>2021-08-07T11:25:54.220Z</time>
      </trkpt>
      <trkpt lat="46.91624" lon="8.64676">
        <ele>1019</ele>
        <time>2021-08-07T11:25:55.222Z</time>
      </trkpt>
      <trkpt lat="46.91624" lon="8.64676">
        <ele>1019</ele>
        <time>2021-08-07T11:25:56.221Z</time>
      </trkpt>
      <trkpt lat="46.91631" lon="8.64678">
        <ele>1016</ele>
        <time>2021-08-07T11:25:57.098Z</time>
      </trkpt>
      <trkpt lat="46.9163" lon="8.64683">
        <ele>1015</ele>
        <time>2021-08-07T11:25:58.098Z</time>
      </trkpt>
      <trkpt lat="46.91631" lon="8.64683">
        <ele>1014</ele>
        <time>2021-08-07T11:25:59.098Z</time>
      </trkpt>
      <trkpt lat="46.91631" lon="8.64683">
        <ele>1014</ele>
        <time>2021-08-07T11:26:00.098Z</time>
      </trkpt>
      <trkpt lat="46.91631" lon="8.64681">
        <ele>1013</ele>
        <time>2021-08-07T11:26:01.099Z</time>
      </trkpt>
      <trkpt lat="46.91631" lon="8.6468">
        <ele>1013</ele>
        <time>2021-08-07T11:26:02.099Z</time>
      </trkpt>
      <trkpt lat="46.9163" lon="8.64681">
        <ele>1013</ele>
        <time>2021-08-07T11:26:03.098Z</time>
      </trkpt>
      <trkpt lat="46.9163" lon="8.6468">
        <ele>1012</ele>
        <time>2021-08-07T11:26:04.099Z</time>
      </trkpt>
      <trkpt lat="46.9163" lon="8.64679">
        <ele>1012</ele>
        <time>2021-08-07T11:26:05.099Z</time>
      </trkpt>
      <trkpt lat="46.9163" lon="8.64679">
        <ele>1012</ele>
        <time>2021-08-07T11:26:07.212Z</time>
      </trkpt>
      <trkpt lat="46.9163" lon="8.64678">
        <ele>1012</ele>
        <time>2021-08-07T11:26:08.212Z</time>
      </trkpt>
      <trkpt lat="46.91629" lon="8.64677">
        <ele>1012</ele>
        <time>2021-08-07T11:26:09.214Z</time>
      </trkpt>
      <trkpt lat="46.91629" lon="8.64677">
        <ele>1012</ele>
        <time>2021-08-07T11:26:10.213Z</time>
      </trkpt>
      <trkpt lat="46.91629" lon="8.64677">
        <ele>1012</ele>
        <time>2021-08-07T11:26:11.213Z</time>
      </trkpt>
      <trkpt lat="46.91629" lon="8.64677">
        <ele>1012</ele>
        <time>2021-08-07T11:26:23.352Z</time>
      </trkpt>
      <trkpt lat="46.91629" lon="8.64671">
        <ele>1010</ele>
        <time>2021-08-07T11:26:24.352Z</time>
      </trkpt>
      <trkpt lat="46.9163" lon="8.6467">
        <ele>1010</ele>
        <time>2021-08-07T11:26:25.352Z</time>
      </trkpt>
      <trkpt lat="46.9163" lon="8.6467">
        <ele>1009</ele>
        <time>2021-08-07T11:26:26.351Z</time>
      </trkpt>
      <trkpt lat="46.9163" lon="8.64671">
        <ele>1009</ele>
        <time>2021-08-07T11:26:27.351Z</time>
      </trkpt>
      <trkpt lat="46.9163" lon="8.64671">
        <ele>1009</ele>
        <time>2021-08-07T11:26:28.352Z</time>
      </trkpt>
      <trkpt lat="46.91631" lon="8.64671">
        <ele>1008</ele>
        <time>2021-08-07T11:26:41.492Z</time>
      </trkpt>
      <trkpt lat="46.91631" lon="8.64672">
        <ele>1008</ele>
        <time>2021-08-07T11:26:42.491Z</time>
      </trkpt>
      <trkpt lat="46.91633" lon="8.64672">
        <ele>1008</ele>
        <time>2021-08-07T11:26:43.493Z</time>
      </trkpt>
      <trkpt lat="46.91633" lon="8.64673">
        <ele>1007</ele>
        <time>2021-08-07T11:26:44.493Z</time>
      </trkpt>
      <trkpt lat="46.91634" lon="8.64674">
        <ele>1007</ele>
        <time>2021-08-07T11:26:45.492Z</time>
      </trkpt>
      <trkpt lat="46.91634" lon="8.64675">
        <ele>1007</ele>
        <time>2021-08-07T11:26:46.493Z</time>
      </trkpt>
      <trkpt lat="46.91633" lon="8.64675">
        <ele>1007</ele>
        <time>2021-08-07T11:26:53.617Z</time>
      </trkpt>
      <trkpt lat="46.91632" lon="8.64675">
        <ele>1007</ele>
        <time>2021-08-07T11:26:54.616Z</time>
      </trkpt>
      <trkpt lat="46.91632" lon="8.64674">
        <ele>1007</ele>
        <time>2021-08-07T11:26:55.617Z</time>
      </trkpt>
      <trkpt lat="46.91631" lon="8.64673">
        <ele>1007</ele>
        <time>2021-08-07T11:26:56.616Z</time>
      </trkpt>
      <trkpt lat="46.9163" lon="8.64673">
        <ele>1007</ele>
        <time>2021-08-07T11:26:57.617Z</time>
      </trkpt>
      <trkpt lat="46.91629" lon="8.64672">
        <ele>1007</ele>
        <time>2021-08-07T11:26:58.616Z</time>
      </trkpt>
      <trkpt lat="46.91628" lon="8.64671">
        <ele>1006</ele>
        <time>2021-08-07T11:26:59.617Z</time>
      </trkpt>
      <trkpt lat="46.91627" lon="8.6467">
        <ele>1006</ele>
        <time>2021-08-07T11:27:00.616Z</time>
      </trkpt>
      <trkpt lat="46.91626" lon="8.64668">
        <ele>1006</ele>
        <time>2021-08-07T11:27:01.617Z</time>
      </trkpt>
      <trkpt lat="46.91625" lon="8.64667">
        <ele>1006</ele>
        <time>2021-08-07T11:27:02.616Z</time>
      </trkpt>
      <trkpt lat="46.91624" lon="8.64666">
        <ele>1006</ele>
        <time>2021-08-07T11:27:03.616Z</time>
      </trkpt>
      <trkpt lat="46.91623" lon="8.64665">
        <ele>1005</ele>
        <time>2021-08-07T11:27:07.706Z</time>
      </trkpt>
      <trkpt lat="46.91622" lon="8.64664">
        <ele>1005</ele>
        <time>2021-08-07T11:27:08.706Z</time>
      </trkpt>
      <trkpt lat="46.91622" lon="8.64664">
        <ele>1005</ele>
        <time>2021-08-07T11:27:14.830Z</time>
      </trkpt>
      <trkpt lat="46.91621" lon="8.64662">
        <ele>1005</ele>
        <time>2021-08-07T11:27:15.830Z</time>
      </trkpt>
      <trkpt lat="46.91621" lon="8.64662">
        <ele>1004</ele>
        <time>2021-08-07T11:27:16.830Z</time>
      </trkpt>
      <trkpt lat="46.91621" lon="8.64661">
        <ele>1004</ele>
        <time>2021-08-07T11:27:17.831Z</time>
      </trkpt>
      <trkpt lat="46.9162" lon="8.64661">
        <ele>1003</ele>
        <time>2021-08-07T11:27:18.831Z</time>
      </trkpt>
      <trkpt lat="46.9162" lon="8.64661">
        <ele>1003</ele>
        <time>2021-08-07T11:27:19.830Z</time>
      </trkpt>
      <trkpt lat="46.9162" lon="8.64661">
        <ele>1003</ele>
        <time>2021-08-07T11:27:20.830Z</time>
      </trkpt>
      <trkpt lat="46.91621" lon="8.6466">
        <ele>1002</ele>
        <time>2021-08-07T11:27:21.831Z</time>
      </trkpt>
      <trkpt lat="46.91622" lon="8.6466">
        <ele>1002</ele>
        <time>2021-08-07T11:27:22.832Z</time>
      </trkpt>
      <trkpt lat="46.91622" lon="8.64658">
        <ele>1002</ele>
        <time>2021-08-07T11:27:23.831Z</time>
      </trkpt>
      <trkpt lat="46.91622" lon="8.64657">
        <ele>1001</ele>
        <time>2021-08-07T11:27:39.940Z</time>
      </trkpt>
      <trkpt lat="46.91621" lon="8.64655">
        <ele>1001</ele>
        <time>2021-08-07T11:27:40.940Z</time>
      </trkpt>
      <trkpt lat="46.91621" lon="8.64654">
        <ele>1001</ele>
        <time>2021-08-07T11:27:41.940Z</time>
      </trkpt>
      <trkpt lat="46.91621" lon="8.64653">
        <ele>1001</ele>
        <time>2021-08-07T11:27:42.942Z</time>
      </trkpt>
      <trkpt lat="46.91621" lon="8.64652">
        <ele>1001</ele>
        <time>2021-08-07T11:27:44.938Z</time>
      </trkpt>
      <trkpt lat="46.91621" lon="8.64651">
        <ele>1001</ele>
        <time>2021-08-07T11:27:45.937Z</time>
      </trkpt>
      <trkpt lat="46.91621" lon="8.6465">
        <ele>1002</ele>
        <time>2021-08-07T11:27:46.938Z</time>
      </trkpt>
      <trkpt lat="46.91621" lon="8.64649">
        <ele>1002</ele>
        <time>2021-08-07T11:27:47.937Z</time>
      </trkpt>
      <trkpt lat="46.91621" lon="8.64649">
        <ele>1002</ele>
        <time>2021-08-07T11:27:48.937Z</time>
      </trkpt>
      <trkpt lat="46.91621" lon="8.64649">
        <ele>1003</ele>
        <time>2021-08-07T11:27:49.938Z</time>
      </trkpt>
      <trkpt lat="46.9162" lon="8.64648">
        <ele>1003</ele>
        <time>2021-08-07T11:28:01.959Z</time>
      </trkpt>
      <trkpt lat="46.91619" lon="8.64648">
        <ele>1003</ele>
        <time>2021-08-07T11:28:02.959Z</time>
      </trkpt>
      <trkpt lat="46.91618" lon="8.64646">
        <ele>1004</ele>
        <time>2021-08-07T11:28:03.959Z</time>
      </trkpt>
      <trkpt lat="46.91619" lon="8.64644">
        <ele>1004</ele>
        <time>2021-08-07T11:28:04.959Z</time>
      </trkpt>
      <trkpt lat="46.91619" lon="8.64643">
        <ele>1004</ele>
        <time>2021-08-07T11:28:05.959Z</time>
      </trkpt>
      <trkpt lat="46.91619" lon="8.64643">
        <ele>1004</ele>
        <time>2021-08-07T11:28:06.959Z</time>
      </trkpt>
      <trkpt lat="46.91619" lon="8.64643">
        <ele>1004</ele>
        <time>2021-08-07T11:28:07.959Z</time>
      </trkpt>
      <trkpt lat="46.9162" lon="8.64645">
        <ele>1004</ele>
        <time>2021-08-07T11:28:08.959Z</time>
      </trkpt>
      <trkpt lat="46.91621" lon="8.64645">
        <ele>1004</ele>
        <time>2021-08-07T11:28:09.960Z</time>
      </trkpt>
      <trkpt lat="46.91621" lon="8.64644">
        <ele>1005</ele>
        <time>2021-08-07T11:28:10.960Z</time>
      </trkpt>
      <trkpt lat="46.9162" lon="8.64643">
        <ele>1005</ele>
        <time>2021-08-07T11:28:11.959Z</time>
      </trkpt>
      <trkpt lat="46.91619" lon="8.64641">
        <ele>1005</ele>
        <time>2021-08-07T11:28:12.959Z</time>
      </trkpt>
      <trkpt lat="46.91619" lon="8.64639">
        <ele>1005</ele>
        <time>2021-08-07T11:28:13.960Z</time>
      </trkpt>
      <trkpt lat="46.91619" lon="8.64638">
        <ele>1004</ele>
        <time>2021-08-07T11:28:14.960Z</time>
      </trkpt>
      <trkpt lat="46.91618" lon="8.64637">
        <ele>1005</ele>
        <time>2021-08-07T11:28:15.959Z</time>
      </trkpt>
      <trkpt lat="46.91617" lon="8.64636">
        <ele>1005</ele>
        <time>2021-08-07T11:28:16.960Z</time>
      </trkpt>
      <trkpt lat="46.91616" lon="8.64636">
        <ele>1004</ele>
        <time>2021-08-07T11:28:17.960Z</time>
      </trkpt>
      <trkpt lat="46.91615" lon="8.64635">
        <ele>1004</ele>
        <time>2021-08-07T11:28:20.071Z</time>
      </trkpt>
      <trkpt lat="46.91614" lon="8.64634">
        <ele>1004</ele>
        <time>2021-08-07T11:28:21.071Z</time>
      </trkpt>
      <trkpt lat="46.91614" lon="8.64633">
        <ele>1004</ele>
        <time>2021-08-07T11:28:31.845Z</time>
      </trkpt>
      <trkpt lat="46.91614" lon="8.64632">
        <ele>1004</ele>
        <time>2021-08-07T11:28:32.846Z</time>
      </trkpt>
      <trkpt lat="46.91615" lon="8.64632">
        <ele>1004</ele>
        <time>2021-08-07T11:28:40.607Z</time>
      </trkpt>
      <trkpt lat="46.91616" lon="8.64632">
        <ele>1004</ele>
        <time>2021-08-07T11:28:41.607Z</time>
      </trkpt>
      <trkpt lat="46.91616" lon="8.64631">
        <ele>1004</ele>
        <time>2021-08-07T11:28:42.607Z</time>
      </trkpt>
      <trkpt lat="46.91617" lon="8.6463">
        <ele>1004</ele>
        <time>2021-08-07T11:28:43.606Z</time>
      </trkpt>
      <trkpt lat="46.91617" lon="8.64629">
        <ele>1004</ele>
        <time>2021-08-07T11:28:44.607Z</time>
      </trkpt>
      <trkpt lat="46.91618" lon="8.64628">
        <ele>1004</ele>
        <time>2021-08-07T11:28:45.607Z</time>
      </trkpt>
      <trkpt lat="46.91618" lon="8.64628">
        <ele>1004</ele>
        <time>2021-08-07T11:28:49.690Z</time>
      </trkpt>
      <trkpt lat="46.91618" lon="8.64627">
        <ele>1004</ele>
        <time>2021-08-07T11:28:50.690Z</time>
      </trkpt>
      <trkpt lat="46.91618" lon="8.64627">
        <ele>1004</ele>
        <time>2021-08-07T11:28:51.690Z</time>
      </trkpt>
      <trkpt lat="46.91619" lon="8.64626">
        <ele>1004</ele>
        <time>2021-08-07T11:28:55.731Z</time>
      </trkpt>
      <trkpt lat="46.91619" lon="8.64625">
        <ele>1004</ele>
        <time>2021-08-07T11:28:56.731Z</time>
      </trkpt>
      <trkpt lat="46.9162" lon="8.64623">
        <ele>1004</ele>
        <time>2021-08-07T11:28:57.731Z</time>
      </trkpt>
      <trkpt lat="46.9162" lon="8.64621">
        <ele>1004</ele>
        <time>2021-08-07T11:28:58.731Z</time>
      </trkpt>
      <trkpt lat="46.91621" lon="8.6462">
        <ele>1004</ele>
        <time>2021-08-07T11:28:59.731Z</time>
      </trkpt>
      <trkpt lat="46.91621" lon="8.64619">
        <ele>1004</ele>
        <time>2021-08-07T11:29:00.730Z</time>
      </trkpt>
      <trkpt lat="46.91622" lon="8.64618">
        <ele>1004</ele>
        <time>2021-08-07T11:29:01.730Z</time>
      </trkpt>
      <trkpt lat="46.91623" lon="8.64616">
        <ele>1003</ele>
        <time>2021-08-07T11:29:02.731Z</time>
      </trkpt>
      <trkpt lat="46.91624" lon="8.64615">
        <ele>1003</ele>
        <time>2021-08-07T11:29:03.731Z</time>
      </trkpt>
      <trkpt lat="46.91624" lon="8.64614">
        <ele>1003</ele>
        <time>2021-08-07T11:29:04.731Z</time>
      </trkpt>
      <trkpt lat="46.91624" lon="8.64614">
        <ele>1003</ele>
        <time>2021-08-07T11:29:05.731Z</time>
      </trkpt>
      <trkpt lat="46.91624" lon="8.64614">
        <ele>1003</ele>
        <time>2021-08-07T11:29:06.731Z</time>
      </trkpt>
      <trkpt lat="46.91625" lon="8.64615">
        <ele>1003</ele>
        <time>2021-08-07T11:29:07.731Z</time>
      </trkpt>
      <trkpt lat="46.91626" lon="8.64613">
        <ele>1003</ele>
        <time>2021-08-07T11:29:08.731Z</time>
      </trkpt>
      <trkpt lat="46.91627" lon="8.64611">
        <ele>1002</ele>
        <time>2021-08-07T11:29:09.731Z</time>
      </trkpt>
      <trkpt lat="46.91628" lon="8.6461">
        <ele>1002</ele>
        <time>2021-08-07T11:29:10.732Z</time>
      </trkpt>
      <trkpt lat="46.91627" lon="8.64609">
        <ele>1002</ele>
        <time>2021-08-07T11:29:11.731Z</time>
      </trkpt>
      <trkpt lat="46.91627" lon="8.64608">
        <ele>1002</ele>
        <time>2021-08-07T11:29:12.732Z</time>
      </trkpt>
      <trkpt lat="46.91628" lon="8.64608">
        <ele>1002</ele>
        <time>2021-08-07T11:29:13.732Z</time>
      </trkpt>
      <trkpt lat="46.91628" lon="8.64607">
        <ele>1002</ele>
        <time>2021-08-07T11:29:20.846Z</time>
      </trkpt>
      <trkpt lat="46.91629" lon="8.64607">
        <ele>1002</ele>
        <time>2021-08-07T11:29:21.846Z</time>
      </trkpt>
      <trkpt lat="46.91629" lon="8.64605">
        <ele>1002</ele>
        <time>2021-08-07T11:29:22.846Z</time>
      </trkpt>
      <trkpt lat="46.91628" lon="8.64603">
        <ele>1002</ele>
        <time>2021-08-07T11:29:23.846Z</time>
      </trkpt>
      <trkpt lat="46.91628" lon="8.64602">
        <ele>1002</ele>
        <time>2021-08-07T11:29:24.847Z</time>
      </trkpt>
      <trkpt lat="46.91627" lon="8.64601">
        <ele>1002</ele>
        <time>2021-08-07T11:29:25.846Z</time>
      </trkpt>
      <trkpt lat="46.91626" lon="8.646">
        <ele>1002</ele>
        <time>2021-08-07T11:29:26.847Z</time>
      </trkpt>
      <trkpt lat="46.91626" lon="8.646">
        <ele>1002</ele>
        <time>2021-08-07T11:29:27.846Z</time>
      </trkpt>
      <trkpt lat="46.91626" lon="8.64599">
        <ele>1003</ele>
        <time>2021-08-07T11:29:28.847Z</time>
      </trkpt>
      <trkpt lat="46.91626" lon="8.64598">
        <ele>1003</ele>
        <time>2021-08-07T11:29:29.847Z</time>
      </trkpt>
      <trkpt lat="46.91626" lon="8.64597">
        <ele>1003</ele>
        <time>2021-08-07T11:29:30.846Z</time>
      </trkpt>
      <trkpt lat="46.91625" lon="8.64595">
        <ele>1004</ele>
        <time>2021-08-07T11:29:31.846Z</time>
      </trkpt>
      <trkpt lat="46.91625" lon="8.64593">
        <ele>1004</ele>
        <time>2021-08-07T11:29:32.847Z</time>
      </trkpt>
      <trkpt lat="46.91624" lon="8.64589">
        <ele>1004</ele>
        <time>2021-08-07T11:29:33.846Z</time>
      </trkpt>
      <trkpt lat="46.91623" lon="8.64586">
        <ele>1005</ele>
        <time>2021-08-07T11:29:34.846Z</time>
      </trkpt>
      <trkpt lat="46.91623" lon="8.64584">
        <ele>1005</ele>
        <time>2021-08-07T11:29:35.846Z</time>
      </trkpt>
      <trkpt lat="46.91622" lon="8.64584">
        <ele>1005</ele>
        <time>2021-08-07T11:29:36.846Z</time>
      </trkpt>
      <trkpt lat="46.91621" lon="8.64584">
        <ele>1005</ele>
        <time>2021-08-07T11:29:37.847Z</time>
      </trkpt>
      <trkpt lat="46.9162" lon="8.64585">
        <ele>1005</ele>
        <time>2021-08-07T11:29:38.846Z</time>
      </trkpt>
      <trkpt lat="46.91618" lon="8.64586">
        <ele>1005</ele>
        <time>2021-08-07T11:29:39.846Z</time>
      </trkpt>
      <trkpt lat="46.91617" lon="8.64587">
        <ele>1005</ele>
        <time>2021-08-07T11:29:40.846Z</time>
      </trkpt>
      <trkpt lat="46.91615" lon="8.64587">
        <ele>1005</ele>
        <time>2021-08-07T11:29:41.846Z</time>
      </trkpt>
      <trkpt lat="46.91614" lon="8.64585">
        <ele>1005</ele>
        <time>2021-08-07T11:29:42.847Z</time>
      </trkpt>
      <trkpt lat="46.91612" lon="8.64584">
        <ele>1004</ele>
        <time>2021-08-07T11:29:43.847Z</time>
      </trkpt>
      <trkpt lat="46.91611" lon="8.64583">
        <ele>1004</ele>
        <time>2021-08-07T11:29:44.846Z</time>
      </trkpt>
      <trkpt lat="46.9161" lon="8.64582">
        <ele>1004</ele>
        <time>2021-08-07T11:29:45.846Z</time>
      </trkpt>
      <trkpt lat="46.91609" lon="8.64582">
        <ele>1004</ele>
        <time>2021-08-07T11:29:46.846Z</time>
      </trkpt>
      <trkpt lat="46.91609" lon="8.64581">
        <ele>1004</ele>
        <time>2021-08-07T11:29:47.847Z</time>
      </trkpt>
      <trkpt lat="46.9161" lon="8.6458">
        <ele>1004</ele>
        <time>2021-08-07T11:29:48.846Z</time>
      </trkpt>
      <trkpt lat="46.91611" lon="8.64579">
        <ele>1004</ele>
        <time>2021-08-07T11:29:49.846Z</time>
      </trkpt>
      <trkpt lat="46.91612" lon="8.64578">
        <ele>1004</ele>
        <time>2021-08-07T11:29:50.846Z</time>
      </trkpt>
      <trkpt lat="46.91613" lon="8.64576">
        <ele>1004</ele>
        <time>2021-08-07T11:29:51.847Z</time>
      </trkpt>
      <trkpt lat="46.91613" lon="8.64575">
        <ele>1004</ele>
        <time>2021-08-07T11:29:52.847Z</time>
      </trkpt>
      <trkpt lat="46.91614" lon="8.64574">
        <ele>1004</ele>
        <time>2021-08-07T11:29:53.846Z</time>
      </trkpt>
      <trkpt lat="46.91613" lon="8.64573">
        <ele>1003</ele>
        <time>2021-08-07T11:30:03.878Z</time>
      </trkpt>
      <trkpt lat="46.91613" lon="8.64571">
        <ele>1003</ele>
        <time>2021-08-07T11:30:04.878Z</time>
      </trkpt>
      <trkpt lat="46.91614" lon="8.64569">
        <ele>1003</ele>
        <time>2021-08-07T11:30:09.731Z</time>
      </trkpt>
      <trkpt lat="46.91613" lon="8.64569">
        <ele>1003</ele>
        <time>2021-08-07T11:30:10.732Z</time>
      </trkpt>
      <trkpt lat="46.91612" lon="8.64567">
        <ele>1003</ele>
        <time>2021-08-07T11:30:11.731Z</time>
      </trkpt>
      <trkpt lat="46.91612" lon="8.64566">
        <ele>1003</ele>
        <time>2021-08-07T11:30:12.731Z</time>
      </trkpt>
      <trkpt lat="46.91612" lon="8.64563">
        <ele>1002</ele>
        <time>2021-08-07T11:30:13.731Z</time>
      </trkpt>
      <trkpt lat="46.91612" lon="8.64562">
        <ele>1002</ele>
        <time>2021-08-07T11:30:14.731Z</time>
      </trkpt>
      <trkpt lat="46.91612" lon="8.6456">
        <ele>1001</ele>
        <time>2021-08-07T11:30:15.731Z</time>
      </trkpt>
      <trkpt lat="46.91612" lon="8.64559">
        <ele>1001</ele>
        <time>2021-08-07T11:30:16.731Z</time>
      </trkpt>
      <trkpt lat="46.91614" lon="8.64559">
        <ele>1000</ele>
        <time>2021-08-07T11:30:17.731Z</time>
      </trkpt>
      <trkpt lat="46.91615" lon="8.64558">
        <ele>999</ele>
        <time>2021-08-07T11:30:18.731Z</time>
      </trkpt>
      <trkpt lat="46.91615" lon="8.64556">
        <ele>999</ele>
        <time>2021-08-07T11:30:19.732Z</time>
      </trkpt>
      <trkpt lat="46.91616" lon="8.64554">
        <ele>998</ele>
        <time>2021-08-07T11:30:20.731Z</time>
      </trkpt>
      <trkpt lat="46.91615" lon="8.64552">
        <ele>997</ele>
        <time>2021-08-07T11:30:21.731Z</time>
      </trkpt>
      <trkpt lat="46.91615" lon="8.6455">
        <ele>997</ele>
        <time>2021-08-07T11:30:22.731Z</time>
      </trkpt>
      <trkpt lat="46.91614" lon="8.64549">
        <ele>996</ele>
        <time>2021-08-07T11:30:41.835Z</time>
      </trkpt>
      <trkpt lat="46.91614" lon="8.64548">
        <ele>996</ele>
        <time>2021-08-07T11:30:42.835Z</time>
      </trkpt>
      <trkpt lat="46.91614" lon="8.64546">
        <ele>995</ele>
        <time>2021-08-07T11:30:43.835Z</time>
      </trkpt>
      <trkpt lat="46.91615" lon="8.64545">
        <ele>994</ele>
        <time>2021-08-07T11:30:44.836Z</time>
      </trkpt>
      <trkpt lat="46.91616" lon="8.64545">
        <ele>994</ele>
        <time>2021-08-07T11:30:45.835Z</time>
      </trkpt>
      <trkpt lat="46.91617" lon="8.64544">
        <ele>993</ele>
        <time>2021-08-07T11:30:46.835Z</time>
      </trkpt>
      <trkpt lat="46.91618" lon="8.64545">
        <ele>993</ele>
        <time>2021-08-07T11:30:47.835Z</time>
      </trkpt>
      <trkpt lat="46.91618" lon="8.64544">
        <ele>993</ele>
        <time>2021-08-07T11:30:48.835Z</time>
      </trkpt>
      <trkpt lat="46.91618" lon="8.64543">
        <ele>992</ele>
        <time>2021-08-07T11:30:51.834Z</time>
      </trkpt>
      <trkpt lat="46.91618" lon="8.64542">
        <ele>992</ele>
        <time>2021-08-07T11:30:52.834Z</time>
      </trkpt>
      <trkpt lat="46.91618" lon="8.64541">
        <ele>991</ele>
        <time>2021-08-07T11:30:53.834Z</time>
      </trkpt>
      <trkpt lat="46.91614" lon="8.64535">
        <ele>990</ele>
        <time>2021-08-07T11:30:54.835Z</time>
      </trkpt>
      <trkpt lat="46.91613" lon="8.64533">
        <ele>990</ele>
        <time>2021-08-07T11:30:55.834Z</time>
      </trkpt>
      <trkpt lat="46.91613" lon="8.6453">
        <ele>990</ele>
        <time>2021-08-07T11:30:56.834Z</time>
      </trkpt>
      <trkpt lat="46.91613" lon="8.6453">
        <ele>990</ele>
        <time>2021-08-07T11:30:57.835Z</time>
      </trkpt>
      <trkpt lat="46.91613" lon="8.64529">
        <ele>990</ele>
        <time>2021-08-07T11:30:58.835Z</time>
      </trkpt>
      <trkpt lat="46.91612" lon="8.64529">
        <ele>990</ele>
        <time>2021-08-07T11:30:59.834Z</time>
      </trkpt>
      <trkpt lat="46.91612" lon="8.64528">
        <ele>989</ele>
        <time>2021-08-07T11:31:00.834Z</time>
      </trkpt>
      <trkpt lat="46.91612" lon="8.64527">
        <ele>989</ele>
        <time>2021-08-07T11:31:01.834Z</time>
      </trkpt>
      <trkpt lat="46.91612" lon="8.64526">
        <ele>989</ele>
        <time>2021-08-07T11:31:02.835Z</time>
      </trkpt>
      <trkpt lat="46.91612" lon="8.64526">
        <ele>988</ele>
        <time>2021-08-07T11:31:03.835Z</time>
      </trkpt>
      <trkpt lat="46.91612" lon="8.64526">
        <ele>988</ele>
        <time>2021-08-07T11:31:04.834Z</time>
      </trkpt>
      <trkpt lat="46.91612" lon="8.64526">
        <ele>987</ele>
        <time>2021-08-07T11:31:05.834Z</time>
      </trkpt>
      <trkpt lat="46.91611" lon="8.64525">
        <ele>986</ele>
        <time>2021-08-07T11:31:06.835Z</time>
      </trkpt>
      <trkpt lat="46.91611" lon="8.64523">
        <ele>985</ele>
        <time>2021-08-07T11:31:07.834Z</time>
      </trkpt>
      <trkpt lat="46.91611" lon="8.64522">
        <ele>984</ele>
        <time>2021-08-07T11:31:08.835Z</time>
      </trkpt>
      <trkpt lat="46.91611" lon="8.64521">
        <ele>984</ele>
        <time>2021-08-07T11:31:09.834Z</time>
      </trkpt>
      <trkpt lat="46.91611" lon="8.6452">
        <ele>983</ele>
        <time>2021-08-07T11:31:10.834Z</time>
      </trkpt>
      <trkpt lat="46.91612" lon="8.64519">
        <ele>983</ele>
        <time>2021-08-07T11:31:11.834Z</time>
      </trkpt>
      <trkpt lat="46.91611" lon="8.64518">
        <ele>982</ele>
        <time>2021-08-07T11:31:12.834Z</time>
      </trkpt>
      <trkpt lat="46.91612" lon="8.64517">
        <ele>981</ele>
        <time>2021-08-07T11:31:13.834Z</time>
      </trkpt>
      <trkpt lat="46.91611" lon="8.64517">
        <ele>981</ele>
        <time>2021-08-07T11:31:14.834Z</time>
      </trkpt>
      <trkpt lat="46.91611" lon="8.64515">
        <ele>980</ele>
        <time>2021-08-07T11:31:15.834Z</time>
      </trkpt>
      <trkpt lat="46.91611" lon="8.64515">
        <ele>980</ele>
        <time>2021-08-07T11:31:16.834Z</time>
      </trkpt>
      <trkpt lat="46.9161" lon="8.64514">
        <ele>979</ele>
        <time>2021-08-07T11:31:17.835Z</time>
      </trkpt>
      <trkpt lat="46.91611" lon="8.64514">
        <ele>979</ele>
        <time>2021-08-07T11:31:18.834Z</time>
      </trkpt>
      <trkpt lat="46.91611" lon="8.64514">
        <ele>978</ele>
        <time>2021-08-07T11:31:19.834Z</time>
      </trkpt>
      <trkpt lat="46.91611" lon="8.64514">
        <ele>978</ele>
        <time>2021-08-07T11:31:20.834Z</time>
      </trkpt>
      <trkpt lat="46.9161" lon="8.64514">
        <ele>977</ele>
        <time>2021-08-07T11:31:21.834Z</time>
      </trkpt>
      <trkpt lat="46.91609" lon="8.64513">
        <ele>977</ele>
        <time>2021-08-07T11:31:22.835Z</time>
      </trkpt>
      <trkpt lat="46.91609" lon="8.64513">
        <ele>977</ele>
        <time>2021-08-07T11:31:23.834Z</time>
      </trkpt>
      <trkpt lat="46.91608" lon="8.64512">
        <ele>977</ele>
        <time>2021-08-07T11:31:24.835Z</time>
      </trkpt>
      <trkpt lat="46.91607" lon="8.64511">
        <ele>976</ele>
        <time>2021-08-07T11:31:25.834Z</time>
      </trkpt>
      <trkpt lat="46.91607" lon="8.64511">
        <ele>976</ele>
        <time>2021-08-07T11:31:26.834Z</time>
      </trkpt>
      <trkpt lat="46.91607" lon="8.6451">
        <ele>976</ele>
        <time>2021-08-07T11:31:27.835Z</time>
      </trkpt>
      <trkpt lat="46.91607" lon="8.64508">
        <ele>976</ele>
        <time>2021-08-07T11:31:33.962Z</time>
      </trkpt>
      <trkpt lat="46.91607" lon="8.64506">
        <ele>976</ele>
        <time>2021-08-07T11:31:41.855Z</time>
      </trkpt>
      <trkpt lat="46.91607" lon="8.64505">
        <ele>976</ele>
        <time>2021-08-07T11:31:42.855Z</time>
      </trkpt>
      <trkpt lat="46.91606" lon="8.64502">
        <ele>976</ele>
        <time>2021-08-07T11:31:43.855Z</time>
      </trkpt>
      <trkpt lat="46.91606" lon="8.645">
        <ele>976</ele>
        <time>2021-08-07T11:31:44.855Z</time>
      </trkpt>
      <trkpt lat="46.91606" lon="8.64498">
        <ele>975</ele>
        <time>2021-08-07T11:31:45.855Z</time>
      </trkpt>
      <trkpt lat="46.91606" lon="8.64496">
        <ele>975</ele>
        <time>2021-08-07T11:31:46.856Z</time>
      </trkpt>
      <trkpt lat="46.91605" lon="8.64495">
        <ele>975</ele>
        <time>2021-08-07T11:31:47.856Z</time>
      </trkpt>
      <trkpt lat="46.91605" lon="8.64493">
        <ele>975</ele>
        <time>2021-08-07T11:31:48.855Z</time>
      </trkpt>
      <trkpt lat="46.91604" lon="8.64491">
        <ele>975</ele>
        <time>2021-08-07T11:31:49.856Z</time>
      </trkpt>
      <trkpt lat="46.91603" lon="8.6449">
        <ele>974</ele>
        <time>2021-08-07T11:31:50.855Z</time>
      </trkpt>
      <trkpt lat="46.91603" lon="8.64489">
        <ele>974</ele>
        <time>2021-08-07T11:31:51.856Z</time>
      </trkpt>
      <trkpt lat="46.91603" lon="8.64489">
        <ele>973</ele>
        <time>2021-08-07T11:31:52.856Z</time>
      </trkpt>
      <trkpt lat="46.91603" lon="8.6449">
        <ele>973</ele>
        <time>2021-08-07T11:31:53.856Z</time>
      </trkpt>
      <trkpt lat="46.91602" lon="8.6449">
        <ele>972</ele>
        <time>2021-08-07T11:31:54.856Z</time>
      </trkpt>
      <trkpt lat="46.91602" lon="8.6449">
        <ele>972</ele>
        <time>2021-08-07T11:31:55.856Z</time>
      </trkpt>
      <trkpt lat="46.91601" lon="8.6449">
        <ele>972</ele>
        <time>2021-08-07T11:31:56.856Z</time>
      </trkpt>
      <trkpt lat="46.91601" lon="8.6449">
        <ele>971</ele>
        <time>2021-08-07T11:31:57.855Z</time>
      </trkpt>
      <trkpt lat="46.91601" lon="8.64489">
        <ele>971</ele>
        <time>2021-08-07T11:31:58.856Z</time>
      </trkpt>
      <trkpt lat="46.91601" lon="8.64489">
        <ele>970</ele>
        <time>2021-08-07T11:31:59.855Z</time>
      </trkpt>
      <trkpt lat="46.91601" lon="8.64489">
        <ele>970</ele>
        <time>2021-08-07T11:32:00.856Z</time>
      </trkpt>
      <trkpt lat="46.91602" lon="8.64489">
        <ele>969</ele>
        <time>2021-08-07T11:32:01.855Z</time>
      </trkpt>
      <trkpt lat="46.91602" lon="8.64489">
        <ele>969</ele>
        <time>2021-08-07T11:32:02.856Z</time>
      </trkpt>
      <trkpt lat="46.91602" lon="8.64489">
        <ele>968</ele>
        <time>2021-08-07T11:32:03.856Z</time>
      </trkpt>
      <trkpt lat="46.91603" lon="8.64489">
        <ele>968</ele>
        <time>2021-08-07T11:32:04.856Z</time>
      </trkpt>
      <trkpt lat="46.91603" lon="8.64489">
        <ele>967</ele>
        <time>2021-08-07T11:32:05.856Z</time>
      </trkpt>
      <trkpt lat="46.91602" lon="8.64488">
        <ele>967</ele>
        <time>2021-08-07T11:32:06.855Z</time>
      </trkpt>
      <trkpt lat="46.91602" lon="8.64488">
        <ele>967</ele>
        <time>2021-08-07T11:32:07.856Z</time>
      </trkpt>
      <trkpt lat="46.91602" lon="8.64487">
        <ele>967</ele>
        <time>2021-08-07T11:32:08.856Z</time>
      </trkpt>
      <trkpt lat="46.91602" lon="8.64486">
        <ele>966</ele>
        <time>2021-08-07T11:32:09.855Z</time>
      </trkpt>
      <trkpt lat="46.91602" lon="8.64484">
        <ele>966</ele>
        <time>2021-08-07T11:32:10.856Z</time>
      </trkpt>
      <trkpt lat="46.91601" lon="8.64483">
        <ele>966</ele>
        <time>2021-08-07T11:32:11.856Z</time>
      </trkpt>
      <trkpt lat="46.91601" lon="8.64482">
        <ele>967</ele>
        <time>2021-08-07T11:32:12.857Z</time>
      </trkpt>
      <trkpt lat="46.91601" lon="8.64483">
        <ele>966</ele>
        <time>2021-08-07T11:32:13.857Z</time>
      </trkpt>
      <trkpt lat="46.91602" lon="8.64483">
        <ele>966</ele>
        <time>2021-08-07T11:32:14.857Z</time>
      </trkpt>
      <trkpt lat="46.91602" lon="8.64483">
        <ele>966</ele>
        <time>2021-08-07T11:32:15.856Z</time>
      </trkpt>
      <trkpt lat="46.91602" lon="8.64484">
        <ele>966</ele>
        <time>2021-08-07T11:32:16.856Z</time>
      </trkpt>
      <trkpt lat="46.91602" lon="8.64484">
        <ele>966</ele>
        <time>2021-08-07T11:32:17.856Z</time>
      </trkpt>
      <trkpt lat="46.91602" lon="8.64484">
        <ele>966</ele>
        <time>2021-08-07T11:32:18.857Z</time>
      </trkpt>
      <trkpt lat="46.91601" lon="8.64483">
        <ele>966</ele>
        <time>2021-08-07T11:32:19.856Z</time>
      </trkpt>
      <trkpt lat="46.91601" lon="8.64483">
        <ele>966</ele>
        <time>2021-08-07T11:32:20.857Z</time>
      </trkpt>
      <trkpt lat="46.91602" lon="8.64482">
        <ele>966</ele>
        <time>2021-08-07T11:32:21.857Z</time>
      </trkpt>
      <trkpt lat="46.91601" lon="8.64479">
        <ele>966</ele>
        <time>2021-08-07T11:32:22.856Z</time>
      </trkpt>
      <trkpt lat="46.916" lon="8.64477">
        <ele>966</ele>
        <time>2021-08-07T11:32:23.857Z</time>
      </trkpt>
      <trkpt lat="46.916" lon="8.64475">
        <ele>965</ele>
        <time>2021-08-07T11:32:24.856Z</time>
      </trkpt>
      <trkpt lat="46.91601" lon="8.64473">
        <ele>965</ele>
        <time>2021-08-07T11:32:25.857Z</time>
      </trkpt>
      <trkpt lat="46.91601" lon="8.64471">
        <ele>965</ele>
        <time>2021-08-07T11:32:26.857Z</time>
      </trkpt>
      <trkpt lat="46.916" lon="8.64468">
        <ele>965</ele>
        <time>2021-08-07T11:32:27.856Z</time>
      </trkpt>
      <trkpt lat="46.916" lon="8.64466">
        <ele>965</ele>
        <time>2021-08-07T11:32:28.857Z</time>
      </trkpt>
      <trkpt lat="46.916" lon="8.64465">
        <ele>965</ele>
        <time>2021-08-07T11:32:29.857Z</time>
      </trkpt>
      <trkpt lat="46.916" lon="8.64462">
        <ele>965</ele>
        <time>2021-08-07T11:32:30.857Z</time>
      </trkpt>
      <trkpt lat="46.91599" lon="8.64458">
        <ele>965</ele>
        <time>2021-08-07T11:32:31.857Z</time>
      </trkpt>
      <trkpt lat="46.91598" lon="8.64455">
        <ele>965</ele>
        <time>2021-08-07T11:32:32.857Z</time>
      </trkpt>
      <trkpt lat="46.91596" lon="8.64451">
        <ele>965</ele>
        <time>2021-08-07T11:32:33.857Z</time>
      </trkpt>
      <trkpt lat="46.91595" lon="8.64448">
        <ele>965</ele>
        <time>2021-08-07T11:32:34.856Z</time>
      </trkpt>
      <trkpt lat="46.91594" lon="8.64447">
        <ele>964</ele>
        <time>2021-08-07T11:32:35.856Z</time>
      </trkpt>
      <trkpt lat="46.91593" lon="8.64446">
        <ele>964</ele>
        <time>2021-08-07T11:32:36.856Z</time>
      </trkpt>
      <trkpt lat="46.91593" lon="8.64445">
        <ele>964</ele>
        <time>2021-08-07T11:32:37.857Z</time>
      </trkpt>
      <trkpt lat="46.91593" lon="8.64444">
        <ele>964</ele>
        <time>2021-08-07T11:32:38.856Z</time>
      </trkpt>
      <trkpt lat="46.91592" lon="8.64443">
        <ele>964</ele>
        <time>2021-08-07T11:32:39.856Z</time>
      </trkpt>
      <trkpt lat="46.91592" lon="8.64442">
        <ele>964</ele>
        <time>2021-08-07T11:32:40.856Z</time>
      </trkpt>
      <trkpt lat="46.91591" lon="8.64441">
        <ele>964</ele>
        <time>2021-08-07T11:32:41.856Z</time>
      </trkpt>
      <trkpt lat="46.91591" lon="8.6444">
        <ele>964</ele>
        <time>2021-08-07T11:32:42.856Z</time>
      </trkpt>
      <trkpt lat="46.9159" lon="8.64439">
        <ele>963</ele>
        <time>2021-08-07T11:32:43.856Z</time>
      </trkpt>
      <trkpt lat="46.91591" lon="8.64438">
        <ele>963</ele>
        <time>2021-08-07T11:32:44.856Z</time>
      </trkpt>
      <trkpt lat="46.9159" lon="8.64438">
        <ele>963</ele>
        <time>2021-08-07T11:32:45.856Z</time>
      </trkpt>
      <trkpt lat="46.91591" lon="8.64438">
        <ele>962</ele>
        <time>2021-08-07T11:32:46.857Z</time>
      </trkpt>
      <trkpt lat="46.91591" lon="8.64438">
        <ele>962</ele>
        <time>2021-08-07T11:32:47.857Z</time>
      </trkpt>
      <trkpt lat="46.91592" lon="8.64438">
        <ele>961</ele>
        <time>2021-08-07T11:32:48.858Z</time>
      </trkpt>
      <trkpt lat="46.91592" lon="8.64438">
        <ele>961</ele>
        <time>2021-08-07T11:32:49.857Z</time>
      </trkpt>
      <trkpt lat="46.91592" lon="8.64437">
        <ele>961</ele>
        <time>2021-08-07T11:32:50.857Z</time>
      </trkpt>
      <trkpt lat="46.91592" lon="8.64436">
        <ele>960</ele>
        <time>2021-08-07T11:32:51.857Z</time>
      </trkpt>
      <trkpt lat="46.91592" lon="8.64435">
        <ele>960</ele>
        <time>2021-08-07T11:32:52.857Z</time>
      </trkpt>
      <trkpt lat="46.91592" lon="8.64435">
        <ele>960</ele>
        <time>2021-08-07T11:32:53.858Z</time>
      </trkpt>
      <trkpt lat="46.91591" lon="8.64434">
        <ele>960</ele>
        <time>2021-08-07T11:32:54.858Z</time>
      </trkpt>
      <trkpt lat="46.91591" lon="8.64432">
        <ele>960</ele>
        <time>2021-08-07T11:32:55.858Z</time>
      </trkpt>
      <trkpt lat="46.91592" lon="8.64431">
        <ele>960</ele>
        <time>2021-08-07T11:32:56.857Z</time>
      </trkpt>
      <trkpt lat="46.91592" lon="8.6443">
        <ele>959</ele>
        <time>2021-08-07T11:32:57.857Z</time>
      </trkpt>
      <trkpt lat="46.91592" lon="8.64429">
        <ele>959</ele>
        <time>2021-08-07T11:32:58.857Z</time>
      </trkpt>
      <trkpt lat="46.91592" lon="8.64429">
        <ele>959</ele>
        <time>2021-08-07T11:32:59.858Z</time>
      </trkpt>
      <trkpt lat="46.91593" lon="8.64429">
        <ele>959</ele>
        <time>2021-08-07T11:33:00.857Z</time>
      </trkpt>
      <trkpt lat="46.91594" lon="8.64429">
        <ele>959</ele>
        <time>2021-08-07T11:33:01.857Z</time>
      </trkpt>
      <trkpt lat="46.91595" lon="8.64428">
        <ele>959</ele>
        <time>2021-08-07T11:33:02.858Z</time>
      </trkpt>
      <trkpt lat="46.91597" lon="8.64428">
        <ele>959</ele>
        <time>2021-08-07T11:33:03.857Z</time>
      </trkpt>
      <trkpt lat="46.91598" lon="8.64427">
        <ele>958</ele>
        <time>2021-08-07T11:33:04.858Z</time>
      </trkpt>
      <trkpt lat="46.91598" lon="8.64426">
        <ele>958</ele>
        <time>2021-08-07T11:33:05.858Z</time>
      </trkpt>
      <trkpt lat="46.91599" lon="8.64426">
        <ele>958</ele>
        <time>2021-08-07T11:33:06.858Z</time>
      </trkpt>
      <trkpt lat="46.91599" lon="8.64426">
        <ele>958</ele>
        <time>2021-08-07T11:33:07.858Z</time>
      </trkpt>
      <trkpt lat="46.91598" lon="8.64427">
        <ele>957</ele>
        <time>2021-08-07T11:33:08.857Z</time>
      </trkpt>
      <trkpt lat="46.91598" lon="8.64426">
        <ele>957</ele>
        <time>2021-08-07T11:33:09.857Z</time>
      </trkpt>
      <trkpt lat="46.916" lon="8.64426">
        <ele>956</ele>
        <time>2021-08-07T11:33:10.857Z</time>
      </trkpt>
      <trkpt lat="46.916" lon="8.64426">
        <ele>956</ele>
        <time>2021-08-07T11:33:11.858Z</time>
      </trkpt>
      <trkpt lat="46.91601" lon="8.64427">
        <ele>955</ele>
        <time>2021-08-07T11:33:12.858Z</time>
      </trkpt>
      <trkpt lat="46.91602" lon="8.64428">
        <ele>955</ele>
        <time>2021-08-07T11:33:13.858Z</time>
      </trkpt>
      <trkpt lat="46.91603" lon="8.64428">
        <ele>955</ele>
        <time>2021-08-07T11:33:14.858Z</time>
      </trkpt>
      <trkpt lat="46.91603" lon="8.64428">
        <ele>955</ele>
        <time>2021-08-07T11:33:15.858Z</time>
      </trkpt>
      <trkpt lat="46.91604" lon="8.64427">
        <ele>955</ele>
        <time>2021-08-07T11:33:16.858Z</time>
      </trkpt>
      <trkpt lat="46.91605" lon="8.64426">
        <ele>955</ele>
        <time>2021-08-07T11:33:17.857Z</time>
      </trkpt>
      <trkpt lat="46.91606" lon="8.64426">
        <ele>956</ele>
        <time>2021-08-07T11:33:18.858Z</time>
      </trkpt>
      <trkpt lat="46.91607" lon="8.64425">
        <ele>956</ele>
        <time>2021-08-07T11:33:19.858Z</time>
      </trkpt>
      <trkpt lat="46.91607" lon="8.64425">
        <ele>957</ele>
        <time>2021-08-07T11:33:20.858Z</time>
      </trkpt>
      <trkpt lat="46.91608" lon="8.64425">
        <ele>957</ele>
        <time>2021-08-07T11:33:21.857Z</time>
      </trkpt>
      <trkpt lat="46.91608" lon="8.64425">
        <ele>957</ele>
        <time>2021-08-07T11:33:22.858Z</time>
      </trkpt>
      <trkpt lat="46.91607" lon="8.64424">
        <ele>957</ele>
        <time>2021-08-07T11:33:23.857Z</time>
      </trkpt>
      <trkpt lat="46.91607" lon="8.64424">
        <ele>957</ele>
        <time>2021-08-07T11:33:24.857Z</time>
      </trkpt>
      <trkpt lat="46.91607" lon="8.64423">
        <ele>957</ele>
        <time>2021-08-07T11:33:25.857Z</time>
      </trkpt>
      <trkpt lat="46.91606" lon="8.64423">
        <ele>957</ele>
        <time>2021-08-07T11:33:26.857Z</time>
      </trkpt>
      <trkpt lat="46.91606" lon="8.64422">
        <ele>957</ele>
        <time>2021-08-07T11:33:27.857Z</time>
      </trkpt>
      <trkpt lat="46.91606" lon="8.64422">
        <ele>957</ele>
        <time>2021-08-07T11:33:28.857Z</time>
      </trkpt>
      <trkpt lat="46.91605" lon="8.64421">
        <ele>957</ele>
        <time>2021-08-07T11:33:29.858Z</time>
      </trkpt>
      <trkpt lat="46.91605" lon="8.6442">
        <ele>956</ele>
        <time>2021-08-07T11:33:30.858Z</time>
      </trkpt>
      <trkpt lat="46.91605" lon="8.6442">
        <ele>956</ele>
        <time>2021-08-07T11:33:31.858Z</time>
      </trkpt>
      <trkpt lat="46.91604" lon="8.64419">
        <ele>956</ele>
        <time>2021-08-07T11:33:32.858Z</time>
      </trkpt>
      <trkpt lat="46.91603" lon="8.64418">
        <ele>956</ele>
        <time>2021-08-07T11:33:33.858Z</time>
      </trkpt>
      <trkpt lat="46.91601" lon="8.64417">
        <ele>955</ele>
        <time>2021-08-07T11:33:34.858Z</time>
      </trkpt>
      <trkpt lat="46.916" lon="8.64415">
        <ele>955</ele>
        <time>2021-08-07T11:33:35.857Z</time>
      </trkpt>
      <trkpt lat="46.91598" lon="8.64414">
        <ele>955</ele>
        <time>2021-08-07T11:33:36.857Z</time>
      </trkpt>
      <trkpt lat="46.91598" lon="8.64412">
        <ele>954</ele>
        <time>2021-08-07T11:33:37.857Z</time>
      </trkpt>
      <trkpt lat="46.91597" lon="8.64411">
        <ele>954</ele>
        <time>2021-08-07T11:33:38.857Z</time>
      </trkpt>
      <trkpt lat="46.91597" lon="8.6441">
        <ele>954</ele>
        <time>2021-08-07T11:33:39.857Z</time>
      </trkpt>
      <trkpt lat="46.91597" lon="8.6441">
        <ele>954</ele>
        <time>2021-08-07T11:33:40.858Z</time>
      </trkpt>
      <trkpt lat="46.91596" lon="8.6441">
        <ele>954</ele>
        <time>2021-08-07T11:33:41.857Z</time>
      </trkpt>
      <trkpt lat="46.91596" lon="8.6441">
        <ele>953</ele>
        <time>2021-08-07T11:33:42.857Z</time>
      </trkpt>
      <trkpt lat="46.91596" lon="8.6441">
        <ele>953</ele>
        <time>2021-08-07T11:33:43.857Z</time>
      </trkpt>
      <trkpt lat="46.91596" lon="8.6441">
        <ele>953</ele>
        <time>2021-08-07T11:33:44.858Z</time>
      </trkpt>
      <trkpt lat="46.91597" lon="8.64409">
        <ele>952</ele>
        <time>2021-08-07T11:33:45.858Z</time>
      </trkpt>
      <trkpt lat="46.91598" lon="8.64408">
        <ele>952</ele>
        <time>2021-08-07T11:33:46.858Z</time>
      </trkpt>
      <trkpt lat="46.91598" lon="8.64408">
        <ele>952</ele>
        <time>2021-08-07T11:33:47.858Z</time>
      </trkpt>
      <trkpt lat="46.91599" lon="8.64408">
        <ele>951</ele>
        <time>2021-08-07T11:33:48.857Z</time>
      </trkpt>
      <trkpt lat="46.91599" lon="8.64407">
        <ele>951</ele>
        <time>2021-08-07T11:33:49.857Z</time>
      </trkpt>
      <trkpt lat="46.916" lon="8.64406">
        <ele>951</ele>
        <time>2021-08-07T11:33:50.858Z</time>
      </trkpt>
      <trkpt lat="46.91599" lon="8.64404">
        <ele>951</ele>
        <time>2021-08-07T11:33:51.858Z</time>
      </trkpt>
      <trkpt lat="46.91598" lon="8.64401">
        <ele>951</ele>
        <time>2021-08-07T11:33:52.857Z</time>
      </trkpt>
      <trkpt lat="46.91596" lon="8.64399">
        <ele>951</ele>
        <time>2021-08-07T11:33:53.858Z</time>
      </trkpt>
      <trkpt lat="46.91594" lon="8.64397">
        <ele>951</ele>
        <time>2021-08-07T11:33:54.857Z</time>
      </trkpt>
      <trkpt lat="46.91593" lon="8.64396">
        <ele>951</ele>
        <time>2021-08-07T11:33:55.858Z</time>
      </trkpt>
      <trkpt lat="46.91592" lon="8.64396">
        <ele>951</ele>
        <time>2021-08-07T11:33:56.857Z</time>
      </trkpt>
      <trkpt lat="46.91591" lon="8.64396">
        <ele>952</ele>
        <time>2021-08-07T11:33:57.858Z</time>
      </trkpt>
      <trkpt lat="46.91591" lon="8.64395">
        <ele>952</ele>
        <time>2021-08-07T11:33:58.857Z</time>
      </trkpt>
      <trkpt lat="46.91591" lon="8.64395">
        <ele>952</ele>
        <time>2021-08-07T11:33:59.858Z</time>
      </trkpt>
      <trkpt lat="46.91591" lon="8.64394">
        <ele>952</ele>
        <time>2021-08-07T11:34:00.858Z</time>
      </trkpt>
      <trkpt lat="46.91591" lon="8.64393">
        <ele>952</ele>
        <time>2021-08-07T11:34:01.858Z</time>
      </trkpt>
      <trkpt lat="46.9159" lon="8.64393">
        <ele>951</ele>
        <time>2021-08-07T11:34:02.857Z</time>
      </trkpt>
      <trkpt lat="46.9159" lon="8.64393">
        <ele>951</ele>
        <time>2021-08-07T11:34:03.857Z</time>
      </trkpt>
      <trkpt lat="46.9159" lon="8.64393">
        <ele>951</ele>
        <time>2021-08-07T11:34:04.858Z</time>
      </trkpt>
      <trkpt lat="46.91591" lon="8.64393">
        <ele>951</ele>
        <time>2021-08-07T11:34:05.858Z</time>
      </trkpt>
      <trkpt lat="46.91591" lon="8.64392">
        <ele>950</ele>
        <time>2021-08-07T11:34:06.858Z</time>
      </trkpt>
      <trkpt lat="46.91592" lon="8.6439">
        <ele>950</ele>
        <time>2021-08-07T11:34:07.857Z</time>
      </trkpt>
      <trkpt lat="46.91592" lon="8.64388">
        <ele>950</ele>
        <time>2021-08-07T11:34:08.857Z</time>
      </trkpt>
      <trkpt lat="46.91592" lon="8.64386">
        <ele>950</ele>
        <time>2021-08-07T11:34:09.858Z</time>
      </trkpt>
      <trkpt lat="46.91591" lon="8.64386">
        <ele>949</ele>
        <time>2021-08-07T11:34:10.858Z</time>
      </trkpt>
      <trkpt lat="46.91591" lon="8.64386">
        <ele>949</ele>
        <time>2021-08-07T11:34:11.858Z</time>
      </trkpt>
      <trkpt lat="46.9159" lon="8.64387">
        <ele>948</ele>
        <time>2021-08-07T11:34:12.857Z</time>
      </trkpt>
      <trkpt lat="46.9159" lon="8.64386">
        <ele>947</ele>
        <time>2021-08-07T11:34:13.858Z</time>
      </trkpt>
      <trkpt lat="46.9159" lon="8.64385">
        <ele>946</ele>
        <time>2021-08-07T11:34:14.857Z</time>
      </trkpt>
      <trkpt lat="46.91591" lon="8.64384">
        <ele>946</ele>
        <time>2021-08-07T11:34:15.858Z</time>
      </trkpt>
      <trkpt lat="46.91592" lon="8.64384">
        <ele>945</ele>
        <time>2021-08-07T11:34:16.857Z</time>
      </trkpt>
      <trkpt lat="46.91592" lon="8.64384">
        <ele>945</ele>
        <time>2021-08-07T11:34:17.857Z</time>
      </trkpt>
      <trkpt lat="46.91592" lon="8.64383">
        <ele>944</ele>
        <time>2021-08-07T11:34:18.859Z</time>
      </trkpt>
      <trkpt lat="46.91591" lon="8.64382">
        <ele>943</ele>
        <time>2021-08-07T11:34:19.859Z</time>
      </trkpt>
      <trkpt lat="46.91592" lon="8.64382">
        <ele>943</ele>
        <time>2021-08-07T11:34:20.858Z</time>
      </trkpt>
      <trkpt lat="46.91592" lon="8.64381">
        <ele>943</ele>
        <time>2021-08-07T11:34:21.859Z</time>
      </trkpt>
      <trkpt lat="46.91593" lon="8.6438">
        <ele>943</ele>
        <time>2021-08-07T11:34:22.859Z</time>
      </trkpt>
      <trkpt lat="46.91594" lon="8.6438">
        <ele>942</ele>
        <time>2021-08-07T11:34:23.859Z</time>
      </trkpt>
      <trkpt lat="46.91595" lon="8.64381">
        <ele>942</ele>
        <time>2021-08-07T11:34:24.858Z</time>
      </trkpt>
      <trkpt lat="46.91596" lon="8.64382">
        <ele>941</ele>
        <time>2021-08-07T11:34:25.858Z</time>
      </trkpt>
      <trkpt lat="46.91597" lon="8.64383">
        <ele>941</ele>
        <time>2021-08-07T11:34:26.859Z</time>
      </trkpt>
      <trkpt lat="46.91597" lon="8.64382">
        <ele>940</ele>
        <time>2021-08-07T11:34:27.859Z</time>
      </trkpt>
      <trkpt lat="46.91596" lon="8.64382">
        <ele>939</ele>
        <time>2021-08-07T11:34:28.858Z</time>
      </trkpt>
      <trkpt lat="46.91596" lon="8.64382">
        <ele>938</ele>
        <time>2021-08-07T11:34:29.858Z</time>
      </trkpt>
      <trkpt lat="46.91595" lon="8.64382">
        <ele>938</ele>
        <time>2021-08-07T11:34:30.859Z</time>
      </trkpt>
      <trkpt lat="46.91595" lon="8.64382">
        <ele>937</ele>
        <time>2021-08-07T11:34:31.858Z</time>
      </trkpt>
      <trkpt lat="46.91594" lon="8.64381">
        <ele>937</ele>
        <time>2021-08-07T11:34:32.859Z</time>
      </trkpt>
      <trkpt lat="46.91593" lon="8.6438">
        <ele>936</ele>
        <time>2021-08-07T11:34:33.859Z</time>
      </trkpt>
      <trkpt lat="46.91593" lon="8.64379">
        <ele>936</ele>
        <time>2021-08-07T11:34:34.858Z</time>
      </trkpt>
      <trkpt lat="46.91593" lon="8.64378">
        <ele>935</ele>
        <time>2021-08-07T11:34:35.859Z</time>
      </trkpt>
      <trkpt lat="46.91593" lon="8.64377">
        <ele>935</ele>
        <time>2021-08-07T11:34:36.859Z</time>
      </trkpt>
      <trkpt lat="46.91592" lon="8.64377">
        <ele>934</ele>
        <time>2021-08-07T11:34:37.859Z</time>
      </trkpt>
      <trkpt lat="46.91592" lon="8.64376">
        <ele>933</ele>
        <time>2021-08-07T11:34:38.859Z</time>
      </trkpt>
      <trkpt lat="46.91591" lon="8.64376">
        <ele>933</ele>
        <time>2021-08-07T11:34:39.859Z</time>
      </trkpt>
      <trkpt lat="46.91591" lon="8.64376">
        <ele>932</ele>
        <time>2021-08-07T11:34:40.859Z</time>
      </trkpt>
      <trkpt lat="46.9159" lon="8.64375">
        <ele>932</ele>
        <time>2021-08-07T11:34:41.858Z</time>
      </trkpt>
      <trkpt lat="46.9159" lon="8.64376">
        <ele>932</ele>
        <time>2021-08-07T11:34:42.859Z</time>
      </trkpt>
      <trkpt lat="46.91591" lon="8.64376">
        <ele>932</ele>
        <time>2021-08-07T11:34:43.858Z</time>
      </trkpt>
      <trkpt lat="46.91591" lon="8.64375">
        <ele>932</ele>
        <time>2021-08-07T11:34:44.859Z</time>
      </trkpt>
      <trkpt lat="46.91591" lon="8.64373">
        <ele>931</ele>
        <time>2021-08-07T11:34:45.858Z</time>
      </trkpt>
      <trkpt lat="46.91591" lon="8.64372">
        <ele>931</ele>
        <time>2021-08-07T11:34:46.859Z</time>
      </trkpt>
      <trkpt lat="46.91591" lon="8.64371">
        <ele>931</ele>
        <time>2021-08-07T11:34:47.859Z</time>
      </trkpt>
      <trkpt lat="46.91592" lon="8.64371">
        <ele>931</ele>
        <time>2021-08-07T11:34:48.858Z</time>
      </trkpt>
      <trkpt lat="46.91592" lon="8.64371">
        <ele>931</ele>
        <time>2021-08-07T11:34:49.859Z</time>
      </trkpt>
      <trkpt lat="46.91593" lon="8.64372">
        <ele>931</ele>
        <time>2021-08-07T11:34:50.859Z</time>
      </trkpt>
      <trkpt lat="46.91593" lon="8.64373">
        <ele>931</ele>
        <time>2021-08-07T11:34:51.858Z</time>
      </trkpt>
      <trkpt lat="46.91594" lon="8.64373">
        <ele>930</ele>
        <time>2021-08-07T11:34:52.858Z</time>
      </trkpt>
      <trkpt lat="46.91594" lon="8.64373">
        <ele>930</ele>
        <time>2021-08-07T11:34:53.858Z</time>
      </trkpt>
      <trkpt lat="46.91595" lon="8.64373">
        <ele>930</ele>
        <time>2021-08-07T11:34:54.859Z</time>
      </trkpt>
      <trkpt lat="46.91595" lon="8.64373">
        <ele>930</ele>
        <time>2021-08-07T11:34:55.858Z</time>
      </trkpt>
      <trkpt lat="46.91596" lon="8.64372">
        <ele>930</ele>
        <time>2021-08-07T11:34:56.860Z</time>
      </trkpt>
      <trkpt lat="46.91595" lon="8.64371">
        <ele>930</ele>
        <time>2021-08-07T11:34:57.860Z</time>
      </trkpt>
      <trkpt lat="46.91595" lon="8.64369">
        <ele>929</ele>
        <time>2021-08-07T11:34:58.859Z</time>
      </trkpt>
      <trkpt lat="46.91595" lon="8.64369">
        <ele>929</ele>
        <time>2021-08-07T11:34:59.860Z</time>
      </trkpt>
      <trkpt lat="46.91595" lon="8.64368">
        <ele>929</ele>
        <time>2021-08-07T11:35:00.859Z</time>
      </trkpt>
      <trkpt lat="46.91594" lon="8.64367">
        <ele>929</ele>
        <time>2021-08-07T11:35:01.860Z</time>
      </trkpt>
      <trkpt lat="46.91594" lon="8.64366">
        <ele>928</ele>
        <time>2021-08-07T11:35:02.860Z</time>
      </trkpt>
      <trkpt lat="46.91594" lon="8.64365">
        <ele>928</ele>
        <time>2021-08-07T11:35:03.860Z</time>
      </trkpt>
      <trkpt lat="46.91594" lon="8.64364">
        <ele>928</ele>
        <time>2021-08-07T11:35:04.860Z</time>
      </trkpt>
      <trkpt lat="46.91594" lon="8.64363">
        <ele>928</ele>
        <time>2021-08-07T11:35:05.860Z</time>
      </trkpt>
      <trkpt lat="46.91594" lon="8.64362">
        <ele>927</ele>
        <time>2021-08-07T11:35:06.860Z</time>
      </trkpt>
      <trkpt lat="46.91594" lon="8.64361">
        <ele>927</ele>
        <time>2021-08-07T11:35:07.860Z</time>
      </trkpt>
      <trkpt lat="46.91594" lon="8.6436">
        <ele>927</ele>
        <time>2021-08-07T11:35:08.859Z</time>
      </trkpt>
      <trkpt lat="46.91594" lon="8.64361">
        <ele>926</ele>
        <time>2021-08-07T11:35:09.860Z</time>
      </trkpt>
      <trkpt lat="46.91596" lon="8.64362">
        <ele>926</ele>
        <time>2021-08-07T11:35:10.860Z</time>
      </trkpt>
      <trkpt lat="46.91596" lon="8.64363">
        <ele>925</ele>
        <time>2021-08-07T11:35:11.859Z</time>
      </trkpt>
      <trkpt lat="46.91596" lon="8.64365">
        <ele>925</ele>
        <time>2021-08-07T11:35:12.860Z</time>
      </trkpt>
      <trkpt lat="46.91597" lon="8.64366">
        <ele>924</ele>
        <time>2021-08-07T11:35:13.860Z</time>
      </trkpt>
      <trkpt lat="46.91597" lon="8.64366">
        <ele>923</ele>
        <time>2021-08-07T11:35:14.859Z</time>
      </trkpt>
      <trkpt lat="46.91598" lon="8.64366">
        <ele>923</ele>
        <time>2021-08-07T11:35:15.860Z</time>
      </trkpt>
      <trkpt lat="46.91598" lon="8.64367">
        <ele>922</ele>
        <time>2021-08-07T11:35:16.860Z</time>
      </trkpt>
      <trkpt lat="46.91598" lon="8.64367">
        <ele>922</ele>
        <time>2021-08-07T11:35:17.859Z</time>
      </trkpt>
      <trkpt lat="46.91599" lon="8.64367">
        <ele>921</ele>
        <time>2021-08-07T11:35:18.859Z</time>
      </trkpt>
      <trkpt lat="46.91599" lon="8.64366">
        <ele>921</ele>
        <time>2021-08-07T11:35:19.860Z</time>
      </trkpt>
      <trkpt lat="46.91599" lon="8.64364">
        <ele>921</ele>
        <time>2021-08-07T11:35:20.859Z</time>
      </trkpt>
      <trkpt lat="46.91599" lon="8.64363">
        <ele>921</ele>
        <time>2021-08-07T11:35:21.860Z</time>
      </trkpt>
      <trkpt lat="46.91599" lon="8.64362">
        <ele>921</ele>
        <time>2021-08-07T11:35:22.859Z</time>
      </trkpt>
      <trkpt lat="46.91599" lon="8.64361">
        <ele>921</ele>
        <time>2021-08-07T11:35:23.859Z</time>
      </trkpt>
      <trkpt lat="46.91598" lon="8.6436">
        <ele>920</ele>
        <time>2021-08-07T11:35:24.860Z</time>
      </trkpt>
      <trkpt lat="46.91598" lon="8.6436">
        <ele>920</ele>
        <time>2021-08-07T11:35:25.860Z</time>
      </trkpt>
      <trkpt lat="46.91597" lon="8.6436">
        <ele>919</ele>
        <time>2021-08-07T11:35:26.859Z</time>
      </trkpt>
      <trkpt lat="46.91597" lon="8.64359">
        <ele>919</ele>
        <time>2021-08-07T11:35:27.859Z</time>
      </trkpt>
      <trkpt lat="46.91596" lon="8.64359">
        <ele>918</ele>
        <time>2021-08-07T11:35:28.859Z</time>
      </trkpt>
      <trkpt lat="46.91596" lon="8.64359">
        <ele>918</ele>
        <time>2021-08-07T11:35:29.859Z</time>
      </trkpt>
      <trkpt lat="46.91596" lon="8.64358">
        <ele>917</ele>
        <time>2021-08-07T11:35:30.860Z</time>
      </trkpt>
      <trkpt lat="46.91597" lon="8.64356">
        <ele>916</ele>
        <time>2021-08-07T11:35:31.861Z</time>
      </trkpt>
      <trkpt lat="46.91596" lon="8.64356">
        <ele>916</ele>
        <time>2021-08-07T11:35:32.861Z</time>
      </trkpt>
      <trkpt lat="46.91596" lon="8.64355">
        <ele>916</ele>
        <time>2021-08-07T11:35:33.860Z</time>
      </trkpt>
      <trkpt lat="46.91595" lon="8.64353">
        <ele>916</ele>
        <time>2021-08-07T11:35:34.860Z</time>
      </trkpt>
      <trkpt lat="46.91594" lon="8.64351">
        <ele>915</ele>
        <time>2021-08-07T11:35:35.861Z</time>
      </trkpt>
      <trkpt lat="46.91592" lon="8.64349">
        <ele>915</ele>
        <time>2021-08-07T11:35:36.860Z</time>
      </trkpt>
      <trkpt lat="46.91591" lon="8.64349">
        <ele>914</ele>
        <time>2021-08-07T11:35:37.860Z</time>
      </trkpt>
      <trkpt lat="46.91591" lon="8.64349">
        <ele>914</ele>
        <time>2021-08-07T11:35:38.861Z</time>
      </trkpt>
      <trkpt lat="46.9159" lon="8.64349">
        <ele>913</ele>
        <time>2021-08-07T11:35:39.861Z</time>
      </trkpt>
      <trkpt lat="46.91589" lon="8.64349">
        <ele>913</ele>
        <time>2021-08-07T11:35:40.861Z</time>
      </trkpt>
      <trkpt lat="46.91588" lon="8.64349">
        <ele>913</ele>
        <time>2021-08-07T11:35:41.861Z</time>
      </trkpt>
      <trkpt lat="46.91587" lon="8.64348">
        <ele>913</ele>
        <time>2021-08-07T11:35:42.860Z</time>
      </trkpt>
      <trkpt lat="46.91587" lon="8.64347">
        <ele>913</ele>
        <time>2021-08-07T11:35:43.860Z</time>
      </trkpt>
      <trkpt lat="46.91587" lon="8.64346">
        <ele>913</ele>
        <time>2021-08-07T11:35:44.860Z</time>
      </trkpt>
      <trkpt lat="46.91586" lon="8.64345">
        <ele>913</ele>
        <time>2021-08-07T11:35:45.861Z</time>
      </trkpt>
      <trkpt lat="46.91585" lon="8.64344">
        <ele>913</ele>
        <time>2021-08-07T11:35:46.860Z</time>
      </trkpt>
      <trkpt lat="46.91585" lon="8.64344">
        <ele>913</ele>
        <time>2021-08-07T11:35:47.860Z</time>
      </trkpt>
      <trkpt lat="46.91584" lon="8.64343">
        <ele>913</ele>
        <time>2021-08-07T11:35:48.860Z</time>
      </trkpt>
      <trkpt lat="46.91584" lon="8.64342">
        <ele>913</ele>
        <time>2021-08-07T11:36:03.956Z</time>
      </trkpt>
      <trkpt lat="46.91583" lon="8.6434">
        <ele>913</ele>
        <time>2021-08-07T11:36:04.956Z</time>
      </trkpt>
      <trkpt lat="46.91583" lon="8.64339">
        <ele>912</ele>
        <time>2021-08-07T11:36:18.713Z</time>
      </trkpt>
      <trkpt lat="46.91582" lon="8.64338">
        <ele>912</ele>
        <time>2021-08-07T11:36:19.713Z</time>
      </trkpt>
      <trkpt lat="46.91583" lon="8.64339">
        <ele>912</ele>
        <time>2021-08-07T11:36:20.713Z</time>
      </trkpt>
      <trkpt lat="46.91583" lon="8.64341">
        <ele>911</ele>
        <time>2021-08-07T11:36:21.713Z</time>
      </trkpt>
      <trkpt lat="46.91583" lon="8.64342">
        <ele>911</ele>
        <time>2021-08-07T11:36:24.816Z</time>
      </trkpt>
      <trkpt lat="46.91583" lon="8.64343">
        <ele>910</ele>
        <time>2021-08-07T11:36:25.816Z</time>
      </trkpt>
      <trkpt lat="46.91584" lon="8.64344">
        <ele>910</ele>
        <time>2021-08-07T11:36:26.817Z</time>
      </trkpt>
      <trkpt lat="46.91583" lon="8.64343">
        <ele>909</ele>
        <time>2021-08-07T11:36:35.731Z</time>
      </trkpt>
      <trkpt lat="46.91582" lon="8.64342">
        <ele>909</ele>
        <time>2021-08-07T11:36:36.731Z</time>
      </trkpt>
      <trkpt lat="46.91581" lon="8.64343">
        <ele>909</ele>
        <time>2021-08-07T11:36:37.731Z</time>
      </trkpt>
      <trkpt lat="46.9158" lon="8.64343">
        <ele>909</ele>
        <time>2021-08-07T11:36:38.732Z</time>
      </trkpt>
      <trkpt lat="46.91579" lon="8.64342">
        <ele>908</ele>
        <time>2021-08-07T11:36:39.731Z</time>
      </trkpt>
      <trkpt lat="46.91578" lon="8.64342">
        <ele>908</ele>
        <time>2021-08-07T11:36:43.838Z</time>
      </trkpt>
      <trkpt lat="46.91577" lon="8.64341">
        <ele>908</ele>
        <time>2021-08-07T11:36:44.838Z</time>
      </trkpt>
      <trkpt lat="46.91576" lon="8.64342">
        <ele>907</ele>
        <time>2021-08-07T11:36:45.838Z</time>
      </trkpt>
      <trkpt lat="46.91575" lon="8.64343">
        <ele>907</ele>
        <time>2021-08-07T11:36:48.966Z</time>
      </trkpt>
      <trkpt lat="46.91574" lon="8.64344">
        <ele>906</ele>
        <time>2021-08-07T11:36:49.966Z</time>
      </trkpt>
      <trkpt lat="46.91574" lon="8.64344">
        <ele>906</ele>
        <time>2021-08-07T11:36:50.966Z</time>
      </trkpt>
      <trkpt lat="46.91574" lon="8.64344">
        <ele>906</ele>
        <time>2021-08-07T11:36:51.965Z</time>
      </trkpt>
      <trkpt lat="46.91575" lon="8.64344">
        <ele>906</ele>
        <time>2021-08-07T11:36:52.966Z</time>
      </trkpt>
      <trkpt lat="46.91575" lon="8.64343">
        <ele>905</ele>
        <time>2021-08-07T11:36:53.966Z</time>
      </trkpt>
      <trkpt lat="46.91574" lon="8.64342">
        <ele>905</ele>
        <time>2021-08-07T11:36:54.965Z</time>
      </trkpt>
      <trkpt lat="46.91574" lon="8.64341">
        <ele>905</ele>
        <time>2021-08-07T11:36:55.966Z</time>
      </trkpt>
      <trkpt lat="46.91574" lon="8.64339">
        <ele>905</ele>
        <time>2021-08-07T11:36:56.966Z</time>
      </trkpt>
      <trkpt lat="46.91575" lon="8.6434">
        <ele>904</ele>
        <time>2021-08-07T11:36:57.966Z</time>
      </trkpt>
      <trkpt lat="46.91574" lon="8.64339">
        <ele>904</ele>
        <time>2021-08-07T11:36:58.966Z</time>
      </trkpt>
      <trkpt lat="46.91573" lon="8.64338">
        <ele>904</ele>
        <time>2021-08-07T11:36:59.966Z</time>
      </trkpt>
      <trkpt lat="46.91573" lon="8.64337">
        <ele>903</ele>
        <time>2021-08-07T11:37:00.966Z</time>
      </trkpt>
      <trkpt lat="46.91573" lon="8.64336">
        <ele>903</ele>
        <time>2021-08-07T11:37:01.966Z</time>
      </trkpt>
      <trkpt lat="46.91574" lon="8.64335">
        <ele>903</ele>
        <time>2021-08-07T11:37:02.966Z</time>
      </trkpt>
      <trkpt lat="46.91574" lon="8.64333">
        <ele>902</ele>
        <time>2021-08-07T11:37:03.965Z</time>
      </trkpt>
      <trkpt lat="46.91573" lon="8.64331">
        <ele>902</ele>
        <time>2021-08-07T11:37:04.965Z</time>
      </trkpt>
      <trkpt lat="46.91574" lon="8.6433">
        <ele>902</ele>
        <time>2021-08-07T11:37:09.069Z</time>
      </trkpt>
      <trkpt lat="46.91575" lon="8.6433">
        <ele>901</ele>
        <time>2021-08-07T11:37:10.815Z</time>
      </trkpt>
      <trkpt lat="46.91576" lon="8.6433">
        <ele>901</ele>
        <time>2021-08-07T11:37:11.814Z</time>
      </trkpt>
      <trkpt lat="46.91576" lon="8.64331">
        <ele>901</ele>
        <time>2021-08-07T11:37:12.814Z</time>
      </trkpt>
      <trkpt lat="46.91577" lon="8.64331">
        <ele>901</ele>
        <time>2021-08-07T11:37:13.814Z</time>
      </trkpt>
      <trkpt lat="46.91577" lon="8.64331">
        <ele>901</ele>
        <time>2021-08-07T11:37:14.814Z</time>
      </trkpt>
      <trkpt lat="46.91578" lon="8.64329">
        <ele>900</ele>
        <time>2021-08-07T11:37:15.814Z</time>
      </trkpt>
      <trkpt lat="46.9158" lon="8.64328">
        <ele>900</ele>
        <time>2021-08-07T11:37:16.814Z</time>
      </trkpt>
      <trkpt lat="46.9158" lon="8.64327">
        <ele>900</ele>
        <time>2021-08-07T11:37:17.814Z</time>
      </trkpt>
      <trkpt lat="46.91581" lon="8.64326">
        <ele>900</ele>
        <time>2021-08-07T11:37:18.815Z</time>
      </trkpt>
      <trkpt lat="46.91581" lon="8.64325">
        <ele>900</ele>
        <time>2021-08-07T11:37:19.815Z</time>
      </trkpt>
      <trkpt lat="46.9158" lon="8.64326">
        <ele>900</ele>
        <time>2021-08-07T11:37:20.814Z</time>
      </trkpt>
      <trkpt lat="46.9158" lon="8.64326">
        <ele>900</ele>
        <time>2021-08-07T11:37:21.815Z</time>
      </trkpt>
      <trkpt lat="46.91579" lon="8.64326">
        <ele>900</ele>
        <time>2021-08-07T11:37:22.815Z</time>
      </trkpt>
      <trkpt lat="46.9158" lon="8.64325">
        <ele>900</ele>
        <time>2021-08-07T11:37:23.815Z</time>
      </trkpt>
      <trkpt lat="46.91581" lon="8.64325">
        <ele>901</ele>
        <time>2021-08-07T11:37:24.814Z</time>
      </trkpt>
      <trkpt lat="46.91581" lon="8.64323">
        <ele>901</ele>
        <time>2021-08-07T11:37:25.815Z</time>
      </trkpt>
      <trkpt lat="46.91581" lon="8.64321">
        <ele>901</ele>
        <time>2021-08-07T11:37:26.815Z</time>
      </trkpt>
      <trkpt lat="46.91581" lon="8.6432">
        <ele>901</ele>
        <time>2021-08-07T11:37:27.815Z</time>
      </trkpt>
      <trkpt lat="46.91582" lon="8.64319">
        <ele>901</ele>
        <time>2021-08-07T11:37:28.814Z</time>
      </trkpt>
      <trkpt lat="46.91583" lon="8.64318">
        <ele>901</ele>
        <time>2021-08-07T11:37:29.815Z</time>
      </trkpt>
      <trkpt lat="46.91584" lon="8.64315">
        <ele>902</ele>
        <time>2021-08-07T11:37:30.815Z</time>
      </trkpt>
      <trkpt lat="46.91585" lon="8.64314">
        <ele>902</ele>
        <time>2021-08-07T11:37:31.815Z</time>
      </trkpt>
      <trkpt lat="46.91585" lon="8.64313">
        <ele>902</ele>
        <time>2021-08-07T11:37:32.814Z</time>
      </trkpt>
      <trkpt lat="46.91585" lon="8.64312">
        <ele>902</ele>
        <time>2021-08-07T11:37:33.814Z</time>
      </trkpt>
      <trkpt lat="46.91585" lon="8.64311">
        <ele>902</ele>
        <time>2021-08-07T11:37:34.815Z</time>
      </trkpt>
      <trkpt lat="46.91585" lon="8.64309">
        <ele>902</ele>
        <time>2021-08-07T11:37:35.814Z</time>
      </trkpt>
      <trkpt lat="46.91585" lon="8.64307">
        <ele>902</ele>
        <time>2021-08-07T11:37:36.814Z</time>
      </trkpt>
      <trkpt lat="46.91585" lon="8.64305">
        <ele>902</ele>
        <time>2021-08-07T11:37:37.814Z</time>
      </trkpt>
      <trkpt lat="46.91585" lon="8.64304">
        <ele>903</ele>
        <time>2021-08-07T11:37:38.815Z</time>
      </trkpt>
      <trkpt lat="46.91585" lon="8.64304">
        <ele>903</ele>
        <time>2021-08-07T11:37:39.815Z</time>
      </trkpt>
      <trkpt lat="46.91586" lon="8.64306">
        <ele>903</ele>
        <time>2021-08-07T11:37:40.814Z</time>
      </trkpt>
      <trkpt lat="46.91587" lon="8.64307">
        <ele>903</ele>
        <time>2021-08-07T11:37:41.815Z</time>
      </trkpt>
      <trkpt lat="46.91588" lon="8.64308">
        <ele>903</ele>
        <time>2021-08-07T11:37:42.815Z</time>
      </trkpt>
      <trkpt lat="46.91589" lon="8.64311">
        <ele>903</ele>
        <time>2021-08-07T11:37:43.815Z</time>
      </trkpt>
      <trkpt lat="46.9159" lon="8.64312">
        <ele>903</ele>
        <time>2021-08-07T11:37:44.815Z</time>
      </trkpt>
      <trkpt lat="46.91589" lon="8.6431">
        <ele>903</ele>
        <time>2021-08-07T11:37:45.815Z</time>
      </trkpt>
      <trkpt lat="46.91588" lon="8.64309">
        <ele>903</ele>
        <time>2021-08-07T11:37:46.815Z</time>
      </trkpt>
      <trkpt lat="46.91589" lon="8.64308">
        <ele>903</ele>
        <time>2021-08-07T11:37:47.815Z</time>
      </trkpt>
      <trkpt lat="46.91589" lon="8.64307">
        <ele>903</ele>
        <time>2021-08-07T11:37:48.814Z</time>
      </trkpt>
      <trkpt lat="46.9159" lon="8.64306">
        <ele>903</ele>
        <time>2021-08-07T11:37:49.814Z</time>
      </trkpt>
      <trkpt lat="46.91592" lon="8.64297">
        <ele>903</ele>
        <time>2021-08-07T11:37:53.814Z</time>
      </trkpt>
      <trkpt lat="46.91591" lon="8.64295">
        <ele>903</ele>
        <time>2021-08-07T11:37:54.814Z</time>
      </trkpt>
      <trkpt lat="46.91591" lon="8.64293">
        <ele>902</ele>
        <time>2021-08-07T11:37:55.815Z</time>
      </trkpt>
      <trkpt lat="46.91591" lon="8.64291">
        <ele>902</ele>
        <time>2021-08-07T11:37:56.815Z</time>
      </trkpt>
      <trkpt lat="46.91592" lon="8.6429">
        <ele>902</ele>
        <time>2021-08-07T11:37:57.814Z</time>
      </trkpt>
      <trkpt lat="46.91592" lon="8.64289">
        <ele>901</ele>
        <time>2021-08-07T11:37:58.814Z</time>
      </trkpt>
      <trkpt lat="46.91593" lon="8.64288">
        <ele>901</ele>
        <time>2021-08-07T11:37:59.815Z</time>
      </trkpt>
      <trkpt lat="46.91593" lon="8.64288">
        <ele>901</ele>
        <time>2021-08-07T11:38:00.815Z</time>
      </trkpt>
      <trkpt lat="46.91594" lon="8.64289">
        <ele>900</ele>
        <time>2021-08-07T11:38:01.815Z</time>
      </trkpt>
      <trkpt lat="46.91594" lon="8.6429">
        <ele>900</ele>
        <time>2021-08-07T11:38:02.814Z</time>
      </trkpt>
      <trkpt lat="46.91593" lon="8.64289">
        <ele>899</ele>
        <time>2021-08-07T11:38:03.814Z</time>
      </trkpt>
      <trkpt lat="46.91592" lon="8.6429">
        <ele>899</ele>
        <time>2021-08-07T11:38:04.814Z</time>
      </trkpt>
      <trkpt lat="46.91593" lon="8.6429">
        <ele>899</ele>
        <time>2021-08-07T11:38:05.815Z</time>
      </trkpt>
      <trkpt lat="46.91593" lon="8.6429">
        <ele>898</ele>
        <time>2021-08-07T11:38:06.815Z</time>
      </trkpt>
      <trkpt lat="46.91594" lon="8.64286">
        <ele>898</ele>
        <time>2021-08-07T11:38:07.814Z</time>
      </trkpt>
      <trkpt lat="46.91595" lon="8.64282">
        <ele>898</ele>
        <time>2021-08-07T11:38:08.814Z</time>
      </trkpt>
      <trkpt lat="46.91598" lon="8.64281">
        <ele>897</ele>
        <time>2021-08-07T11:38:09.815Z</time>
      </trkpt>
      <trkpt lat="46.91601" lon="8.64283">
        <ele>897</ele>
        <time>2021-08-07T11:38:10.814Z</time>
      </trkpt>
      <trkpt lat="46.91603" lon="8.64284">
        <ele>897</ele>
        <time>2021-08-07T11:38:11.814Z</time>
      </trkpt>
      <trkpt lat="46.91604" lon="8.64283">
        <ele>896</ele>
        <time>2021-08-07T11:38:12.814Z</time>
      </trkpt>
      <trkpt lat="46.91604" lon="8.64282">
        <ele>896</ele>
        <time>2021-08-07T11:38:13.814Z</time>
      </trkpt>
      <trkpt lat="46.91603" lon="8.64278">
        <ele>896</ele>
        <time>2021-08-07T11:38:14.814Z</time>
      </trkpt>
      <trkpt lat="46.91602" lon="8.64276">
        <ele>895</ele>
        <time>2021-08-07T11:38:15.814Z</time>
      </trkpt>
      <trkpt lat="46.91603" lon="8.64278">
        <ele>895</ele>
        <time>2021-08-07T11:38:16.815Z</time>
      </trkpt>
      <trkpt lat="46.91604" lon="8.6428">
        <ele>895</ele>
        <time>2021-08-07T11:38:17.814Z</time>
      </trkpt>
      <trkpt lat="46.91603" lon="8.64281">
        <ele>894</ele>
        <time>2021-08-07T11:38:18.814Z</time>
      </trkpt>
      <trkpt lat="46.91603" lon="8.64279">
        <ele>894</ele>
        <time>2021-08-07T11:38:20.915Z</time>
      </trkpt>
      <trkpt lat="46.91604" lon="8.64279">
        <ele>893</ele>
        <time>2021-08-07T11:38:21.916Z</time>
      </trkpt>
      <trkpt lat="46.91604" lon="8.64279">
        <ele>893</ele>
        <time>2021-08-07T11:38:22.915Z</time>
      </trkpt>
      <trkpt lat="46.91604" lon="8.64279">
        <ele>892</ele>
        <time>2021-08-07T11:38:29.947Z</time>
      </trkpt>
      <trkpt lat="46.91606" lon="8.64278">
        <ele>892</ele>
        <time>2021-08-07T11:38:30.947Z</time>
      </trkpt>
      <trkpt lat="46.91608" lon="8.64277">
        <ele>891</ele>
        <time>2021-08-07T11:38:31.947Z</time>
      </trkpt>
      <trkpt lat="46.91609" lon="8.64275">
        <ele>891</ele>
        <time>2021-08-07T11:38:32.947Z</time>
      </trkpt>
      <trkpt lat="46.91609" lon="8.64275">
        <ele>890</ele>
        <time>2021-08-07T11:38:33.947Z</time>
      </trkpt>
      <trkpt lat="46.91609" lon="8.64274">
        <ele>889</ele>
        <time>2021-08-07T11:38:34.947Z</time>
      </trkpt>
      <trkpt lat="46.91608" lon="8.64274">
        <ele>889</ele>
        <time>2021-08-07T11:38:35.947Z</time>
      </trkpt>
      <trkpt lat="46.91607" lon="8.64273">
        <ele>888</ele>
        <time>2021-08-07T11:38:36.947Z</time>
      </trkpt>
      <trkpt lat="46.91607" lon="8.64271">
        <ele>888</ele>
        <time>2021-08-07T11:38:42.070Z</time>
      </trkpt>
      <trkpt lat="46.91606" lon="8.6427">
        <ele>888</ele>
        <time>2021-08-07T11:38:43.070Z</time>
      </trkpt>
      <trkpt lat="46.91605" lon="8.64269">
        <ele>887</ele>
        <time>2021-08-07T11:38:44.070Z</time>
      </trkpt>
      <trkpt lat="46.91604" lon="8.64269">
        <ele>887</ele>
        <time>2021-08-07T11:39:00.075Z</time>
      </trkpt>
      <trkpt lat="46.91604" lon="8.64269">
        <ele>886</ele>
        <time>2021-08-07T11:39:01.075Z</time>
      </trkpt>
      <trkpt lat="46.91603" lon="8.64269">
        <ele>886</ele>
        <time>2021-08-07T11:39:02.076Z</time>
      </trkpt>
      <trkpt lat="46.91602" lon="8.6427">
        <ele>885</ele>
        <time>2021-08-07T11:39:03.075Z</time>
      </trkpt>
      <trkpt lat="46.91601" lon="8.64269">
        <ele>885</ele>
        <time>2021-08-07T11:39:09.186Z</time>
      </trkpt>
      <trkpt lat="46.91601" lon="8.64269">
        <ele>885</ele>
        <time>2021-08-07T11:39:10.187Z</time>
      </trkpt>
      <trkpt lat="46.91601" lon="8.64269">
        <ele>884</ele>
        <time>2021-08-07T11:39:18.100Z</time>
      </trkpt>
      <trkpt lat="46.91601" lon="8.64269">
        <ele>884</ele>
        <time>2021-08-07T11:39:41.952Z</time>
      </trkpt>
      <trkpt lat="46.91601" lon="8.64268">
        <ele>884</ele>
        <time>2021-08-07T11:39:54.827Z</time>
      </trkpt>
      <trkpt lat="46.91601" lon="8.64267">
        <ele>883</ele>
        <time>2021-08-07T11:39:55.828Z</time>
      </trkpt>
      <trkpt lat="46.91601" lon="8.64268">
        <ele>883</ele>
        <time>2021-08-07T11:39:56.828Z</time>
      </trkpt>
      <trkpt lat="46.91602" lon="8.64268">
        <ele>883</ele>
        <time>2021-08-07T11:40:03.967Z</time>
      </trkpt>
      <trkpt lat="46.91603" lon="8.64268">
        <ele>882</ele>
        <time>2021-08-07T11:40:04.967Z</time>
      </trkpt>
      <trkpt lat="46.91603" lon="8.64268">
        <ele>882</ele>
        <time>2021-08-07T11:40:05.967Z</time>
      </trkpt>
      <trkpt lat="46.91602" lon="8.64268">
        <ele>882</ele>
        <time>2021-08-07T11:40:06.967Z</time>
      </trkpt>
      <trkpt lat="46.91603" lon="8.64269">
        <ele>882</ele>
        <time>2021-08-07T11:40:07.966Z</time>
      </trkpt>
      <trkpt lat="46.91604" lon="8.64268">
        <ele>881</ele>
        <time>2021-08-07T11:40:08.966Z</time>
      </trkpt>
      <trkpt lat="46.91603" lon="8.64266">
        <ele>881</ele>
        <time>2021-08-07T11:40:09.967Z</time>
      </trkpt>
      <trkpt lat="46.91603" lon="8.64266">
        <ele>881</ele>
        <time>2021-08-07T11:40:10.966Z</time>
      </trkpt>
      <trkpt lat="46.91602" lon="8.64267">
        <ele>881</ele>
        <time>2021-08-07T11:40:11.967Z</time>
      </trkpt>
      <trkpt lat="46.91601" lon="8.64268">
        <ele>881</ele>
        <time>2021-08-07T11:40:12.967Z</time>
      </trkpt>
      <trkpt lat="46.91601" lon="8.64268">
        <ele>880</ele>
        <time>2021-08-07T11:40:13.967Z</time>
      </trkpt>
      <trkpt lat="46.91601" lon="8.64268">
        <ele>880</ele>
        <time>2021-08-07T11:40:14.967Z</time>
      </trkpt>
      <trkpt lat="46.91602" lon="8.64267">
        <ele>880</ele>
        <time>2021-08-07T11:40:15.967Z</time>
      </trkpt>
      <trkpt lat="46.91603" lon="8.64266">
        <ele>879</ele>
        <time>2021-08-07T11:40:16.967Z</time>
      </trkpt>
      <trkpt lat="46.91603" lon="8.64265">
        <ele>879</ele>
        <time>2021-08-07T11:40:28.077Z</time>
      </trkpt>
      <trkpt lat="46.91603" lon="8.64265">
        <ele>879</ele>
        <time>2021-08-07T11:40:29.078Z</time>
      </trkpt>
      <trkpt lat="46.91602" lon="8.64266">
        <ele>879</ele>
        <time>2021-08-07T11:40:30.078Z</time>
      </trkpt>
      <trkpt lat="46.916" lon="8.64266">
        <ele>878</ele>
        <time>2021-08-07T11:40:31.078Z</time>
      </trkpt>
      <trkpt lat="46.916" lon="8.64267">
        <ele>878</ele>
        <time>2021-08-07T11:40:32.078Z</time>
      </trkpt>
      <trkpt lat="46.91598" lon="8.64265">
        <ele>878</ele>
        <time>2021-08-07T11:40:33.078Z</time>
      </trkpt>
      <trkpt lat="46.91596" lon="8.64263">
        <ele>878</ele>
        <time>2021-08-07T11:40:34.078Z</time>
      </trkpt>
      <trkpt lat="46.91595" lon="8.64262">
        <ele>878</ele>
        <time>2021-08-07T11:40:35.077Z</time>
      </trkpt>
      <trkpt lat="46.91594" lon="8.64261">
        <ele>878</ele>
        <time>2021-08-07T11:40:38.198Z</time>
      </trkpt>
      <trkpt lat="46.91593" lon="8.6426">
        <ele>877</ele>
        <time>2021-08-07T11:40:57.092Z</time>
      </trkpt>
      <trkpt lat="46.91592" lon="8.64259">
        <ele>877</ele>
        <time>2021-08-07T11:40:58.092Z</time>
      </trkpt>
      <trkpt lat="46.91591" lon="8.64258">
        <ele>877</ele>
        <time>2021-08-07T11:40:59.092Z</time>
      </trkpt>
      <trkpt lat="46.91591" lon="8.64258">
        <ele>877</ele>
        <time>2021-08-07T11:41:00.091Z</time>
      </trkpt>
      <trkpt lat="46.91592" lon="8.64257">
        <ele>877</ele>
        <time>2021-08-07T11:41:01.092Z</time>
      </trkpt>
      <trkpt lat="46.91592" lon="8.64257">
        <ele>877</ele>
        <time>2021-08-07T11:41:02.092Z</time>
      </trkpt>
      <trkpt lat="46.91594" lon="8.64258">
        <ele>877</ele>
        <time>2021-08-07T11:41:03.092Z</time>
      </trkpt>
      <trkpt lat="46.91595" lon="8.64258">
        <ele>877</ele>
        <time>2021-08-07T11:41:04.091Z</time>
      </trkpt>
      <trkpt lat="46.91596" lon="8.64258">
        <ele>876</ele>
        <time>2021-08-07T11:41:05.092Z</time>
      </trkpt>
      <trkpt lat="46.91595" lon="8.64259">
        <ele>876</ele>
        <time>2021-08-07T11:41:06.091Z</time>
      </trkpt>
      <trkpt lat="46.91594" lon="8.64259">
        <ele>876</ele>
        <time>2021-08-07T11:41:07.092Z</time>
      </trkpt>
      <trkpt lat="46.91595" lon="8.64259">
        <ele>876</ele>
        <time>2021-08-07T11:41:08.091Z</time>
      </trkpt>
      <trkpt lat="46.91594" lon="8.6426">
        <ele>876</ele>
        <time>2021-08-07T11:41:09.091Z</time>
      </trkpt>
      <trkpt lat="46.91593" lon="8.6426">
        <ele>875</ele>
        <time>2021-08-07T11:41:10.092Z</time>
      </trkpt>
      <trkpt lat="46.91592" lon="8.64261">
        <ele>875</ele>
        <time>2021-08-07T11:41:11.092Z</time>
      </trkpt>
      <trkpt lat="46.91591" lon="8.64264">
        <ele>875</ele>
        <time>2021-08-07T11:41:12.092Z</time>
      </trkpt>
      <trkpt lat="46.91589" lon="8.64265">
        <ele>874</ele>
        <time>2021-08-07T11:41:13.092Z</time>
      </trkpt>
      <trkpt lat="46.91588" lon="8.64265">
        <ele>874</ele>
        <time>2021-08-07T11:41:14.092Z</time>
      </trkpt>
      <trkpt lat="46.91587" lon="8.64264">
        <ele>874</ele>
        <time>2021-08-07T11:41:15.092Z</time>
      </trkpt>
      <trkpt lat="46.91586" lon="8.64263">
        <ele>874</ele>
        <time>2021-08-07T11:41:16.092Z</time>
      </trkpt>
      <trkpt lat="46.91587" lon="8.64263">
        <ele>874</ele>
        <time>2021-08-07T11:41:17.092Z</time>
      </trkpt>
      <trkpt lat="46.91587" lon="8.64262">
        <ele>874</ele>
        <time>2021-08-07T11:41:18.092Z</time>
      </trkpt>
      <trkpt lat="46.91587" lon="8.64261">
        <ele>874</ele>
        <time>2021-08-07T11:41:19.092Z</time>
      </trkpt>
      <trkpt lat="46.91588" lon="8.64259">
        <ele>875</ele>
        <time>2021-08-07T11:41:20.092Z</time>
      </trkpt>
      <trkpt lat="46.91588" lon="8.64256">
        <ele>875</ele>
        <time>2021-08-07T11:41:21.092Z</time>
      </trkpt>
      <trkpt lat="46.91587" lon="8.64255">
        <ele>875</ele>
        <time>2021-08-07T11:41:22.092Z</time>
      </trkpt>
      <trkpt lat="46.91585" lon="8.64255">
        <ele>875</ele>
        <time>2021-08-07T11:41:23.092Z</time>
      </trkpt>
      <trkpt lat="46.91585" lon="8.64257">
        <ele>875</ele>
        <time>2021-08-07T11:41:24.092Z</time>
      </trkpt>
      <trkpt lat="46.91586" lon="8.64259">
        <ele>875</ele>
        <time>2021-08-07T11:41:25.092Z</time>
      </trkpt>
      <trkpt lat="46.91587" lon="8.64258">
        <ele>875</ele>
        <time>2021-08-07T11:41:26.092Z</time>
      </trkpt>
      <trkpt lat="46.91589" lon="8.64256">
        <ele>875</ele>
        <time>2021-08-07T11:41:27.092Z</time>
      </trkpt>
      <trkpt lat="46.91592" lon="8.64255">
        <ele>875</ele>
        <time>2021-08-07T11:41:28.092Z</time>
      </trkpt>
      <trkpt lat="46.91596" lon="8.64255">
        <ele>875</ele>
        <time>2021-08-07T11:41:29.091Z</time>
      </trkpt>
      <trkpt lat="46.916" lon="8.64255">
        <ele>875</ele>
        <time>2021-08-07T11:41:30.091Z</time>
      </trkpt>
      <trkpt lat="46.91604" lon="8.64256">
        <ele>875</ele>
        <time>2021-08-07T11:41:31.092Z</time>
      </trkpt>
      <trkpt lat="46.91607" lon="8.64256">
        <ele>874</ele>
        <time>2021-08-07T11:41:32.091Z</time>
      </trkpt>
      <trkpt lat="46.9161" lon="8.64257">
        <ele>874</ele>
        <time>2021-08-07T11:41:33.091Z</time>
      </trkpt>
      <trkpt lat="46.91612" lon="8.64258">
        <ele>874</ele>
        <time>2021-08-07T11:41:34.092Z</time>
      </trkpt>
      <trkpt lat="46.91613" lon="8.64258">
        <ele>874</ele>
        <time>2021-08-07T11:41:35.092Z</time>
      </trkpt>
      <trkpt lat="46.91614" lon="8.64258">
        <ele>874</ele>
        <time>2021-08-07T11:41:36.092Z</time>
      </trkpt>
      <trkpt lat="46.91615" lon="8.64258">
        <ele>874</ele>
        <time>2021-08-07T11:41:37.091Z</time>
      </trkpt>
      <trkpt lat="46.91614" lon="8.64258">
        <ele>874</ele>
        <time>2021-08-07T11:41:38.092Z</time>
      </trkpt>
      <trkpt lat="46.91612" lon="8.64257">
        <ele>874</ele>
        <time>2021-08-07T11:41:39.091Z</time>
      </trkpt>
      <trkpt lat="46.91611" lon="8.64257">
        <ele>874</ele>
        <time>2021-08-07T11:41:40.092Z</time>
      </trkpt>
      <trkpt lat="46.91609" lon="8.64257">
        <ele>874</ele>
        <time>2021-08-07T11:41:41.092Z</time>
      </trkpt>
      <trkpt lat="46.91608" lon="8.64257">
        <ele>874</ele>
        <time>2021-08-07T11:41:42.092Z</time>
      </trkpt>
      <trkpt lat="46.91606" lon="8.64258">
        <ele>874</ele>
        <time>2021-08-07T11:41:43.092Z</time>
      </trkpt>
      <trkpt lat="46.91605" lon="8.64259">
        <ele>874</ele>
        <time>2021-08-07T11:41:44.092Z</time>
      </trkpt>
      <trkpt lat="46.91604" lon="8.6426">
        <ele>873</ele>
        <time>2021-08-07T11:41:45.092Z</time>
      </trkpt>
      <trkpt lat="46.91603" lon="8.6426">
        <ele>873</ele>
        <time>2021-08-07T11:41:46.092Z</time>
      </trkpt>
      <trkpt lat="46.91601" lon="8.6426">
        <ele>873</ele>
        <time>2021-08-07T11:41:47.091Z</time>
      </trkpt>
      <trkpt lat="46.91599" lon="8.64259">
        <ele>873</ele>
        <time>2021-08-07T11:41:48.092Z</time>
      </trkpt>
      <trkpt lat="46.91598" lon="8.64258">
        <ele>873</ele>
        <time>2021-08-07T11:41:49.091Z</time>
      </trkpt>
      <trkpt lat="46.91597" lon="8.64258">
        <ele>872</ele>
        <time>2021-08-07T11:41:50.091Z</time>
      </trkpt>
      <trkpt lat="46.91595" lon="8.64257">
        <ele>872</ele>
        <time>2021-08-07T11:41:51.091Z</time>
      </trkpt>
      <trkpt lat="46.91594" lon="8.64256">
        <ele>872</ele>
        <time>2021-08-07T11:41:52.092Z</time>
      </trkpt>
      <trkpt lat="46.91594" lon="8.64255">
        <ele>872</ele>
        <time>2021-08-07T11:41:53.092Z</time>
      </trkpt>
      <trkpt lat="46.91592" lon="8.64255">
        <ele>872</ele>
        <time>2021-08-07T11:41:54.091Z</time>
      </trkpt>
      <trkpt lat="46.91591" lon="8.64255">
        <ele>871</ele>
        <time>2021-08-07T11:41:55.092Z</time>
      </trkpt>
      <trkpt lat="46.91589" lon="8.64256">
        <ele>871</ele>
        <time>2021-08-07T11:41:56.091Z</time>
      </trkpt>
      <trkpt lat="46.91588" lon="8.64257">
        <ele>871</ele>
        <time>2021-08-07T11:41:57.092Z</time>
      </trkpt>
      <trkpt lat="46.91588" lon="8.64257">
        <ele>871</ele>
        <time>2021-08-07T11:41:58.091Z</time>
      </trkpt>
      <trkpt lat="46.91586" lon="8.64255">
        <ele>871</ele>
        <time>2021-08-07T11:41:59.091Z</time>
      </trkpt>
      <trkpt lat="46.91585" lon="8.64253">
        <ele>870</ele>
        <time>2021-08-07T11:42:00.091Z</time>
      </trkpt>
      <trkpt lat="46.91585" lon="8.64252">
        <ele>870</ele>
        <time>2021-08-07T11:42:01.092Z</time>
      </trkpt>
      <trkpt lat="46.91586" lon="8.64252">
        <ele>870</ele>
        <time>2021-08-07T11:42:02.092Z</time>
      </trkpt>
      <trkpt lat="46.91586" lon="8.64252">
        <ele>870</ele>
        <time>2021-08-07T11:42:03.091Z</time>
      </trkpt>
      <trkpt lat="46.91586" lon="8.64252">
        <ele>870</ele>
        <time>2021-08-07T11:42:04.092Z</time>
      </trkpt>
      <trkpt lat="46.91587" lon="8.64253">
        <ele>869</ele>
        <time>2021-08-07T11:42:08.929Z</time>
      </trkpt>
      <trkpt lat="46.91586" lon="8.64253">
        <ele>869</ele>
        <time>2021-08-07T11:42:13.823Z</time>
      </trkpt>
      <trkpt lat="46.91585" lon="8.64253">
        <ele>869</ele>
        <time>2021-08-07T11:42:14.824Z</time>
      </trkpt>
      <trkpt lat="46.91584" lon="8.64254">
        <ele>869</ele>
        <time>2021-08-07T11:42:15.823Z</time>
      </trkpt>
      <trkpt lat="46.91583" lon="8.64253">
        <ele>869</ele>
        <time>2021-08-07T11:42:19.699Z</time>
      </trkpt>
      <trkpt lat="46.91582" lon="8.64252">
        <ele>869</ele>
        <time>2021-08-07T11:42:20.699Z</time>
      </trkpt>
      <trkpt lat="46.91581" lon="8.64252">
        <ele>869</ele>
        <time>2021-08-07T11:42:21.699Z</time>
      </trkpt>
      <trkpt lat="46.91581" lon="8.64252">
        <ele>869</ele>
        <time>2021-08-07T11:42:22.699Z</time>
      </trkpt>
      <trkpt lat="46.91581" lon="8.64252">
        <ele>869</ele>
        <time>2021-08-07T11:42:23.699Z</time>
      </trkpt>
      <trkpt lat="46.9158" lon="8.64251">
        <ele>869</ele>
        <time>2021-08-07T11:42:24.699Z</time>
      </trkpt>
      <trkpt lat="46.9158" lon="8.6425">
        <ele>869</ele>
        <time>2021-08-07T11:42:25.699Z</time>
      </trkpt>
      <trkpt lat="46.9158" lon="8.64248">
        <ele>869</ele>
        <time>2021-08-07T11:42:26.699Z</time>
      </trkpt>
      <trkpt lat="46.9158" lon="8.64246">
        <ele>868</ele>
        <time>2021-08-07T11:42:27.699Z</time>
      </trkpt>
      <trkpt lat="46.91581" lon="8.64244">
        <ele>868</ele>
        <time>2021-08-07T11:42:28.699Z</time>
      </trkpt>
      <trkpt lat="46.91583" lon="8.64242">
        <ele>868</ele>
        <time>2021-08-07T11:42:29.699Z</time>
      </trkpt>
      <trkpt lat="46.91585" lon="8.64242">
        <ele>868</ele>
        <time>2021-08-07T11:42:30.699Z</time>
      </trkpt>
      <trkpt lat="46.91586" lon="8.64242">
        <ele>868</ele>
        <time>2021-08-07T11:42:31.699Z</time>
      </trkpt>
      <trkpt lat="46.91585" lon="8.64242">
        <ele>868</ele>
        <time>2021-08-07T11:42:32.698Z</time>
      </trkpt>
      <trkpt lat="46.91584" lon="8.64242">
        <ele>868</ele>
        <time>2021-08-07T11:42:33.699Z</time>
      </trkpt>
      <trkpt lat="46.91584" lon="8.64242">
        <ele>868</ele>
        <time>2021-08-07T11:42:34.699Z</time>
      </trkpt>
      <trkpt lat="46.91583" lon="8.64242">
        <ele>868</ele>
        <time>2021-08-07T11:42:35.698Z</time>
      </trkpt>
      <trkpt lat="46.91582" lon="8.64242">
        <ele>868</ele>
        <time>2021-08-07T11:42:36.699Z</time>
      </trkpt>
      <trkpt lat="46.91582" lon="8.64243">
        <ele>868</ele>
        <time>2021-08-07T11:42:37.698Z</time>
      </trkpt>
      <trkpt lat="46.91581" lon="8.64243">
        <ele>868</ele>
        <time>2021-08-07T11:42:38.698Z</time>
      </trkpt>
      <trkpt lat="46.9158" lon="8.64243">
        <ele>867</ele>
        <time>2021-08-07T11:42:39.699Z</time>
      </trkpt>
      <trkpt lat="46.91581" lon="8.64242">
        <ele>867</ele>
        <time>2021-08-07T11:42:40.699Z</time>
      </trkpt>
      <trkpt lat="46.91581" lon="8.64243">
        <ele>867</ele>
        <time>2021-08-07T11:42:41.699Z</time>
      </trkpt>
      <trkpt lat="46.91582" lon="8.64243">
        <ele>867</ele>
        <time>2021-08-07T11:42:42.698Z</time>
      </trkpt>
      <trkpt lat="46.91583" lon="8.64243">
        <ele>867</ele>
        <time>2021-08-07T11:42:43.699Z</time>
      </trkpt>
      <trkpt lat="46.91582" lon="8.64242">
        <ele>867</ele>
        <time>2021-08-07T11:42:44.698Z</time>
      </trkpt>
      <trkpt lat="46.91582" lon="8.64241">
        <ele>867</ele>
        <time>2021-08-07T11:42:45.698Z</time>
      </trkpt>
      <trkpt lat="46.91582" lon="8.6424">
        <ele>867</ele>
        <time>2021-08-07T11:42:46.698Z</time>
      </trkpt>
      <trkpt lat="46.91582" lon="8.64239">
        <ele>867</ele>
        <time>2021-08-07T11:42:47.699Z</time>
      </trkpt>
      <trkpt lat="46.91583" lon="8.64237">
        <ele>867</ele>
        <time>2021-08-07T11:42:48.698Z</time>
      </trkpt>
      <trkpt lat="46.91584" lon="8.64236">
        <ele>867</ele>
        <time>2021-08-07T11:42:49.699Z</time>
      </trkpt>
      <trkpt lat="46.91585" lon="8.64235">
        <ele>868</ele>
        <time>2021-08-07T11:42:50.699Z</time>
      </trkpt>
      <trkpt lat="46.91585" lon="8.64234">
        <ele>868</ele>
        <time>2021-08-07T11:42:51.699Z</time>
      </trkpt>
      <trkpt lat="46.91585" lon="8.64234">
        <ele>868</ele>
        <time>2021-08-07T11:42:52.698Z</time>
      </trkpt>
      <trkpt lat="46.91585" lon="8.64233">
        <ele>868</ele>
        <time>2021-08-07T11:42:53.699Z</time>
      </trkpt>
      <trkpt lat="46.91585" lon="8.64233">
        <ele>868</ele>
        <time>2021-08-07T11:42:54.699Z</time>
      </trkpt>
      <trkpt lat="46.91584" lon="8.64234">
        <ele>868</ele>
        <time>2021-08-07T11:42:55.699Z</time>
      </trkpt>
      <trkpt lat="46.91584" lon="8.64235">
        <ele>868</ele>
        <time>2021-08-07T11:42:56.698Z</time>
      </trkpt>
      <trkpt lat="46.91584" lon="8.64234">
        <ele>868</ele>
        <time>2021-08-07T11:42:57.699Z</time>
      </trkpt>
      <trkpt lat="46.91584" lon="8.64233">
        <ele>868</ele>
        <time>2021-08-07T11:42:58.698Z</time>
      </trkpt>
      <trkpt lat="46.91585" lon="8.64232">
        <ele>867</ele>
        <time>2021-08-07T11:42:59.698Z</time>
      </trkpt>
      <trkpt lat="46.91585" lon="8.64231">
        <ele>867</ele>
        <time>2021-08-07T11:43:00.699Z</time>
      </trkpt>
      <trkpt lat="46.91585" lon="8.6423">
        <ele>866</ele>
        <time>2021-08-07T11:43:01.699Z</time>
      </trkpt>
      <trkpt lat="46.91585" lon="8.64229">
        <ele>865</ele>
        <time>2021-08-07T11:43:02.698Z</time>
      </trkpt>
      <trkpt lat="46.91585" lon="8.64229">
        <ele>864</ele>
        <time>2021-08-07T11:43:03.699Z</time>
      </trkpt>
      <trkpt lat="46.91585" lon="8.6423">
        <ele>860</ele>
        <time>2021-08-07T11:43:04.699Z</time>
      </trkpt>
      <trkpt lat="46.91586" lon="8.6423">
        <ele>859</ele>
        <time>2021-08-07T11:43:05.700Z</time>
      </trkpt>
      <trkpt lat="46.91586" lon="8.6423">
        <ele>859</ele>
        <time>2021-08-07T11:43:06.700Z</time>
      </trkpt>
      <trkpt lat="46.91586" lon="8.64228">
        <ele>856</ele>
        <time>2021-08-07T11:43:07.700Z</time>
      </trkpt>
      <trkpt lat="46.91586" lon="8.64228">
        <ele>855</ele>
        <time>2021-08-07T11:43:08.700Z</time>
      </trkpt>
      <trkpt lat="46.91586" lon="8.64227">
        <ele>855</ele>
        <time>2021-08-07T11:43:09.700Z</time>
      </trkpt>
      <trkpt lat="46.91583" lon="8.64215">
        <ele>853</ele>
        <time>2021-08-07T11:43:10.701Z</time>
      </trkpt>
      <trkpt lat="46.91583" lon="8.64214">
        <ele>854</ele>
        <time>2021-08-07T11:43:11.700Z</time>
      </trkpt>
      <trkpt lat="46.91582" lon="8.64213">
        <ele>854</ele>
        <time>2021-08-07T11:43:12.700Z</time>
      </trkpt>
      <trkpt lat="46.91582" lon="8.64212">
        <ele>855</ele>
        <time>2021-08-07T11:43:13.700Z</time>
      </trkpt>
      <trkpt lat="46.91583" lon="8.64212">
        <ele>856</ele>
        <time>2021-08-07T11:43:14.700Z</time>
      </trkpt>
      <trkpt lat="46.91584" lon="8.64211">
        <ele>857</ele>
        <time>2021-08-07T11:43:15.701Z</time>
      </trkpt>
      <trkpt lat="46.91584" lon="8.64211">
        <ele>858</ele>
        <time>2021-08-07T11:43:16.701Z</time>
      </trkpt>
      <trkpt lat="46.91584" lon="8.64211">
        <ele>858</ele>
        <time>2021-08-07T11:43:17.701Z</time>
      </trkpt>
      <trkpt lat="46.91584" lon="8.64211">
        <ele>858</ele>
        <time>2021-08-07T11:43:18.702Z</time>
      </trkpt>
      <trkpt lat="46.91583" lon="8.64211">
        <ele>858</ele>
        <time>2021-08-07T11:43:19.702Z</time>
      </trkpt>
      <trkpt lat="46.91581" lon="8.6421">
        <ele>859</ele>
        <time>2021-08-07T11:43:20.702Z</time>
      </trkpt>
      <trkpt lat="46.91581" lon="8.64211">
        <ele>860</ele>
        <time>2021-08-07T11:43:21.701Z</time>
      </trkpt>
      <trkpt lat="46.91582" lon="8.64212">
        <ele>860</ele>
        <time>2021-08-07T11:43:22.701Z</time>
      </trkpt>
      <trkpt lat="46.91582" lon="8.64213">
        <ele>859</ele>
        <time>2021-08-07T11:43:23.702Z</time>
      </trkpt>
      <trkpt lat="46.91582" lon="8.64213">
        <ele>859</ele>
        <time>2021-08-07T11:43:24.702Z</time>
      </trkpt>
      <trkpt lat="46.91582" lon="8.64214">
        <ele>859</ele>
        <time>2021-08-07T11:43:25.701Z</time>
      </trkpt>
      <trkpt lat="46.91582" lon="8.64215">
        <ele>858</ele>
        <time>2021-08-07T11:43:26.702Z</time>
      </trkpt>
      <trkpt lat="46.91582" lon="8.64216">
        <ele>858</ele>
        <time>2021-08-07T11:43:27.702Z</time>
      </trkpt>
      <trkpt lat="46.91582" lon="8.64216">
        <ele>858</ele>
        <time>2021-08-07T11:43:28.702Z</time>
      </trkpt>
      <trkpt lat="46.91582" lon="8.64216">
        <ele>857</ele>
        <time>2021-08-07T11:43:29.702Z</time>
      </trkpt>
      <trkpt lat="46.91582" lon="8.64215">
        <ele>857</ele>
        <time>2021-08-07T11:43:30.702Z</time>
      </trkpt>
      <trkpt lat="46.91581" lon="8.64214">
        <ele>857</ele>
        <time>2021-08-07T11:43:31.702Z</time>
      </trkpt>
      <trkpt lat="46.91581" lon="8.64213">
        <ele>857</ele>
        <time>2021-08-07T11:43:32.701Z</time>
      </trkpt>
      <trkpt lat="46.91581" lon="8.64212">
        <ele>857</ele>
        <time>2021-08-07T11:43:33.702Z</time>
      </trkpt>
      <trkpt lat="46.91579" lon="8.6421">
        <ele>859</ele>
        <time>2021-08-07T11:43:34.703Z</time>
      </trkpt>
      <trkpt lat="46.91579" lon="8.6421">
        <ele>859</ele>
        <time>2021-08-07T11:43:35.703Z</time>
      </trkpt>
      <trkpt lat="46.91579" lon="8.64212">
        <ele>859</ele>
        <time>2021-08-07T11:43:38.664Z</time>
      </trkpt>
      <trkpt lat="46.91579" lon="8.64213">
        <ele>859</ele>
        <time>2021-08-07T11:43:39.665Z</time>
      </trkpt>
      <trkpt lat="46.9158" lon="8.64214">
        <ele>859</ele>
        <time>2021-08-07T11:43:40.664Z</time>
      </trkpt>
      <trkpt lat="46.91581" lon="8.64215">
        <ele>859</ele>
        <time>2021-08-07T11:43:41.664Z</time>
      </trkpt>
      <trkpt lat="46.91582" lon="8.64214">
        <ele>859</ele>
        <time>2021-08-07T11:43:42.665Z</time>
      </trkpt>
      <trkpt lat="46.91582" lon="8.64214">
        <ele>859</ele>
        <time>2021-08-07T11:43:43.665Z</time>
      </trkpt>
      <trkpt lat="46.91583" lon="8.64214">
        <ele>860</ele>
        <time>2021-08-07T11:43:44.665Z</time>
      </trkpt>
      <trkpt lat="46.91584" lon="8.64215">
        <ele>860</ele>
        <time>2021-08-07T11:43:45.665Z</time>
      </trkpt>
      <trkpt lat="46.91584" lon="8.64215">
        <ele>860</ele>
        <time>2021-08-07T11:43:46.665Z</time>
      </trkpt>
      <trkpt lat="46.91584" lon="8.64214">
        <ele>860</ele>
        <time>2021-08-07T11:43:47.664Z</time>
      </trkpt>
      <trkpt lat="46.91584" lon="8.64214">
        <ele>860</ele>
        <time>2021-08-07T11:43:48.665Z</time>
      </trkpt>
      <trkpt lat="46.91586" lon="8.64214">
        <ele>861</ele>
        <time>2021-08-07T11:43:49.665Z</time>
      </trkpt>
      <trkpt lat="46.91586" lon="8.64214">
        <ele>861</ele>
        <time>2021-08-07T11:43:50.665Z</time>
      </trkpt>
      <trkpt lat="46.91586" lon="8.64215">
        <ele>861</ele>
        <time>2021-08-07T11:43:51.664Z</time>
      </trkpt>
      <trkpt lat="46.91586" lon="8.64215">
        <ele>861</ele>
        <time>2021-08-07T11:43:52.664Z</time>
      </trkpt>
      <trkpt lat="46.91587" lon="8.64215">
        <ele>861</ele>
        <time>2021-08-07T11:43:53.665Z</time>
      </trkpt>
      <trkpt lat="46.91587" lon="8.64215">
        <ele>861</ele>
        <time>2021-08-07T11:43:54.664Z</time>
      </trkpt>
      <trkpt lat="46.91585" lon="8.64214">
        <ele>860</ele>
        <time>2021-08-07T11:43:55.665Z</time>
      </trkpt>
      <trkpt lat="46.91583" lon="8.64213">
        <ele>860</ele>
        <time>2021-08-07T11:43:56.665Z</time>
      </trkpt>
      <trkpt lat="46.91582" lon="8.64212">
        <ele>860</ele>
        <time>2021-08-07T11:43:57.665Z</time>
      </trkpt>
      <trkpt lat="46.91582" lon="8.64212">
        <ele>860</ele>
        <time>2021-08-07T11:43:58.666Z</time>
      </trkpt>
      <trkpt lat="46.91582" lon="8.64211">
        <ele>860</ele>
        <time>2021-08-07T11:43:59.666Z</time>
      </trkpt>
      <trkpt lat="46.91582" lon="8.64212">
        <ele>860</ele>
        <time>2021-08-07T11:44:00.666Z</time>
      </trkpt>
      <trkpt lat="46.91582" lon="8.64212">
        <ele>860</ele>
        <time>2021-08-07T11:44:01.666Z</time>
      </trkpt>
      <trkpt lat="46.91581" lon="8.64213">
        <ele>860</ele>
        <time>2021-08-07T11:44:02.666Z</time>
      </trkpt>
      <trkpt lat="46.91581" lon="8.64214">
        <ele>860</ele>
        <time>2021-08-07T11:44:03.665Z</time>
      </trkpt>
      <trkpt lat="46.91581" lon="8.64215">
        <ele>860</ele>
        <time>2021-08-07T11:44:04.665Z</time>
      </trkpt>
      <trkpt lat="46.9158" lon="8.64216">
        <ele>861</ele>
        <time>2021-08-07T11:44:05.666Z</time>
      </trkpt>
      <trkpt lat="46.91579" lon="8.64217">
        <ele>861</ele>
        <time>2021-08-07T11:44:06.665Z</time>
      </trkpt>
      <trkpt lat="46.91578" lon="8.64218">
        <ele>861</ele>
        <time>2021-08-07T11:44:07.666Z</time>
      </trkpt>
      <trkpt lat="46.91577" lon="8.6422">
        <ele>861</ele>
        <time>2021-08-07T11:44:08.666Z</time>
      </trkpt>
      <trkpt lat="46.91576" lon="8.64221">
        <ele>861</ele>
        <time>2021-08-07T11:44:09.666Z</time>
      </trkpt>
      <trkpt lat="46.91576" lon="8.64223">
        <ele>861</ele>
        <time>2021-08-07T11:44:10.666Z</time>
      </trkpt>
      <trkpt lat="46.91576" lon="8.64224">
        <ele>861</ele>
        <time>2021-08-07T11:44:11.666Z</time>
      </trkpt>
      <trkpt lat="46.91576" lon="8.64225">
        <ele>861</ele>
        <time>2021-08-07T11:44:12.666Z</time>
      </trkpt>
      <trkpt lat="46.91576" lon="8.64226">
        <ele>861</ele>
        <time>2021-08-07T11:44:13.665Z</time>
      </trkpt>
      <trkpt lat="46.91576" lon="8.64227">
        <ele>861</ele>
        <time>2021-08-07T11:44:14.666Z</time>
      </trkpt>
      <trkpt lat="46.91577" lon="8.64227">
        <ele>861</ele>
        <time>2021-08-07T11:44:15.666Z</time>
      </trkpt>
      <trkpt lat="46.91577" lon="8.64227">
        <ele>861</ele>
        <time>2021-08-07T11:44:16.665Z</time>
      </trkpt>
      <trkpt lat="46.91577" lon="8.64228">
        <ele>861</ele>
        <time>2021-08-07T11:44:17.665Z</time>
      </trkpt>
      <trkpt lat="46.91578" lon="8.64228">
        <ele>861</ele>
        <time>2021-08-07T11:44:18.665Z</time>
      </trkpt>
      <trkpt lat="46.91578" lon="8.64228">
        <ele>861</ele>
        <time>2021-08-07T11:44:19.665Z</time>
      </trkpt>
      <trkpt lat="46.91578" lon="8.64227">
        <ele>861</ele>
        <time>2021-08-07T11:44:20.666Z</time>
      </trkpt>
      <trkpt lat="46.91578" lon="8.64227">
        <ele>860</ele>
        <time>2021-08-07T11:44:21.666Z</time>
      </trkpt>
      <trkpt lat="46.91576" lon="8.64227">
        <ele>860</ele>
        <time>2021-08-07T11:44:22.666Z</time>
      </trkpt>
      <trkpt lat="46.91576" lon="8.64227">
        <ele>860</ele>
        <time>2021-08-07T11:44:23.666Z</time>
      </trkpt>
      <trkpt lat="46.91575" lon="8.6423">
        <ele>862</ele>
        <time>2021-08-07T11:44:24.666Z</time>
      </trkpt>
      <trkpt lat="46.91574" lon="8.6423">
        <ele>862</ele>
        <time>2021-08-07T11:44:25.665Z</time>
      </trkpt>
      <trkpt lat="46.91574" lon="8.64231">
        <ele>862</ele>
        <time>2021-08-07T11:44:26.665Z</time>
      </trkpt>
      <trkpt lat="46.91574" lon="8.64232">
        <ele>861</ele>
        <time>2021-08-07T11:44:27.665Z</time>
      </trkpt>
      <trkpt lat="46.91574" lon="8.64232">
        <ele>861</ele>
        <time>2021-08-07T11:44:28.666Z</time>
      </trkpt>
      <trkpt lat="46.91574" lon="8.64233">
        <ele>861</ele>
        <time>2021-08-07T11:44:29.665Z</time>
      </trkpt>
      <trkpt lat="46.91575" lon="8.64235">
        <ele>860</ele>
        <time>2021-08-07T11:44:30.665Z</time>
      </trkpt>
      <trkpt lat="46.91579" lon="8.64237">
        <ele>857</ele>
        <time>2021-08-07T11:44:31.666Z</time>
      </trkpt>
      <trkpt lat="46.9158" lon="8.64236">
        <ele>857</ele>
        <time>2021-08-07T11:44:32.665Z</time>
      </trkpt>
      <trkpt lat="46.91582" lon="8.64236">
        <ele>856</ele>
        <time>2021-08-07T11:44:33.665Z</time>
      </trkpt>
      <trkpt lat="46.91582" lon="8.64236">
        <ele>856</ele>
        <time>2021-08-07T11:44:34.665Z</time>
      </trkpt>
      <trkpt lat="46.91583" lon="8.64236">
        <ele>855</ele>
        <time>2021-08-07T11:44:35.666Z</time>
      </trkpt>
      <trkpt lat="46.91583" lon="8.64237">
        <ele>855</ele>
        <time>2021-08-07T11:44:36.666Z</time>
      </trkpt>
      <trkpt lat="46.91584" lon="8.64238">
        <ele>855</ele>
        <time>2021-08-07T11:44:37.665Z</time>
      </trkpt>
      <trkpt lat="46.91584" lon="8.64238">
        <ele>854</ele>
        <time>2021-08-07T11:44:38.666Z</time>
      </trkpt>
      <trkpt lat="46.91584" lon="8.64239">
        <ele>854</ele>
        <time>2021-08-07T11:44:39.666Z</time>
      </trkpt>
      <trkpt lat="46.91584" lon="8.64239">
        <ele>853</ele>
        <time>2021-08-07T11:44:40.665Z</time>
      </trkpt>
      <trkpt lat="46.91587" lon="8.64238">
        <ele>852</ele>
        <time>2021-08-07T11:44:41.666Z</time>
      </trkpt>
      <trkpt lat="46.91588" lon="8.64239">
        <ele>852</ele>
        <time>2021-08-07T11:44:42.666Z</time>
      </trkpt>
      <trkpt lat="46.91592" lon="8.6424">
        <ele>854</ele>
        <time>2021-08-07T11:44:43.666Z</time>
      </trkpt>
      <trkpt lat="46.91593" lon="8.64239">
        <ele>854</ele>
        <time>2021-08-07T11:44:44.666Z</time>
      </trkpt>
      <trkpt lat="46.91593" lon="8.64238">
        <ele>854</ele>
        <time>2021-08-07T11:44:50.682Z</time>
      </trkpt>
      <trkpt lat="46.91592" lon="8.64238">
        <ele>854</ele>
        <time>2021-08-07T11:44:51.682Z</time>
      </trkpt>
      <trkpt lat="46.91592" lon="8.64238">
        <ele>854</ele>
        <time>2021-08-07T11:44:52.683Z</time>
      </trkpt>
      <trkpt lat="46.91592" lon="8.64238">
        <ele>854</ele>
        <time>2021-08-07T11:44:53.683Z</time>
      </trkpt>
      <trkpt lat="46.91592" lon="8.64238">
        <ele>854</ele>
        <time>2021-08-07T11:44:59.804Z</time>
      </trkpt>
      <trkpt lat="46.91591" lon="8.64237">
        <ele>853</ele>
        <time>2021-08-07T11:45:00.804Z</time>
      </trkpt>
      <trkpt lat="46.91592" lon="8.64237">
        <ele>853</ele>
        <time>2021-08-07T11:45:01.805Z</time>
      </trkpt>
      <trkpt lat="46.91593" lon="8.64237">
        <ele>852</ele>
        <time>2021-08-07T11:45:19.720Z</time>
      </trkpt>
      <trkpt lat="46.91593" lon="8.64236">
        <ele>852</ele>
        <time>2021-08-07T11:45:20.720Z</time>
      </trkpt>
      <trkpt lat="46.91594" lon="8.64235">
        <ele>851</ele>
        <time>2021-08-07T11:45:21.719Z</time>
      </trkpt>
      <trkpt lat="46.91595" lon="8.64235">
        <ele>851</ele>
        <time>2021-08-07T11:45:22.719Z</time>
      </trkpt>
      <trkpt lat="46.91595" lon="8.64234">
        <ele>851</ele>
        <time>2021-08-07T11:45:39.803Z</time>
      </trkpt>
      <trkpt lat="46.91596" lon="8.64235">
        <ele>850</ele>
        <time>2021-08-07T11:45:40.803Z</time>
      </trkpt>
      <trkpt lat="46.91597" lon="8.64235">
        <ele>850</ele>
        <time>2021-08-07T11:45:41.803Z</time>
      </trkpt>
      <trkpt lat="46.91597" lon="8.64234">
        <ele>849</ele>
        <time>2021-08-07T11:45:42.803Z</time>
      </trkpt>
      <trkpt lat="46.91597" lon="8.64232">
        <ele>849</ele>
        <time>2021-08-07T11:45:43.803Z</time>
      </trkpt>
      <trkpt lat="46.91596" lon="8.6423">
        <ele>849</ele>
        <time>2021-08-07T11:45:45.927Z</time>
      </trkpt>
      <trkpt lat="46.91596" lon="8.64229">
        <ele>848</ele>
        <time>2021-08-07T11:45:46.927Z</time>
      </trkpt>
      <trkpt lat="46.91596" lon="8.6423">
        <ele>848</ele>
        <time>2021-08-07T11:45:47.927Z</time>
      </trkpt>
      <trkpt lat="46.91596" lon="8.64228">
        <ele>847</ele>
        <time>2021-08-07T11:45:48.928Z</time>
      </trkpt>
      <trkpt lat="46.91595" lon="8.64227">
        <ele>847</ele>
        <time>2021-08-07T11:45:53.082Z</time>
      </trkpt>
      <trkpt lat="46.91595" lon="8.64226">
        <ele>847</ele>
        <time>2021-08-07T11:45:54.081Z</time>
      </trkpt>
      <trkpt lat="46.91595" lon="8.64225">
        <ele>847</ele>
        <time>2021-08-07T11:45:55.081Z</time>
      </trkpt>
      <trkpt lat="46.91595" lon="8.64224">
        <ele>847</ele>
        <time>2021-08-07T11:46:11.183Z</time>
      </trkpt>
      <trkpt lat="46.91594" lon="8.64222">
        <ele>847</ele>
        <time>2021-08-07T11:46:25.956Z</time>
      </trkpt>
      <trkpt lat="46.91594" lon="8.64221">
        <ele>847</ele>
        <time>2021-08-07T11:46:26.956Z</time>
      </trkpt>
      <trkpt lat="46.91594" lon="8.64219">
        <ele>846</ele>
        <time>2021-08-07T11:46:32.829Z</time>
      </trkpt>
      <trkpt lat="46.91594" lon="8.64218">
        <ele>847</ele>
        <time>2021-08-07T11:46:33.829Z</time>
      </trkpt>
      <trkpt lat="46.91594" lon="8.64216">
        <ele>847</ele>
        <time>2021-08-07T11:46:34.829Z</time>
      </trkpt>
      <trkpt lat="46.91595" lon="8.64214">
        <ele>848</ele>
        <time>2021-08-07T11:46:44.582Z</time>
      </trkpt>
      <trkpt lat="46.91595" lon="8.64213">
        <ele>848</ele>
        <time>2021-08-07T11:46:45.583Z</time>
      </trkpt>
      <trkpt lat="46.91595" lon="8.64211">
        <ele>849</ele>
        <time>2021-08-07T11:47:12.466Z</time>
      </trkpt>
      <trkpt lat="46.91595" lon="8.6421">
        <ele>849</ele>
        <time>2021-08-07T11:47:14.341Z</time>
      </trkpt>
      <trkpt lat="46.91594" lon="8.64209">
        <ele>849</ele>
        <time>2021-08-07T11:47:15.342Z</time>
      </trkpt>
      <trkpt lat="46.91594" lon="8.64207">
        <ele>850</ele>
        <time>2021-08-07T11:47:16.342Z</time>
      </trkpt>
      <trkpt lat="46.91594" lon="8.64206">
        <ele>850</ele>
        <time>2021-08-07T11:47:17.342Z</time>
      </trkpt>
      <trkpt lat="46.91594" lon="8.64204">
        <ele>851</ele>
        <time>2021-08-07T11:47:18.341Z</time>
      </trkpt>
      <trkpt lat="46.91594" lon="8.64203">
        <ele>851</ele>
        <time>2021-08-07T11:47:19.341Z</time>
      </trkpt>
      <trkpt lat="46.91593" lon="8.64202">
        <ele>851</ele>
        <time>2021-08-07T11:47:23.450Z</time>
      </trkpt>
      <trkpt lat="46.91594" lon="8.642">
        <ele>851</ele>
        <time>2021-08-07T11:47:24.450Z</time>
      </trkpt>
      <trkpt lat="46.91594" lon="8.64198">
        <ele>852</ele>
        <time>2021-08-07T11:47:25.450Z</time>
      </trkpt>
      <trkpt lat="46.91593" lon="8.64198">
        <ele>852</ele>
        <time>2021-08-07T11:47:33.589Z</time>
      </trkpt>
      <trkpt lat="46.91592" lon="8.64197">
        <ele>852</ele>
        <time>2021-08-07T11:47:34.588Z</time>
      </trkpt>
      <trkpt lat="46.91591" lon="8.64195">
        <ele>852</ele>
        <time>2021-08-07T11:47:57.302Z</time>
      </trkpt>
      <trkpt lat="46.91591" lon="8.64192">
        <ele>853</ele>
        <time>2021-08-07T11:47:58.303Z</time>
      </trkpt>
      <trkpt lat="46.91591" lon="8.6419">
        <ele>853</ele>
        <time>2021-08-07T11:48:19.074Z</time>
      </trkpt>
      <trkpt lat="46.91591" lon="8.6419">
        <ele>853</ele>
        <time>2021-08-07T11:48:20.075Z</time>
      </trkpt>
      <trkpt lat="46.91591" lon="8.64192">
        <ele>853</ele>
        <time>2021-08-07T11:48:21.074Z</time>
      </trkpt>
      <trkpt lat="46.91591" lon="8.64195">
        <ele>853</ele>
        <time>2021-08-07T11:48:22.075Z</time>
      </trkpt>
      <trkpt lat="46.91591" lon="8.64199">
        <ele>853</ele>
        <time>2021-08-07T11:48:23.075Z</time>
      </trkpt>
      <trkpt lat="46.9159" lon="8.64199">
        <ele>852</ele>
        <time>2021-08-07T11:48:24.074Z</time>
      </trkpt>
      <trkpt lat="46.9159" lon="8.642">
        <ele>852</ele>
        <time>2021-08-07T11:48:25.075Z</time>
      </trkpt>
      <trkpt lat="46.91589" lon="8.642">
        <ele>852</ele>
        <time>2021-08-07T11:48:26.074Z</time>
      </trkpt>
      <trkpt lat="46.91589" lon="8.642">
        <ele>852</ele>
        <time>2021-08-07T11:48:27.075Z</time>
      </trkpt>
      <trkpt lat="46.91589" lon="8.642">
        <ele>851</ele>
        <time>2021-08-07T11:48:28.075Z</time>
      </trkpt>
      <trkpt lat="46.91589" lon="8.64199">
        <ele>851</ele>
        <time>2021-08-07T11:48:29.075Z</time>
      </trkpt>
      <trkpt lat="46.91588" lon="8.64199">
        <ele>850</ele>
        <time>2021-08-07T11:48:30.075Z</time>
      </trkpt>
      <trkpt lat="46.91588" lon="8.64199">
        <ele>849</ele>
        <time>2021-08-07T11:48:31.075Z</time>
      </trkpt>
      <trkpt lat="46.91588" lon="8.64199">
        <ele>849</ele>
        <time>2021-08-07T11:48:33.174Z</time>
      </trkpt>
      <trkpt lat="46.91587" lon="8.64199">
        <ele>848</ele>
        <time>2021-08-07T11:48:34.174Z</time>
      </trkpt>
      <trkpt lat="46.91586" lon="8.64199">
        <ele>847</ele>
        <time>2021-08-07T11:48:35.175Z</time>
      </trkpt>
      <trkpt lat="46.91586" lon="8.64201">
        <ele>847</ele>
        <time>2021-08-07T11:48:36.175Z</time>
      </trkpt>
      <trkpt lat="46.91585" lon="8.64201">
        <ele>847</ele>
        <time>2021-08-07T11:48:37.176Z</time>
      </trkpt>
      <trkpt lat="46.91585" lon="8.64202">
        <ele>847</ele>
        <time>2021-08-07T11:48:38.175Z</time>
      </trkpt>
      <trkpt lat="46.91585" lon="8.64203">
        <ele>847</ele>
        <time>2021-08-07T11:48:39.175Z</time>
      </trkpt>
      <trkpt lat="46.91584" lon="8.64204">
        <ele>847</ele>
        <time>2021-08-07T11:48:40.176Z</time>
      </trkpt>
      <trkpt lat="46.91583" lon="8.64206">
        <ele>847</ele>
        <time>2021-08-07T11:48:41.176Z</time>
      </trkpt>
      <trkpt lat="46.91582" lon="8.64207">
        <ele>847</ele>
        <time>2021-08-07T11:48:42.175Z</time>
      </trkpt>
      <trkpt lat="46.91581" lon="8.64208">
        <ele>847</ele>
        <time>2021-08-07T11:48:43.175Z</time>
      </trkpt>
      <trkpt lat="46.91581" lon="8.64209">
        <ele>848</ele>
        <time>2021-08-07T11:48:44.176Z</time>
      </trkpt>
      <trkpt lat="46.9158" lon="8.64209">
        <ele>848</ele>
        <time>2021-08-07T11:48:45.175Z</time>
      </trkpt>
      <trkpt lat="46.9158" lon="8.64209">
        <ele>848</ele>
        <time>2021-08-07T11:48:46.176Z</time>
      </trkpt>
      <trkpt lat="46.9158" lon="8.6421">
        <ele>848</ele>
        <time>2021-08-07T11:48:47.176Z</time>
      </trkpt>
      <trkpt lat="46.9158" lon="8.64211">
        <ele>848</ele>
        <time>2021-08-07T11:48:48.175Z</time>
      </trkpt>
      <trkpt lat="46.9158" lon="8.64212">
        <ele>849</ele>
        <time>2021-08-07T11:48:49.175Z</time>
      </trkpt>
      <trkpt lat="46.9158" lon="8.64212">
        <ele>849</ele>
        <time>2021-08-07T11:48:50.176Z</time>
      </trkpt>
      <trkpt lat="46.9158" lon="8.64212">
        <ele>850</ele>
        <time>2021-08-07T11:48:51.175Z</time>
      </trkpt>
      <trkpt lat="46.9158" lon="8.64211">
        <ele>850</ele>
        <time>2021-08-07T11:48:52.175Z</time>
      </trkpt>
      <trkpt lat="46.91581" lon="8.64211">
        <ele>850</ele>
        <time>2021-08-07T11:48:53.176Z</time>
      </trkpt>
      <trkpt lat="46.91581" lon="8.64211">
        <ele>850</ele>
        <time>2021-08-07T11:48:54.176Z</time>
      </trkpt>
      <trkpt lat="46.91581" lon="8.64212">
        <ele>850</ele>
        <time>2021-08-07T11:48:55.176Z</time>
      </trkpt>
      <trkpt lat="46.91581" lon="8.64212">
        <ele>851</ele>
        <time>2021-08-07T11:48:56.175Z</time>
      </trkpt>
      <trkpt lat="46.91581" lon="8.64214">
        <ele>851</ele>
        <time>2021-08-07T11:48:57.175Z</time>
      </trkpt>
      <trkpt lat="46.91581" lon="8.64215">
        <ele>851</ele>
        <time>2021-08-07T11:48:58.175Z</time>
      </trkpt>
      <trkpt lat="46.9158" lon="8.64215">
        <ele>851</ele>
        <time>2021-08-07T11:48:59.176Z</time>
      </trkpt>
      <trkpt lat="46.9158" lon="8.64215">
        <ele>851</ele>
        <time>2021-08-07T11:49:00.175Z</time>
      </trkpt>
      <trkpt lat="46.9158" lon="8.64214">
        <ele>851</ele>
        <time>2021-08-07T11:49:01.175Z</time>
      </trkpt>
      <trkpt lat="46.91579" lon="8.64214">
        <ele>851</ele>
        <time>2021-08-07T11:49:02.176Z</time>
      </trkpt>
      <trkpt lat="46.91579" lon="8.64214">
        <ele>852</ele>
        <time>2021-08-07T11:49:03.176Z</time>
      </trkpt>
      <trkpt lat="46.91579" lon="8.64215">
        <ele>852</ele>
        <time>2021-08-07T11:49:04.176Z</time>
      </trkpt>
      <trkpt lat="46.91578" lon="8.64216">
        <ele>852</ele>
        <time>2021-08-07T11:49:05.175Z</time>
      </trkpt>
      <trkpt lat="46.91578" lon="8.64216">
        <ele>851</ele>
        <time>2021-08-07T11:49:06.175Z</time>
      </trkpt>
      <trkpt lat="46.91577" lon="8.64216">
        <ele>851</ele>
        <time>2021-08-07T11:49:07.175Z</time>
      </trkpt>
      <trkpt lat="46.91577" lon="8.64216">
        <ele>851</ele>
        <time>2021-08-07T11:49:08.176Z</time>
      </trkpt>
      <trkpt lat="46.91577" lon="8.64217">
        <ele>850</ele>
        <time>2021-08-07T11:49:09.175Z</time>
      </trkpt>
      <trkpt lat="46.91576" lon="8.64217">
        <ele>850</ele>
        <time>2021-08-07T11:49:10.176Z</time>
      </trkpt>
      <trkpt lat="46.91576" lon="8.64218">
        <ele>849</ele>
        <time>2021-08-07T11:49:11.175Z</time>
      </trkpt>
      <trkpt lat="46.91576" lon="8.64218">
        <ele>849</ele>
        <time>2021-08-07T11:49:12.176Z</time>
      </trkpt>
      <trkpt lat="46.91576" lon="8.64218">
        <ele>848</ele>
        <time>2021-08-07T11:49:13.176Z</time>
      </trkpt>
      <trkpt lat="46.91576" lon="8.64219">
        <ele>848</ele>
        <time>2021-08-07T11:49:14.176Z</time>
      </trkpt>
      <trkpt lat="46.91575" lon="8.6422">
        <ele>846</ele>
        <time>2021-08-07T11:49:15.176Z</time>
      </trkpt>
      <trkpt lat="46.91575" lon="8.64221">
        <ele>846</ele>
        <time>2021-08-07T11:49:16.176Z</time>
      </trkpt>
      <trkpt lat="46.91574" lon="8.64222">
        <ele>846</ele>
        <time>2021-08-07T11:49:17.175Z</time>
      </trkpt>
      <trkpt lat="46.91573" lon="8.64223">
        <ele>846</ele>
        <time>2021-08-07T11:49:18.175Z</time>
      </trkpt>
      <trkpt lat="46.91573" lon="8.64224">
        <ele>846</ele>
        <time>2021-08-07T11:49:19.176Z</time>
      </trkpt>
      <trkpt lat="46.91573" lon="8.64223">
        <ele>846</ele>
        <time>2021-08-07T11:49:20.176Z</time>
      </trkpt>
      <trkpt lat="46.91571" lon="8.64222">
        <ele>846</ele>
        <time>2021-08-07T11:49:21.176Z</time>
      </trkpt>
      <trkpt lat="46.9157" lon="8.64221">
        <ele>846</ele>
        <time>2021-08-07T11:49:22.176Z</time>
      </trkpt>
      <trkpt lat="46.91569" lon="8.64222">
        <ele>847</ele>
        <time>2021-08-07T11:49:23.176Z</time>
      </trkpt>
      <trkpt lat="46.91568" lon="8.64222">
        <ele>847</ele>
        <time>2021-08-07T11:49:24.175Z</time>
      </trkpt>
      <trkpt lat="46.91568" lon="8.64222">
        <ele>847</ele>
        <time>2021-08-07T11:49:25.175Z</time>
      </trkpt>
      <trkpt lat="46.91568" lon="8.64222">
        <ele>847</ele>
        <time>2021-08-07T11:49:26.176Z</time>
      </trkpt>
      <trkpt lat="46.91568" lon="8.64223">
        <ele>847</ele>
        <time>2021-08-07T11:49:27.175Z</time>
      </trkpt>
      <trkpt lat="46.91568" lon="8.64223">
        <ele>847</ele>
        <time>2021-08-07T11:49:28.176Z</time>
      </trkpt>
      <trkpt lat="46.91569" lon="8.64224">
        <ele>847</ele>
        <time>2021-08-07T11:49:29.176Z</time>
      </trkpt>
      <trkpt lat="46.9157" lon="8.64225">
        <ele>847</ele>
        <time>2021-08-07T11:49:30.176Z</time>
      </trkpt>
      <trkpt lat="46.9157" lon="8.64225">
        <ele>847</ele>
        <time>2021-08-07T11:49:31.176Z</time>
      </trkpt>
      <trkpt lat="46.91571" lon="8.64223">
        <ele>847</ele>
        <time>2021-08-07T11:49:32.176Z</time>
      </trkpt>
      <trkpt lat="46.91571" lon="8.64222">
        <ele>847</ele>
        <time>2021-08-07T11:49:33.175Z</time>
      </trkpt>
      <trkpt lat="46.91571" lon="8.64221">
        <ele>848</ele>
        <time>2021-08-07T11:49:34.175Z</time>
      </trkpt>
      <trkpt lat="46.91571" lon="8.64221">
        <ele>848</ele>
        <time>2021-08-07T11:49:35.176Z</time>
      </trkpt>
      <trkpt lat="46.9157" lon="8.64221">
        <ele>848</ele>
        <time>2021-08-07T11:49:36.175Z</time>
      </trkpt>
      <trkpt lat="46.9157" lon="8.64222">
        <ele>849</ele>
        <time>2021-08-07T11:49:37.176Z</time>
      </trkpt>
      <trkpt lat="46.91569" lon="8.64222">
        <ele>849</ele>
        <time>2021-08-07T11:49:38.176Z</time>
      </trkpt>
      <trkpt lat="46.91569" lon="8.64222">
        <ele>850</ele>
        <time>2021-08-07T11:49:39.176Z</time>
      </trkpt>
      <trkpt lat="46.91568" lon="8.64222">
        <ele>850</ele>
        <time>2021-08-07T11:49:40.175Z</time>
      </trkpt>
      <trkpt lat="46.91568" lon="8.64223">
        <ele>850</ele>
        <time>2021-08-07T11:49:41.176Z</time>
      </trkpt>
      <trkpt lat="46.91567" lon="8.64224">
        <ele>851</ele>
        <time>2021-08-07T11:49:42.176Z</time>
      </trkpt>
      <trkpt lat="46.91567" lon="8.64224">
        <ele>851</ele>
        <time>2021-08-07T11:49:43.175Z</time>
      </trkpt>
      <trkpt lat="46.91567" lon="8.64224">
        <ele>851</ele>
        <time>2021-08-07T11:49:44.175Z</time>
      </trkpt>
      <trkpt lat="46.91566" lon="8.64224">
        <ele>851</ele>
        <time>2021-08-07T11:49:45.176Z</time>
      </trkpt>
      <trkpt lat="46.91564" lon="8.64222">
        <ele>851</ele>
        <time>2021-08-07T11:49:46.176Z</time>
      </trkpt>
      <trkpt lat="46.91563" lon="8.64222">
        <ele>851</ele>
        <time>2021-08-07T11:49:47.176Z</time>
      </trkpt>
      <trkpt lat="46.9156" lon="8.64223">
        <ele>851</ele>
        <time>2021-08-07T11:49:48.175Z</time>
      </trkpt>
      <trkpt lat="46.91558" lon="8.64224">
        <ele>851</ele>
        <time>2021-08-07T11:49:49.176Z</time>
      </trkpt>
      <trkpt lat="46.91556" lon="8.64225">
        <ele>851</ele>
        <time>2021-08-07T11:49:50.176Z</time>
      </trkpt>
      <trkpt lat="46.91556" lon="8.64226">
        <ele>851</ele>
        <time>2021-08-07T11:49:51.176Z</time>
      </trkpt>
      <trkpt lat="46.91557" lon="8.64227">
        <ele>851</ele>
        <time>2021-08-07T11:49:52.175Z</time>
      </trkpt>
      <trkpt lat="46.91558" lon="8.64227">
        <ele>851</ele>
        <time>2021-08-07T11:49:53.176Z</time>
      </trkpt>
      <trkpt lat="46.91559" lon="8.64227">
        <ele>851</ele>
        <time>2021-08-07T11:49:54.176Z</time>
      </trkpt>
      <trkpt lat="46.91559" lon="8.64227">
        <ele>851</ele>
        <time>2021-08-07T11:49:55.176Z</time>
      </trkpt>
      <trkpt lat="46.91559" lon="8.64228">
        <ele>851</ele>
        <time>2021-08-07T11:49:56.175Z</time>
      </trkpt>
      <trkpt lat="46.9156" lon="8.64228">
        <ele>851</ele>
        <time>2021-08-07T11:49:57.176Z</time>
      </trkpt>
      <trkpt lat="46.91562" lon="8.64227">
        <ele>851</ele>
        <time>2021-08-07T11:49:58.175Z</time>
      </trkpt>
      <trkpt lat="46.91563" lon="8.64227">
        <ele>851</ele>
        <time>2021-08-07T11:49:59.175Z</time>
      </trkpt>
      <trkpt lat="46.91565" lon="8.64227">
        <ele>851</ele>
        <time>2021-08-07T11:50:00.176Z</time>
      </trkpt>
      <trkpt lat="46.91566" lon="8.64226">
        <ele>851</ele>
        <time>2021-08-07T11:50:01.175Z</time>
      </trkpt>
      <trkpt lat="46.91567" lon="8.64227">
        <ele>851</ele>
        <time>2021-08-07T11:50:02.175Z</time>
      </trkpt>
      <trkpt lat="46.91566" lon="8.64228">
        <ele>851</ele>
        <time>2021-08-07T11:50:03.176Z</time>
      </trkpt>
      <trkpt lat="46.91565" lon="8.64228">
        <ele>850</ele>
        <time>2021-08-07T11:50:04.175Z</time>
      </trkpt>
      <trkpt lat="46.91565" lon="8.64227">
        <ele>850</ele>
        <time>2021-08-07T11:50:05.176Z</time>
      </trkpt>
      <trkpt lat="46.91565" lon="8.64226">
        <ele>850</ele>
        <time>2021-08-07T11:50:06.176Z</time>
      </trkpt>
      <trkpt lat="46.91564" lon="8.64227">
        <ele>850</ele>
        <time>2021-08-07T11:50:07.176Z</time>
      </trkpt>
      <trkpt lat="46.91564" lon="8.64227">
        <ele>850</ele>
        <time>2021-08-07T11:50:08.175Z</time>
      </trkpt>
      <trkpt lat="46.91563" lon="8.64228">
        <ele>849</ele>
        <time>2021-08-07T11:50:09.175Z</time>
      </trkpt>
      <trkpt lat="46.91563" lon="8.6423">
        <ele>849</ele>
        <time>2021-08-07T11:50:10.176Z</time>
      </trkpt>
      <trkpt lat="46.91563" lon="8.6423">
        <ele>848</ele>
        <time>2021-08-07T11:50:11.176Z</time>
      </trkpt>
      <trkpt lat="46.91562" lon="8.6423">
        <ele>848</ele>
        <time>2021-08-07T11:50:15.324Z</time>
      </trkpt>
      <trkpt lat="46.91562" lon="8.6423">
        <ele>848</ele>
        <time>2021-08-07T11:50:16.323Z</time>
      </trkpt>
      <trkpt lat="46.91561" lon="8.6423">
        <ele>848</ele>
        <time>2021-08-07T11:50:17.324Z</time>
      </trkpt>
      <trkpt lat="46.91561" lon="8.6423">
        <ele>848</ele>
        <time>2021-08-07T11:50:18.324Z</time>
      </trkpt>
      <trkpt lat="46.9156" lon="8.6423">
        <ele>847</ele>
        <time>2021-08-07T11:50:19.323Z</time>
      </trkpt>
      <trkpt lat="46.9156" lon="8.64229">
        <ele>847</ele>
        <time>2021-08-07T11:50:46.307Z</time>
      </trkpt>
      <trkpt lat="46.91559" lon="8.64228">
        <ele>847</ele>
        <time>2021-08-07T11:50:54.198Z</time>
      </trkpt>
      <trkpt lat="46.91558" lon="8.64228">
        <ele>847</ele>
        <time>2021-08-07T11:50:55.198Z</time>
      </trkpt>
      <trkpt lat="46.91557" lon="8.64226">
        <ele>847</ele>
        <time>2021-08-07T11:50:56.198Z</time>
      </trkpt>
      <trkpt lat="46.91557" lon="8.64225">
        <ele>847</ele>
        <time>2021-08-07T11:50:57.198Z</time>
      </trkpt>
      <trkpt lat="46.91557" lon="8.64225">
        <ele>847</ele>
        <time>2021-08-07T11:50:58.197Z</time>
      </trkpt>
      <trkpt lat="46.91557" lon="8.64224">
        <ele>847</ele>
        <time>2021-08-07T11:50:59.197Z</time>
      </trkpt>
      <trkpt lat="46.91557" lon="8.64224">
        <ele>847</ele>
        <time>2021-08-07T11:51:00.198Z</time>
      </trkpt>
      <trkpt lat="46.91557" lon="8.64224">
        <ele>847</ele>
        <time>2021-08-07T11:51:01.197Z</time>
      </trkpt>
      <trkpt lat="46.91557" lon="8.64225">
        <ele>847</ele>
        <time>2021-08-07T11:51:02.197Z</time>
      </trkpt>
      <trkpt lat="46.91557" lon="8.64226">
        <ele>846</ele>
        <time>2021-08-07T11:51:03.198Z</time>
      </trkpt>
      <trkpt lat="46.91557" lon="8.64226">
        <ele>846</ele>
        <time>2021-08-07T11:51:04.198Z</time>
      </trkpt>
      <trkpt lat="46.91557" lon="8.64226">
        <ele>845</ele>
        <time>2021-08-07T11:51:05.197Z</time>
      </trkpt>
      <trkpt lat="46.91556" lon="8.64226">
        <ele>845</ele>
        <time>2021-08-07T11:51:06.197Z</time>
      </trkpt>
      <trkpt lat="46.91556" lon="8.64225">
        <ele>844</ele>
        <time>2021-08-07T11:51:07.198Z</time>
      </trkpt>
      <trkpt lat="46.91556" lon="8.64224">
        <ele>844</ele>
        <time>2021-08-07T11:51:08.198Z</time>
      </trkpt>
      <trkpt lat="46.91556" lon="8.64223">
        <ele>844</ele>
        <time>2021-08-07T11:51:09.197Z</time>
      </trkpt>
      <trkpt lat="46.91557" lon="8.64222">
        <ele>843</ele>
        <time>2021-08-07T11:51:10.197Z</time>
      </trkpt>
      <trkpt lat="46.91557" lon="8.64222">
        <ele>843</ele>
        <time>2021-08-07T11:51:11.198Z</time>
      </trkpt>
      <trkpt lat="46.91557" lon="8.64223">
        <ele>843</ele>
        <time>2021-08-07T11:51:12.197Z</time>
      </trkpt>
      <trkpt lat="46.91559" lon="8.64223">
        <ele>843</ele>
        <time>2021-08-07T11:51:13.197Z</time>
      </trkpt>
      <trkpt lat="46.9156" lon="8.64222">
        <ele>842</ele>
        <time>2021-08-07T11:51:14.198Z</time>
      </trkpt>
      <trkpt lat="46.91561" lon="8.6422">
        <ele>842</ele>
        <time>2021-08-07T11:51:15.198Z</time>
      </trkpt>
      <trkpt lat="46.91562" lon="8.64219">
        <ele>842</ele>
        <time>2021-08-07T11:51:16.198Z</time>
      </trkpt>
      <trkpt lat="46.91563" lon="8.64218">
        <ele>842</ele>
        <time>2021-08-07T11:51:17.197Z</time>
      </trkpt>
      <trkpt lat="46.91563" lon="8.64217">
        <ele>842</ele>
        <time>2021-08-07T11:51:18.197Z</time>
      </trkpt>
      <trkpt lat="46.91563" lon="8.64217">
        <ele>842</ele>
        <time>2021-08-07T11:51:19.197Z</time>
      </trkpt>
      <trkpt lat="46.91564" lon="8.64217">
        <ele>842</ele>
        <time>2021-08-07T11:51:20.198Z</time>
      </trkpt>
      <trkpt lat="46.91564" lon="8.64217">
        <ele>843</ele>
        <time>2021-08-07T11:51:21.197Z</time>
      </trkpt>
      <trkpt lat="46.91564" lon="8.64218">
        <ele>843</ele>
        <time>2021-08-07T11:51:22.198Z</time>
      </trkpt>
      <trkpt lat="46.91564" lon="8.64218">
        <ele>842</ele>
        <time>2021-08-07T11:51:23.197Z</time>
      </trkpt>
      <trkpt lat="46.91563" lon="8.64217">
        <ele>842</ele>
        <time>2021-08-07T11:51:24.198Z</time>
      </trkpt>
      <trkpt lat="46.91561" lon="8.64217">
        <ele>842</ele>
        <time>2021-08-07T11:51:25.197Z</time>
      </trkpt>
      <trkpt lat="46.9156" lon="8.64216">
        <ele>842</ele>
        <time>2021-08-07T11:51:26.197Z</time>
      </trkpt>
      <trkpt lat="46.9156" lon="8.64214">
        <ele>842</ele>
        <time>2021-08-07T11:51:27.197Z</time>
      </trkpt>
      <trkpt lat="46.9156" lon="8.64213">
        <ele>842</ele>
        <time>2021-08-07T11:51:28.198Z</time>
      </trkpt>
      <trkpt lat="46.9156" lon="8.64211">
        <ele>842</ele>
        <time>2021-08-07T11:51:29.198Z</time>
      </trkpt>
      <trkpt lat="46.9156" lon="8.64209">
        <ele>842</ele>
        <time>2021-08-07T11:51:30.198Z</time>
      </trkpt>
      <trkpt lat="46.91561" lon="8.64208">
        <ele>842</ele>
        <time>2021-08-07T11:51:31.197Z</time>
      </trkpt>
      <trkpt lat="46.91561" lon="8.64207">
        <ele>842</ele>
        <time>2021-08-07T11:51:32.198Z</time>
      </trkpt>
      <trkpt lat="46.91561" lon="8.64207">
        <ele>842</ele>
        <time>2021-08-07T11:51:33.197Z</time>
      </trkpt>
      <trkpt lat="46.9156" lon="8.64205">
        <ele>842</ele>
        <time>2021-08-07T11:51:34.198Z</time>
      </trkpt>
      <trkpt lat="46.91559" lon="8.64206">
        <ele>842</ele>
        <time>2021-08-07T11:51:35.198Z</time>
      </trkpt>
      <trkpt lat="46.91559" lon="8.64206">
        <ele>842</ele>
        <time>2021-08-07T11:51:36.198Z</time>
      </trkpt>
      <trkpt lat="46.91559" lon="8.64207">
        <ele>842</ele>
        <time>2021-08-07T11:51:37.197Z</time>
      </trkpt>
      <trkpt lat="46.9156" lon="8.64208">
        <ele>842</ele>
        <time>2021-08-07T11:51:38.198Z</time>
      </trkpt>
      <trkpt lat="46.91559" lon="8.64208">
        <ele>842</ele>
        <time>2021-08-07T11:51:39.198Z</time>
      </trkpt>
      <trkpt lat="46.91559" lon="8.64209">
        <ele>843</ele>
        <time>2021-08-07T11:51:40.198Z</time>
      </trkpt>
      <trkpt lat="46.91557" lon="8.64209">
        <ele>843</ele>
        <time>2021-08-07T11:51:41.197Z</time>
      </trkpt>
      <trkpt lat="46.91557" lon="8.64206">
        <ele>842</ele>
        <time>2021-08-07T11:51:42.197Z</time>
      </trkpt>
      <trkpt lat="46.91558" lon="8.64204">
        <ele>842</ele>
        <time>2021-08-07T11:51:43.197Z</time>
      </trkpt>
      <trkpt lat="46.91558" lon="8.64202">
        <ele>842</ele>
        <time>2021-08-07T11:51:44.198Z</time>
      </trkpt>
      <trkpt lat="46.91559" lon="8.64199">
        <ele>841</ele>
        <time>2021-08-07T11:51:45.198Z</time>
      </trkpt>
      <trkpt lat="46.91559" lon="8.64197">
        <ele>841</ele>
        <time>2021-08-07T11:51:46.198Z</time>
      </trkpt>
      <trkpt lat="46.9156" lon="8.64195">
        <ele>840</ele>
        <time>2021-08-07T11:51:47.198Z</time>
      </trkpt>
      <trkpt lat="46.91561" lon="8.64195">
        <ele>840</ele>
        <time>2021-08-07T11:51:48.198Z</time>
      </trkpt>
      <trkpt lat="46.9156" lon="8.64193">
        <ele>839</ele>
        <time>2021-08-07T11:51:49.198Z</time>
      </trkpt>
      <trkpt lat="46.9156" lon="8.64192">
        <ele>839</ele>
        <time>2021-08-07T11:51:50.197Z</time>
      </trkpt>
      <trkpt lat="46.9156" lon="8.64189">
        <ele>838</ele>
        <time>2021-08-07T11:51:51.198Z</time>
      </trkpt>
      <trkpt lat="46.9156" lon="8.64188">
        <ele>837</ele>
        <time>2021-08-07T11:51:52.198Z</time>
      </trkpt>
      <trkpt lat="46.9156" lon="8.64186">
        <ele>836</ele>
        <time>2021-08-07T11:51:53.198Z</time>
      </trkpt>
      <trkpt lat="46.9156" lon="8.64184">
        <ele>835</ele>
        <time>2021-08-07T11:51:54.198Z</time>
      </trkpt>
      <trkpt lat="46.91561" lon="8.64182">
        <ele>835</ele>
        <time>2021-08-07T11:51:55.198Z</time>
      </trkpt>
      <trkpt lat="46.91561" lon="8.64181">
        <ele>834</ele>
        <time>2021-08-07T11:51:56.197Z</time>
      </trkpt>
      <trkpt lat="46.91561" lon="8.64179">
        <ele>834</ele>
        <time>2021-08-07T11:51:57.198Z</time>
      </trkpt>
      <trkpt lat="46.91561" lon="8.64177">
        <ele>834</ele>
        <time>2021-08-07T11:51:58.197Z</time>
      </trkpt>
      <trkpt lat="46.91561" lon="8.64176">
        <ele>833</ele>
        <time>2021-08-07T11:51:59.198Z</time>
      </trkpt>
      <trkpt lat="46.91561" lon="8.64176">
        <ele>833</ele>
        <time>2021-08-07T11:52:00.197Z</time>
      </trkpt>
      <trkpt lat="46.91561" lon="8.64175">
        <ele>833</ele>
        <time>2021-08-07T11:52:01.198Z</time>
      </trkpt>
      <trkpt lat="46.91561" lon="8.64173">
        <ele>832</ele>
        <time>2021-08-07T11:52:05.306Z</time>
      </trkpt>
      <trkpt lat="46.91561" lon="8.64173">
        <ele>832</ele>
        <time>2021-08-07T11:52:06.306Z</time>
      </trkpt>
      <trkpt lat="46.91561" lon="8.64171">
        <ele>832</ele>
        <time>2021-08-07T11:52:07.306Z</time>
      </trkpt>
      <trkpt lat="46.9156" lon="8.6417">
        <ele>832</ele>
        <time>2021-08-07T11:52:08.306Z</time>
      </trkpt>
      <trkpt lat="46.9156" lon="8.64169">
        <ele>831</ele>
        <time>2021-08-07T11:52:09.306Z</time>
      </trkpt>
      <trkpt lat="46.9156" lon="8.64168">
        <ele>831</ele>
        <time>2021-08-07T11:52:10.306Z</time>
      </trkpt>
      <trkpt lat="46.9156" lon="8.64167">
        <ele>831</ele>
        <time>2021-08-07T11:52:11.306Z</time>
      </trkpt>
      <trkpt lat="46.9156" lon="8.64167">
        <ele>831</ele>
        <time>2021-08-07T11:52:12.306Z</time>
      </trkpt>
      <trkpt lat="46.91559" lon="8.64166">
        <ele>831</ele>
        <time>2021-08-07T11:52:13.306Z</time>
      </trkpt>
      <trkpt lat="46.91559" lon="8.64165">
        <ele>830</ele>
        <time>2021-08-07T11:52:14.306Z</time>
      </trkpt>
      <trkpt lat="46.91559" lon="8.64163">
        <ele>830</ele>
        <time>2021-08-07T11:52:15.306Z</time>
      </trkpt>
      <trkpt lat="46.91559" lon="8.64159">
        <ele>830</ele>
        <time>2021-08-07T11:52:16.306Z</time>
      </trkpt>
      <trkpt lat="46.91559" lon="8.6416">
        <ele>830</ele>
        <time>2021-08-07T11:52:17.307Z</time>
      </trkpt>
      <trkpt lat="46.91558" lon="8.6416">
        <ele>830</ele>
        <time>2021-08-07T11:52:18.307Z</time>
      </trkpt>
      <trkpt lat="46.91558" lon="8.6416">
        <ele>830</ele>
        <time>2021-08-07T11:52:19.306Z</time>
      </trkpt>
      <trkpt lat="46.91559" lon="8.6416">
        <ele>830</ele>
        <time>2021-08-07T11:52:20.307Z</time>
      </trkpt>
      <trkpt lat="46.91559" lon="8.64159">
        <ele>830</ele>
        <time>2021-08-07T11:52:21.307Z</time>
      </trkpt>
      <trkpt lat="46.91559" lon="8.64159">
        <ele>830</ele>
        <time>2021-08-07T11:52:22.307Z</time>
      </trkpt>
      <trkpt lat="46.9156" lon="8.64157">
        <ele>830</ele>
        <time>2021-08-07T11:52:23.307Z</time>
      </trkpt>
      <trkpt lat="46.9156" lon="8.64156">
        <ele>830</ele>
        <time>2021-08-07T11:52:24.307Z</time>
      </trkpt>
      <trkpt lat="46.91561" lon="8.64155">
        <ele>830</ele>
        <time>2021-08-07T11:52:25.306Z</time>
      </trkpt>
      <trkpt lat="46.91561" lon="8.64154">
        <ele>830</ele>
        <time>2021-08-07T11:52:26.306Z</time>
      </trkpt>
      <trkpt lat="46.9156" lon="8.64153">
        <ele>830</ele>
        <time>2021-08-07T11:52:27.307Z</time>
      </trkpt>
      <trkpt lat="46.9156" lon="8.64152">
        <ele>830</ele>
        <time>2021-08-07T11:52:28.307Z</time>
      </trkpt>
      <trkpt lat="46.9156" lon="8.64151">
        <ele>830</ele>
        <time>2021-08-07T11:52:29.306Z</time>
      </trkpt>
      <trkpt lat="46.9156" lon="8.64151">
        <ele>830</ele>
        <time>2021-08-07T11:52:30.306Z</time>
      </trkpt>
      <trkpt lat="46.91559" lon="8.64151">
        <ele>830</ele>
        <time>2021-08-07T11:52:31.307Z</time>
      </trkpt>
      <trkpt lat="46.91559" lon="8.6415">
        <ele>830</ele>
        <time>2021-08-07T11:52:32.307Z</time>
      </trkpt>
      <trkpt lat="46.91559" lon="8.6415">
        <ele>830</ele>
        <time>2021-08-07T11:52:33.306Z</time>
      </trkpt>
      <trkpt lat="46.91558" lon="8.64149">
        <ele>829</ele>
        <time>2021-08-07T11:52:34.309Z</time>
      </trkpt>
      <trkpt lat="46.91558" lon="8.64149">
        <ele>829</ele>
        <time>2021-08-07T11:52:35.308Z</time>
      </trkpt>
      <trkpt lat="46.91557" lon="8.64148">
        <ele>829</ele>
        <time>2021-08-07T11:52:36.308Z</time>
      </trkpt>
      <trkpt lat="46.91558" lon="8.64148">
        <ele>829</ele>
        <time>2021-08-07T11:52:37.309Z</time>
      </trkpt>
      <trkpt lat="46.91557" lon="8.64148">
        <ele>829</ele>
        <time>2021-08-07T11:52:38.309Z</time>
      </trkpt>
      <trkpt lat="46.91556" lon="8.64148">
        <ele>829</ele>
        <time>2021-08-07T11:52:39.308Z</time>
      </trkpt>
      <trkpt lat="46.91555" lon="8.64149">
        <ele>829</ele>
        <time>2021-08-07T11:52:40.309Z</time>
      </trkpt>
      <trkpt lat="46.91555" lon="8.64149">
        <ele>829</ele>
        <time>2021-08-07T11:52:41.308Z</time>
      </trkpt>
      <trkpt lat="46.91555" lon="8.6415">
        <ele>829</ele>
        <time>2021-08-07T11:52:42.309Z</time>
      </trkpt>
      <trkpt lat="46.91554" lon="8.64149">
        <ele>829</ele>
        <time>2021-08-07T11:52:43.309Z</time>
      </trkpt>
      <trkpt lat="46.91554" lon="8.6415">
        <ele>829</ele>
        <time>2021-08-07T11:52:44.308Z</time>
      </trkpt>
      <trkpt lat="46.91553" lon="8.6415">
        <ele>829</ele>
        <time>2021-08-07T11:52:45.308Z</time>
      </trkpt>
      <trkpt lat="46.91552" lon="8.64151">
        <ele>829</ele>
        <time>2021-08-07T11:52:46.308Z</time>
      </trkpt>
      <trkpt lat="46.91551" lon="8.64151">
        <ele>829</ele>
        <time>2021-08-07T11:52:47.308Z</time>
      </trkpt>
      <trkpt lat="46.91549" lon="8.64151">
        <ele>828</ele>
        <time>2021-08-07T11:52:48.309Z</time>
      </trkpt>
      <trkpt lat="46.91549" lon="8.6415">
        <ele>828</ele>
        <time>2021-08-07T11:52:49.309Z</time>
      </trkpt>
      <trkpt lat="46.91552" lon="8.64148">
        <ele>828</ele>
        <time>2021-08-07T11:52:50.308Z</time>
      </trkpt>
      <trkpt lat="46.91554" lon="8.64146">
        <ele>828</ele>
        <time>2021-08-07T11:52:51.309Z</time>
      </trkpt>
      <trkpt lat="46.91557" lon="8.64143">
        <ele>828</ele>
        <time>2021-08-07T11:52:52.308Z</time>
      </trkpt>
      <trkpt lat="46.91559" lon="8.64141">
        <ele>828</ele>
        <time>2021-08-07T11:52:53.309Z</time>
      </trkpt>
      <trkpt lat="46.91559" lon="8.64141">
        <ele>828</ele>
        <time>2021-08-07T11:52:54.309Z</time>
      </trkpt>
      <trkpt lat="46.91559" lon="8.6414">
        <ele>828</ele>
        <time>2021-08-07T11:52:55.309Z</time>
      </trkpt>
      <trkpt lat="46.91559" lon="8.6414">
        <ele>828</ele>
        <time>2021-08-07T11:52:56.309Z</time>
      </trkpt>
      <trkpt lat="46.91559" lon="8.64139">
        <ele>828</ele>
        <time>2021-08-07T11:52:57.309Z</time>
      </trkpt>
      <trkpt lat="46.91559" lon="8.64139">
        <ele>828</ele>
        <time>2021-08-07T11:52:58.308Z</time>
      </trkpt>
      <trkpt lat="46.91559" lon="8.64139">
        <ele>828</ele>
        <time>2021-08-07T11:52:59.308Z</time>
      </trkpt>
      <trkpt lat="46.9156" lon="8.64139">
        <ele>828</ele>
        <time>2021-08-07T11:53:00.309Z</time>
      </trkpt>
      <trkpt lat="46.91561" lon="8.64138">
        <ele>828</ele>
        <time>2021-08-07T11:53:01.309Z</time>
      </trkpt>
      <trkpt lat="46.91562" lon="8.64136">
        <ele>828</ele>
        <time>2021-08-07T11:53:02.309Z</time>
      </trkpt>
      <trkpt lat="46.91562" lon="8.64135">
        <ele>828</ele>
        <time>2021-08-07T11:53:03.309Z</time>
      </trkpt>
      <trkpt lat="46.91563" lon="8.64134">
        <ele>827</ele>
        <time>2021-08-07T11:53:04.309Z</time>
      </trkpt>
      <trkpt lat="46.91564" lon="8.6413">
        <ele>827</ele>
        <time>2021-08-07T11:53:05.309Z</time>
      </trkpt>
      <trkpt lat="46.91566" lon="8.64126">
        <ele>827</ele>
        <time>2021-08-07T11:53:06.309Z</time>
      </trkpt>
      <trkpt lat="46.91568" lon="8.64121">
        <ele>827</ele>
        <time>2021-08-07T11:53:07.308Z</time>
      </trkpt>
      <trkpt lat="46.91571" lon="8.64115">
        <ele>827</ele>
        <time>2021-08-07T11:53:08.309Z</time>
      </trkpt>
      <trkpt lat="46.91572" lon="8.64109">
        <ele>827</ele>
        <time>2021-08-07T11:53:09.309Z</time>
      </trkpt>
      <trkpt lat="46.91573" lon="8.64107">
        <ele>827</ele>
        <time>2021-08-07T11:53:10.309Z</time>
      </trkpt>
      <trkpt lat="46.91574" lon="8.64102">
        <ele>827</ele>
        <time>2021-08-07T11:53:11.308Z</time>
      </trkpt>
      <trkpt lat="46.91575" lon="8.64097">
        <ele>827</ele>
        <time>2021-08-07T11:53:12.308Z</time>
      </trkpt>
      <trkpt lat="46.91572" lon="8.64094">
        <ele>827</ele>
        <time>2021-08-07T11:53:13.308Z</time>
      </trkpt>
      <trkpt lat="46.91573" lon="8.64091">
        <ele>827</ele>
        <time>2021-08-07T11:53:14.308Z</time>
      </trkpt>
      <trkpt lat="46.91572" lon="8.64087">
        <ele>827</ele>
        <time>2021-08-07T11:53:15.308Z</time>
      </trkpt>
      <trkpt lat="46.91569" lon="8.64086">
        <ele>827</ele>
        <time>2021-08-07T11:53:16.309Z</time>
      </trkpt>
      <trkpt lat="46.91568" lon="8.64085">
        <ele>827</ele>
        <time>2021-08-07T11:53:17.309Z</time>
      </trkpt>
      <trkpt lat="46.91567" lon="8.64086">
        <ele>827</ele>
        <time>2021-08-07T11:53:18.309Z</time>
      </trkpt>
      <trkpt lat="46.91566" lon="8.64085">
        <ele>827</ele>
        <time>2021-08-07T11:53:19.309Z</time>
      </trkpt>
      <trkpt lat="46.91565" lon="8.64085">
        <ele>827</ele>
        <time>2021-08-07T11:53:20.308Z</time>
      </trkpt>
      <trkpt lat="46.91564" lon="8.64084">
        <ele>828</ele>
        <time>2021-08-07T11:53:21.308Z</time>
      </trkpt>
      <trkpt lat="46.91564" lon="8.64084">
        <ele>828</ele>
        <time>2021-08-07T11:53:22.309Z</time>
      </trkpt>
      <trkpt lat="46.91564" lon="8.64082">
        <ele>828</ele>
        <time>2021-08-07T11:53:23.308Z</time>
      </trkpt>
      <trkpt lat="46.91564" lon="8.64081">
        <ele>828</ele>
        <time>2021-08-07T11:53:24.309Z</time>
      </trkpt>
      <trkpt lat="46.91564" lon="8.6408">
        <ele>828</ele>
        <time>2021-08-07T11:53:25.309Z</time>
      </trkpt>
      <trkpt lat="46.91564" lon="8.6408">
        <ele>829</ele>
        <time>2021-08-07T11:53:26.309Z</time>
      </trkpt>
      <trkpt lat="46.91564" lon="8.64079">
        <ele>829</ele>
        <time>2021-08-07T11:53:27.309Z</time>
      </trkpt>
      <trkpt lat="46.91564" lon="8.64078">
        <ele>829</ele>
        <time>2021-08-07T11:53:28.308Z</time>
      </trkpt>
      <trkpt lat="46.91565" lon="8.64076">
        <ele>830</ele>
        <time>2021-08-07T11:53:29.309Z</time>
      </trkpt>
      <trkpt lat="46.91566" lon="8.64075">
        <ele>830</ele>
        <time>2021-08-07T11:53:30.308Z</time>
      </trkpt>
      <trkpt lat="46.91567" lon="8.64075">
        <ele>830</ele>
        <time>2021-08-07T11:53:31.308Z</time>
      </trkpt>
      <trkpt lat="46.91567" lon="8.64078">
        <ele>831</ele>
        <time>2021-08-07T11:53:32.309Z</time>
      </trkpt>
      <trkpt lat="46.91567" lon="8.64083">
        <ele>831</ele>
        <time>2021-08-07T11:53:34.363Z</time>
      </trkpt>
      <trkpt lat="46.91565" lon="8.6409">
        <ele>831</ele>
        <time>2021-08-07T11:53:36.197Z</time>
      </trkpt>
      <trkpt lat="46.91563" lon="8.64097">
        <ele>832</ele>
        <time>2021-08-07T11:53:37.198Z</time>
      </trkpt>
      <trkpt lat="46.9156" lon="8.64104">
        <ele>832</ele>
        <time>2021-08-07T11:53:38.197Z</time>
      </trkpt>
      <trkpt lat="46.91558" lon="8.64107">
        <ele>833</ele>
        <time>2021-08-07T11:53:47.343Z</time>
      </trkpt>
      <trkpt lat="46.91558" lon="8.64108">
        <ele>833</ele>
        <time>2021-08-07T11:53:48.344Z</time>
      </trkpt>
      <trkpt lat="46.91554" lon="8.64108">
        <ele>833</ele>
        <time>2021-08-07T11:53:49.344Z</time>
      </trkpt>
      <trkpt lat="46.91552" lon="8.64107">
        <ele>834</ele>
        <time>2021-08-07T11:53:54.481Z</time>
      </trkpt>
      <trkpt lat="46.91549" lon="8.64107">
        <ele>834</ele>
        <time>2021-08-07T11:53:55.482Z</time>
      </trkpt>
      <trkpt lat="46.91548" lon="8.64108">
        <ele>834</ele>
        <time>2021-08-07T11:53:56.482Z</time>
      </trkpt>
      <trkpt lat="46.91547" lon="8.64109">
        <ele>834</ele>
        <time>2021-08-07T11:53:57.481Z</time>
      </trkpt>
      <trkpt lat="46.91548" lon="8.64109">
        <ele>835</ele>
        <time>2021-08-07T11:53:58.481Z</time>
      </trkpt>
      <trkpt lat="46.9155" lon="8.64108">
        <ele>835</ele>
        <time>2021-08-07T11:53:59.482Z</time>
      </trkpt>
      <trkpt lat="46.9155" lon="8.64108">
        <ele>835</ele>
        <time>2021-08-07T11:54:00.481Z</time>
      </trkpt>
      <trkpt lat="46.91549" lon="8.6411">
        <ele>835</ele>
        <time>2021-08-07T11:54:01.481Z</time>
      </trkpt>
      <trkpt lat="46.91549" lon="8.64111">
        <ele>836</ele>
        <time>2021-08-07T11:54:02.481Z</time>
      </trkpt>
      <trkpt lat="46.91546" lon="8.64111">
        <ele>836</ele>
        <time>2021-08-07T11:54:03.481Z</time>
      </trkpt>
      <trkpt lat="46.91545" lon="8.6411">
        <ele>836</ele>
        <time>2021-08-07T11:54:04.482Z</time>
      </trkpt>
      <trkpt lat="46.91543" lon="8.64109">
        <ele>836</ele>
        <time>2021-08-07T11:54:05.482Z</time>
      </trkpt>
      <trkpt lat="46.91541" lon="8.64108">
        <ele>836</ele>
        <time>2021-08-07T11:54:06.482Z</time>
      </trkpt>
      <trkpt lat="46.91541" lon="8.64105">
        <ele>836</ele>
        <time>2021-08-07T11:54:07.481Z</time>
      </trkpt>
      <trkpt lat="46.91542" lon="8.64103">
        <ele>836</ele>
        <time>2021-08-07T11:54:08.481Z</time>
      </trkpt>
      <trkpt lat="46.91543" lon="8.64102">
        <ele>836</ele>
        <time>2021-08-07T11:54:09.482Z</time>
      </trkpt>
      <trkpt lat="46.9154" lon="8.64106">
        <ele>837</ele>
        <time>2021-08-07T11:54:10.482Z</time>
      </trkpt>
      <trkpt lat="46.91539" lon="8.6411">
        <ele>837</ele>
        <time>2021-08-07T11:54:11.481Z</time>
      </trkpt>
      <trkpt lat="46.91539" lon="8.64112">
        <ele>837</ele>
        <time>2021-08-07T11:54:12.481Z</time>
      </trkpt>
      <trkpt lat="46.91539" lon="8.64111">
        <ele>837</ele>
        <time>2021-08-07T11:54:13.482Z</time>
      </trkpt>
      <trkpt lat="46.91539" lon="8.64111">
        <ele>837</ele>
        <time>2021-08-07T11:54:14.482Z</time>
      </trkpt>
      <trkpt lat="46.91539" lon="8.64112">
        <ele>837</ele>
        <time>2021-08-07T11:54:15.481Z</time>
      </trkpt>
      <trkpt lat="46.91541" lon="8.64111">
        <ele>838</ele>
        <time>2021-08-07T11:54:16.482Z</time>
      </trkpt>
      <trkpt lat="46.91544" lon="8.6411">
        <ele>838</ele>
        <time>2021-08-07T11:54:17.481Z</time>
      </trkpt>
      <trkpt lat="46.91545" lon="8.64108">
        <ele>838</ele>
        <time>2021-08-07T11:54:18.482Z</time>
      </trkpt>
      <trkpt lat="46.91546" lon="8.64107">
        <ele>838</ele>
        <time>2021-08-07T11:54:19.482Z</time>
      </trkpt>
      <trkpt lat="46.91547" lon="8.64106">
        <ele>838</ele>
        <time>2021-08-07T11:54:20.481Z</time>
      </trkpt>
      <trkpt lat="46.91548" lon="8.64104">
        <ele>838</ele>
        <time>2021-08-07T11:54:21.482Z</time>
      </trkpt>
      <trkpt lat="46.9155" lon="8.64102">
        <ele>838</ele>
        <time>2021-08-07T11:54:22.482Z</time>
      </trkpt>
      <trkpt lat="46.91551" lon="8.64101">
        <ele>838</ele>
        <time>2021-08-07T11:54:23.481Z</time>
      </trkpt>
      <trkpt lat="46.91553" lon="8.64099">
        <ele>838</ele>
        <time>2021-08-07T11:54:25.553Z</time>
      </trkpt>
      <trkpt lat="46.91556" lon="8.64098">
        <ele>838</ele>
        <time>2021-08-07T11:54:27.447Z</time>
      </trkpt>
      <trkpt lat="46.91557" lon="8.64098">
        <ele>838</ele>
        <time>2021-08-07T11:54:28.447Z</time>
      </trkpt>
      <trkpt lat="46.91558" lon="8.64096">
        <ele>838</ele>
        <time>2021-08-07T11:54:29.447Z</time>
      </trkpt>
      <trkpt lat="46.91561" lon="8.64094">
        <ele>838</ele>
        <time>2021-08-07T11:54:30.447Z</time>
      </trkpt>
      <trkpt lat="46.9156" lon="8.64091">
        <ele>838</ele>
        <time>2021-08-07T11:54:31.448Z</time>
      </trkpt>
      <trkpt lat="46.9156" lon="8.64091">
        <ele>838</ele>
        <time>2021-08-07T11:54:32.448Z</time>
      </trkpt>
      <trkpt lat="46.91563" lon="8.6409">
        <ele>837</ele>
        <time>2021-08-07T11:54:35.560Z</time>
      </trkpt>
      <trkpt lat="46.91563" lon="8.64088">
        <ele>837</ele>
        <time>2021-08-07T11:54:36.560Z</time>
      </trkpt>
      <trkpt lat="46.91564" lon="8.64085">
        <ele>837</ele>
        <time>2021-08-07T11:54:37.560Z</time>
      </trkpt>
      <trkpt lat="46.91563" lon="8.64083">
        <ele>837</ele>
        <time>2021-08-07T11:54:38.560Z</time>
      </trkpt>
      <trkpt lat="46.91563" lon="8.64081">
        <ele>836</ele>
        <time>2021-08-07T11:54:39.560Z</time>
      </trkpt>
      <trkpt lat="46.91563" lon="8.6408">
        <ele>836</ele>
        <time>2021-08-07T11:54:40.560Z</time>
      </trkpt>
      <trkpt lat="46.91563" lon="8.64079">
        <ele>836</ele>
        <time>2021-08-07T11:54:41.560Z</time>
      </trkpt>
      <trkpt lat="46.91563" lon="8.64078">
        <ele>836</ele>
        <time>2021-08-07T11:54:42.560Z</time>
      </trkpt>
      <trkpt lat="46.91566" lon="8.64077">
        <ele>836</ele>
        <time>2021-08-07T11:54:43.560Z</time>
      </trkpt>
      <trkpt lat="46.91568" lon="8.64077">
        <ele>836</ele>
        <time>2021-08-07T11:54:44.559Z</time>
      </trkpt>
      <trkpt lat="46.91569" lon="8.64075">
        <ele>835</ele>
        <time>2021-08-07T11:54:45.560Z</time>
      </trkpt>
      <trkpt lat="46.91569" lon="8.64074">
        <ele>835</ele>
        <time>2021-08-07T11:54:46.559Z</time>
      </trkpt>
      <trkpt lat="46.91566" lon="8.64074">
        <ele>835</ele>
        <time>2021-08-07T11:54:47.560Z</time>
      </trkpt>
      <trkpt lat="46.91564" lon="8.64073">
        <ele>835</ele>
        <time>2021-08-07T11:54:48.559Z</time>
      </trkpt>
      <trkpt lat="46.91564" lon="8.64073">
        <ele>834</ele>
        <time>2021-08-07T11:54:49.560Z</time>
      </trkpt>
      <trkpt lat="46.91562" lon="8.64072">
        <ele>834</ele>
        <time>2021-08-07T11:54:50.559Z</time>
      </trkpt>
      <trkpt lat="46.91562" lon="8.64072">
        <ele>834</ele>
        <time>2021-08-07T11:54:51.560Z</time>
      </trkpt>
      <trkpt lat="46.91562" lon="8.64071">
        <ele>833</ele>
        <time>2021-08-07T11:54:52.560Z</time>
      </trkpt>
      <trkpt lat="46.91562" lon="8.64071">
        <ele>833</ele>
        <time>2021-08-07T11:54:53.560Z</time>
      </trkpt>
      <trkpt lat="46.91561" lon="8.6407">
        <ele>833</ele>
        <time>2021-08-07T11:54:54.560Z</time>
      </trkpt>
      <trkpt lat="46.91561" lon="8.64069">
        <ele>833</ele>
        <time>2021-08-07T11:54:55.560Z</time>
      </trkpt>
      <trkpt lat="46.91562" lon="8.64068">
        <ele>832</ele>
        <time>2021-08-07T11:54:56.559Z</time>
      </trkpt>
      <trkpt lat="46.91563" lon="8.64068">
        <ele>832</ele>
        <time>2021-08-07T11:54:57.559Z</time>
      </trkpt>
      <trkpt lat="46.91563" lon="8.6407">
        <ele>832</ele>
        <time>2021-08-07T11:54:58.560Z</time>
      </trkpt>
      <trkpt lat="46.91562" lon="8.64072">
        <ele>832</ele>
        <time>2021-08-07T11:54:59.559Z</time>
      </trkpt>
      <trkpt lat="46.91561" lon="8.64075">
        <ele>831</ele>
        <time>2021-08-07T11:55:00.559Z</time>
      </trkpt>
      <trkpt lat="46.9156" lon="8.64078">
        <ele>831</ele>
        <time>2021-08-07T11:55:01.559Z</time>
      </trkpt>
      <trkpt lat="46.91559" lon="8.6408">
        <ele>831</ele>
        <time>2021-08-07T11:55:02.560Z</time>
      </trkpt>
      <trkpt lat="46.91559" lon="8.64081">
        <ele>830</ele>
        <time>2021-08-07T11:55:03.560Z</time>
      </trkpt>
      <trkpt lat="46.91558" lon="8.64081">
        <ele>830</ele>
        <time>2021-08-07T11:55:04.559Z</time>
      </trkpt>
      <trkpt lat="46.91556" lon="8.64081">
        <ele>830</ele>
        <time>2021-08-07T11:55:05.560Z</time>
      </trkpt>
      <trkpt lat="46.91555" lon="8.64081">
        <ele>829</ele>
        <time>2021-08-07T11:55:06.560Z</time>
      </trkpt>
      <trkpt lat="46.91553" lon="8.6408">
        <ele>829</ele>
        <time>2021-08-07T11:55:07.559Z</time>
      </trkpt>
      <trkpt lat="46.91551" lon="8.6408">
        <ele>829</ele>
        <time>2021-08-07T11:55:08.560Z</time>
      </trkpt>
      <trkpt lat="46.91548" lon="8.64081">
        <ele>829</ele>
        <time>2021-08-07T11:55:09.560Z</time>
      </trkpt>
      <trkpt lat="46.91545" lon="8.64084">
        <ele>829</ele>
        <time>2021-08-07T11:55:10.559Z</time>
      </trkpt>
      <trkpt lat="46.91543" lon="8.64087">
        <ele>829</ele>
        <time>2021-08-07T11:55:11.560Z</time>
      </trkpt>
      <trkpt lat="46.91543" lon="8.64087">
        <ele>829</ele>
        <time>2021-08-07T11:55:12.559Z</time>
      </trkpt>
      <trkpt lat="46.91543" lon="8.64086">
        <ele>829</ele>
        <time>2021-08-07T11:55:13.560Z</time>
      </trkpt>
      <trkpt lat="46.91544" lon="8.64087">
        <ele>829</ele>
        <time>2021-08-07T11:55:14.560Z</time>
      </trkpt>
      <trkpt lat="46.91543" lon="8.64088">
        <ele>829</ele>
        <time>2021-08-07T11:55:15.559Z</time>
      </trkpt>
      <trkpt lat="46.91543" lon="8.64088">
        <ele>829</ele>
        <time>2021-08-07T11:55:16.560Z</time>
      </trkpt>
      <trkpt lat="46.91542" lon="8.64088">
        <ele>829</ele>
        <time>2021-08-07T11:55:17.560Z</time>
      </trkpt>
      <trkpt lat="46.91542" lon="8.64088">
        <ele>829</ele>
        <time>2021-08-07T11:55:18.560Z</time>
      </trkpt>
      <trkpt lat="46.91541" lon="8.64088">
        <ele>829</ele>
        <time>2021-08-07T11:55:19.560Z</time>
      </trkpt>
      <trkpt lat="46.9154" lon="8.64088">
        <ele>829</ele>
        <time>2021-08-07T11:55:20.560Z</time>
      </trkpt>
      <trkpt lat="46.9154" lon="8.64088">
        <ele>829</ele>
        <time>2021-08-07T11:55:21.560Z</time>
      </trkpt>
      <trkpt lat="46.91539" lon="8.64088">
        <ele>829</ele>
        <time>2021-08-07T11:55:28.711Z</time>
      </trkpt>
      <trkpt lat="46.91539" lon="8.64087">
        <ele>829</ele>
        <time>2021-08-07T11:55:29.710Z</time>
      </trkpt>
      <trkpt lat="46.91539" lon="8.64086">
        <ele>829</ele>
        <time>2021-08-07T11:55:38.625Z</time>
      </trkpt>
      <trkpt lat="46.91538" lon="8.64084">
        <ele>829</ele>
        <time>2021-08-07T11:56:09.505Z</time>
      </trkpt>
      <trkpt lat="46.91538" lon="8.64083">
        <ele>829</ele>
        <time>2021-08-07T11:56:10.505Z</time>
      </trkpt>
      <trkpt lat="46.91539" lon="8.64081">
        <ele>829</ele>
        <time>2021-08-07T11:56:11.506Z</time>
      </trkpt>
      <trkpt lat="46.91539" lon="8.6408">
        <ele>829</ele>
        <time>2021-08-07T11:56:12.506Z</time>
      </trkpt>
      <trkpt lat="46.91538" lon="8.64081">
        <ele>829</ele>
        <time>2021-08-07T11:56:13.506Z</time>
      </trkpt>
      <trkpt lat="46.91538" lon="8.64083">
        <ele>828</ele>
        <time>2021-08-07T11:56:14.506Z</time>
      </trkpt>
      <trkpt lat="46.91539" lon="8.64086">
        <ele>828</ele>
        <time>2021-08-07T11:56:15.506Z</time>
      </trkpt>
      <trkpt lat="46.91543" lon="8.64085">
        <ele>828</ele>
        <time>2021-08-07T11:56:16.506Z</time>
      </trkpt>
      <trkpt lat="46.91545" lon="8.64083">
        <ele>828</ele>
        <time>2021-08-07T11:56:38.580Z</time>
      </trkpt>
      <trkpt lat="46.91544" lon="8.64081">
        <ele>827</ele>
        <time>2021-08-07T11:56:39.580Z</time>
      </trkpt>
      <trkpt lat="46.91544" lon="8.6408">
        <ele>827</ele>
        <time>2021-08-07T11:56:40.580Z</time>
      </trkpt>
      <trkpt lat="46.91544" lon="8.6408">
        <ele>827</ele>
        <time>2021-08-07T11:56:48.711Z</time>
      </trkpt>
      <trkpt lat="46.91544" lon="8.6408">
        <ele>827</ele>
        <time>2021-08-07T11:56:49.712Z</time>
      </trkpt>
      <trkpt lat="46.91543" lon="8.64078">
        <ele>827</ele>
        <time>2021-08-07T11:57:00.593Z</time>
      </trkpt>
      <trkpt lat="46.91543" lon="8.64078">
        <ele>826</ele>
        <time>2021-08-07T11:57:01.592Z</time>
      </trkpt>
      <trkpt lat="46.91544" lon="8.64078">
        <ele>826</ele>
        <time>2021-08-07T11:57:04.453Z</time>
      </trkpt>
      <trkpt lat="46.91544" lon="8.64076">
        <ele>826</ele>
        <time>2021-08-07T11:57:05.454Z</time>
      </trkpt>
      <trkpt lat="46.91544" lon="8.64076">
        <ele>826</ele>
        <time>2021-08-07T11:57:06.453Z</time>
      </trkpt>
      <trkpt lat="46.91545" lon="8.64075">
        <ele>826</ele>
        <time>2021-08-07T11:57:07.454Z</time>
      </trkpt>
      <trkpt lat="46.91545" lon="8.64074">
        <ele>826</ele>
        <time>2021-08-07T11:57:08.454Z</time>
      </trkpt>
      <trkpt lat="46.91545" lon="8.64073">
        <ele>825</ele>
        <time>2021-08-07T11:57:09.454Z</time>
      </trkpt>
      <trkpt lat="46.91544" lon="8.64072">
        <ele>825</ele>
        <time>2021-08-07T11:57:10.454Z</time>
      </trkpt>
      <trkpt lat="46.91544" lon="8.6407">
        <ele>825</ele>
        <time>2021-08-07T11:57:11.453Z</time>
      </trkpt>
      <trkpt lat="46.91543" lon="8.64066">
        <ele>825</ele>
        <time>2021-08-07T11:57:12.453Z</time>
      </trkpt>
      <trkpt lat="46.91543" lon="8.64062">
        <ele>825</ele>
        <time>2021-08-07T11:57:13.454Z</time>
      </trkpt>
      <trkpt lat="46.91543" lon="8.64064">
        <ele>825</ele>
        <time>2021-08-07T11:57:14.453Z</time>
      </trkpt>
      <trkpt lat="46.91545" lon="8.64063">
        <ele>825</ele>
        <time>2021-08-07T11:57:15.454Z</time>
      </trkpt>
      <trkpt lat="46.91546" lon="8.64064">
        <ele>824</ele>
        <time>2021-08-07T11:57:16.454Z</time>
      </trkpt>
      <trkpt lat="46.91544" lon="8.64063">
        <ele>824</ele>
        <time>2021-08-07T11:57:17.453Z</time>
      </trkpt>
      <trkpt lat="46.9154" lon="8.64061">
        <ele>824</ele>
        <time>2021-08-07T11:57:18.453Z</time>
      </trkpt>
      <trkpt lat="46.91537" lon="8.64058">
        <ele>824</ele>
        <time>2021-08-07T11:57:19.453Z</time>
      </trkpt>
      <trkpt lat="46.91535" lon="8.64056">
        <ele>824</ele>
        <time>2021-08-07T11:57:20.454Z</time>
      </trkpt>
      <trkpt lat="46.91535" lon="8.64053">
        <ele>824</ele>
        <time>2021-08-07T11:57:21.454Z</time>
      </trkpt>
      <trkpt lat="46.91534" lon="8.64052">
        <ele>824</ele>
        <time>2021-08-07T11:57:22.453Z</time>
      </trkpt>
      <trkpt lat="46.91533" lon="8.64051">
        <ele>824</ele>
        <time>2021-08-07T11:57:23.454Z</time>
      </trkpt>
      <trkpt lat="46.91531" lon="8.64051">
        <ele>824</ele>
        <time>2021-08-07T11:57:24.453Z</time>
      </trkpt>
      <trkpt lat="46.91531" lon="8.6405">
        <ele>824</ele>
        <time>2021-08-07T11:57:25.453Z</time>
      </trkpt>
      <trkpt lat="46.9153" lon="8.64048">
        <ele>823</ele>
        <time>2021-08-07T11:57:26.453Z</time>
      </trkpt>
      <trkpt lat="46.9153" lon="8.64048">
        <ele>823</ele>
        <time>2021-08-07T11:57:27.453Z</time>
      </trkpt>
      <trkpt lat="46.9153" lon="8.64047">
        <ele>823</ele>
        <time>2021-08-07T11:57:28.453Z</time>
      </trkpt>
      <trkpt lat="46.9153" lon="8.64046">
        <ele>823</ele>
        <time>2021-08-07T11:57:36.468Z</time>
      </trkpt>
      <trkpt lat="46.91529" lon="8.64046">
        <ele>823</ele>
        <time>2021-08-07T11:57:37.468Z</time>
      </trkpt>
      <trkpt lat="46.91528" lon="8.64046">
        <ele>822</ele>
        <time>2021-08-07T11:57:38.468Z</time>
      </trkpt>
      <trkpt lat="46.91528" lon="8.64043">
        <ele>822</ele>
        <time>2021-08-07T11:57:39.468Z</time>
      </trkpt>
      <trkpt lat="46.91528" lon="8.64041">
        <ele>822</ele>
        <time>2021-08-07T11:57:40.468Z</time>
      </trkpt>
      <trkpt lat="46.91528" lon="8.64038">
        <ele>822</ele>
        <time>2021-08-07T11:57:41.469Z</time>
      </trkpt>
      <trkpt lat="46.91527" lon="8.64037">
        <ele>822</ele>
        <time>2021-08-07T11:57:42.469Z</time>
      </trkpt>
      <trkpt lat="46.91526" lon="8.64037">
        <ele>822</ele>
        <time>2021-08-07T11:57:43.469Z</time>
      </trkpt>
      <trkpt lat="46.91525" lon="8.64037">
        <ele>822</ele>
        <time>2021-08-07T11:57:44.468Z</time>
      </trkpt>
      <trkpt lat="46.91523" lon="8.64038">
        <ele>822</ele>
        <time>2021-08-07T11:57:45.468Z</time>
      </trkpt>
      <trkpt lat="46.91522" lon="8.64037">
        <ele>822</ele>
        <time>2021-08-07T11:57:46.468Z</time>
      </trkpt>
      <trkpt lat="46.91522" lon="8.64037">
        <ele>821</ele>
        <time>2021-08-07T11:57:47.468Z</time>
      </trkpt>
      <trkpt lat="46.91522" lon="8.64037">
        <ele>821</ele>
        <time>2021-08-07T11:57:48.468Z</time>
      </trkpt>
      <trkpt lat="46.91522" lon="8.64037">
        <ele>821</ele>
        <time>2021-08-07T11:57:49.468Z</time>
      </trkpt>
      <trkpt lat="46.91522" lon="8.64036">
        <ele>821</ele>
        <time>2021-08-07T11:57:50.469Z</time>
      </trkpt>
      <trkpt lat="46.91514" lon="8.64032">
        <ele>821</ele>
        <time>2021-08-07T11:57:51.469Z</time>
      </trkpt>
      <trkpt lat="46.91514" lon="8.6403">
        <ele>821</ele>
        <time>2021-08-07T11:57:52.469Z</time>
      </trkpt>
      <trkpt lat="46.91514" lon="8.64029">
        <ele>822</ele>
        <time>2021-08-07T11:57:53.468Z</time>
      </trkpt>
      <trkpt lat="46.91513" lon="8.64027">
        <ele>822</ele>
        <time>2021-08-07T11:57:54.469Z</time>
      </trkpt>
      <trkpt lat="46.91512" lon="8.64026">
        <ele>822</ele>
        <time>2021-08-07T11:57:55.469Z</time>
      </trkpt>
      <trkpt lat="46.91512" lon="8.64025">
        <ele>822</ele>
        <time>2021-08-07T11:57:56.468Z</time>
      </trkpt>
      <trkpt lat="46.91511" lon="8.64024">
        <ele>822</ele>
        <time>2021-08-07T11:57:57.468Z</time>
      </trkpt>
      <trkpt lat="46.9151" lon="8.64022">
        <ele>822</ele>
        <time>2021-08-07T11:57:58.468Z</time>
      </trkpt>
      <trkpt lat="46.91509" lon="8.6402">
        <ele>822</ele>
        <time>2021-08-07T11:57:59.468Z</time>
      </trkpt>
      <trkpt lat="46.91509" lon="8.64019">
        <ele>822</ele>
        <time>2021-08-07T11:58:00.469Z</time>
      </trkpt>
      <trkpt lat="46.91509" lon="8.64019">
        <ele>822</ele>
        <time>2021-08-07T11:58:01.469Z</time>
      </trkpt>
      <trkpt lat="46.91509" lon="8.64019">
        <ele>822</ele>
        <time>2021-08-07T11:58:02.468Z</time>
      </trkpt>
      <trkpt lat="46.91508" lon="8.64019">
        <ele>822</ele>
        <time>2021-08-07T11:58:03.469Z</time>
      </trkpt>
      <trkpt lat="46.91509" lon="8.64018">
        <ele>822</ele>
        <time>2021-08-07T11:58:04.469Z</time>
      </trkpt>
      <trkpt lat="46.91509" lon="8.64018">
        <ele>822</ele>
        <time>2021-08-07T11:58:05.468Z</time>
      </trkpt>
      <trkpt lat="46.91509" lon="8.64019">
        <ele>822</ele>
        <time>2021-08-07T11:58:06.469Z</time>
      </trkpt>
      <trkpt lat="46.91508" lon="8.64022">
        <ele>823</ele>
        <time>2021-08-07T11:58:07.469Z</time>
      </trkpt>
      <trkpt lat="46.91507" lon="8.64024">
        <ele>823</ele>
        <time>2021-08-07T11:58:08.469Z</time>
      </trkpt>
      <trkpt lat="46.91507" lon="8.64025">
        <ele>823</ele>
        <time>2021-08-07T11:58:09.469Z</time>
      </trkpt>
      <trkpt lat="46.91505" lon="8.64027">
        <ele>823</ele>
        <time>2021-08-07T11:58:10.469Z</time>
      </trkpt>
      <trkpt lat="46.91504" lon="8.64028">
        <ele>823</ele>
        <time>2021-08-07T11:58:11.468Z</time>
      </trkpt>
      <trkpt lat="46.91503" lon="8.64029">
        <ele>824</ele>
        <time>2021-08-07T11:58:12.469Z</time>
      </trkpt>
      <trkpt lat="46.91503" lon="8.64032">
        <ele>824</ele>
        <time>2021-08-07T11:58:13.469Z</time>
      </trkpt>
      <trkpt lat="46.91504" lon="8.64033">
        <ele>824</ele>
        <time>2021-08-07T11:58:14.468Z</time>
      </trkpt>
      <trkpt lat="46.91505" lon="8.64032">
        <ele>824</ele>
        <time>2021-08-07T11:58:15.468Z</time>
      </trkpt>
      <trkpt lat="46.91506" lon="8.6403">
        <ele>824</ele>
        <time>2021-08-07T11:58:16.469Z</time>
      </trkpt>
      <trkpt lat="46.91506" lon="8.64029">
        <ele>824</ele>
        <time>2021-08-07T11:58:17.469Z</time>
      </trkpt>
      <trkpt lat="46.91506" lon="8.64028">
        <ele>824</ele>
        <time>2021-08-07T11:58:18.469Z</time>
      </trkpt>
      <trkpt lat="46.91505" lon="8.64026">
        <ele>824</ele>
        <time>2021-08-07T11:58:19.468Z</time>
      </trkpt>
      <trkpt lat="46.91505" lon="8.64024">
        <ele>824</ele>
        <time>2021-08-07T11:58:20.469Z</time>
      </trkpt>
      <trkpt lat="46.91504" lon="8.64023">
        <ele>823</ele>
        <time>2021-08-07T11:58:21.468Z</time>
      </trkpt>
      <trkpt lat="46.91503" lon="8.64022">
        <ele>823</ele>
        <time>2021-08-07T11:58:22.469Z</time>
      </trkpt>
      <trkpt lat="46.91504" lon="8.6402">
        <ele>823</ele>
        <time>2021-08-07T11:58:23.469Z</time>
      </trkpt>
      <trkpt lat="46.91503" lon="8.64019">
        <ele>823</ele>
        <time>2021-08-07T11:58:24.469Z</time>
      </trkpt>
      <trkpt lat="46.91502" lon="8.64018">
        <ele>823</ele>
        <time>2021-08-07T11:58:25.469Z</time>
      </trkpt>
      <trkpt lat="46.91501" lon="8.64017">
        <ele>822</ele>
        <time>2021-08-07T11:58:26.469Z</time>
      </trkpt>
      <trkpt lat="46.91499" lon="8.64015">
        <ele>822</ele>
        <time>2021-08-07T11:58:27.469Z</time>
      </trkpt>
      <trkpt lat="46.91497" lon="8.64014">
        <ele>822</ele>
        <time>2021-08-07T11:58:28.469Z</time>
      </trkpt>
      <trkpt lat="46.91495" lon="8.64007">
        <ele>822</ele>
        <time>2021-08-07T11:58:29.469Z</time>
      </trkpt>
      <trkpt lat="46.91496" lon="8.64005">
        <ele>821</ele>
        <time>2021-08-07T11:58:30.469Z</time>
      </trkpt>
      <trkpt lat="46.91498" lon="8.64004">
        <ele>821</ele>
        <time>2021-08-07T11:58:31.469Z</time>
      </trkpt>
      <trkpt lat="46.91499" lon="8.64004">
        <ele>821</ele>
        <time>2021-08-07T11:58:32.469Z</time>
      </trkpt>
      <trkpt lat="46.91498" lon="8.64004">
        <ele>821</ele>
        <time>2021-08-07T11:58:33.468Z</time>
      </trkpt>
      <trkpt lat="46.91497" lon="8.64003">
        <ele>821</ele>
        <time>2021-08-07T11:58:34.469Z</time>
      </trkpt>
      <trkpt lat="46.91496" lon="8.64002">
        <ele>820</ele>
        <time>2021-08-07T11:58:35.468Z</time>
      </trkpt>
      <trkpt lat="46.91496" lon="8.64001">
        <ele>820</ele>
        <time>2021-08-07T11:58:36.469Z</time>
      </trkpt>
      <trkpt lat="46.91497" lon="8.64">
        <ele>820</ele>
        <time>2021-08-07T11:58:37.468Z</time>
      </trkpt>
      <trkpt lat="46.91497" lon="8.64">
        <ele>820</ele>
        <time>2021-08-07T11:58:38.469Z</time>
      </trkpt>
      <trkpt lat="46.91498" lon="8.63999">
        <ele>820</ele>
        <time>2021-08-07T11:58:39.469Z</time>
      </trkpt>
      <trkpt lat="46.91499" lon="8.63999">
        <ele>820</ele>
        <time>2021-08-07T11:58:40.469Z</time>
      </trkpt>
      <trkpt lat="46.915" lon="8.63998">
        <ele>820</ele>
        <time>2021-08-07T11:58:41.469Z</time>
      </trkpt>
      <trkpt lat="46.91502" lon="8.63995">
        <ele>820</ele>
        <time>2021-08-07T11:58:42.469Z</time>
      </trkpt>
      <trkpt lat="46.91503" lon="8.63993">
        <ele>820</ele>
        <time>2021-08-07T11:58:43.468Z</time>
      </trkpt>
      <trkpt lat="46.91504" lon="8.63994">
        <ele>820</ele>
        <time>2021-08-07T11:58:44.469Z</time>
      </trkpt>
      <trkpt lat="46.91504" lon="8.63995">
        <ele>820</ele>
        <time>2021-08-07T11:58:45.469Z</time>
      </trkpt>
      <trkpt lat="46.91504" lon="8.63998">
        <ele>820</ele>
        <time>2021-08-07T11:58:46.469Z</time>
      </trkpt>
      <trkpt lat="46.91505" lon="8.63998">
        <ele>819</ele>
        <time>2021-08-07T11:58:47.468Z</time>
      </trkpt>
      <trkpt lat="46.91504" lon="8.63998">
        <ele>819</ele>
        <time>2021-08-07T11:58:48.469Z</time>
      </trkpt>
      <trkpt lat="46.91503" lon="8.63998">
        <ele>819</ele>
        <time>2021-08-07T11:58:49.469Z</time>
      </trkpt>
      <trkpt lat="46.91502" lon="8.63999">
        <ele>819</ele>
        <time>2021-08-07T11:58:50.469Z</time>
      </trkpt>
      <trkpt lat="46.915" lon="8.64">
        <ele>819</ele>
        <time>2021-08-07T11:58:51.469Z</time>
      </trkpt>
      <trkpt lat="46.91499" lon="8.64">
        <ele>819</ele>
        <time>2021-08-07T11:58:52.468Z</time>
      </trkpt>
      <trkpt lat="46.91498" lon="8.64">
        <ele>819</ele>
        <time>2021-08-07T11:58:53.468Z</time>
      </trkpt>
      <trkpt lat="46.91498" lon="8.63999">
        <ele>819</ele>
        <time>2021-08-07T11:58:54.469Z</time>
      </trkpt>
      <trkpt lat="46.91493" lon="8.63951">
        <ele>810</ele>
        <time>2021-08-07T11:58:55.470Z</time>
      </trkpt>
      <trkpt lat="46.91491" lon="8.6395">
        <ele>810</ele>
        <time>2021-08-07T11:58:56.469Z</time>
      </trkpt>
      <trkpt lat="46.91492" lon="8.6395">
        <ele>809</ele>
        <time>2021-08-07T11:58:57.469Z</time>
      </trkpt>
      <trkpt lat="46.9149" lon="8.63949">
        <ele>809</ele>
        <time>2021-08-07T11:58:58.469Z</time>
      </trkpt>
      <trkpt lat="46.91489" lon="8.63949">
        <ele>808</ele>
        <time>2021-08-07T11:58:59.470Z</time>
      </trkpt>
      <trkpt lat="46.9149" lon="8.63948">
        <ele>807</ele>
        <time>2021-08-07T11:59:00.470Z</time>
      </trkpt>
      <trkpt lat="46.91491" lon="8.63944">
        <ele>807</ele>
        <time>2021-08-07T11:59:01.470Z</time>
      </trkpt>
      <trkpt lat="46.91492" lon="8.63941">
        <ele>806</ele>
        <time>2021-08-07T11:59:02.470Z</time>
      </trkpt>
      <trkpt lat="46.91492" lon="8.63938">
        <ele>806</ele>
        <time>2021-08-07T11:59:03.470Z</time>
      </trkpt>
      <trkpt lat="46.9149" lon="8.63937">
        <ele>806</ele>
        <time>2021-08-07T11:59:04.469Z</time>
      </trkpt>
      <trkpt lat="46.91489" lon="8.63937">
        <ele>805</ele>
        <time>2021-08-07T11:59:05.469Z</time>
      </trkpt>
      <trkpt lat="46.91488" lon="8.63937">
        <ele>805</ele>
        <time>2021-08-07T11:59:06.469Z</time>
      </trkpt>
      <trkpt lat="46.91487" lon="8.63935">
        <ele>804</ele>
        <time>2021-08-07T11:59:07.470Z</time>
      </trkpt>
      <trkpt lat="46.91487" lon="8.63934">
        <ele>804</ele>
        <time>2021-08-07T11:59:08.470Z</time>
      </trkpt>
      <trkpt lat="46.91487" lon="8.63933">
        <ele>804</ele>
        <time>2021-08-07T11:59:09.470Z</time>
      </trkpt>
      <trkpt lat="46.91487" lon="8.63932">
        <ele>804</ele>
        <time>2021-08-07T11:59:10.469Z</time>
      </trkpt>
      <trkpt lat="46.91486" lon="8.63932">
        <ele>804</ele>
        <time>2021-08-07T11:59:11.469Z</time>
      </trkpt>
      <trkpt lat="46.91486" lon="8.63932">
        <ele>804</ele>
        <time>2021-08-07T11:59:12.470Z</time>
      </trkpt>
      <trkpt lat="46.91485" lon="8.63931">
        <ele>804</ele>
        <time>2021-08-07T11:59:13.469Z</time>
      </trkpt>
      <trkpt lat="46.91485" lon="8.63929">
        <ele>804</ele>
        <time>2021-08-07T11:59:14.470Z</time>
      </trkpt>
      <trkpt lat="46.91484" lon="8.63927">
        <ele>804</ele>
        <time>2021-08-07T11:59:15.469Z</time>
      </trkpt>
      <trkpt lat="46.91484" lon="8.63925">
        <ele>803</ele>
        <time>2021-08-07T11:59:16.469Z</time>
      </trkpt>
      <trkpt lat="46.91484" lon="8.63923">
        <ele>803</ele>
        <time>2021-08-07T11:59:17.470Z</time>
      </trkpt>
      <trkpt lat="46.91483" lon="8.63922">
        <ele>803</ele>
        <time>2021-08-07T11:59:18.470Z</time>
      </trkpt>
      <trkpt lat="46.91483" lon="8.63919">
        <ele>803</ele>
        <time>2021-08-07T11:59:19.470Z</time>
      </trkpt>
      <trkpt lat="46.91483" lon="8.63918">
        <ele>803</ele>
        <time>2021-08-07T11:59:20.470Z</time>
      </trkpt>
      <trkpt lat="46.91483" lon="8.63916">
        <ele>803</ele>
        <time>2021-08-07T11:59:21.469Z</time>
      </trkpt>
      <trkpt lat="46.91484" lon="8.63916">
        <ele>803</ele>
        <time>2021-08-07T11:59:22.470Z</time>
      </trkpt>
      <trkpt lat="46.91485" lon="8.63913">
        <ele>803</ele>
        <time>2021-08-07T11:59:23.470Z</time>
      </trkpt>
      <trkpt lat="46.91485" lon="8.63913">
        <ele>803</ele>
        <time>2021-08-07T11:59:24.469Z</time>
      </trkpt>
      <trkpt lat="46.91483" lon="8.63912">
        <ele>803</ele>
        <time>2021-08-07T11:59:25.469Z</time>
      </trkpt>
      <trkpt lat="46.91483" lon="8.63913">
        <ele>803</ele>
        <time>2021-08-07T11:59:26.470Z</time>
      </trkpt>
      <trkpt lat="46.91485" lon="8.63911">
        <ele>803</ele>
        <time>2021-08-07T11:59:27.469Z</time>
      </trkpt>
      <trkpt lat="46.9148" lon="8.63911">
        <ele>803</ele>
        <time>2021-08-07T11:59:28.470Z</time>
      </trkpt>
      <trkpt lat="46.9148" lon="8.63909">
        <ele>803</ele>
        <time>2021-08-07T11:59:29.469Z</time>
      </trkpt>
      <trkpt lat="46.91479" lon="8.63908">
        <ele>803</ele>
        <time>2021-08-07T11:59:30.470Z</time>
      </trkpt>
      <trkpt lat="46.91478" lon="8.63905">
        <ele>802</ele>
        <time>2021-08-07T11:59:31.470Z</time>
      </trkpt>
      <trkpt lat="46.91477" lon="8.63902">
        <ele>802</ele>
        <time>2021-08-07T11:59:32.470Z</time>
      </trkpt>
      <trkpt lat="46.91476" lon="8.639">
        <ele>802</ele>
        <time>2021-08-07T11:59:33.470Z</time>
      </trkpt>
      <trkpt lat="46.91477" lon="8.63899">
        <ele>802</ele>
        <time>2021-08-07T11:59:34.470Z</time>
      </trkpt>
      <trkpt lat="46.91478" lon="8.63897">
        <ele>802</ele>
        <time>2021-08-07T11:59:35.470Z</time>
      </trkpt>
      <trkpt lat="46.91476" lon="8.63896">
        <ele>802</ele>
        <time>2021-08-07T11:59:36.469Z</time>
      </trkpt>
      <trkpt lat="46.91473" lon="8.63897">
        <ele>802</ele>
        <time>2021-08-07T11:59:37.469Z</time>
      </trkpt>
      <trkpt lat="46.91471" lon="8.63897">
        <ele>802</ele>
        <time>2021-08-07T11:59:38.469Z</time>
      </trkpt>
      <trkpt lat="46.91471" lon="8.63896">
        <ele>802</ele>
        <time>2021-08-07T11:59:39.469Z</time>
      </trkpt>
      <trkpt lat="46.91469" lon="8.63894">
        <ele>801</ele>
        <time>2021-08-07T11:59:40.470Z</time>
      </trkpt>
      <trkpt lat="46.91466" lon="8.63896">
        <ele>801</ele>
        <time>2021-08-07T11:59:41.470Z</time>
      </trkpt>
      <trkpt lat="46.91464" lon="8.63897">
        <ele>801</ele>
        <time>2021-08-07T11:59:42.470Z</time>
      </trkpt>
      <trkpt lat="46.91463" lon="8.63896">
        <ele>801</ele>
        <time>2021-08-07T11:59:43.469Z</time>
      </trkpt>
      <trkpt lat="46.91463" lon="8.63895">
        <ele>801</ele>
        <time>2021-08-07T11:59:44.470Z</time>
      </trkpt>
      <trkpt lat="46.91462" lon="8.63893">
        <ele>801</ele>
        <time>2021-08-07T11:59:45.469Z</time>
      </trkpt>
      <trkpt lat="46.91463" lon="8.63891">
        <ele>801</ele>
        <time>2021-08-07T11:59:46.470Z</time>
      </trkpt>
      <trkpt lat="46.91463" lon="8.63889">
        <ele>801</ele>
        <time>2021-08-07T11:59:47.469Z</time>
      </trkpt>
      <trkpt lat="46.91463" lon="8.63888">
        <ele>801</ele>
        <time>2021-08-07T11:59:48.469Z</time>
      </trkpt>
      <trkpt lat="46.91463" lon="8.63888">
        <ele>801</ele>
        <time>2021-08-07T11:59:49.470Z</time>
      </trkpt>
      <trkpt lat="46.91463" lon="8.63887">
        <ele>801</ele>
        <time>2021-08-07T11:59:50.469Z</time>
      </trkpt>
      <trkpt lat="46.91462" lon="8.63889">
        <ele>801</ele>
        <time>2021-08-07T11:59:51.469Z</time>
      </trkpt>
      <trkpt lat="46.9146" lon="8.63892">
        <ele>801</ele>
        <time>2021-08-07T11:59:52.469Z</time>
      </trkpt>
      <trkpt lat="46.9146" lon="8.63894">
        <ele>801</ele>
        <time>2021-08-07T11:59:53.470Z</time>
      </trkpt>
      <trkpt lat="46.9146" lon="8.63895">
        <ele>801</ele>
        <time>2021-08-07T11:59:54.470Z</time>
      </trkpt>
      <trkpt lat="46.9146" lon="8.63895">
        <ele>801</ele>
        <time>2021-08-07T11:59:55.470Z</time>
      </trkpt>
      <trkpt lat="46.91461" lon="8.63895">
        <ele>801</ele>
        <time>2021-08-07T11:59:56.470Z</time>
      </trkpt>
      <trkpt lat="46.91461" lon="8.63895">
        <ele>801</ele>
        <time>2021-08-07T11:59:57.470Z</time>
      </trkpt>
      <trkpt lat="46.91461" lon="8.63894">
        <ele>801</ele>
        <time>2021-08-07T11:59:58.470Z</time>
      </trkpt>
      <trkpt lat="46.91462" lon="8.63893">
        <ele>801</ele>
        <time>2021-08-07T11:59:59.470Z</time>
      </trkpt>
      <trkpt lat="46.91462" lon="8.63893">
        <ele>801</ele>
        <time>2021-08-07T12:00:00.470Z</time>
      </trkpt>
      <trkpt lat="46.91462" lon="8.63892">
        <ele>801</ele>
        <time>2021-08-07T12:00:01.469Z</time>
      </trkpt>
      <trkpt lat="46.91462" lon="8.63892">
        <ele>801</ele>
        <time>2021-08-07T12:00:02.470Z</time>
      </trkpt>
      <trkpt lat="46.91462" lon="8.63892">
        <ele>801</ele>
        <time>2021-08-07T12:00:03.469Z</time>
      </trkpt>
      <trkpt lat="46.91462" lon="8.63893">
        <ele>802</ele>
        <time>2021-08-07T12:00:04.470Z</time>
      </trkpt>
      <trkpt lat="46.91462" lon="8.63894">
        <ele>802</ele>
        <time>2021-08-07T12:00:05.470Z</time>
      </trkpt>
      <trkpt lat="46.91461" lon="8.63894">
        <ele>802</ele>
        <time>2021-08-07T12:00:06.469Z</time>
      </trkpt>
      <trkpt lat="46.91462" lon="8.63894">
        <ele>802</ele>
        <time>2021-08-07T12:00:07.470Z</time>
      </trkpt>
      <trkpt lat="46.91462" lon="8.63894">
        <ele>802</ele>
        <time>2021-08-07T12:00:08.470Z</time>
      </trkpt>
      <trkpt lat="46.91462" lon="8.63894">
        <ele>802</ele>
        <time>2021-08-07T12:00:09.470Z</time>
      </trkpt>
      <trkpt lat="46.91462" lon="8.63892">
        <ele>802</ele>
        <time>2021-08-07T12:00:10.470Z</time>
      </trkpt>
      <trkpt lat="46.91462" lon="8.63891">
        <ele>802</ele>
        <time>2021-08-07T12:00:11.470Z</time>
      </trkpt>
      <trkpt lat="46.91463" lon="8.63891">
        <ele>802</ele>
        <time>2021-08-07T12:00:12.470Z</time>
      </trkpt>
      <trkpt lat="46.91462" lon="8.63893">
        <ele>802</ele>
        <time>2021-08-07T12:00:13.469Z</time>
      </trkpt>
      <trkpt lat="46.9146" lon="8.63896">
        <ele>803</ele>
        <time>2021-08-07T12:00:14.469Z</time>
      </trkpt>
      <trkpt lat="46.91458" lon="8.63899">
        <ele>803</ele>
        <time>2021-08-07T12:00:15.470Z</time>
      </trkpt>
      <trkpt lat="46.91456" lon="8.63901">
        <ele>803</ele>
        <time>2021-08-07T12:00:16.470Z</time>
      </trkpt>
      <trkpt lat="46.91456" lon="8.63902">
        <ele>803</ele>
        <time>2021-08-07T12:00:17.469Z</time>
      </trkpt>
      <trkpt lat="46.91457" lon="8.63902">
        <ele>803</ele>
        <time>2021-08-07T12:00:18.470Z</time>
      </trkpt>
      <trkpt lat="46.91459" lon="8.63903">
        <ele>803</ele>
        <time>2021-08-07T12:00:19.469Z</time>
      </trkpt>
      <trkpt lat="46.91461" lon="8.63903">
        <ele>803</ele>
        <time>2021-08-07T12:00:26.592Z</time>
      </trkpt>
      <trkpt lat="46.91461" lon="8.63902">
        <ele>803</ele>
        <time>2021-08-07T12:00:27.592Z</time>
      </trkpt>
      <trkpt lat="46.91461" lon="8.63902">
        <ele>803</ele>
        <time>2021-08-07T12:00:35.326Z</time>
      </trkpt>
      <trkpt lat="46.91461" lon="8.63902">
        <ele>803</ele>
        <time>2021-08-07T12:00:36.326Z</time>
      </trkpt>
      <trkpt lat="46.91461" lon="8.63902">
        <ele>803</ele>
        <time>2021-08-07T12:00:37.326Z</time>
      </trkpt>
      <trkpt lat="46.91461" lon="8.63902">
        <ele>803</ele>
        <time>2021-08-07T12:00:41.430Z</time>
      </trkpt>
      <trkpt lat="46.91461" lon="8.63902">
        <ele>803</ele>
        <time>2021-08-07T12:00:42.430Z</time>
      </trkpt>
      <trkpt lat="46.91461" lon="8.63902">
        <ele>803</ele>
        <time>2021-08-07T12:00:43.430Z</time>
      </trkpt>
      <trkpt lat="46.91462" lon="8.63902">
        <ele>803</ele>
        <time>2021-08-07T12:00:44.430Z</time>
      </trkpt>
      <trkpt lat="46.91463" lon="8.63902">
        <ele>803</ele>
        <time>2021-08-07T12:00:45.430Z</time>
      </trkpt>
      <trkpt lat="46.91463" lon="8.63902">
        <ele>803</ele>
        <time>2021-08-07T12:00:46.429Z</time>
      </trkpt>
      <trkpt lat="46.91463" lon="8.63902">
        <ele>803</ele>
        <time>2021-08-07T12:00:47.429Z</time>
      </trkpt>
      <trkpt lat="46.91463" lon="8.63901">
        <ele>803</ele>
        <time>2021-08-07T12:00:53.617Z</time>
      </trkpt>
      <trkpt lat="46.91464" lon="8.639">
        <ele>803</ele>
        <time>2021-08-07T12:00:54.617Z</time>
      </trkpt>
      <trkpt lat="46.9147" lon="8.63899">
        <ele>803</ele>
        <time>2021-08-07T12:00:55.616Z</time>
      </trkpt>
      <trkpt lat="46.9147" lon="8.63897">
        <ele>803</ele>
        <time>2021-08-07T12:00:56.617Z</time>
      </trkpt>
      <trkpt lat="46.91468" lon="8.63894">
        <ele>803</ele>
        <time>2021-08-07T12:00:57.617Z</time>
      </trkpt>
      <trkpt lat="46.91468" lon="8.63895">
        <ele>803</ele>
        <time>2021-08-07T12:00:58.617Z</time>
      </trkpt>
      <trkpt lat="46.91463" lon="8.63899">
        <ele>803</ele>
        <time>2021-08-07T12:00:59.617Z</time>
      </trkpt>
      <trkpt lat="46.91463" lon="8.63901">
        <ele>803</ele>
        <time>2021-08-07T12:01:00.617Z</time>
      </trkpt>
      <trkpt lat="46.91465" lon="8.63902">
        <ele>803</ele>
        <time>2021-08-07T12:01:01.616Z</time>
      </trkpt>
      <trkpt lat="46.91466" lon="8.63903">
        <ele>803</ele>
        <time>2021-08-07T12:01:02.617Z</time>
      </trkpt>
      <trkpt lat="46.91467" lon="8.63903">
        <ele>803</ele>
        <time>2021-08-07T12:01:03.617Z</time>
      </trkpt>
      <trkpt lat="46.91468" lon="8.63903">
        <ele>803</ele>
        <time>2021-08-07T12:01:04.616Z</time>
      </trkpt>
      <trkpt lat="46.91469" lon="8.63901">
        <ele>803</ele>
        <time>2021-08-07T12:01:05.617Z</time>
      </trkpt>
      <trkpt lat="46.91469" lon="8.63898">
        <ele>803</ele>
        <time>2021-08-07T12:01:06.617Z</time>
      </trkpt>
      <trkpt lat="46.91469" lon="8.63895">
        <ele>803</ele>
        <time>2021-08-07T12:01:07.617Z</time>
      </trkpt>
      <trkpt lat="46.91468" lon="8.63894">
        <ele>803</ele>
        <time>2021-08-07T12:01:08.617Z</time>
      </trkpt>
      <trkpt lat="46.91467" lon="8.63894">
        <ele>803</ele>
        <time>2021-08-07T12:01:09.617Z</time>
      </trkpt>
      <trkpt lat="46.91465" lon="8.63896">
        <ele>803</ele>
        <time>2021-08-07T12:01:10.616Z</time>
      </trkpt>
      <trkpt lat="46.91464" lon="8.63895">
        <ele>803</ele>
        <time>2021-08-07T12:01:11.616Z</time>
      </trkpt>
      <trkpt lat="46.91463" lon="8.63894">
        <ele>803</ele>
        <time>2021-08-07T12:01:12.617Z</time>
      </trkpt>
      <trkpt lat="46.91462" lon="8.63893">
        <ele>803</ele>
        <time>2021-08-07T12:01:13.617Z</time>
      </trkpt>
      <trkpt lat="46.91462" lon="8.63892">
        <ele>803</ele>
        <time>2021-08-07T12:01:14.617Z</time>
      </trkpt>
      <trkpt lat="46.91462" lon="8.63891">
        <ele>802</ele>
        <time>2021-08-07T12:01:15.617Z</time>
      </trkpt>
      <trkpt lat="46.91463" lon="8.6389">
        <ele>802</ele>
        <time>2021-08-07T12:01:16.616Z</time>
      </trkpt>
      <trkpt lat="46.91463" lon="8.6389">
        <ele>802</ele>
        <time>2021-08-07T12:01:17.617Z</time>
      </trkpt>
      <trkpt lat="46.91463" lon="8.6389">
        <ele>802</ele>
        <time>2021-08-07T12:01:18.616Z</time>
      </trkpt>
      <trkpt lat="46.91462" lon="8.63889">
        <ele>802</ele>
        <time>2021-08-07T12:01:19.616Z</time>
      </trkpt>
      <trkpt lat="46.91463" lon="8.63888">
        <ele>802</ele>
        <time>2021-08-07T12:01:20.617Z</time>
      </trkpt>
      <trkpt lat="46.91462" lon="8.63886">
        <ele>802</ele>
        <time>2021-08-07T12:01:21.617Z</time>
      </trkpt>
      <trkpt lat="46.91461" lon="8.63884">
        <ele>802</ele>
        <time>2021-08-07T12:01:22.617Z</time>
      </trkpt>
      <trkpt lat="46.91459" lon="8.63883">
        <ele>802</ele>
        <time>2021-08-07T12:01:23.616Z</time>
      </trkpt>
      <trkpt lat="46.91458" lon="8.63881">
        <ele>802</ele>
        <time>2021-08-07T12:01:24.617Z</time>
      </trkpt>
      <trkpt lat="46.91457" lon="8.63881">
        <ele>802</ele>
        <time>2021-08-07T12:01:25.616Z</time>
      </trkpt>
      <trkpt lat="46.91457" lon="8.6388">
        <ele>802</ele>
        <time>2021-08-07T12:01:26.616Z</time>
      </trkpt>
      <trkpt lat="46.91458" lon="8.63879">
        <ele>802</ele>
        <time>2021-08-07T12:01:27.616Z</time>
      </trkpt>
      <trkpt lat="46.9146" lon="8.63877">
        <ele>802</ele>
        <time>2021-08-07T12:01:28.617Z</time>
      </trkpt>
      <trkpt lat="46.9146" lon="8.63875">
        <ele>802</ele>
        <time>2021-08-07T12:01:29.617Z</time>
      </trkpt>
      <trkpt lat="46.91461" lon="8.63873">
        <ele>802</ele>
        <time>2021-08-07T12:01:30.617Z</time>
      </trkpt>
      <trkpt lat="46.91461" lon="8.63871">
        <ele>802</ele>
        <time>2021-08-07T12:01:31.616Z</time>
      </trkpt>
      <trkpt lat="46.9146" lon="8.63867">
        <ele>802</ele>
        <time>2021-08-07T12:01:32.616Z</time>
      </trkpt>
      <trkpt lat="46.9146" lon="8.63866">
        <ele>802</ele>
        <time>2021-08-07T12:01:33.616Z</time>
      </trkpt>
      <trkpt lat="46.91461" lon="8.63866">
        <ele>802</ele>
        <time>2021-08-07T12:01:34.616Z</time>
      </trkpt>
      <trkpt lat="46.91461" lon="8.63867">
        <ele>802</ele>
        <time>2021-08-07T12:01:35.616Z</time>
      </trkpt>
      <trkpt lat="46.91463" lon="8.63867">
        <ele>802</ele>
        <time>2021-08-07T12:01:36.616Z</time>
      </trkpt>
      <trkpt lat="46.91466" lon="8.63867">
        <ele>802</ele>
        <time>2021-08-07T12:01:37.617Z</time>
      </trkpt>
      <trkpt lat="46.91466" lon="8.63867">
        <ele>802</ele>
        <time>2021-08-07T12:01:38.617Z</time>
      </trkpt>
      <trkpt lat="46.91463" lon="8.63867">
        <ele>802</ele>
        <time>2021-08-07T12:01:39.617Z</time>
      </trkpt>
      <trkpt lat="46.9146" lon="8.63865">
        <ele>802</ele>
        <time>2021-08-07T12:01:40.617Z</time>
      </trkpt>
      <trkpt lat="46.91458" lon="8.63861">
        <ele>801</ele>
        <time>2021-08-07T12:01:41.617Z</time>
      </trkpt>
      <trkpt lat="46.91457" lon="8.6386">
        <ele>801</ele>
        <time>2021-08-07T12:01:42.617Z</time>
      </trkpt>
      <trkpt lat="46.91456" lon="8.63859">
        <ele>801</ele>
        <time>2021-08-07T12:01:43.616Z</time>
      </trkpt>
      <trkpt lat="46.91458" lon="8.63858">
        <ele>801</ele>
        <time>2021-08-07T12:01:51.711Z</time>
      </trkpt>
      <trkpt lat="46.91457" lon="8.63856">
        <ele>801</ele>
        <time>2021-08-07T12:01:52.712Z</time>
      </trkpt>
      <trkpt lat="46.91454" lon="8.63856">
        <ele>801</ele>
        <time>2021-08-07T12:01:53.711Z</time>
      </trkpt>
      <trkpt lat="46.91452" lon="8.63858">
        <ele>801</ele>
        <time>2021-08-07T12:01:54.712Z</time>
      </trkpt>
      <trkpt lat="46.91451" lon="8.6386">
        <ele>801</ele>
        <time>2021-08-07T12:01:55.712Z</time>
      </trkpt>
      <trkpt lat="46.91451" lon="8.63859">
        <ele>801</ele>
        <time>2021-08-07T12:01:56.712Z</time>
      </trkpt>
      <trkpt lat="46.9145" lon="8.63857">
        <ele>801</ele>
        <time>2021-08-07T12:01:57.712Z</time>
      </trkpt>
      <trkpt lat="46.91449" lon="8.63856">
        <ele>801</ele>
        <time>2021-08-07T12:01:58.711Z</time>
      </trkpt>
      <trkpt lat="46.91447" lon="8.63854">
        <ele>801</ele>
        <time>2021-08-07T12:01:59.712Z</time>
      </trkpt>
      <trkpt lat="46.91446" lon="8.63853">
        <ele>801</ele>
        <time>2021-08-07T12:02:00.712Z</time>
      </trkpt>
      <trkpt lat="46.91446" lon="8.63854">
        <ele>801</ele>
        <time>2021-08-07T12:02:01.711Z</time>
      </trkpt>
      <trkpt lat="46.91448" lon="8.63854">
        <ele>801</ele>
        <time>2021-08-07T12:02:02.711Z</time>
      </trkpt>
      <trkpt lat="46.91448" lon="8.63853">
        <ele>801</ele>
        <time>2021-08-07T12:02:03.711Z</time>
      </trkpt>
      <trkpt lat="46.91448" lon="8.63852">
        <ele>801</ele>
        <time>2021-08-07T12:02:04.711Z</time>
      </trkpt>
      <trkpt lat="46.91447" lon="8.6385">
        <ele>801</ele>
        <time>2021-08-07T12:02:05.712Z</time>
      </trkpt>
      <trkpt lat="46.91446" lon="8.63847">
        <ele>801</ele>
        <time>2021-08-07T12:02:06.712Z</time>
      </trkpt>
      <trkpt lat="46.91448" lon="8.63846">
        <ele>801</ele>
        <time>2021-08-07T12:02:07.712Z</time>
      </trkpt>
      <trkpt lat="46.9145" lon="8.63846">
        <ele>801</ele>
        <time>2021-08-07T12:02:08.711Z</time>
      </trkpt>
      <trkpt lat="46.91451" lon="8.63845">
        <ele>801</ele>
        <time>2021-08-07T12:02:09.712Z</time>
      </trkpt>
      <trkpt lat="46.91452" lon="8.63843">
        <ele>800</ele>
        <time>2021-08-07T12:02:15.822Z</time>
      </trkpt>
      <trkpt lat="46.91452" lon="8.63842">
        <ele>800</ele>
        <time>2021-08-07T12:02:16.822Z</time>
      </trkpt>
      <trkpt lat="46.91452" lon="8.63843">
        <ele>800</ele>
        <time>2021-08-07T12:02:17.821Z</time>
      </trkpt>
      <trkpt lat="46.9145" lon="8.63844">
        <ele>800</ele>
        <time>2021-08-07T12:02:18.821Z</time>
      </trkpt>
      <trkpt lat="46.9145" lon="8.63844">
        <ele>800</ele>
        <time>2021-08-07T12:02:19.821Z</time>
      </trkpt>
      <trkpt lat="46.91448" lon="8.63844">
        <ele>800</ele>
        <time>2021-08-07T12:02:22.954Z</time>
      </trkpt>
      <trkpt lat="46.91448" lon="8.63846">
        <ele>800</ele>
        <time>2021-08-07T12:02:23.954Z</time>
      </trkpt>
      <trkpt lat="46.91449" lon="8.63846">
        <ele>800</ele>
        <time>2021-08-07T12:02:24.954Z</time>
      </trkpt>
      <trkpt lat="46.91448" lon="8.63846">
        <ele>800</ele>
        <time>2021-08-07T12:02:25.954Z</time>
      </trkpt>
      <trkpt lat="46.91449" lon="8.63846">
        <ele>799</ele>
        <time>2021-08-07T12:02:26.953Z</time>
      </trkpt>
      <trkpt lat="46.9145" lon="8.63846">
        <ele>799</ele>
        <time>2021-08-07T12:02:27.954Z</time>
      </trkpt>
      <trkpt lat="46.91449" lon="8.63845">
        <ele>799</ele>
        <time>2021-08-07T12:02:28.954Z</time>
      </trkpt>
      <trkpt lat="46.91449" lon="8.63845">
        <ele>799</ele>
        <time>2021-08-07T12:02:29.954Z</time>
      </trkpt>
      <trkpt lat="46.91447" lon="8.63844">
        <ele>799</ele>
        <time>2021-08-07T12:02:30.954Z</time>
      </trkpt>
      <trkpt lat="46.91446" lon="8.63845">
        <ele>799</ele>
        <time>2021-08-07T12:02:31.954Z</time>
      </trkpt>
      <trkpt lat="46.91446" lon="8.63845">
        <ele>799</ele>
        <time>2021-08-07T12:02:32.954Z</time>
      </trkpt>
      <trkpt lat="46.91446" lon="8.63846">
        <ele>799</ele>
        <time>2021-08-07T12:02:33.954Z</time>
      </trkpt>
      <trkpt lat="46.91446" lon="8.63845">
        <ele>799</ele>
        <time>2021-08-07T12:02:34.954Z</time>
      </trkpt>
      <trkpt lat="46.91449" lon="8.63843">
        <ele>799</ele>
        <time>2021-08-07T12:02:35.954Z</time>
      </trkpt>
      <trkpt lat="46.91451" lon="8.63841">
        <ele>798</ele>
        <time>2021-08-07T12:02:36.954Z</time>
      </trkpt>
      <trkpt lat="46.91451" lon="8.6384">
        <ele>798</ele>
        <time>2021-08-07T12:02:37.954Z</time>
      </trkpt>
      <trkpt lat="46.91451" lon="8.6384">
        <ele>798</ele>
        <time>2021-08-07T12:02:38.954Z</time>
      </trkpt>
      <trkpt lat="46.91451" lon="8.6384">
        <ele>798</ele>
        <time>2021-08-07T12:02:39.954Z</time>
      </trkpt>
      <trkpt lat="46.9145" lon="8.63839">
        <ele>798</ele>
        <time>2021-08-07T12:02:40.954Z</time>
      </trkpt>
      <trkpt lat="46.9145" lon="8.63838">
        <ele>798</ele>
        <time>2021-08-07T12:02:41.954Z</time>
      </trkpt>
      <trkpt lat="46.9145" lon="8.63837">
        <ele>798</ele>
        <time>2021-08-07T12:02:42.954Z</time>
      </trkpt>
      <trkpt lat="46.91452" lon="8.63837">
        <ele>798</ele>
        <time>2021-08-07T12:02:43.954Z</time>
      </trkpt>
      <trkpt lat="46.91453" lon="8.63837">
        <ele>798</ele>
        <time>2021-08-07T12:02:44.954Z</time>
      </trkpt>
      <trkpt lat="46.91453" lon="8.63835">
        <ele>798</ele>
        <time>2021-08-07T12:02:45.953Z</time>
      </trkpt>
      <trkpt lat="46.91453" lon="8.63834">
        <ele>798</ele>
        <time>2021-08-07T12:02:46.954Z</time>
      </trkpt>
      <trkpt lat="46.91453" lon="8.63833">
        <ele>797</ele>
        <time>2021-08-07T12:02:47.954Z</time>
      </trkpt>
      <trkpt lat="46.91454" lon="8.63833">
        <ele>797</ele>
        <time>2021-08-07T12:02:48.954Z</time>
      </trkpt>
      <trkpt lat="46.91453" lon="8.63834">
        <ele>797</ele>
        <time>2021-08-07T12:02:49.954Z</time>
      </trkpt>
      <trkpt lat="46.91452" lon="8.63834">
        <ele>797</ele>
        <time>2021-08-07T12:02:50.954Z</time>
      </trkpt>
      <trkpt lat="46.91449" lon="8.63836">
        <ele>797</ele>
        <time>2021-08-07T12:02:51.954Z</time>
      </trkpt>
      <trkpt lat="46.91448" lon="8.63836">
        <ele>796</ele>
        <time>2021-08-07T12:02:52.954Z</time>
      </trkpt>
      <trkpt lat="46.91448" lon="8.63836">
        <ele>796</ele>
        <time>2021-08-07T12:02:53.953Z</time>
      </trkpt>
      <trkpt lat="46.91448" lon="8.63835">
        <ele>796</ele>
        <time>2021-08-07T12:02:54.954Z</time>
      </trkpt>
      <trkpt lat="46.91447" lon="8.63834">
        <ele>796</ele>
        <time>2021-08-07T12:02:55.954Z</time>
      </trkpt>
      <trkpt lat="46.91446" lon="8.63834">
        <ele>796</ele>
        <time>2021-08-07T12:02:56.954Z</time>
      </trkpt>
      <trkpt lat="46.91445" lon="8.63834">
        <ele>796</ele>
        <time>2021-08-07T12:02:57.953Z</time>
      </trkpt>
      <trkpt lat="46.91443" lon="8.63833">
        <ele>796</ele>
        <time>2021-08-07T12:02:58.953Z</time>
      </trkpt>
      <trkpt lat="46.91442" lon="8.63832">
        <ele>796</ele>
        <time>2021-08-07T12:02:59.953Z</time>
      </trkpt>
      <trkpt lat="46.91441" lon="8.6383">
        <ele>796</ele>
        <time>2021-08-07T12:03:00.954Z</time>
      </trkpt>
      <trkpt lat="46.9144" lon="8.6383">
        <ele>795</ele>
        <time>2021-08-07T12:03:01.954Z</time>
      </trkpt>
      <trkpt lat="46.91438" lon="8.6383">
        <ele>795</ele>
        <time>2021-08-07T12:03:02.954Z</time>
      </trkpt>
      <trkpt lat="46.91437" lon="8.6383">
        <ele>795</ele>
        <time>2021-08-07T12:03:03.953Z</time>
      </trkpt>
      <trkpt lat="46.91437" lon="8.63829">
        <ele>795</ele>
        <time>2021-08-07T12:03:04.954Z</time>
      </trkpt>
      <trkpt lat="46.91437" lon="8.63827">
        <ele>795</ele>
        <time>2021-08-07T12:03:05.953Z</time>
      </trkpt>
      <trkpt lat="46.91438" lon="8.63826">
        <ele>795</ele>
        <time>2021-08-07T12:03:06.953Z</time>
      </trkpt>
      <trkpt lat="46.91438" lon="8.63825">
        <ele>795</ele>
        <time>2021-08-07T12:03:07.954Z</time>
      </trkpt>
      <trkpt lat="46.91437" lon="8.63825">
        <ele>795</ele>
        <time>2021-08-07T12:03:08.954Z</time>
      </trkpt>
      <trkpt lat="46.91436" lon="8.63824">
        <ele>795</ele>
        <time>2021-08-07T12:03:09.954Z</time>
      </trkpt>
      <trkpt lat="46.91436" lon="8.63824">
        <ele>795</ele>
        <time>2021-08-07T12:03:10.953Z</time>
      </trkpt>
      <trkpt lat="46.91436" lon="8.63823">
        <ele>794</ele>
        <time>2021-08-07T12:03:11.954Z</time>
      </trkpt>
      <trkpt lat="46.91436" lon="8.63821">
        <ele>794</ele>
        <time>2021-08-07T12:03:12.954Z</time>
      </trkpt>
      <trkpt lat="46.91437" lon="8.63818">
        <ele>794</ele>
        <time>2021-08-07T12:03:13.954Z</time>
      </trkpt>
      <trkpt lat="46.91438" lon="8.63816">
        <ele>794</ele>
        <time>2021-08-07T12:03:14.954Z</time>
      </trkpt>
      <trkpt lat="46.91439" lon="8.63813">
        <ele>794</ele>
        <time>2021-08-07T12:03:15.954Z</time>
      </trkpt>
      <trkpt lat="46.91439" lon="8.63812">
        <ele>794</ele>
        <time>2021-08-07T12:03:16.954Z</time>
      </trkpt>
      <trkpt lat="46.91439" lon="8.6381">
        <ele>794</ele>
        <time>2021-08-07T12:03:17.954Z</time>
      </trkpt>
      <trkpt lat="46.91438" lon="8.63809">
        <ele>794</ele>
        <time>2021-08-07T12:03:18.954Z</time>
      </trkpt>
      <trkpt lat="46.91437" lon="8.63807">
        <ele>794</ele>
        <time>2021-08-07T12:03:19.954Z</time>
      </trkpt>
      <trkpt lat="46.91436" lon="8.63806">
        <ele>794</ele>
        <time>2021-08-07T12:03:20.954Z</time>
      </trkpt>
      <trkpt lat="46.91436" lon="8.63806">
        <ele>793</ele>
        <time>2021-08-07T12:03:21.953Z</time>
      </trkpt>
      <trkpt lat="46.91435" lon="8.63805">
        <ele>793</ele>
        <time>2021-08-07T12:03:22.954Z</time>
      </trkpt>
      <trkpt lat="46.91435" lon="8.63805">
        <ele>793</ele>
        <time>2021-08-07T12:03:23.954Z</time>
      </trkpt>
      <trkpt lat="46.91435" lon="8.63804">
        <ele>793</ele>
        <time>2021-08-07T12:03:24.953Z</time>
      </trkpt>
      <trkpt lat="46.91435" lon="8.63804">
        <ele>792</ele>
        <time>2021-08-07T12:03:25.953Z</time>
      </trkpt>
      <trkpt lat="46.91434" lon="8.63804">
        <ele>792</ele>
        <time>2021-08-07T12:03:26.953Z</time>
      </trkpt>
      <trkpt lat="46.91434" lon="8.63803">
        <ele>792</ele>
        <time>2021-08-07T12:03:27.954Z</time>
      </trkpt>
      <trkpt lat="46.91435" lon="8.63802">
        <ele>791</ele>
        <time>2021-08-07T12:03:28.954Z</time>
      </trkpt>
      <trkpt lat="46.91434" lon="8.63801">
        <ele>791</ele>
        <time>2021-08-07T12:03:29.953Z</time>
      </trkpt>
      <trkpt lat="46.91435" lon="8.638">
        <ele>790</ele>
        <time>2021-08-07T12:03:30.954Z</time>
      </trkpt>
      <trkpt lat="46.91436" lon="8.63799">
        <ele>790</ele>
        <time>2021-08-07T12:03:31.954Z</time>
      </trkpt>
      <trkpt lat="46.91435" lon="8.63798">
        <ele>789</ele>
        <time>2021-08-07T12:03:32.953Z</time>
      </trkpt>
      <trkpt lat="46.91435" lon="8.63796">
        <ele>789</ele>
        <time>2021-08-07T12:03:33.953Z</time>
      </trkpt>
      <trkpt lat="46.91435" lon="8.63795">
        <ele>788</ele>
        <time>2021-08-07T12:03:34.953Z</time>
      </trkpt>
      <trkpt lat="46.91436" lon="8.63794">
        <ele>788</ele>
        <time>2021-08-07T12:03:35.953Z</time>
      </trkpt>
      <trkpt lat="46.91437" lon="8.63792">
        <ele>787</ele>
        <time>2021-08-07T12:03:36.953Z</time>
      </trkpt>
      <trkpt lat="46.91437" lon="8.6379">
        <ele>787</ele>
        <time>2021-08-07T12:03:37.953Z</time>
      </trkpt>
      <trkpt lat="46.91438" lon="8.63787">
        <ele>787</ele>
        <time>2021-08-07T12:03:38.953Z</time>
      </trkpt>
      <trkpt lat="46.91438" lon="8.63786">
        <ele>786</ele>
        <time>2021-08-07T12:03:39.953Z</time>
      </trkpt>
      <trkpt lat="46.91438" lon="8.63784">
        <ele>786</ele>
        <time>2021-08-07T12:03:40.954Z</time>
      </trkpt>
      <trkpt lat="46.91437" lon="8.63783">
        <ele>786</ele>
        <time>2021-08-07T12:03:41.954Z</time>
      </trkpt>
      <trkpt lat="46.91437" lon="8.63782">
        <ele>786</ele>
        <time>2021-08-07T12:03:42.954Z</time>
      </trkpt>
      <trkpt lat="46.91437" lon="8.63781">
        <ele>785</ele>
        <time>2021-08-07T12:03:43.954Z</time>
      </trkpt>
      <trkpt lat="46.91436" lon="8.63781">
        <ele>785</ele>
        <time>2021-08-07T12:03:44.954Z</time>
      </trkpt>
      <trkpt lat="46.91436" lon="8.63781">
        <ele>785</ele>
        <time>2021-08-07T12:03:49.093Z</time>
      </trkpt>
      <trkpt lat="46.91436" lon="8.6378">
        <ele>785</ele>
        <time>2021-08-07T12:03:50.092Z</time>
      </trkpt>
      <trkpt lat="46.91436" lon="8.63778">
        <ele>784</ele>
        <time>2021-08-07T12:03:51.093Z</time>
      </trkpt>
      <trkpt lat="46.91436" lon="8.63775">
        <ele>784</ele>
        <time>2021-08-07T12:03:52.093Z</time>
      </trkpt>
      <trkpt lat="46.91436" lon="8.63773">
        <ele>784</ele>
        <time>2021-08-07T12:03:53.093Z</time>
      </trkpt>
      <trkpt lat="46.91436" lon="8.63773">
        <ele>784</ele>
        <time>2021-08-07T12:03:54.092Z</time>
      </trkpt>
      <trkpt lat="46.91435" lon="8.63773">
        <ele>784</ele>
        <time>2021-08-07T12:03:55.093Z</time>
      </trkpt>
      <trkpt lat="46.91436" lon="8.63773">
        <ele>783</ele>
        <time>2021-08-07T12:03:56.093Z</time>
      </trkpt>
      <trkpt lat="46.91441" lon="8.63772">
        <ele>783</ele>
        <time>2021-08-07T12:03:57.094Z</time>
      </trkpt>
      <trkpt lat="46.91442" lon="8.63771">
        <ele>783</ele>
        <time>2021-08-07T12:03:58.093Z</time>
      </trkpt>
      <trkpt lat="46.91443" lon="8.63771">
        <ele>783</ele>
        <time>2021-08-07T12:03:59.094Z</time>
      </trkpt>
      <trkpt lat="46.91443" lon="8.6377">
        <ele>783</ele>
        <time>2021-08-07T12:04:00.094Z</time>
      </trkpt>
      <trkpt lat="46.91444" lon="8.6377">
        <ele>782</ele>
        <time>2021-08-07T12:04:01.094Z</time>
      </trkpt>
      <trkpt lat="46.91444" lon="8.63769">
        <ele>782</ele>
        <time>2021-08-07T12:04:02.094Z</time>
      </trkpt>
      <trkpt lat="46.91443" lon="8.63768">
        <ele>782</ele>
        <time>2021-08-07T12:04:03.094Z</time>
      </trkpt>
      <trkpt lat="46.91443" lon="8.63766">
        <ele>781</ele>
        <time>2021-08-07T12:04:04.094Z</time>
      </trkpt>
      <trkpt lat="46.91442" lon="8.63765">
        <ele>781</ele>
        <time>2021-08-07T12:04:05.094Z</time>
      </trkpt>
      <trkpt lat="46.91442" lon="8.63764">
        <ele>781</ele>
        <time>2021-08-07T12:04:06.094Z</time>
      </trkpt>
      <trkpt lat="46.91441" lon="8.63762">
        <ele>781</ele>
        <time>2021-08-07T12:04:07.094Z</time>
      </trkpt>
      <trkpt lat="46.91441" lon="8.6376">
        <ele>780</ele>
        <time>2021-08-07T12:04:08.094Z</time>
      </trkpt>
      <trkpt lat="46.91441" lon="8.63759">
        <ele>780</ele>
        <time>2021-08-07T12:04:09.093Z</time>
      </trkpt>
      <trkpt lat="46.91441" lon="8.63758">
        <ele>780</ele>
        <time>2021-08-07T12:04:10.093Z</time>
      </trkpt>
      <trkpt lat="46.91441" lon="8.63757">
        <ele>779</ele>
        <time>2021-08-07T12:04:11.094Z</time>
      </trkpt>
      <trkpt lat="46.91441" lon="8.63757">
        <ele>779</ele>
        <time>2021-08-07T12:04:12.093Z</time>
      </trkpt>
      <trkpt lat="46.91441" lon="8.63756">
        <ele>779</ele>
        <time>2021-08-07T12:04:13.094Z</time>
      </trkpt>
      <trkpt lat="46.91441" lon="8.63755">
        <ele>778</ele>
        <time>2021-08-07T12:04:14.094Z</time>
      </trkpt>
      <trkpt lat="46.91441" lon="8.63755">
        <ele>778</ele>
        <time>2021-08-07T12:04:15.094Z</time>
      </trkpt>
      <trkpt lat="46.91441" lon="8.63754">
        <ele>778</ele>
        <time>2021-08-07T12:04:16.093Z</time>
      </trkpt>
      <trkpt lat="46.9144" lon="8.63754">
        <ele>777</ele>
        <time>2021-08-07T12:04:17.094Z</time>
      </trkpt>
      <trkpt lat="46.91439" lon="8.63755">
        <ele>777</ele>
        <time>2021-08-07T12:04:18.094Z</time>
      </trkpt>
      <trkpt lat="46.91438" lon="8.63755">
        <ele>777</ele>
        <time>2021-08-07T12:04:19.094Z</time>
      </trkpt>
      <trkpt lat="46.91438" lon="8.63755">
        <ele>776</ele>
        <time>2021-08-07T12:04:20.094Z</time>
      </trkpt>
      <trkpt lat="46.91439" lon="8.63754">
        <ele>776</ele>
        <time>2021-08-07T12:04:21.094Z</time>
      </trkpt>
      <trkpt lat="46.91439" lon="8.63753">
        <ele>776</ele>
        <time>2021-08-07T12:04:22.094Z</time>
      </trkpt>
      <trkpt lat="46.9144" lon="8.63752">
        <ele>776</ele>
        <time>2021-08-07T12:04:23.093Z</time>
      </trkpt>
      <trkpt lat="46.9144" lon="8.63751">
        <ele>776</ele>
        <time>2021-08-07T12:04:24.094Z</time>
      </trkpt>
      <trkpt lat="46.91441" lon="8.6375">
        <ele>775</ele>
        <time>2021-08-07T12:04:25.094Z</time>
      </trkpt>
      <trkpt lat="46.91441" lon="8.6375">
        <ele>775</ele>
        <time>2021-08-07T12:04:26.093Z</time>
      </trkpt>
      <trkpt lat="46.9144" lon="8.63751">
        <ele>775</ele>
        <time>2021-08-07T12:04:27.094Z</time>
      </trkpt>
      <trkpt lat="46.9144" lon="8.63751">
        <ele>775</ele>
        <time>2021-08-07T12:04:28.094Z</time>
      </trkpt>
      <trkpt lat="46.91439" lon="8.63751">
        <ele>775</ele>
        <time>2021-08-07T12:04:29.094Z</time>
      </trkpt>
      <trkpt lat="46.91439" lon="8.63751">
        <ele>774</ele>
        <time>2021-08-07T12:04:30.094Z</time>
      </trkpt>
      <trkpt lat="46.91439" lon="8.63751">
        <ele>774</ele>
        <time>2021-08-07T12:04:31.094Z</time>
      </trkpt>
      <trkpt lat="46.91437" lon="8.63751">
        <ele>772</ele>
        <time>2021-08-07T12:04:32.094Z</time>
      </trkpt>
      <trkpt lat="46.91436" lon="8.63751">
        <ele>771</ele>
        <time>2021-08-07T12:04:33.094Z</time>
      </trkpt>
      <trkpt lat="46.91436" lon="8.63751">
        <ele>769</ele>
        <time>2021-08-07T12:04:34.094Z</time>
      </trkpt>
      <trkpt lat="46.91435" lon="8.63751">
        <ele>766</ele>
        <time>2021-08-07T12:04:35.093Z</time>
      </trkpt>
      <trkpt lat="46.91434" lon="8.63751">
        <ele>763</ele>
        <time>2021-08-07T12:04:36.094Z</time>
      </trkpt>
      <trkpt lat="46.91432" lon="8.63751">
        <ele>761</ele>
        <time>2021-08-07T12:04:37.094Z</time>
      </trkpt>
      <trkpt lat="46.91431" lon="8.63751">
        <ele>759</ele>
        <time>2021-08-07T12:04:38.094Z</time>
      </trkpt>
      <trkpt lat="46.9143" lon="8.6375">
        <ele>757</ele>
        <time>2021-08-07T12:04:39.094Z</time>
      </trkpt>
      <trkpt lat="46.9143" lon="8.6375">
        <ele>754</ele>
        <time>2021-08-07T12:04:40.094Z</time>
      </trkpt>
      <trkpt lat="46.91429" lon="8.6375">
        <ele>752</ele>
        <time>2021-08-07T12:04:41.093Z</time>
      </trkpt>
      <trkpt lat="46.91429" lon="8.6375">
        <ele>749</ele>
        <time>2021-08-07T12:04:42.094Z</time>
      </trkpt>
      <trkpt lat="46.91428" lon="8.63749">
        <ele>747</ele>
        <time>2021-08-07T12:04:43.094Z</time>
      </trkpt>
      <trkpt lat="46.91427" lon="8.63749">
        <ele>744</ele>
        <time>2021-08-07T12:04:44.093Z</time>
      </trkpt>
      <trkpt lat="46.91426" lon="8.6375">
        <ele>742</ele>
        <time>2021-08-07T12:04:45.093Z</time>
      </trkpt>
      <trkpt lat="46.91426" lon="8.6375">
        <ele>740</ele>
        <time>2021-08-07T12:04:46.094Z</time>
      </trkpt>
      <trkpt lat="46.91427" lon="8.6375">
        <ele>738</ele>
        <time>2021-08-07T12:04:47.094Z</time>
      </trkpt>
      <trkpt lat="46.91428" lon="8.6375">
        <ele>736</ele>
        <time>2021-08-07T12:04:48.094Z</time>
      </trkpt>
      <trkpt lat="46.91428" lon="8.6375">
        <ele>735</ele>
        <time>2021-08-07T12:04:49.094Z</time>
      </trkpt>
      <trkpt lat="46.91435" lon="8.63744">
        <ele>730</ele>
        <time>2021-08-07T12:04:50.094Z</time>
      </trkpt>
      <trkpt lat="46.91436" lon="8.63742">
        <ele>729</ele>
        <time>2021-08-07T12:04:51.094Z</time>
      </trkpt>
      <trkpt lat="46.91438" lon="8.63742">
        <ele>728</ele>
        <time>2021-08-07T12:04:52.094Z</time>
      </trkpt>
      <trkpt lat="46.91439" lon="8.63742">
        <ele>728</ele>
        <time>2021-08-07T12:04:53.093Z</time>
      </trkpt>
      <trkpt lat="46.9144" lon="8.63742">
        <ele>727</ele>
        <time>2021-08-07T12:04:54.093Z</time>
      </trkpt>
      <trkpt lat="46.9144" lon="8.63743">
        <ele>727</ele>
        <time>2021-08-07T12:04:55.094Z</time>
      </trkpt>
      <trkpt lat="46.91439" lon="8.63743">
        <ele>726</ele>
        <time>2021-08-07T12:04:56.094Z</time>
      </trkpt>
      <trkpt lat="46.91437" lon="8.63743">
        <ele>726</ele>
        <time>2021-08-07T12:04:57.094Z</time>
      </trkpt>
      <trkpt lat="46.91437" lon="8.63742">
        <ele>725</ele>
        <time>2021-08-07T12:04:58.093Z</time>
      </trkpt>
      <trkpt lat="46.91437" lon="8.63741">
        <ele>725</ele>
        <time>2021-08-07T12:04:59.093Z</time>
      </trkpt>
      <trkpt lat="46.91436" lon="8.63739">
        <ele>724</ele>
        <time>2021-08-07T12:05:00.094Z</time>
      </trkpt>
      <trkpt lat="46.91436" lon="8.63738">
        <ele>724</ele>
        <time>2021-08-07T12:05:01.094Z</time>
      </trkpt>
      <trkpt lat="46.91435" lon="8.63736">
        <ele>724</ele>
        <time>2021-08-07T12:05:02.094Z</time>
      </trkpt>
      <trkpt lat="46.91436" lon="8.63735">
        <ele>724</ele>
        <time>2021-08-07T12:05:03.094Z</time>
      </trkpt>
      <trkpt lat="46.91436" lon="8.63735">
        <ele>724</ele>
        <time>2021-08-07T12:05:04.093Z</time>
      </trkpt>
      <trkpt lat="46.91437" lon="8.63734">
        <ele>724</ele>
        <time>2021-08-07T12:05:05.093Z</time>
      </trkpt>
      <trkpt lat="46.91439" lon="8.63735">
        <ele>724</ele>
        <time>2021-08-07T12:05:06.094Z</time>
      </trkpt>
      <trkpt lat="46.91439" lon="8.63735">
        <ele>724</ele>
        <time>2021-08-07T12:05:07.094Z</time>
      </trkpt>
      <trkpt lat="46.9144" lon="8.63734">
        <ele>725</ele>
        <time>2021-08-07T12:05:08.094Z</time>
      </trkpt>
      <trkpt lat="46.9144" lon="8.63733">
        <ele>725</ele>
        <time>2021-08-07T12:05:09.093Z</time>
      </trkpt>
      <trkpt lat="46.9144" lon="8.63732">
        <ele>724</ele>
        <time>2021-08-07T12:05:10.094Z</time>
      </trkpt>
      <trkpt lat="46.91441" lon="8.63732">
        <ele>724</ele>
        <time>2021-08-07T12:05:11.094Z</time>
      </trkpt>
      <trkpt lat="46.91442" lon="8.63731">
        <ele>724</ele>
        <time>2021-08-07T12:05:12.094Z</time>
      </trkpt>
      <trkpt lat="46.91443" lon="8.63732">
        <ele>724</ele>
        <time>2021-08-07T12:05:19.208Z</time>
      </trkpt>
      <trkpt lat="46.91443" lon="8.63733">
        <ele>724</ele>
        <time>2021-08-07T12:05:20.209Z</time>
      </trkpt>
      <trkpt lat="46.91444" lon="8.63733">
        <ele>724</ele>
        <time>2021-08-07T12:05:26.065Z</time>
      </trkpt>
      <trkpt lat="46.91445" lon="8.63733">
        <ele>725</ele>
        <time>2021-08-07T12:05:27.065Z</time>
      </trkpt>
      <trkpt lat="46.91447" lon="8.63733">
        <ele>725</ele>
        <time>2021-08-07T12:05:28.064Z</time>
      </trkpt>
      <trkpt lat="46.91448" lon="8.63733">
        <ele>725</ele>
        <time>2021-08-07T12:05:29.065Z</time>
      </trkpt>
      <trkpt lat="46.91449" lon="8.63733">
        <ele>725</ele>
        <time>2021-08-07T12:05:30.065Z</time>
      </trkpt>
      <trkpt lat="46.91449" lon="8.63732">
        <ele>725</ele>
        <time>2021-08-07T12:05:31.064Z</time>
      </trkpt>
      <trkpt lat="46.91448" lon="8.63731">
        <ele>725</ele>
        <time>2021-08-07T12:05:32.064Z</time>
      </trkpt>
      <trkpt lat="46.91448" lon="8.6373">
        <ele>726</ele>
        <time>2021-08-07T12:05:33.065Z</time>
      </trkpt>
      <trkpt lat="46.91449" lon="8.63728">
        <ele>726</ele>
        <time>2021-08-07T12:05:34.064Z</time>
      </trkpt>
      <trkpt lat="46.91449" lon="8.63727">
        <ele>726</ele>
        <time>2021-08-07T12:05:35.065Z</time>
      </trkpt>
      <trkpt lat="46.91449" lon="8.63725">
        <ele>726</ele>
        <time>2021-08-07T12:05:36.065Z</time>
      </trkpt>
      <trkpt lat="46.91449" lon="8.63723">
        <ele>727</ele>
        <time>2021-08-07T12:05:37.065Z</time>
      </trkpt>
      <trkpt lat="46.9145" lon="8.63721">
        <ele>727</ele>
        <time>2021-08-07T12:05:38.065Z</time>
      </trkpt>
      <trkpt lat="46.9145" lon="8.63719">
        <ele>727</ele>
        <time>2021-08-07T12:05:39.065Z</time>
      </trkpt>
      <trkpt lat="46.91451" lon="8.63718">
        <ele>727</ele>
        <time>2021-08-07T12:05:40.064Z</time>
      </trkpt>
      <trkpt lat="46.91451" lon="8.63717">
        <ele>727</ele>
        <time>2021-08-07T12:05:41.064Z</time>
      </trkpt>
      <trkpt lat="46.91451" lon="8.63716">
        <ele>727</ele>
        <time>2021-08-07T12:05:42.064Z</time>
      </trkpt>
      <trkpt lat="46.91452" lon="8.63715">
        <ele>727</ele>
        <time>2021-08-07T12:05:43.065Z</time>
      </trkpt>
      <trkpt lat="46.91453" lon="8.63716">
        <ele>727</ele>
        <time>2021-08-07T12:05:44.064Z</time>
      </trkpt>
      <trkpt lat="46.91454" lon="8.63716">
        <ele>727</ele>
        <time>2021-08-07T12:05:45.065Z</time>
      </trkpt>
      <trkpt lat="46.91455" lon="8.63715">
        <ele>727</ele>
        <time>2021-08-07T12:05:46.065Z</time>
      </trkpt>
      <trkpt lat="46.91456" lon="8.63715">
        <ele>727</ele>
        <time>2021-08-07T12:05:47.064Z</time>
      </trkpt>
      <trkpt lat="46.91457" lon="8.63715">
        <ele>726</ele>
        <time>2021-08-07T12:05:48.064Z</time>
      </trkpt>
      <trkpt lat="46.91458" lon="8.63714">
        <ele>727</ele>
        <time>2021-08-07T12:05:49.065Z</time>
      </trkpt>
      <trkpt lat="46.91458" lon="8.63712">
        <ele>727</ele>
        <time>2021-08-07T12:05:50.065Z</time>
      </trkpt>
      <trkpt lat="46.91459" lon="8.63711">
        <ele>727</ele>
        <time>2021-08-07T12:05:51.064Z</time>
      </trkpt>
      <trkpt lat="46.91459" lon="8.63711">
        <ele>727</ele>
        <time>2021-08-07T12:05:52.064Z</time>
      </trkpt>
      <trkpt lat="46.91459" lon="8.6371">
        <ele>727</ele>
        <time>2021-08-07T12:05:53.064Z</time>
      </trkpt>
      <trkpt lat="46.91459" lon="8.6371">
        <ele>727</ele>
        <time>2021-08-07T12:05:54.065Z</time>
      </trkpt>
      <trkpt lat="46.91459" lon="8.6371">
        <ele>727</ele>
        <time>2021-08-07T12:05:55.065Z</time>
      </trkpt>
      <trkpt lat="46.91459" lon="8.63709">
        <ele>728</ele>
        <time>2021-08-07T12:05:56.064Z</time>
      </trkpt>
      <trkpt lat="46.91459" lon="8.63708">
        <ele>728</ele>
        <time>2021-08-07T12:05:57.064Z</time>
      </trkpt>
      <trkpt lat="46.91459" lon="8.63705">
        <ele>727</ele>
        <time>2021-08-07T12:05:58.065Z</time>
      </trkpt>
      <trkpt lat="46.91458" lon="8.63703">
        <ele>727</ele>
        <time>2021-08-07T12:05:59.065Z</time>
      </trkpt>
      <trkpt lat="46.91458" lon="8.63701">
        <ele>727</ele>
        <time>2021-08-07T12:06:00.065Z</time>
      </trkpt>
      <trkpt lat="46.91459" lon="8.637">
        <ele>727</ele>
        <time>2021-08-07T12:06:01.065Z</time>
      </trkpt>
      <trkpt lat="46.91459" lon="8.637">
        <ele>727</ele>
        <time>2021-08-07T12:06:02.064Z</time>
      </trkpt>
      <trkpt lat="46.91459" lon="8.637">
        <ele>727</ele>
        <time>2021-08-07T12:06:03.065Z</time>
      </trkpt>
      <trkpt lat="46.91459" lon="8.63695">
        <ele>727</ele>
        <time>2021-08-07T12:06:04.065Z</time>
      </trkpt>
      <trkpt lat="46.9146" lon="8.63695">
        <ele>727</ele>
        <time>2021-08-07T12:06:05.065Z</time>
      </trkpt>
      <trkpt lat="46.9146" lon="8.63694">
        <ele>727</ele>
        <time>2021-08-07T12:06:06.064Z</time>
      </trkpt>
      <trkpt lat="46.91461" lon="8.63694">
        <ele>727</ele>
        <time>2021-08-07T12:06:07.065Z</time>
      </trkpt>
      <trkpt lat="46.91461" lon="8.63692">
        <ele>727</ele>
        <time>2021-08-07T12:06:08.065Z</time>
      </trkpt>
      <trkpt lat="46.91462" lon="8.6369">
        <ele>727</ele>
        <time>2021-08-07T12:06:09.065Z</time>
      </trkpt>
      <trkpt lat="46.91462" lon="8.63688">
        <ele>727</ele>
        <time>2021-08-07T12:06:10.065Z</time>
      </trkpt>
      <trkpt lat="46.91463" lon="8.63686">
        <ele>727</ele>
        <time>2021-08-07T12:06:11.065Z</time>
      </trkpt>
      <trkpt lat="46.91463" lon="8.63683">
        <ele>728</ele>
        <time>2021-08-07T12:06:12.065Z</time>
      </trkpt>
      <trkpt lat="46.91462" lon="8.63679">
        <ele>728</ele>
        <time>2021-08-07T12:06:13.064Z</time>
      </trkpt>
      <trkpt lat="46.91462" lon="8.63676">
        <ele>728</ele>
        <time>2021-08-07T12:06:14.065Z</time>
      </trkpt>
      <trkpt lat="46.91462" lon="8.63674">
        <ele>728</ele>
        <time>2021-08-07T12:06:15.065Z</time>
      </trkpt>
      <trkpt lat="46.91462" lon="8.63671">
        <ele>728</ele>
        <time>2021-08-07T12:06:16.065Z</time>
      </trkpt>
      <trkpt lat="46.91463" lon="8.63669">
        <ele>729</ele>
        <time>2021-08-07T12:06:17.064Z</time>
      </trkpt>
      <trkpt lat="46.91463" lon="8.63667">
        <ele>729</ele>
        <time>2021-08-07T12:06:18.064Z</time>
      </trkpt>
      <trkpt lat="46.91464" lon="8.63665">
        <ele>729</ele>
        <time>2021-08-07T12:06:19.065Z</time>
      </trkpt>
      <trkpt lat="46.91464" lon="8.63663">
        <ele>730</ele>
        <time>2021-08-07T12:06:20.065Z</time>
      </trkpt>
      <trkpt lat="46.91465" lon="8.63662">
        <ele>730</ele>
        <time>2021-08-07T12:06:21.065Z</time>
      </trkpt>
      <trkpt lat="46.91466" lon="8.63661">
        <ele>731</ele>
        <time>2021-08-07T12:06:22.064Z</time>
      </trkpt>
      <trkpt lat="46.91466" lon="8.6366">
        <ele>731</ele>
        <time>2021-08-07T12:06:23.064Z</time>
      </trkpt>
      <trkpt lat="46.91467" lon="8.63659">
        <ele>731</ele>
        <time>2021-08-07T12:06:24.064Z</time>
      </trkpt>
      <trkpt lat="46.91468" lon="8.63659">
        <ele>732</ele>
        <time>2021-08-07T12:06:25.065Z</time>
      </trkpt>
      <trkpt lat="46.91469" lon="8.63658">
        <ele>732</ele>
        <time>2021-08-07T12:06:26.065Z</time>
      </trkpt>
      <trkpt lat="46.91471" lon="8.63657">
        <ele>732</ele>
        <time>2021-08-07T12:06:27.064Z</time>
      </trkpt>
      <trkpt lat="46.91472" lon="8.63656">
        <ele>733</ele>
        <time>2021-08-07T12:06:28.065Z</time>
      </trkpt>
      <trkpt lat="46.91472" lon="8.63655">
        <ele>733</ele>
        <time>2021-08-07T12:06:29.064Z</time>
      </trkpt>
      <trkpt lat="46.91473" lon="8.63654">
        <ele>733</ele>
        <time>2021-08-07T12:06:30.065Z</time>
      </trkpt>
      <trkpt lat="46.91474" lon="8.63653">
        <ele>734</ele>
        <time>2021-08-07T12:06:31.065Z</time>
      </trkpt>
      <trkpt lat="46.91475" lon="8.63651">
        <ele>734</ele>
        <time>2021-08-07T12:06:32.065Z</time>
      </trkpt>
      <trkpt lat="46.91476" lon="8.63649">
        <ele>734</ele>
        <time>2021-08-07T12:06:33.065Z</time>
      </trkpt>
      <trkpt lat="46.91477" lon="8.63647">
        <ele>734</ele>
        <time>2021-08-07T12:06:34.065Z</time>
      </trkpt>
      <trkpt lat="46.91478" lon="8.63644">
        <ele>735</ele>
        <time>2021-08-07T12:06:35.065Z</time>
      </trkpt>
      <trkpt lat="46.91479" lon="8.63642">
        <ele>735</ele>
        <time>2021-08-07T12:06:36.064Z</time>
      </trkpt>
      <trkpt lat="46.91478" lon="8.63641">
        <ele>735</ele>
        <time>2021-08-07T12:06:37.064Z</time>
      </trkpt>
      <trkpt lat="46.91478" lon="8.63641">
        <ele>735</ele>
        <time>2021-08-07T12:06:38.065Z</time>
      </trkpt>
      <trkpt lat="46.91478" lon="8.63638">
        <ele>734</ele>
        <time>2021-08-07T12:06:39.064Z</time>
      </trkpt>
      <trkpt lat="46.91477" lon="8.63636">
        <ele>734</ele>
        <time>2021-08-07T12:06:40.064Z</time>
      </trkpt>
      <trkpt lat="46.91477" lon="8.63633">
        <ele>734</ele>
        <time>2021-08-07T12:06:41.064Z</time>
      </trkpt>
      <trkpt lat="46.91477" lon="8.63631">
        <ele>733</ele>
        <time>2021-08-07T12:06:42.065Z</time>
      </trkpt>
      <trkpt lat="46.91478" lon="8.63629">
        <ele>732</ele>
        <time>2021-08-07T12:06:43.065Z</time>
      </trkpt>
      <trkpt lat="46.91479" lon="8.63628">
        <ele>732</ele>
        <time>2021-08-07T12:06:44.064Z</time>
      </trkpt>
      <trkpt lat="46.9148" lon="8.63628">
        <ele>731</ele>
        <time>2021-08-07T12:06:45.065Z</time>
      </trkpt>
      <trkpt lat="46.91481" lon="8.63628">
        <ele>731</ele>
        <time>2021-08-07T12:06:46.064Z</time>
      </trkpt>
      <trkpt lat="46.91482" lon="8.63628">
        <ele>731</ele>
        <time>2021-08-07T12:06:47.065Z</time>
      </trkpt>
      <trkpt lat="46.91483" lon="8.63628">
        <ele>730</ele>
        <time>2021-08-07T12:06:48.064Z</time>
      </trkpt>
      <trkpt lat="46.91483" lon="8.63627">
        <ele>729</ele>
        <time>2021-08-07T12:06:50.168Z</time>
      </trkpt>
      <trkpt lat="46.91482" lon="8.63625">
        <ele>729</ele>
        <time>2021-08-07T12:06:51.168Z</time>
      </trkpt>
      <trkpt lat="46.91481" lon="8.63623">
        <ele>728</ele>
        <time>2021-08-07T12:06:52.168Z</time>
      </trkpt>
      <trkpt lat="46.91481" lon="8.63622">
        <ele>727</ele>
        <time>2021-08-07T12:06:53.167Z</time>
      </trkpt>
      <trkpt lat="46.91481" lon="8.63622">
        <ele>726</ele>
        <time>2021-08-07T12:06:59.308Z</time>
      </trkpt>
      <trkpt lat="46.91482" lon="8.63623">
        <ele>726</ele>
        <time>2021-08-07T12:07:00.308Z</time>
      </trkpt>
      <trkpt lat="46.91483" lon="8.63624">
        <ele>725</ele>
        <time>2021-08-07T12:07:05.183Z</time>
      </trkpt>
      <trkpt lat="46.91483" lon="8.63624">
        <ele>724</ele>
        <time>2021-08-07T12:07:18.054Z</time>
      </trkpt>
      <trkpt lat="46.91483" lon="8.63624">
        <ele>723</ele>
        <time>2021-08-07T12:07:19.054Z</time>
      </trkpt>
      <trkpt lat="46.91482" lon="8.63623">
        <ele>722</ele>
        <time>2021-08-07T12:07:20.055Z</time>
      </trkpt>
      <trkpt lat="46.91481" lon="8.63622">
        <ele>721</ele>
        <time>2021-08-07T12:07:21.054Z</time>
      </trkpt>
      <trkpt lat="46.91481" lon="8.63622">
        <ele>721</ele>
        <time>2021-08-07T12:07:22.055Z</time>
      </trkpt>
      <trkpt lat="46.91481" lon="8.63622">
        <ele>720</ele>
        <time>2021-08-07T12:07:23.055Z</time>
      </trkpt>
      <trkpt lat="46.9148" lon="8.63621">
        <ele>719</ele>
        <time>2021-08-07T12:07:24.056Z</time>
      </trkpt>
      <trkpt lat="46.91479" lon="8.6362">
        <ele>718</ele>
        <time>2021-08-07T12:07:25.055Z</time>
      </trkpt>
      <trkpt lat="46.91479" lon="8.63619">
        <ele>718</ele>
        <time>2021-08-07T12:07:26.055Z</time>
      </trkpt>
      <trkpt lat="46.91479" lon="8.63619">
        <ele>717</ele>
        <time>2021-08-07T12:07:34.216Z</time>
      </trkpt>
      <trkpt lat="46.91479" lon="8.63619">
        <ele>715</ele>
        <time>2021-08-07T12:07:35.216Z</time>
      </trkpt>
      <trkpt lat="46.91479" lon="8.63619">
        <ele>714</ele>
        <time>2021-08-07T12:07:41.056Z</time>
      </trkpt>
      <trkpt lat="46.91479" lon="8.6362">
        <ele>712</ele>
        <time>2021-08-07T12:07:42.057Z</time>
      </trkpt>
      <trkpt lat="46.9148" lon="8.63621">
        <ele>711</ele>
        <time>2021-08-07T12:07:49.943Z</time>
      </trkpt>
      <trkpt lat="46.9148" lon="8.63621">
        <ele>710</ele>
        <time>2021-08-07T12:07:50.943Z</time>
      </trkpt>
      <trkpt lat="46.9148" lon="8.63621">
        <ele>709</ele>
        <time>2021-08-07T12:07:51.943Z</time>
      </trkpt>
      <trkpt lat="46.91481" lon="8.63621">
        <ele>707</ele>
        <time>2021-08-07T12:07:52.944Z</time>
      </trkpt>
      <trkpt lat="46.9148" lon="8.6362">
        <ele>706</ele>
        <time>2021-08-07T12:07:53.943Z</time>
      </trkpt>
      <trkpt lat="46.9148" lon="8.63618">
        <ele>706</ele>
        <time>2021-08-07T12:07:54.943Z</time>
      </trkpt>
      <trkpt lat="46.91479" lon="8.63617">
        <ele>706</ele>
        <time>2021-08-07T12:08:10.059Z</time>
      </trkpt>
      <trkpt lat="46.91479" lon="8.63616">
        <ele>706</ele>
        <time>2021-08-07T12:08:11.060Z</time>
      </trkpt>
      <trkpt lat="46.91479" lon="8.63615">
        <ele>706</ele>
        <time>2021-08-07T12:08:12.059Z</time>
      </trkpt>
      <trkpt lat="46.91479" lon="8.63614">
        <ele>707</ele>
        <time>2021-08-07T12:08:13.059Z</time>
      </trkpt>
      <trkpt lat="46.91479" lon="8.63613">
        <ele>707</ele>
        <time>2021-08-07T12:08:14.059Z</time>
      </trkpt>
      <trkpt lat="46.91479" lon="8.63611">
        <ele>707</ele>
        <time>2021-08-07T12:08:15.059Z</time>
      </trkpt>
      <trkpt lat="46.91478" lon="8.63609">
        <ele>706</ele>
        <time>2021-08-07T12:08:16.059Z</time>
      </trkpt>
      <trkpt lat="46.91478" lon="8.63608">
        <ele>705</ele>
        <time>2021-08-07T12:08:17.059Z</time>
      </trkpt>
      <trkpt lat="46.91478" lon="8.63607">
        <ele>705</ele>
        <time>2021-08-07T12:08:18.060Z</time>
      </trkpt>
      <trkpt lat="46.91478" lon="8.63606">
        <ele>704</ele>
        <time>2021-08-07T12:08:19.059Z</time>
      </trkpt>
      <trkpt lat="46.91478" lon="8.63605">
        <ele>704</ele>
        <time>2021-08-07T12:08:20.059Z</time>
      </trkpt>
      <trkpt lat="46.91478" lon="8.63604">
        <ele>704</ele>
        <time>2021-08-07T12:08:21.059Z</time>
      </trkpt>
      <trkpt lat="46.91478" lon="8.63603">
        <ele>703</ele>
        <time>2021-08-07T12:08:22.059Z</time>
      </trkpt>
      <trkpt lat="46.91478" lon="8.63603">
        <ele>703</ele>
        <time>2021-08-07T12:08:23.059Z</time>
      </trkpt>
      <trkpt lat="46.91478" lon="8.63604">
        <ele>703</ele>
        <time>2021-08-07T12:08:24.060Z</time>
      </trkpt>
      <trkpt lat="46.91479" lon="8.63604">
        <ele>703</ele>
        <time>2021-08-07T12:08:25.059Z</time>
      </trkpt>
      <trkpt lat="46.91479" lon="8.63604">
        <ele>703</ele>
        <time>2021-08-07T12:08:26.059Z</time>
      </trkpt>
      <trkpt lat="46.9148" lon="8.63604">
        <ele>703</ele>
        <time>2021-08-07T12:08:27.059Z</time>
      </trkpt>
      <trkpt lat="46.9148" lon="8.63603">
        <ele>702</ele>
        <time>2021-08-07T12:08:28.060Z</time>
      </trkpt>
      <trkpt lat="46.91481" lon="8.63602">
        <ele>702</ele>
        <time>2021-08-07T12:08:29.060Z</time>
      </trkpt>
      <trkpt lat="46.91481" lon="8.63602">
        <ele>702</ele>
        <time>2021-08-07T12:08:30.060Z</time>
      </trkpt>
      <trkpt lat="46.91481" lon="8.63601">
        <ele>702</ele>
        <time>2021-08-07T12:08:31.060Z</time>
      </trkpt>
      <trkpt lat="46.91481" lon="8.636">
        <ele>702</ele>
        <time>2021-08-07T12:08:32.059Z</time>
      </trkpt>
      <trkpt lat="46.9148" lon="8.636">
        <ele>702</ele>
        <time>2021-08-07T12:08:33.059Z</time>
      </trkpt>
      <trkpt lat="46.9148" lon="8.63599">
        <ele>702</ele>
        <time>2021-08-07T12:08:34.059Z</time>
      </trkpt>
      <trkpt lat="46.9148" lon="8.63598">
        <ele>701</ele>
        <time>2021-08-07T12:08:35.059Z</time>
      </trkpt>
      <trkpt lat="46.9148" lon="8.63597">
        <ele>701</ele>
        <time>2021-08-07T12:08:36.060Z</time>
      </trkpt>
      <trkpt lat="46.9148" lon="8.63596">
        <ele>701</ele>
        <time>2021-08-07T12:08:37.059Z</time>
      </trkpt>
      <trkpt lat="46.9148" lon="8.63595">
        <ele>701</ele>
        <time>2021-08-07T12:08:38.060Z</time>
      </trkpt>
      <trkpt lat="46.91481" lon="8.63595">
        <ele>701</ele>
        <time>2021-08-07T12:08:39.060Z</time>
      </trkpt>
      <trkpt lat="46.91482" lon="8.63591">
        <ele>701</ele>
        <time>2021-08-07T12:08:40.059Z</time>
      </trkpt>
      <trkpt lat="46.91482" lon="8.63589">
        <ele>701</ele>
        <time>2021-08-07T12:08:41.060Z</time>
      </trkpt>
      <trkpt lat="46.91481" lon="8.63588">
        <ele>701</ele>
        <time>2021-08-07T12:08:42.059Z</time>
      </trkpt>
      <trkpt lat="46.91481" lon="8.63587">
        <ele>702</ele>
        <time>2021-08-07T12:08:43.059Z</time>
      </trkpt>
      <trkpt lat="46.91481" lon="8.63587">
        <ele>702</ele>
        <time>2021-08-07T12:08:44.059Z</time>
      </trkpt>
      <trkpt lat="46.91478" lon="8.63578">
        <ele>703</ele>
        <time>2021-08-07T12:08:45.060Z</time>
      </trkpt>
      <trkpt lat="46.91478" lon="8.63577">
        <ele>703</ele>
        <time>2021-08-07T12:08:46.059Z</time>
      </trkpt>
      <trkpt lat="46.91477" lon="8.63577">
        <ele>703</ele>
        <time>2021-08-07T12:08:47.059Z</time>
      </trkpt>
      <trkpt lat="46.91477" lon="8.63576">
        <ele>704</ele>
        <time>2021-08-07T12:08:48.059Z</time>
      </trkpt>
      <trkpt lat="46.91478" lon="8.63576">
        <ele>704</ele>
        <time>2021-08-07T12:08:49.060Z</time>
      </trkpt>
      <trkpt lat="46.91478" lon="8.63576">
        <ele>705</ele>
        <time>2021-08-07T12:08:50.060Z</time>
      </trkpt>
      <trkpt lat="46.91478" lon="8.63576">
        <ele>705</ele>
        <time>2021-08-07T12:08:51.059Z</time>
      </trkpt>
      <trkpt lat="46.91477" lon="8.63575">
        <ele>705</ele>
        <time>2021-08-07T12:08:52.059Z</time>
      </trkpt>
      <trkpt lat="46.91477" lon="8.63575">
        <ele>705</ele>
        <time>2021-08-07T12:08:53.060Z</time>
      </trkpt>
      <trkpt lat="46.91477" lon="8.63575">
        <ele>706</ele>
        <time>2021-08-07T12:08:54.059Z</time>
      </trkpt>
      <trkpt lat="46.91478" lon="8.63573">
        <ele>706</ele>
        <time>2021-08-07T12:08:55.061Z</time>
      </trkpt>
      <trkpt lat="46.91478" lon="8.63573">
        <ele>707</ele>
        <time>2021-08-07T12:08:56.060Z</time>
      </trkpt>
      <trkpt lat="46.91479" lon="8.63571">
        <ele>707</ele>
        <time>2021-08-07T12:08:57.060Z</time>
      </trkpt>
      <trkpt lat="46.9148" lon="8.6357">
        <ele>707</ele>
        <time>2021-08-07T12:08:58.061Z</time>
      </trkpt>
      <trkpt lat="46.91481" lon="8.63569">
        <ele>708</ele>
        <time>2021-08-07T12:08:59.061Z</time>
      </trkpt>
      <trkpt lat="46.91482" lon="8.63567">
        <ele>708</ele>
        <time>2021-08-07T12:09:00.060Z</time>
      </trkpt>
      <trkpt lat="46.91483" lon="8.63565">
        <ele>708</ele>
        <time>2021-08-07T12:09:01.060Z</time>
      </trkpt>
      <trkpt lat="46.91483" lon="8.63563">
        <ele>708</ele>
        <time>2021-08-07T12:09:02.060Z</time>
      </trkpt>
      <trkpt lat="46.91483" lon="8.63561">
        <ele>709</ele>
        <time>2021-08-07T12:09:03.060Z</time>
      </trkpt>
      <trkpt lat="46.91483" lon="8.63559">
        <ele>709</ele>
        <time>2021-08-07T12:09:04.061Z</time>
      </trkpt>
      <trkpt lat="46.91483" lon="8.63558">
        <ele>709</ele>
        <time>2021-08-07T12:09:05.061Z</time>
      </trkpt>
      <trkpt lat="46.91484" lon="8.63557">
        <ele>709</ele>
        <time>2021-08-07T12:09:06.061Z</time>
      </trkpt>
      <trkpt lat="46.91485" lon="8.63556">
        <ele>709</ele>
        <time>2021-08-07T12:09:07.061Z</time>
      </trkpt>
      <trkpt lat="46.91485" lon="8.63556">
        <ele>709</ele>
        <time>2021-08-07T12:09:08.061Z</time>
      </trkpt>
      <trkpt lat="46.91486" lon="8.63554">
        <ele>709</ele>
        <time>2021-08-07T12:09:09.061Z</time>
      </trkpt>
      <trkpt lat="46.91487" lon="8.63554">
        <ele>710</ele>
        <time>2021-08-07T12:09:10.061Z</time>
      </trkpt>
      <trkpt lat="46.91487" lon="8.63553">
        <ele>710</ele>
        <time>2021-08-07T12:09:11.061Z</time>
      </trkpt>
      <trkpt lat="46.91488" lon="8.63553">
        <ele>710</ele>
        <time>2021-08-07T12:09:12.060Z</time>
      </trkpt>
      <trkpt lat="46.91489" lon="8.63554">
        <ele>710</ele>
        <time>2021-08-07T12:09:13.061Z</time>
      </trkpt>
      <trkpt lat="46.91489" lon="8.63555">
        <ele>710</ele>
        <time>2021-08-07T12:09:14.060Z</time>
      </trkpt>
      <trkpt lat="46.91489" lon="8.63555">
        <ele>710</ele>
        <time>2021-08-07T12:09:15.061Z</time>
      </trkpt>
      <trkpt lat="46.91489" lon="8.63556">
        <ele>710</ele>
        <time>2021-08-07T12:09:16.061Z</time>
      </trkpt>
      <trkpt lat="46.91489" lon="8.63558">
        <ele>710</ele>
        <time>2021-08-07T12:09:17.061Z</time>
      </trkpt>
      <trkpt lat="46.9149" lon="8.63558">
        <ele>710</ele>
        <time>2021-08-07T12:09:18.060Z</time>
      </trkpt>
      <trkpt lat="46.91489" lon="8.63558">
        <ele>711</ele>
        <time>2021-08-07T12:09:19.060Z</time>
      </trkpt>
      <trkpt lat="46.9149" lon="8.63558">
        <ele>710</ele>
        <time>2021-08-07T12:09:20.061Z</time>
      </trkpt>
      <trkpt lat="46.91489" lon="8.63558">
        <ele>710</ele>
        <time>2021-08-07T12:09:21.062Z</time>
      </trkpt>
      <trkpt lat="46.91489" lon="8.63557">
        <ele>710</ele>
        <time>2021-08-07T12:09:22.062Z</time>
      </trkpt>
      <trkpt lat="46.91489" lon="8.63556">
        <ele>710</ele>
        <time>2021-08-07T12:09:23.061Z</time>
      </trkpt>
      <trkpt lat="46.91491" lon="8.63557">
        <ele>710</ele>
        <time>2021-08-07T12:09:24.061Z</time>
      </trkpt>
      <trkpt lat="46.91492" lon="8.63558">
        <ele>710</ele>
        <time>2021-08-07T12:09:25.062Z</time>
      </trkpt>
      <trkpt lat="46.91495" lon="8.6356">
        <ele>710</ele>
        <time>2021-08-07T12:09:26.062Z</time>
      </trkpt>
      <trkpt lat="46.91497" lon="8.63561">
        <ele>710</ele>
        <time>2021-08-07T12:09:27.062Z</time>
      </trkpt>
      <trkpt lat="46.91498" lon="8.63562">
        <ele>710</ele>
        <time>2021-08-07T12:09:28.062Z</time>
      </trkpt>
      <trkpt lat="46.915" lon="8.63562">
        <ele>710</ele>
        <time>2021-08-07T12:09:29.062Z</time>
      </trkpt>
      <trkpt lat="46.91501" lon="8.63562">
        <ele>710</ele>
        <time>2021-08-07T12:09:30.061Z</time>
      </trkpt>
      <trkpt lat="46.91502" lon="8.63562">
        <ele>709</ele>
        <time>2021-08-07T12:09:31.061Z</time>
      </trkpt>
      <trkpt lat="46.91503" lon="8.63561">
        <ele>709</ele>
        <time>2021-08-07T12:09:32.062Z</time>
      </trkpt>
      <trkpt lat="46.91504" lon="8.63559">
        <ele>709</ele>
        <time>2021-08-07T12:09:33.061Z</time>
      </trkpt>
      <trkpt lat="46.91504" lon="8.63558">
        <ele>709</ele>
        <time>2021-08-07T12:09:34.062Z</time>
      </trkpt>
      <trkpt lat="46.91502" lon="8.63555">
        <ele>709</ele>
        <time>2021-08-07T12:09:35.062Z</time>
      </trkpt>
      <trkpt lat="46.91501" lon="8.63553">
        <ele>709</ele>
        <time>2021-08-07T12:09:36.061Z</time>
      </trkpt>
      <trkpt lat="46.915" lon="8.63552">
        <ele>709</ele>
        <time>2021-08-07T12:09:37.062Z</time>
      </trkpt>
      <trkpt lat="46.91499" lon="8.63552">
        <ele>709</ele>
        <time>2021-08-07T12:09:38.062Z</time>
      </trkpt>
      <trkpt lat="46.91499" lon="8.63552">
        <ele>709</ele>
        <time>2021-08-07T12:09:39.062Z</time>
      </trkpt>
      <trkpt lat="46.91499" lon="8.63553">
        <ele>708</ele>
        <time>2021-08-07T12:09:40.062Z</time>
      </trkpt>
      <trkpt lat="46.91499" lon="8.63553">
        <ele>708</ele>
        <time>2021-08-07T12:09:41.061Z</time>
      </trkpt>
      <trkpt lat="46.91499" lon="8.63554">
        <ele>708</ele>
        <time>2021-08-07T12:09:42.062Z</time>
      </trkpt>
      <trkpt lat="46.91499" lon="8.63555">
        <ele>707</ele>
        <time>2021-08-07T12:09:43.061Z</time>
      </trkpt>
      <trkpt lat="46.91499" lon="8.63556">
        <ele>707</ele>
        <time>2021-08-07T12:09:44.062Z</time>
      </trkpt>
      <trkpt lat="46.91499" lon="8.63556">
        <ele>706</ele>
        <time>2021-08-07T12:09:45.062Z</time>
      </trkpt>
      <trkpt lat="46.91499" lon="8.63555">
        <ele>706</ele>
        <time>2021-08-07T12:09:46.062Z</time>
      </trkpt>
      <trkpt lat="46.91499" lon="8.63554">
        <ele>705</ele>
        <time>2021-08-07T12:09:47.061Z</time>
      </trkpt>
      <trkpt lat="46.91498" lon="8.63552">
        <ele>705</ele>
        <time>2021-08-07T12:09:48.061Z</time>
      </trkpt>
      <trkpt lat="46.91497" lon="8.6355">
        <ele>704</ele>
        <time>2021-08-07T12:09:49.062Z</time>
      </trkpt>
      <trkpt lat="46.91495" lon="8.63547">
        <ele>704</ele>
        <time>2021-08-07T12:09:50.062Z</time>
      </trkpt>
      <trkpt lat="46.91494" lon="8.63545">
        <ele>704</ele>
        <time>2021-08-07T12:09:51.062Z</time>
      </trkpt>
      <trkpt lat="46.91492" lon="8.63542">
        <ele>703</ele>
        <time>2021-08-07T12:09:52.062Z</time>
      </trkpt>
      <trkpt lat="46.91491" lon="8.6354">
        <ele>703</ele>
        <time>2021-08-07T12:09:53.062Z</time>
      </trkpt>
      <trkpt lat="46.91489" lon="8.63538">
        <ele>703</ele>
        <time>2021-08-07T12:09:54.061Z</time>
      </trkpt>
      <trkpt lat="46.91488" lon="8.63536">
        <ele>703</ele>
        <time>2021-08-07T12:09:55.061Z</time>
      </trkpt>
      <trkpt lat="46.91487" lon="8.63536">
        <ele>703</ele>
        <time>2021-08-07T12:09:56.062Z</time>
      </trkpt>
      <trkpt lat="46.91486" lon="8.63535">
        <ele>703</ele>
        <time>2021-08-07T12:09:57.061Z</time>
      </trkpt>
      <trkpt lat="46.91486" lon="8.63534">
        <ele>703</ele>
        <time>2021-08-07T12:09:58.062Z</time>
      </trkpt>
      <trkpt lat="46.91486" lon="8.63534">
        <ele>703</ele>
        <time>2021-08-07T12:09:59.061Z</time>
      </trkpt>
      <trkpt lat="46.91484" lon="8.63533">
        <ele>703</ele>
        <time>2021-08-07T12:10:00.062Z</time>
      </trkpt>
      <trkpt lat="46.91483" lon="8.6353">
        <ele>703</ele>
        <time>2021-08-07T12:10:01.062Z</time>
      </trkpt>
      <trkpt lat="46.91483" lon="8.63528">
        <ele>703</ele>
        <time>2021-08-07T12:10:02.061Z</time>
      </trkpt>
      <trkpt lat="46.91483" lon="8.63526">
        <ele>703</ele>
        <time>2021-08-07T12:10:03.062Z</time>
      </trkpt>
      <trkpt lat="46.91482" lon="8.63522">
        <ele>703</ele>
        <time>2021-08-07T12:10:04.062Z</time>
      </trkpt>
      <trkpt lat="46.91481" lon="8.6352">
        <ele>704</ele>
        <time>2021-08-07T12:10:05.062Z</time>
      </trkpt>
      <trkpt lat="46.9148" lon="8.63517">
        <ele>704</ele>
        <time>2021-08-07T12:10:06.062Z</time>
      </trkpt>
      <trkpt lat="46.91479" lon="8.63515">
        <ele>704</ele>
        <time>2021-08-07T12:10:07.062Z</time>
      </trkpt>
      <trkpt lat="46.9148" lon="8.63514">
        <ele>704</ele>
        <time>2021-08-07T12:10:08.062Z</time>
      </trkpt>
      <trkpt lat="46.9148" lon="8.63513">
        <ele>705</ele>
        <time>2021-08-07T12:10:09.062Z</time>
      </trkpt>
      <trkpt lat="46.91479" lon="8.63512">
        <ele>705</ele>
        <time>2021-08-07T12:10:10.062Z</time>
      </trkpt>
      <trkpt lat="46.91479" lon="8.63512">
        <ele>705</ele>
        <time>2021-08-07T12:10:11.062Z</time>
      </trkpt>
      <trkpt lat="46.91477" lon="8.6351">
        <ele>706</ele>
        <time>2021-08-07T12:10:12.061Z</time>
      </trkpt>
      <trkpt lat="46.91476" lon="8.63509">
        <ele>706</ele>
        <time>2021-08-07T12:10:13.062Z</time>
      </trkpt>
      <trkpt lat="46.91476" lon="8.63508">
        <ele>706</ele>
        <time>2021-08-07T12:10:14.062Z</time>
      </trkpt>
      <trkpt lat="46.91476" lon="8.63508">
        <ele>707</ele>
        <time>2021-08-07T12:10:15.062Z</time>
      </trkpt>
      <trkpt lat="46.91476" lon="8.63508">
        <ele>707</ele>
        <time>2021-08-07T12:10:16.062Z</time>
      </trkpt>
      <trkpt lat="46.91476" lon="8.63509">
        <ele>707</ele>
        <time>2021-08-07T12:10:17.061Z</time>
      </trkpt>
      <trkpt lat="46.91477" lon="8.6351">
        <ele>708</ele>
        <time>2021-08-07T12:10:18.064Z</time>
      </trkpt>
      <trkpt lat="46.91478" lon="8.63511">
        <ele>708</ele>
        <time>2021-08-07T12:10:19.064Z</time>
      </trkpt>
      <trkpt lat="46.91478" lon="8.63511">
        <ele>708</ele>
        <time>2021-08-07T12:10:20.063Z</time>
      </trkpt>
      <trkpt lat="46.91478" lon="8.6351">
        <ele>708</ele>
        <time>2021-08-07T12:10:21.064Z</time>
      </trkpt>
      <trkpt lat="46.91477" lon="8.63507">
        <ele>708</ele>
        <time>2021-08-07T12:10:22.063Z</time>
      </trkpt>
      <trkpt lat="46.91478" lon="8.63507">
        <ele>709</ele>
        <time>2021-08-07T12:10:23.064Z</time>
      </trkpt>
      <trkpt lat="46.9148" lon="8.63508">
        <ele>709</ele>
        <time>2021-08-07T12:10:24.064Z</time>
      </trkpt>
      <trkpt lat="46.91481" lon="8.63506">
        <ele>709</ele>
        <time>2021-08-07T12:10:25.063Z</time>
      </trkpt>
      <trkpt lat="46.91481" lon="8.63503">
        <ele>709</ele>
        <time>2021-08-07T12:10:26.063Z</time>
      </trkpt>
      <trkpt lat="46.91481" lon="8.63501">
        <ele>709</ele>
        <time>2021-08-07T12:10:27.064Z</time>
      </trkpt>
      <trkpt lat="46.91481" lon="8.635">
        <ele>710</ele>
        <time>2021-08-07T12:10:28.063Z</time>
      </trkpt>
      <trkpt lat="46.9148" lon="8.63498">
        <ele>710</ele>
        <time>2021-08-07T12:10:29.064Z</time>
      </trkpt>
      <trkpt lat="46.91479" lon="8.63497">
        <ele>710</ele>
        <time>2021-08-07T12:10:30.064Z</time>
      </trkpt>
      <trkpt lat="46.91479" lon="8.63496">
        <ele>710</ele>
        <time>2021-08-07T12:10:31.064Z</time>
      </trkpt>
      <trkpt lat="46.91478" lon="8.63496">
        <ele>710</ele>
        <time>2021-08-07T12:10:32.064Z</time>
      </trkpt>
      <trkpt lat="46.91478" lon="8.63496">
        <ele>711</ele>
        <time>2021-08-07T12:10:33.064Z</time>
      </trkpt>
      <trkpt lat="46.91477" lon="8.63496">
        <ele>711</ele>
        <time>2021-08-07T12:10:34.064Z</time>
      </trkpt>
      <trkpt lat="46.91478" lon="8.63497">
        <ele>711</ele>
        <time>2021-08-07T12:10:35.064Z</time>
      </trkpt>
      <trkpt lat="46.91479" lon="8.63498">
        <ele>711</ele>
        <time>2021-08-07T12:10:36.064Z</time>
      </trkpt>
      <trkpt lat="46.91479" lon="8.63497">
        <ele>711</ele>
        <time>2021-08-07T12:10:37.064Z</time>
      </trkpt>
      <trkpt lat="46.91478" lon="8.63495">
        <ele>711</ele>
        <time>2021-08-07T12:10:38.064Z</time>
      </trkpt>
      <trkpt lat="46.91477" lon="8.63493">
        <ele>711</ele>
        <time>2021-08-07T12:10:39.064Z</time>
      </trkpt>
      <trkpt lat="46.91477" lon="8.63492">
        <ele>711</ele>
        <time>2021-08-07T12:10:40.064Z</time>
      </trkpt>
      <trkpt lat="46.91477" lon="8.63491">
        <ele>711</ele>
        <time>2021-08-07T12:10:41.064Z</time>
      </trkpt>
      <trkpt lat="46.91476" lon="8.63489">
        <ele>711</ele>
        <time>2021-08-07T12:10:42.064Z</time>
      </trkpt>
      <trkpt lat="46.91475" lon="8.63488">
        <ele>711</ele>
        <time>2021-08-07T12:10:43.064Z</time>
      </trkpt>
      <trkpt lat="46.91474" lon="8.63488">
        <ele>711</ele>
        <time>2021-08-07T12:10:44.063Z</time>
      </trkpt>
      <trkpt lat="46.91473" lon="8.63488">
        <ele>711</ele>
        <time>2021-08-07T12:10:45.064Z</time>
      </trkpt>
      <trkpt lat="46.91472" lon="8.63486">
        <ele>711</ele>
        <time>2021-08-07T12:10:46.063Z</time>
      </trkpt>
      <trkpt lat="46.9147" lon="8.63483">
        <ele>711</ele>
        <time>2021-08-07T12:10:47.064Z</time>
      </trkpt>
      <trkpt lat="46.91469" lon="8.63481">
        <ele>712</ele>
        <time>2021-08-07T12:10:51.047Z</time>
      </trkpt>
      <trkpt lat="46.9147" lon="8.63481">
        <ele>712</ele>
        <time>2021-08-07T12:10:57.819Z</time>
      </trkpt>
      <trkpt lat="46.91471" lon="8.63482">
        <ele>712</ele>
        <time>2021-08-07T12:10:58.819Z</time>
      </trkpt>
      <trkpt lat="46.91472" lon="8.63481">
        <ele>712</ele>
        <time>2021-08-07T12:10:59.819Z</time>
      </trkpt>
      <trkpt lat="46.91474" lon="8.63482">
        <ele>712</ele>
        <time>2021-08-07T12:11:00.820Z</time>
      </trkpt>
      <trkpt lat="46.91474" lon="8.63484">
        <ele>713</ele>
        <time>2021-08-07T12:11:01.819Z</time>
      </trkpt>
      <trkpt lat="46.91474" lon="8.63484">
        <ele>713</ele>
        <time>2021-08-07T12:11:02.820Z</time>
      </trkpt>
      <trkpt lat="46.91474" lon="8.63484">
        <ele>713</ele>
        <time>2021-08-07T12:11:03.820Z</time>
      </trkpt>
      <trkpt lat="46.91474" lon="8.63483">
        <ele>714</ele>
        <time>2021-08-07T12:11:04.819Z</time>
      </trkpt>
      <trkpt lat="46.91474" lon="8.63481">
        <ele>714</ele>
        <time>2021-08-07T12:11:05.820Z</time>
      </trkpt>
      <trkpt lat="46.91473" lon="8.63479">
        <ele>715</ele>
        <time>2021-08-07T12:11:06.820Z</time>
      </trkpt>
      <trkpt lat="46.91473" lon="8.63478">
        <ele>715</ele>
        <time>2021-08-07T12:11:07.819Z</time>
      </trkpt>
      <trkpt lat="46.91474" lon="8.63479">
        <ele>715</ele>
        <time>2021-08-07T12:11:08.819Z</time>
      </trkpt>
      <trkpt lat="46.91474" lon="8.63478">
        <ele>716</ele>
        <time>2021-08-07T12:11:09.820Z</time>
      </trkpt>
      <trkpt lat="46.91473" lon="8.63476">
        <ele>716</ele>
        <time>2021-08-07T12:11:10.820Z</time>
      </trkpt>
      <trkpt lat="46.91471" lon="8.63467">
        <ele>718</ele>
        <time>2021-08-07T12:11:11.821Z</time>
      </trkpt>
      <trkpt lat="46.91469" lon="8.63467">
        <ele>718</ele>
        <time>2021-08-07T12:11:12.821Z</time>
      </trkpt>
      <trkpt lat="46.91468" lon="8.63465">
        <ele>718</ele>
        <time>2021-08-07T12:11:13.820Z</time>
      </trkpt>
      <trkpt lat="46.91467" lon="8.63461">
        <ele>719</ele>
        <time>2021-08-07T12:11:14.821Z</time>
      </trkpt>
      <trkpt lat="46.91468" lon="8.63459">
        <ele>719</ele>
        <time>2021-08-07T12:11:15.821Z</time>
      </trkpt>
      <trkpt lat="46.91468" lon="8.63458">
        <ele>719</ele>
        <time>2021-08-07T12:11:16.821Z</time>
      </trkpt>
      <trkpt lat="46.91468" lon="8.63456">
        <ele>720</ele>
        <time>2021-08-07T12:11:17.820Z</time>
      </trkpt>
      <trkpt lat="46.91468" lon="8.63456">
        <ele>720</ele>
        <time>2021-08-07T12:11:18.820Z</time>
      </trkpt>
      <trkpt lat="46.91468" lon="8.63457">
        <ele>720</ele>
        <time>2021-08-07T12:11:19.821Z</time>
      </trkpt>
      <trkpt lat="46.91468" lon="8.63457">
        <ele>720</ele>
        <time>2021-08-07T12:11:20.820Z</time>
      </trkpt>
      <trkpt lat="46.91468" lon="8.63458">
        <ele>721</ele>
        <time>2021-08-07T12:11:21.820Z</time>
      </trkpt>
      <trkpt lat="46.91468" lon="8.63458">
        <ele>721</ele>
        <time>2021-08-07T12:11:22.820Z</time>
      </trkpt>
      <trkpt lat="46.91468" lon="8.63459">
        <ele>721</ele>
        <time>2021-08-07T12:11:23.820Z</time>
      </trkpt>
      <trkpt lat="46.91467" lon="8.63458">
        <ele>721</ele>
        <time>2021-08-07T12:11:24.821Z</time>
      </trkpt>
      <trkpt lat="46.91466" lon="8.63457">
        <ele>721</ele>
        <time>2021-08-07T12:11:25.820Z</time>
      </trkpt>
      <trkpt lat="46.91465" lon="8.63455">
        <ele>721</ele>
        <time>2021-08-07T12:11:26.820Z</time>
      </trkpt>
      <trkpt lat="46.91464" lon="8.63452">
        <ele>721</ele>
        <time>2021-08-07T12:11:27.821Z</time>
      </trkpt>
      <trkpt lat="46.91465" lon="8.6345">
        <ele>721</ele>
        <time>2021-08-07T12:11:28.820Z</time>
      </trkpt>
      <trkpt lat="46.91464" lon="8.63448">
        <ele>721</ele>
        <time>2021-08-07T12:11:29.820Z</time>
      </trkpt>
      <trkpt lat="46.91464" lon="8.63449">
        <ele>721</ele>
        <time>2021-08-07T12:11:30.820Z</time>
      </trkpt>
      <trkpt lat="46.91463" lon="8.63451">
        <ele>721</ele>
        <time>2021-08-07T12:11:31.820Z</time>
      </trkpt>
      <trkpt lat="46.91462" lon="8.63452">
        <ele>721</ele>
        <time>2021-08-07T12:11:32.820Z</time>
      </trkpt>
      <trkpt lat="46.91462" lon="8.63451">
        <ele>721</ele>
        <time>2021-08-07T12:11:33.820Z</time>
      </trkpt>
      <trkpt lat="46.91462" lon="8.6345">
        <ele>721</ele>
        <time>2021-08-07T12:11:34.821Z</time>
      </trkpt>
      <trkpt lat="46.91461" lon="8.63451">
        <ele>721</ele>
        <time>2021-08-07T12:11:35.820Z</time>
      </trkpt>
      <trkpt lat="46.91461" lon="8.63452">
        <ele>722</ele>
        <time>2021-08-07T12:11:36.821Z</time>
      </trkpt>
      <trkpt lat="46.9146" lon="8.63452">
        <ele>722</ele>
        <time>2021-08-07T12:11:37.820Z</time>
      </trkpt>
      <trkpt lat="46.9146" lon="8.63452">
        <ele>722</ele>
        <time>2021-08-07T12:11:38.821Z</time>
      </trkpt>
      <trkpt lat="46.91461" lon="8.63453">
        <ele>722</ele>
        <time>2021-08-07T12:11:39.820Z</time>
      </trkpt>
      <trkpt lat="46.91461" lon="8.63453">
        <ele>722</ele>
        <time>2021-08-07T12:11:40.820Z</time>
      </trkpt>
      <trkpt lat="46.91462" lon="8.63454">
        <ele>722</ele>
        <time>2021-08-07T12:11:41.820Z</time>
      </trkpt>
      <trkpt lat="46.91462" lon="8.63454">
        <ele>721</ele>
        <time>2021-08-07T12:11:42.821Z</time>
      </trkpt>
      <trkpt lat="46.91462" lon="8.63456">
        <ele>721</ele>
        <time>2021-08-07T12:11:43.821Z</time>
      </trkpt>
      <trkpt lat="46.91463" lon="8.63457">
        <ele>721</ele>
        <time>2021-08-07T12:11:44.821Z</time>
      </trkpt>
      <trkpt lat="46.91463" lon="8.6346">
        <ele>721</ele>
        <time>2021-08-07T12:11:45.820Z</time>
      </trkpt>
      <trkpt lat="46.9146" lon="8.63453">
        <ele>721</ele>
        <time>2021-08-07T12:11:46.820Z</time>
      </trkpt>
      <trkpt lat="46.9146" lon="8.63453">
        <ele>721</ele>
        <time>2021-08-07T12:11:47.821Z</time>
      </trkpt>
      <trkpt lat="46.91461" lon="8.63451">
        <ele>721</ele>
        <time>2021-08-07T12:11:48.821Z</time>
      </trkpt>
      <trkpt lat="46.91461" lon="8.63449">
        <ele>721</ele>
        <time>2021-08-07T12:11:49.821Z</time>
      </trkpt>
      <trkpt lat="46.91462" lon="8.63449">
        <ele>721</ele>
        <time>2021-08-07T12:11:50.820Z</time>
      </trkpt>
      <trkpt lat="46.91462" lon="8.63451">
        <ele>721</ele>
        <time>2021-08-07T12:11:51.821Z</time>
      </trkpt>
      <trkpt lat="46.91462" lon="8.63452">
        <ele>721</ele>
        <time>2021-08-07T12:11:52.821Z</time>
      </trkpt>
      <trkpt lat="46.91461" lon="8.6345">
        <ele>721</ele>
        <time>2021-08-07T12:11:53.821Z</time>
      </trkpt>
      <trkpt lat="46.91461" lon="8.63449">
        <ele>720</ele>
        <time>2021-08-07T12:11:54.821Z</time>
      </trkpt>
      <trkpt lat="46.9146" lon="8.63447">
        <ele>720</ele>
        <time>2021-08-07T12:11:55.820Z</time>
      </trkpt>
      <trkpt lat="46.9146" lon="8.63447">
        <ele>720</ele>
        <time>2021-08-07T12:11:56.821Z</time>
      </trkpt>
      <trkpt lat="46.91459" lon="8.63446">
        <ele>720</ele>
        <time>2021-08-07T12:11:57.821Z</time>
      </trkpt>
      <trkpt lat="46.91458" lon="8.63446">
        <ele>720</ele>
        <time>2021-08-07T12:11:58.821Z</time>
      </trkpt>
      <trkpt lat="46.91459" lon="8.63443">
        <ele>720</ele>
        <time>2021-08-07T12:11:59.821Z</time>
      </trkpt>
      <trkpt lat="46.91459" lon="8.6344">
        <ele>720</ele>
        <time>2021-08-07T12:12:00.821Z</time>
      </trkpt>
      <trkpt lat="46.91459" lon="8.63441">
        <ele>720</ele>
        <time>2021-08-07T12:12:01.820Z</time>
      </trkpt>
      <trkpt lat="46.91458" lon="8.63441">
        <ele>720</ele>
        <time>2021-08-07T12:12:02.820Z</time>
      </trkpt>
      <trkpt lat="46.91456" lon="8.6344">
        <ele>720</ele>
        <time>2021-08-07T12:12:03.820Z</time>
      </trkpt>
      <trkpt lat="46.91454" lon="8.63439">
        <ele>720</ele>
        <time>2021-08-07T12:12:04.820Z</time>
      </trkpt>
      <trkpt lat="46.91453" lon="8.63438">
        <ele>719</ele>
        <time>2021-08-07T12:12:05.820Z</time>
      </trkpt>
      <trkpt lat="46.91454" lon="8.63438">
        <ele>719</ele>
        <time>2021-08-07T12:12:06.821Z</time>
      </trkpt>
      <trkpt lat="46.91454" lon="8.63437">
        <ele>719</ele>
        <time>2021-08-07T12:12:07.821Z</time>
      </trkpt>
      <trkpt lat="46.91454" lon="8.63435">
        <ele>719</ele>
        <time>2021-08-07T12:12:08.821Z</time>
      </trkpt>
      <trkpt lat="46.91453" lon="8.63434">
        <ele>719</ele>
        <time>2021-08-07T12:12:09.821Z</time>
      </trkpt>
      <trkpt lat="46.91452" lon="8.63435">
        <ele>719</ele>
        <time>2021-08-07T12:12:10.821Z</time>
      </trkpt>
      <trkpt lat="46.91452" lon="8.63438">
        <ele>719</ele>
        <time>2021-08-07T12:12:11.821Z</time>
      </trkpt>
      <trkpt lat="46.91452" lon="8.63439">
        <ele>719</ele>
        <time>2021-08-07T12:12:17.944Z</time>
      </trkpt>
      <trkpt lat="46.91453" lon="8.63439">
        <ele>718</ele>
        <time>2021-08-07T12:12:18.945Z</time>
      </trkpt>
      <trkpt lat="46.91454" lon="8.63438">
        <ele>718</ele>
        <time>2021-08-07T12:12:19.944Z</time>
      </trkpt>
      <trkpt lat="46.91455" lon="8.63438">
        <ele>718</ele>
        <time>2021-08-07T12:12:20.945Z</time>
      </trkpt>
      <trkpt lat="46.91456" lon="8.63439">
        <ele>718</ele>
        <time>2021-08-07T12:12:21.944Z</time>
      </trkpt>
      <trkpt lat="46.91456" lon="8.6344">
        <ele>718</ele>
        <time>2021-08-07T12:12:22.945Z</time>
      </trkpt>
      <trkpt lat="46.91456" lon="8.6344">
        <ele>718</ele>
        <time>2021-08-07T12:12:23.944Z</time>
      </trkpt>
      <trkpt lat="46.91455" lon="8.6344">
        <ele>717</ele>
        <time>2021-08-07T12:12:24.944Z</time>
      </trkpt>
      <trkpt lat="46.91453" lon="8.63441">
        <ele>717</ele>
        <time>2021-08-07T12:12:25.945Z</time>
      </trkpt>
      <trkpt lat="46.91453" lon="8.63441">
        <ele>717</ele>
        <time>2021-08-07T12:12:26.944Z</time>
      </trkpt>
      <trkpt lat="46.91452" lon="8.63441">
        <ele>717</ele>
        <time>2021-08-07T12:12:27.945Z</time>
      </trkpt>
      <trkpt lat="46.91451" lon="8.63443">
        <ele>717</ele>
        <time>2021-08-07T12:12:28.944Z</time>
      </trkpt>
      <trkpt lat="46.9145" lon="8.63446">
        <ele>717</ele>
        <time>2021-08-07T12:12:29.945Z</time>
      </trkpt>
      <trkpt lat="46.91449" lon="8.63449">
        <ele>717</ele>
        <time>2021-08-07T12:12:30.945Z</time>
      </trkpt>
      <trkpt lat="46.91448" lon="8.6345">
        <ele>717</ele>
        <time>2021-08-07T12:12:31.945Z</time>
      </trkpt>
      <trkpt lat="46.91447" lon="8.63451">
        <ele>717</ele>
        <time>2021-08-07T12:12:32.945Z</time>
      </trkpt>
      <trkpt lat="46.91445" lon="8.63452">
        <ele>717</ele>
        <time>2021-08-07T12:12:33.944Z</time>
      </trkpt>
      <trkpt lat="46.91443" lon="8.63452">
        <ele>717</ele>
        <time>2021-08-07T12:12:34.945Z</time>
      </trkpt>
      <trkpt lat="46.91441" lon="8.63453">
        <ele>717</ele>
        <time>2021-08-07T12:12:35.945Z</time>
      </trkpt>
      <trkpt lat="46.9144" lon="8.63453">
        <ele>717</ele>
        <time>2021-08-07T12:12:36.945Z</time>
      </trkpt>
      <trkpt lat="46.91438" lon="8.63455">
        <ele>717</ele>
        <time>2021-08-07T12:12:37.945Z</time>
      </trkpt>
      <trkpt lat="46.91436" lon="8.63455">
        <ele>717</ele>
        <time>2021-08-07T12:12:38.944Z</time>
      </trkpt>
      <trkpt lat="46.91436" lon="8.63456">
        <ele>717</ele>
        <time>2021-08-07T12:12:39.944Z</time>
      </trkpt>
      <trkpt lat="46.91438" lon="8.63456">
        <ele>717</ele>
        <time>2021-08-07T12:12:40.944Z</time>
      </trkpt>
      <trkpt lat="46.9144" lon="8.63457">
        <ele>717</ele>
        <time>2021-08-07T12:12:41.945Z</time>
      </trkpt>
      <trkpt lat="46.91442" lon="8.63457">
        <ele>717</ele>
        <time>2021-08-07T12:12:42.944Z</time>
      </trkpt>
      <trkpt lat="46.91444" lon="8.63458">
        <ele>717</ele>
        <time>2021-08-07T12:12:43.945Z</time>
      </trkpt>
      <trkpt lat="46.91447" lon="8.63456">
        <ele>717</ele>
        <time>2021-08-07T12:12:44.944Z</time>
      </trkpt>
      <trkpt lat="46.91448" lon="8.63456">
        <ele>717</ele>
        <time>2021-08-07T12:12:45.945Z</time>
      </trkpt>
      <trkpt lat="46.91449" lon="8.63455">
        <ele>717</ele>
        <time>2021-08-07T12:12:46.945Z</time>
      </trkpt>
      <trkpt lat="46.91449" lon="8.63454">
        <ele>717</ele>
        <time>2021-08-07T12:12:47.944Z</time>
      </trkpt>
      <trkpt lat="46.91448" lon="8.63452">
        <ele>717</ele>
        <time>2021-08-07T12:12:48.945Z</time>
      </trkpt>
      <trkpt lat="46.91447" lon="8.6345">
        <ele>717</ele>
        <time>2021-08-07T12:12:49.945Z</time>
      </trkpt>
      <trkpt lat="46.91447" lon="8.63447">
        <ele>717</ele>
        <time>2021-08-07T12:12:50.945Z</time>
      </trkpt>
      <trkpt lat="46.91445" lon="8.63447">
        <ele>717</ele>
        <time>2021-08-07T12:12:51.945Z</time>
      </trkpt>
      <trkpt lat="46.91444" lon="8.63447">
        <ele>717</ele>
        <time>2021-08-07T12:12:52.944Z</time>
      </trkpt>
      <trkpt lat="46.91444" lon="8.63448">
        <ele>717</ele>
        <time>2021-08-07T12:12:53.945Z</time>
      </trkpt>
      <trkpt lat="46.91443" lon="8.63448">
        <ele>717</ele>
        <time>2021-08-07T12:12:54.945Z</time>
      </trkpt>
      <trkpt lat="46.91443" lon="8.63449">
        <ele>717</ele>
        <time>2021-08-07T12:12:55.945Z</time>
      </trkpt>
      <trkpt lat="46.91443" lon="8.63448">
        <ele>717</ele>
        <time>2021-08-07T12:12:56.945Z</time>
      </trkpt>
      <trkpt lat="46.91443" lon="8.63448">
        <ele>717</ele>
        <time>2021-08-07T12:12:57.945Z</time>
      </trkpt>
      <trkpt lat="46.91443" lon="8.63447">
        <ele>717</ele>
        <time>2021-08-07T12:12:58.945Z</time>
      </trkpt>
      <trkpt lat="46.91443" lon="8.63444">
        <ele>718</ele>
        <time>2021-08-07T12:12:59.944Z</time>
      </trkpt>
      <trkpt lat="46.91443" lon="8.63443">
        <ele>718</ele>
        <time>2021-08-07T12:13:00.944Z</time>
      </trkpt>
      <trkpt lat="46.91441" lon="8.63437">
        <ele>719</ele>
        <time>2021-08-07T12:13:01.944Z</time>
      </trkpt>
      <trkpt lat="46.91441" lon="8.63435">
        <ele>719</ele>
        <time>2021-08-07T12:13:02.945Z</time>
      </trkpt>
      <trkpt lat="46.91442" lon="8.63432">
        <ele>719</ele>
        <time>2021-08-07T12:13:03.944Z</time>
      </trkpt>
      <trkpt lat="46.91442" lon="8.63431">
        <ele>719</ele>
        <time>2021-08-07T12:13:04.945Z</time>
      </trkpt>
      <trkpt lat="46.91441" lon="8.63428">
        <ele>719</ele>
        <time>2021-08-07T12:13:05.945Z</time>
      </trkpt>
      <trkpt lat="46.9144" lon="8.63427">
        <ele>719</ele>
        <time>2021-08-07T12:13:12.087Z</time>
      </trkpt>
      <trkpt lat="46.91438" lon="8.63425">
        <ele>719</ele>
        <time>2021-08-07T12:13:13.086Z</time>
      </trkpt>
      <trkpt lat="46.91437" lon="8.63421">
        <ele>720</ele>
        <time>2021-08-07T12:13:14.086Z</time>
      </trkpt>
      <trkpt lat="46.91434" lon="8.63419">
        <ele>720</ele>
        <time>2021-08-07T12:13:15.087Z</time>
      </trkpt>
      <trkpt lat="46.91432" lon="8.63416">
        <ele>720</ele>
        <time>2021-08-07T12:13:30.183Z</time>
      </trkpt>
      <trkpt lat="46.9143" lon="8.63415">
        <ele>720</ele>
        <time>2021-08-07T12:13:31.184Z</time>
      </trkpt>
      <trkpt lat="46.91429" lon="8.63415">
        <ele>720</ele>
        <time>2021-08-07T12:13:37.088Z</time>
      </trkpt>
      <trkpt lat="46.91428" lon="8.63416">
        <ele>721</ele>
        <time>2021-08-07T12:13:39.922Z</time>
      </trkpt>
      <trkpt lat="46.91426" lon="8.63416">
        <ele>721</ele>
        <time>2021-08-07T12:13:40.923Z</time>
      </trkpt>
      <trkpt lat="46.91425" lon="8.63416">
        <ele>721</ele>
        <time>2021-08-07T12:13:41.923Z</time>
      </trkpt>
      <trkpt lat="46.91426" lon="8.63415">
        <ele>721</ele>
        <time>2021-08-07T12:13:42.922Z</time>
      </trkpt>
      <trkpt lat="46.91426" lon="8.63415">
        <ele>721</ele>
        <time>2021-08-07T12:13:43.922Z</time>
      </trkpt>
      <trkpt lat="46.91426" lon="8.63415">
        <ele>721</ele>
        <time>2021-08-07T12:13:44.923Z</time>
      </trkpt>
      <trkpt lat="46.91426" lon="8.63416">
        <ele>722</ele>
        <time>2021-08-07T12:13:45.923Z</time>
      </trkpt>
      <trkpt lat="46.91426" lon="8.63416">
        <ele>722</ele>
        <time>2021-08-07T12:13:51.060Z</time>
      </trkpt>
      <trkpt lat="46.91426" lon="8.63417">
        <ele>722</ele>
        <time>2021-08-07T12:13:52.060Z</time>
      </trkpt>
      <trkpt lat="46.91426" lon="8.63418">
        <ele>723</ele>
        <time>2021-08-07T12:13:53.060Z</time>
      </trkpt>
      <trkpt lat="46.91425" lon="8.6342">
        <ele>723</ele>
        <time>2021-08-07T12:13:54.061Z</time>
      </trkpt>
      <trkpt lat="46.91425" lon="8.6342">
        <ele>724</ele>
        <time>2021-08-07T12:14:08.206Z</time>
      </trkpt>
      <trkpt lat="46.91425" lon="8.63421">
        <ele>724</ele>
        <time>2021-08-07T12:14:09.206Z</time>
      </trkpt>
      <trkpt lat="46.91425" lon="8.6342">
        <ele>724</ele>
        <time>2021-08-07T12:14:10.205Z</time>
      </trkpt>
      <trkpt lat="46.91426" lon="8.6342">
        <ele>725</ele>
        <time>2021-08-07T12:14:12.312Z</time>
      </trkpt>
      <trkpt lat="46.91427" lon="8.63418">
        <ele>725</ele>
        <time>2021-08-07T12:14:13.312Z</time>
      </trkpt>
      <trkpt lat="46.91427" lon="8.63417">
        <ele>726</ele>
        <time>2021-08-07T12:14:14.312Z</time>
      </trkpt>
      <trkpt lat="46.91426" lon="8.63416">
        <ele>726</ele>
        <time>2021-08-07T12:14:15.311Z</time>
      </trkpt>
      <trkpt lat="46.91424" lon="8.63415">
        <ele>727</ele>
        <time>2021-08-07T12:14:16.311Z</time>
      </trkpt>
      <trkpt lat="46.91423" lon="8.63415">
        <ele>728</ele>
        <time>2021-08-07T12:14:17.312Z</time>
      </trkpt>
      <trkpt lat="46.91422" lon="8.63414">
        <ele>728</ele>
        <time>2021-08-07T12:14:18.312Z</time>
      </trkpt>
      <trkpt lat="46.91421" lon="8.63414">
        <ele>729</ele>
        <time>2021-08-07T12:14:19.312Z</time>
      </trkpt>
      <trkpt lat="46.91421" lon="8.63413">
        <ele>730</ele>
        <time>2021-08-07T12:14:20.311Z</time>
      </trkpt>
      <trkpt lat="46.91421" lon="8.63412">
        <ele>731</ele>
        <time>2021-08-07T12:14:21.311Z</time>
      </trkpt>
      <trkpt lat="46.91421" lon="8.63411">
        <ele>732</ele>
        <time>2021-08-07T12:14:22.312Z</time>
      </trkpt>
      <trkpt lat="46.9142" lon="8.63411">
        <ele>733</ele>
        <time>2021-08-07T12:14:23.312Z</time>
      </trkpt>
      <trkpt lat="46.91419" lon="8.63411">
        <ele>733</ele>
        <time>2021-08-07T12:14:24.312Z</time>
      </trkpt>
      <trkpt lat="46.91419" lon="8.63411">
        <ele>734</ele>
        <time>2021-08-07T12:14:25.312Z</time>
      </trkpt>
      <trkpt lat="46.91418" lon="8.63411">
        <ele>735</ele>
        <time>2021-08-07T12:14:26.312Z</time>
      </trkpt>
      <trkpt lat="46.91418" lon="8.63411">
        <ele>735</ele>
        <time>2021-08-07T12:14:27.311Z</time>
      </trkpt>
      <trkpt lat="46.91417" lon="8.63412">
        <ele>736</ele>
        <time>2021-08-07T12:14:28.312Z</time>
      </trkpt>
      <trkpt lat="46.91416" lon="8.63412">
        <ele>736</ele>
        <time>2021-08-07T12:14:29.312Z</time>
      </trkpt>
      <trkpt lat="46.91415" lon="8.63411">
        <ele>737</ele>
        <time>2021-08-07T12:14:30.312Z</time>
      </trkpt>
      <trkpt lat="46.91414" lon="8.63411">
        <ele>737</ele>
        <time>2021-08-07T12:14:31.311Z</time>
      </trkpt>
      <trkpt lat="46.91414" lon="8.63412">
        <ele>738</ele>
        <time>2021-08-07T12:14:32.312Z</time>
      </trkpt>
      <trkpt lat="46.91414" lon="8.63412">
        <ele>738</ele>
        <time>2021-08-07T12:14:33.312Z</time>
      </trkpt>
      <trkpt lat="46.91414" lon="8.63413">
        <ele>738</ele>
        <time>2021-08-07T12:14:34.311Z</time>
      </trkpt>
      <trkpt lat="46.91415" lon="8.63414">
        <ele>738</ele>
        <time>2021-08-07T12:14:35.311Z</time>
      </trkpt>
      <trkpt lat="46.91413" lon="8.63413">
        <ele>739</ele>
        <time>2021-08-07T12:14:36.312Z</time>
      </trkpt>
      <trkpt lat="46.91411" lon="8.63412">
        <ele>739</ele>
        <time>2021-08-07T12:14:37.312Z</time>
      </trkpt>
      <trkpt lat="46.9141" lon="8.63411">
        <ele>739</ele>
        <time>2021-08-07T12:14:38.312Z</time>
      </trkpt>
      <trkpt lat="46.91409" lon="8.63411">
        <ele>739</ele>
        <time>2021-08-07T12:14:39.311Z</time>
      </trkpt>
      <trkpt lat="46.91408" lon="8.6341">
        <ele>740</ele>
        <time>2021-08-07T12:14:40.312Z</time>
      </trkpt>
      <trkpt lat="46.91408" lon="8.63409">
        <ele>740</ele>
        <time>2021-08-07T12:14:41.312Z</time>
      </trkpt>
      <trkpt lat="46.91408" lon="8.63407">
        <ele>740</ele>
        <time>2021-08-07T12:14:42.311Z</time>
      </trkpt>
      <trkpt lat="46.91408" lon="8.63406">
        <ele>740</ele>
        <time>2021-08-07T12:14:43.312Z</time>
      </trkpt>
      <trkpt lat="46.91408" lon="8.63404">
        <ele>740</ele>
        <time>2021-08-07T12:14:44.312Z</time>
      </trkpt>
      <trkpt lat="46.91408" lon="8.63402">
        <ele>741</ele>
        <time>2021-08-07T12:14:45.312Z</time>
      </trkpt>
      <trkpt lat="46.91407" lon="8.63401">
        <ele>741</ele>
        <time>2021-08-07T12:14:46.311Z</time>
      </trkpt>
      <trkpt lat="46.91406" lon="8.634">
        <ele>741</ele>
        <time>2021-08-07T12:14:47.311Z</time>
      </trkpt>
      <trkpt lat="46.91406" lon="8.634">
        <ele>741</ele>
        <time>2021-08-07T12:14:48.311Z</time>
      </trkpt>
      <trkpt lat="46.91407" lon="8.63401">
        <ele>741</ele>
        <time>2021-08-07T12:14:49.311Z</time>
      </trkpt>
      <trkpt lat="46.91407" lon="8.63401">
        <ele>741</ele>
        <time>2021-08-07T12:14:50.312Z</time>
      </trkpt>
      <trkpt lat="46.91407" lon="8.63401">
        <ele>740</ele>
        <time>2021-08-07T12:14:51.312Z</time>
      </trkpt>
      <trkpt lat="46.91406" lon="8.63402">
        <ele>740</ele>
        <time>2021-08-07T12:14:52.312Z</time>
      </trkpt>
      <trkpt lat="46.91406" lon="8.63402">
        <ele>739</ele>
        <time>2021-08-07T12:14:53.312Z</time>
      </trkpt>
      <trkpt lat="46.91407" lon="8.63402">
        <ele>739</ele>
        <time>2021-08-07T12:14:54.312Z</time>
      </trkpt>
      <trkpt lat="46.91409" lon="8.63402">
        <ele>738</ele>
        <time>2021-08-07T12:14:55.312Z</time>
      </trkpt>
      <trkpt lat="46.91408" lon="8.63402">
        <ele>738</ele>
        <time>2021-08-07T12:14:56.312Z</time>
      </trkpt>
      <trkpt lat="46.91407" lon="8.634">
        <ele>737</ele>
        <time>2021-08-07T12:14:57.311Z</time>
      </trkpt>
      <trkpt lat="46.91407" lon="8.63398">
        <ele>736</ele>
        <time>2021-08-07T12:14:58.311Z</time>
      </trkpt>
      <trkpt lat="46.91407" lon="8.63395">
        <ele>735</ele>
        <time>2021-08-07T12:14:59.311Z</time>
      </trkpt>
      <trkpt lat="46.91408" lon="8.63394">
        <ele>735</ele>
        <time>2021-08-07T12:15:00.312Z</time>
      </trkpt>
      <trkpt lat="46.9141" lon="8.63394">
        <ele>734</ele>
        <time>2021-08-07T12:15:01.312Z</time>
      </trkpt>
      <trkpt lat="46.9141" lon="8.63395">
        <ele>733</ele>
        <time>2021-08-07T12:15:02.312Z</time>
      </trkpt>
      <trkpt lat="46.9141" lon="8.63395">
        <ele>732</ele>
        <time>2021-08-07T12:15:03.311Z</time>
      </trkpt>
      <trkpt lat="46.9141" lon="8.63395">
        <ele>731</ele>
        <time>2021-08-07T12:15:04.311Z</time>
      </trkpt>
      <trkpt lat="46.9141" lon="8.63395">
        <ele>731</ele>
        <time>2021-08-07T12:15:05.311Z</time>
      </trkpt>
      <trkpt lat="46.9141" lon="8.63394">
        <ele>730</ele>
        <time>2021-08-07T12:15:06.312Z</time>
      </trkpt>
      <trkpt lat="46.91407" lon="8.63394">
        <ele>726</ele>
        <time>2021-08-07T12:15:07.311Z</time>
      </trkpt>
      <trkpt lat="46.91407" lon="8.63395">
        <ele>725</ele>
        <time>2021-08-07T12:15:08.312Z</time>
      </trkpt>
      <trkpt lat="46.91406" lon="8.63394">
        <ele>724</ele>
        <time>2021-08-07T12:15:09.311Z</time>
      </trkpt>
      <trkpt lat="46.91406" lon="8.63394">
        <ele>724</ele>
        <time>2021-08-07T12:15:10.311Z</time>
      </trkpt>
      <trkpt lat="46.91405" lon="8.63394">
        <ele>723</ele>
        <time>2021-08-07T12:15:11.312Z</time>
      </trkpt>
      <trkpt lat="46.91405" lon="8.63393">
        <ele>722</ele>
        <time>2021-08-07T12:15:12.312Z</time>
      </trkpt>
      <trkpt lat="46.91405" lon="8.63392">
        <ele>721</ele>
        <time>2021-08-07T12:15:13.311Z</time>
      </trkpt>
      <trkpt lat="46.91405" lon="8.63391">
        <ele>720</ele>
        <time>2021-08-07T12:15:14.311Z</time>
      </trkpt>
      <trkpt lat="46.91406" lon="8.63391">
        <ele>720</ele>
        <time>2021-08-07T12:15:15.311Z</time>
      </trkpt>
      <trkpt lat="46.91407" lon="8.6339">
        <ele>719</ele>
        <time>2021-08-07T12:15:16.311Z</time>
      </trkpt>
      <trkpt lat="46.91408" lon="8.63389">
        <ele>718</ele>
        <time>2021-08-07T12:15:17.311Z</time>
      </trkpt>
      <trkpt lat="46.91409" lon="8.63388">
        <ele>718</ele>
        <time>2021-08-07T12:15:18.311Z</time>
      </trkpt>
      <trkpt lat="46.9141" lon="8.63387">
        <ele>717</ele>
        <time>2021-08-07T12:15:19.311Z</time>
      </trkpt>
      <trkpt lat="46.91412" lon="8.63387">
        <ele>717</ele>
        <time>2021-08-07T12:15:20.311Z</time>
      </trkpt>
      <trkpt lat="46.91413" lon="8.63387">
        <ele>716</ele>
        <time>2021-08-07T12:15:21.311Z</time>
      </trkpt>
      <trkpt lat="46.91414" lon="8.63386">
        <ele>716</ele>
        <time>2021-08-07T12:15:22.311Z</time>
      </trkpt>
      <trkpt lat="46.91414" lon="8.63386">
        <ele>715</ele>
        <time>2021-08-07T12:15:23.312Z</time>
      </trkpt>
      <trkpt lat="46.91413" lon="8.63384">
        <ele>714</ele>
        <time>2021-08-07T12:15:24.311Z</time>
      </trkpt>
      <trkpt lat="46.91414" lon="8.63384">
        <ele>714</ele>
        <time>2021-08-07T12:15:25.311Z</time>
      </trkpt>
      <trkpt lat="46.91415" lon="8.63382">
        <ele>713</ele>
        <time>2021-08-07T12:15:26.311Z</time>
      </trkpt>
      <trkpt lat="46.91415" lon="8.63381">
        <ele>712</ele>
        <time>2021-08-07T12:15:27.311Z</time>
      </trkpt>
      <trkpt lat="46.91415" lon="8.6338">
        <ele>711</ele>
        <time>2021-08-07T12:15:28.311Z</time>
      </trkpt>
      <trkpt lat="46.91414" lon="8.63379">
        <ele>711</ele>
        <time>2021-08-07T12:15:29.311Z</time>
      </trkpt>
      <trkpt lat="46.91413" lon="8.63379">
        <ele>710</ele>
        <time>2021-08-07T12:15:30.311Z</time>
      </trkpt>
      <trkpt lat="46.91413" lon="8.63378">
        <ele>710</ele>
        <time>2021-08-07T12:15:31.311Z</time>
      </trkpt>
      <trkpt lat="46.91413" lon="8.63379">
        <ele>709</ele>
        <time>2021-08-07T12:15:32.311Z</time>
      </trkpt>
      <trkpt lat="46.91414" lon="8.63379">
        <ele>709</ele>
        <time>2021-08-07T12:15:33.311Z</time>
      </trkpt>
      <trkpt lat="46.91413" lon="8.63379">
        <ele>708</ele>
        <time>2021-08-07T12:15:34.311Z</time>
      </trkpt>
      <trkpt lat="46.91413" lon="8.63379">
        <ele>707</ele>
        <time>2021-08-07T12:15:35.311Z</time>
      </trkpt>
      <trkpt lat="46.91414" lon="8.63378">
        <ele>706</ele>
        <time>2021-08-07T12:15:36.312Z</time>
      </trkpt>
      <trkpt lat="46.91414" lon="8.63377">
        <ele>706</ele>
        <time>2021-08-07T12:15:37.312Z</time>
      </trkpt>
      <trkpt lat="46.91414" lon="8.63376">
        <ele>706</ele>
        <time>2021-08-07T12:15:38.312Z</time>
      </trkpt>
      <trkpt lat="46.91413" lon="8.63375">
        <ele>706</ele>
        <time>2021-08-07T12:15:39.311Z</time>
      </trkpt>
      <trkpt lat="46.91412" lon="8.63375">
        <ele>705</ele>
        <time>2021-08-07T12:15:40.311Z</time>
      </trkpt>
      <trkpt lat="46.91412" lon="8.63376">
        <ele>705</ele>
        <time>2021-08-07T12:15:41.312Z</time>
      </trkpt>
      <trkpt lat="46.91413" lon="8.63376">
        <ele>705</ele>
        <time>2021-08-07T12:15:42.312Z</time>
      </trkpt>
      <trkpt lat="46.91414" lon="8.63375">
        <ele>704</ele>
        <time>2021-08-07T12:15:43.311Z</time>
      </trkpt>
      <trkpt lat="46.91414" lon="8.63375">
        <ele>704</ele>
        <time>2021-08-07T12:15:44.311Z</time>
      </trkpt>
      <trkpt lat="46.91414" lon="8.63375">
        <ele>704</ele>
        <time>2021-08-07T12:15:45.312Z</time>
      </trkpt>
      <trkpt lat="46.91414" lon="8.63374">
        <ele>703</ele>
        <time>2021-08-07T12:15:46.312Z</time>
      </trkpt>
      <trkpt lat="46.91414" lon="8.63374">
        <ele>702</ele>
        <time>2021-08-07T12:15:47.312Z</time>
      </trkpt>
      <trkpt lat="46.91414" lon="8.63375">
        <ele>702</ele>
        <time>2021-08-07T12:15:48.312Z</time>
      </trkpt>
      <trkpt lat="46.91415" lon="8.63375">
        <ele>701</ele>
        <time>2021-08-07T12:15:49.311Z</time>
      </trkpt>
      <trkpt lat="46.91415" lon="8.63376">
        <ele>700</ele>
        <time>2021-08-07T12:15:50.311Z</time>
      </trkpt>
      <trkpt lat="46.91415" lon="8.63376">
        <ele>699</ele>
        <time>2021-08-07T12:15:51.312Z</time>
      </trkpt>
      <trkpt lat="46.91415" lon="8.63377">
        <ele>699</ele>
        <time>2021-08-07T12:15:52.311Z</time>
      </trkpt>
      <trkpt lat="46.91416" lon="8.63377">
        <ele>698</ele>
        <time>2021-08-07T12:15:53.311Z</time>
      </trkpt>
      <trkpt lat="46.91416" lon="8.63378">
        <ele>698</ele>
        <time>2021-08-07T12:15:54.312Z</time>
      </trkpt>
      <trkpt lat="46.91415" lon="8.6338">
        <ele>697</ele>
        <time>2021-08-07T12:15:55.312Z</time>
      </trkpt>
      <trkpt lat="46.91415" lon="8.6338">
        <ele>696</ele>
        <time>2021-08-07T12:15:56.312Z</time>
      </trkpt>
      <trkpt lat="46.91415" lon="8.63381">
        <ele>696</ele>
        <time>2021-08-07T12:15:57.311Z</time>
      </trkpt>
      <trkpt lat="46.91416" lon="8.63381">
        <ele>695</ele>
        <time>2021-08-07T12:15:58.311Z</time>
      </trkpt>
      <trkpt lat="46.91415" lon="8.63382">
        <ele>694</ele>
        <time>2021-08-07T12:15:59.312Z</time>
      </trkpt>
      <trkpt lat="46.91415" lon="8.63383">
        <ele>694</ele>
        <time>2021-08-07T12:16:00.312Z</time>
      </trkpt>
      <trkpt lat="46.91416" lon="8.63384">
        <ele>693</ele>
        <time>2021-08-07T12:16:01.313Z</time>
      </trkpt>
      <trkpt lat="46.91416" lon="8.63385">
        <ele>693</ele>
        <time>2021-08-07T12:16:02.312Z</time>
      </trkpt>
      <trkpt lat="46.91415" lon="8.63385">
        <ele>692</ele>
        <time>2021-08-07T12:16:03.312Z</time>
      </trkpt>
      <trkpt lat="46.91413" lon="8.63386">
        <ele>692</ele>
        <time>2021-08-07T12:16:04.312Z</time>
      </trkpt>
      <trkpt lat="46.91412" lon="8.63387">
        <ele>692</ele>
        <time>2021-08-07T12:16:05.313Z</time>
      </trkpt>
      <trkpt lat="46.91411" lon="8.63388">
        <ele>691</ele>
        <time>2021-08-07T12:16:06.312Z</time>
      </trkpt>
      <trkpt lat="46.91411" lon="8.63388">
        <ele>691</ele>
        <time>2021-08-07T12:16:07.312Z</time>
      </trkpt>
      <trkpt lat="46.91411" lon="8.63388">
        <ele>690</ele>
        <time>2021-08-07T12:16:08.312Z</time>
      </trkpt>
      <trkpt lat="46.91411" lon="8.63388">
        <ele>690</ele>
        <time>2021-08-07T12:16:09.312Z</time>
      </trkpt>
      <trkpt lat="46.91411" lon="8.63388">
        <ele>689</ele>
        <time>2021-08-07T12:16:10.313Z</time>
      </trkpt>
      <trkpt lat="46.91411" lon="8.63388">
        <ele>689</ele>
        <time>2021-08-07T12:16:11.313Z</time>
      </trkpt>
      <trkpt lat="46.91411" lon="8.63389">
        <ele>688</ele>
        <time>2021-08-07T12:16:12.312Z</time>
      </trkpt>
      <trkpt lat="46.91411" lon="8.6339">
        <ele>688</ele>
        <time>2021-08-07T12:16:13.313Z</time>
      </trkpt>
      <trkpt lat="46.91411" lon="8.63391">
        <ele>687</ele>
        <time>2021-08-07T12:16:14.312Z</time>
      </trkpt>
      <trkpt lat="46.91411" lon="8.63392">
        <ele>687</ele>
        <time>2021-08-07T12:16:15.312Z</time>
      </trkpt>
      <trkpt lat="46.91411" lon="8.63393">
        <ele>686</ele>
        <time>2021-08-07T12:16:18.312Z</time>
      </trkpt>
      <trkpt lat="46.91411" lon="8.63392">
        <ele>686</ele>
        <time>2021-08-07T12:16:19.313Z</time>
      </trkpt>
      <trkpt lat="46.9141" lon="8.63391">
        <ele>685</ele>
        <time>2021-08-07T12:16:20.313Z</time>
      </trkpt>
      <trkpt lat="46.91409" lon="8.63389">
        <ele>685</ele>
        <time>2021-08-07T12:16:21.312Z</time>
      </trkpt>
      <trkpt lat="46.91409" lon="8.63389">
        <ele>685</ele>
        <time>2021-08-07T12:16:22.312Z</time>
      </trkpt>
      <trkpt lat="46.9141" lon="8.63388">
        <ele>684</ele>
        <time>2021-08-07T12:16:23.312Z</time>
      </trkpt>
      <trkpt lat="46.91411" lon="8.63387">
        <ele>684</ele>
        <time>2021-08-07T12:16:24.312Z</time>
      </trkpt>
      <trkpt lat="46.9141" lon="8.63386">
        <ele>684</ele>
        <time>2021-08-07T12:16:25.312Z</time>
      </trkpt>
      <trkpt lat="46.91408" lon="8.63385">
        <ele>683</ele>
        <time>2021-08-07T12:16:26.312Z</time>
      </trkpt>
      <trkpt lat="46.91408" lon="8.63384">
        <ele>683</ele>
        <time>2021-08-07T12:16:27.312Z</time>
      </trkpt>
      <trkpt lat="46.91407" lon="8.63384">
        <ele>683</ele>
        <time>2021-08-07T12:16:28.313Z</time>
      </trkpt>
      <trkpt lat="46.91407" lon="8.63385">
        <ele>682</ele>
        <time>2021-08-07T12:16:29.313Z</time>
      </trkpt>
      <trkpt lat="46.91407" lon="8.63385">
        <ele>682</ele>
        <time>2021-08-07T12:16:30.312Z</time>
      </trkpt>
      <trkpt lat="46.91408" lon="8.63385">
        <ele>681</ele>
        <time>2021-08-07T12:16:31.313Z</time>
      </trkpt>
      <trkpt lat="46.91408" lon="8.63385">
        <ele>681</ele>
        <time>2021-08-07T12:16:32.313Z</time>
      </trkpt>
      <trkpt lat="46.91408" lon="8.63384">
        <ele>680</ele>
        <time>2021-08-07T12:16:33.312Z</time>
      </trkpt>
      <trkpt lat="46.91407" lon="8.63383">
        <ele>680</ele>
        <time>2021-08-07T12:16:34.312Z</time>
      </trkpt>
      <trkpt lat="46.91405" lon="8.63381">
        <ele>679</ele>
        <time>2021-08-07T12:16:35.312Z</time>
      </trkpt>
      <trkpt lat="46.91404" lon="8.6338">
        <ele>678</ele>
        <time>2021-08-07T12:16:36.312Z</time>
      </trkpt>
      <trkpt lat="46.91403" lon="8.63378">
        <ele>678</ele>
        <time>2021-08-07T12:16:37.313Z</time>
      </trkpt>
      <trkpt lat="46.91402" lon="8.63377">
        <ele>677</ele>
        <time>2021-08-07T12:16:38.313Z</time>
      </trkpt>
      <trkpt lat="46.91402" lon="8.63376">
        <ele>677</ele>
        <time>2021-08-07T12:16:39.313Z</time>
      </trkpt>
      <trkpt lat="46.91401" lon="8.63376">
        <ele>676</ele>
        <time>2021-08-07T12:16:40.312Z</time>
      </trkpt>
      <trkpt lat="46.91392" lon="8.63372">
        <ele>674</ele>
        <time>2021-08-07T12:16:41.313Z</time>
      </trkpt>
      <trkpt lat="46.91391" lon="8.63371">
        <ele>673</ele>
        <time>2021-08-07T12:16:42.313Z</time>
      </trkpt>
      <trkpt lat="46.91391" lon="8.6337">
        <ele>673</ele>
        <time>2021-08-07T12:16:43.312Z</time>
      </trkpt>
      <trkpt lat="46.9139" lon="8.6337">
        <ele>673</ele>
        <time>2021-08-07T12:16:44.313Z</time>
      </trkpt>
      <trkpt lat="46.91388" lon="8.63369">
        <ele>672</ele>
        <time>2021-08-07T12:16:45.312Z</time>
      </trkpt>
      <trkpt lat="46.91387" lon="8.63368">
        <ele>672</ele>
        <time>2021-08-07T12:16:46.313Z</time>
      </trkpt>
      <trkpt lat="46.91385" lon="8.63368">
        <ele>672</ele>
        <time>2021-08-07T12:16:47.313Z</time>
      </trkpt>
      <trkpt lat="46.91384" lon="8.63367">
        <ele>672</ele>
        <time>2021-08-07T12:16:48.313Z</time>
      </trkpt>
      <trkpt lat="46.91383" lon="8.63366">
        <ele>672</ele>
        <time>2021-08-07T12:16:49.312Z</time>
      </trkpt>
      <trkpt lat="46.91383" lon="8.63366">
        <ele>671</ele>
        <time>2021-08-07T12:16:50.312Z</time>
      </trkpt>
      <trkpt lat="46.91383" lon="8.63367">
        <ele>671</ele>
        <time>2021-08-07T12:16:51.313Z</time>
      </trkpt>
      <trkpt lat="46.91383" lon="8.63368">
        <ele>671</ele>
        <time>2021-08-07T12:16:52.313Z</time>
      </trkpt>
      <trkpt lat="46.91382" lon="8.63367">
        <ele>670</ele>
        <time>2021-08-07T12:16:53.312Z</time>
      </trkpt>
      <trkpt lat="46.91381" lon="8.63366">
        <ele>670</ele>
        <time>2021-08-07T12:16:54.312Z</time>
      </trkpt>
      <trkpt lat="46.9138" lon="8.63365">
        <ele>669</ele>
        <time>2021-08-07T12:16:55.313Z</time>
      </trkpt>
      <trkpt lat="46.9138" lon="8.63364">
        <ele>669</ele>
        <time>2021-08-07T12:16:56.312Z</time>
      </trkpt>
      <trkpt lat="46.9138" lon="8.63363">
        <ele>669</ele>
        <time>2021-08-07T12:16:57.313Z</time>
      </trkpt>
      <trkpt lat="46.91379" lon="8.63362">
        <ele>668</ele>
        <time>2021-08-07T12:16:58.313Z</time>
      </trkpt>
      <trkpt lat="46.91379" lon="8.6336">
        <ele>668</ele>
        <time>2021-08-07T12:16:59.313Z</time>
      </trkpt>
      <trkpt lat="46.91378" lon="8.63359">
        <ele>668</ele>
        <time>2021-08-07T12:17:00.312Z</time>
      </trkpt>
      <trkpt lat="46.91377" lon="8.63358">
        <ele>667</ele>
        <time>2021-08-07T12:17:01.313Z</time>
      </trkpt>
      <trkpt lat="46.91375" lon="8.63357">
        <ele>667</ele>
        <time>2021-08-07T12:17:02.312Z</time>
      </trkpt>
      <trkpt lat="46.91373" lon="8.63356">
        <ele>667</ele>
        <time>2021-08-07T12:17:03.312Z</time>
      </trkpt>
      <trkpt lat="46.91371" lon="8.63355">
        <ele>667</ele>
        <time>2021-08-07T12:17:04.313Z</time>
      </trkpt>
      <trkpt lat="46.9137" lon="8.63354">
        <ele>666</ele>
        <time>2021-08-07T12:17:05.313Z</time>
      </trkpt>
      <trkpt lat="46.91368" lon="8.63352">
        <ele>666</ele>
        <time>2021-08-07T12:17:06.312Z</time>
      </trkpt>
      <trkpt lat="46.91367" lon="8.6335">
        <ele>666</ele>
        <time>2021-08-07T12:17:07.313Z</time>
      </trkpt>
      <trkpt lat="46.91367" lon="8.63348">
        <ele>666</ele>
        <time>2021-08-07T12:17:08.313Z</time>
      </trkpt>
      <trkpt lat="46.91365" lon="8.63345">
        <ele>666</ele>
        <time>2021-08-07T12:17:09.312Z</time>
      </trkpt>
      <trkpt lat="46.91362" lon="8.63342">
        <ele>665</ele>
        <time>2021-08-07T12:17:10.312Z</time>
      </trkpt>
      <trkpt lat="46.9136" lon="8.6334">
        <ele>665</ele>
        <time>2021-08-07T12:17:11.312Z</time>
      </trkpt>
      <trkpt lat="46.91358" lon="8.63339">
        <ele>665</ele>
        <time>2021-08-07T12:17:12.313Z</time>
      </trkpt>
      <trkpt lat="46.91357" lon="8.63338">
        <ele>665</ele>
        <time>2021-08-07T12:17:13.312Z</time>
      </trkpt>
      <trkpt lat="46.91356" lon="8.63338">
        <ele>665</ele>
        <time>2021-08-07T12:17:14.312Z</time>
      </trkpt>
      <trkpt lat="46.91356" lon="8.63338">
        <ele>665</ele>
        <time>2021-08-07T12:17:15.312Z</time>
      </trkpt>
      <trkpt lat="46.91357" lon="8.63338">
        <ele>665</ele>
        <time>2021-08-07T12:17:16.313Z</time>
      </trkpt>
      <trkpt lat="46.91357" lon="8.63339">
        <ele>665</ele>
        <time>2021-08-07T12:17:17.313Z</time>
      </trkpt>
      <trkpt lat="46.91359" lon="8.63341">
        <ele>665</ele>
        <time>2021-08-07T12:17:18.313Z</time>
      </trkpt>
      <trkpt lat="46.91361" lon="8.63342">
        <ele>665</ele>
        <time>2021-08-07T12:17:19.312Z</time>
      </trkpt>
      <trkpt lat="46.91362" lon="8.63343">
        <ele>665</ele>
        <time>2021-08-07T12:17:20.313Z</time>
      </trkpt>
      <trkpt lat="46.91364" lon="8.63343">
        <ele>665</ele>
        <time>2021-08-07T12:17:21.312Z</time>
      </trkpt>
      <trkpt lat="46.91364" lon="8.63342">
        <ele>665</ele>
        <time>2021-08-07T12:17:22.312Z</time>
      </trkpt>
      <trkpt lat="46.91364" lon="8.63342">
        <ele>665</ele>
        <time>2021-08-07T12:17:23.313Z</time>
      </trkpt>
      <trkpt lat="46.91367" lon="8.63343">
        <ele>664</ele>
        <time>2021-08-07T12:17:25.313Z</time>
      </trkpt>
      <trkpt lat="46.91368" lon="8.63342">
        <ele>664</ele>
        <time>2021-08-07T12:17:26.313Z</time>
      </trkpt>
      <trkpt lat="46.91366" lon="8.6334">
        <ele>664</ele>
        <time>2021-08-07T12:17:27.312Z</time>
      </trkpt>
      <trkpt lat="46.91364" lon="8.63339">
        <ele>664</ele>
        <time>2021-08-07T12:17:28.312Z</time>
      </trkpt>
      <trkpt lat="46.91363" lon="8.63338">
        <ele>664</ele>
        <time>2021-08-07T12:17:29.312Z</time>
      </trkpt>
      <trkpt lat="46.91362" lon="8.63337">
        <ele>664</ele>
        <time>2021-08-07T12:17:30.313Z</time>
      </trkpt>
      <trkpt lat="46.91362" lon="8.63336">
        <ele>663</ele>
        <time>2021-08-07T12:17:31.312Z</time>
      </trkpt>
      <trkpt lat="46.91362" lon="8.63336">
        <ele>663</ele>
        <time>2021-08-07T12:17:32.313Z</time>
      </trkpt>
      <trkpt lat="46.9136" lon="8.63335">
        <ele>663</ele>
        <time>2021-08-07T12:17:33.313Z</time>
      </trkpt>
      <trkpt lat="46.91359" lon="8.63334">
        <ele>663</ele>
        <time>2021-08-07T12:17:34.313Z</time>
      </trkpt>
      <trkpt lat="46.91358" lon="8.63333">
        <ele>663</ele>
        <time>2021-08-07T12:17:35.312Z</time>
      </trkpt>
      <trkpt lat="46.91356" lon="8.63332">
        <ele>663</ele>
        <time>2021-08-07T12:17:36.312Z</time>
      </trkpt>
      <trkpt lat="46.91356" lon="8.63331">
        <ele>663</ele>
        <time>2021-08-07T12:17:37.312Z</time>
      </trkpt>
      <trkpt lat="46.91355" lon="8.6333">
        <ele>663</ele>
        <time>2021-08-07T12:17:38.313Z</time>
      </trkpt>
      <trkpt lat="46.91355" lon="8.6333">
        <ele>663</ele>
        <time>2021-08-07T12:17:39.313Z</time>
      </trkpt>
      <trkpt lat="46.91353" lon="8.63328">
        <ele>663</ele>
        <time>2021-08-07T12:17:40.313Z</time>
      </trkpt>
      <trkpt lat="46.91352" lon="8.63327">
        <ele>663</ele>
        <time>2021-08-07T12:17:41.313Z</time>
      </trkpt>
      <trkpt lat="46.91352" lon="8.63325">
        <ele>663</ele>
        <time>2021-08-07T12:17:42.312Z</time>
      </trkpt>
      <trkpt lat="46.91352" lon="8.63326">
        <ele>663</ele>
        <time>2021-08-07T12:17:43.313Z</time>
      </trkpt>
      <trkpt lat="46.91356" lon="8.63327">
        <ele>663</ele>
        <time>2021-08-07T12:17:44.312Z</time>
      </trkpt>
      <trkpt lat="46.91359" lon="8.63325">
        <ele>663</ele>
        <time>2021-08-07T12:17:45.313Z</time>
      </trkpt>
      <trkpt lat="46.9136" lon="8.63325">
        <ele>663</ele>
        <time>2021-08-07T12:17:46.313Z</time>
      </trkpt>
      <trkpt lat="46.91358" lon="8.63326">
        <ele>662</ele>
        <time>2021-08-07T12:17:47.312Z</time>
      </trkpt>
      <trkpt lat="46.91355" lon="8.63326">
        <ele>662</ele>
        <time>2021-08-07T12:17:48.312Z</time>
      </trkpt>
      <trkpt lat="46.91352" lon="8.63326">
        <ele>662</ele>
        <time>2021-08-07T12:17:49.313Z</time>
      </trkpt>
      <trkpt lat="46.91349" lon="8.63326">
        <ele>662</ele>
        <time>2021-08-07T12:17:50.312Z</time>
      </trkpt>
      <trkpt lat="46.91347" lon="8.63326">
        <ele>662</ele>
        <time>2021-08-07T12:17:51.312Z</time>
      </trkpt>
      <trkpt lat="46.91345" lon="8.63327">
        <ele>662</ele>
        <time>2021-08-07T12:17:52.312Z</time>
      </trkpt>
      <trkpt lat="46.91345" lon="8.63327">
        <ele>662</ele>
        <time>2021-08-07T12:17:53.312Z</time>
      </trkpt>
      <trkpt lat="46.91342" lon="8.63326">
        <ele>662</ele>
        <time>2021-08-07T12:17:54.312Z</time>
      </trkpt>
      <trkpt lat="46.9134" lon="8.63325">
        <ele>662</ele>
        <time>2021-08-07T12:17:55.313Z</time>
      </trkpt>
      <trkpt lat="46.9134" lon="8.63325">
        <ele>662</ele>
        <time>2021-08-07T12:17:56.313Z</time>
      </trkpt>
      <trkpt lat="46.91339" lon="8.63325">
        <ele>662</ele>
        <time>2021-08-07T12:17:57.312Z</time>
      </trkpt>
      <trkpt lat="46.91327" lon="8.63323">
        <ele>662</ele>
        <time>2021-08-07T12:18:05.312Z</time>
      </trkpt>
      <trkpt lat="46.91334" lon="8.6332">
        <ele>662</ele>
        <time>2021-08-07T12:18:06.312Z</time>
      </trkpt>
      <trkpt lat="46.91342" lon="8.63315">
        <ele>662</ele>
        <time>2021-08-07T12:18:07.313Z</time>
      </trkpt>
      <trkpt lat="46.91347" lon="8.63314">
        <ele>662</ele>
        <time>2021-08-07T12:18:08.313Z</time>
      </trkpt>
      <trkpt lat="46.91349" lon="8.63257">
        <ele>657</ele>
        <time>2021-08-07T12:18:09.314Z</time>
      </trkpt>
      <trkpt lat="46.91351" lon="8.63254">
        <ele>657</ele>
        <time>2021-08-07T12:18:10.314Z</time>
      </trkpt>
      <trkpt lat="46.91352" lon="8.63252">
        <ele>657</ele>
        <time>2021-08-07T12:18:11.313Z</time>
      </trkpt>
      <trkpt lat="46.91355" lon="8.6325">
        <ele>657</ele>
        <time>2021-08-07T12:18:12.313Z</time>
      </trkpt>
      <trkpt lat="46.91357" lon="8.63249">
        <ele>657</ele>
        <time>2021-08-07T12:18:13.313Z</time>
      </trkpt>
      <trkpt lat="46.91358" lon="8.63247">
        <ele>657</ele>
        <time>2021-08-07T12:18:14.313Z</time>
      </trkpt>
      <trkpt lat="46.91359" lon="8.63248">
        <ele>657</ele>
        <time>2021-08-07T12:18:15.314Z</time>
      </trkpt>
      <trkpt lat="46.91362" lon="8.63249">
        <ele>657</ele>
        <time>2021-08-07T12:18:16.313Z</time>
      </trkpt>
      <trkpt lat="46.91361" lon="8.6325">
        <ele>657</ele>
        <time>2021-08-07T12:18:17.313Z</time>
      </trkpt>
      <trkpt lat="46.91362" lon="8.63248">
        <ele>657</ele>
        <time>2021-08-07T12:18:18.314Z</time>
      </trkpt>
      <trkpt lat="46.91359" lon="8.63247">
        <ele>657</ele>
        <time>2021-08-07T12:18:19.314Z</time>
      </trkpt>
      <trkpt lat="46.91358" lon="8.63247">
        <ele>657</ele>
        <time>2021-08-07T12:18:20.314Z</time>
      </trkpt>
      <trkpt lat="46.91357" lon="8.63246">
        <ele>657</ele>
        <time>2021-08-07T12:18:21.313Z</time>
      </trkpt>
      <trkpt lat="46.91352" lon="8.63245">
        <ele>657</ele>
        <time>2021-08-07T12:18:22.313Z</time>
      </trkpt>
      <trkpt lat="46.9135" lon="8.63244">
        <ele>657</ele>
        <time>2021-08-07T12:18:23.313Z</time>
      </trkpt>
      <trkpt lat="46.91346" lon="8.63244">
        <ele>657</ele>
        <time>2021-08-07T12:18:24.314Z</time>
      </trkpt>
      <trkpt lat="46.91345" lon="8.63243">
        <ele>657</ele>
        <time>2021-08-07T12:18:25.314Z</time>
      </trkpt>
      <trkpt lat="46.91346" lon="8.63241">
        <ele>657</ele>
        <time>2021-08-07T12:18:26.313Z</time>
      </trkpt>
      <trkpt lat="46.91345" lon="8.63242">
        <ele>657</ele>
        <time>2021-08-07T12:18:27.313Z</time>
      </trkpt>
      <trkpt lat="46.91345" lon="8.63242">
        <ele>657</ele>
        <time>2021-08-07T12:18:28.313Z</time>
      </trkpt>
      <trkpt lat="46.91344" lon="8.6324">
        <ele>658</ele>
        <time>2021-08-07T12:18:29.314Z</time>
      </trkpt>
      <trkpt lat="46.91342" lon="8.63242">
        <ele>658</ele>
        <time>2021-08-07T12:18:30.313Z</time>
      </trkpt>
      <trkpt lat="46.9134" lon="8.63243">
        <ele>658</ele>
        <time>2021-08-07T12:18:31.313Z</time>
      </trkpt>
      <trkpt lat="46.91336" lon="8.63245">
        <ele>658</ele>
        <time>2021-08-07T12:18:32.314Z</time>
      </trkpt>
      <trkpt lat="46.91332" lon="8.63244">
        <ele>658</ele>
        <time>2021-08-07T12:18:33.313Z</time>
      </trkpt>
      <trkpt lat="46.91329" lon="8.63244">
        <ele>658</ele>
        <time>2021-08-07T12:18:34.313Z</time>
      </trkpt>
      <trkpt lat="46.91323" lon="8.63249">
        <ele>658</ele>
        <time>2021-08-07T12:18:37.313Z</time>
      </trkpt>
      <trkpt lat="46.91322" lon="8.63249">
        <ele>658</ele>
        <time>2021-08-07T12:18:38.313Z</time>
      </trkpt>
      <trkpt lat="46.91321" lon="8.6325">
        <ele>658</ele>
        <time>2021-08-07T12:18:39.314Z</time>
      </trkpt>
      <trkpt lat="46.9132" lon="8.63249">
        <ele>658</ele>
        <time>2021-08-07T12:18:40.313Z</time>
      </trkpt>
      <trkpt lat="46.91319" lon="8.63247">
        <ele>658</ele>
        <time>2021-08-07T12:18:41.313Z</time>
      </trkpt>
      <trkpt lat="46.91319" lon="8.63246">
        <ele>658</ele>
        <time>2021-08-07T12:18:42.313Z</time>
      </trkpt>
      <trkpt lat="46.91319" lon="8.63244">
        <ele>658</ele>
        <time>2021-08-07T12:18:43.313Z</time>
      </trkpt>
      <trkpt lat="46.9132" lon="8.63243">
        <ele>658</ele>
        <time>2021-08-07T12:18:44.313Z</time>
      </trkpt>
      <trkpt lat="46.91319" lon="8.63241">
        <ele>658</ele>
        <time>2021-08-07T12:18:45.314Z</time>
      </trkpt>
      <trkpt lat="46.91317" lon="8.63237">
        <ele>658</ele>
        <time>2021-08-07T12:18:47.314Z</time>
      </trkpt>
      <trkpt lat="46.91317" lon="8.63238">
        <ele>658</ele>
        <time>2021-08-07T12:18:48.315Z</time>
      </trkpt>
      <trkpt lat="46.91317" lon="8.63238">
        <ele>658</ele>
        <time>2021-08-07T12:18:49.315Z</time>
      </trkpt>
      <trkpt lat="46.91317" lon="8.63237">
        <ele>658</ele>
        <time>2021-08-07T12:18:50.314Z</time>
      </trkpt>
      <trkpt lat="46.91318" lon="8.63236">
        <ele>658</ele>
        <time>2021-08-07T12:18:51.315Z</time>
      </trkpt>
      <trkpt lat="46.91318" lon="8.63236">
        <ele>658</ele>
        <time>2021-08-07T12:18:52.315Z</time>
      </trkpt>
      <trkpt lat="46.91318" lon="8.63236">
        <ele>658</ele>
        <time>2021-08-07T12:18:53.315Z</time>
      </trkpt>
      <trkpt lat="46.91316" lon="8.63236">
        <ele>658</ele>
        <time>2021-08-07T12:18:54.315Z</time>
      </trkpt>
      <trkpt lat="46.91315" lon="8.63238">
        <ele>658</ele>
        <time>2021-08-07T12:18:55.314Z</time>
      </trkpt>
      <trkpt lat="46.91313" lon="8.6324">
        <ele>658</ele>
        <time>2021-08-07T12:18:56.315Z</time>
      </trkpt>
      <trkpt lat="46.91313" lon="8.63241">
        <ele>658</ele>
        <time>2021-08-07T12:18:57.314Z</time>
      </trkpt>
      <trkpt lat="46.91311" lon="8.63243">
        <ele>658</ele>
        <time>2021-08-07T12:18:58.315Z</time>
      </trkpt>
      <trkpt lat="46.9131" lon="8.63243">
        <ele>658</ele>
        <time>2021-08-07T12:18:59.314Z</time>
      </trkpt>
      <trkpt lat="46.91309" lon="8.63243">
        <ele>658</ele>
        <time>2021-08-07T12:19:00.314Z</time>
      </trkpt>
      <trkpt lat="46.91308" lon="8.63244">
        <ele>658</ele>
        <time>2021-08-07T12:19:01.315Z</time>
      </trkpt>
      <trkpt lat="46.91307" lon="8.63246">
        <ele>658</ele>
        <time>2021-08-07T12:19:02.315Z</time>
      </trkpt>
      <trkpt lat="46.91305" lon="8.63247">
        <ele>658</ele>
        <time>2021-08-07T12:19:03.315Z</time>
      </trkpt>
      <trkpt lat="46.91305" lon="8.63245">
        <ele>658</ele>
        <time>2021-08-07T12:19:04.315Z</time>
      </trkpt>
      <trkpt lat="46.91305" lon="8.63243">
        <ele>658</ele>
        <time>2021-08-07T12:19:05.315Z</time>
      </trkpt>
      <trkpt lat="46.91304" lon="8.63242">
        <ele>658</ele>
        <time>2021-08-07T12:19:06.314Z</time>
      </trkpt>
      <trkpt lat="46.91304" lon="8.6324">
        <ele>659</ele>
        <time>2021-08-07T12:19:07.315Z</time>
      </trkpt>
      <trkpt lat="46.91303" lon="8.63238">
        <ele>658</ele>
        <time>2021-08-07T12:19:08.315Z</time>
      </trkpt>
      <trkpt lat="46.91301" lon="8.63235">
        <ele>658</ele>
        <time>2021-08-07T12:19:09.314Z</time>
      </trkpt>
      <trkpt lat="46.91297" lon="8.63229">
        <ele>658</ele>
        <time>2021-08-07T12:19:10.315Z</time>
      </trkpt>
      <trkpt lat="46.91296" lon="8.63228">
        <ele>658</ele>
        <time>2021-08-07T12:19:11.315Z</time>
      </trkpt>
      <trkpt lat="46.91295" lon="8.63226">
        <ele>658</ele>
        <time>2021-08-07T12:19:12.315Z</time>
      </trkpt>
      <trkpt lat="46.91294" lon="8.63223">
        <ele>658</ele>
        <time>2021-08-07T12:19:13.315Z</time>
      </trkpt>
      <trkpt lat="46.91295" lon="8.6322">
        <ele>658</ele>
        <time>2021-08-07T12:19:14.315Z</time>
      </trkpt>
      <trkpt lat="46.91297" lon="8.63219">
        <ele>658</ele>
        <time>2021-08-07T12:19:15.315Z</time>
      </trkpt>
      <trkpt lat="46.91299" lon="8.63219">
        <ele>658</ele>
        <time>2021-08-07T12:19:16.315Z</time>
      </trkpt>
      <trkpt lat="46.91301" lon="8.63219">
        <ele>658</ele>
        <time>2021-08-07T12:19:17.315Z</time>
      </trkpt>
      <trkpt lat="46.913" lon="8.63219">
        <ele>658</ele>
        <time>2021-08-07T12:19:25.450Z</time>
      </trkpt>
      <trkpt lat="46.91299" lon="8.6322">
        <ele>658</ele>
        <time>2021-08-07T12:19:35.313Z</time>
      </trkpt>
      <trkpt lat="46.91296" lon="8.63221">
        <ele>658</ele>
        <time>2021-08-07T12:19:36.313Z</time>
      </trkpt>
      <trkpt lat="46.91293" lon="8.63222">
        <ele>658</ele>
        <time>2021-08-07T12:19:37.312Z</time>
      </trkpt>
      <trkpt lat="46.9129" lon="8.63223">
        <ele>658</ele>
        <time>2021-08-07T12:19:38.313Z</time>
      </trkpt>
      <trkpt lat="46.91288" lon="8.63224">
        <ele>658</ele>
        <time>2021-08-07T12:19:39.313Z</time>
      </trkpt>
      <trkpt lat="46.91286" lon="8.63224">
        <ele>658</ele>
        <time>2021-08-07T12:19:40.313Z</time>
      </trkpt>
      <trkpt lat="46.91284" lon="8.63224">
        <ele>658</ele>
        <time>2021-08-07T12:19:41.313Z</time>
      </trkpt>
      <trkpt lat="46.91283" lon="8.63224">
        <ele>658</ele>
        <time>2021-08-07T12:19:42.313Z</time>
      </trkpt>
      <trkpt lat="46.91282" lon="8.63224">
        <ele>658</ele>
        <time>2021-08-07T12:19:43.312Z</time>
      </trkpt>
      <trkpt lat="46.91281" lon="8.63223">
        <ele>658</ele>
        <time>2021-08-07T12:19:44.312Z</time>
      </trkpt>
      <trkpt lat="46.91281" lon="8.63223">
        <ele>658</ele>
        <time>2021-08-07T12:19:54.479Z</time>
      </trkpt>
      <trkpt lat="46.91281" lon="8.63222">
        <ele>658</ele>
        <time>2021-08-07T12:19:55.479Z</time>
      </trkpt>
      <trkpt lat="46.91284" lon="8.63221">
        <ele>658</ele>
        <time>2021-08-07T12:19:56.479Z</time>
      </trkpt>
      <trkpt lat="46.9129" lon="8.6322">
        <ele>658</ele>
        <time>2021-08-07T12:19:57.478Z</time>
      </trkpt>
      <trkpt lat="46.91294" lon="8.6322">
        <ele>658</ele>
        <time>2021-08-07T12:19:58.479Z</time>
      </trkpt>
      <trkpt lat="46.91296" lon="8.63219">
        <ele>658</ele>
        <time>2021-08-07T12:19:59.479Z</time>
      </trkpt>
      <trkpt lat="46.91297" lon="8.63218">
        <ele>658</ele>
        <time>2021-08-07T12:20:00.478Z</time>
      </trkpt>
      <trkpt lat="46.913" lon="8.63217">
        <ele>658</ele>
        <time>2021-08-07T12:20:01.478Z</time>
      </trkpt>
      <trkpt lat="46.91302" lon="8.63214">
        <ele>658</ele>
        <time>2021-08-07T12:20:02.478Z</time>
      </trkpt>
      <trkpt lat="46.91296" lon="8.63213">
        <ele>658</ele>
        <time>2021-08-07T12:20:03.479Z</time>
      </trkpt>
      <trkpt lat="46.91298" lon="8.63212">
        <ele>657</ele>
        <time>2021-08-07T12:20:04.479Z</time>
      </trkpt>
      <trkpt lat="46.91302" lon="8.63212">
        <ele>657</ele>
        <time>2021-08-07T12:20:05.478Z</time>
      </trkpt>
      <trkpt lat="46.91306" lon="8.63212">
        <ele>657</ele>
        <time>2021-08-07T12:20:13.560Z</time>
      </trkpt>
      <trkpt lat="46.91305" lon="8.63211">
        <ele>657</ele>
        <time>2021-08-07T12:20:14.560Z</time>
      </trkpt>
      <trkpt lat="46.91307" lon="8.6321">
        <ele>657</ele>
        <time>2021-08-07T12:20:15.560Z</time>
      </trkpt>
      <trkpt lat="46.91307" lon="8.63208">
        <ele>658</ele>
        <time>2021-08-07T12:20:16.560Z</time>
      </trkpt>
      <trkpt lat="46.91305" lon="8.63205">
        <ele>658</ele>
        <time>2021-08-07T12:20:17.560Z</time>
      </trkpt>
      <trkpt lat="46.91304" lon="8.63205">
        <ele>658</ele>
        <time>2021-08-07T12:20:18.559Z</time>
      </trkpt>
      <trkpt lat="46.91302" lon="8.63205">
        <ele>658</ele>
        <time>2021-08-07T12:20:19.559Z</time>
      </trkpt>
      <trkpt lat="46.91302" lon="8.63206">
        <ele>658</ele>
        <time>2021-08-07T12:20:20.560Z</time>
      </trkpt>
      <trkpt lat="46.913" lon="8.63207">
        <ele>658</ele>
        <time>2021-08-07T12:20:21.559Z</time>
      </trkpt>
      <trkpt lat="46.91296" lon="8.63207">
        <ele>657</ele>
        <time>2021-08-07T12:20:22.559Z</time>
      </trkpt>
      <trkpt lat="46.91293" lon="8.63206">
        <ele>657</ele>
        <time>2021-08-07T12:20:23.560Z</time>
      </trkpt>
      <trkpt lat="46.9129" lon="8.63206">
        <ele>657</ele>
        <time>2021-08-07T12:20:24.559Z</time>
      </trkpt>
      <trkpt lat="46.91291" lon="8.63208">
        <ele>657</ele>
        <time>2021-08-07T12:20:25.559Z</time>
      </trkpt>
      <trkpt lat="46.91291" lon="8.63209">
        <ele>657</ele>
        <time>2021-08-07T12:20:26.559Z</time>
      </trkpt>
      <trkpt lat="46.9129" lon="8.63209">
        <ele>657</ele>
        <time>2021-08-07T12:20:27.559Z</time>
      </trkpt>
      <trkpt lat="46.91287" lon="8.63208">
        <ele>656</ele>
        <time>2021-08-07T12:20:28.559Z</time>
      </trkpt>
      <trkpt lat="46.91286" lon="8.63208">
        <ele>656</ele>
        <time>2021-08-07T12:20:29.560Z</time>
      </trkpt>
      <trkpt lat="46.91285" lon="8.63207">
        <ele>656</ele>
        <time>2021-08-07T12:20:30.560Z</time>
      </trkpt>
      <trkpt lat="46.91285" lon="8.63207">
        <ele>656</ele>
        <time>2021-08-07T12:20:31.559Z</time>
      </trkpt>
      <trkpt lat="46.91285" lon="8.63207">
        <ele>656</ele>
        <time>2021-08-07T12:20:32.559Z</time>
      </trkpt>
      <trkpt lat="46.91285" lon="8.63207">
        <ele>656</ele>
        <time>2021-08-07T12:20:33.560Z</time>
      </trkpt>
      <trkpt lat="46.91285" lon="8.63206">
        <ele>656</ele>
        <time>2021-08-07T12:20:34.560Z</time>
      </trkpt>
      <trkpt lat="46.91285" lon="8.63205">
        <ele>656</ele>
        <time>2021-08-07T12:20:35.560Z</time>
      </trkpt>
      <trkpt lat="46.91285" lon="8.63205">
        <ele>655</ele>
        <time>2021-08-07T12:20:36.559Z</time>
      </trkpt>
      <trkpt lat="46.91285" lon="8.63205">
        <ele>655</ele>
        <time>2021-08-07T12:20:43.694Z</time>
      </trkpt>
      <trkpt lat="46.91286" lon="8.63205">
        <ele>655</ele>
        <time>2021-08-07T12:20:44.693Z</time>
      </trkpt>
      <trkpt lat="46.91287" lon="8.63206">
        <ele>654</ele>
        <time>2021-08-07T12:20:45.694Z</time>
      </trkpt>
      <trkpt lat="46.91287" lon="8.63206">
        <ele>652</ele>
        <time>2021-08-07T12:20:52.804Z</time>
      </trkpt>
      <trkpt lat="46.91287" lon="8.63206">
        <ele>650</ele>
        <time>2021-08-07T12:20:53.804Z</time>
      </trkpt>
      <trkpt lat="46.91286" lon="8.63206">
        <ele>648</ele>
        <time>2021-08-07T12:20:54.804Z</time>
      </trkpt>
      <trkpt lat="46.91287" lon="8.63205">
        <ele>646</ele>
        <time>2021-08-07T12:20:55.803Z</time>
      </trkpt>
      <trkpt lat="46.91287" lon="8.63204">
        <ele>644</ele>
        <time>2021-08-07T12:20:56.804Z</time>
      </trkpt>
      <trkpt lat="46.91286" lon="8.63203">
        <ele>642</ele>
        <time>2021-08-07T12:20:57.803Z</time>
      </trkpt>
      <trkpt lat="46.91286" lon="8.63202">
        <ele>641</ele>
        <time>2021-08-07T12:20:58.803Z</time>
      </trkpt>
      <trkpt lat="46.91292" lon="8.632">
        <ele>637</ele>
        <time>2021-08-07T12:20:59.803Z</time>
      </trkpt>
      <trkpt lat="46.91293" lon="8.632">
        <ele>636</ele>
        <time>2021-08-07T12:21:00.804Z</time>
      </trkpt>
      <trkpt lat="46.91292" lon="8.632">
        <ele>635</ele>
        <time>2021-08-07T12:21:01.803Z</time>
      </trkpt>
      <trkpt lat="46.91291" lon="8.63202">
        <ele>634</ele>
        <time>2021-08-07T12:21:02.805Z</time>
      </trkpt>
      <trkpt lat="46.91291" lon="8.63203">
        <ele>633</ele>
        <time>2021-08-07T12:21:03.804Z</time>
      </trkpt>
      <trkpt lat="46.9129" lon="8.63203">
        <ele>633</ele>
        <time>2021-08-07T12:21:04.804Z</time>
      </trkpt>
      <trkpt lat="46.91289" lon="8.63203">
        <ele>632</ele>
        <time>2021-08-07T12:21:05.807Z</time>
      </trkpt>
      <trkpt lat="46.91289" lon="8.63203">
        <ele>631</ele>
        <time>2021-08-07T12:21:06.806Z</time>
      </trkpt>
      <trkpt lat="46.91288" lon="8.63203">
        <ele>631</ele>
        <time>2021-08-07T12:21:07.806Z</time>
      </trkpt>
      <trkpt lat="46.91288" lon="8.63203">
        <ele>630</ele>
        <time>2021-08-07T12:21:08.807Z</time>
      </trkpt>
      <trkpt lat="46.91288" lon="8.63203">
        <ele>630</ele>
        <time>2021-08-07T12:21:09.806Z</time>
      </trkpt>
      <trkpt lat="46.91288" lon="8.63202">
        <ele>630</ele>
        <time>2021-08-07T12:21:10.807Z</time>
      </trkpt>
      <trkpt lat="46.91287" lon="8.63203">
        <ele>629</ele>
        <time>2021-08-07T12:21:26.933Z</time>
      </trkpt>
      <trkpt lat="46.91286" lon="8.63205">
        <ele>629</ele>
        <time>2021-08-07T12:21:27.933Z</time>
      </trkpt>
      <trkpt lat="46.91284" lon="8.63206">
        <ele>629</ele>
        <time>2021-08-07T12:21:33.794Z</time>
      </trkpt>
      <trkpt lat="46.91284" lon="8.63205">
        <ele>629</ele>
        <time>2021-08-07T12:21:34.794Z</time>
      </trkpt>
      <trkpt lat="46.91283" lon="8.63203">
        <ele>629</ele>
        <time>2021-08-07T12:21:35.793Z</time>
      </trkpt>
      <trkpt lat="46.91284" lon="8.63202">
        <ele>628</ele>
        <time>2021-08-07T12:21:36.794Z</time>
      </trkpt>
      <trkpt lat="46.91284" lon="8.63201">
        <ele>628</ele>
        <time>2021-08-07T12:21:49.834Z</time>
      </trkpt>
      <trkpt lat="46.91284" lon="8.632">
        <ele>628</ele>
        <time>2021-08-07T12:21:50.834Z</time>
      </trkpt>
      <trkpt lat="46.91284" lon="8.63199">
        <ele>628</ele>
        <time>2021-08-07T12:21:59.706Z</time>
      </trkpt>
      <trkpt lat="46.91283" lon="8.63198">
        <ele>627</ele>
        <time>2021-08-07T12:22:00.707Z</time>
      </trkpt>
      <trkpt lat="46.91283" lon="8.63197">
        <ele>627</ele>
        <time>2021-08-07T12:22:01.706Z</time>
      </trkpt>
      <trkpt lat="46.91283" lon="8.63196">
        <ele>627</ele>
        <time>2021-08-07T12:22:02.707Z</time>
      </trkpt>
      <trkpt lat="46.91283" lon="8.63195">
        <ele>627</ele>
        <time>2021-08-07T12:22:03.706Z</time>
      </trkpt>
      <trkpt lat="46.91283" lon="8.63193">
        <ele>626</ele>
        <time>2021-08-07T12:22:04.707Z</time>
      </trkpt>
      <trkpt lat="46.91283" lon="8.63193">
        <ele>626</ele>
        <time>2021-08-07T12:22:43.857Z</time>
      </trkpt>
      <trkpt lat="46.91282" lon="8.63192">
        <ele>626</ele>
        <time>2021-08-07T12:22:44.857Z</time>
      </trkpt>
      <trkpt lat="46.91281" lon="8.6319">
        <ele>626</ele>
        <time>2021-08-07T12:22:45.857Z</time>
      </trkpt>
      <trkpt lat="46.91281" lon="8.63189">
        <ele>625</ele>
        <time>2021-08-07T12:22:46.856Z</time>
      </trkpt>
      <trkpt lat="46.9128" lon="8.63187">
        <ele>625</ele>
        <time>2021-08-07T12:23:01.928Z</time>
      </trkpt>
      <trkpt lat="46.91281" lon="8.63186">
        <ele>625</ele>
        <time>2021-08-07T12:23:02.929Z</time>
      </trkpt>
      <trkpt lat="46.91281" lon="8.63186">
        <ele>625</ele>
        <time>2021-08-07T12:23:03.928Z</time>
      </trkpt>
      <trkpt lat="46.91282" lon="8.63186">
        <ele>625</ele>
        <time>2021-08-07T12:23:04.929Z</time>
      </trkpt>
      <trkpt lat="46.91282" lon="8.63185">
        <ele>624</ele>
        <time>2021-08-07T12:23:05.928Z</time>
      </trkpt>
      <trkpt lat="46.91281" lon="8.63184">
        <ele>624</ele>
        <time>2021-08-07T12:23:11.073Z</time>
      </trkpt>
      <trkpt lat="46.91281" lon="8.63183">
        <ele>624</ele>
        <time>2021-08-07T12:23:12.074Z</time>
      </trkpt>
      <trkpt lat="46.91281" lon="8.63182">
        <ele>624</ele>
        <time>2021-08-07T12:23:13.074Z</time>
      </trkpt>
      <trkpt lat="46.9128" lon="8.63181">
        <ele>624</ele>
        <time>2021-08-07T12:23:14.074Z</time>
      </trkpt>
      <trkpt lat="46.9128" lon="8.6318">
        <ele>624</ele>
        <time>2021-08-07T12:23:15.073Z</time>
      </trkpt>
      <trkpt lat="46.9128" lon="8.63179">
        <ele>624</ele>
        <time>2021-08-07T12:23:16.074Z</time>
      </trkpt>
      <trkpt lat="46.9128" lon="8.63178">
        <ele>624</ele>
        <time>2021-08-07T12:23:17.074Z</time>
      </trkpt>
      <trkpt lat="46.9128" lon="8.63176">
        <ele>624</ele>
        <time>2021-08-07T12:23:18.074Z</time>
      </trkpt>
      <trkpt lat="46.91281" lon="8.63176">
        <ele>624</ele>
        <time>2021-08-07T12:23:19.074Z</time>
      </trkpt>
      <trkpt lat="46.91281" lon="8.63175">
        <ele>624</ele>
        <time>2021-08-07T12:23:20.073Z</time>
      </trkpt>
      <trkpt lat="46.91281" lon="8.63175">
        <ele>624</ele>
        <time>2021-08-07T12:23:21.074Z</time>
      </trkpt>
      <trkpt lat="46.91282" lon="8.63174">
        <ele>624</ele>
        <time>2021-08-07T12:23:22.073Z</time>
      </trkpt>
      <trkpt lat="46.91282" lon="8.63173">
        <ele>624</ele>
        <time>2021-08-07T12:23:23.074Z</time>
      </trkpt>
      <trkpt lat="46.91283" lon="8.63172">
        <ele>624</ele>
        <time>2021-08-07T12:23:24.074Z</time>
      </trkpt>
      <trkpt lat="46.91283" lon="8.63172">
        <ele>623</ele>
        <time>2021-08-07T12:23:25.074Z</time>
      </trkpt>
      <trkpt lat="46.91282" lon="8.63171">
        <ele>623</ele>
        <time>2021-08-07T12:23:26.074Z</time>
      </trkpt>
      <trkpt lat="46.91282" lon="8.6317">
        <ele>623</ele>
        <time>2021-08-07T12:23:27.073Z</time>
      </trkpt>
      <trkpt lat="46.91283" lon="8.63169">
        <ele>623</ele>
        <time>2021-08-07T12:23:28.074Z</time>
      </trkpt>
      <trkpt lat="46.91283" lon="8.63166">
        <ele>623</ele>
        <time>2021-08-07T12:23:29.074Z</time>
      </trkpt>
      <trkpt lat="46.91283" lon="8.63165">
        <ele>623</ele>
        <time>2021-08-07T12:23:30.074Z</time>
      </trkpt>
      <trkpt lat="46.91282" lon="8.63163">
        <ele>623</ele>
        <time>2021-08-07T12:23:31.073Z</time>
      </trkpt>
      <trkpt lat="46.91281" lon="8.63161">
        <ele>623</ele>
        <time>2021-08-07T12:23:32.074Z</time>
      </trkpt>
      <trkpt lat="46.91281" lon="8.63159">
        <ele>623</ele>
        <time>2021-08-07T12:23:33.074Z</time>
      </trkpt>
      <trkpt lat="46.91281" lon="8.63158">
        <ele>622</ele>
        <time>2021-08-07T12:23:34.073Z</time>
      </trkpt>
      <trkpt lat="46.91281" lon="8.63157">
        <ele>622</ele>
        <time>2021-08-07T12:23:35.073Z</time>
      </trkpt>
      <trkpt lat="46.91281" lon="8.63156">
        <ele>622</ele>
        <time>2021-08-07T12:23:36.074Z</time>
      </trkpt>
      <trkpt lat="46.91281" lon="8.63154">
        <ele>622</ele>
        <time>2021-08-07T12:23:38.152Z</time>
      </trkpt>
      <trkpt lat="46.91281" lon="8.63152">
        <ele>622</ele>
        <time>2021-08-07T12:23:39.153Z</time>
      </trkpt>
      <trkpt lat="46.91282" lon="8.63151">
        <ele>622</ele>
        <time>2021-08-07T12:23:40.152Z</time>
      </trkpt>
      <trkpt lat="46.91282" lon="8.63151">
        <ele>621</ele>
        <time>2021-08-07T12:23:41.153Z</time>
      </trkpt>
      <trkpt lat="46.91283" lon="8.63151">
        <ele>621</ele>
        <time>2021-08-07T12:23:42.153Z</time>
      </trkpt>
      <trkpt lat="46.91283" lon="8.63151">
        <ele>621</ele>
        <time>2021-08-07T12:23:43.152Z</time>
      </trkpt>
      <trkpt lat="46.91283" lon="8.63151">
        <ele>621</ele>
        <time>2021-08-07T12:23:44.152Z</time>
      </trkpt>
      <trkpt lat="46.91283" lon="8.6315">
        <ele>621</ele>
        <time>2021-08-07T12:23:45.152Z</time>
      </trkpt>
      <trkpt lat="46.91283" lon="8.63149">
        <ele>621</ele>
        <time>2021-08-07T12:23:46.153Z</time>
      </trkpt>
      <trkpt lat="46.91282" lon="8.63149">
        <ele>621</ele>
        <time>2021-08-07T12:23:47.152Z</time>
      </trkpt>
      <trkpt lat="46.91281" lon="8.63149">
        <ele>620</ele>
        <time>2021-08-07T12:23:48.153Z</time>
      </trkpt>
      <trkpt lat="46.91282" lon="8.63148">
        <ele>620</ele>
        <time>2021-08-07T12:23:49.153Z</time>
      </trkpt>
      <trkpt lat="46.91283" lon="8.63147">
        <ele>620</ele>
        <time>2021-08-07T12:23:50.152Z</time>
      </trkpt>
      <trkpt lat="46.91284" lon="8.63146">
        <ele>620</ele>
        <time>2021-08-07T12:23:51.152Z</time>
      </trkpt>
      <trkpt lat="46.91285" lon="8.63145">
        <ele>619</ele>
        <time>2021-08-07T12:23:52.152Z</time>
      </trkpt>
      <trkpt lat="46.91286" lon="8.63144">
        <ele>619</ele>
        <time>2021-08-07T12:23:53.152Z</time>
      </trkpt>
      <trkpt lat="46.91286" lon="8.63143">
        <ele>618</ele>
        <time>2021-08-07T12:23:54.152Z</time>
      </trkpt>
      <trkpt lat="46.91286" lon="8.63142">
        <ele>618</ele>
        <time>2021-08-07T12:23:55.152Z</time>
      </trkpt>
      <trkpt lat="46.91286" lon="8.63141">
        <ele>617</ele>
        <time>2021-08-07T12:23:58.942Z</time>
      </trkpt>
      <trkpt lat="46.91286" lon="8.6314">
        <ele>617</ele>
        <time>2021-08-07T12:23:59.942Z</time>
      </trkpt>
      <trkpt lat="46.91286" lon="8.63139">
        <ele>616</ele>
        <time>2021-08-07T12:24:00.942Z</time>
      </trkpt>
      <trkpt lat="46.91286" lon="8.63137">
        <ele>615</ele>
        <time>2021-08-07T12:24:01.942Z</time>
      </trkpt>
      <trkpt lat="46.91286" lon="8.63135">
        <ele>615</ele>
        <time>2021-08-07T12:24:02.942Z</time>
      </trkpt>
      <trkpt lat="46.91286" lon="8.63135">
        <ele>614</ele>
        <time>2021-08-07T12:24:03.943Z</time>
      </trkpt>
      <trkpt lat="46.91286" lon="8.63134">
        <ele>614</ele>
        <time>2021-08-07T12:24:04.942Z</time>
      </trkpt>
      <trkpt lat="46.91287" lon="8.63134">
        <ele>613</ele>
        <time>2021-08-07T12:24:05.943Z</time>
      </trkpt>
      <trkpt lat="46.91286" lon="8.63133">
        <ele>612</ele>
        <time>2021-08-07T12:24:06.943Z</time>
      </trkpt>
      <trkpt lat="46.91286" lon="8.63133">
        <ele>611</ele>
        <time>2021-08-07T12:24:07.942Z</time>
      </trkpt>
      <trkpt lat="46.91286" lon="8.63132">
        <ele>611</ele>
        <time>2021-08-07T12:24:08.943Z</time>
      </trkpt>
      <trkpt lat="46.91286" lon="8.63132">
        <ele>610</ele>
        <time>2021-08-07T12:24:09.943Z</time>
      </trkpt>
      <trkpt lat="46.91286" lon="8.63131">
        <ele>609</ele>
        <time>2021-08-07T12:24:15.936Z</time>
      </trkpt>
      <trkpt lat="46.91286" lon="8.63129">
        <ele>609</ele>
        <time>2021-08-07T12:24:16.936Z</time>
      </trkpt>
      <trkpt lat="46.91286" lon="8.63127">
        <ele>608</ele>
        <time>2021-08-07T12:24:21.814Z</time>
      </trkpt>
      <trkpt lat="46.91287" lon="8.63126">
        <ele>608</ele>
        <time>2021-08-07T12:24:22.815Z</time>
      </trkpt>
      <trkpt lat="46.91287" lon="8.63125">
        <ele>607</ele>
        <time>2021-08-07T12:24:23.815Z</time>
      </trkpt>
      <trkpt lat="46.91286" lon="8.63122">
        <ele>607</ele>
        <time>2021-08-07T12:24:27.814Z</time>
      </trkpt>
      <trkpt lat="46.91286" lon="8.63122">
        <ele>607</ele>
        <time>2021-08-07T12:24:28.815Z</time>
      </trkpt>
      <trkpt lat="46.91286" lon="8.63122">
        <ele>606</ele>
        <time>2021-08-07T12:24:29.814Z</time>
      </trkpt>
      <trkpt lat="46.91286" lon="8.63123">
        <ele>606</ele>
        <time>2021-08-07T12:24:48.552Z</time>
      </trkpt>
      <trkpt lat="46.91286" lon="8.63124">
        <ele>606</ele>
        <time>2021-08-07T12:25:00.313Z</time>
      </trkpt>
      <trkpt lat="46.91286" lon="8.63125">
        <ele>605</ele>
        <time>2021-08-07T12:25:01.313Z</time>
      </trkpt>
      <trkpt lat="46.91286" lon="8.63126">
        <ele>605</ele>
        <time>2021-08-07T12:25:02.313Z</time>
      </trkpt>
      <trkpt lat="46.91286" lon="8.63126">
        <ele>604</ele>
        <time>2021-08-07T12:25:06.432Z</time>
      </trkpt>
      <trkpt lat="46.91286" lon="8.63127">
        <ele>604</ele>
        <time>2021-08-07T12:25:07.431Z</time>
      </trkpt>
      <trkpt lat="46.91286" lon="8.63127">
        <ele>604</ele>
        <time>2021-08-07T12:25:23.187Z</time>
      </trkpt>
      <trkpt lat="46.91286" lon="8.63126">
        <ele>603</ele>
        <time>2021-08-07T12:25:24.186Z</time>
      </trkpt>
      <trkpt lat="46.91286" lon="8.63127">
        <ele>603</ele>
        <time>2021-08-07T12:25:25.187Z</time>
      </trkpt>
      <trkpt lat="46.91284" lon="8.63128">
        <ele>602</ele>
        <time>2021-08-07T12:25:26.187Z</time>
      </trkpt>
      <trkpt lat="46.91282" lon="8.63128">
        <ele>602</ele>
        <time>2021-08-07T12:25:52.329Z</time>
      </trkpt>
      <trkpt lat="46.91281" lon="8.63128">
        <ele>602</ele>
        <time>2021-08-07T12:25:53.329Z</time>
      </trkpt>
      <trkpt lat="46.91281" lon="8.63128">
        <ele>602</ele>
        <time>2021-08-07T12:25:56.166Z</time>
      </trkpt>
      <trkpt lat="46.91281" lon="8.63129">
        <ele>602</ele>
        <time>2021-08-07T12:25:57.166Z</time>
      </trkpt>
      <trkpt lat="46.91282" lon="8.63129">
        <ele>602</ele>
        <time>2021-08-07T12:25:58.167Z</time>
      </trkpt>
      <trkpt lat="46.91282" lon="8.6313">
        <ele>602</ele>
        <time>2021-08-07T12:26:02.331Z</time>
      </trkpt>
      <trkpt lat="46.91283" lon="8.63131">
        <ele>602</ele>
        <time>2021-08-07T12:26:03.330Z</time>
      </trkpt>
      <trkpt lat="46.91284" lon="8.63132">
        <ele>602</ele>
        <time>2021-08-07T12:26:04.330Z</time>
      </trkpt>
      <trkpt lat="46.91284" lon="8.63132">
        <ele>602</ele>
        <time>2021-08-07T12:26:05.330Z</time>
      </trkpt>
      <trkpt lat="46.91285" lon="8.63133">
        <ele>602</ele>
        <time>2021-08-07T12:26:06.330Z</time>
      </trkpt>
      <trkpt lat="46.91287" lon="8.63133">
        <ele>602</ele>
        <time>2021-08-07T12:26:07.331Z</time>
      </trkpt>
      <trkpt lat="46.91288" lon="8.63134">
        <ele>602</ele>
        <time>2021-08-07T12:26:08.330Z</time>
      </trkpt>
      <trkpt lat="46.91288" lon="8.63134">
        <ele>602</ele>
        <time>2021-08-07T12:26:09.330Z</time>
      </trkpt>
      <trkpt lat="46.91289" lon="8.63134">
        <ele>601</ele>
        <time>2021-08-07T12:26:10.330Z</time>
      </trkpt>
      <trkpt lat="46.91291" lon="8.63135">
        <ele>601</ele>
        <time>2021-08-07T12:26:11.331Z</time>
      </trkpt>
      <trkpt lat="46.91293" lon="8.63137">
        <ele>601</ele>
        <time>2021-08-07T12:26:12.331Z</time>
      </trkpt>
      <trkpt lat="46.91294" lon="8.63137">
        <ele>601</ele>
        <time>2021-08-07T12:26:13.331Z</time>
      </trkpt>
      <trkpt lat="46.91293" lon="8.63135">
        <ele>601</ele>
        <time>2021-08-07T12:26:14.331Z</time>
      </trkpt>
      <trkpt lat="46.91293" lon="8.63135">
        <ele>601</ele>
        <time>2021-08-07T12:26:15.331Z</time>
      </trkpt>
      <trkpt lat="46.91292" lon="8.63134">
        <ele>601</ele>
        <time>2021-08-07T12:26:16.330Z</time>
      </trkpt>
      <trkpt lat="46.91292" lon="8.63133">
        <ele>601</ele>
        <time>2021-08-07T12:26:17.330Z</time>
      </trkpt>
      <trkpt lat="46.91291" lon="8.63132">
        <ele>601</ele>
        <time>2021-08-07T12:26:18.330Z</time>
      </trkpt>
      <trkpt lat="46.9129" lon="8.6313">
        <ele>601</ele>
        <time>2021-08-07T12:26:19.331Z</time>
      </trkpt>
      <trkpt lat="46.91289" lon="8.63129">
        <ele>601</ele>
        <time>2021-08-07T12:26:20.331Z</time>
      </trkpt>
      <trkpt lat="46.91288" lon="8.63128">
        <ele>601</ele>
        <time>2021-08-07T12:26:21.331Z</time>
      </trkpt>
      <trkpt lat="46.91288" lon="8.63126">
        <ele>601</ele>
        <time>2021-08-07T12:26:22.331Z</time>
      </trkpt>
      <trkpt lat="46.91288" lon="8.63125">
        <ele>601</ele>
        <time>2021-08-07T12:26:23.331Z</time>
      </trkpt>
      <trkpt lat="46.91287" lon="8.63126">
        <ele>601</ele>
        <time>2021-08-07T12:26:24.331Z</time>
      </trkpt>
      <trkpt lat="46.91285" lon="8.63126">
        <ele>601</ele>
        <time>2021-08-07T12:26:25.330Z</time>
      </trkpt>
      <trkpt lat="46.91284" lon="8.63125">
        <ele>600</ele>
        <time>2021-08-07T12:26:26.330Z</time>
      </trkpt>
      <trkpt lat="46.91284" lon="8.63123">
        <ele>600</ele>
        <time>2021-08-07T12:26:27.330Z</time>
      </trkpt>
      <trkpt lat="46.91284" lon="8.63121">
        <ele>600</ele>
        <time>2021-08-07T12:26:28.331Z</time>
      </trkpt>
      <trkpt lat="46.91284" lon="8.6312">
        <ele>600</ele>
        <time>2021-08-07T12:26:29.331Z</time>
      </trkpt>
      <trkpt lat="46.91285" lon="8.63118">
        <ele>600</ele>
        <time>2021-08-07T12:27:11.440Z</time>
      </trkpt>
      <trkpt lat="46.91286" lon="8.63117">
        <ele>600</ele>
        <time>2021-08-07T12:27:12.439Z</time>
      </trkpt>
      <trkpt lat="46.91286" lon="8.63117">
        <ele>600</ele>
        <time>2021-08-07T12:27:13.440Z</time>
      </trkpt>
      <trkpt lat="46.91286" lon="8.63115">
        <ele>600</ele>
        <time>2021-08-07T12:27:14.440Z</time>
      </trkpt>
      <trkpt lat="46.91286" lon="8.63114">
        <ele>600</ele>
        <time>2021-08-07T12:27:15.440Z</time>
      </trkpt>
      <trkpt lat="46.91286" lon="8.63113">
        <ele>600</ele>
        <time>2021-08-07T12:27:16.439Z</time>
      </trkpt>
      <trkpt lat="46.91286" lon="8.63113">
        <ele>600</ele>
        <time>2021-08-07T12:27:31.579Z</time>
      </trkpt>
      <trkpt lat="46.91287" lon="8.63113">
        <ele>601</ele>
        <time>2021-08-07T12:27:32.579Z</time>
      </trkpt>
      <trkpt lat="46.91287" lon="8.63112">
        <ele>601</ele>
        <time>2021-08-07T12:27:33.579Z</time>
      </trkpt>
      <trkpt lat="46.91287" lon="8.63112">
        <ele>601</ele>
        <time>2021-08-07T12:28:06.692Z</time>
      </trkpt>
      <trkpt lat="46.91287" lon="8.63113">
        <ele>601</ele>
        <time>2021-08-07T12:28:07.692Z</time>
      </trkpt>
      <trkpt lat="46.91286" lon="8.63112">
        <ele>601</ele>
        <time>2021-08-07T12:28:30.697Z</time>
      </trkpt>
      <trkpt lat="46.91286" lon="8.63112">
        <ele>601</ele>
        <time>2021-08-07T12:28:31.696Z</time>
      </trkpt>
      <trkpt lat="46.91286" lon="8.6311">
        <ele>601</ele>
        <time>2021-08-07T12:28:50.852Z</time>
      </trkpt>
      <trkpt lat="46.91284" lon="8.6311">
        <ele>601</ele>
        <time>2021-08-07T12:28:51.852Z</time>
      </trkpt>
      <trkpt lat="46.91281" lon="8.63112">
        <ele>601</ele>
        <time>2021-08-07T12:28:53.852Z</time>
      </trkpt>
      <trkpt lat="46.91281" lon="8.63115">
        <ele>601</ele>
        <time>2021-08-07T12:29:06.917Z</time>
      </trkpt>
      <trkpt lat="46.91282" lon="8.63116">
        <ele>601</ele>
        <time>2021-08-07T12:29:07.918Z</time>
      </trkpt>
      <trkpt lat="46.91282" lon="8.63115">
        <ele>601</ele>
        <time>2021-08-07T12:29:08.917Z</time>
      </trkpt>
      <trkpt lat="46.91283" lon="8.63114">
        <ele>601</ele>
        <time>2021-08-07T12:29:09.917Z</time>
      </trkpt>
      <trkpt lat="46.91285" lon="8.63111">
        <ele>601</ele>
        <time>2021-08-07T12:29:10.917Z</time>
      </trkpt>
      <trkpt lat="46.91284" lon="8.6311">
        <ele>602</ele>
        <time>2021-08-07T12:29:11.918Z</time>
      </trkpt>
      <trkpt lat="46.91284" lon="8.63111">
        <ele>602</ele>
        <time>2021-08-07T12:29:21.065Z</time>
      </trkpt>
      <trkpt lat="46.91283" lon="8.63112">
        <ele>602</ele>
        <time>2021-08-07T12:29:22.064Z</time>
      </trkpt>
      <trkpt lat="46.91283" lon="8.63113">
        <ele>602</ele>
        <time>2021-08-07T12:29:23.065Z</time>
      </trkpt>
      <trkpt lat="46.91283" lon="8.63114">
        <ele>602</ele>
        <time>2021-08-07T12:29:25.220Z</time>
      </trkpt>
      <trkpt lat="46.91283" lon="8.63116">
        <ele>602</ele>
        <time>2021-08-07T12:29:26.219Z</time>
      </trkpt>
      <trkpt lat="46.91283" lon="8.63118">
        <ele>602</ele>
        <time>2021-08-07T12:29:27.220Z</time>
      </trkpt>
      <trkpt lat="46.91283" lon="8.6312">
        <ele>602</ele>
        <time>2021-08-07T12:29:28.220Z</time>
      </trkpt>
      <trkpt lat="46.91283" lon="8.63122">
        <ele>602</ele>
        <time>2021-08-07T12:29:53.300Z</time>
      </trkpt>
      <trkpt lat="46.91283" lon="8.63124">
        <ele>603</ele>
        <time>2021-08-07T12:29:54.299Z</time>
      </trkpt>
      <trkpt lat="46.91284" lon="8.63125">
        <ele>603</ele>
        <time>2021-08-07T12:29:55.299Z</time>
      </trkpt>
      <trkpt lat="46.91284" lon="8.63125">
        <ele>603</ele>
        <time>2021-08-07T12:30:03.409Z</time>
      </trkpt>
      <trkpt lat="46.91284" lon="8.63125">
        <ele>603</ele>
        <time>2021-08-07T12:30:04.408Z</time>
      </trkpt>
      <trkpt lat="46.91283" lon="8.63123">
        <ele>603</ele>
        <time>2021-08-07T12:30:05.408Z</time>
      </trkpt>
      <trkpt lat="46.91282" lon="8.63121">
        <ele>603</ele>
        <time>2021-08-07T12:30:06.409Z</time>
      </trkpt>
      <trkpt lat="46.91281" lon="8.63119">
        <ele>603</ele>
        <time>2021-08-07T12:30:07.409Z</time>
      </trkpt>
      <trkpt lat="46.91281" lon="8.63117">
        <ele>603</ele>
        <time>2021-08-07T12:30:08.409Z</time>
      </trkpt>
      <trkpt lat="46.91282" lon="8.63116">
        <ele>603</ele>
        <time>2021-08-07T12:30:09.409Z</time>
      </trkpt>
      <trkpt lat="46.91281" lon="8.63114">
        <ele>603</ele>
        <time>2021-08-07T12:30:17.534Z</time>
      </trkpt>
      <trkpt lat="46.91281" lon="8.63113">
        <ele>604</ele>
        <time>2021-08-07T12:30:18.535Z</time>
      </trkpt>
      <trkpt lat="46.91281" lon="8.63112">
        <ele>604</ele>
        <time>2021-08-07T12:30:29.301Z</time>
      </trkpt>
      <trkpt lat="46.91282" lon="8.63109">
        <ele>604</ele>
        <time>2021-08-07T12:30:30.301Z</time>
      </trkpt>
      <trkpt lat="46.91283" lon="8.63106">
        <ele>605</ele>
        <time>2021-08-07T12:30:31.301Z</time>
      </trkpt>
      <trkpt lat="46.91283" lon="8.63105">
        <ele>605</ele>
        <time>2021-08-07T12:30:32.301Z</time>
      </trkpt>
      <trkpt lat="46.91284" lon="8.63106">
        <ele>606</ele>
        <time>2021-08-07T12:30:48.448Z</time>
      </trkpt>
      <trkpt lat="46.91285" lon="8.63105">
        <ele>606</ele>
        <time>2021-08-07T12:30:49.449Z</time>
      </trkpt>
      <trkpt lat="46.91285" lon="8.63104">
        <ele>606</ele>
        <time>2021-08-07T12:30:53.286Z</time>
      </trkpt>
      <trkpt lat="46.91286" lon="8.63103">
        <ele>606</ele>
        <time>2021-08-07T12:30:54.287Z</time>
      </trkpt>
      <trkpt lat="46.91285" lon="8.63101">
        <ele>606</ele>
        <time>2021-08-07T12:31:10.177Z</time>
      </trkpt>
      <trkpt lat="46.91283" lon="8.63099">
        <ele>606</ele>
        <time>2021-08-07T12:31:11.177Z</time>
      </trkpt>
      <trkpt lat="46.91282" lon="8.63098">
        <ele>606</ele>
        <time>2021-08-07T12:31:13.036Z</time>
      </trkpt>
      <trkpt lat="46.91281" lon="8.63099">
        <ele>605</ele>
        <time>2021-08-07T12:31:14.036Z</time>
      </trkpt>
      <trkpt lat="46.91282" lon="8.631">
        <ele>605</ele>
        <time>2021-08-07T12:31:15.035Z</time>
      </trkpt>
      <trkpt lat="46.91282" lon="8.631">
        <ele>604</ele>
        <time>2021-08-07T12:31:16.036Z</time>
      </trkpt>
      <trkpt lat="46.91282" lon="8.63099">
        <ele>604</ele>
        <time>2021-08-07T12:31:17.035Z</time>
      </trkpt>
      <trkpt lat="46.91282" lon="8.63099">
        <ele>603</ele>
        <time>2021-08-07T12:31:24.160Z</time>
      </trkpt>
      <trkpt lat="46.91283" lon="8.631">
        <ele>603</ele>
        <time>2021-08-07T12:31:25.160Z</time>
      </trkpt>
      <trkpt lat="46.91284" lon="8.63103">
        <ele>603</ele>
        <time>2021-08-07T12:31:26.160Z</time>
      </trkpt>
      <trkpt lat="46.91285" lon="8.63106">
        <ele>603</ele>
        <time>2021-08-07T12:31:46.309Z</time>
      </trkpt>
      <trkpt lat="46.91284" lon="8.63107">
        <ele>602</ele>
        <time>2021-08-07T12:31:47.308Z</time>
      </trkpt>
      <trkpt lat="46.91284" lon="8.63108">
        <ele>602</ele>
        <time>2021-08-07T12:31:48.308Z</time>
      </trkpt>
      <trkpt lat="46.91284" lon="8.63107">
        <ele>602</ele>
        <time>2021-08-07T12:31:59.430Z</time>
      </trkpt>
      <trkpt lat="46.91284" lon="8.63106">
        <ele>602</ele>
        <time>2021-08-07T12:32:00.430Z</time>
      </trkpt>
      <trkpt lat="46.91286" lon="8.63106">
        <ele>602</ele>
        <time>2021-08-07T12:32:01.430Z</time>
      </trkpt>
      <trkpt lat="46.91288" lon="8.63107">
        <ele>602</ele>
        <time>2021-08-07T12:32:02.430Z</time>
      </trkpt>
      <trkpt lat="46.91289" lon="8.63108">
        <ele>602</ele>
        <time>2021-08-07T12:32:14.551Z</time>
      </trkpt>
      <trkpt lat="46.91288" lon="8.63107">
        <ele>601</ele>
        <time>2021-08-07T12:32:15.551Z</time>
      </trkpt>
      <trkpt lat="46.91288" lon="8.63107">
        <ele>601</ele>
        <time>2021-08-07T12:32:16.552Z</time>
      </trkpt>
      <trkpt lat="46.91287" lon="8.63107">
        <ele>600</ele>
        <time>2021-08-07T12:32:39.678Z</time>
      </trkpt>
      <trkpt lat="46.91287" lon="8.63107">
        <ele>600</ele>
        <time>2021-08-07T12:32:40.679Z</time>
      </trkpt>
      <trkpt lat="46.91286" lon="8.63107">
        <ele>600</ele>
        <time>2021-08-07T12:32:41.678Z</time>
      </trkpt>
      <trkpt lat="46.91287" lon="8.63108">
        <ele>599</ele>
        <time>2021-08-07T12:32:42.679Z</time>
      </trkpt>
      <trkpt lat="46.91287" lon="8.63108">
        <ele>599</ele>
        <time>2021-08-07T12:32:43.679Z</time>
      </trkpt>
      <trkpt lat="46.91287" lon="8.63108">
        <ele>599</ele>
        <time>2021-08-07T12:32:44.679Z</time>
      </trkpt>
      <trkpt lat="46.91286" lon="8.63108">
        <ele>598</ele>
        <time>2021-08-07T12:32:45.680Z</time>
      </trkpt>
      <trkpt lat="46.91286" lon="8.63108">
        <ele>598</ele>
        <time>2021-08-07T12:32:46.680Z</time>
      </trkpt>
      <trkpt lat="46.91285" lon="8.63108">
        <ele>597</ele>
        <time>2021-08-07T12:32:47.680Z</time>
      </trkpt>
      <trkpt lat="46.91284" lon="8.63109">
        <ele>597</ele>
        <time>2021-08-07T12:32:54.780Z</time>
      </trkpt>
      <trkpt lat="46.91283" lon="8.63109">
        <ele>597</ele>
        <time>2021-08-07T12:32:55.780Z</time>
      </trkpt>
      <trkpt lat="46.91283" lon="8.63109">
        <ele>596</ele>
        <time>2021-08-07T12:32:56.780Z</time>
      </trkpt>
      <trkpt lat="46.91282" lon="8.6311">
        <ele>596</ele>
        <time>2021-08-07T12:33:06.655Z</time>
      </trkpt>
      <trkpt lat="46.91281" lon="8.6311">
        <ele>596</ele>
        <time>2021-08-07T12:33:24.440Z</time>
      </trkpt>
      <trkpt lat="46.91281" lon="8.6311">
        <ele>596</ele>
        <time>2021-08-07T12:33:25.440Z</time>
      </trkpt>
      <trkpt lat="46.91281" lon="8.63112">
        <ele>596</ele>
        <time>2021-08-07T12:33:26.440Z</time>
      </trkpt>
      <trkpt lat="46.91283" lon="8.63113">
        <ele>595</ele>
        <time>2021-08-07T12:33:36.552Z</time>
      </trkpt>
      <trkpt lat="46.91284" lon="8.63114">
        <ele>595</ele>
        <time>2021-08-07T12:33:37.552Z</time>
      </trkpt>
      <trkpt lat="46.91284" lon="8.63115">
        <ele>595</ele>
        <time>2021-08-07T12:33:38.551Z</time>
      </trkpt>
      <trkpt lat="46.91284" lon="8.63116">
        <ele>595</ele>
        <time>2021-08-07T12:33:39.551Z</time>
      </trkpt>
      <trkpt lat="46.91285" lon="8.63115">
        <ele>595</ele>
        <time>2021-08-07T12:33:40.552Z</time>
      </trkpt>
      <trkpt lat="46.91285" lon="8.63114">
        <ele>595</ele>
        <time>2021-08-07T12:33:47.671Z</time>
      </trkpt>
      <trkpt lat="46.91285" lon="8.63114">
        <ele>595</ele>
        <time>2021-08-07T12:33:48.671Z</time>
      </trkpt>
      <trkpt lat="46.91285" lon="8.63115">
        <ele>595</ele>
        <time>2021-08-07T12:33:56.781Z</time>
      </trkpt>
      <trkpt lat="46.91285" lon="8.63118">
        <ele>594</ele>
        <time>2021-08-07T12:33:57.781Z</time>
      </trkpt>
      <trkpt lat="46.91286" lon="8.63121">
        <ele>594</ele>
        <time>2021-08-07T12:33:58.781Z</time>
      </trkpt>
      <trkpt lat="46.91288" lon="8.63124">
        <ele>594</ele>
        <time>2021-08-07T12:34:31.552Z</time>
      </trkpt>
      <trkpt lat="46.91288" lon="8.63124">
        <ele>593</ele>
        <time>2021-08-07T12:34:32.552Z</time>
      </trkpt>
      <trkpt lat="46.91289" lon="8.63124">
        <ele>593</ele>
        <time>2021-08-07T12:34:33.551Z</time>
      </trkpt>
      <trkpt lat="46.9129" lon="8.63124">
        <ele>592</ele>
        <time>2021-08-07T12:34:40.655Z</time>
      </trkpt>
      <trkpt lat="46.9129" lon="8.63124">
        <ele>592</ele>
        <time>2021-08-07T12:34:41.655Z</time>
      </trkpt>
      <trkpt lat="46.91291" lon="8.63124">
        <ele>591</ele>
        <time>2021-08-07T12:35:10.428Z</time>
      </trkpt>
      <trkpt lat="46.9129" lon="8.63124">
        <ele>591</ele>
        <time>2021-08-07T12:35:11.427Z</time>
      </trkpt>
      <trkpt lat="46.9129" lon="8.63123">
        <ele>590</ele>
        <time>2021-08-07T12:35:12.427Z</time>
      </trkpt>
      <trkpt lat="46.9129" lon="8.63125">
        <ele>590</ele>
        <time>2021-08-07T12:35:23.546Z</time>
      </trkpt>
      <trkpt lat="46.91289" lon="8.63127">
        <ele>589</ele>
        <time>2021-08-07T12:35:24.546Z</time>
      </trkpt>
      <trkpt lat="46.91288" lon="8.63127">
        <ele>589</ele>
        <time>2021-08-07T12:35:25.546Z</time>
      </trkpt>
      <trkpt lat="46.91287" lon="8.63129">
        <ele>589</ele>
        <time>2021-08-07T12:35:26.546Z</time>
      </trkpt>
      <trkpt lat="46.91286" lon="8.63131">
        <ele>588</ele>
        <time>2021-08-07T12:35:30.565Z</time>
      </trkpt>
      <trkpt lat="46.91285" lon="8.63135">
        <ele>588</ele>
        <time>2021-08-07T12:35:31.565Z</time>
      </trkpt>
      <trkpt lat="46.91285" lon="8.63137">
        <ele>588</ele>
        <time>2021-08-07T12:35:32.565Z</time>
      </trkpt>
      <trkpt lat="46.91284" lon="8.63139">
        <ele>588</ele>
        <time>2021-08-07T12:35:39.657Z</time>
      </trkpt>
      <trkpt lat="46.91285" lon="8.6314">
        <ele>588</ele>
        <time>2021-08-07T12:35:40.657Z</time>
      </trkpt>
      <trkpt lat="46.91285" lon="8.63139">
        <ele>588</ele>
        <time>2021-08-07T12:35:41.657Z</time>
      </trkpt>
      <trkpt lat="46.91285" lon="8.63139">
        <ele>587</ele>
        <time>2021-08-07T12:35:42.657Z</time>
      </trkpt>
      <trkpt lat="46.91284" lon="8.6314">
        <ele>587</ele>
        <time>2021-08-07T12:35:43.657Z</time>
      </trkpt>
      <trkpt lat="46.91283" lon="8.63141">
        <ele>587</ele>
        <time>2021-08-07T12:35:44.657Z</time>
      </trkpt>
      <trkpt lat="46.91281" lon="8.63142">
        <ele>587</ele>
        <time>2021-08-07T12:35:45.656Z</time>
      </trkpt>
      <trkpt lat="46.9128" lon="8.63144">
        <ele>587</ele>
        <time>2021-08-07T12:35:46.656Z</time>
      </trkpt>
      <trkpt lat="46.91279" lon="8.63147">
        <ele>586</ele>
        <time>2021-08-07T12:35:47.657Z</time>
      </trkpt>
      <trkpt lat="46.91277" lon="8.63152">
        <ele>586</ele>
        <time>2021-08-07T12:36:12.803Z</time>
      </trkpt>
      <trkpt lat="46.91274" lon="8.63156">
        <ele>586</ele>
        <time>2021-08-07T12:36:13.803Z</time>
      </trkpt>
      <trkpt lat="46.91273" lon="8.63156">
        <ele>586</ele>
        <time>2021-08-07T12:36:14.803Z</time>
      </trkpt>
      <trkpt lat="46.91273" lon="8.63153">
        <ele>586</ele>
        <time>2021-08-07T12:36:23.927Z</time>
      </trkpt>
      <trkpt lat="46.91274" lon="8.63151">
        <ele>585</ele>
        <time>2021-08-07T12:36:25.779Z</time>
      </trkpt>
      <trkpt lat="46.91276" lon="8.63149">
        <ele>585</ele>
        <time>2021-08-07T12:36:26.779Z</time>
      </trkpt>
      <trkpt lat="46.91277" lon="8.6315">
        <ele>585</ele>
        <time>2021-08-07T12:36:53.536Z</time>
      </trkpt>
      <trkpt lat="46.91278" lon="8.6315">
        <ele>585</ele>
        <time>2021-08-07T12:36:54.535Z</time>
      </trkpt>
      <trkpt lat="46.91279" lon="8.6315">
        <ele>585</ele>
        <time>2021-08-07T12:37:51.433Z</time>
      </trkpt>
      <trkpt lat="46.9128" lon="8.63151">
        <ele>585</ele>
        <time>2021-08-07T12:37:52.432Z</time>
      </trkpt>
      <trkpt lat="46.91282" lon="8.63151">
        <ele>585</ele>
        <time>2021-08-07T12:37:53.433Z</time>
      </trkpt>
      <trkpt lat="46.91283" lon="8.63151">
        <ele>585</ele>
        <time>2021-08-07T12:38:40.552Z</time>
      </trkpt>
      <trkpt lat="46.91284" lon="8.63151">
        <ele>585</ele>
        <time>2021-08-07T12:38:41.553Z</time>
      </trkpt>
      <trkpt lat="46.91285" lon="8.63151">
        <ele>585</ele>
        <time>2021-08-07T12:38:42.552Z</time>
      </trkpt>
      <trkpt lat="46.91284" lon="8.63149">
        <ele>585</ele>
        <time>2021-08-07T12:39:21.655Z</time>
      </trkpt>
      <trkpt lat="46.91284" lon="8.63148">
        <ele>585</ele>
        <time>2021-08-07T12:39:33.541Z</time>
      </trkpt>
      <trkpt lat="46.91285" lon="8.63147">
        <ele>585</ele>
        <time>2021-08-07T12:39:34.540Z</time>
      </trkpt>
      <trkpt lat="46.91285" lon="8.63146">
        <ele>585</ele>
        <time>2021-08-07T12:39:35.541Z</time>
      </trkpt>
      <trkpt lat="46.91285" lon="8.63142">
        <ele>585</ele>
        <time>2021-08-07T12:39:36.541Z</time>
      </trkpt>
      <trkpt lat="46.91285" lon="8.63137">
        <ele>585</ele>
        <time>2021-08-07T12:39:37.540Z</time>
      </trkpt>
      <trkpt lat="46.91284" lon="8.63132">
        <ele>585</ele>
        <time>2021-08-07T12:39:38.541Z</time>
      </trkpt>
      <trkpt lat="46.91283" lon="8.63126">
        <ele>585</ele>
        <time>2021-08-07T12:39:39.541Z</time>
      </trkpt>
      <trkpt lat="46.91282" lon="8.63121">
        <ele>585</ele>
        <time>2021-08-07T12:39:40.540Z</time>
      </trkpt>
      <trkpt lat="46.91281" lon="8.63117">
        <ele>585</ele>
        <time>2021-08-07T12:39:41.540Z</time>
      </trkpt>
      <trkpt lat="46.9128" lon="8.63113">
        <ele>585</ele>
        <time>2021-08-07T12:39:42.541Z</time>
      </trkpt>
      <trkpt lat="46.91277" lon="8.63103">
        <ele>585</ele>
        <time>2021-08-07T12:39:44.540Z</time>
      </trkpt>
      <trkpt lat="46.91276" lon="8.63099">
        <ele>586</ele>
        <time>2021-08-07T12:39:52.668Z</time>
      </trkpt>
      <trkpt lat="46.91275" lon="8.63094">
        <ele>586</ele>
        <time>2021-08-07T12:39:53.668Z</time>
      </trkpt>
      <trkpt lat="46.91271" lon="8.63081">
        <ele>586</ele>
        <time>2021-08-07T12:40:32.270Z</time>
      </trkpt>
      <trkpt lat="46.91268" lon="8.63057">
        <ele>586</ele>
        <time>2021-08-07T12:41:06.188Z</time>
      </trkpt>
      <trkpt lat="46.91272" lon="8.63065">
        <ele>586</ele>
        <time>2021-08-07T12:41:07.188Z</time>
      </trkpt>
      <trkpt lat="46.91275" lon="8.63067">
        <ele>585</ele>
        <time>2021-08-07T12:41:08.188Z</time>
      </trkpt>
      <trkpt lat="46.91275" lon="8.63071">
        <ele>585</ele>
        <time>2021-08-07T12:41:09.188Z</time>
      </trkpt>
      <trkpt lat="46.91276" lon="8.63074">
        <ele>583</ele>
        <time>2021-08-07T12:41:29.334Z</time>
      </trkpt>
      <trkpt lat="46.91275" lon="8.63072">
        <ele>583</ele>
        <time>2021-08-07T12:41:38.161Z</time>
      </trkpt>
      <trkpt lat="46.91276" lon="8.63073">
        <ele>584</ele>
        <time>2021-08-07T12:41:39.162Z</time>
      </trkpt>
      <trkpt lat="46.91276" lon="8.63074">
        <ele>584</ele>
        <time>2021-08-07T12:41:40.161Z</time>
      </trkpt>
      <trkpt lat="46.91279" lon="8.63078">
        <ele>584</ele>
        <time>2021-08-07T12:41:52.306Z</time>
      </trkpt>
      <trkpt lat="46.9129" lon="8.63089">
        <ele>584</ele>
        <time>2021-08-07T12:42:18.304Z</time>
      </trkpt>
      <trkpt lat="46.91297" lon="8.63107">
        <ele>583</ele>
        <time>2021-08-07T12:43:05.065Z</time>
      </trkpt>
      <trkpt lat="46.91295" lon="8.63105">
        <ele>583</ele>
        <time>2021-08-07T12:43:06.064Z</time>
      </trkpt>
      <trkpt lat="46.91295" lon="8.63103">
        <ele>583</ele>
        <time>2021-08-07T12:43:07.064Z</time>
      </trkpt>
      <trkpt lat="46.91295" lon="8.63102">
        <ele>583</ele>
        <time>2021-08-07T12:43:08.064Z</time>
      </trkpt>
      <trkpt lat="46.91295" lon="8.63102">
        <ele>583</ele>
        <time>2021-08-07T12:43:14.144Z</time>
      </trkpt>
      <trkpt lat="46.91293" lon="8.63099">
        <ele>584</ele>
        <time>2021-08-07T12:43:15.143Z</time>
      </trkpt>
      <trkpt lat="46.91293" lon="8.63097">
        <ele>584</ele>
        <time>2021-08-07T12:43:21.893Z</time>
      </trkpt>
      <trkpt lat="46.91293" lon="8.63093">
        <ele>584</ele>
        <time>2021-08-07T12:43:24.765Z</time>
      </trkpt>
      <trkpt lat="46.91294" lon="8.63091">
        <ele>584</ele>
        <time>2021-08-07T12:43:25.765Z</time>
      </trkpt>
      <trkpt lat="46.91288" lon="8.63094">
        <ele>584</ele>
        <time>2021-08-07T12:43:28.765Z</time>
      </trkpt>
      <trkpt lat="46.91285" lon="8.63094">
        <ele>584</ele>
        <time>2021-08-07T12:44:09.930Z</time>
      </trkpt>
      <trkpt lat="46.91286" lon="8.63093">
        <ele>584</ele>
        <time>2021-08-07T12:44:10.931Z</time>
      </trkpt>
      <trkpt lat="46.91289" lon="8.63094">
        <ele>585</ele>
        <time>2021-08-07T12:44:11.930Z</time>
      </trkpt>
      <trkpt lat="46.91289" lon="8.63095">
        <ele>585</ele>
        <time>2021-08-07T12:44:12.931Z</time>
      </trkpt>
      <trkpt lat="46.9129" lon="8.63095">
        <ele>585</ele>
        <time>2021-08-07T12:44:13.931Z</time>
      </trkpt>
      <trkpt lat="46.9129" lon="8.63093">
        <ele>585</ele>
        <time>2021-08-07T12:44:14.930Z</time>
      </trkpt>
      <trkpt lat="46.91291" lon="8.63094">
        <ele>586</ele>
        <time>2021-08-07T12:44:15.930Z</time>
      </trkpt>
      <trkpt lat="46.91293" lon="8.63095">
        <ele>587</ele>
        <time>2021-08-07T12:44:16.931Z</time>
      </trkpt>
      <trkpt lat="46.91294" lon="8.63097">
        <ele>588</ele>
        <time>2021-08-07T12:44:22.053Z</time>
      </trkpt>
      <trkpt lat="46.91293" lon="8.63098">
        <ele>589</ele>
        <time>2021-08-07T12:44:23.053Z</time>
      </trkpt>
      <trkpt lat="46.91293" lon="8.63098">
        <ele>589</ele>
        <time>2021-08-07T12:44:24.053Z</time>
      </trkpt>
      <trkpt lat="46.91293" lon="8.63099">
        <ele>590</ele>
        <time>2021-08-07T12:44:25.053Z</time>
      </trkpt>
      <trkpt lat="46.91294" lon="8.63098">
        <ele>591</ele>
        <time>2021-08-07T12:44:26.054Z</time>
      </trkpt>
      <trkpt lat="46.91294" lon="8.63098">
        <ele>591</ele>
        <time>2021-08-07T12:44:27.053Z</time>
      </trkpt>
      <trkpt lat="46.91293" lon="8.63097">
        <ele>592</ele>
        <time>2021-08-07T12:44:44.165Z</time>
      </trkpt>
      <trkpt lat="46.91294" lon="8.63096">
        <ele>592</ele>
        <time>2021-08-07T12:44:45.165Z</time>
      </trkpt>
      <trkpt lat="46.91296" lon="8.63099">
        <ele>593</ele>
        <time>2021-08-07T12:44:46.165Z</time>
      </trkpt>
      <trkpt lat="46.91295" lon="8.631">
        <ele>593</ele>
        <time>2021-08-07T12:44:47.166Z</time>
      </trkpt>
      <trkpt lat="46.91294" lon="8.63099">
        <ele>594</ele>
        <time>2021-08-07T12:44:57.301Z</time>
      </trkpt>
      <trkpt lat="46.91293" lon="8.63096">
        <ele>594</ele>
        <time>2021-08-07T12:44:58.301Z</time>
      </trkpt>
      <trkpt lat="46.91293" lon="8.63094">
        <ele>595</ele>
        <time>2021-08-07T12:44:59.301Z</time>
      </trkpt>
      <trkpt lat="46.91292" lon="8.63091">
        <ele>595</ele>
        <time>2021-08-07T12:45:18.398Z</time>
      </trkpt>
      <trkpt lat="46.91291" lon="8.63089">
        <ele>595</ele>
        <time>2021-08-07T12:45:38.285Z</time>
      </trkpt>
      <trkpt lat="46.91291" lon="8.63087">
        <ele>596</ele>
        <time>2021-08-07T12:45:39.286Z</time>
      </trkpt>
      <trkpt lat="46.91289" lon="8.63081">
        <ele>596</ele>
        <time>2021-08-07T12:45:41.285Z</time>
      </trkpt>
      <trkpt lat="46.91289" lon="8.6308">
        <ele>596</ele>
        <time>2021-08-07T12:45:42.285Z</time>
      </trkpt>
      <trkpt lat="46.9129" lon="8.6308">
        <ele>597</ele>
        <time>2021-08-07T12:45:49.408Z</time>
      </trkpt>
      <trkpt lat="46.91293" lon="8.63083">
        <ele>597</ele>
        <time>2021-08-07T12:45:50.407Z</time>
      </trkpt>
      <trkpt lat="46.91295" lon="8.63084">
        <ele>597</ele>
        <time>2021-08-07T12:46:00.274Z</time>
      </trkpt>
      <trkpt lat="46.91298" lon="8.63086">
        <ele>597</ele>
        <time>2021-08-07T12:46:01.273Z</time>
      </trkpt>
      <trkpt lat="46.91301" lon="8.63087">
        <ele>597</ele>
        <time>2021-08-07T12:46:02.274Z</time>
      </trkpt>
      <trkpt lat="46.91304" lon="8.63089">
        <ele>597</ele>
        <time>2021-08-07T12:46:03.274Z</time>
      </trkpt>
      <trkpt lat="46.91306" lon="8.63091">
        <ele>598</ele>
        <time>2021-08-07T12:46:10.387Z</time>
      </trkpt>
      <trkpt lat="46.91307" lon="8.63092">
        <ele>598</ele>
        <time>2021-08-07T12:46:26.255Z</time>
      </trkpt>
      <trkpt lat="46.91307" lon="8.63092">
        <ele>598</ele>
        <time>2021-08-07T12:46:27.255Z</time>
      </trkpt>
      <trkpt lat="46.91307" lon="8.6309">
        <ele>598</ele>
        <time>2021-08-07T12:46:33.149Z</time>
      </trkpt>
      <trkpt lat="46.91305" lon="8.63089">
        <ele>598</ele>
        <time>2021-08-07T12:46:34.150Z</time>
      </trkpt>
      <trkpt lat="46.91302" lon="8.63087">
        <ele>598</ele>
        <time>2021-08-07T12:46:35.150Z</time>
      </trkpt>
      <trkpt lat="46.91302" lon="8.63084">
        <ele>598</ele>
        <time>2021-08-07T12:46:36.149Z</time>
      </trkpt>
      <trkpt lat="46.91301" lon="8.63082">
        <ele>598</ele>
        <time>2021-08-07T12:46:43.275Z</time>
      </trkpt>
      <trkpt lat="46.91302" lon="8.6308">
        <ele>598</ele>
        <time>2021-08-07T12:46:44.274Z</time>
      </trkpt>
      <trkpt lat="46.91303" lon="8.63079">
        <ele>598</ele>
        <time>2021-08-07T12:46:51.156Z</time>
      </trkpt>
      <trkpt lat="46.91303" lon="8.63078">
        <ele>598</ele>
        <time>2021-08-07T12:46:52.157Z</time>
      </trkpt>
      <trkpt lat="46.91304" lon="8.63077">
        <ele>598</ele>
        <time>2021-08-07T12:46:53.157Z</time>
      </trkpt>
      <trkpt lat="46.91304" lon="8.63076">
        <ele>598</ele>
        <time>2021-08-07T12:46:54.156Z</time>
      </trkpt>
      <trkpt lat="46.91304" lon="8.63076">
        <ele>598</ele>
        <time>2021-08-07T12:47:07.276Z</time>
      </trkpt>
      <trkpt lat="46.91304" lon="8.63076">
        <ele>598</ele>
        <time>2021-08-07T12:47:08.277Z</time>
      </trkpt>
      <trkpt lat="46.91304" lon="8.63079">
        <ele>598</ele>
        <time>2021-08-07T12:47:09.276Z</time>
      </trkpt>
      <trkpt lat="46.91304" lon="8.63086">
        <ele>598</ele>
        <time>2021-08-07T12:47:10.277Z</time>
      </trkpt>
      <trkpt lat="46.91304" lon="8.6309">
        <ele>598</ele>
        <time>2021-08-07T12:47:11.276Z</time>
      </trkpt>
      <trkpt lat="46.91302" lon="8.63091">
        <ele>598</ele>
        <time>2021-08-07T12:47:12.276Z</time>
      </trkpt>
      <trkpt lat="46.913" lon="8.63091">
        <ele>598</ele>
        <time>2021-08-07T12:47:20.380Z</time>
      </trkpt>
      <trkpt lat="46.913" lon="8.63091">
        <ele>599</ele>
        <time>2021-08-07T12:47:38.246Z</time>
      </trkpt>
      <trkpt lat="46.91299" lon="8.63092">
        <ele>599</ele>
        <time>2021-08-07T12:47:39.246Z</time>
      </trkpt>
      <trkpt lat="46.91296" lon="8.63092">
        <ele>599</ele>
        <time>2021-08-07T12:47:40.245Z</time>
      </trkpt>
      <trkpt lat="46.91296" lon="8.63093">
        <ele>599</ele>
        <time>2021-08-07T12:47:47.379Z</time>
      </trkpt>
      <trkpt lat="46.91295" lon="8.63093">
        <ele>599</ele>
        <time>2021-08-07T12:47:48.379Z</time>
      </trkpt>
      <trkpt lat="46.91296" lon="8.63095">
        <ele>599</ele>
        <time>2021-08-07T12:47:49.378Z</time>
      </trkpt>
      <trkpt lat="46.91298" lon="8.63097">
        <ele>599</ele>
        <time>2021-08-07T12:47:50.378Z</time>
      </trkpt>
      <trkpt lat="46.913" lon="8.63099">
        <ele>599</ele>
        <time>2021-08-07T12:47:51.379Z</time>
      </trkpt>
      <trkpt lat="46.91299" lon="8.63099">
        <ele>599</ele>
        <time>2021-08-07T12:47:52.379Z</time>
      </trkpt>
      <trkpt lat="46.91299" lon="8.63099">
        <ele>599</ele>
        <time>2021-08-07T12:47:53.379Z</time>
      </trkpt>
      <trkpt lat="46.91299" lon="8.63099">
        <ele>599</ele>
        <time>2021-08-07T12:48:33.501Z</time>
      </trkpt>
      <trkpt lat="46.91299" lon="8.63099">
        <ele>599</ele>
        <time>2021-08-07T12:48:34.502Z</time>
      </trkpt>
      <trkpt lat="46.91299" lon="8.63099">
        <ele>599</ele>
        <time>2021-08-07T12:48:35.502Z</time>
      </trkpt>
      <trkpt lat="46.91298" lon="8.63098">
        <ele>599</ele>
        <time>2021-08-07T12:48:36.502Z</time>
      </trkpt>
      <trkpt lat="46.91297" lon="8.63097">
        <ele>598</ele>
        <time>2021-08-07T12:48:37.502Z</time>
      </trkpt>
      <trkpt lat="46.91296" lon="8.63096">
        <ele>598</ele>
        <time>2021-08-07T12:48:38.502Z</time>
      </trkpt>
      <trkpt lat="46.91295" lon="8.63094">
        <ele>598</ele>
        <time>2021-08-07T12:48:39.502Z</time>
      </trkpt>
      <trkpt lat="46.91295" lon="8.63095">
        <ele>598</ele>
        <time>2021-08-07T12:48:40.503Z</time>
      </trkpt>
      <trkpt lat="46.91296" lon="8.631">
        <ele>597</ele>
        <time>2021-08-07T12:48:48.548Z</time>
      </trkpt>
      <trkpt lat="46.91296" lon="8.631">
        <ele>597</ele>
        <time>2021-08-07T12:48:49.547Z</time>
      </trkpt>
      <trkpt lat="46.91295" lon="8.631">
        <ele>597</ele>
        <time>2021-08-07T12:48:50.547Z</time>
      </trkpt>
      <trkpt lat="46.91295" lon="8.631">
        <ele>597</ele>
        <time>2021-08-07T12:49:26.628Z</time>
      </trkpt>
      <trkpt lat="46.91295" lon="8.631">
        <ele>597</ele>
        <time>2021-08-07T12:49:34.402Z</time>
      </trkpt>
      <trkpt lat="46.91295" lon="8.63101">
        <ele>597</ele>
        <time>2021-08-07T12:50:02.291Z</time>
      </trkpt>
      <trkpt lat="46.91296" lon="8.63102">
        <ele>597</ele>
        <time>2021-08-07T12:50:03.291Z</time>
      </trkpt>
      <trkpt lat="46.91297" lon="8.63103">
        <ele>597</ele>
        <time>2021-08-07T12:50:04.290Z</time>
      </trkpt>
      <trkpt lat="46.91298" lon="8.63104">
        <ele>597</ele>
        <time>2021-08-07T12:50:05.290Z</time>
      </trkpt>
      <trkpt lat="46.91299" lon="8.63104">
        <ele>597</ele>
        <time>2021-08-07T12:51:02.392Z</time>
      </trkpt>
      <trkpt lat="46.913" lon="8.63105">
        <ele>597</ele>
        <time>2021-08-07T12:51:18.253Z</time>
      </trkpt>
      <trkpt lat="46.91301" lon="8.63106">
        <ele>597</ele>
        <time>2021-08-07T12:51:19.253Z</time>
      </trkpt>
      <trkpt lat="46.913" lon="8.63105">
        <ele>597</ele>
        <time>2021-08-07T12:51:30.144Z</time>
      </trkpt>
      <trkpt lat="46.913" lon="8.63105">
        <ele>598</ele>
        <time>2021-08-07T12:51:31.143Z</time>
      </trkpt>
      <trkpt lat="46.913" lon="8.63104">
        <ele>598</ele>
        <time>2021-08-07T12:51:32.143Z</time>
      </trkpt>
      <trkpt lat="46.913" lon="8.63103">
        <ele>599</ele>
        <time>2021-08-07T12:51:42.270Z</time>
      </trkpt>
      <trkpt lat="46.913" lon="8.63104">
        <ele>601</ele>
        <time>2021-08-07T12:51:43.271Z</time>
      </trkpt>
      <trkpt lat="46.913" lon="8.63105">
        <ele>602</ele>
        <time>2021-08-07T12:51:44.271Z</time>
      </trkpt>
      <trkpt lat="46.913" lon="8.63105">
        <ele>602</ele>
        <time>2021-08-07T12:51:55.437Z</time>
      </trkpt>
      <trkpt lat="46.913" lon="8.63105">
        <ele>603</ele>
        <time>2021-08-07T12:51:56.438Z</time>
      </trkpt>
      <trkpt lat="46.913" lon="8.63105">
        <ele>603</ele>
        <time>2021-08-07T12:51:57.437Z</time>
      </trkpt>
      <trkpt lat="46.913" lon="8.63105">
        <ele>604</ele>
        <time>2021-08-07T12:51:58.438Z</time>
      </trkpt>
      <trkpt lat="46.91299" lon="8.63104">
        <ele>604</ele>
        <time>2021-08-07T12:51:59.437Z</time>
      </trkpt>
      <trkpt lat="46.91298" lon="8.63104">
        <ele>604</ele>
        <time>2021-08-07T12:52:00.438Z</time>
      </trkpt>
      <trkpt lat="46.91297" lon="8.63104">
        <ele>605</ele>
        <time>2021-08-07T12:52:07.537Z</time>
      </trkpt>
      <trkpt lat="46.91297" lon="8.63104">
        <ele>605</ele>
        <time>2021-08-07T12:52:08.538Z</time>
      </trkpt>
      <trkpt lat="46.91298" lon="8.63104">
        <ele>605</ele>
        <time>2021-08-07T12:52:09.537Z</time>
      </trkpt>
      <trkpt lat="46.91298" lon="8.63105">
        <ele>605</ele>
        <time>2021-08-07T12:52:10.538Z</time>
      </trkpt>
      <trkpt lat="46.91299" lon="8.63105">
        <ele>604</ele>
        <time>2021-08-07T12:52:11.538Z</time>
      </trkpt>
      <trkpt lat="46.91299" lon="8.63105">
        <ele>604</ele>
        <time>2021-08-07T12:52:12.538Z</time>
      </trkpt>
      <trkpt lat="46.91298" lon="8.63105">
        <ele>604</ele>
        <time>2021-08-07T12:52:13.538Z</time>
      </trkpt>
      <trkpt lat="46.91299" lon="8.63104">
        <ele>604</ele>
        <time>2021-08-07T12:52:14.538Z</time>
      </trkpt>
      <trkpt lat="46.91298" lon="8.63103">
        <ele>604</ele>
        <time>2021-08-07T12:52:15.538Z</time>
      </trkpt>
      <trkpt lat="46.91298" lon="8.63103">
        <ele>604</ele>
        <time>2021-08-07T12:52:16.537Z</time>
      </trkpt>
      <trkpt lat="46.91298" lon="8.63102">
        <ele>604</ele>
        <time>2021-08-07T12:52:17.538Z</time>
      </trkpt>
      <trkpt lat="46.91298" lon="8.631">
        <ele>604</ele>
        <time>2021-08-07T12:52:18.538Z</time>
      </trkpt>
      <trkpt lat="46.91298" lon="8.63098">
        <ele>604</ele>
        <time>2021-08-07T12:52:27.501Z</time>
      </trkpt>
      <trkpt lat="46.91303" lon="8.63103">
        <ele>604</ele>
        <time>2021-08-07T12:52:28.500Z</time>
      </trkpt>
      <trkpt lat="46.91304" lon="8.63104">
        <ele>604</ele>
        <time>2021-08-07T12:52:30.395Z</time>
      </trkpt>
      <trkpt lat="46.91304" lon="8.63105">
        <ele>604</ele>
        <time>2021-08-07T12:52:34.273Z</time>
      </trkpt>
      <trkpt lat="46.91305" lon="8.63106">
        <ele>604</ele>
        <time>2021-08-07T12:52:35.274Z</time>
      </trkpt>
      <trkpt lat="46.91305" lon="8.63106">
        <ele>604</ele>
        <time>2021-08-07T12:52:49.003Z</time>
      </trkpt>
      <trkpt lat="46.91305" lon="8.63107">
        <ele>604</ele>
        <time>2021-08-07T12:52:50.004Z</time>
      </trkpt>
      <trkpt lat="46.91305" lon="8.63106">
        <ele>604</ele>
        <time>2021-08-07T12:52:57.753Z</time>
      </trkpt>
      <trkpt lat="46.91305" lon="8.63106">
        <ele>604</ele>
        <time>2021-08-07T12:52:58.752Z</time>
      </trkpt>
      <trkpt lat="46.91304" lon="8.63106">
        <ele>605</ele>
        <time>2021-08-07T12:53:20.669Z</time>
      </trkpt>
      <trkpt lat="46.91304" lon="8.63106">
        <ele>605</ele>
        <time>2021-08-07T12:53:21.670Z</time>
      </trkpt>
      <trkpt lat="46.91307" lon="8.63106">
        <ele>605</ele>
        <time>2021-08-07T12:53:22.671Z</time>
      </trkpt>
      <trkpt lat="46.91308" lon="8.63107">
        <ele>605</ele>
        <time>2021-08-07T12:53:23.671Z</time>
      </trkpt>
      <trkpt lat="46.91309" lon="8.63108">
        <ele>605</ele>
        <time>2021-08-07T12:53:24.670Z</time>
      </trkpt>
      <trkpt lat="46.9131" lon="8.6311">
        <ele>605</ele>
        <time>2021-08-07T12:53:25.671Z</time>
      </trkpt>
      <trkpt lat="46.91311" lon="8.63111">
        <ele>605</ele>
        <time>2021-08-07T12:53:26.670Z</time>
      </trkpt>
      <trkpt lat="46.91312" lon="8.63112">
        <ele>605</ele>
        <time>2021-08-07T12:53:27.671Z</time>
      </trkpt>
      <trkpt lat="46.91311" lon="8.63112">
        <ele>605</ele>
        <time>2021-08-07T12:53:28.671Z</time>
      </trkpt>
      <trkpt lat="46.91311" lon="8.63112">
        <ele>605</ele>
        <time>2021-08-07T12:53:47.747Z</time>
      </trkpt>
      <trkpt lat="46.91312" lon="8.63112">
        <ele>605</ele>
        <time>2021-08-07T12:53:48.747Z</time>
      </trkpt>
      <trkpt lat="46.91312" lon="8.63111">
        <ele>605</ele>
        <time>2021-08-07T12:53:49.748Z</time>
      </trkpt>
      <trkpt lat="46.91312" lon="8.6311">
        <ele>605</ele>
        <time>2021-08-07T12:54:36.516Z</time>
      </trkpt>
      <trkpt lat="46.91311" lon="8.63109">
        <ele>606</ele>
        <time>2021-08-07T12:54:37.516Z</time>
      </trkpt>
      <trkpt lat="46.9131" lon="8.63108">
        <ele>606</ele>
        <time>2021-08-07T12:54:44.443Z</time>
      </trkpt>
      <trkpt lat="46.91309" lon="8.63108">
        <ele>606</ele>
        <time>2021-08-07T12:54:45.443Z</time>
      </trkpt>
      <trkpt lat="46.91309" lon="8.63108">
        <ele>607</ele>
        <time>2021-08-07T12:54:56.338Z</time>
      </trkpt>
      <trkpt lat="46.9131" lon="8.63109">
        <ele>607</ele>
        <time>2021-08-07T12:55:11.122Z</time>
      </trkpt>
      <trkpt lat="46.91311" lon="8.6311">
        <ele>607</ele>
        <time>2021-08-07T12:55:21.911Z</time>
      </trkpt>
      <trkpt lat="46.91311" lon="8.63111">
        <ele>607</ele>
        <time>2021-08-07T12:55:22.910Z</time>
      </trkpt>
      <trkpt lat="46.91312" lon="8.63112">
        <ele>608</ele>
        <time>2021-08-07T12:55:23.910Z</time>
      </trkpt>
      <trkpt lat="46.91312" lon="8.63112">
        <ele>608</ele>
        <time>2021-08-07T12:55:30.622Z</time>
      </trkpt>
      <trkpt lat="46.91311" lon="8.63112">
        <ele>609</ele>
        <time>2021-08-07T12:55:31.622Z</time>
      </trkpt>
      <trkpt lat="46.9131" lon="8.63111">
        <ele>609</ele>
        <time>2021-08-07T12:55:32.622Z</time>
      </trkpt>
      <trkpt lat="46.91309" lon="8.63111">
        <ele>609</ele>
        <time>2021-08-07T12:55:33.621Z</time>
      </trkpt>
      <trkpt lat="46.91308" lon="8.6311">
        <ele>609</ele>
        <time>2021-08-07T12:55:34.622Z</time>
      </trkpt>
      <trkpt lat="46.91308" lon="8.63109">
        <ele>609</ele>
        <time>2021-08-07T12:55:46.751Z</time>
      </trkpt>
      <trkpt lat="46.91307" lon="8.63109">
        <ele>609</ele>
        <time>2021-08-07T12:55:47.750Z</time>
      </trkpt>
      <trkpt lat="46.91307" lon="8.63108">
        <ele>610</ele>
        <time>2021-08-07T12:55:48.750Z</time>
      </trkpt>
      <trkpt lat="46.91306" lon="8.63106">
        <ele>609</ele>
        <time>2021-08-07T12:56:07.887Z</time>
      </trkpt>
      <trkpt lat="46.91306" lon="8.63105">
        <ele>610</ele>
        <time>2021-08-07T12:56:48.783Z</time>
      </trkpt>
      <trkpt lat="46.91305" lon="8.63104">
        <ele>610</ele>
        <time>2021-08-07T12:56:49.784Z</time>
      </trkpt>
      <trkpt lat="46.91304" lon="8.63104">
        <ele>610</ele>
        <time>2021-08-07T12:57:01.643Z</time>
      </trkpt>
      <trkpt lat="46.91304" lon="8.63102">
        <ele>610</ele>
        <time>2021-08-07T12:57:02.643Z</time>
      </trkpt>
      <trkpt lat="46.91303" lon="8.63102">
        <ele>610</ele>
        <time>2021-08-07T12:57:03.643Z</time>
      </trkpt>
      <trkpt lat="46.91303" lon="8.63101">
        <ele>610</ele>
        <time>2021-08-07T12:57:04.642Z</time>
      </trkpt>
      <trkpt lat="46.91303" lon="8.63101">
        <ele>610</ele>
        <time>2021-08-07T12:57:05.643Z</time>
      </trkpt>
      <trkpt lat="46.91302" lon="8.63101">
        <ele>610</ele>
        <time>2021-08-07T12:57:24.747Z</time>
      </trkpt>
      <trkpt lat="46.91297" lon="8.63103">
        <ele>610</ele>
        <time>2021-08-07T12:57:25.747Z</time>
      </trkpt>
      <trkpt lat="46.91294" lon="8.63101">
        <ele>610</ele>
        <time>2021-08-07T12:57:26.747Z</time>
      </trkpt>
      <trkpt lat="46.91292" lon="8.631">
        <ele>610</ele>
        <time>2021-08-07T12:57:27.747Z</time>
      </trkpt>
      <trkpt lat="46.91291" lon="8.63101">
        <ele>610</ele>
        <time>2021-08-07T12:57:28.746Z</time>
      </trkpt>
      <trkpt lat="46.91291" lon="8.631">
        <ele>610</ele>
        <time>2021-08-07T12:57:34.870Z</time>
      </trkpt>
      <trkpt lat="46.91291" lon="8.63101">
        <ele>610</ele>
        <time>2021-08-07T12:57:35.870Z</time>
      </trkpt>
      <trkpt lat="46.91289" lon="8.631">
        <ele>610</ele>
        <time>2021-08-07T12:57:36.869Z</time>
      </trkpt>
      <trkpt lat="46.91288" lon="8.63098">
        <ele>610</ele>
        <time>2021-08-07T12:58:37.873Z</time>
      </trkpt>
      <trkpt lat="46.91289" lon="8.63098">
        <ele>610</ele>
        <time>2021-08-07T12:58:38.873Z</time>
      </trkpt>
      <trkpt lat="46.9129" lon="8.63097">
        <ele>610</ele>
        <time>2021-08-07T12:58:39.872Z</time>
      </trkpt>
      <trkpt lat="46.91289" lon="8.63096">
        <ele>610</ele>
        <time>2021-08-07T12:58:40.872Z</time>
      </trkpt>
      <trkpt lat="46.91288" lon="8.63093">
        <ele>610</ele>
        <time>2021-08-07T12:58:41.873Z</time>
      </trkpt>
      <trkpt lat="46.91289" lon="8.63091">
        <ele>611</ele>
        <time>2021-08-07T12:58:42.872Z</time>
      </trkpt>
      <trkpt lat="46.91289" lon="8.63092">
        <ele>611</ele>
        <time>2021-08-07T12:58:43.873Z</time>
      </trkpt>
      <trkpt lat="46.91291" lon="8.63092">
        <ele>611</ele>
        <time>2021-08-07T12:58:44.872Z</time>
      </trkpt>
      <trkpt lat="46.91293" lon="8.63093">
        <ele>611</ele>
        <time>2021-08-07T12:58:45.873Z</time>
      </trkpt>
      <trkpt lat="46.91294" lon="8.63094">
        <ele>611</ele>
        <time>2021-08-07T12:58:46.873Z</time>
      </trkpt>
      <trkpt lat="46.91299" lon="8.63099">
        <ele>611</ele>
        <time>2021-08-07T12:58:47.873Z</time>
      </trkpt>
      <trkpt lat="46.91302" lon="8.63102">
        <ele>610</ele>
        <time>2021-08-07T12:58:48.873Z</time>
      </trkpt>
      <trkpt lat="46.91304" lon="8.63103">
        <ele>610</ele>
        <time>2021-08-07T12:59:11.019Z</time>
      </trkpt>
      <trkpt lat="46.91305" lon="8.63104">
        <ele>610</ele>
        <time>2021-08-07T12:59:12.019Z</time>
      </trkpt>
      <trkpt lat="46.91305" lon="8.63104">
        <ele>610</ele>
        <time>2021-08-07T12:59:13.019Z</time>
      </trkpt>
      <trkpt lat="46.91304" lon="8.63104">
        <ele>610</ele>
        <time>2021-08-07T12:59:14.018Z</time>
      </trkpt>
      <trkpt lat="46.91304" lon="8.63104">
        <ele>610</ele>
        <time>2021-08-07T12:59:15.018Z</time>
      </trkpt>
      <trkpt lat="46.91303" lon="8.63105">
        <ele>610</ele>
        <time>2021-08-07T12:59:16.019Z</time>
      </trkpt>
      <trkpt lat="46.91302" lon="8.63106">
        <ele>610</ele>
        <time>2021-08-07T12:59:17.019Z</time>
      </trkpt>
      <trkpt lat="46.91301" lon="8.63106">
        <ele>610</ele>
        <time>2021-08-07T12:59:33.122Z</time>
      </trkpt>
      <trkpt lat="46.913" lon="8.63106">
        <ele>610</ele>
        <time>2021-08-07T12:59:45.896Z</time>
      </trkpt>
      <trkpt lat="46.913" lon="8.63107">
        <ele>610</ele>
        <time>2021-08-07T12:59:46.896Z</time>
      </trkpt>
      <trkpt lat="46.91299" lon="8.63108">
        <ele>610</ele>
        <time>2021-08-07T12:59:47.896Z</time>
      </trkpt>
      <trkpt lat="46.91302" lon="8.63111">
        <ele>610</ele>
        <time>2021-08-07T12:59:49.895Z</time>
      </trkpt>
      <trkpt lat="46.91301" lon="8.63112">
        <ele>610</ele>
        <time>2021-08-07T12:59:50.896Z</time>
      </trkpt>
      <trkpt lat="46.91302" lon="8.63115">
        <ele>610</ele>
        <time>2021-08-07T12:59:51.896Z</time>
      </trkpt>
      <trkpt lat="46.91303" lon="8.63116">
        <ele>610</ele>
        <time>2021-08-07T12:59:52.896Z</time>
      </trkpt>
      <trkpt lat="46.91303" lon="8.63117">
        <ele>610</ele>
        <time>2021-08-07T12:59:53.896Z</time>
      </trkpt>
      <trkpt lat="46.91303" lon="8.63118">
        <ele>610</ele>
        <time>2021-08-07T12:59:54.896Z</time>
      </trkpt>
      <trkpt lat="46.91304" lon="8.6312">
        <ele>610</ele>
        <time>2021-08-07T12:59:55.896Z</time>
      </trkpt>
      <trkpt lat="46.91302" lon="8.6312">
        <ele>610</ele>
        <time>2021-08-07T12:59:56.895Z</time>
      </trkpt>
      <trkpt lat="46.91301" lon="8.63119">
        <ele>610</ele>
        <time>2021-08-07T12:59:57.896Z</time>
      </trkpt>
      <trkpt lat="46.91299" lon="8.63119">
        <ele>610</ele>
        <time>2021-08-07T12:59:58.895Z</time>
      </trkpt>
      <trkpt lat="46.913" lon="8.63119">
        <ele>610</ele>
        <time>2021-08-07T13:00:11.009Z</time>
      </trkpt>
      <trkpt lat="46.91301" lon="8.6312">
        <ele>610</ele>
        <time>2021-08-07T13:00:12.009Z</time>
      </trkpt>
      <trkpt lat="46.91301" lon="8.63118">
        <ele>610</ele>
        <time>2021-08-07T13:00:13.010Z</time>
      </trkpt>
      <trkpt lat="46.913" lon="8.63117">
        <ele>610</ele>
        <time>2021-08-07T13:00:14.009Z</time>
      </trkpt>
      <trkpt lat="46.91301" lon="8.63117">
        <ele>610</ele>
        <time>2021-08-07T13:00:15.009Z</time>
      </trkpt>
      <trkpt lat="46.91303" lon="8.6312">
        <ele>610</ele>
        <time>2021-08-07T13:00:16.010Z</time>
      </trkpt>
      <trkpt lat="46.91303" lon="8.6312">
        <ele>610</ele>
        <time>2021-08-07T13:00:17.009Z</time>
      </trkpt>
      <trkpt lat="46.91304" lon="8.63121">
        <ele>610</ele>
        <time>2021-08-07T13:00:18.010Z</time>
      </trkpt>
      <trkpt lat="46.91304" lon="8.63121">
        <ele>610</ele>
        <time>2021-08-07T13:00:19.010Z</time>
      </trkpt>
      <trkpt lat="46.91305" lon="8.63122">
        <ele>610</ele>
        <time>2021-08-07T13:00:20.010Z</time>
      </trkpt>
      <trkpt lat="46.91306" lon="8.63123">
        <ele>610</ele>
        <time>2021-08-07T13:00:21.010Z</time>
      </trkpt>
      <trkpt lat="46.91307" lon="8.63124">
        <ele>610</ele>
        <time>2021-08-07T13:00:22.010Z</time>
      </trkpt>
      <trkpt lat="46.91307" lon="8.63125">
        <ele>610</ele>
        <time>2021-08-07T13:00:23.010Z</time>
      </trkpt>
      <trkpt lat="46.91309" lon="8.63125">
        <ele>610</ele>
        <time>2021-08-07T13:00:24.010Z</time>
      </trkpt>
      <trkpt lat="46.9131" lon="8.63126">
        <ele>610</ele>
        <time>2021-08-07T13:00:25.009Z</time>
      </trkpt>
      <trkpt lat="46.91312" lon="8.63126">
        <ele>610</ele>
        <time>2021-08-07T13:00:26.010Z</time>
      </trkpt>
      <trkpt lat="46.91314" lon="8.63126">
        <ele>610</ele>
        <time>2021-08-07T13:00:27.010Z</time>
      </trkpt>
      <trkpt lat="46.91316" lon="8.63119">
        <ele>610</ele>
        <time>2021-08-07T13:00:28.010Z</time>
      </trkpt>
      <trkpt lat="46.91315" lon="8.63114">
        <ele>610</ele>
        <time>2021-08-07T13:00:29.009Z</time>
      </trkpt>
      <trkpt lat="46.91311" lon="8.63107">
        <ele>611</ele>
        <time>2021-08-07T13:00:30.010Z</time>
      </trkpt>
      <trkpt lat="46.91309" lon="8.63106">
        <ele>611</ele>
        <time>2021-08-07T13:00:31.010Z</time>
      </trkpt>
      <trkpt lat="46.91307" lon="8.63107">
        <ele>611</ele>
        <time>2021-08-07T13:00:32.009Z</time>
      </trkpt>
      <trkpt lat="46.91304" lon="8.63106">
        <ele>611</ele>
        <time>2021-08-07T13:00:33.009Z</time>
      </trkpt>
      <trkpt lat="46.91295" lon="8.63102">
        <ele>611</ele>
        <time>2021-08-07T13:00:34.010Z</time>
      </trkpt>
      <trkpt lat="46.91292" lon="8.63101">
        <ele>610</ele>
        <time>2021-08-07T13:00:44.121Z</time>
      </trkpt>
      <trkpt lat="46.9129" lon="8.63101">
        <ele>610</ele>
        <time>2021-08-07T13:00:45.121Z</time>
      </trkpt>
      <trkpt lat="46.91289" lon="8.631">
        <ele>610</ele>
        <time>2021-08-07T13:00:46.122Z</time>
      </trkpt>
      <trkpt lat="46.91285" lon="8.63102">
        <ele>609</ele>
        <time>2021-08-07T13:00:47.122Z</time>
      </trkpt>
      <trkpt lat="46.91283" lon="8.63107">
        <ele>609</ele>
        <time>2021-08-07T13:00:48.122Z</time>
      </trkpt>
      <trkpt lat="46.91281" lon="8.63107">
        <ele>609</ele>
        <time>2021-08-07T13:00:49.121Z</time>
      </trkpt>
      <trkpt lat="46.91281" lon="8.63106">
        <ele>608</ele>
        <time>2021-08-07T13:00:50.121Z</time>
      </trkpt>
      <trkpt lat="46.9128" lon="8.63104">
        <ele>608</ele>
        <time>2021-08-07T13:00:51.121Z</time>
      </trkpt>
      <trkpt lat="46.9128" lon="8.63103">
        <ele>608</ele>
        <time>2021-08-07T13:00:55.248Z</time>
      </trkpt>
      <trkpt lat="46.91279" lon="8.63101">
        <ele>607</ele>
        <time>2021-08-07T13:00:56.247Z</time>
      </trkpt>
      <trkpt lat="46.91279" lon="8.631">
        <ele>607</ele>
        <time>2021-08-07T13:00:57.248Z</time>
      </trkpt>
      <trkpt lat="46.91278" lon="8.631">
        <ele>606</ele>
        <time>2021-08-07T13:00:58.248Z</time>
      </trkpt>
      <trkpt lat="46.91279" lon="8.63101">
        <ele>606</ele>
        <time>2021-08-07T13:01:00.352Z</time>
      </trkpt>
      <trkpt lat="46.91281" lon="8.63101">
        <ele>605</ele>
        <time>2021-08-07T13:01:01.352Z</time>
      </trkpt>
      <trkpt lat="46.91281" lon="8.631">
        <ele>604</ele>
        <time>2021-08-07T13:01:04.101Z</time>
      </trkpt>
      <trkpt lat="46.9128" lon="8.63099">
        <ele>604</ele>
        <time>2021-08-07T13:01:05.101Z</time>
      </trkpt>
      <trkpt lat="46.91281" lon="8.63099">
        <ele>603</ele>
        <time>2021-08-07T13:01:06.101Z</time>
      </trkpt>
      <trkpt lat="46.9128" lon="8.63097">
        <ele>603</ele>
        <time>2021-08-07T13:01:07.100Z</time>
      </trkpt>
      <trkpt lat="46.9128" lon="8.63097">
        <ele>602</ele>
        <time>2021-08-07T13:01:08.100Z</time>
      </trkpt>
      <trkpt lat="46.91279" lon="8.63097">
        <ele>602</ele>
        <time>2021-08-07T13:01:09.100Z</time>
      </trkpt>
      <trkpt lat="46.91278" lon="8.63096">
        <ele>601</ele>
        <time>2021-08-07T13:01:10.100Z</time>
      </trkpt>
      <trkpt lat="46.91277" lon="8.63094">
        <ele>601</ele>
        <time>2021-08-07T13:01:12.120Z</time>
      </trkpt>
      <trkpt lat="46.91277" lon="8.63095">
        <ele>600</ele>
        <time>2021-08-07T13:01:13.119Z</time>
      </trkpt>
      <trkpt lat="46.91279" lon="8.63094">
        <ele>600</ele>
        <time>2021-08-07T13:02:22.044Z</time>
      </trkpt>
      <trkpt lat="46.91279" lon="8.63093">
        <ele>599</ele>
        <time>2021-08-07T13:02:23.044Z</time>
      </trkpt>
      <trkpt lat="46.91279" lon="8.63092">
        <ele>599</ele>
        <time>2021-08-07T13:02:24.045Z</time>
      </trkpt>
      <trkpt lat="46.91279" lon="8.63092">
        <ele>599</ele>
        <time>2021-08-07T13:02:33.114Z</time>
      </trkpt>
      <trkpt lat="46.91278" lon="8.63092">
        <ele>599</ele>
        <time>2021-08-07T13:02:34.114Z</time>
      </trkpt>
      <trkpt lat="46.91279" lon="8.63092">
        <ele>598</ele>
        <time>2021-08-07T13:02:35.114Z</time>
      </trkpt>
      <trkpt lat="46.91279" lon="8.63093">
        <ele>598</ele>
        <time>2021-08-07T13:02:36.114Z</time>
      </trkpt>
      <trkpt lat="46.91278" lon="8.63092">
        <ele>598</ele>
        <time>2021-08-07T13:02:37.114Z</time>
      </trkpt>
      <trkpt lat="46.91277" lon="8.63091">
        <ele>598</ele>
        <time>2021-08-07T13:02:43.298Z</time>
      </trkpt>
      <trkpt lat="46.91276" lon="8.6309">
        <ele>598</ele>
        <time>2021-08-07T13:02:44.299Z</time>
      </trkpt>
      <trkpt lat="46.91274" lon="8.6309">
        <ele>598</ele>
        <time>2021-08-07T13:02:56.116Z</time>
      </trkpt>
      <trkpt lat="46.91275" lon="8.63091">
        <ele>598</ele>
        <time>2021-08-07T13:03:05.873Z</time>
      </trkpt>
      <trkpt lat="46.91277" lon="8.63093">
        <ele>598</ele>
        <time>2021-08-07T13:03:06.873Z</time>
      </trkpt>
      <trkpt lat="46.91279" lon="8.63096">
        <ele>598</ele>
        <time>2021-08-07T13:03:07.875Z</time>
      </trkpt>
      <trkpt lat="46.91279" lon="8.63095">
        <ele>598</ele>
        <time>2021-08-07T13:03:08.876Z</time>
      </trkpt>
      <trkpt lat="46.91282" lon="8.63098">
        <ele>598</ele>
        <time>2021-08-07T13:03:09.876Z</time>
      </trkpt>
      <trkpt lat="46.91283" lon="8.63098">
        <ele>598</ele>
        <time>2021-08-07T13:03:10.876Z</time>
      </trkpt>
      <trkpt lat="46.91283" lon="8.63096">
        <ele>599</ele>
        <time>2021-08-07T13:03:11.876Z</time>
      </trkpt>
      <trkpt lat="46.91284" lon="8.63097">
        <ele>599</ele>
        <time>2021-08-07T13:03:12.875Z</time>
      </trkpt>
      <trkpt lat="46.91284" lon="8.63096">
        <ele>599</ele>
        <time>2021-08-07T13:03:13.876Z</time>
      </trkpt>
      <trkpt lat="46.91285" lon="8.63096">
        <ele>599</ele>
        <time>2021-08-07T13:03:27.993Z</time>
      </trkpt>
      <trkpt lat="46.91284" lon="8.63097">
        <ele>599</ele>
        <time>2021-08-07T13:03:28.993Z</time>
      </trkpt>
      <trkpt lat="46.91285" lon="8.63097">
        <ele>599</ele>
        <time>2021-08-07T13:03:32.737Z</time>
      </trkpt>
      <trkpt lat="46.91286" lon="8.63097">
        <ele>599</ele>
        <time>2021-08-07T13:03:33.737Z</time>
      </trkpt>
      <trkpt lat="46.91286" lon="8.63097">
        <ele>599</ele>
        <time>2021-08-07T13:03:34.737Z</time>
      </trkpt>
      <trkpt lat="46.91287" lon="8.63097">
        <ele>600</ele>
        <time>2021-08-07T13:03:42.753Z</time>
      </trkpt>
      <trkpt lat="46.91287" lon="8.63097">
        <ele>600</ele>
        <time>2021-08-07T13:03:43.753Z</time>
      </trkpt>
      <trkpt lat="46.91287" lon="8.63098">
        <ele>599</ele>
        <time>2021-08-07T13:03:44.753Z</time>
      </trkpt>
      <trkpt lat="46.91288" lon="8.63098">
        <ele>599</ele>
        <time>2021-08-07T13:04:13.647Z</time>
      </trkpt>
      <trkpt lat="46.91288" lon="8.63098">
        <ele>599</ele>
        <time>2021-08-07T13:04:14.646Z</time>
      </trkpt>
      <trkpt lat="46.91288" lon="8.63098">
        <ele>599</ele>
        <time>2021-08-07T13:04:15.647Z</time>
      </trkpt>
      <trkpt lat="46.91288" lon="8.63098">
        <ele>599</ele>
        <time>2021-08-07T13:04:16.647Z</time>
      </trkpt>
      <trkpt lat="46.91287" lon="8.63096">
        <ele>599</ele>
        <time>2021-08-07T13:04:17.647Z</time>
      </trkpt>
      <trkpt lat="46.91286" lon="8.63093">
        <ele>599</ele>
        <time>2021-08-07T13:04:18.646Z</time>
      </trkpt>
      <trkpt lat="46.91286" lon="8.63094">
        <ele>599</ele>
        <time>2021-08-07T13:04:19.646Z</time>
      </trkpt>
      <trkpt lat="46.91286" lon="8.63095">
        <ele>598</ele>
        <time>2021-08-07T13:04:20.647Z</time>
      </trkpt>
      <trkpt lat="46.91286" lon="8.63095">
        <ele>598</ele>
        <time>2021-08-07T13:04:21.647Z</time>
      </trkpt>
      <trkpt lat="46.91286" lon="8.63093">
        <ele>598</ele>
        <time>2021-08-07T13:04:22.647Z</time>
      </trkpt>
      <trkpt lat="46.91285" lon="8.63091">
        <ele>598</ele>
        <time>2021-08-07T13:04:23.647Z</time>
      </trkpt>
      <trkpt lat="46.91285" lon="8.63089">
        <ele>599</ele>
        <time>2021-08-07T13:04:24.647Z</time>
      </trkpt>
      <trkpt lat="46.91284" lon="8.63089">
        <ele>599</ele>
        <time>2021-08-07T13:04:25.647Z</time>
      </trkpt>
      <trkpt lat="46.91283" lon="8.6309">
        <ele>599</ele>
        <time>2021-08-07T13:04:26.647Z</time>
      </trkpt>
      <trkpt lat="46.91282" lon="8.63093">
        <ele>599</ele>
        <time>2021-08-07T13:04:27.647Z</time>
      </trkpt>
      <trkpt lat="46.91284" lon="8.631">
        <ele>599</ele>
        <time>2021-08-07T13:04:28.647Z</time>
      </trkpt>
      <trkpt lat="46.91285" lon="8.63105">
        <ele>598</ele>
        <time>2021-08-07T13:04:29.646Z</time>
      </trkpt>
      <trkpt lat="46.91287" lon="8.63109">
        <ele>597</ele>
        <time>2021-08-07T13:04:30.647Z</time>
      </trkpt>
      <trkpt lat="46.91287" lon="8.63114">
        <ele>596</ele>
        <time>2021-08-07T13:04:31.646Z</time>
      </trkpt>
      <trkpt lat="46.91286" lon="8.63115">
        <ele>596</ele>
        <time>2021-08-07T13:04:32.647Z</time>
      </trkpt>
      <trkpt lat="46.91286" lon="8.63116">
        <ele>595</ele>
        <time>2021-08-07T13:04:33.647Z</time>
      </trkpt>
      <trkpt lat="46.91285" lon="8.63117">
        <ele>595</ele>
        <time>2021-08-07T13:04:34.647Z</time>
      </trkpt>
      <trkpt lat="46.91286" lon="8.63118">
        <ele>594</ele>
        <time>2021-08-07T13:04:35.646Z</time>
      </trkpt>
      <trkpt lat="46.91286" lon="8.63119">
        <ele>594</ele>
        <time>2021-08-07T13:04:36.646Z</time>
      </trkpt>
      <trkpt lat="46.91286" lon="8.63121">
        <ele>594</ele>
        <time>2021-08-07T13:04:37.647Z</time>
      </trkpt>
      <trkpt lat="46.91285" lon="8.63122">
        <ele>594</ele>
        <time>2021-08-07T13:04:38.647Z</time>
      </trkpt>
      <trkpt lat="46.91285" lon="8.63124">
        <ele>593</ele>
        <time>2021-08-07T13:04:39.646Z</time>
      </trkpt>
      <trkpt lat="46.91284" lon="8.63123">
        <ele>593</ele>
        <time>2021-08-07T13:04:40.647Z</time>
      </trkpt>
      <trkpt lat="46.91283" lon="8.63122">
        <ele>593</ele>
        <time>2021-08-07T13:04:41.647Z</time>
      </trkpt>
      <trkpt lat="46.91283" lon="8.63122">
        <ele>593</ele>
        <time>2021-08-07T13:04:42.647Z</time>
      </trkpt>
      <trkpt lat="46.91281" lon="8.6312">
        <ele>593</ele>
        <time>2021-08-07T13:04:43.647Z</time>
      </trkpt>
      <trkpt lat="46.91281" lon="8.63118">
        <ele>593</ele>
        <time>2021-08-07T13:04:44.646Z</time>
      </trkpt>
      <trkpt lat="46.9128" lon="8.63117">
        <ele>593</ele>
        <time>2021-08-07T13:04:45.646Z</time>
      </trkpt>
      <trkpt lat="46.9128" lon="8.63115">
        <ele>593</ele>
        <time>2021-08-07T13:04:46.646Z</time>
      </trkpt>
      <trkpt lat="46.91281" lon="8.63114">
        <ele>594</ele>
        <time>2021-08-07T13:04:47.647Z</time>
      </trkpt>
      <trkpt lat="46.91282" lon="8.63113">
        <ele>594</ele>
        <time>2021-08-07T13:04:48.646Z</time>
      </trkpt>
      <trkpt lat="46.91281" lon="8.63111">
        <ele>594</ele>
        <time>2021-08-07T13:04:49.646Z</time>
      </trkpt>
      <trkpt lat="46.91281" lon="8.6311">
        <ele>594</ele>
        <time>2021-08-07T13:04:50.647Z</time>
      </trkpt>
      <trkpt lat="46.91281" lon="8.63109">
        <ele>594</ele>
        <time>2021-08-07T13:04:51.647Z</time>
      </trkpt>
      <trkpt lat="46.91281" lon="8.63108">
        <ele>594</ele>
        <time>2021-08-07T13:04:52.647Z</time>
      </trkpt>
      <trkpt lat="46.91281" lon="8.63108">
        <ele>594</ele>
        <time>2021-08-07T13:04:53.646Z</time>
      </trkpt>
      <trkpt lat="46.91282" lon="8.63109">
        <ele>594</ele>
        <time>2021-08-07T13:04:54.646Z</time>
      </trkpt>
      <trkpt lat="46.91283" lon="8.63109">
        <ele>594</ele>
        <time>2021-08-07T13:04:55.647Z</time>
      </trkpt>
      <trkpt lat="46.91284" lon="8.63109">
        <ele>593</ele>
        <time>2021-08-07T13:04:56.647Z</time>
      </trkpt>
      <trkpt lat="46.91284" lon="8.63108">
        <ele>593</ele>
        <time>2021-08-07T13:04:57.647Z</time>
      </trkpt>
      <trkpt lat="46.91285" lon="8.63107">
        <ele>593</ele>
        <time>2021-08-07T13:04:58.647Z</time>
      </trkpt>
      <trkpt lat="46.91287" lon="8.63108">
        <ele>593</ele>
        <time>2021-08-07T13:04:59.646Z</time>
      </trkpt>
      <trkpt lat="46.91289" lon="8.63109">
        <ele>593</ele>
        <time>2021-08-07T13:05:00.646Z</time>
      </trkpt>
      <trkpt lat="46.9129" lon="8.63109">
        <ele>593</ele>
        <time>2021-08-07T13:05:01.647Z</time>
      </trkpt>
      <trkpt lat="46.91289" lon="8.63107">
        <ele>593</ele>
        <time>2021-08-07T13:05:02.647Z</time>
      </trkpt>
      <trkpt lat="46.9129" lon="8.63107">
        <ele>593</ele>
        <time>2021-08-07T13:05:03.647Z</time>
      </trkpt>
      <trkpt lat="46.91291" lon="8.63106">
        <ele>593</ele>
        <time>2021-08-07T13:05:04.646Z</time>
      </trkpt>
      <trkpt lat="46.91291" lon="8.63104">
        <ele>593</ele>
        <time>2021-08-07T13:05:05.647Z</time>
      </trkpt>
      <trkpt lat="46.9129" lon="8.63102">
        <ele>593</ele>
        <time>2021-08-07T13:05:06.647Z</time>
      </trkpt>
      <trkpt lat="46.91291" lon="8.631">
        <ele>593</ele>
        <time>2021-08-07T13:05:07.647Z</time>
      </trkpt>
      <trkpt lat="46.91293" lon="8.63099">
        <ele>593</ele>
        <time>2021-08-07T13:05:08.647Z</time>
      </trkpt>
      <trkpt lat="46.91296" lon="8.63099">
        <ele>593</ele>
        <time>2021-08-07T13:05:09.646Z</time>
      </trkpt>
      <trkpt lat="46.91297" lon="8.63098">
        <ele>593</ele>
        <time>2021-08-07T13:05:10.647Z</time>
      </trkpt>
      <trkpt lat="46.91297" lon="8.63097">
        <ele>593</ele>
        <time>2021-08-07T13:05:11.647Z</time>
      </trkpt>
      <trkpt lat="46.91297" lon="8.63095">
        <ele>593</ele>
        <time>2021-08-07T13:05:12.647Z</time>
      </trkpt>
      <trkpt lat="46.91297" lon="8.63094">
        <ele>594</ele>
        <time>2021-08-07T13:05:13.647Z</time>
      </trkpt>
      <trkpt lat="46.91296" lon="8.63092">
        <ele>594</ele>
        <time>2021-08-07T13:05:14.647Z</time>
      </trkpt>
      <trkpt lat="46.91295" lon="8.63091">
        <ele>594</ele>
        <time>2021-08-07T13:05:15.647Z</time>
      </trkpt>
      <trkpt lat="46.91294" lon="8.6309">
        <ele>594</ele>
        <time>2021-08-07T13:05:16.647Z</time>
      </trkpt>
      <trkpt lat="46.91294" lon="8.63089">
        <ele>594</ele>
        <time>2021-08-07T13:05:17.647Z</time>
      </trkpt>
      <trkpt lat="46.91295" lon="8.63089">
        <ele>595</ele>
        <time>2021-08-07T13:05:18.647Z</time>
      </trkpt>
      <trkpt lat="46.91294" lon="8.63089">
        <ele>595</ele>
        <time>2021-08-07T13:05:19.647Z</time>
      </trkpt>
      <trkpt lat="46.91293" lon="8.63088">
        <ele>595</ele>
        <time>2021-08-07T13:05:20.647Z</time>
      </trkpt>
      <trkpt lat="46.91292" lon="8.63087">
        <ele>595</ele>
        <time>2021-08-07T13:05:21.647Z</time>
      </trkpt>
      <trkpt lat="46.91292" lon="8.63086">
        <ele>595</ele>
        <time>2021-08-07T13:05:22.647Z</time>
      </trkpt>
      <trkpt lat="46.91291" lon="8.63085">
        <ele>595</ele>
        <time>2021-08-07T13:05:23.647Z</time>
      </trkpt>
      <trkpt lat="46.91291" lon="8.63085">
        <ele>595</ele>
        <time>2021-08-07T13:05:24.646Z</time>
      </trkpt>
      <trkpt lat="46.91292" lon="8.63085">
        <ele>595</ele>
        <time>2021-08-07T13:05:25.647Z</time>
      </trkpt>
      <trkpt lat="46.91293" lon="8.63085">
        <ele>595</ele>
        <time>2021-08-07T13:05:26.647Z</time>
      </trkpt>
      <trkpt lat="46.91294" lon="8.63085">
        <ele>595</ele>
        <time>2021-08-07T13:05:27.647Z</time>
      </trkpt>
      <trkpt lat="46.91294" lon="8.63085">
        <ele>595</ele>
        <time>2021-08-07T13:05:28.647Z</time>
      </trkpt>
      <trkpt lat="46.91295" lon="8.63085">
        <ele>595</ele>
        <time>2021-08-07T13:05:29.647Z</time>
      </trkpt>
      <trkpt lat="46.91296" lon="8.63085">
        <ele>595</ele>
        <time>2021-08-07T13:05:30.647Z</time>
      </trkpt>
      <trkpt lat="46.91297" lon="8.63085">
        <ele>595</ele>
        <time>2021-08-07T13:05:31.646Z</time>
      </trkpt>
      <trkpt lat="46.91297" lon="8.63084">
        <ele>596</ele>
        <time>2021-08-07T13:05:32.647Z</time>
      </trkpt>
      <trkpt lat="46.91298" lon="8.63083">
        <ele>596</ele>
        <time>2021-08-07T13:05:33.647Z</time>
      </trkpt>
      <trkpt lat="46.91297" lon="8.63081">
        <ele>597</ele>
        <time>2021-08-07T13:05:34.647Z</time>
      </trkpt>
      <trkpt lat="46.91297" lon="8.6308">
        <ele>598</ele>
        <time>2021-08-07T13:05:35.646Z</time>
      </trkpt>
      <trkpt lat="46.91297" lon="8.63079">
        <ele>599</ele>
        <time>2021-08-07T13:05:36.647Z</time>
      </trkpt>
      <trkpt lat="46.91297" lon="8.63078">
        <ele>599</ele>
        <time>2021-08-07T13:05:37.647Z</time>
      </trkpt>
      <trkpt lat="46.91297" lon="8.63077">
        <ele>600</ele>
        <time>2021-08-07T13:05:38.647Z</time>
      </trkpt>
      <trkpt lat="46.91295" lon="8.63072">
        <ele>601</ele>
        <time>2021-08-07T13:05:39.647Z</time>
      </trkpt>
      <trkpt lat="46.91293" lon="8.6307">
        <ele>602</ele>
        <time>2021-08-07T13:05:40.646Z</time>
      </trkpt>
      <trkpt lat="46.91292" lon="8.63067">
        <ele>603</ele>
        <time>2021-08-07T13:05:41.646Z</time>
      </trkpt>
      <trkpt lat="46.9129" lon="8.63064">
        <ele>603</ele>
        <time>2021-08-07T13:05:42.646Z</time>
      </trkpt>
      <trkpt lat="46.91293" lon="8.63065">
        <ele>604</ele>
        <time>2021-08-07T13:05:43.647Z</time>
      </trkpt>
      <trkpt lat="46.91293" lon="8.63064">
        <ele>604</ele>
        <time>2021-08-07T13:05:44.647Z</time>
      </trkpt>
      <trkpt lat="46.91293" lon="8.63062">
        <ele>605</ele>
        <time>2021-08-07T13:05:45.647Z</time>
      </trkpt>
      <trkpt lat="46.91293" lon="8.63061">
        <ele>605</ele>
        <time>2021-08-07T13:05:46.647Z</time>
      </trkpt>
      <trkpt lat="46.91294" lon="8.63061">
        <ele>606</ele>
        <time>2021-08-07T13:05:47.647Z</time>
      </trkpt>
      <trkpt lat="46.91295" lon="8.63059">
        <ele>606</ele>
        <time>2021-08-07T13:05:48.647Z</time>
      </trkpt>
      <trkpt lat="46.91294" lon="8.63058">
        <ele>606</ele>
        <time>2021-08-07T13:05:49.647Z</time>
      </trkpt>
      <trkpt lat="46.91296" lon="8.63057">
        <ele>607</ele>
        <time>2021-08-07T13:05:50.647Z</time>
      </trkpt>
      <trkpt lat="46.91296" lon="8.63054">
        <ele>607</ele>
        <time>2021-08-07T13:05:51.646Z</time>
      </trkpt>
      <trkpt lat="46.91296" lon="8.63053">
        <ele>608</ele>
        <time>2021-08-07T13:05:52.646Z</time>
      </trkpt>
      <trkpt lat="46.91295" lon="8.63053">
        <ele>608</ele>
        <time>2021-08-07T13:05:53.646Z</time>
      </trkpt>
      <trkpt lat="46.91294" lon="8.63052">
        <ele>609</ele>
        <time>2021-08-07T13:05:54.647Z</time>
      </trkpt>
      <trkpt lat="46.91293" lon="8.63049">
        <ele>609</ele>
        <time>2021-08-07T13:05:55.647Z</time>
      </trkpt>
      <trkpt lat="46.91293" lon="8.63048">
        <ele>610</ele>
        <time>2021-08-07T13:05:56.647Z</time>
      </trkpt>
      <trkpt lat="46.91293" lon="8.63046">
        <ele>610</ele>
        <time>2021-08-07T13:06:27.754Z</time>
      </trkpt>
      <trkpt lat="46.91292" lon="8.63041">
        <ele>611</ele>
        <time>2021-08-07T13:06:28.753Z</time>
      </trkpt>
      <trkpt lat="46.9129" lon="8.63039">
        <ele>611</ele>
        <time>2021-08-07T13:06:29.754Z</time>
      </trkpt>
      <trkpt lat="46.91286" lon="8.63034">
        <ele>611</ele>
        <time>2021-08-07T13:06:30.754Z</time>
      </trkpt>
      <trkpt lat="46.91281" lon="8.63028">
        <ele>612</ele>
        <time>2021-08-07T13:06:31.754Z</time>
      </trkpt>
      <trkpt lat="46.91278" lon="8.63024">
        <ele>612</ele>
        <time>2021-08-07T13:06:32.754Z</time>
      </trkpt>
      <trkpt lat="46.91277" lon="8.63021">
        <ele>612</ele>
        <time>2021-08-07T13:06:33.754Z</time>
      </trkpt>
      <trkpt lat="46.91278" lon="8.63023">
        <ele>612</ele>
        <time>2021-08-07T13:06:34.753Z</time>
      </trkpt>
      <trkpt lat="46.9128" lon="8.63025">
        <ele>612</ele>
        <time>2021-08-07T13:06:35.754Z</time>
      </trkpt>
      <trkpt lat="46.91283" lon="8.63029">
        <ele>612</ele>
        <time>2021-08-07T13:06:36.754Z</time>
      </trkpt>
      <trkpt lat="46.91284" lon="8.63032">
        <ele>612</ele>
        <time>2021-08-07T13:06:37.754Z</time>
      </trkpt>
      <trkpt lat="46.91285" lon="8.63034">
        <ele>612</ele>
        <time>2021-08-07T13:06:38.753Z</time>
      </trkpt>
      <trkpt lat="46.91285" lon="8.63036">
        <ele>613</ele>
        <time>2021-08-07T13:06:39.753Z</time>
      </trkpt>
      <trkpt lat="46.91285" lon="8.63038">
        <ele>613</ele>
        <time>2021-08-07T13:06:40.753Z</time>
      </trkpt>
      <trkpt lat="46.91283" lon="8.63039">
        <ele>613</ele>
        <time>2021-08-07T13:06:41.754Z</time>
      </trkpt>
      <trkpt lat="46.91284" lon="8.63041">
        <ele>613</ele>
        <time>2021-08-07T13:06:42.753Z</time>
      </trkpt>
      <trkpt lat="46.91285" lon="8.63043">
        <ele>613</ele>
        <time>2021-08-07T13:06:43.754Z</time>
      </trkpt>
      <trkpt lat="46.91284" lon="8.63045">
        <ele>613</ele>
        <time>2021-08-07T13:06:44.754Z</time>
      </trkpt>
      <trkpt lat="46.91283" lon="8.63048">
        <ele>613</ele>
        <time>2021-08-07T13:06:48.875Z</time>
      </trkpt>
      <trkpt lat="46.91283" lon="8.6305">
        <ele>613</ele>
        <time>2021-08-07T13:06:49.875Z</time>
      </trkpt>
      <trkpt lat="46.91283" lon="8.63052">
        <ele>613</ele>
        <time>2021-08-07T13:06:50.876Z</time>
      </trkpt>
      <trkpt lat="46.91282" lon="8.63054">
        <ele>613</ele>
        <time>2021-08-07T13:06:51.875Z</time>
      </trkpt>
      <trkpt lat="46.91282" lon="8.63055">
        <ele>613</ele>
        <time>2021-08-07T13:06:52.876Z</time>
      </trkpt>
      <trkpt lat="46.9128" lon="8.63057">
        <ele>613</ele>
        <time>2021-08-07T13:06:53.875Z</time>
      </trkpt>
      <trkpt lat="46.9128" lon="8.63058">
        <ele>613</ele>
        <time>2021-08-07T13:06:54.875Z</time>
      </trkpt>
      <trkpt lat="46.91282" lon="8.63059">
        <ele>613</ele>
        <time>2021-08-07T13:06:55.876Z</time>
      </trkpt>
      <trkpt lat="46.91283" lon="8.63061">
        <ele>613</ele>
        <time>2021-08-07T13:06:56.876Z</time>
      </trkpt>
      <trkpt lat="46.91282" lon="8.63061">
        <ele>613</ele>
        <time>2021-08-07T13:06:57.875Z</time>
      </trkpt>
      <trkpt lat="46.91283" lon="8.63061">
        <ele>613</ele>
        <time>2021-08-07T13:06:58.876Z</time>
      </trkpt>
      <trkpt lat="46.91283" lon="8.63059">
        <ele>613</ele>
        <time>2021-08-07T13:06:59.875Z</time>
      </trkpt>
      <trkpt lat="46.91283" lon="8.63058">
        <ele>612</ele>
        <time>2021-08-07T13:07:00.876Z</time>
      </trkpt>
      <trkpt lat="46.91285" lon="8.63057">
        <ele>612</ele>
        <time>2021-08-07T13:07:01.876Z</time>
      </trkpt>
      <trkpt lat="46.91286" lon="8.63056">
        <ele>612</ele>
        <time>2021-08-07T13:07:02.876Z</time>
      </trkpt>
      <trkpt lat="46.91287" lon="8.63055">
        <ele>612</ele>
        <time>2021-08-07T13:07:03.876Z</time>
      </trkpt>
      <trkpt lat="46.91288" lon="8.63053">
        <ele>612</ele>
        <time>2021-08-07T13:07:04.876Z</time>
      </trkpt>
      <trkpt lat="46.91288" lon="8.63052">
        <ele>612</ele>
        <time>2021-08-07T13:07:05.875Z</time>
      </trkpt>
      <trkpt lat="46.91288" lon="8.6305">
        <ele>612</ele>
        <time>2021-08-07T13:07:06.876Z</time>
      </trkpt>
      <trkpt lat="46.91288" lon="8.63047">
        <ele>612</ele>
        <time>2021-08-07T13:07:07.876Z</time>
      </trkpt>
      <trkpt lat="46.91289" lon="8.63044">
        <ele>612</ele>
        <time>2021-08-07T13:07:08.876Z</time>
      </trkpt>
      <trkpt lat="46.91288" lon="8.63041">
        <ele>613</ele>
        <time>2021-08-07T13:07:09.875Z</time>
      </trkpt>
      <trkpt lat="46.91286" lon="8.63038">
        <ele>613</ele>
        <time>2021-08-07T13:07:10.875Z</time>
      </trkpt>
      <trkpt lat="46.91284" lon="8.63036">
        <ele>613</ele>
        <time>2021-08-07T13:07:11.876Z</time>
      </trkpt>
      <trkpt lat="46.91282" lon="8.63034">
        <ele>614</ele>
        <time>2021-08-07T13:07:12.876Z</time>
      </trkpt>
      <trkpt lat="46.9128" lon="8.63032">
        <ele>614</ele>
        <time>2021-08-07T13:07:13.876Z</time>
      </trkpt>
      <trkpt lat="46.9128" lon="8.63032">
        <ele>614</ele>
        <time>2021-08-07T13:07:14.875Z</time>
      </trkpt>
      <trkpt lat="46.9128" lon="8.63032">
        <ele>614</ele>
        <time>2021-08-07T13:07:15.876Z</time>
      </trkpt>
      <trkpt lat="46.91279" lon="8.63032">
        <ele>614</ele>
        <time>2021-08-07T13:07:16.876Z</time>
      </trkpt>
      <trkpt lat="46.91279" lon="8.63031">
        <ele>613</ele>
        <time>2021-08-07T13:07:17.876Z</time>
      </trkpt>
      <trkpt lat="46.91278" lon="8.6303">
        <ele>613</ele>
        <time>2021-08-07T13:07:18.876Z</time>
      </trkpt>
      <trkpt lat="46.91277" lon="8.6303">
        <ele>613</ele>
        <time>2021-08-07T13:07:19.876Z</time>
      </trkpt>
      <trkpt lat="46.91276" lon="8.63029">
        <ele>612</ele>
        <time>2021-08-07T13:07:20.876Z</time>
      </trkpt>
      <trkpt lat="46.91275" lon="8.63029">
        <ele>611</ele>
        <time>2021-08-07T13:07:21.875Z</time>
      </trkpt>
      <trkpt lat="46.91274" lon="8.63029">
        <ele>611</ele>
        <time>2021-08-07T13:07:22.876Z</time>
      </trkpt>
      <trkpt lat="46.91272" lon="8.63029">
        <ele>610</ele>
        <time>2021-08-07T13:07:23.876Z</time>
      </trkpt>
      <trkpt lat="46.91272" lon="8.6303">
        <ele>610</ele>
        <time>2021-08-07T13:07:24.876Z</time>
      </trkpt>
      <trkpt lat="46.91272" lon="8.6303">
        <ele>608</ele>
        <time>2021-08-07T13:07:25.875Z</time>
      </trkpt>
      <trkpt lat="46.91272" lon="8.6303">
        <ele>607</ele>
        <time>2021-08-07T13:07:26.875Z</time>
      </trkpt>
      <trkpt lat="46.91271" lon="8.63028">
        <ele>606</ele>
        <time>2021-08-07T13:07:39.003Z</time>
      </trkpt>
      <trkpt lat="46.9127" lon="8.63026">
        <ele>605</ele>
        <time>2021-08-07T13:07:40.003Z</time>
      </trkpt>
      <trkpt lat="46.91268" lon="8.63024">
        <ele>604</ele>
        <time>2021-08-07T13:07:41.003Z</time>
      </trkpt>
      <trkpt lat="46.91266" lon="8.63022">
        <ele>603</ele>
        <time>2021-08-07T13:07:42.003Z</time>
      </trkpt>
      <trkpt lat="46.91263" lon="8.6302">
        <ele>602</ele>
        <time>2021-08-07T13:07:43.002Z</time>
      </trkpt>
      <trkpt lat="46.9126" lon="8.63017">
        <ele>602</ele>
        <time>2021-08-07T13:07:44.003Z</time>
      </trkpt>
      <trkpt lat="46.91258" lon="8.63016">
        <ele>601</ele>
        <time>2021-08-07T13:07:45.003Z</time>
      </trkpt>
      <trkpt lat="46.91256" lon="8.63015">
        <ele>600</ele>
        <time>2021-08-07T13:07:46.002Z</time>
      </trkpt>
      <trkpt lat="46.91254" lon="8.63014">
        <ele>599</ele>
        <time>2021-08-07T13:07:47.002Z</time>
      </trkpt>
      <trkpt lat="46.91252" lon="8.63013">
        <ele>598</ele>
        <time>2021-08-07T13:07:48.002Z</time>
      </trkpt>
      <trkpt lat="46.9125" lon="8.63012">
        <ele>597</ele>
        <time>2021-08-07T13:07:49.003Z</time>
      </trkpt>
      <trkpt lat="46.91248" lon="8.63011">
        <ele>596</ele>
        <time>2021-08-07T13:07:50.002Z</time>
      </trkpt>
      <trkpt lat="46.91246" lon="8.63009">
        <ele>595</ele>
        <time>2021-08-07T13:07:51.003Z</time>
      </trkpt>
      <trkpt lat="46.91244" lon="8.63008">
        <ele>594</ele>
        <time>2021-08-07T13:07:52.003Z</time>
      </trkpt>
      <trkpt lat="46.91242" lon="8.63006">
        <ele>593</ele>
        <time>2021-08-07T13:07:53.003Z</time>
      </trkpt>
      <trkpt lat="46.91239" lon="8.63004">
        <ele>592</ele>
        <time>2021-08-07T13:07:54.002Z</time>
      </trkpt>
      <trkpt lat="46.91237" lon="8.63002">
        <ele>591</ele>
        <time>2021-08-07T13:07:55.003Z</time>
      </trkpt>
      <trkpt lat="46.91234" lon="8.63">
        <ele>590</ele>
        <time>2021-08-07T13:07:56.003Z</time>
      </trkpt>
      <trkpt lat="46.91231" lon="8.62999">
        <ele>589</ele>
        <time>2021-08-07T13:07:57.002Z</time>
      </trkpt>
      <trkpt lat="46.9123" lon="8.62999">
        <ele>588</ele>
        <time>2021-08-07T13:07:58.003Z</time>
      </trkpt>
      <trkpt lat="46.91228" lon="8.63001">
        <ele>587</ele>
        <time>2021-08-07T13:07:59.003Z</time>
      </trkpt>
      <trkpt lat="46.91228" lon="8.63002">
        <ele>586</ele>
        <time>2021-08-07T13:08:00.003Z</time>
      </trkpt>
      <trkpt lat="46.91227" lon="8.63">
        <ele>585</ele>
        <time>2021-08-07T13:08:01.002Z</time>
      </trkpt>
      <trkpt lat="46.91226" lon="8.62999">
        <ele>584</ele>
        <time>2021-08-07T13:08:02.003Z</time>
      </trkpt>
      <trkpt lat="46.91226" lon="8.62997">
        <ele>584</ele>
        <time>2021-08-07T13:08:03.002Z</time>
      </trkpt>
      <trkpt lat="46.91225" lon="8.62996">
        <ele>583</ele>
        <time>2021-08-07T13:08:04.002Z</time>
      </trkpt>
      <trkpt lat="46.91225" lon="8.62996">
        <ele>582</ele>
        <time>2021-08-07T13:08:05.003Z</time>
      </trkpt>
      <trkpt lat="46.91224" lon="8.62995">
        <ele>582</ele>
        <time>2021-08-07T13:08:06.003Z</time>
      </trkpt>
      <trkpt lat="46.91223" lon="8.62995">
        <ele>581</ele>
        <time>2021-08-07T13:08:07.002Z</time>
      </trkpt>
      <trkpt lat="46.91223" lon="8.62995">
        <ele>581</ele>
        <time>2021-08-07T13:08:08.002Z</time>
      </trkpt>
      <trkpt lat="46.91223" lon="8.62994">
        <ele>579</ele>
        <time>2021-08-07T13:08:09.003Z</time>
      </trkpt>
      <trkpt lat="46.91222" lon="8.62994">
        <ele>579</ele>
        <time>2021-08-07T13:08:10.003Z</time>
      </trkpt>
      <trkpt lat="46.91221" lon="8.62993">
        <ele>578</ele>
        <time>2021-08-07T13:08:11.002Z</time>
      </trkpt>
      <trkpt lat="46.9122" lon="8.62992">
        <ele>578</ele>
        <time>2021-08-07T13:08:12.003Z</time>
      </trkpt>
      <trkpt lat="46.9122" lon="8.6299">
        <ele>577</ele>
        <time>2021-08-07T13:08:13.002Z</time>
      </trkpt>
      <trkpt lat="46.91219" lon="8.62988">
        <ele>576</ele>
        <time>2021-08-07T13:08:14.003Z</time>
      </trkpt>
      <trkpt lat="46.91218" lon="8.62986">
        <ele>576</ele>
        <time>2021-08-07T13:08:15.003Z</time>
      </trkpt>
      <trkpt lat="46.91218" lon="8.62986">
        <ele>576</ele>
        <time>2021-08-07T13:08:16.003Z</time>
      </trkpt>
      <trkpt lat="46.91217" lon="8.62985">
        <ele>575</ele>
        <time>2021-08-07T13:08:17.002Z</time>
      </trkpt>
      <trkpt lat="46.91217" lon="8.62984">
        <ele>575</ele>
        <time>2021-08-07T13:08:18.003Z</time>
      </trkpt>
      <trkpt lat="46.91216" lon="8.62983">
        <ele>574</ele>
        <time>2021-08-07T13:08:19.003Z</time>
      </trkpt>
      <trkpt lat="46.91216" lon="8.62982">
        <ele>574</ele>
        <time>2021-08-07T13:08:20.003Z</time>
      </trkpt>
      <trkpt lat="46.91215" lon="8.62981">
        <ele>573</ele>
        <time>2021-08-07T13:08:21.003Z</time>
      </trkpt>
      <trkpt lat="46.91214" lon="8.62978">
        <ele>569</ele>
        <time>2021-08-07T13:08:22.003Z</time>
      </trkpt>
      <trkpt lat="46.91214" lon="8.62975">
        <ele>568</ele>
        <time>2021-08-07T13:08:23.002Z</time>
      </trkpt>
      <trkpt lat="46.91213" lon="8.62973">
        <ele>567</ele>
        <time>2021-08-07T13:08:24.003Z</time>
      </trkpt>
      <trkpt lat="46.91213" lon="8.6297">
        <ele>567</ele>
        <time>2021-08-07T13:08:25.003Z</time>
      </trkpt>
      <trkpt lat="46.91213" lon="8.62968">
        <ele>566</ele>
        <time>2021-08-07T13:08:26.003Z</time>
      </trkpt>
      <trkpt lat="46.91212" lon="8.62965">
        <ele>565</ele>
        <time>2021-08-07T13:08:27.002Z</time>
      </trkpt>
      <trkpt lat="46.91212" lon="8.62962">
        <ele>564</ele>
        <time>2021-08-07T13:08:28.003Z</time>
      </trkpt>
      <trkpt lat="46.91212" lon="8.62959">
        <ele>564</ele>
        <time>2021-08-07T13:08:29.002Z</time>
      </trkpt>
      <trkpt lat="46.91212" lon="8.62957">
        <ele>563</ele>
        <time>2021-08-07T13:08:30.002Z</time>
      </trkpt>
      <trkpt lat="46.91211" lon="8.62955">
        <ele>563</ele>
        <time>2021-08-07T13:08:31.002Z</time>
      </trkpt>
      <trkpt lat="46.91211" lon="8.62954">
        <ele>562</ele>
        <time>2021-08-07T13:08:32.002Z</time>
      </trkpt>
      <trkpt lat="46.9121" lon="8.62953">
        <ele>562</ele>
        <time>2021-08-07T13:08:33.003Z</time>
      </trkpt>
      <trkpt lat="46.91209" lon="8.62951">
        <ele>561</ele>
        <time>2021-08-07T13:08:34.003Z</time>
      </trkpt>
      <trkpt lat="46.91209" lon="8.62949">
        <ele>560</ele>
        <time>2021-08-07T13:08:35.003Z</time>
      </trkpt>
      <trkpt lat="46.91209" lon="8.62947">
        <ele>559</ele>
        <time>2021-08-07T13:08:36.003Z</time>
      </trkpt>
      <trkpt lat="46.91208" lon="8.62945">
        <ele>558</ele>
        <time>2021-08-07T13:08:37.003Z</time>
      </trkpt>
      <trkpt lat="46.91208" lon="8.62943">
        <ele>558</ele>
        <time>2021-08-07T13:08:42.144Z</time>
      </trkpt>
      <trkpt lat="46.91207" lon="8.6294">
        <ele>557</ele>
        <time>2021-08-07T13:08:43.145Z</time>
      </trkpt>
      <trkpt lat="46.91207" lon="8.62938">
        <ele>557</ele>
        <time>2021-08-07T13:08:44.145Z</time>
      </trkpt>
      <trkpt lat="46.91207" lon="8.62937">
        <ele>557</ele>
        <time>2021-08-07T13:08:45.145Z</time>
      </trkpt>
      <trkpt lat="46.91207" lon="8.62936">
        <ele>556</ele>
        <time>2021-08-07T13:08:46.145Z</time>
      </trkpt>
      <trkpt lat="46.91207" lon="8.62934">
        <ele>556</ele>
        <time>2021-08-07T13:08:47.144Z</time>
      </trkpt>
      <trkpt lat="46.91207" lon="8.62933">
        <ele>556</ele>
        <time>2021-08-07T13:08:48.144Z</time>
      </trkpt>
      <trkpt lat="46.91207" lon="8.62934">
        <ele>556</ele>
        <time>2021-08-07T13:08:49.145Z</time>
      </trkpt>
      <trkpt lat="46.91207" lon="8.62934">
        <ele>556</ele>
        <time>2021-08-07T13:08:50.145Z</time>
      </trkpt>
      <trkpt lat="46.91206" lon="8.62935">
        <ele>555</ele>
        <time>2021-08-07T13:08:51.145Z</time>
      </trkpt>
      <trkpt lat="46.91206" lon="8.62935">
        <ele>555</ele>
        <time>2021-08-07T13:08:52.144Z</time>
      </trkpt>
      <trkpt lat="46.91205" lon="8.62934">
        <ele>554</ele>
        <time>2021-08-07T13:08:53.144Z</time>
      </trkpt>
      <trkpt lat="46.91205" lon="8.62933">
        <ele>554</ele>
        <time>2021-08-07T13:08:54.144Z</time>
      </trkpt>
      <trkpt lat="46.91205" lon="8.62931">
        <ele>553</ele>
        <time>2021-08-07T13:08:55.144Z</time>
      </trkpt>
      <trkpt lat="46.91204" lon="8.6293">
        <ele>553</ele>
        <time>2021-08-07T13:08:56.144Z</time>
      </trkpt>
      <trkpt lat="46.91204" lon="8.62928">
        <ele>553</ele>
        <time>2021-08-07T13:08:57.144Z</time>
      </trkpt>
      <trkpt lat="46.91204" lon="8.62926">
        <ele>553</ele>
        <time>2021-08-07T13:08:58.144Z</time>
      </trkpt>
      <trkpt lat="46.91204" lon="8.62923">
        <ele>553</ele>
        <time>2021-08-07T13:08:59.144Z</time>
      </trkpt>
      <trkpt lat="46.91203" lon="8.62922">
        <ele>554</ele>
        <time>2021-08-07T13:09:00.145Z</time>
      </trkpt>
      <trkpt lat="46.91203" lon="8.6292">
        <ele>554</ele>
        <time>2021-08-07T13:09:01.145Z</time>
      </trkpt>
      <trkpt lat="46.91203" lon="8.62918">
        <ele>554</ele>
        <time>2021-08-07T13:09:02.144Z</time>
      </trkpt>
      <trkpt lat="46.91203" lon="8.62916">
        <ele>554</ele>
        <time>2021-08-07T13:09:03.144Z</time>
      </trkpt>
      <trkpt lat="46.91203" lon="8.62913">
        <ele>555</ele>
        <time>2021-08-07T13:09:04.144Z</time>
      </trkpt>
      <trkpt lat="46.91203" lon="8.62911">
        <ele>555</ele>
        <time>2021-08-07T13:09:05.144Z</time>
      </trkpt>
      <trkpt lat="46.91203" lon="8.62908">
        <ele>556</ele>
        <time>2021-08-07T13:09:06.144Z</time>
      </trkpt>
      <trkpt lat="46.91203" lon="8.62906">
        <ele>557</ele>
        <time>2021-08-07T13:09:07.144Z</time>
      </trkpt>
      <trkpt lat="46.91203" lon="8.62904">
        <ele>557</ele>
        <time>2021-08-07T13:09:08.144Z</time>
      </trkpt>
      <trkpt lat="46.91203" lon="8.62901">
        <ele>558</ele>
        <time>2021-08-07T13:09:09.144Z</time>
      </trkpt>
      <trkpt lat="46.91202" lon="8.62898">
        <ele>559</ele>
        <time>2021-08-07T13:09:10.144Z</time>
      </trkpt>
      <trkpt lat="46.91202" lon="8.62897">
        <ele>559</ele>
        <time>2021-08-07T13:09:11.144Z</time>
      </trkpt>
      <trkpt lat="46.91204" lon="8.62899">
        <ele>559</ele>
        <time>2021-08-07T13:09:12.144Z</time>
      </trkpt>
      <trkpt lat="46.91204" lon="8.62897">
        <ele>559</ele>
        <time>2021-08-07T13:09:13.144Z</time>
      </trkpt>
      <trkpt lat="46.91202" lon="8.62895">
        <ele>559</ele>
        <time>2021-08-07T13:09:14.144Z</time>
      </trkpt>
      <trkpt lat="46.91201" lon="8.62892">
        <ele>559</ele>
        <time>2021-08-07T13:09:15.144Z</time>
      </trkpt>
      <trkpt lat="46.91201" lon="8.6289">
        <ele>558</ele>
        <time>2021-08-07T13:09:16.145Z</time>
      </trkpt>
      <trkpt lat="46.912" lon="8.62889">
        <ele>558</ele>
        <time>2021-08-07T13:09:17.144Z</time>
      </trkpt>
      <trkpt lat="46.912" lon="8.62887">
        <ele>557</ele>
        <time>2021-08-07T13:09:18.145Z</time>
      </trkpt>
      <trkpt lat="46.91201" lon="8.62885">
        <ele>557</ele>
        <time>2021-08-07T13:09:19.144Z</time>
      </trkpt>
      <trkpt lat="46.91201" lon="8.62883">
        <ele>557</ele>
        <time>2021-08-07T13:09:20.145Z</time>
      </trkpt>
      <trkpt lat="46.91201" lon="8.62881">
        <ele>557</ele>
        <time>2021-08-07T13:09:21.144Z</time>
      </trkpt>
      <trkpt lat="46.91201" lon="8.62878">
        <ele>557</ele>
        <time>2021-08-07T13:09:22.144Z</time>
      </trkpt>
      <trkpt lat="46.91201" lon="8.62876">
        <ele>556</ele>
        <time>2021-08-07T13:09:23.144Z</time>
      </trkpt>
      <trkpt lat="46.91201" lon="8.62874">
        <ele>556</ele>
        <time>2021-08-07T13:09:24.144Z</time>
      </trkpt>
      <trkpt lat="46.91201" lon="8.62871">
        <ele>555</ele>
        <time>2021-08-07T13:09:25.145Z</time>
      </trkpt>
      <trkpt lat="46.91201" lon="8.62869">
        <ele>555</ele>
        <time>2021-08-07T13:09:26.145Z</time>
      </trkpt>
      <trkpt lat="46.91202" lon="8.62866">
        <ele>555</ele>
        <time>2021-08-07T13:09:27.145Z</time>
      </trkpt>
      <trkpt lat="46.91202" lon="8.62864">
        <ele>555</ele>
        <time>2021-08-07T13:09:28.145Z</time>
      </trkpt>
      <trkpt lat="46.91202" lon="8.62863">
        <ele>555</ele>
        <time>2021-08-07T13:09:29.144Z</time>
      </trkpt>
      <trkpt lat="46.91201" lon="8.62861">
        <ele>555</ele>
        <time>2021-08-07T13:09:30.145Z</time>
      </trkpt>
      <trkpt lat="46.91201" lon="8.6286">
        <ele>555</ele>
        <time>2021-08-07T13:09:31.145Z</time>
      </trkpt>
      <trkpt lat="46.91201" lon="8.62858">
        <ele>554</ele>
        <time>2021-08-07T13:09:48.271Z</time>
      </trkpt>
      <trkpt lat="46.912" lon="8.62856">
        <ele>554</ele>
        <time>2021-08-07T13:09:49.270Z</time>
      </trkpt>
      <trkpt lat="46.912" lon="8.62855">
        <ele>554</ele>
        <time>2021-08-07T13:09:50.270Z</time>
      </trkpt>
      <trkpt lat="46.912" lon="8.62853">
        <ele>553</ele>
        <time>2021-08-07T13:09:51.271Z</time>
      </trkpt>
      <trkpt lat="46.91201" lon="8.62851">
        <ele>553</ele>
        <time>2021-08-07T13:09:52.271Z</time>
      </trkpt>
      <trkpt lat="46.912" lon="8.62848">
        <ele>553</ele>
        <time>2021-08-07T13:09:53.270Z</time>
      </trkpt>
      <trkpt lat="46.912" lon="8.62846">
        <ele>552</ele>
        <time>2021-08-07T13:09:54.271Z</time>
      </trkpt>
      <trkpt lat="46.91199" lon="8.62843">
        <ele>552</ele>
        <time>2021-08-07T13:09:55.271Z</time>
      </trkpt>
      <trkpt lat="46.91199" lon="8.62841">
        <ele>552</ele>
        <time>2021-08-07T13:09:56.271Z</time>
      </trkpt>
      <trkpt lat="46.91199" lon="8.62838">
        <ele>552</ele>
        <time>2021-08-07T13:09:57.271Z</time>
      </trkpt>
      <trkpt lat="46.91199" lon="8.62836">
        <ele>552</ele>
        <time>2021-08-07T13:09:58.271Z</time>
      </trkpt>
      <trkpt lat="46.912" lon="8.62834">
        <ele>552</ele>
        <time>2021-08-07T13:09:59.270Z</time>
      </trkpt>
      <trkpt lat="46.912" lon="8.62832">
        <ele>551</ele>
        <time>2021-08-07T13:10:00.271Z</time>
      </trkpt>
      <trkpt lat="46.91201" lon="8.6283">
        <ele>551</ele>
        <time>2021-08-07T13:10:01.270Z</time>
      </trkpt>
      <trkpt lat="46.91201" lon="8.62828">
        <ele>550</ele>
        <time>2021-08-07T13:10:02.271Z</time>
      </trkpt>
      <trkpt lat="46.91202" lon="8.62826">
        <ele>550</ele>
        <time>2021-08-07T13:10:03.271Z</time>
      </trkpt>
      <trkpt lat="46.91202" lon="8.62824">
        <ele>550</ele>
        <time>2021-08-07T13:10:04.270Z</time>
      </trkpt>
      <trkpt lat="46.91203" lon="8.62821">
        <ele>550</ele>
        <time>2021-08-07T13:10:05.271Z</time>
      </trkpt>
      <trkpt lat="46.91203" lon="8.62819">
        <ele>550</ele>
        <time>2021-08-07T13:10:06.271Z</time>
      </trkpt>
      <trkpt lat="46.91204" lon="8.62816">
        <ele>550</ele>
        <time>2021-08-07T13:10:07.270Z</time>
      </trkpt>
      <trkpt lat="46.91205" lon="8.62815">
        <ele>550</ele>
        <time>2021-08-07T13:10:08.271Z</time>
      </trkpt>
      <trkpt lat="46.91206" lon="8.62812">
        <ele>550</ele>
        <time>2021-08-07T13:10:09.271Z</time>
      </trkpt>
      <trkpt lat="46.91206" lon="8.6281">
        <ele>550</ele>
        <time>2021-08-07T13:10:10.270Z</time>
      </trkpt>
      <trkpt lat="46.91207" lon="8.62808">
        <ele>550</ele>
        <time>2021-08-07T13:10:11.271Z</time>
      </trkpt>
      <trkpt lat="46.91208" lon="8.62806">
        <ele>550</ele>
        <time>2021-08-07T13:10:12.271Z</time>
      </trkpt>
      <trkpt lat="46.9121" lon="8.62805">
        <ele>550</ele>
        <time>2021-08-07T13:10:13.271Z</time>
      </trkpt>
      <trkpt lat="46.9121" lon="8.62804">
        <ele>550</ele>
        <time>2021-08-07T13:10:14.271Z</time>
      </trkpt>
      <trkpt lat="46.91211" lon="8.62802">
        <ele>550</ele>
        <time>2021-08-07T13:10:15.271Z</time>
      </trkpt>
      <trkpt lat="46.91211" lon="8.628">
        <ele>550</ele>
        <time>2021-08-07T13:10:16.271Z</time>
      </trkpt>
      <trkpt lat="46.91212" lon="8.62798">
        <ele>550</ele>
        <time>2021-08-07T13:10:17.271Z</time>
      </trkpt>
      <trkpt lat="46.91212" lon="8.62796">
        <ele>550</ele>
        <time>2021-08-07T13:10:18.271Z</time>
      </trkpt>
      <trkpt lat="46.91213" lon="8.62794">
        <ele>550</ele>
        <time>2021-08-07T13:10:19.271Z</time>
      </trkpt>
      <trkpt lat="46.91214" lon="8.62793">
        <ele>550</ele>
        <time>2021-08-07T13:10:20.271Z</time>
      </trkpt>
      <trkpt lat="46.91215" lon="8.62791">
        <ele>550</ele>
        <time>2021-08-07T13:10:21.271Z</time>
      </trkpt>
      <trkpt lat="46.91216" lon="8.62789">
        <ele>550</ele>
        <time>2021-08-07T13:10:22.271Z</time>
      </trkpt>
      <trkpt lat="46.91216" lon="8.62786">
        <ele>550</ele>
        <time>2021-08-07T13:10:23.270Z</time>
      </trkpt>
      <trkpt lat="46.91217" lon="8.62784">
        <ele>549</ele>
        <time>2021-08-07T13:10:24.270Z</time>
      </trkpt>
      <trkpt lat="46.91218" lon="8.62783">
        <ele>549</ele>
        <time>2021-08-07T13:10:25.271Z</time>
      </trkpt>
      <trkpt lat="46.91219" lon="8.62781">
        <ele>549</ele>
        <time>2021-08-07T13:10:26.271Z</time>
      </trkpt>
      <trkpt lat="46.91219" lon="8.62779">
        <ele>548</ele>
        <time>2021-08-07T13:10:27.271Z</time>
      </trkpt>
      <trkpt lat="46.91218" lon="8.62777">
        <ele>548</ele>
        <time>2021-08-07T13:10:28.271Z</time>
      </trkpt>
      <trkpt lat="46.91218" lon="8.62776">
        <ele>547</ele>
        <time>2021-08-07T13:10:29.271Z</time>
      </trkpt>
      <trkpt lat="46.91219" lon="8.62774">
        <ele>547</ele>
        <time>2021-08-07T13:10:30.271Z</time>
      </trkpt>
      <trkpt lat="46.91218" lon="8.62772">
        <ele>546</ele>
        <time>2021-08-07T13:10:31.271Z</time>
      </trkpt>
      <trkpt lat="46.91219" lon="8.62771">
        <ele>545</ele>
        <time>2021-08-07T13:10:32.270Z</time>
      </trkpt>
      <trkpt lat="46.91219" lon="8.62771">
        <ele>545</ele>
        <time>2021-08-07T13:10:33.271Z</time>
      </trkpt>
      <trkpt lat="46.9122" lon="8.6277">
        <ele>544</ele>
        <time>2021-08-07T13:10:34.270Z</time>
      </trkpt>
      <trkpt lat="46.9122" lon="8.62769">
        <ele>543</ele>
        <time>2021-08-07T13:10:35.270Z</time>
      </trkpt>
      <trkpt lat="46.91221" lon="8.62769">
        <ele>543</ele>
        <time>2021-08-07T13:10:36.270Z</time>
      </trkpt>
      <trkpt lat="46.91221" lon="8.62767">
        <ele>542</ele>
        <time>2021-08-07T13:10:37.270Z</time>
      </trkpt>
      <trkpt lat="46.91221" lon="8.62768">
        <ele>541</ele>
        <time>2021-08-07T13:10:38.271Z</time>
      </trkpt>
      <trkpt lat="46.91222" lon="8.62768">
        <ele>541</ele>
        <time>2021-08-07T13:10:39.270Z</time>
      </trkpt>
      <trkpt lat="46.91221" lon="8.62768">
        <ele>540</ele>
        <time>2021-08-07T13:10:40.271Z</time>
      </trkpt>
      <trkpt lat="46.91221" lon="8.62768">
        <ele>540</ele>
        <time>2021-08-07T13:10:41.271Z</time>
      </trkpt>
      <trkpt lat="46.9122" lon="8.62767">
        <ele>540</ele>
        <time>2021-08-07T13:10:42.271Z</time>
      </trkpt>
      <trkpt lat="46.9122" lon="8.62767">
        <ele>539</ele>
        <time>2021-08-07T13:10:43.271Z</time>
      </trkpt>
      <trkpt lat="46.91219" lon="8.62766">
        <ele>539</ele>
        <time>2021-08-07T13:10:44.271Z</time>
      </trkpt>
      <trkpt lat="46.91219" lon="8.62766">
        <ele>539</ele>
        <time>2021-08-07T13:10:45.271Z</time>
      </trkpt>
      <trkpt lat="46.91219" lon="8.62766">
        <ele>539</ele>
        <time>2021-08-07T13:10:46.271Z</time>
      </trkpt>
      <trkpt lat="46.91218" lon="8.62767">
        <ele>539</ele>
        <time>2021-08-07T13:10:47.271Z</time>
      </trkpt>
      <trkpt lat="46.91219" lon="8.62767">
        <ele>538</ele>
        <time>2021-08-07T13:10:48.270Z</time>
      </trkpt>
      <trkpt lat="46.9122" lon="8.62767">
        <ele>536</ele>
        <time>2021-08-07T13:10:49.272Z</time>
      </trkpt>
      <trkpt lat="46.91219" lon="8.62767">
        <ele>535</ele>
        <time>2021-08-07T13:10:50.271Z</time>
      </trkpt>
      <trkpt lat="46.91219" lon="8.62767">
        <ele>535</ele>
        <time>2021-08-07T13:10:51.272Z</time>
      </trkpt>
      <trkpt lat="46.91219" lon="8.62766">
        <ele>534</ele>
        <time>2021-08-07T13:10:52.272Z</time>
      </trkpt>
      <trkpt lat="46.9122" lon="8.62766">
        <ele>533</ele>
        <time>2021-08-07T13:10:53.272Z</time>
      </trkpt>
      <trkpt lat="46.9122" lon="8.62765">
        <ele>533</ele>
        <time>2021-08-07T13:10:54.272Z</time>
      </trkpt>
      <trkpt lat="46.9122" lon="8.62765">
        <ele>532</ele>
        <time>2021-08-07T13:10:55.272Z</time>
      </trkpt>
      <trkpt lat="46.9122" lon="8.62763">
        <ele>532</ele>
        <time>2021-08-07T13:10:59.270Z</time>
      </trkpt>
      <trkpt lat="46.91221" lon="8.62762">
        <ele>532</ele>
        <time>2021-08-07T13:11:00.270Z</time>
      </trkpt>
      <trkpt lat="46.91222" lon="8.62761">
        <ele>532</ele>
        <time>2021-08-07T13:11:01.269Z</time>
      </trkpt>
      <trkpt lat="46.91223" lon="8.6276">
        <ele>532</ele>
        <time>2021-08-07T13:11:02.270Z</time>
      </trkpt>
      <trkpt lat="46.91225" lon="8.6276">
        <ele>532</ele>
        <time>2021-08-07T13:11:24.413Z</time>
      </trkpt>
      <trkpt lat="46.91226" lon="8.6276">
        <ele>532</ele>
        <time>2021-08-07T13:11:25.413Z</time>
      </trkpt>
      <trkpt lat="46.91228" lon="8.62759">
        <ele>532</ele>
        <time>2021-08-07T13:11:26.414Z</time>
      </trkpt>
      <trkpt lat="46.91229" lon="8.62757">
        <ele>532</ele>
        <time>2021-08-07T13:11:27.414Z</time>
      </trkpt>
      <trkpt lat="46.9123" lon="8.62755">
        <ele>532</ele>
        <time>2021-08-07T13:11:28.414Z</time>
      </trkpt>
      <trkpt lat="46.91231" lon="8.62753">
        <ele>532</ele>
        <time>2021-08-07T13:11:29.413Z</time>
      </trkpt>
      <trkpt lat="46.91232" lon="8.62751">
        <ele>531</ele>
        <time>2021-08-07T13:11:30.414Z</time>
      </trkpt>
      <trkpt lat="46.91232" lon="8.62748">
        <ele>531</ele>
        <time>2021-08-07T13:11:31.414Z</time>
      </trkpt>
      <trkpt lat="46.91232" lon="8.62745">
        <ele>531</ele>
        <time>2021-08-07T13:11:32.413Z</time>
      </trkpt>
      <trkpt lat="46.91233" lon="8.62742">
        <ele>531</ele>
        <time>2021-08-07T13:11:33.414Z</time>
      </trkpt>
      <trkpt lat="46.91234" lon="8.6274">
        <ele>531</ele>
        <time>2021-08-07T13:11:34.414Z</time>
      </trkpt>
      <trkpt lat="46.91235" lon="8.62738">
        <ele>531</ele>
        <time>2021-08-07T13:11:35.414Z</time>
      </trkpt>
      <trkpt lat="46.91237" lon="8.62736">
        <ele>531</ele>
        <time>2021-08-07T13:11:36.413Z</time>
      </trkpt>
      <trkpt lat="46.91238" lon="8.62734">
        <ele>531</ele>
        <time>2021-08-07T13:11:37.413Z</time>
      </trkpt>
      <trkpt lat="46.91239" lon="8.62732">
        <ele>531</ele>
        <time>2021-08-07T13:11:38.414Z</time>
      </trkpt>
      <trkpt lat="46.9124" lon="8.6273">
        <ele>531</ele>
        <time>2021-08-07T13:11:39.413Z</time>
      </trkpt>
      <trkpt lat="46.91242" lon="8.62729">
        <ele>531</ele>
        <time>2021-08-07T13:11:40.414Z</time>
      </trkpt>
      <trkpt lat="46.91243" lon="8.62726">
        <ele>531</ele>
        <time>2021-08-07T13:11:41.414Z</time>
      </trkpt>
      <trkpt lat="46.91244" lon="8.62725">
        <ele>531</ele>
        <time>2021-08-07T13:11:42.413Z</time>
      </trkpt>
      <trkpt lat="46.91245" lon="8.62723">
        <ele>531</ele>
        <time>2021-08-07T13:11:43.413Z</time>
      </trkpt>
      <trkpt lat="46.91246" lon="8.62722">
        <ele>531</ele>
        <time>2021-08-07T13:11:44.414Z</time>
      </trkpt>
      <trkpt lat="46.91246" lon="8.62721">
        <ele>531</ele>
        <time>2021-08-07T13:11:45.414Z</time>
      </trkpt>
      <trkpt lat="46.91248" lon="8.62719">
        <ele>531</ele>
        <time>2021-08-07T13:11:46.414Z</time>
      </trkpt>
      <trkpt lat="46.91249" lon="8.62719">
        <ele>530</ele>
        <time>2021-08-07T13:11:47.414Z</time>
      </trkpt>
      <trkpt lat="46.91251" lon="8.62717">
        <ele>530</ele>
        <time>2021-08-07T13:11:48.413Z</time>
      </trkpt>
      <trkpt lat="46.91252" lon="8.62715">
        <ele>530</ele>
        <time>2021-08-07T13:11:49.413Z</time>
      </trkpt>
      <trkpt lat="46.91252" lon="8.62714">
        <ele>529</ele>
        <time>2021-08-07T13:11:50.414Z</time>
      </trkpt>
      <trkpt lat="46.91253" lon="8.62711">
        <ele>529</ele>
        <time>2021-08-07T13:11:51.414Z</time>
      </trkpt>
      <trkpt lat="46.91253" lon="8.62709">
        <ele>528</ele>
        <time>2021-08-07T13:12:03.531Z</time>
      </trkpt>
      <trkpt lat="46.91254" lon="8.62708">
        <ele>528</ele>
        <time>2021-08-07T13:12:04.532Z</time>
      </trkpt>
      <trkpt lat="46.91256" lon="8.62707">
        <ele>528</ele>
        <time>2021-08-07T13:12:05.532Z</time>
      </trkpt>
      <trkpt lat="46.91257" lon="8.62705">
        <ele>528</ele>
        <time>2021-08-07T13:12:06.532Z</time>
      </trkpt>
      <trkpt lat="46.91258" lon="8.62704">
        <ele>527</ele>
        <time>2021-08-07T13:12:07.532Z</time>
      </trkpt>
      <trkpt lat="46.91259" lon="8.62702">
        <ele>527</ele>
        <time>2021-08-07T13:12:08.532Z</time>
      </trkpt>
      <trkpt lat="46.91259" lon="8.627">
        <ele>527</ele>
        <time>2021-08-07T13:12:09.532Z</time>
      </trkpt>
      <trkpt lat="46.91259" lon="8.62698">
        <ele>526</ele>
        <time>2021-08-07T13:12:10.531Z</time>
      </trkpt>
      <trkpt lat="46.9126" lon="8.62696">
        <ele>526</ele>
        <time>2021-08-07T13:12:11.531Z</time>
      </trkpt>
      <trkpt lat="46.91261" lon="8.62694">
        <ele>526</ele>
        <time>2021-08-07T13:12:12.532Z</time>
      </trkpt>
      <trkpt lat="46.91261" lon="8.62693">
        <ele>526</ele>
        <time>2021-08-07T13:12:13.532Z</time>
      </trkpt>
      <trkpt lat="46.91262" lon="8.62692">
        <ele>526</ele>
        <time>2021-08-07T13:12:14.532Z</time>
      </trkpt>
      <trkpt lat="46.91263" lon="8.62691">
        <ele>526</ele>
        <time>2021-08-07T13:12:15.532Z</time>
      </trkpt>
      <trkpt lat="46.91264" lon="8.62689">
        <ele>525</ele>
        <time>2021-08-07T13:12:16.532Z</time>
      </trkpt>
      <trkpt lat="46.91266" lon="8.62689">
        <ele>525</ele>
        <time>2021-08-07T13:12:17.531Z</time>
      </trkpt>
      <trkpt lat="46.91267" lon="8.62686">
        <ele>524</ele>
        <time>2021-08-07T13:12:18.532Z</time>
      </trkpt>
      <trkpt lat="46.91268" lon="8.62683">
        <ele>524</ele>
        <time>2021-08-07T13:12:19.531Z</time>
      </trkpt>
      <trkpt lat="46.91268" lon="8.62681">
        <ele>524</ele>
        <time>2021-08-07T13:12:20.531Z</time>
      </trkpt>
      <trkpt lat="46.9127" lon="8.62679">
        <ele>524</ele>
        <time>2021-08-07T13:12:21.532Z</time>
      </trkpt>
      <trkpt lat="46.91271" lon="8.62677">
        <ele>524</ele>
        <time>2021-08-07T13:12:22.532Z</time>
      </trkpt>
      <trkpt lat="46.91271" lon="8.62675">
        <ele>523</ele>
        <time>2021-08-07T13:12:23.532Z</time>
      </trkpt>
      <trkpt lat="46.91271" lon="8.62673">
        <ele>523</ele>
        <time>2021-08-07T13:12:24.532Z</time>
      </trkpt>
      <trkpt lat="46.91271" lon="8.62673">
        <ele>523</ele>
        <time>2021-08-07T13:12:25.531Z</time>
      </trkpt>
      <trkpt lat="46.91272" lon="8.62672">
        <ele>522</ele>
        <time>2021-08-07T13:12:26.532Z</time>
      </trkpt>
      <trkpt lat="46.91272" lon="8.62671">
        <ele>522</ele>
        <time>2021-08-07T13:12:27.532Z</time>
      </trkpt>
      <trkpt lat="46.91273" lon="8.62669">
        <ele>522</ele>
        <time>2021-08-07T13:12:28.532Z</time>
      </trkpt>
      <trkpt lat="46.91274" lon="8.62667">
        <ele>521</ele>
        <time>2021-08-07T13:12:29.531Z</time>
      </trkpt>
      <trkpt lat="46.91276" lon="8.62666">
        <ele>521</ele>
        <time>2021-08-07T13:12:30.532Z</time>
      </trkpt>
      <trkpt lat="46.91277" lon="8.62665">
        <ele>521</ele>
        <time>2021-08-07T13:12:31.531Z</time>
      </trkpt>
      <trkpt lat="46.91278" lon="8.62663">
        <ele>520</ele>
        <time>2021-08-07T13:12:32.531Z</time>
      </trkpt>
      <trkpt lat="46.91279" lon="8.62662">
        <ele>520</ele>
        <time>2021-08-07T13:12:33.532Z</time>
      </trkpt>
      <trkpt lat="46.91279" lon="8.62661">
        <ele>520</ele>
        <time>2021-08-07T13:12:34.532Z</time>
      </trkpt>
      <trkpt lat="46.9128" lon="8.62659">
        <ele>519</ele>
        <time>2021-08-07T13:12:35.532Z</time>
      </trkpt>
      <trkpt lat="46.91281" lon="8.62658">
        <ele>518</ele>
        <time>2021-08-07T13:12:36.532Z</time>
      </trkpt>
      <trkpt lat="46.91283" lon="8.62656">
        <ele>518</ele>
        <time>2021-08-07T13:12:37.531Z</time>
      </trkpt>
      <trkpt lat="46.91285" lon="8.62654">
        <ele>517</ele>
        <time>2021-08-07T13:12:38.532Z</time>
      </trkpt>
      <trkpt lat="46.91286" lon="8.62652">
        <ele>517</ele>
        <time>2021-08-07T13:12:39.531Z</time>
      </trkpt>
      <trkpt lat="46.91287" lon="8.6265">
        <ele>516</ele>
        <time>2021-08-07T13:12:40.532Z</time>
      </trkpt>
      <trkpt lat="46.91288" lon="8.62648">
        <ele>516</ele>
        <time>2021-08-07T13:12:41.532Z</time>
      </trkpt>
      <trkpt lat="46.91289" lon="8.62647">
        <ele>516</ele>
        <time>2021-08-07T13:12:42.531Z</time>
      </trkpt>
      <trkpt lat="46.91289" lon="8.62646">
        <ele>515</ele>
        <time>2021-08-07T13:12:43.531Z</time>
      </trkpt>
      <trkpt lat="46.91291" lon="8.62645">
        <ele>515</ele>
        <time>2021-08-07T13:12:44.532Z</time>
      </trkpt>
      <trkpt lat="46.91292" lon="8.62644">
        <ele>514</ele>
        <time>2021-08-07T13:12:45.532Z</time>
      </trkpt>
      <trkpt lat="46.91293" lon="8.62643">
        <ele>514</ele>
        <time>2021-08-07T13:12:46.532Z</time>
      </trkpt>
      <trkpt lat="46.91295" lon="8.62643">
        <ele>513</ele>
        <time>2021-08-07T13:12:47.532Z</time>
      </trkpt>
      <trkpt lat="46.91296" lon="8.62641">
        <ele>513</ele>
        <time>2021-08-07T13:12:48.532Z</time>
      </trkpt>
      <trkpt lat="46.91298" lon="8.6264">
        <ele>512</ele>
        <time>2021-08-07T13:12:49.531Z</time>
      </trkpt>
      <trkpt lat="46.91299" lon="8.6264">
        <ele>512</ele>
        <time>2021-08-07T13:12:50.531Z</time>
      </trkpt>
      <trkpt lat="46.91299" lon="8.62639">
        <ele>512</ele>
        <time>2021-08-07T13:12:51.532Z</time>
      </trkpt>
      <trkpt lat="46.91299" lon="8.62637">
        <ele>511</ele>
        <time>2021-08-07T13:12:52.532Z</time>
      </trkpt>
      <trkpt lat="46.913" lon="8.62636">
        <ele>511</ele>
        <time>2021-08-07T13:12:53.531Z</time>
      </trkpt>
      <trkpt lat="46.91301" lon="8.62634">
        <ele>511</ele>
        <time>2021-08-07T13:12:54.532Z</time>
      </trkpt>
      <trkpt lat="46.91302" lon="8.62632">
        <ele>510</ele>
        <time>2021-08-07T13:12:55.532Z</time>
      </trkpt>
      <trkpt lat="46.91303" lon="8.6263">
        <ele>510</ele>
        <time>2021-08-07T13:12:56.532Z</time>
      </trkpt>
      <trkpt lat="46.91304" lon="8.62628">
        <ele>509</ele>
        <time>2021-08-07T13:12:57.531Z</time>
      </trkpt>
      <trkpt lat="46.91305" lon="8.62625">
        <ele>509</ele>
        <time>2021-08-07T13:12:58.532Z</time>
      </trkpt>
      <trkpt lat="46.91306" lon="8.62623">
        <ele>508</ele>
        <time>2021-08-07T13:12:59.532Z</time>
      </trkpt>
      <trkpt lat="46.91307" lon="8.62621">
        <ele>508</ele>
        <time>2021-08-07T13:13:00.532Z</time>
      </trkpt>
      <trkpt lat="46.91309" lon="8.62619">
        <ele>508</ele>
        <time>2021-08-07T13:13:01.532Z</time>
      </trkpt>
      <trkpt lat="46.9131" lon="8.62617">
        <ele>507</ele>
        <time>2021-08-07T13:13:02.532Z</time>
      </trkpt>
      <trkpt lat="46.9131" lon="8.62614">
        <ele>507</ele>
        <time>2021-08-07T13:13:03.532Z</time>
      </trkpt>
      <trkpt lat="46.91311" lon="8.62612">
        <ele>506</ele>
        <time>2021-08-07T13:13:04.531Z</time>
      </trkpt>
      <trkpt lat="46.91313" lon="8.62611">
        <ele>506</ele>
        <time>2021-08-07T13:13:05.531Z</time>
      </trkpt>
      <trkpt lat="46.91314" lon="8.62609">
        <ele>506</ele>
        <time>2021-08-07T13:13:06.532Z</time>
      </trkpt>
      <trkpt lat="46.91315" lon="8.62608">
        <ele>506</ele>
        <time>2021-08-07T13:13:07.531Z</time>
      </trkpt>
      <trkpt lat="46.91317" lon="8.62606">
        <ele>506</ele>
        <time>2021-08-07T13:13:08.531Z</time>
      </trkpt>
      <trkpt lat="46.91318" lon="8.62604">
        <ele>507</ele>
        <time>2021-08-07T13:13:09.532Z</time>
      </trkpt>
      <trkpt lat="46.9132" lon="8.62603">
        <ele>507</ele>
        <time>2021-08-07T13:13:10.532Z</time>
      </trkpt>
      <trkpt lat="46.9132" lon="8.62601">
        <ele>507</ele>
        <time>2021-08-07T13:13:11.532Z</time>
      </trkpt>
      <trkpt lat="46.91322" lon="8.626">
        <ele>507</ele>
        <time>2021-08-07T13:13:12.531Z</time>
      </trkpt>
      <trkpt lat="46.91324" lon="8.62599">
        <ele>507</ele>
        <time>2021-08-07T13:13:13.531Z</time>
      </trkpt>
      <trkpt lat="46.91326" lon="8.62597">
        <ele>507</ele>
        <time>2021-08-07T13:13:14.531Z</time>
      </trkpt>
      <trkpt lat="46.91327" lon="8.62595">
        <ele>507</ele>
        <time>2021-08-07T13:13:15.531Z</time>
      </trkpt>
      <trkpt lat="46.91329" lon="8.62594">
        <ele>507</ele>
        <time>2021-08-07T13:13:16.531Z</time>
      </trkpt>
      <trkpt lat="46.9133" lon="8.62592">
        <ele>507</ele>
        <time>2021-08-07T13:13:17.531Z</time>
      </trkpt>
      <trkpt lat="46.91331" lon="8.6259">
        <ele>506</ele>
        <time>2021-08-07T13:13:18.531Z</time>
      </trkpt>
      <trkpt lat="46.91332" lon="8.62588">
        <ele>506</ele>
        <time>2021-08-07T13:13:19.531Z</time>
      </trkpt>
      <trkpt lat="46.91333" lon="8.62587">
        <ele>506</ele>
        <time>2021-08-07T13:13:20.531Z</time>
      </trkpt>
      <trkpt lat="46.91335" lon="8.62585">
        <ele>506</ele>
        <time>2021-08-07T13:13:21.531Z</time>
      </trkpt>
      <trkpt lat="46.91335" lon="8.62584">
        <ele>505</ele>
        <time>2021-08-07T13:13:22.531Z</time>
      </trkpt>
      <trkpt lat="46.91336" lon="8.62583">
        <ele>505</ele>
        <time>2021-08-07T13:13:23.532Z</time>
      </trkpt>
      <trkpt lat="46.91337" lon="8.62582">
        <ele>505</ele>
        <time>2021-08-07T13:13:30.614Z</time>
      </trkpt>
      <trkpt lat="46.91338" lon="8.6258">
        <ele>504</ele>
        <time>2021-08-07T13:13:42.505Z</time>
      </trkpt>
      <trkpt lat="46.91338" lon="8.62579">
        <ele>504</ele>
        <time>2021-08-07T13:13:43.505Z</time>
      </trkpt>
      <trkpt lat="46.91339" lon="8.62578">
        <ele>503</ele>
        <time>2021-08-07T13:13:44.504Z</time>
      </trkpt>
      <trkpt lat="46.9134" lon="8.62577">
        <ele>503</ele>
        <time>2021-08-07T13:13:45.504Z</time>
      </trkpt>
      <trkpt lat="46.91341" lon="8.62576">
        <ele>502</ele>
        <time>2021-08-07T13:13:46.505Z</time>
      </trkpt>
      <trkpt lat="46.91342" lon="8.62574">
        <ele>501</ele>
        <time>2021-08-07T13:13:47.504Z</time>
      </trkpt>
      <trkpt lat="46.91343" lon="8.62571">
        <ele>501</ele>
        <time>2021-08-07T13:14:39.637Z</time>
      </trkpt>
      <trkpt lat="46.91344" lon="8.62569">
        <ele>501</ele>
        <time>2021-08-07T13:14:40.637Z</time>
      </trkpt>
      <trkpt lat="46.91345" lon="8.62567">
        <ele>500</ele>
        <time>2021-08-07T13:14:50.739Z</time>
      </trkpt>
      <trkpt lat="46.91346" lon="8.62565">
        <ele>500</ele>
        <time>2021-08-07T13:14:51.739Z</time>
      </trkpt>
      <trkpt lat="46.91347" lon="8.62564">
        <ele>500</ele>
        <time>2021-08-07T13:14:52.739Z</time>
      </trkpt>
      <trkpt lat="46.91348" lon="8.62563">
        <ele>499</ele>
        <time>2021-08-07T13:15:00.861Z</time>
      </trkpt>
      <trkpt lat="46.91347" lon="8.6256">
        <ele>498</ele>
        <time>2021-08-07T13:15:01.861Z</time>
      </trkpt>
      <trkpt lat="46.91347" lon="8.62557">
        <ele>498</ele>
        <time>2021-08-07T13:15:02.861Z</time>
      </trkpt>
      <trkpt lat="46.91347" lon="8.62555">
        <ele>498</ele>
        <time>2021-08-07T13:15:05.617Z</time>
      </trkpt>
      <trkpt lat="46.91348" lon="8.62553">
        <ele>497</ele>
        <time>2021-08-07T13:15:12.497Z</time>
      </trkpt>
      <trkpt lat="46.91348" lon="8.62551">
        <ele>497</ele>
        <time>2021-08-07T13:15:13.497Z</time>
      </trkpt>
      <trkpt lat="46.91349" lon="8.6255">
        <ele>497</ele>
        <time>2021-08-07T13:15:14.497Z</time>
      </trkpt>
      <trkpt lat="46.9135" lon="8.6255">
        <ele>497</ele>
        <time>2021-08-07T13:15:15.497Z</time>
      </trkpt>
      <trkpt lat="46.91351" lon="8.62549">
        <ele>497</ele>
        <time>2021-08-07T13:15:16.497Z</time>
      </trkpt>
      <trkpt lat="46.91352" lon="8.62549">
        <ele>498</ele>
        <time>2021-08-07T13:15:17.497Z</time>
      </trkpt>
      <trkpt lat="46.91353" lon="8.62548">
        <ele>497</ele>
        <time>2021-08-07T13:15:18.497Z</time>
      </trkpt>
      <trkpt lat="46.91355" lon="8.62548">
        <ele>497</ele>
        <time>2021-08-07T13:15:19.497Z</time>
      </trkpt>
      <trkpt lat="46.91356" lon="8.62546">
        <ele>497</ele>
        <time>2021-08-07T13:15:20.498Z</time>
      </trkpt>
      <trkpt lat="46.91357" lon="8.62546">
        <ele>496</ele>
        <time>2021-08-07T13:15:21.498Z</time>
      </trkpt>
      <trkpt lat="46.91358" lon="8.62545">
        <ele>496</ele>
        <time>2021-08-07T13:15:31.645Z</time>
      </trkpt>
      <trkpt lat="46.91359" lon="8.62542">
        <ele>496</ele>
        <time>2021-08-07T13:15:32.646Z</time>
      </trkpt>
      <trkpt lat="46.9136" lon="8.6254">
        <ele>496</ele>
        <time>2021-08-07T13:15:33.646Z</time>
      </trkpt>
      <trkpt lat="46.9136" lon="8.62538">
        <ele>495</ele>
        <time>2021-08-07T13:15:34.645Z</time>
      </trkpt>
      <trkpt lat="46.91361" lon="8.62536">
        <ele>495</ele>
        <time>2021-08-07T13:15:35.646Z</time>
      </trkpt>
      <trkpt lat="46.91362" lon="8.62535">
        <ele>495</ele>
        <time>2021-08-07T13:15:36.646Z</time>
      </trkpt>
      <trkpt lat="46.91363" lon="8.62534">
        <ele>495</ele>
        <time>2021-08-07T13:15:37.646Z</time>
      </trkpt>
      <trkpt lat="46.91365" lon="8.62534">
        <ele>495</ele>
        <time>2021-08-07T13:15:38.645Z</time>
      </trkpt>
      <trkpt lat="46.91366" lon="8.62532">
        <ele>495</ele>
        <time>2021-08-07T13:15:39.645Z</time>
      </trkpt>
      <trkpt lat="46.91367" lon="8.6253">
        <ele>495</ele>
        <time>2021-08-07T13:15:40.646Z</time>
      </trkpt>
      <trkpt lat="46.91368" lon="8.62528">
        <ele>496</ele>
        <time>2021-08-07T13:15:46.797Z</time>
      </trkpt>
      <trkpt lat="46.91369" lon="8.62527">
        <ele>496</ele>
        <time>2021-08-07T13:15:47.797Z</time>
      </trkpt>
      <trkpt lat="46.9137" lon="8.62525">
        <ele>496</ele>
        <time>2021-08-07T13:15:48.796Z</time>
      </trkpt>
      <trkpt lat="46.91372" lon="8.62523">
        <ele>496</ele>
        <time>2021-08-07T13:15:49.797Z</time>
      </trkpt>
      <trkpt lat="46.91373" lon="8.62522">
        <ele>496</ele>
        <time>2021-08-07T13:15:50.797Z</time>
      </trkpt>
      <trkpt lat="46.91374" lon="8.62521">
        <ele>496</ele>
        <time>2021-08-07T13:15:51.797Z</time>
      </trkpt>
      <trkpt lat="46.91377" lon="8.6252">
        <ele>496</ele>
        <time>2021-08-07T13:15:52.796Z</time>
      </trkpt>
      <trkpt lat="46.91378" lon="8.6252">
        <ele>497</ele>
        <time>2021-08-07T13:15:53.797Z</time>
      </trkpt>
      <trkpt lat="46.91379" lon="8.62519">
        <ele>497</ele>
        <time>2021-08-07T13:15:54.797Z</time>
      </trkpt>
      <trkpt lat="46.91381" lon="8.62518">
        <ele>497</ele>
        <time>2021-08-07T13:15:55.797Z</time>
      </trkpt>
      <trkpt lat="46.91383" lon="8.62518">
        <ele>498</ele>
        <time>2021-08-07T13:15:56.797Z</time>
      </trkpt>
      <trkpt lat="46.91384" lon="8.62517">
        <ele>498</ele>
        <time>2021-08-07T13:15:57.796Z</time>
      </trkpt>
      <trkpt lat="46.91384" lon="8.62516">
        <ele>498</ele>
        <time>2021-08-07T13:15:58.796Z</time>
      </trkpt>
      <trkpt lat="46.91385" lon="8.62515">
        <ele>499</ele>
        <time>2021-08-07T13:15:59.796Z</time>
      </trkpt>
      <trkpt lat="46.91386" lon="8.62512">
        <ele>500</ele>
        <time>2021-08-07T13:16:00.796Z</time>
      </trkpt>
      <trkpt lat="46.91387" lon="8.62511">
        <ele>500</ele>
        <time>2021-08-07T13:16:01.796Z</time>
      </trkpt>
      <trkpt lat="46.91388" lon="8.6251">
        <ele>501</ele>
        <time>2021-08-07T13:16:02.797Z</time>
      </trkpt>
      <trkpt lat="46.9139" lon="8.62508">
        <ele>502</ele>
        <time>2021-08-07T13:16:03.796Z</time>
      </trkpt>
      <trkpt lat="46.91391" lon="8.62506">
        <ele>502</ele>
        <time>2021-08-07T13:16:04.796Z</time>
      </trkpt>
      <trkpt lat="46.91393" lon="8.62506">
        <ele>502</ele>
        <time>2021-08-07T13:16:05.797Z</time>
      </trkpt>
      <trkpt lat="46.91395" lon="8.62506">
        <ele>502</ele>
        <time>2021-08-07T13:16:06.796Z</time>
      </trkpt>
      <trkpt lat="46.91397" lon="8.62505">
        <ele>502</ele>
        <time>2021-08-07T13:16:07.796Z</time>
      </trkpt>
      <trkpt lat="46.91398" lon="8.62503">
        <ele>502</ele>
        <time>2021-08-07T13:16:08.797Z</time>
      </trkpt>
      <trkpt lat="46.91399" lon="8.62501">
        <ele>501</ele>
        <time>2021-08-07T13:16:09.797Z</time>
      </trkpt>
      <trkpt lat="46.914" lon="8.625">
        <ele>501</ele>
        <time>2021-08-07T13:16:10.797Z</time>
      </trkpt>
      <trkpt lat="46.91402" lon="8.625">
        <ele>501</ele>
        <time>2021-08-07T13:16:11.797Z</time>
      </trkpt>
      <trkpt lat="46.91403" lon="8.625">
        <ele>500</ele>
        <time>2021-08-07T13:16:12.796Z</time>
      </trkpt>
      <trkpt lat="46.91405" lon="8.62499">
        <ele>500</ele>
        <time>2021-08-07T13:16:13.797Z</time>
      </trkpt>
      <trkpt lat="46.91405" lon="8.62498">
        <ele>499</ele>
        <time>2021-08-07T13:16:14.797Z</time>
      </trkpt>
      <trkpt lat="46.91406" lon="8.62497">
        <ele>499</ele>
        <time>2021-08-07T13:16:15.797Z</time>
      </trkpt>
      <trkpt lat="46.91407" lon="8.62496">
        <ele>498</ele>
        <time>2021-08-07T13:16:16.797Z</time>
      </trkpt>
      <trkpt lat="46.91409" lon="8.62495">
        <ele>498</ele>
        <time>2021-08-07T13:16:17.796Z</time>
      </trkpt>
      <trkpt lat="46.9141" lon="8.62494">
        <ele>498</ele>
        <time>2021-08-07T13:16:18.797Z</time>
      </trkpt>
      <trkpt lat="46.91412" lon="8.62493">
        <ele>497</ele>
        <time>2021-08-07T13:16:19.797Z</time>
      </trkpt>
      <trkpt lat="46.91414" lon="8.62492">
        <ele>497</ele>
        <time>2021-08-07T13:16:20.797Z</time>
      </trkpt>
      <trkpt lat="46.91416" lon="8.62491">
        <ele>496</ele>
        <time>2021-08-07T13:16:21.796Z</time>
      </trkpt>
      <trkpt lat="46.91418" lon="8.62492">
        <ele>495</ele>
        <time>2021-08-07T13:16:22.796Z</time>
      </trkpt>
      <trkpt lat="46.91421" lon="8.62492">
        <ele>494</ele>
        <time>2021-08-07T13:16:23.797Z</time>
      </trkpt>
      <trkpt lat="46.91423" lon="8.62491">
        <ele>493</ele>
        <time>2021-08-07T13:16:24.797Z</time>
      </trkpt>
      <trkpt lat="46.91424" lon="8.6249">
        <ele>493</ele>
        <time>2021-08-07T13:16:25.796Z</time>
      </trkpt>
      <trkpt lat="46.91425" lon="8.6249">
        <ele>492</ele>
        <time>2021-08-07T13:16:26.797Z</time>
      </trkpt>
      <trkpt lat="46.91425" lon="8.62489">
        <ele>491</ele>
        <time>2021-08-07T13:16:27.797Z</time>
      </trkpt>
      <trkpt lat="46.91425" lon="8.62488">
        <ele>491</ele>
        <time>2021-08-07T13:16:28.797Z</time>
      </trkpt>
      <trkpt lat="46.91427" lon="8.62488">
        <ele>490</ele>
        <time>2021-08-07T13:16:29.797Z</time>
      </trkpt>
      <trkpt lat="46.91429" lon="8.62488">
        <ele>489</ele>
        <time>2021-08-07T13:16:30.797Z</time>
      </trkpt>
      <trkpt lat="46.9143" lon="8.62487">
        <ele>488</ele>
        <time>2021-08-07T13:16:31.797Z</time>
      </trkpt>
      <trkpt lat="46.91432" lon="8.62487">
        <ele>487</ele>
        <time>2021-08-07T13:16:32.797Z</time>
      </trkpt>
      <trkpt lat="46.91433" lon="8.62487">
        <ele>486</ele>
        <time>2021-08-07T13:16:33.797Z</time>
      </trkpt>
      <trkpt lat="46.91434" lon="8.62485">
        <ele>485</ele>
        <time>2021-08-07T13:16:34.796Z</time>
      </trkpt>
      <trkpt lat="46.91435" lon="8.62483">
        <ele>484</ele>
        <time>2021-08-07T13:16:35.797Z</time>
      </trkpt>
      <trkpt lat="46.91436" lon="8.62482">
        <ele>484</ele>
        <time>2021-08-07T13:16:36.797Z</time>
      </trkpt>
      <trkpt lat="46.91437" lon="8.62482">
        <ele>483</ele>
        <time>2021-08-07T13:16:37.797Z</time>
      </trkpt>
      <trkpt lat="46.91438" lon="8.6248">
        <ele>483</ele>
        <time>2021-08-07T13:16:38.797Z</time>
      </trkpt>
      <trkpt lat="46.91439" lon="8.62479">
        <ele>482</ele>
        <time>2021-08-07T13:16:39.796Z</time>
      </trkpt>
      <trkpt lat="46.9144" lon="8.62477">
        <ele>482</ele>
        <time>2021-08-07T13:16:40.796Z</time>
      </trkpt>
      <trkpt lat="46.91441" lon="8.62476">
        <ele>482</ele>
        <time>2021-08-07T13:16:41.797Z</time>
      </trkpt>
      <trkpt lat="46.91442" lon="8.62475">
        <ele>481</ele>
        <time>2021-08-07T13:16:42.797Z</time>
      </trkpt>
      <trkpt lat="46.91443" lon="8.62473">
        <ele>481</ele>
        <time>2021-08-07T13:16:43.797Z</time>
      </trkpt>
      <trkpt lat="46.91444" lon="8.62471">
        <ele>481</ele>
        <time>2021-08-07T13:16:56.874Z</time>
      </trkpt>
      <trkpt lat="46.91445" lon="8.6247">
        <ele>480</ele>
        <time>2021-08-07T13:16:57.875Z</time>
      </trkpt>
      <trkpt lat="46.91446" lon="8.62468">
        <ele>480</ele>
        <time>2021-08-07T13:16:58.875Z</time>
      </trkpt>
      <trkpt lat="46.91447" lon="8.62467">
        <ele>479</ele>
        <time>2021-08-07T13:16:59.875Z</time>
      </trkpt>
      <trkpt lat="46.91448" lon="8.62466">
        <ele>479</ele>
        <time>2021-08-07T13:17:00.875Z</time>
      </trkpt>
      <trkpt lat="46.91449" lon="8.62465">
        <ele>479</ele>
        <time>2021-08-07T13:17:01.875Z</time>
      </trkpt>
      <trkpt lat="46.91451" lon="8.62464">
        <ele>478</ele>
        <time>2021-08-07T13:17:02.875Z</time>
      </trkpt>
      <trkpt lat="46.91453" lon="8.62463">
        <ele>478</ele>
        <time>2021-08-07T13:17:03.874Z</time>
      </trkpt>
      <trkpt lat="46.91455" lon="8.62462">
        <ele>478</ele>
        <time>2021-08-07T13:17:04.874Z</time>
      </trkpt>
      <trkpt lat="46.91456" lon="8.62461">
        <ele>478</ele>
        <time>2021-08-07T13:17:09.001Z</time>
      </trkpt>
      <trkpt lat="46.91457" lon="8.6246">
        <ele>478</ele>
        <time>2021-08-07T13:17:10.002Z</time>
      </trkpt>
      <trkpt lat="46.91458" lon="8.62459">
        <ele>477</ele>
        <time>2021-08-07T13:17:11.002Z</time>
      </trkpt>
      <trkpt lat="46.91459" lon="8.62458">
        <ele>477</ele>
        <time>2021-08-07T13:17:12.002Z</time>
      </trkpt>
      <trkpt lat="46.9146" lon="8.62457">
        <ele>477</ele>
        <time>2021-08-07T13:17:13.002Z</time>
      </trkpt>
      <trkpt lat="46.91462" lon="8.62455">
        <ele>477</ele>
        <time>2021-08-07T13:17:14.002Z</time>
      </trkpt>
      <trkpt lat="46.91463" lon="8.62453">
        <ele>477</ele>
        <time>2021-08-07T13:17:15.002Z</time>
      </trkpt>
      <trkpt lat="46.91464" lon="8.62452">
        <ele>476</ele>
        <time>2021-08-07T13:17:16.001Z</time>
      </trkpt>
      <trkpt lat="46.91465" lon="8.62451">
        <ele>476</ele>
        <time>2021-08-07T13:17:17.001Z</time>
      </trkpt>
      <trkpt lat="46.91466" lon="8.62449">
        <ele>475</ele>
        <time>2021-08-07T13:17:18.002Z</time>
      </trkpt>
      <trkpt lat="46.91466" lon="8.62446">
        <ele>475</ele>
        <time>2021-08-07T13:17:19.001Z</time>
      </trkpt>
      <trkpt lat="46.91467" lon="8.62444">
        <ele>475</ele>
        <time>2021-08-07T13:17:20.001Z</time>
      </trkpt>
      <trkpt lat="46.91468" lon="8.62443">
        <ele>474</ele>
        <time>2021-08-07T13:17:21.002Z</time>
      </trkpt>
      <trkpt lat="46.9147" lon="8.62442">
        <ele>474</ele>
        <time>2021-08-07T13:17:22.001Z</time>
      </trkpt>
      <trkpt lat="46.91471" lon="8.62441">
        <ele>473</ele>
        <time>2021-08-07T13:17:23.001Z</time>
      </trkpt>
      <trkpt lat="46.91472" lon="8.62439">
        <ele>473</ele>
        <time>2021-08-07T13:17:24.001Z</time>
      </trkpt>
      <trkpt lat="46.91473" lon="8.62437">
        <ele>472</ele>
        <time>2021-08-07T13:17:25.002Z</time>
      </trkpt>
      <trkpt lat="46.91474" lon="8.62435">
        <ele>471</ele>
        <time>2021-08-07T13:17:26.002Z</time>
      </trkpt>
      <trkpt lat="46.91475" lon="8.62434">
        <ele>470</ele>
        <time>2021-08-07T13:17:27.002Z</time>
      </trkpt>
      <trkpt lat="46.91475" lon="8.62431">
        <ele>470</ele>
        <time>2021-08-07T13:17:28.002Z</time>
      </trkpt>
      <trkpt lat="46.91475" lon="8.62428">
        <ele>469</ele>
        <time>2021-08-07T13:17:29.002Z</time>
      </trkpt>
      <trkpt lat="46.91475" lon="8.62426">
        <ele>469</ele>
        <time>2021-08-07T13:17:30.002Z</time>
      </trkpt>
      <trkpt lat="46.91475" lon="8.62423">
        <ele>469</ele>
        <time>2021-08-07T13:17:31.002Z</time>
      </trkpt>
      <trkpt lat="46.91475" lon="8.62421">
        <ele>468</ele>
        <time>2021-08-07T13:17:32.002Z</time>
      </trkpt>
      <trkpt lat="46.91474" lon="8.62419">
        <ele>468</ele>
        <time>2021-08-07T13:17:33.002Z</time>
      </trkpt>
      <trkpt lat="46.91474" lon="8.62417">
        <ele>468</ele>
        <time>2021-08-07T13:17:34.002Z</time>
      </trkpt>
      <trkpt lat="46.91473" lon="8.62415">
        <ele>467</ele>
        <time>2021-08-07T13:17:35.001Z</time>
      </trkpt>
      <trkpt lat="46.91472" lon="8.62414">
        <ele>467</ele>
        <time>2021-08-07T13:17:36.002Z</time>
      </trkpt>
      <trkpt lat="46.9147" lon="8.62413">
        <ele>467</ele>
        <time>2021-08-07T13:17:37.002Z</time>
      </trkpt>
      <trkpt lat="46.91469" lon="8.62411">
        <ele>467</ele>
        <time>2021-08-07T13:17:38.001Z</time>
      </trkpt>
      <trkpt lat="46.91468" lon="8.6241">
        <ele>467</ele>
        <time>2021-08-07T13:17:39.002Z</time>
      </trkpt>
      <trkpt lat="46.91467" lon="8.62408">
        <ele>467</ele>
        <time>2021-08-07T13:17:40.002Z</time>
      </trkpt>
      <trkpt lat="46.91466" lon="8.62407">
        <ele>467</ele>
        <time>2021-08-07T13:17:41.002Z</time>
      </trkpt>
      <trkpt lat="46.91465" lon="8.62406">
        <ele>467</ele>
        <time>2021-08-07T13:17:42.002Z</time>
      </trkpt>
      <trkpt lat="46.91463" lon="8.62405">
        <ele>467</ele>
        <time>2021-08-07T13:17:43.002Z</time>
      </trkpt>
      <trkpt lat="46.91462" lon="8.62404">
        <ele>468</ele>
        <time>2021-08-07T13:17:44.001Z</time>
      </trkpt>
      <trkpt lat="46.91461" lon="8.62402">
        <ele>468</ele>
        <time>2021-08-07T13:17:45.001Z</time>
      </trkpt>
      <trkpt lat="46.9146" lon="8.62401">
        <ele>468</ele>
        <time>2021-08-07T13:17:46.001Z</time>
      </trkpt>
      <trkpt lat="46.91459" lon="8.624">
        <ele>468</ele>
        <time>2021-08-07T13:17:47.001Z</time>
      </trkpt>
      <trkpt lat="46.91457" lon="8.62398">
        <ele>468</ele>
        <time>2021-08-07T13:17:48.002Z</time>
      </trkpt>
      <trkpt lat="46.91456" lon="8.62397">
        <ele>467</ele>
        <time>2021-08-07T13:17:49.002Z</time>
      </trkpt>
      <trkpt lat="46.91455" lon="8.62395">
        <ele>467</ele>
        <time>2021-08-07T13:17:50.002Z</time>
      </trkpt>
      <trkpt lat="46.91454" lon="8.62394">
        <ele>467</ele>
        <time>2021-08-07T13:17:51.002Z</time>
      </trkpt>
      <trkpt lat="46.91452" lon="8.62392">
        <ele>467</ele>
        <time>2021-08-07T13:17:52.001Z</time>
      </trkpt>
      <trkpt lat="46.91451" lon="8.62391">
        <ele>466</ele>
        <time>2021-08-07T13:17:53.002Z</time>
      </trkpt>
      <trkpt lat="46.9145" lon="8.6239">
        <ele>466</ele>
        <time>2021-08-07T13:17:54.002Z</time>
      </trkpt>
      <trkpt lat="46.91449" lon="8.62388">
        <ele>466</ele>
        <time>2021-08-07T13:17:55.001Z</time>
      </trkpt>
      <trkpt lat="46.91447" lon="8.62387">
        <ele>466</ele>
        <time>2021-08-07T13:17:56.002Z</time>
      </trkpt>
      <trkpt lat="46.91446" lon="8.62386">
        <ele>466</ele>
        <time>2021-08-07T13:17:57.002Z</time>
      </trkpt>
      <trkpt lat="46.91444" lon="8.62384">
        <ele>466</ele>
        <time>2021-08-07T13:17:58.002Z</time>
      </trkpt>
      <trkpt lat="46.91443" lon="8.62383">
        <ele>466</ele>
        <time>2021-08-07T13:17:59.002Z</time>
      </trkpt>
      <trkpt lat="46.91441" lon="8.62381">
        <ele>466</ele>
        <time>2021-08-07T13:18:00.002Z</time>
      </trkpt>
      <trkpt lat="46.9144" lon="8.6238">
        <ele>466</ele>
        <time>2021-08-07T13:18:01.001Z</time>
      </trkpt>
      <trkpt lat="46.91439" lon="8.62379">
        <ele>466</ele>
        <time>2021-08-07T13:18:02.002Z</time>
      </trkpt>
      <trkpt lat="46.91437" lon="8.62378">
        <ele>466</ele>
        <time>2021-08-07T13:18:03.001Z</time>
      </trkpt>
      <trkpt lat="46.91436" lon="8.62377">
        <ele>466</ele>
        <time>2021-08-07T13:18:04.002Z</time>
      </trkpt>
      <trkpt lat="46.91435" lon="8.62376">
        <ele>466</ele>
        <time>2021-08-07T13:18:05.002Z</time>
      </trkpt>
      <trkpt lat="46.91433" lon="8.62375">
        <ele>466</ele>
        <time>2021-08-07T13:18:06.002Z</time>
      </trkpt>
      <trkpt lat="46.91432" lon="8.62374">
        <ele>466</ele>
        <time>2021-08-07T13:18:07.001Z</time>
      </trkpt>
      <trkpt lat="46.91431" lon="8.62374">
        <ele>466</ele>
        <time>2021-08-07T13:18:08.002Z</time>
      </trkpt>
      <trkpt lat="46.91429" lon="8.62374">
        <ele>465</ele>
        <time>2021-08-07T13:18:09.002Z</time>
      </trkpt>
      <trkpt lat="46.91428" lon="8.62374">
        <ele>465</ele>
        <time>2021-08-07T13:18:39.114Z</time>
      </trkpt>
      <trkpt lat="46.91426" lon="8.62373">
        <ele>465</ele>
        <time>2021-08-07T13:18:40.114Z</time>
      </trkpt>
      <trkpt lat="46.91425" lon="8.62373">
        <ele>464</ele>
        <time>2021-08-07T13:18:41.114Z</time>
      </trkpt>
      <trkpt lat="46.91424" lon="8.62372">
        <ele>464</ele>
        <time>2021-08-07T13:18:42.114Z</time>
      </trkpt>
      <trkpt lat="46.91422" lon="8.62371">
        <ele>464</ele>
        <time>2021-08-07T13:18:43.113Z</time>
      </trkpt>
      <trkpt lat="46.91421" lon="8.6237">
        <ele>463</ele>
        <time>2021-08-07T13:18:44.114Z</time>
      </trkpt>
      <trkpt lat="46.91419" lon="8.62369">
        <ele>463</ele>
        <time>2021-08-07T13:18:45.113Z</time>
      </trkpt>
      <trkpt lat="46.91418" lon="8.62368">
        <ele>464</ele>
        <time>2021-08-07T13:18:46.114Z</time>
      </trkpt>
      <trkpt lat="46.91417" lon="8.62367">
        <ele>464</ele>
        <time>2021-08-07T13:18:47.114Z</time>
      </trkpt>
      <trkpt lat="46.91415" lon="8.62364">
        <ele>464</ele>
        <time>2021-08-07T13:18:48.114Z</time>
      </trkpt>
      <trkpt lat="46.91413" lon="8.62363">
        <ele>465</ele>
        <time>2021-08-07T13:18:49.114Z</time>
      </trkpt>
      <trkpt lat="46.91412" lon="8.62362">
        <ele>465</ele>
        <time>2021-08-07T13:18:50.113Z</time>
      </trkpt>
      <trkpt lat="46.91411" lon="8.62362">
        <ele>465</ele>
        <time>2021-08-07T13:18:51.114Z</time>
      </trkpt>
      <trkpt lat="46.91409" lon="8.62363">
        <ele>465</ele>
        <time>2021-08-07T13:18:52.113Z</time>
      </trkpt>
      <trkpt lat="46.91408" lon="8.62364">
        <ele>465</ele>
        <time>2021-08-07T13:18:53.113Z</time>
      </trkpt>
      <trkpt lat="46.91408" lon="8.62365">
        <ele>465</ele>
        <time>2021-08-07T13:18:54.113Z</time>
      </trkpt>
      <trkpt lat="46.91408" lon="8.62365">
        <ele>465</ele>
        <time>2021-08-07T13:18:55.114Z</time>
      </trkpt>
      <trkpt lat="46.91408" lon="8.62365">
        <ele>465</ele>
        <time>2021-08-07T13:18:56.114Z</time>
      </trkpt>
      <trkpt lat="46.91407" lon="8.62365">
        <ele>465</ele>
        <time>2021-08-07T13:18:57.113Z</time>
      </trkpt>
      <trkpt lat="46.91407" lon="8.62365">
        <ele>465</ele>
        <time>2021-08-07T13:18:58.113Z</time>
      </trkpt>
      <trkpt lat="46.91407" lon="8.62365">
        <ele>465</ele>
        <time>2021-08-07T13:18:59.113Z</time>
      </trkpt>
      <trkpt lat="46.91406" lon="8.62364">
        <ele>464</ele>
        <time>2021-08-07T13:19:00.113Z</time>
      </trkpt>
      <trkpt lat="46.91405" lon="8.62363">
        <ele>464</ele>
        <time>2021-08-07T13:19:01.114Z</time>
      </trkpt>
      <trkpt lat="46.91404" lon="8.62362">
        <ele>464</ele>
        <time>2021-08-07T13:19:02.114Z</time>
      </trkpt>
      <trkpt lat="46.91403" lon="8.6236">
        <ele>464</ele>
        <time>2021-08-07T13:19:03.113Z</time>
      </trkpt>
      <trkpt lat="46.91402" lon="8.62359">
        <ele>464</ele>
        <time>2021-08-07T13:19:04.114Z</time>
      </trkpt>
      <trkpt lat="46.91401" lon="8.62358">
        <ele>465</ele>
        <time>2021-08-07T13:19:05.114Z</time>
      </trkpt>
      <trkpt lat="46.91399" lon="8.62357">
        <ele>465</ele>
        <time>2021-08-07T13:19:06.113Z</time>
      </trkpt>
      <trkpt lat="46.91399" lon="8.62356">
        <ele>466</ele>
        <time>2021-08-07T13:19:07.114Z</time>
      </trkpt>
      <trkpt lat="46.91398" lon="8.62356">
        <ele>466</ele>
        <time>2021-08-07T13:19:08.113Z</time>
      </trkpt>
      <trkpt lat="46.91397" lon="8.62355">
        <ele>466</ele>
        <time>2021-08-07T13:19:09.113Z</time>
      </trkpt>
      <trkpt lat="46.91397" lon="8.62355">
        <ele>467</ele>
        <time>2021-08-07T13:19:10.114Z</time>
      </trkpt>
      <trkpt lat="46.91396" lon="8.62354">
        <ele>467</ele>
        <time>2021-08-07T13:19:11.114Z</time>
      </trkpt>
      <trkpt lat="46.91396" lon="8.62353">
        <ele>467</ele>
        <time>2021-08-07T13:19:12.114Z</time>
      </trkpt>
      <trkpt lat="46.91396" lon="8.62353">
        <ele>467</ele>
        <time>2021-08-07T13:19:13.114Z</time>
      </trkpt>
      <trkpt lat="46.91397" lon="8.62353">
        <ele>467</ele>
        <time>2021-08-07T13:19:14.114Z</time>
      </trkpt>
      <trkpt lat="46.91398" lon="8.62353">
        <ele>468</ele>
        <time>2021-08-07T13:19:15.114Z</time>
      </trkpt>
      <trkpt lat="46.91398" lon="8.62353">
        <ele>468</ele>
        <time>2021-08-07T13:19:16.114Z</time>
      </trkpt>
      <trkpt lat="46.91398" lon="8.62354">
        <ele>469</ele>
        <time>2021-08-07T13:19:17.114Z</time>
      </trkpt>
      <trkpt lat="46.91398" lon="8.62354">
        <ele>469</ele>
        <time>2021-08-07T13:19:18.114Z</time>
      </trkpt>
      <trkpt lat="46.91398" lon="8.62352">
        <ele>469</ele>
        <time>2021-08-07T13:19:19.113Z</time>
      </trkpt>
      <trkpt lat="46.91398" lon="8.6235">
        <ele>470</ele>
        <time>2021-08-07T13:19:20.114Z</time>
      </trkpt>
      <trkpt lat="46.91399" lon="8.6235">
        <ele>469</ele>
        <time>2021-08-07T13:19:21.114Z</time>
      </trkpt>
      <trkpt lat="46.91399" lon="8.6235">
        <ele>469</ele>
        <time>2021-08-07T13:19:22.113Z</time>
      </trkpt>
      <trkpt lat="46.91399" lon="8.6235">
        <ele>469</ele>
        <time>2021-08-07T13:19:23.113Z</time>
      </trkpt>
      <trkpt lat="46.91399" lon="8.6235">
        <ele>469</ele>
        <time>2021-08-07T13:19:24.114Z</time>
      </trkpt>
      <trkpt lat="46.91399" lon="8.6235">
        <ele>468</ele>
        <time>2021-08-07T13:19:25.113Z</time>
      </trkpt>
      <trkpt lat="46.91399" lon="8.62349">
        <ele>468</ele>
        <time>2021-08-07T13:19:26.113Z</time>
      </trkpt>
      <trkpt lat="46.91399" lon="8.62349">
        <ele>468</ele>
        <time>2021-08-07T13:19:27.113Z</time>
      </trkpt>
      <trkpt lat="46.91401" lon="8.62351">
        <ele>468</ele>
        <time>2021-08-07T13:19:28.114Z</time>
      </trkpt>
      <trkpt lat="46.91401" lon="8.62351">
        <ele>468</ele>
        <time>2021-08-07T13:19:29.113Z</time>
      </trkpt>
      <trkpt lat="46.91401" lon="8.6235">
        <ele>468</ele>
        <time>2021-08-07T13:19:30.113Z</time>
      </trkpt>
      <trkpt lat="46.914" lon="8.62349">
        <ele>467</ele>
        <time>2021-08-07T13:19:31.114Z</time>
      </trkpt>
      <trkpt lat="46.914" lon="8.62348">
        <ele>467</ele>
        <time>2021-08-07T13:19:32.113Z</time>
      </trkpt>
      <trkpt lat="46.91399" lon="8.62347">
        <ele>468</ele>
        <time>2021-08-07T13:19:33.114Z</time>
      </trkpt>
      <trkpt lat="46.91398" lon="8.62346">
        <ele>468</ele>
        <time>2021-08-07T13:19:34.113Z</time>
      </trkpt>
      <trkpt lat="46.91397" lon="8.62346">
        <ele>467</ele>
        <time>2021-08-07T13:19:35.114Z</time>
      </trkpt>
      <trkpt lat="46.91395" lon="8.62346">
        <ele>467</ele>
        <time>2021-08-07T13:19:36.114Z</time>
      </trkpt>
      <trkpt lat="46.91394" lon="8.62344">
        <ele>466</ele>
        <time>2021-08-07T13:19:37.113Z</time>
      </trkpt>
      <trkpt lat="46.91394" lon="8.62343">
        <ele>466</ele>
        <time>2021-08-07T13:19:38.113Z</time>
      </trkpt>
      <trkpt lat="46.91393" lon="8.62343">
        <ele>465</ele>
        <time>2021-08-07T13:19:39.114Z</time>
      </trkpt>
      <trkpt lat="46.91392" lon="8.62343">
        <ele>465</ele>
        <time>2021-08-07T13:19:40.113Z</time>
      </trkpt>
      <trkpt lat="46.91392" lon="8.62342">
        <ele>465</ele>
        <time>2021-08-07T13:19:41.113Z</time>
      </trkpt>
      <trkpt lat="46.91392" lon="8.62341">
        <ele>465</ele>
        <time>2021-08-07T13:19:42.113Z</time>
      </trkpt>
      <trkpt lat="46.91392" lon="8.6234">
        <ele>465</ele>
        <time>2021-08-07T13:19:43.114Z</time>
      </trkpt>
      <trkpt lat="46.91392" lon="8.62338">
        <ele>465</ele>
        <time>2021-08-07T13:19:44.113Z</time>
      </trkpt>
      <trkpt lat="46.91393" lon="8.62337">
        <ele>465</ele>
        <time>2021-08-07T13:19:45.113Z</time>
      </trkpt>
      <trkpt lat="46.91394" lon="8.62336">
        <ele>465</ele>
        <time>2021-08-07T13:19:46.113Z</time>
      </trkpt>
      <trkpt lat="46.91394" lon="8.62335">
        <ele>465</ele>
        <time>2021-08-07T13:19:47.114Z</time>
      </trkpt>
      <trkpt lat="46.91395" lon="8.62333">
        <ele>465</ele>
        <time>2021-08-07T13:19:48.113Z</time>
      </trkpt>
      <trkpt lat="46.91395" lon="8.62331">
        <ele>465</ele>
        <time>2021-08-07T13:19:49.113Z</time>
      </trkpt>
      <trkpt lat="46.91395" lon="8.6233">
        <ele>465</ele>
        <time>2021-08-07T13:19:50.113Z</time>
      </trkpt>
      <trkpt lat="46.91395" lon="8.62328">
        <ele>465</ele>
        <time>2021-08-07T13:19:51.113Z</time>
      </trkpt>
      <trkpt lat="46.91395" lon="8.62327">
        <ele>465</ele>
        <time>2021-08-07T13:19:52.114Z</time>
      </trkpt>
      <trkpt lat="46.91395" lon="8.62325">
        <ele>465</ele>
        <time>2021-08-07T13:19:53.114Z</time>
      </trkpt>
      <trkpt lat="46.91396" lon="8.62325">
        <ele>466</ele>
        <time>2021-08-07T13:19:54.114Z</time>
      </trkpt>
      <trkpt lat="46.91395" lon="8.62323">
        <ele>467</ele>
        <time>2021-08-07T13:19:55.113Z</time>
      </trkpt>
      <trkpt lat="46.91394" lon="8.62322">
        <ele>468</ele>
        <time>2021-08-07T13:19:56.114Z</time>
      </trkpt>
      <trkpt lat="46.91393" lon="8.62322">
        <ele>469</ele>
        <time>2021-08-07T13:19:57.113Z</time>
      </trkpt>
      <trkpt lat="46.91391" lon="8.62321">
        <ele>476</ele>
        <time>2021-08-07T13:19:58.113Z</time>
      </trkpt>
      <trkpt lat="46.91391" lon="8.62321">
        <ele>477</ele>
        <time>2021-08-07T13:19:59.114Z</time>
      </trkpt>
      <trkpt lat="46.9139" lon="8.62322">
        <ele>478</ele>
        <time>2021-08-07T13:20:00.113Z</time>
      </trkpt>
      <trkpt lat="46.91389" lon="8.62323">
        <ele>479</ele>
        <time>2021-08-07T13:20:01.114Z</time>
      </trkpt>
      <trkpt lat="46.91388" lon="8.62325">
        <ele>480</ele>
        <time>2021-08-07T13:20:02.115Z</time>
      </trkpt>
      <trkpt lat="46.91388" lon="8.62326">
        <ele>480</ele>
        <time>2021-08-07T13:20:03.114Z</time>
      </trkpt>
      <trkpt lat="46.91387" lon="8.62328">
        <ele>479</ele>
        <time>2021-08-07T13:20:04.114Z</time>
      </trkpt>
      <trkpt lat="46.91387" lon="8.6233">
        <ele>479</ele>
        <time>2021-08-07T13:20:05.115Z</time>
      </trkpt>
      <trkpt lat="46.91386" lon="8.62332">
        <ele>479</ele>
        <time>2021-08-07T13:20:06.114Z</time>
      </trkpt>
      <trkpt lat="46.91386" lon="8.62334">
        <ele>479</ele>
        <time>2021-08-07T13:20:07.114Z</time>
      </trkpt>
      <trkpt lat="46.91386" lon="8.62337">
        <ele>479</ele>
        <time>2021-08-07T13:20:08.114Z</time>
      </trkpt>
      <trkpt lat="46.91386" lon="8.62338">
        <ele>479</ele>
        <time>2021-08-07T13:20:09.114Z</time>
      </trkpt>
      <trkpt lat="46.91386" lon="8.6234">
        <ele>478</ele>
        <time>2021-08-07T13:20:10.115Z</time>
      </trkpt>
      <trkpt lat="46.91386" lon="8.6234">
        <ele>478</ele>
        <time>2021-08-07T13:20:11.115Z</time>
      </trkpt>
      <trkpt lat="46.91386" lon="8.6234">
        <ele>478</ele>
        <time>2021-08-07T13:20:12.115Z</time>
      </trkpt>
      <trkpt lat="46.91387" lon="8.62341">
        <ele>478</ele>
        <time>2021-08-07T13:20:13.115Z</time>
      </trkpt>
      <trkpt lat="46.91387" lon="8.62341">
        <ele>478</ele>
        <time>2021-08-07T13:20:14.115Z</time>
      </trkpt>
      <trkpt lat="46.91387" lon="8.62341">
        <ele>477</ele>
        <time>2021-08-07T13:20:15.115Z</time>
      </trkpt>
      <trkpt lat="46.91388" lon="8.62341">
        <ele>477</ele>
        <time>2021-08-07T13:20:19.131Z</time>
      </trkpt>
      <trkpt lat="46.91388" lon="8.62341">
        <ele>476</ele>
        <time>2021-08-07T13:20:20.131Z</time>
      </trkpt>
      <trkpt lat="46.91388" lon="8.62342">
        <ele>476</ele>
        <time>2021-08-07T13:20:21.130Z</time>
      </trkpt>
      <trkpt lat="46.91389" lon="8.62342">
        <ele>475</ele>
        <time>2021-08-07T13:20:22.131Z</time>
      </trkpt>
      <trkpt lat="46.91389" lon="8.62343">
        <ele>475</ele>
        <time>2021-08-07T13:20:23.130Z</time>
      </trkpt>
      <trkpt lat="46.91389" lon="8.62343">
        <ele>474</ele>
        <time>2021-08-07T13:20:24.130Z</time>
      </trkpt>
      <trkpt lat="46.91389" lon="8.62344">
        <ele>472</ele>
        <time>2021-08-07T13:20:25.131Z</time>
      </trkpt>
      <trkpt lat="46.91389" lon="8.62343">
        <ele>471</ele>
        <time>2021-08-07T13:20:26.131Z</time>
      </trkpt>
      <trkpt lat="46.91388" lon="8.62344">
        <ele>469</ele>
        <time>2021-08-07T13:20:27.130Z</time>
      </trkpt>
      <trkpt lat="46.91388" lon="8.62346">
        <ele>468</ele>
        <time>2021-08-07T13:20:28.131Z</time>
      </trkpt>
      <trkpt lat="46.91387" lon="8.62346">
        <ele>468</ele>
        <time>2021-08-07T13:20:29.130Z</time>
      </trkpt>
      <trkpt lat="46.91386" lon="8.62347">
        <ele>467</ele>
        <time>2021-08-07T13:20:30.130Z</time>
      </trkpt>
      <trkpt lat="46.91386" lon="8.62349">
        <ele>466</ele>
        <time>2021-08-07T13:20:31.131Z</time>
      </trkpt>
      <trkpt lat="46.91386" lon="8.6235">
        <ele>465</ele>
        <time>2021-08-07T13:20:32.130Z</time>
      </trkpt>
      <trkpt lat="46.91386" lon="8.62351">
        <ele>465</ele>
        <time>2021-08-07T13:20:33.131Z</time>
      </trkpt>
      <trkpt lat="46.91385" lon="8.62351">
        <ele>464</ele>
        <time>2021-08-07T13:20:34.130Z</time>
      </trkpt>
      <trkpt lat="46.91385" lon="8.62352">
        <ele>464</ele>
        <time>2021-08-07T13:20:35.131Z</time>
      </trkpt>
      <trkpt lat="46.91384" lon="8.62353">
        <ele>463</ele>
        <time>2021-08-07T13:20:36.131Z</time>
      </trkpt>
      <trkpt lat="46.91384" lon="8.62353">
        <ele>463</ele>
        <time>2021-08-07T13:20:37.130Z</time>
      </trkpt>
      <trkpt lat="46.91383" lon="8.62353">
        <ele>463</ele>
        <time>2021-08-07T13:20:38.130Z</time>
      </trkpt>
      <trkpt lat="46.91383" lon="8.62354">
        <ele>463</ele>
        <time>2021-08-07T13:20:39.130Z</time>
      </trkpt>
      <trkpt lat="46.91382" lon="8.62354">
        <ele>463</ele>
        <time>2021-08-07T13:20:40.130Z</time>
      </trkpt>
      <trkpt lat="46.91382" lon="8.62355">
        <ele>463</ele>
        <time>2021-08-07T13:20:41.131Z</time>
      </trkpt>
      <trkpt lat="46.91382" lon="8.62356">
        <ele>464</ele>
        <time>2021-08-07T13:20:42.131Z</time>
      </trkpt>
      <trkpt lat="46.91382" lon="8.62357">
        <ele>464</ele>
        <time>2021-08-07T13:20:43.131Z</time>
      </trkpt>
      <trkpt lat="46.91369" lon="8.62295">
        <ele>463</ele>
        <time>2021-08-07T13:25:01.383Z</time>
      </trkpt>
      <trkpt lat="46.91369" lon="8.6229">
        <ele>462</ele>
        <time>2021-08-07T13:25:02.383Z</time>
      </trkpt>
      <trkpt lat="46.91377" lon="8.62337">
        <ele>461</ele>
        <time>2021-08-07T13:25:08.527Z</time>
      </trkpt>
      <trkpt lat="46.91378" lon="8.62339">
        <ele>461</ele>
        <time>2021-08-07T13:25:09.526Z</time>
      </trkpt>
      <trkpt lat="46.9138" lon="8.62345">
        <ele>460</ele>
        <time>2021-08-07T13:25:10.526Z</time>
      </trkpt>
      <trkpt lat="46.91381" lon="8.62349">
        <ele>459</ele>
        <time>2021-08-07T13:25:11.526Z</time>
      </trkpt>
      <trkpt lat="46.91382" lon="8.62349">
        <ele>458</ele>
        <time>2021-08-07T13:25:12.527Z</time>
      </trkpt>
      <trkpt lat="46.91383" lon="8.62348">
        <ele>457</ele>
        <time>2021-08-07T13:25:13.527Z</time>
      </trkpt>
      <trkpt lat="46.91383" lon="8.62347">
        <ele>457</ele>
        <time>2021-08-07T13:25:14.527Z</time>
      </trkpt>
      <trkpt lat="46.91384" lon="8.62349">
        <ele>457</ele>
        <time>2021-08-07T13:25:15.527Z</time>
      </trkpt>
      <trkpt lat="46.91385" lon="8.62348">
        <ele>457</ele>
        <time>2021-08-07T13:25:16.527Z</time>
      </trkpt>
      <trkpt lat="46.91385" lon="8.62347">
        <ele>456</ele>
        <time>2021-08-07T13:25:27.611Z</time>
      </trkpt>
      <trkpt lat="46.91385" lon="8.62347">
        <ele>456</ele>
        <time>2021-08-07T13:25:28.610Z</time>
      </trkpt>
      <trkpt lat="46.91385" lon="8.62346">
        <ele>456</ele>
        <time>2021-08-07T13:25:29.610Z</time>
      </trkpt>
      <trkpt lat="46.91383" lon="8.62349">
        <ele>454</ele>
        <time>2021-08-07T13:25:30.610Z</time>
      </trkpt>
      <trkpt lat="46.91383" lon="8.62349">
        <ele>454</ele>
        <time>2021-08-07T13:25:31.611Z</time>
      </trkpt>
      <trkpt lat="46.91383" lon="8.62349">
        <ele>454</ele>
        <time>2021-08-07T13:25:33.753Z</time>
      </trkpt>
      <trkpt lat="46.91383" lon="8.62349">
        <ele>453</ele>
        <time>2021-08-07T13:25:39.484Z</time>
      </trkpt>
      <trkpt lat="46.91383" lon="8.62349">
        <ele>453</ele>
        <time>2021-08-07T13:25:53.261Z</time>
      </trkpt>
      <trkpt lat="46.91383" lon="8.6235">
        <ele>453</ele>
        <time>2021-08-07T13:25:54.261Z</time>
      </trkpt>
      <trkpt lat="46.91383" lon="8.6235">
        <ele>453</ele>
        <time>2021-08-07T13:26:14.999Z</time>
      </trkpt>
      <trkpt lat="46.91384" lon="8.62351">
        <ele>453</ele>
        <time>2021-08-07T13:26:15.999Z</time>
      </trkpt>
      <trkpt lat="46.91385" lon="8.62352">
        <ele>453</ele>
        <time>2021-08-07T13:26:17.728Z</time>
      </trkpt>
      <trkpt lat="46.91385" lon="8.62352">
        <ele>453</ele>
        <time>2021-08-07T13:26:34.508Z</time>
      </trkpt>
      <trkpt lat="46.91387" lon="8.62353">
        <ele>453</ele>
        <time>2021-08-07T13:26:35.507Z</time>
      </trkpt>
      <trkpt lat="46.91388" lon="8.62353">
        <ele>452</ele>
        <time>2021-08-07T13:26:36.507Z</time>
      </trkpt>
      <trkpt lat="46.91389" lon="8.62352">
        <ele>452</ele>
        <time>2021-08-07T13:26:37.508Z</time>
      </trkpt>
      <trkpt lat="46.91389" lon="8.6235">
        <ele>452</ele>
        <time>2021-08-07T13:26:38.508Z</time>
      </trkpt>
      <trkpt lat="46.91388" lon="8.62349">
        <ele>452</ele>
        <time>2021-08-07T13:27:04.608Z</time>
      </trkpt>
      <trkpt lat="46.91387" lon="8.62349">
        <ele>452</ele>
        <time>2021-08-07T13:27:26.371Z</time>
      </trkpt>
      <trkpt lat="46.91388" lon="8.6235">
        <ele>452</ele>
        <time>2021-08-07T13:27:27.371Z</time>
      </trkpt>
      <trkpt lat="46.91388" lon="8.62356">
        <ele>450</ele>
        <time>2021-08-07T13:27:28.372Z</time>
      </trkpt>
      <trkpt lat="46.91388" lon="8.62357">
        <ele>449</ele>
        <time>2021-08-07T13:27:29.372Z</time>
      </trkpt>
      <trkpt lat="46.91388" lon="8.62358">
        <ele>448</ele>
        <time>2021-08-07T13:27:30.371Z</time>
      </trkpt>
      <trkpt lat="46.91388" lon="8.62358">
        <ele>448</ele>
        <time>2021-08-07T13:27:31.371Z</time>
      </trkpt>
      <trkpt lat="46.91388" lon="8.62359">
        <ele>447</ele>
        <time>2021-08-07T13:27:32.372Z</time>
      </trkpt>
      <trkpt lat="46.91387" lon="8.62358">
        <ele>447</ele>
        <time>2021-08-07T13:27:38.478Z</time>
      </trkpt>
      <trkpt lat="46.91387" lon="8.62358">
        <ele>446</ele>
        <time>2021-08-07T13:27:45.264Z</time>
      </trkpt>
      <trkpt lat="46.91387" lon="8.62359">
        <ele>446</ele>
        <time>2021-08-07T13:27:46.264Z</time>
      </trkpt>
      <trkpt lat="46.91388" lon="8.6236">
        <ele>444</ele>
        <time>2021-08-07T13:27:47.264Z</time>
      </trkpt>
      <trkpt lat="46.91388" lon="8.6236">
        <ele>444</ele>
        <time>2021-08-07T13:27:48.263Z</time>
      </trkpt>
      <trkpt lat="46.91387" lon="8.62359">
        <ele>443</ele>
        <time>2021-08-07T13:27:49.263Z</time>
      </trkpt>
      <trkpt lat="46.91387" lon="8.62359">
        <ele>442</ele>
        <time>2021-08-07T13:27:50.264Z</time>
      </trkpt>
      <trkpt lat="46.91386" lon="8.62357">
        <ele>432</ele>
        <time>2021-08-07T13:27:51.265Z</time>
      </trkpt>
      <trkpt lat="46.91387" lon="8.62357">
        <ele>431</ele>
        <time>2021-08-07T13:27:52.264Z</time>
      </trkpt>
      <trkpt lat="46.9139" lon="8.62356">
        <ele>427</ele>
        <time>2021-08-07T13:27:53.265Z</time>
      </trkpt>
      <trkpt lat="46.91393" lon="8.62358">
        <ele>428</ele>
        <time>2021-08-07T13:27:54.264Z</time>
      </trkpt>
      <trkpt lat="46.91397" lon="8.62359">
        <ele>428</ele>
        <time>2021-08-07T13:27:55.264Z</time>
      </trkpt>
      <trkpt lat="46.91401" lon="8.62362">
        <ele>428</ele>
        <time>2021-08-07T13:27:56.265Z</time>
      </trkpt>
      <trkpt lat="46.91403" lon="8.62364">
        <ele>427</ele>
        <time>2021-08-07T13:27:57.264Z</time>
      </trkpt>
      <trkpt lat="46.91404" lon="8.62364">
        <ele>427</ele>
        <time>2021-08-07T13:27:58.265Z</time>
      </trkpt>
      <trkpt lat="46.91405" lon="8.62368">
        <ele>427</ele>
        <time>2021-08-07T13:27:59.264Z</time>
      </trkpt>
      <trkpt lat="46.91402" lon="8.62368">
        <ele>427</ele>
        <time>2021-08-07T13:28:00.265Z</time>
      </trkpt>
      <trkpt lat="46.91403" lon="8.62372">
        <ele>427</ele>
        <time>2021-08-07T13:28:01.265Z</time>
      </trkpt>
      <trkpt lat="46.91404" lon="8.62374">
        <ele>427</ele>
        <time>2021-08-07T13:28:02.265Z</time>
      </trkpt>
      <trkpt lat="46.91405" lon="8.62375">
        <ele>427</ele>
        <time>2021-08-07T13:28:03.265Z</time>
      </trkpt>
      <trkpt lat="46.91405" lon="8.62375">
        <ele>427</ele>
        <time>2021-08-07T13:28:04.265Z</time>
      </trkpt>
      <trkpt lat="46.91404" lon="8.62374">
        <ele>427</ele>
        <time>2021-08-07T13:28:05.264Z</time>
      </trkpt>
      <trkpt lat="46.91403" lon="8.62373">
        <ele>427</ele>
        <time>2021-08-07T13:28:06.265Z</time>
      </trkpt>
      <trkpt lat="46.91401" lon="8.62373">
        <ele>427</ele>
        <time>2021-08-07T13:28:07.265Z</time>
      </trkpt>
      <trkpt lat="46.914" lon="8.62373">
        <ele>427</ele>
        <time>2021-08-07T13:28:08.265Z</time>
      </trkpt>
      <trkpt lat="46.91397" lon="8.6237">
        <ele>428</ele>
        <time>2021-08-07T13:28:09.266Z</time>
      </trkpt>
      <trkpt lat="46.91396" lon="8.6237">
        <ele>428</ele>
        <time>2021-08-07T13:28:10.267Z</time>
      </trkpt>
      <trkpt lat="46.91395" lon="8.6237">
        <ele>428</ele>
        <time>2021-08-07T13:28:11.266Z</time>
      </trkpt>
      <trkpt lat="46.91395" lon="8.62369">
        <ele>428</ele>
        <time>2021-08-07T13:28:12.267Z</time>
      </trkpt>
      <trkpt lat="46.91394" lon="8.62369">
        <ele>428</ele>
        <time>2021-08-07T13:28:13.267Z</time>
      </trkpt>
      <trkpt lat="46.91393" lon="8.62371">
        <ele>429</ele>
        <time>2021-08-07T13:28:14.267Z</time>
      </trkpt>
      <trkpt lat="46.9139" lon="8.62366">
        <ele>429</ele>
        <time>2021-08-07T13:28:15.266Z</time>
      </trkpt>
      <trkpt lat="46.91389" lon="8.62365">
        <ele>429</ele>
        <time>2021-08-07T13:28:16.267Z</time>
      </trkpt>
      <trkpt lat="46.91389" lon="8.62364">
        <ele>429</ele>
        <time>2021-08-07T13:28:17.266Z</time>
      </trkpt>
      <trkpt lat="46.91389" lon="8.62363">
        <ele>429</ele>
        <time>2021-08-07T13:28:18.267Z</time>
      </trkpt>
      <trkpt lat="46.91388" lon="8.62362">
        <ele>429</ele>
        <time>2021-08-07T13:28:19.267Z</time>
      </trkpt>
      <trkpt lat="46.91384" lon="8.62363">
        <ele>430</ele>
        <time>2021-08-07T13:28:20.267Z</time>
      </trkpt>
      <trkpt lat="46.91384" lon="8.62363">
        <ele>430</ele>
        <time>2021-08-07T13:28:21.267Z</time>
      </trkpt>
      <trkpt lat="46.91384" lon="8.62364">
        <ele>430</ele>
        <time>2021-08-07T13:28:22.266Z</time>
      </trkpt>
      <trkpt lat="46.91383" lon="8.62364">
        <ele>430</ele>
        <time>2021-08-07T13:28:23.266Z</time>
      </trkpt>
      <trkpt lat="46.91382" lon="8.62364">
        <ele>431</ele>
        <time>2021-08-07T13:28:24.267Z</time>
      </trkpt>
      <trkpt lat="46.91382" lon="8.62364">
        <ele>431</ele>
        <time>2021-08-07T13:28:25.267Z</time>
      </trkpt>
      <trkpt lat="46.91383" lon="8.62364">
        <ele>431</ele>
        <time>2021-08-07T13:28:26.267Z</time>
      </trkpt>
      <trkpt lat="46.91383" lon="8.62365">
        <ele>432</ele>
        <time>2021-08-07T13:28:27.266Z</time>
      </trkpt>
      <trkpt lat="46.91383" lon="8.62366">
        <ele>432</ele>
        <time>2021-08-07T13:28:28.267Z</time>
      </trkpt>
      <trkpt lat="46.91382" lon="8.62366">
        <ele>433</ele>
        <time>2021-08-07T13:28:29.266Z</time>
      </trkpt>
      <trkpt lat="46.91382" lon="8.62367">
        <ele>433</ele>
        <time>2021-08-07T13:28:30.267Z</time>
      </trkpt>
      <trkpt lat="46.91382" lon="8.62369">
        <ele>434</ele>
        <time>2021-08-07T13:28:31.267Z</time>
      </trkpt>
      <trkpt lat="46.91382" lon="8.6237">
        <ele>434</ele>
        <time>2021-08-07T13:28:32.267Z</time>
      </trkpt>
      <trkpt lat="46.91381" lon="8.62368">
        <ele>435</ele>
        <time>2021-08-07T13:28:33.267Z</time>
      </trkpt>
      <trkpt lat="46.91381" lon="8.62367">
        <ele>436</ele>
        <time>2021-08-07T13:28:34.267Z</time>
      </trkpt>
      <trkpt lat="46.91382" lon="8.62367">
        <ele>436</ele>
        <time>2021-08-07T13:28:35.266Z</time>
      </trkpt>
      <trkpt lat="46.91382" lon="8.62366">
        <ele>437</ele>
        <time>2021-08-07T13:28:36.266Z</time>
      </trkpt>
      <trkpt lat="46.91382" lon="8.62365">
        <ele>437</ele>
        <time>2021-08-07T13:28:37.266Z</time>
      </trkpt>
      <trkpt lat="46.91382" lon="8.62365">
        <ele>438</ele>
        <time>2021-08-07T13:28:38.266Z</time>
      </trkpt>
      <trkpt lat="46.91382" lon="8.62365">
        <ele>438</ele>
        <time>2021-08-07T13:28:39.267Z</time>
      </trkpt>
      <trkpt lat="46.91383" lon="8.62365">
        <ele>439</ele>
        <time>2021-08-07T13:28:40.266Z</time>
      </trkpt>
      <trkpt lat="46.91383" lon="8.62365">
        <ele>439</ele>
        <time>2021-08-07T13:28:41.267Z</time>
      </trkpt>
      <trkpt lat="46.91384" lon="8.62365">
        <ele>440</ele>
        <time>2021-08-07T13:28:42.267Z</time>
      </trkpt>
      <trkpt lat="46.91384" lon="8.62364">
        <ele>442</ele>
        <time>2021-08-07T13:28:43.267Z</time>
      </trkpt>
      <trkpt lat="46.91384" lon="8.62364">
        <ele>443</ele>
        <time>2021-08-07T13:28:44.267Z</time>
      </trkpt>
      <trkpt lat="46.91384" lon="8.62364">
        <ele>445</ele>
        <time>2021-08-07T13:28:45.267Z</time>
      </trkpt>
      <trkpt lat="46.91384" lon="8.62363">
        <ele>446</ele>
        <time>2021-08-07T13:28:46.266Z</time>
      </trkpt>
      <trkpt lat="46.91384" lon="8.62362">
        <ele>455</ele>
        <time>2021-08-07T13:28:47.266Z</time>
      </trkpt>
      <trkpt lat="46.91384" lon="8.62362">
        <ele>456</ele>
        <time>2021-08-07T13:28:48.266Z</time>
      </trkpt>
      <trkpt lat="46.91384" lon="8.62362">
        <ele>457</ele>
        <time>2021-08-07T13:28:49.266Z</time>
      </trkpt>
      <trkpt lat="46.91381" lon="8.62351">
        <ele>464</ele>
        <time>2021-08-07T13:28:50.267Z</time>
      </trkpt>
      <trkpt lat="46.91381" lon="8.6235">
        <ele>465</ele>
        <time>2021-08-07T13:28:51.267Z</time>
      </trkpt>
      <trkpt lat="46.91379" lon="8.62347">
        <ele>466</ele>
        <time>2021-08-07T13:28:52.268Z</time>
      </trkpt>
      <trkpt lat="46.91379" lon="8.6234">
        <ele>468</ele>
        <time>2021-08-07T13:28:53.269Z</time>
      </trkpt>
      <trkpt lat="46.91379" lon="8.62341">
        <ele>467</ele>
        <time>2021-08-07T13:28:54.270Z</time>
      </trkpt>
      <trkpt lat="46.91379" lon="8.62342">
        <ele>467</ele>
        <time>2021-08-07T13:28:55.270Z</time>
      </trkpt>
      <trkpt lat="46.91379" lon="8.62343">
        <ele>466</ele>
        <time>2021-08-07T13:28:56.269Z</time>
      </trkpt>
      <trkpt lat="46.9138" lon="8.62344">
        <ele>466</ele>
        <time>2021-08-07T13:28:57.269Z</time>
      </trkpt>
      <trkpt lat="46.91382" lon="8.62343">
        <ele>465</ele>
        <time>2021-08-07T13:28:58.270Z</time>
      </trkpt>
      <trkpt lat="46.91382" lon="8.62342">
        <ele>465</ele>
        <time>2021-08-07T13:28:59.269Z</time>
      </trkpt>
      <trkpt lat="46.91381" lon="8.62341">
        <ele>465</ele>
        <time>2021-08-07T13:29:00.270Z</time>
      </trkpt>
      <trkpt lat="46.91381" lon="8.62338">
        <ele>465</ele>
        <time>2021-08-07T13:29:01.270Z</time>
      </trkpt>
      <trkpt lat="46.9138" lon="8.62336">
        <ele>465</ele>
        <time>2021-08-07T13:29:02.270Z</time>
      </trkpt>
      <trkpt lat="46.91379" lon="8.62334">
        <ele>465</ele>
        <time>2021-08-07T13:29:03.269Z</time>
      </trkpt>
      <trkpt lat="46.91379" lon="8.62334">
        <ele>464</ele>
        <time>2021-08-07T13:29:04.269Z</time>
      </trkpt>
      <trkpt lat="46.91379" lon="8.62335">
        <ele>464</ele>
        <time>2021-08-07T13:29:05.270Z</time>
      </trkpt>
      <trkpt lat="46.91379" lon="8.62334">
        <ele>464</ele>
        <time>2021-08-07T13:29:06.270Z</time>
      </trkpt>
      <trkpt lat="46.91379" lon="8.62332">
        <ele>464</ele>
        <time>2021-08-07T13:29:07.270Z</time>
      </trkpt>
      <trkpt lat="46.91379" lon="8.62331">
        <ele>464</ele>
        <time>2021-08-07T13:29:08.269Z</time>
      </trkpt>
      <trkpt lat="46.91379" lon="8.62331">
        <ele>464</ele>
        <time>2021-08-07T13:29:09.269Z</time>
      </trkpt>
      <trkpt lat="46.91379" lon="8.62331">
        <ele>464</ele>
        <time>2021-08-07T13:29:10.269Z</time>
      </trkpt>
      <trkpt lat="46.9138" lon="8.62331">
        <ele>464</ele>
        <time>2021-08-07T13:29:11.269Z</time>
      </trkpt>
      <trkpt lat="46.9138" lon="8.62331">
        <ele>464</ele>
        <time>2021-08-07T13:29:12.269Z</time>
      </trkpt>
      <trkpt lat="46.91379" lon="8.62331">
        <ele>464</ele>
        <time>2021-08-07T13:29:13.270Z</time>
      </trkpt>
      <trkpt lat="46.91379" lon="8.62332">
        <ele>464</ele>
        <time>2021-08-07T13:29:14.270Z</time>
      </trkpt>
      <trkpt lat="46.91379" lon="8.62331">
        <ele>464</ele>
        <time>2021-08-07T13:29:15.269Z</time>
      </trkpt>
      <trkpt lat="46.91378" lon="8.62331">
        <ele>464</ele>
        <time>2021-08-07T13:29:16.269Z</time>
      </trkpt>
      <trkpt lat="46.91378" lon="8.62331">
        <ele>464</ele>
        <time>2021-08-07T13:29:17.269Z</time>
      </trkpt>
      <trkpt lat="46.91377" lon="8.62331">
        <ele>464</ele>
        <time>2021-08-07T13:29:18.269Z</time>
      </trkpt>
      <trkpt lat="46.91377" lon="8.6233">
        <ele>464</ele>
        <time>2021-08-07T13:29:19.269Z</time>
      </trkpt>
      <trkpt lat="46.91377" lon="8.62329">
        <ele>464</ele>
        <time>2021-08-07T13:29:20.270Z</time>
      </trkpt>
      <trkpt lat="46.91376" lon="8.62329">
        <ele>464</ele>
        <time>2021-08-07T13:29:21.269Z</time>
      </trkpt>
      <trkpt lat="46.91376" lon="8.62328">
        <ele>464</ele>
        <time>2021-08-07T13:29:22.269Z</time>
      </trkpt>
      <trkpt lat="46.91376" lon="8.62328">
        <ele>464</ele>
        <time>2021-08-07T13:29:24.397Z</time>
      </trkpt>
      <trkpt lat="46.91376" lon="8.62327">
        <ele>464</ele>
        <time>2021-08-07T13:29:29.149Z</time>
      </trkpt>
      <trkpt lat="46.91375" lon="8.62326">
        <ele>464</ele>
        <time>2021-08-07T13:29:30.148Z</time>
      </trkpt>
      <trkpt lat="46.91374" lon="8.62324">
        <ele>464</ele>
        <time>2021-08-07T13:29:31.148Z</time>
      </trkpt>
      <trkpt lat="46.91374" lon="8.62324">
        <ele>464</ele>
        <time>2021-08-07T13:29:32.148Z</time>
      </trkpt>
      <trkpt lat="46.91374" lon="8.62326">
        <ele>464</ele>
        <time>2021-08-07T13:29:33.148Z</time>
      </trkpt>
      <trkpt lat="46.91374" lon="8.62327">
        <ele>464</ele>
        <time>2021-08-07T13:29:37.260Z</time>
      </trkpt>
      <trkpt lat="46.91374" lon="8.62327">
        <ele>464</ele>
        <time>2021-08-07T13:29:38.967Z</time>
      </trkpt>
      <trkpt lat="46.91375" lon="8.62327">
        <ele>464</ele>
        <time>2021-08-07T13:29:39.967Z</time>
      </trkpt>
      <trkpt lat="46.91375" lon="8.62326">
        <ele>464</ele>
        <time>2021-08-07T13:29:40.968Z</time>
      </trkpt>
      <trkpt lat="46.91376" lon="8.62325">
        <ele>464</ele>
        <time>2021-08-07T13:29:41.967Z</time>
      </trkpt>
      <trkpt lat="46.91376" lon="8.62324">
        <ele>464</ele>
        <time>2021-08-07T13:29:42.967Z</time>
      </trkpt>
      <trkpt lat="46.91377" lon="8.62324">
        <ele>464</ele>
        <time>2021-08-07T13:29:45.968Z</time>
      </trkpt>
      <trkpt lat="46.91378" lon="8.62324">
        <ele>464</ele>
        <time>2021-08-07T13:29:46.967Z</time>
      </trkpt>
      <trkpt lat="46.91378" lon="8.62323">
        <ele>464</ele>
        <time>2021-08-07T13:30:06.750Z</time>
      </trkpt>
      <trkpt lat="46.91379" lon="8.62323">
        <ele>464</ele>
        <time>2021-08-07T13:30:07.749Z</time>
      </trkpt>
      <trkpt lat="46.91378" lon="8.62322">
        <ele>464</ele>
        <time>2021-08-07T13:30:11.522Z</time>
      </trkpt>
      <trkpt lat="46.91378" lon="8.62322">
        <ele>464</ele>
        <time>2021-08-07T13:30:12.523Z</time>
      </trkpt>
      <trkpt lat="46.91378" lon="8.62322">
        <ele>464</ele>
        <time>2021-08-07T13:30:13.523Z</time>
      </trkpt>
      <trkpt lat="46.91378" lon="8.62322">
        <ele>465</ele>
        <time>2021-08-07T13:30:14.523Z</time>
      </trkpt>
      <trkpt lat="46.91378" lon="8.62322">
        <ele>465</ele>
        <time>2021-08-07T13:30:15.523Z</time>
      </trkpt>
      <trkpt lat="46.91378" lon="8.62323">
        <ele>465</ele>
        <time>2021-08-07T13:30:16.522Z</time>
      </trkpt>
      <trkpt lat="46.91379" lon="8.62325">
        <ele>465</ele>
        <time>2021-08-07T13:30:17.522Z</time>
      </trkpt>
      <trkpt lat="46.9138" lon="8.62326">
        <ele>465</ele>
        <time>2021-08-07T13:30:18.523Z</time>
      </trkpt>
      <trkpt lat="46.9138" lon="8.62326">
        <ele>465</ele>
        <time>2021-08-07T13:30:19.523Z</time>
      </trkpt>
      <trkpt lat="46.91381" lon="8.62326">
        <ele>465</ele>
        <time>2021-08-07T13:30:20.523Z</time>
      </trkpt>
      <trkpt lat="46.91382" lon="8.62327">
        <ele>465</ele>
        <time>2021-08-07T13:30:21.523Z</time>
      </trkpt>
      <trkpt lat="46.91383" lon="8.62328">
        <ele>464</ele>
        <time>2021-08-07T13:30:22.523Z</time>
      </trkpt>
      <trkpt lat="46.91383" lon="8.62329">
        <ele>465</ele>
        <time>2021-08-07T13:30:23.522Z</time>
      </trkpt>
      <trkpt lat="46.91383" lon="8.6233">
        <ele>465</ele>
        <time>2021-08-07T13:30:24.523Z</time>
      </trkpt>
      <trkpt lat="46.91383" lon="8.62331">
        <ele>466</ele>
        <time>2021-08-07T13:30:25.523Z</time>
      </trkpt>
      <trkpt lat="46.91383" lon="8.62334">
        <ele>466</ele>
        <time>2021-08-07T13:30:26.522Z</time>
      </trkpt>
      <trkpt lat="46.91383" lon="8.62337">
        <ele>466</ele>
        <time>2021-08-07T13:30:27.523Z</time>
      </trkpt>
      <trkpt lat="46.91383" lon="8.6234">
        <ele>467</ele>
        <time>2021-08-07T13:30:28.523Z</time>
      </trkpt>
      <trkpt lat="46.91384" lon="8.62341">
        <ele>467</ele>
        <time>2021-08-07T13:30:29.523Z</time>
      </trkpt>
      <trkpt lat="46.91384" lon="8.62342">
        <ele>467</ele>
        <time>2021-08-07T13:30:30.523Z</time>
      </trkpt>
      <trkpt lat="46.91385" lon="8.62342">
        <ele>467</ele>
        <time>2021-08-07T13:30:31.523Z</time>
      </trkpt>
      <trkpt lat="46.91385" lon="8.62343">
        <ele>467</ele>
        <time>2021-08-07T13:30:32.522Z</time>
      </trkpt>
      <trkpt lat="46.91385" lon="8.62344">
        <ele>467</ele>
        <time>2021-08-07T13:30:33.522Z</time>
      </trkpt>
      <trkpt lat="46.91384" lon="8.62345">
        <ele>467</ele>
        <time>2021-08-07T13:30:34.523Z</time>
      </trkpt>
      <trkpt lat="46.91383" lon="8.62345">
        <ele>466</ele>
        <time>2021-08-07T13:30:35.523Z</time>
      </trkpt>
      <trkpt lat="46.91382" lon="8.62346">
        <ele>467</ele>
        <time>2021-08-07T13:30:36.523Z</time>
      </trkpt>
      <trkpt lat="46.91382" lon="8.62348">
        <ele>467</ele>
        <time>2021-08-07T13:30:37.523Z</time>
      </trkpt>
      <trkpt lat="46.91383" lon="8.6235">
        <ele>467</ele>
        <time>2021-08-07T13:30:38.523Z</time>
      </trkpt>
      <trkpt lat="46.91383" lon="8.62351">
        <ele>467</ele>
        <time>2021-08-07T13:30:39.523Z</time>
      </trkpt>
      <trkpt lat="46.91383" lon="8.62353">
        <ele>466</ele>
        <time>2021-08-07T13:30:40.522Z</time>
      </trkpt>
      <trkpt lat="46.91382" lon="8.62354">
        <ele>466</ele>
        <time>2021-08-07T13:30:41.523Z</time>
      </trkpt>
      <trkpt lat="46.9138" lon="8.62347">
        <ele>464</ele>
        <time>2021-08-07T13:30:46.523Z</time>
      </trkpt>
      <trkpt lat="46.9138" lon="8.62349">
        <ele>464</ele>
        <time>2021-08-07T13:30:47.524Z</time>
      </trkpt>
      <trkpt lat="46.9138" lon="8.62349">
        <ele>463</ele>
        <time>2021-08-07T13:30:48.524Z</time>
      </trkpt>
      <trkpt lat="46.9138" lon="8.62348">
        <ele>463</ele>
        <time>2021-08-07T13:30:49.523Z</time>
      </trkpt>
      <trkpt lat="46.9138" lon="8.62349">
        <ele>463</ele>
        <time>2021-08-07T13:30:50.524Z</time>
      </trkpt>
      <trkpt lat="46.91381" lon="8.62349">
        <ele>463</ele>
        <time>2021-08-07T13:30:51.524Z</time>
      </trkpt>
      <trkpt lat="46.91381" lon="8.62349">
        <ele>463</ele>
        <time>2021-08-07T13:30:52.524Z</time>
      </trkpt>
      <trkpt lat="46.91381" lon="8.62349">
        <ele>463</ele>
        <time>2021-08-07T13:30:53.524Z</time>
      </trkpt>
      <trkpt lat="46.91381" lon="8.62349">
        <ele>463</ele>
        <time>2021-08-07T13:30:54.523Z</time>
      </trkpt>
      <trkpt lat="46.91381" lon="8.6235">
        <ele>463</ele>
        <time>2021-08-07T13:30:55.524Z</time>
      </trkpt>
      <trkpt lat="46.91381" lon="8.6235">
        <ele>463</ele>
        <time>2021-08-07T13:30:56.523Z</time>
      </trkpt>
      <trkpt lat="46.91381" lon="8.6235">
        <ele>463</ele>
        <time>2021-08-07T13:31:00.612Z</time>
      </trkpt>
      <trkpt lat="46.91381" lon="8.6235">
        <ele>463</ele>
        <time>2021-08-07T13:31:01.612Z</time>
      </trkpt>
      <trkpt lat="46.91381" lon="8.6235">
        <ele>463</ele>
        <time>2021-08-07T13:31:02.612Z</time>
      </trkpt>
      <trkpt lat="46.91381" lon="8.6235">
        <ele>463</ele>
        <time>2021-08-07T13:31:03.611Z</time>
      </trkpt>
      <trkpt lat="46.91381" lon="8.6235">
        <ele>463</ele>
        <time>2021-08-07T13:31:04.612Z</time>
      </trkpt>
      <trkpt lat="46.9138" lon="8.62351">
        <ele>463</ele>
        <time>2021-08-07T13:31:13.758Z</time>
      </trkpt>
      <trkpt lat="46.9138" lon="8.62352">
        <ele>464</ele>
        <time>2021-08-07T13:31:14.758Z</time>
      </trkpt>
      <trkpt lat="46.91379" lon="8.62353">
        <ele>464</ele>
        <time>2021-08-07T13:31:15.758Z</time>
      </trkpt>
      <trkpt lat="46.91379" lon="8.62354">
        <ele>464</ele>
        <time>2021-08-07T13:31:16.758Z</time>
      </trkpt>
      <trkpt lat="46.91379" lon="8.62355">
        <ele>464</ele>
        <time>2021-08-07T13:31:17.758Z</time>
      </trkpt>
      <trkpt lat="46.91379" lon="8.62355">
        <ele>465</ele>
        <time>2021-08-07T13:31:18.757Z</time>
      </trkpt>
      <trkpt lat="46.91379" lon="8.62355">
        <ele>465</ele>
        <time>2021-08-07T13:31:19.758Z</time>
      </trkpt>
      <trkpt lat="46.91379" lon="8.62356">
        <ele>465</ele>
        <time>2021-08-07T13:31:20.757Z</time>
      </trkpt>
      <trkpt lat="46.91379" lon="8.62357">
        <ele>465</ele>
        <time>2021-08-07T13:31:21.758Z</time>
      </trkpt>
      <trkpt lat="46.91382" lon="8.62358">
        <ele>466</ele>
        <time>2021-08-07T13:33:51.104Z</time>
      </trkpt>
      <trkpt lat="46.91388" lon="8.62372">
        <ele>466</ele>
        <time>2021-08-07T13:33:55.121Z</time>
      </trkpt>
      <trkpt lat="46.91389" lon="8.62366">
        <ele>466</ele>
        <time>2021-08-07T13:33:56.121Z</time>
      </trkpt>
      <trkpt lat="46.91391" lon="8.62359">
        <ele>466</ele>
        <time>2021-08-07T13:33:57.122Z</time>
      </trkpt>
      <trkpt lat="46.91392" lon="8.62364">
        <ele>467</ele>
        <time>2021-08-07T13:33:58.121Z</time>
      </trkpt>
      <trkpt lat="46.91391" lon="8.6236">
        <ele>467</ele>
        <time>2021-08-07T13:33:59.122Z</time>
      </trkpt>
      <trkpt lat="46.9139" lon="8.62355">
        <ele>467</ele>
        <time>2021-08-07T13:34:00.121Z</time>
      </trkpt>
      <trkpt lat="46.91389" lon="8.62353">
        <ele>467</ele>
        <time>2021-08-07T13:34:01.122Z</time>
      </trkpt>
      <trkpt lat="46.91388" lon="8.62351">
        <ele>467</ele>
        <time>2021-08-07T13:34:02.122Z</time>
      </trkpt>
      <trkpt lat="46.91388" lon="8.62351">
        <ele>467</ele>
        <time>2021-08-07T13:34:03.121Z</time>
      </trkpt>
      <trkpt lat="46.91388" lon="8.6235">
        <ele>468</ele>
        <time>2021-08-07T13:34:04.123Z</time>
      </trkpt>
      <trkpt lat="46.91388" lon="8.62349">
        <ele>470</ele>
        <time>2021-08-07T13:34:05.124Z</time>
      </trkpt>
      <trkpt lat="46.91389" lon="8.62349">
        <ele>470</ele>
        <time>2021-08-07T13:34:06.124Z</time>
      </trkpt>
      <trkpt lat="46.91389" lon="8.6235">
        <ele>471</ele>
        <time>2021-08-07T13:34:07.123Z</time>
      </trkpt>
      <trkpt lat="46.91389" lon="8.6235">
        <ele>471</ele>
        <time>2021-08-07T13:34:08.123Z</time>
      </trkpt>
      <trkpt lat="46.91389" lon="8.62351">
        <ele>471</ele>
        <time>2021-08-07T13:34:09.124Z</time>
      </trkpt>
      <trkpt lat="46.91392" lon="8.6236">
        <ele>469</ele>
        <time>2021-08-07T13:34:10.123Z</time>
      </trkpt>
      <trkpt lat="46.91392" lon="8.6236">
        <ele>468</ele>
        <time>2021-08-07T13:34:11.123Z</time>
      </trkpt>
      <trkpt lat="46.91392" lon="8.6236">
        <ele>468</ele>
        <time>2021-08-07T13:34:12.123Z</time>
      </trkpt>
      <trkpt lat="46.91393" lon="8.62362">
        <ele>464</ele>
        <time>2021-08-07T13:34:13.123Z</time>
      </trkpt>
      <trkpt lat="46.91393" lon="8.62362">
        <ele>463</ele>
        <time>2021-08-07T13:34:14.123Z</time>
      </trkpt>
      <trkpt lat="46.91393" lon="8.62363">
        <ele>462</ele>
        <time>2021-08-07T13:34:15.124Z</time>
      </trkpt>
      <trkpt lat="46.91393" lon="8.62362">
        <ele>462</ele>
        <time>2021-08-07T13:34:18.215Z</time>
      </trkpt>
      <trkpt lat="46.91393" lon="8.62362">
        <ele>461</ele>
        <time>2021-08-07T13:34:19.215Z</time>
      </trkpt>
      <trkpt lat="46.91393" lon="8.62362">
        <ele>460</ele>
        <time>2021-08-07T13:34:20.215Z</time>
      </trkpt>
      <trkpt lat="46.91393" lon="8.62363">
        <ele>459</ele>
        <time>2021-08-07T13:34:21.214Z</time>
      </trkpt>
      <trkpt lat="46.91393" lon="8.62363">
        <ele>458</ele>
        <time>2021-08-07T13:34:22.214Z</time>
      </trkpt>
      <trkpt lat="46.91393" lon="8.62363">
        <ele>457</ele>
        <time>2021-08-07T13:34:23.214Z</time>
      </trkpt>
      <trkpt lat="46.91392" lon="8.62359">
        <ele>454</ele>
        <time>2021-08-07T13:34:24.215Z</time>
      </trkpt>
      <trkpt lat="46.91391" lon="8.62358">
        <ele>454</ele>
        <time>2021-08-07T13:34:25.215Z</time>
      </trkpt>
      <trkpt lat="46.9139" lon="8.62357">
        <ele>454</ele>
        <time>2021-08-07T13:34:26.216Z</time>
      </trkpt>
      <trkpt lat="46.91389" lon="8.62357">
        <ele>454</ele>
        <time>2021-08-07T13:34:27.216Z</time>
      </trkpt>
      <trkpt lat="46.91388" lon="8.62356">
        <ele>455</ele>
        <time>2021-08-07T13:34:28.216Z</time>
      </trkpt>
      <trkpt lat="46.91388" lon="8.62357">
        <ele>455</ele>
        <time>2021-08-07T13:34:29.215Z</time>
      </trkpt>
      <trkpt lat="46.91388" lon="8.62358">
        <ele>455</ele>
        <time>2021-08-07T13:34:30.215Z</time>
      </trkpt>
      <trkpt lat="46.91388" lon="8.62358">
        <ele>455</ele>
        <time>2021-08-07T13:34:31.215Z</time>
      </trkpt>
      <trkpt lat="46.91387" lon="8.62358">
        <ele>456</ele>
        <time>2021-08-07T13:34:32.215Z</time>
      </trkpt>
      <trkpt lat="46.91387" lon="8.62359">
        <ele>456</ele>
        <time>2021-08-07T13:34:33.215Z</time>
      </trkpt>
      <trkpt lat="46.91386" lon="8.62358">
        <ele>456</ele>
        <time>2021-08-07T13:34:34.216Z</time>
      </trkpt>
      <trkpt lat="46.91385" lon="8.62357">
        <ele>457</ele>
        <time>2021-08-07T13:34:35.215Z</time>
      </trkpt>
      <trkpt lat="46.91384" lon="8.62356">
        <ele>457</ele>
        <time>2021-08-07T13:34:36.215Z</time>
      </trkpt>
      <trkpt lat="46.91383" lon="8.62355">
        <ele>457</ele>
        <time>2021-08-07T13:34:37.216Z</time>
      </trkpt>
      <trkpt lat="46.91383" lon="8.62353">
        <ele>458</ele>
        <time>2021-08-07T13:34:38.215Z</time>
      </trkpt>
      <trkpt lat="46.91382" lon="8.62351">
        <ele>458</ele>
        <time>2021-08-07T13:34:39.215Z</time>
      </trkpt>
      <trkpt lat="46.91383" lon="8.62349">
        <ele>458</ele>
        <time>2021-08-07T13:34:40.215Z</time>
      </trkpt>
      <trkpt lat="46.91384" lon="8.62348">
        <ele>458</ele>
        <time>2021-08-07T13:34:41.216Z</time>
      </trkpt>
      <trkpt lat="46.91385" lon="8.62348">
        <ele>458</ele>
        <time>2021-08-07T13:34:42.215Z</time>
      </trkpt>
      <trkpt lat="46.91386" lon="8.62348">
        <ele>459</ele>
        <time>2021-08-07T13:34:43.216Z</time>
      </trkpt>
      <trkpt lat="46.91386" lon="8.62348">
        <ele>459</ele>
        <time>2021-08-07T13:34:44.216Z</time>
      </trkpt>
      <trkpt lat="46.91387" lon="8.62348">
        <ele>459</ele>
        <time>2021-08-07T13:34:45.216Z</time>
      </trkpt>
      <trkpt lat="46.91387" lon="8.62349">
        <ele>459</ele>
        <time>2021-08-07T13:34:46.216Z</time>
      </trkpt>
      <trkpt lat="46.91386" lon="8.62352">
        <ele>459</ele>
        <time>2021-08-07T13:34:47.216Z</time>
      </trkpt>
      <trkpt lat="46.91386" lon="8.62353">
        <ele>459</ele>
        <time>2021-08-07T13:34:48.215Z</time>
      </trkpt>
      <trkpt lat="46.91385" lon="8.62354">
        <ele>460</ele>
        <time>2021-08-07T13:34:49.215Z</time>
      </trkpt>
      <trkpt lat="46.91384" lon="8.62354">
        <ele>460</ele>
        <time>2021-08-07T13:34:50.216Z</time>
      </trkpt>
      <trkpt lat="46.91384" lon="8.62354">
        <ele>460</ele>
        <time>2021-08-07T13:34:51.216Z</time>
      </trkpt>
      <trkpt lat="46.91384" lon="8.62355">
        <ele>460</ele>
        <time>2021-08-07T13:34:52.215Z</time>
      </trkpt>
      <trkpt lat="46.91384" lon="8.62355">
        <ele>460</ele>
        <time>2021-08-07T13:34:53.216Z</time>
      </trkpt>
      <trkpt lat="46.91384" lon="8.62355">
        <ele>461</ele>
        <time>2021-08-07T13:34:54.215Z</time>
      </trkpt>
      <trkpt lat="46.91385" lon="8.62355">
        <ele>461</ele>
        <time>2021-08-07T13:34:55.216Z</time>
      </trkpt>
      <trkpt lat="46.91385" lon="8.62354">
        <ele>461</ele>
        <time>2021-08-07T13:34:56.215Z</time>
      </trkpt>
      <trkpt lat="46.91386" lon="8.62355">
        <ele>461</ele>
        <time>2021-08-07T13:34:57.216Z</time>
      </trkpt>
      <trkpt lat="46.91386" lon="8.62355">
        <ele>462</ele>
        <time>2021-08-07T13:34:58.215Z</time>
      </trkpt>
      <trkpt lat="46.91387" lon="8.62356">
        <ele>462</ele>
        <time>2021-08-07T13:34:59.216Z</time>
      </trkpt>
      <trkpt lat="46.91388" lon="8.62356">
        <ele>462</ele>
        <time>2021-08-07T13:35:00.215Z</time>
      </trkpt>
      <trkpt lat="46.91389" lon="8.62356">
        <ele>462</ele>
        <time>2021-08-07T13:35:01.216Z</time>
      </trkpt>
      <trkpt lat="46.91389" lon="8.62357">
        <ele>462</ele>
        <time>2021-08-07T13:35:02.215Z</time>
      </trkpt>
      <trkpt lat="46.91389" lon="8.62358">
        <ele>462</ele>
        <time>2021-08-07T13:35:03.216Z</time>
      </trkpt>
      <trkpt lat="46.9139" lon="8.62359">
        <ele>462</ele>
        <time>2021-08-07T13:35:04.216Z</time>
      </trkpt>
      <trkpt lat="46.91392" lon="8.6236">
        <ele>462</ele>
        <time>2021-08-07T13:35:05.216Z</time>
      </trkpt>
      <trkpt lat="46.91394" lon="8.62362">
        <ele>462</ele>
        <time>2021-08-07T13:35:06.215Z</time>
      </trkpt>
      <trkpt lat="46.91396" lon="8.62363">
        <ele>462</ele>
        <time>2021-08-07T13:35:07.215Z</time>
      </trkpt>
      <trkpt lat="46.91397" lon="8.62364">
        <ele>462</ele>
        <time>2021-08-07T13:35:08.215Z</time>
      </trkpt>
      <trkpt lat="46.91398" lon="8.62366">
        <ele>462</ele>
        <time>2021-08-07T13:35:09.215Z</time>
      </trkpt>
      <trkpt lat="46.91397" lon="8.62367">
        <ele>462</ele>
        <time>2021-08-07T13:35:10.215Z</time>
      </trkpt>
      <trkpt lat="46.91393" lon="8.6237">
        <ele>462</ele>
        <time>2021-08-07T13:35:11.215Z</time>
      </trkpt>
      <trkpt lat="46.91392" lon="8.62374">
        <ele>462</ele>
        <time>2021-08-07T13:35:12.215Z</time>
      </trkpt>
      <trkpt lat="46.91391" lon="8.6238">
        <ele>462</ele>
        <time>2021-08-07T13:35:23.233Z</time>
      </trkpt>
      <trkpt lat="46.91389" lon="8.62384">
        <ele>462</ele>
        <time>2021-08-07T13:35:24.233Z</time>
      </trkpt>
      <trkpt lat="46.91387" lon="8.62385">
        <ele>461</ele>
        <time>2021-08-07T13:35:26.233Z</time>
      </trkpt>
      <trkpt lat="46.91385" lon="8.62384">
        <ele>461</ele>
        <time>2021-08-07T13:35:27.232Z</time>
      </trkpt>
      <trkpt lat="46.91386" lon="8.62383">
        <ele>461</ele>
        <time>2021-08-07T13:35:28.232Z</time>
      </trkpt>
      <trkpt lat="46.91387" lon="8.62383">
        <ele>461</ele>
        <time>2021-08-07T13:35:29.233Z</time>
      </trkpt>
      <trkpt lat="46.91389" lon="8.62383">
        <ele>461</ele>
        <time>2021-08-07T13:35:30.233Z</time>
      </trkpt>
      <trkpt lat="46.91391" lon="8.62383">
        <ele>461</ele>
        <time>2021-08-07T13:35:33.235Z</time>
      </trkpt>
      <trkpt lat="46.91392" lon="8.62382">
        <ele>461</ele>
        <time>2021-08-07T13:35:34.235Z</time>
      </trkpt>
      <trkpt lat="46.91393" lon="8.62382">
        <ele>461</ele>
        <time>2021-08-07T13:35:35.234Z</time>
      </trkpt>
      <trkpt lat="46.91393" lon="8.62381">
        <ele>461</ele>
        <time>2021-08-07T13:35:36.234Z</time>
      </trkpt>
      <trkpt lat="46.91394" lon="8.62379">
        <ele>461</ele>
        <time>2021-08-07T13:35:44.249Z</time>
      </trkpt>
      <trkpt lat="46.91394" lon="8.62377">
        <ele>461</ele>
        <time>2021-08-07T13:35:45.249Z</time>
      </trkpt>
      <trkpt lat="46.91396" lon="8.62377">
        <ele>461</ele>
        <time>2021-08-07T13:35:46.249Z</time>
      </trkpt>
      <trkpt lat="46.91397" lon="8.62378">
        <ele>461</ele>
        <time>2021-08-07T13:35:47.249Z</time>
      </trkpt>
      <trkpt lat="46.91398" lon="8.6238">
        <ele>461</ele>
        <time>2021-08-07T13:35:50.249Z</time>
      </trkpt>
      <trkpt lat="46.91398" lon="8.62381">
        <ele>461</ele>
        <time>2021-08-07T13:35:51.250Z</time>
      </trkpt>
      <trkpt lat="46.91398" lon="8.62376">
        <ele>461</ele>
        <time>2021-08-07T13:35:53.249Z</time>
      </trkpt>
      <trkpt lat="46.91399" lon="8.62373">
        <ele>461</ele>
        <time>2021-08-07T13:35:54.250Z</time>
      </trkpt>
      <trkpt lat="46.914" lon="8.62372">
        <ele>461</ele>
        <time>2021-08-07T13:35:55.250Z</time>
      </trkpt>
      <trkpt lat="46.91401" lon="8.62371">
        <ele>461</ele>
        <time>2021-08-07T13:35:56.250Z</time>
      </trkpt>
      <trkpt lat="46.91401" lon="8.6237">
        <ele>461</ele>
        <time>2021-08-07T13:35:57.249Z</time>
      </trkpt>
      <trkpt lat="46.91399" lon="8.62373">
        <ele>461</ele>
        <time>2021-08-07T13:35:59.249Z</time>
      </trkpt>
      <trkpt lat="46.91398" lon="8.62373">
        <ele>461</ele>
        <time>2021-08-07T13:36:00.249Z</time>
      </trkpt>
      <trkpt lat="46.91396" lon="8.62373">
        <ele>461</ele>
        <time>2021-08-07T13:36:01.249Z</time>
      </trkpt>
      <trkpt lat="46.91396" lon="8.62373">
        <ele>461</ele>
        <time>2021-08-07T13:36:02.249Z</time>
      </trkpt>
      <trkpt lat="46.91396" lon="8.62373">
        <ele>461</ele>
        <time>2021-08-07T13:36:03.250Z</time>
      </trkpt>
      <trkpt lat="46.91396" lon="8.62373">
        <ele>460</ele>
        <time>2021-08-07T13:36:04.250Z</time>
      </trkpt>
      <trkpt lat="46.91396" lon="8.62374">
        <ele>460</ele>
        <time>2021-08-07T13:36:05.250Z</time>
      </trkpt>
      <trkpt lat="46.91396" lon="8.62379">
        <ele>460</ele>
        <time>2021-08-07T13:36:06.249Z</time>
      </trkpt>
      <trkpt lat="46.91396" lon="8.62388">
        <ele>460</ele>
        <time>2021-08-07T13:36:07.249Z</time>
      </trkpt>
      <trkpt lat="46.91396" lon="8.62394">
        <ele>460</ele>
        <time>2021-08-07T13:36:18.292Z</time>
      </trkpt>
      <trkpt lat="46.91395" lon="8.62397">
        <ele>460</ele>
        <time>2021-08-07T13:36:19.292Z</time>
      </trkpt>
      <trkpt lat="46.91395" lon="8.62399">
        <ele>460</ele>
        <time>2021-08-07T13:36:20.291Z</time>
      </trkpt>
      <trkpt lat="46.91394" lon="8.62399">
        <ele>460</ele>
        <time>2021-08-07T13:36:21.292Z</time>
      </trkpt>
      <trkpt lat="46.91393" lon="8.624">
        <ele>460</ele>
        <time>2021-08-07T13:36:22.291Z</time>
      </trkpt>
      <trkpt lat="46.91393" lon="8.62401">
        <ele>460</ele>
        <time>2021-08-07T13:36:23.292Z</time>
      </trkpt>
      <trkpt lat="46.91392" lon="8.62401">
        <ele>460</ele>
        <time>2021-08-07T13:36:24.292Z</time>
      </trkpt>
      <trkpt lat="46.91392" lon="8.62401">
        <ele>460</ele>
        <time>2021-08-07T13:36:25.291Z</time>
      </trkpt>
      <trkpt lat="46.91391" lon="8.62401">
        <ele>460</ele>
        <time>2021-08-07T13:36:26.292Z</time>
      </trkpt>
      <trkpt lat="46.91391" lon="8.624">
        <ele>460</ele>
        <time>2021-08-07T13:36:27.292Z</time>
      </trkpt>
      <trkpt lat="46.91391" lon="8.624">
        <ele>460</ele>
        <time>2021-08-07T13:36:28.291Z</time>
      </trkpt>
      <trkpt lat="46.91392" lon="8.624">
        <ele>460</ele>
        <time>2021-08-07T13:36:29.291Z</time>
      </trkpt>
      <trkpt lat="46.91392" lon="8.62402">
        <ele>460</ele>
        <time>2021-08-07T13:36:30.291Z</time>
      </trkpt>
      <trkpt lat="46.91392" lon="8.62404">
        <ele>460</ele>
        <time>2021-08-07T13:36:31.291Z</time>
      </trkpt>
      <trkpt lat="46.91391" lon="8.62405">
        <ele>460</ele>
        <time>2021-08-07T13:36:32.292Z</time>
      </trkpt>
      <trkpt lat="46.91391" lon="8.62404">
        <ele>460</ele>
        <time>2021-08-07T13:36:33.292Z</time>
      </trkpt>
      <trkpt lat="46.9139" lon="8.62405">
        <ele>460</ele>
        <time>2021-08-07T13:36:34.291Z</time>
      </trkpt>
      <trkpt lat="46.9139" lon="8.62406">
        <ele>460</ele>
        <time>2021-08-07T13:36:35.291Z</time>
      </trkpt>
      <trkpt lat="46.9139" lon="8.62404">
        <ele>460</ele>
        <time>2021-08-07T13:36:36.291Z</time>
      </trkpt>
      <trkpt lat="46.9139" lon="8.62402">
        <ele>460</ele>
        <time>2021-08-07T13:36:37.291Z</time>
      </trkpt>
      <trkpt lat="46.9139" lon="8.62401">
        <ele>460</ele>
        <time>2021-08-07T13:36:38.292Z</time>
      </trkpt>
      <trkpt lat="46.9139" lon="8.624">
        <ele>460</ele>
        <time>2021-08-07T13:36:39.292Z</time>
      </trkpt>
      <trkpt lat="46.9139" lon="8.62397">
        <ele>460</ele>
        <time>2021-08-07T13:36:40.292Z</time>
      </trkpt>
      <trkpt lat="46.9139" lon="8.62397">
        <ele>460</ele>
        <time>2021-08-07T13:36:41.291Z</time>
      </trkpt>
      <trkpt lat="46.9139" lon="8.62398">
        <ele>460</ele>
        <time>2021-08-07T13:36:42.292Z</time>
      </trkpt>
      <trkpt lat="46.9139" lon="8.62399">
        <ele>460</ele>
        <time>2021-08-07T13:36:55.369Z</time>
      </trkpt>
      <trkpt lat="46.91391" lon="8.62402">
        <ele>460</ele>
        <time>2021-08-07T13:36:56.369Z</time>
      </trkpt>
      <trkpt lat="46.91391" lon="8.62403">
        <ele>460</ele>
        <time>2021-08-07T13:36:57.369Z</time>
      </trkpt>
      <trkpt lat="46.91391" lon="8.62404">
        <ele>460</ele>
        <time>2021-08-07T13:36:58.370Z</time>
      </trkpt>
      <trkpt lat="46.9139" lon="8.62404">
        <ele>460</ele>
        <time>2021-08-07T13:36:59.369Z</time>
      </trkpt>
      <trkpt lat="46.91389" lon="8.62403">
        <ele>460</ele>
        <time>2021-08-07T13:37:04.481Z</time>
      </trkpt>
      <trkpt lat="46.91389" lon="8.62401">
        <ele>460</ele>
        <time>2021-08-07T13:37:05.480Z</time>
      </trkpt>
      <trkpt lat="46.91388" lon="8.62402">
        <ele>460</ele>
        <time>2021-08-07T13:37:06.481Z</time>
      </trkpt>
      <trkpt lat="46.91387" lon="8.62404">
        <ele>460</ele>
        <time>2021-08-07T13:37:07.481Z</time>
      </trkpt>
      <trkpt lat="46.91387" lon="8.62404">
        <ele>460</ele>
        <time>2021-08-07T13:37:15.632Z</time>
      </trkpt>
      <trkpt lat="46.91388" lon="8.62405">
        <ele>460</ele>
        <time>2021-08-07T13:37:16.631Z</time>
      </trkpt>
      <trkpt lat="46.91389" lon="8.62405">
        <ele>460</ele>
        <time>2021-08-07T13:37:25.495Z</time>
      </trkpt>
      <trkpt lat="46.91388" lon="8.62405">
        <ele>460</ele>
        <time>2021-08-07T13:37:26.495Z</time>
      </trkpt>
      <trkpt lat="46.91388" lon="8.62402">
        <ele>460</ele>
        <time>2021-08-07T13:37:27.494Z</time>
      </trkpt>
      <trkpt lat="46.91388" lon="8.62401">
        <ele>460</ele>
        <time>2021-08-07T13:37:35.514Z</time>
      </trkpt>
      <trkpt lat="46.91388" lon="8.624">
        <ele>460</ele>
        <time>2021-08-07T13:37:36.514Z</time>
      </trkpt>
      <trkpt lat="46.91388" lon="8.62397">
        <ele>460</ele>
        <time>2021-08-07T13:37:37.514Z</time>
      </trkpt>
      <trkpt lat="46.91389" lon="8.62395">
        <ele>460</ele>
        <time>2021-08-07T13:37:38.514Z</time>
      </trkpt>
      <trkpt lat="46.91389" lon="8.62394">
        <ele>460</ele>
        <time>2021-08-07T13:37:39.514Z</time>
      </trkpt>
      <trkpt lat="46.914" lon="8.62413">
        <ele>460</ele>
        <time>2021-08-07T13:38:30.515Z</time>
      </trkpt>
      <trkpt lat="46.91391" lon="8.62374">
        <ele>460</ele>
        <time>2021-08-07T13:38:35.514Z</time>
      </trkpt>
      <trkpt lat="46.91384" lon="8.6235">
        <ele>460</ele>
        <time>2021-08-07T13:38:36.515Z</time>
      </trkpt>
      <trkpt lat="46.91379" lon="8.62342">
        <ele>460</ele>
        <time>2021-08-07T13:38:37.514Z</time>
      </trkpt>
      <trkpt lat="46.91375" lon="8.62312">
        <ele>460</ele>
        <time>2021-08-07T13:39:06.356Z</time>
      </trkpt>
      <trkpt lat="46.91374" lon="8.62308">
        <ele>460</ele>
        <time>2021-08-07T13:39:07.357Z</time>
      </trkpt>
      <trkpt lat="46.91375" lon="8.62325">
        <ele>460</ele>
        <time>2021-08-07T13:39:08.357Z</time>
      </trkpt>
      <trkpt lat="46.91374" lon="8.62318">
        <ele>460</ele>
        <time>2021-08-07T13:39:09.357Z</time>
      </trkpt>
      <trkpt lat="46.91374" lon="8.62313">
        <ele>460</ele>
        <time>2021-08-07T13:39:11.357Z</time>
      </trkpt>
      <trkpt lat="46.91379" lon="8.62323">
        <ele>459</ele>
        <time>2021-08-07T13:39:12.356Z</time>
      </trkpt>
      <trkpt lat="46.91379" lon="8.62324">
        <ele>459</ele>
        <time>2021-08-07T13:39:13.357Z</time>
      </trkpt>
      <trkpt lat="46.91379" lon="8.62325">
        <ele>459</ele>
        <time>2021-08-07T13:39:14.356Z</time>
      </trkpt>
      <trkpt lat="46.91378" lon="8.62325">
        <ele>459</ele>
        <time>2021-08-07T13:39:15.357Z</time>
      </trkpt>
      <trkpt lat="46.91378" lon="8.62324">
        <ele>459</ele>
        <time>2021-08-07T13:39:16.357Z</time>
      </trkpt>
      <trkpt lat="46.91378" lon="8.62326">
        <ele>459</ele>
        <time>2021-08-07T13:39:17.357Z</time>
      </trkpt>
      <trkpt lat="46.91378" lon="8.62327">
        <ele>459</ele>
        <time>2021-08-07T13:39:18.356Z</time>
      </trkpt>
      <trkpt lat="46.91378" lon="8.62328">
        <ele>460</ele>
        <time>2021-08-07T13:39:19.357Z</time>
      </trkpt>
      <trkpt lat="46.91378" lon="8.62328">
        <ele>460</ele>
        <time>2021-08-07T13:39:20.357Z</time>
      </trkpt>
      <trkpt lat="46.91378" lon="8.62329">
        <ele>461</ele>
        <time>2021-08-07T13:39:21.356Z</time>
      </trkpt>
      <trkpt lat="46.91379" lon="8.6233">
        <ele>461</ele>
        <time>2021-08-07T13:39:22.357Z</time>
      </trkpt>
      <trkpt lat="46.9138" lon="8.62331">
        <ele>462</ele>
        <time>2021-08-07T13:39:23.356Z</time>
      </trkpt>
      <trkpt lat="46.91379" lon="8.62331">
        <ele>462</ele>
        <time>2021-08-07T13:39:25.470Z</time>
      </trkpt>
      <trkpt lat="46.91378" lon="8.62332">
        <ele>462</ele>
        <time>2021-08-07T13:39:26.471Z</time>
      </trkpt>
      <trkpt lat="46.91376" lon="8.6233">
        <ele>462</ele>
        <time>2021-08-07T13:39:29.224Z</time>
      </trkpt>
      <trkpt lat="46.91375" lon="8.6233">
        <ele>462</ele>
        <time>2021-08-07T13:39:30.224Z</time>
      </trkpt>
      <trkpt lat="46.91374" lon="8.62334">
        <ele>462</ele>
        <time>2021-08-07T13:39:31.224Z</time>
      </trkpt>
      <trkpt lat="46.91374" lon="8.62337">
        <ele>462</ele>
        <time>2021-08-07T13:39:35.266Z</time>
      </trkpt>
      <trkpt lat="46.91375" lon="8.62341">
        <ele>462</ele>
        <time>2021-08-07T13:39:36.266Z</time>
      </trkpt>
      <trkpt lat="46.91375" lon="8.62344">
        <ele>462</ele>
        <time>2021-08-07T13:39:37.266Z</time>
      </trkpt>
      <trkpt lat="46.91377" lon="8.62347">
        <ele>462</ele>
        <time>2021-08-07T13:39:38.267Z</time>
      </trkpt>
      <trkpt lat="46.91378" lon="8.62349">
        <ele>462</ele>
        <time>2021-08-07T13:39:40.376Z</time>
      </trkpt>
      <trkpt lat="46.91379" lon="8.62349">
        <ele>462</ele>
        <time>2021-08-07T13:39:41.376Z</time>
      </trkpt>
      <trkpt lat="46.9138" lon="8.62348">
        <ele>462</ele>
        <time>2021-08-07T13:39:42.376Z</time>
      </trkpt>
      <trkpt lat="46.91381" lon="8.62349">
        <ele>462</ele>
        <time>2021-08-07T13:39:43.376Z</time>
      </trkpt>
      <trkpt lat="46.91381" lon="8.62349">
        <ele>462</ele>
        <time>2021-08-07T13:39:44.376Z</time>
      </trkpt>
      <trkpt lat="46.91381" lon="8.62346">
        <ele>463</ele>
        <time>2021-08-07T13:39:45.376Z</time>
      </trkpt>
      <trkpt lat="46.91381" lon="8.6234">
        <ele>463</ele>
        <time>2021-08-07T13:39:46.377Z</time>
      </trkpt>
      <trkpt lat="46.91381" lon="8.62338">
        <ele>463</ele>
        <time>2021-08-07T13:39:47.377Z</time>
      </trkpt>
      <trkpt lat="46.91382" lon="8.62336">
        <ele>463</ele>
        <time>2021-08-07T13:39:48.376Z</time>
      </trkpt>
      <trkpt lat="46.91382" lon="8.62333">
        <ele>463</ele>
        <time>2021-08-07T13:39:49.377Z</time>
      </trkpt>
      <trkpt lat="46.91383" lon="8.62335">
        <ele>464</ele>
        <time>2021-08-07T13:39:50.376Z</time>
      </trkpt>
      <trkpt lat="46.91383" lon="8.62338">
        <ele>464</ele>
        <time>2021-08-07T13:39:51.377Z</time>
      </trkpt>
      <trkpt lat="46.91383" lon="8.62339">
        <ele>464</ele>
        <time>2021-08-07T13:39:59.539Z</time>
      </trkpt>
      <trkpt lat="46.91382" lon="8.62338">
        <ele>464</ele>
        <time>2021-08-07T13:40:00.540Z</time>
      </trkpt>
      <trkpt lat="46.91382" lon="8.62337">
        <ele>464</ele>
        <time>2021-08-07T13:40:08.387Z</time>
      </trkpt>
      <trkpt lat="46.91382" lon="8.62336">
        <ele>464</ele>
        <time>2021-08-07T13:40:09.386Z</time>
      </trkpt>
      <trkpt lat="46.91383" lon="8.62336">
        <ele>464</ele>
        <time>2021-08-07T13:40:10.387Z</time>
      </trkpt>
      <trkpt lat="46.91383" lon="8.62336">
        <ele>465</ele>
        <time>2021-08-07T13:40:11.387Z</time>
      </trkpt>
      <trkpt lat="46.91383" lon="8.62337">
        <ele>465</ele>
        <time>2021-08-07T13:40:12.387Z</time>
      </trkpt>
      <trkpt lat="46.91382" lon="8.6234">
        <ele>465</ele>
        <time>2021-08-07T13:40:13.387Z</time>
      </trkpt>
      <trkpt lat="46.91382" lon="8.62342">
        <ele>465</ele>
        <time>2021-08-07T13:40:27.511Z</time>
      </trkpt>
      <trkpt lat="46.91382" lon="8.62345">
        <ele>464</ele>
        <time>2021-08-07T13:40:28.511Z</time>
      </trkpt>
      <trkpt lat="46.91382" lon="8.62346">
        <ele>464</ele>
        <time>2021-08-07T13:40:29.511Z</time>
      </trkpt>
      <trkpt lat="46.91381" lon="8.62348">
        <ele>464</ele>
        <time>2021-08-07T13:40:30.511Z</time>
      </trkpt>
      <trkpt lat="46.91381" lon="8.62348">
        <ele>463</ele>
        <time>2021-08-07T13:40:57.633Z</time>
      </trkpt>
      <trkpt lat="46.91381" lon="8.62349">
        <ele>463</ele>
        <time>2021-08-07T13:40:58.633Z</time>
      </trkpt>
      <trkpt lat="46.91382" lon="8.62353">
        <ele>463</ele>
        <time>2021-08-07T13:40:59.633Z</time>
      </trkpt>
      <trkpt lat="46.91382" lon="8.62355">
        <ele>463</ele>
        <time>2021-08-07T13:41:06.738Z</time>
      </trkpt>
      <trkpt lat="46.91382" lon="8.62356">
        <ele>463</ele>
        <time>2021-08-07T13:41:07.737Z</time>
      </trkpt>
      <trkpt lat="46.91381" lon="8.62353">
        <ele>462</ele>
        <time>2021-08-07T13:41:23.850Z</time>
      </trkpt>
      <trkpt lat="46.9138" lon="8.62349">
        <ele>462</ele>
        <time>2021-08-07T13:41:24.849Z</time>
      </trkpt>
      <trkpt lat="46.9138" lon="8.6235">
        <ele>462</ele>
        <time>2021-08-07T13:41:25.849Z</time>
      </trkpt>
      <trkpt lat="46.91381" lon="8.62352">
        <ele>462</ele>
        <time>2021-08-07T13:41:31.725Z</time>
      </trkpt>
      <trkpt lat="46.91382" lon="8.62354">
        <ele>462</ele>
        <time>2021-08-07T13:41:32.725Z</time>
      </trkpt>
      <trkpt lat="46.91383" lon="8.62356">
        <ele>462</ele>
        <time>2021-08-07T13:41:33.725Z</time>
      </trkpt>
      <trkpt lat="46.91383" lon="8.62356">
        <ele>462</ele>
        <time>2021-08-07T13:41:34.725Z</time>
      </trkpt>
      <trkpt lat="46.91384" lon="8.62356">
        <ele>461</ele>
        <time>2021-08-07T13:41:35.725Z</time>
      </trkpt>
      <trkpt lat="46.91385" lon="8.62357">
        <ele>461</ele>
        <time>2021-08-07T13:41:47.897Z</time>
      </trkpt>
      <trkpt lat="46.91385" lon="8.62358">
        <ele>461</ele>
        <time>2021-08-07T13:41:48.898Z</time>
      </trkpt>
      <trkpt lat="46.91385" lon="8.62358">
        <ele>460</ele>
        <time>2021-08-07T13:41:49.897Z</time>
      </trkpt>
      <trkpt lat="46.91385" lon="8.62358">
        <ele>460</ele>
        <time>2021-08-07T13:41:50.898Z</time>
      </trkpt>
      <trkpt lat="46.91384" lon="8.62358">
        <ele>460</ele>
        <time>2021-08-07T13:41:52.989Z</time>
      </trkpt>
      <trkpt lat="46.91384" lon="8.62358">
        <ele>460</ele>
        <time>2021-08-07T13:41:53.989Z</time>
      </trkpt>
      <trkpt lat="46.91384" lon="8.62359">
        <ele>460</ele>
        <time>2021-08-07T13:42:01.739Z</time>
      </trkpt>
      <trkpt lat="46.91384" lon="8.62359">
        <ele>461</ele>
        <time>2021-08-07T13:42:02.739Z</time>
      </trkpt>
      <trkpt lat="46.91384" lon="8.6236">
        <ele>461</ele>
        <time>2021-08-07T13:42:14.508Z</time>
      </trkpt>
      <trkpt lat="46.91384" lon="8.62361">
        <ele>461</ele>
        <time>2021-08-07T13:42:15.508Z</time>
      </trkpt>
      <trkpt lat="46.91384" lon="8.6236">
        <ele>461</ele>
        <time>2021-08-07T13:42:45.389Z</time>
      </trkpt>
      <trkpt lat="46.91383" lon="8.62362">
        <ele>461</ele>
        <time>2021-08-07T13:43:03.365Z</time>
      </trkpt>
      <trkpt lat="46.91382" lon="8.62361">
        <ele>461</ele>
        <time>2021-08-07T13:43:08.109Z</time>
      </trkpt>
      <trkpt lat="46.9138" lon="8.62361">
        <ele>461</ele>
        <time>2021-08-07T13:43:09.108Z</time>
      </trkpt>
      <trkpt lat="46.91379" lon="8.62361">
        <ele>461</ele>
        <time>2021-08-07T13:43:10.109Z</time>
      </trkpt>
      <trkpt lat="46.91379" lon="8.62361">
        <ele>461</ele>
        <time>2021-08-07T13:43:11.108Z</time>
      </trkpt>
      <trkpt lat="46.91378" lon="8.62436">
        <ele>461</ele>
        <time>2021-08-07T13:45:08.511Z</time>
      </trkpt>
      <trkpt lat="46.9138" lon="8.62441">
        <ele>461</ele>
        <time>2021-08-07T13:45:09.510Z</time>
      </trkpt>
      <trkpt lat="46.9138" lon="8.6246">
        <ele>461</ele>
        <time>2021-08-07T13:45:10.511Z</time>
      </trkpt>
      <trkpt lat="46.91388" lon="8.62455">
        <ele>462</ele>
        <time>2021-08-07T13:45:11.511Z</time>
      </trkpt>
      <trkpt lat="46.91392" lon="8.62438">
        <ele>462</ele>
        <time>2021-08-07T13:45:13.511Z</time>
      </trkpt>
      <trkpt lat="46.91397" lon="8.6242">
        <ele>463</ele>
        <time>2021-08-07T13:45:14.510Z</time>
      </trkpt>
      <trkpt lat="46.91399" lon="8.62409">
        <ele>463</ele>
        <time>2021-08-07T13:45:15.511Z</time>
      </trkpt>
      <trkpt lat="46.91411" lon="8.62392">
        <ele>464</ele>
        <time>2021-08-07T13:45:20.511Z</time>
      </trkpt>
      <trkpt lat="46.91402" lon="8.62408">
        <ele>464</ele>
        <time>2021-08-07T13:45:36.609Z</time>
      </trkpt>
      <trkpt lat="46.91401" lon="8.62414">
        <ele>464</ele>
        <time>2021-08-07T13:45:37.608Z</time>
      </trkpt>
      <trkpt lat="46.91401" lon="8.62411">
        <ele>465</ele>
        <time>2021-08-07T13:45:38.609Z</time>
      </trkpt>
    </trkseg>
  </trk>
</gpx>